<?xml version="1.0" encoding="UTF-8" standalone="no" ?>
<gpx xmlns="http://www.topografix.com/GPX/1/1" xmlns:xsi="http://www.w3.org/2001/XMLSchema-instance" xsi:schemaLocation="http://www.topografix.com/GPX/1/1 http://www.topografix.com/GPX/1/1/gpx.xsd" version="1.1" creator="VisuGPX - https://www.visugpx.com">
  <metadata>
    <name>Delta Louron octobre 2011</name>
    <desc><![CDATA[Louron 3700]]></desc>
  </metadata>
  <trk>
    <name><![CDATA[Delta Louron octobre 2011_1]]></name>
    <trkseg>
      <trkpt lat="42.77428" lon="0.45589">
        <ele>2281</ele>
        <time>2011-10-01T15:05:13.72</time>
      </trkpt>
      <trkpt lat="42.77428" lon="0.45589">
        <ele>2281</ele>
        <time>2011-10-01T15:06:01.13</time>
      </trkpt>
      <trkpt lat="42.77427" lon="0.45589">
        <ele>2281</ele>
        <time>2011-10-01T15:06:04.99</time>
      </trkpt>
      <trkpt lat="42.77427" lon="0.45589">
        <ele>2281.5</ele>
        <time>2011-10-01T15:06:06.29</time>
      </trkpt>
      <trkpt lat="42.77427" lon="0.45589">
        <ele>2281.5</ele>
        <time>2011-10-01T15:06:07.43</time>
      </trkpt>
      <trkpt lat="42.77427" lon="0.45589">
        <ele>2282</ele>
        <time>2011-10-01T15:06:07.99</time>
      </trkpt>
      <trkpt lat="42.77427" lon="0.45589">
        <ele>2282</ele>
        <time>2011-10-01T15:06:08.99</time>
      </trkpt>
      <trkpt lat="42.77427" lon="0.45589">
        <ele>2282</ele>
        <time>2011-10-01T15:06:10.11</time>
      </trkpt>
      <trkpt lat="42.77427" lon="0.45589">
        <ele>2282</ele>
        <time>2011-10-01T15:06:11.9</time>
      </trkpt>
      <trkpt lat="42.77427" lon="0.45589">
        <ele>2282</ele>
        <time>2011-10-01T15:06:11.99</time>
      </trkpt>
      <trkpt lat="42.77427" lon="0.45589">
        <ele>2282.5</ele>
        <time>2011-10-01T15:06:13.14</time>
      </trkpt>
      <trkpt lat="42.77427" lon="0.45589">
        <ele>2282.5</ele>
        <time>2011-10-01T15:06:13.99</time>
      </trkpt>
      <trkpt lat="42.77427" lon="0.45589">
        <ele>2282.5</ele>
        <time>2011-10-01T15:06:14.99</time>
      </trkpt>
      <trkpt lat="42.77426" lon="0.45589">
        <ele>2282.5</ele>
        <time>2011-10-01T15:06:15.99</time>
      </trkpt>
      <trkpt lat="42.77426" lon="0.45589">
        <ele>2282.5</ele>
        <time>2011-10-01T15:06:16.99</time>
      </trkpt>
      <trkpt lat="42.77426" lon="0.45588">
        <ele>2282.5</ele>
        <time>2011-10-01T15:06:17.99</time>
      </trkpt>
      <trkpt lat="42.77426" lon="0.45588">
        <ele>2282.5</ele>
        <time>2011-10-01T15:06:18.99</time>
      </trkpt>
      <trkpt lat="42.77426" lon="0.45588">
        <ele>2282.5</ele>
        <time>2011-10-01T15:06:20.9</time>
      </trkpt>
      <trkpt lat="42.77426" lon="0.45588">
        <ele>2282.5</ele>
        <time>2011-10-01T15:06:20.99</time>
      </trkpt>
      <trkpt lat="42.77426" lon="0.45588">
        <ele>2282.5</ele>
        <time>2011-10-01T15:06:21.99</time>
      </trkpt>
      <trkpt lat="42.77426" lon="0.45588">
        <ele>2282.5</ele>
        <time>2011-10-01T15:06:22.99</time>
      </trkpt>
      <trkpt lat="42.77426" lon="0.45588">
        <ele>2282.5</ele>
        <time>2011-10-01T15:06:23.99</time>
      </trkpt>
      <trkpt lat="42.77426" lon="0.45588">
        <ele>2283</ele>
        <time>2011-10-01T15:06:24.99</time>
      </trkpt>
      <trkpt lat="42.77426" lon="0.45588">
        <ele>2283</ele>
        <time>2011-10-01T15:06:25.99</time>
      </trkpt>
      <trkpt lat="42.77426" lon="0.45588">
        <ele>2283</ele>
        <time>2011-10-01T15:06:26.99</time>
      </trkpt>
      <trkpt lat="42.77426" lon="0.45588">
        <ele>2283</ele>
        <time>2011-10-01T15:06:27.99</time>
      </trkpt>
      <trkpt lat="42.77426" lon="0.45588">
        <ele>2283</ele>
        <time>2011-10-01T15:06:28.99</time>
      </trkpt>
      <trkpt lat="42.77426" lon="0.45588">
        <ele>2283</ele>
        <time>2011-10-01T15:06:29.99</time>
      </trkpt>
      <trkpt lat="42.77426" lon="0.45588">
        <ele>2283</ele>
        <time>2011-10-01T15:06:30.99</time>
      </trkpt>
      <trkpt lat="42.77426" lon="0.45588">
        <ele>2283</ele>
        <time>2011-10-01T15:06:31.99</time>
      </trkpt>
      <trkpt lat="42.77426" lon="0.45588">
        <ele>2283</ele>
        <time>2011-10-01T15:06:32.99</time>
      </trkpt>
      <trkpt lat="42.77426" lon="0.45588">
        <ele>2283</ele>
        <time>2011-10-01T15:06:33.99</time>
      </trkpt>
      <trkpt lat="42.77426" lon="0.45588">
        <ele>2283</ele>
        <time>2011-10-01T15:06:34.99</time>
      </trkpt>
      <trkpt lat="42.77426" lon="0.45588">
        <ele>2283</ele>
        <time>2011-10-01T15:06:35.99</time>
      </trkpt>
      <trkpt lat="42.77426" lon="0.45588">
        <ele>2283</ele>
        <time>2011-10-01T15:06:36.99</time>
      </trkpt>
      <trkpt lat="42.77426" lon="0.45588">
        <ele>2283</ele>
        <time>2011-10-01T15:06:38.9</time>
      </trkpt>
      <trkpt lat="42.77426" lon="0.45588">
        <ele>2283</ele>
        <time>2011-10-01T15:06:39.9</time>
      </trkpt>
      <trkpt lat="42.77426" lon="0.45588">
        <ele>2283</ele>
        <time>2011-10-01T15:06:40.9</time>
      </trkpt>
      <trkpt lat="42.77426" lon="0.45588">
        <ele>2283</ele>
        <time>2011-10-01T15:06:41.9</time>
      </trkpt>
      <trkpt lat="42.77426" lon="0.45588">
        <ele>2283</ele>
        <time>2011-10-01T15:06:42.9</time>
      </trkpt>
      <trkpt lat="42.77426" lon="0.45588">
        <ele>2283</ele>
        <time>2011-10-01T15:06:43.9</time>
      </trkpt>
      <trkpt lat="42.77426" lon="0.45588">
        <ele>2283</ele>
        <time>2011-10-01T15:06:44.9</time>
      </trkpt>
      <trkpt lat="42.77426" lon="0.45588">
        <ele>2283</ele>
        <time>2011-10-01T15:06:45.9</time>
      </trkpt>
      <trkpt lat="42.77426" lon="0.45588">
        <ele>2283</ele>
        <time>2011-10-01T15:06:45.99</time>
      </trkpt>
      <trkpt lat="42.77426" lon="0.45588">
        <ele>2283</ele>
        <time>2011-10-01T15:06:47.9</time>
      </trkpt>
      <trkpt lat="42.77426" lon="0.45588">
        <ele>2283</ele>
        <time>2011-10-01T15:06:48.9</time>
      </trkpt>
      <trkpt lat="42.77426" lon="0.45588">
        <ele>2283</ele>
        <time>2011-10-01T15:06:49.19</time>
      </trkpt>
      <trkpt lat="42.77426" lon="0.45588">
        <ele>2283</ele>
        <time>2011-10-01T15:06:50.9</time>
      </trkpt>
      <trkpt lat="42.77426" lon="0.45588">
        <ele>2283</ele>
        <time>2011-10-01T15:06:51.69</time>
      </trkpt>
      <trkpt lat="42.77426" lon="0.45588">
        <ele>2283</ele>
        <time>2011-10-01T15:06:52.9</time>
      </trkpt>
      <trkpt lat="42.77426" lon="0.45588">
        <ele>2283</ele>
        <time>2011-10-01T15:06:53.89</time>
      </trkpt>
      <trkpt lat="42.77426" lon="0.45588">
        <ele>2283</ele>
        <time>2011-10-01T15:06:54.9</time>
      </trkpt>
      <trkpt lat="42.77426" lon="0.45588">
        <ele>2283</ele>
        <time>2011-10-01T15:06:55.89</time>
      </trkpt>
      <trkpt lat="42.77426" lon="0.45588">
        <ele>2283</ele>
        <time>2011-10-01T15:06:56.19</time>
      </trkpt>
      <trkpt lat="42.77426" lon="0.45588">
        <ele>2283</ele>
        <time>2011-10-01T15:06:57.19</time>
      </trkpt>
      <trkpt lat="42.77426" lon="0.45588">
        <ele>2283</ele>
        <time>2011-10-01T15:06:58.19</time>
      </trkpt>
      <trkpt lat="42.77426" lon="0.45588">
        <ele>2283</ele>
        <time>2011-10-01T15:06:59.89</time>
      </trkpt>
      <trkpt lat="42.77426" lon="0.45588">
        <ele>2283</ele>
        <time>2011-10-01T15:07:00.9</time>
      </trkpt>
      <trkpt lat="42.77426" lon="0.45588">
        <ele>2283</ele>
        <time>2011-10-01T15:07:01.9</time>
      </trkpt>
      <trkpt lat="42.77426" lon="0.45588">
        <ele>2283</ele>
        <time>2011-10-01T15:07:02.9</time>
      </trkpt>
      <trkpt lat="42.77426" lon="0.45588">
        <ele>2283</ele>
        <time>2011-10-01T15:07:03.79</time>
      </trkpt>
      <trkpt lat="42.77426" lon="0.45588">
        <ele>2283</ele>
        <time>2011-10-01T15:07:04.19</time>
      </trkpt>
      <trkpt lat="42.77426" lon="0.45588">
        <ele>2283</ele>
        <time>2011-10-01T15:07:05.99</time>
      </trkpt>
      <trkpt lat="42.77426" lon="0.45588">
        <ele>2283</ele>
        <time>2011-10-01T15:07:06.9</time>
      </trkpt>
      <trkpt lat="42.77426" lon="0.45588">
        <ele>2283</ele>
        <time>2011-10-01T15:07:07.19</time>
      </trkpt>
      <trkpt lat="42.77426" lon="0.45588">
        <ele>2283</ele>
        <time>2011-10-01T15:07:08.19</time>
      </trkpt>
      <trkpt lat="42.77426" lon="0.45588">
        <ele>2283</ele>
        <time>2011-10-01T15:07:09.11</time>
      </trkpt>
      <trkpt lat="42.77426" lon="0.45588">
        <ele>2283</ele>
        <time>2011-10-01T15:07:10.19</time>
      </trkpt>
      <trkpt lat="42.77426" lon="0.45588">
        <ele>2283</ele>
        <time>2011-10-01T15:07:11.19</time>
      </trkpt>
      <trkpt lat="42.77426" lon="0.45588">
        <ele>2283</ele>
        <time>2011-10-01T15:07:12.29</time>
      </trkpt>
      <trkpt lat="42.77426" lon="0.45588">
        <ele>2283</ele>
        <time>2011-10-01T15:07:13.79</time>
      </trkpt>
      <trkpt lat="42.77426" lon="0.45588">
        <ele>2283</ele>
        <time>2011-10-01T15:07:14.19</time>
      </trkpt>
      <trkpt lat="42.77426" lon="0.45588">
        <ele>2283</ele>
        <time>2011-10-01T15:07:15.79</time>
      </trkpt>
      <trkpt lat="42.77426" lon="0.45588">
        <ele>2283</ele>
        <time>2011-10-01T15:07:16.19</time>
      </trkpt>
      <trkpt lat="42.77426" lon="0.45588">
        <ele>2283</ele>
        <time>2011-10-01T15:07:17.89</time>
      </trkpt>
      <trkpt lat="42.77426" lon="0.45588">
        <ele>2283</ele>
        <time>2011-10-01T15:07:18.19</time>
      </trkpt>
      <trkpt lat="42.77426" lon="0.45588">
        <ele>2283</ele>
        <time>2011-10-01T15:07:19.59</time>
      </trkpt>
      <trkpt lat="42.77426" lon="0.45588">
        <ele>2283</ele>
        <time>2011-10-01T15:07:20.39</time>
      </trkpt>
      <trkpt lat="42.77426" lon="0.45588">
        <ele>2283</ele>
        <time>2011-10-01T15:07:21.59</time>
      </trkpt>
      <trkpt lat="42.77426" lon="0.45588">
        <ele>2283</ele>
        <time>2011-10-01T15:07:22.99</time>
      </trkpt>
      <trkpt lat="42.77426" lon="0.45588">
        <ele>2283</ele>
        <time>2011-10-01T15:07:23.69</time>
      </trkpt>
      <trkpt lat="42.77426" lon="0.45588">
        <ele>2283</ele>
        <time>2011-10-01T15:07:24.19</time>
      </trkpt>
      <trkpt lat="42.77426" lon="0.45588">
        <ele>2283</ele>
        <time>2011-10-01T15:07:24.99</time>
      </trkpt>
      <trkpt lat="42.77426" lon="0.45588">
        <ele>2283</ele>
        <time>2011-10-01T15:07:26.9</time>
      </trkpt>
      <trkpt lat="42.77426" lon="0.45588">
        <ele>2283</ele>
        <time>2011-10-01T15:07:27.9</time>
      </trkpt>
      <trkpt lat="42.77426" lon="0.45588">
        <ele>2283</ele>
        <time>2011-10-01T15:07:28.9</time>
      </trkpt>
      <trkpt lat="42.77426" lon="0.45588">
        <ele>2283</ele>
        <time>2011-10-01T15:07:29.19</time>
      </trkpt>
      <trkpt lat="42.77425" lon="0.45588">
        <ele>2283</ele>
        <time>2011-10-01T15:07:29.99</time>
      </trkpt>
      <trkpt lat="42.77425" lon="0.45588">
        <ele>2283</ele>
        <time>2011-10-01T15:07:30.99</time>
      </trkpt>
      <trkpt lat="42.77425" lon="0.45588">
        <ele>2283</ele>
        <time>2011-10-01T15:07:32.29</time>
      </trkpt>
      <trkpt lat="42.77425" lon="0.45588">
        <ele>2283</ele>
        <time>2011-10-01T15:07:33.49</time>
      </trkpt>
      <trkpt lat="42.77425" lon="0.45588">
        <ele>2283</ele>
        <time>2011-10-01T15:07:33.99</time>
      </trkpt>
      <trkpt lat="42.77425" lon="0.45588">
        <ele>2283</ele>
        <time>2011-10-01T15:07:35.9</time>
      </trkpt>
      <trkpt lat="42.77425" lon="0.45588">
        <ele>2283</ele>
        <time>2011-10-01T15:07:35.99</time>
      </trkpt>
      <trkpt lat="42.77425" lon="0.45588">
        <ele>2283</ele>
        <time>2011-10-01T15:07:37.9</time>
      </trkpt>
      <trkpt lat="42.77425" lon="0.45588">
        <ele>2283</ele>
        <time>2011-10-01T15:07:38.49</time>
      </trkpt>
      <trkpt lat="42.77425" lon="0.45588">
        <ele>2283</ele>
        <time>2011-10-01T15:07:39.9</time>
      </trkpt>
      <trkpt lat="42.77425" lon="0.45588">
        <ele>2283</ele>
        <time>2011-10-01T15:07:40.69</time>
      </trkpt>
      <trkpt lat="42.77425" lon="0.45588">
        <ele>2283</ele>
        <time>2011-10-01T15:07:41.39</time>
      </trkpt>
      <trkpt lat="42.77425" lon="0.45588">
        <ele>2283</ele>
        <time>2011-10-01T15:07:42.9</time>
      </trkpt>
      <trkpt lat="42.77425" lon="0.45588">
        <ele>2283</ele>
        <time>2011-10-01T15:07:43.39</time>
      </trkpt>
      <trkpt lat="42.77425" lon="0.45588">
        <ele>2283</ele>
        <time>2011-10-01T15:07:44.29</time>
      </trkpt>
      <trkpt lat="42.77425" lon="0.45588">
        <ele>2283</ele>
        <time>2011-10-01T15:07:45.29</time>
      </trkpt>
      <trkpt lat="42.77425" lon="0.45588">
        <ele>2283</ele>
        <time>2011-10-01T15:07:46.29</time>
      </trkpt>
      <trkpt lat="42.77425" lon="0.45588">
        <ele>2283</ele>
        <time>2011-10-01T15:07:47.79</time>
      </trkpt>
      <trkpt lat="42.77425" lon="0.45588">
        <ele>2283</ele>
        <time>2011-10-01T15:07:48.89</time>
      </trkpt>
      <trkpt lat="42.77425" lon="0.45588">
        <ele>2283</ele>
        <time>2011-10-01T15:07:49.9</time>
      </trkpt>
      <trkpt lat="42.77425" lon="0.45588">
        <ele>2283</ele>
        <time>2011-10-01T15:07:50.99</time>
      </trkpt>
      <trkpt lat="42.77425" lon="0.45588">
        <ele>2283</ele>
        <time>2011-10-01T15:07:51.9</time>
      </trkpt>
      <trkpt lat="42.77425" lon="0.45588">
        <ele>2283</ele>
        <time>2011-10-01T15:07:52.79</time>
      </trkpt>
      <trkpt lat="42.77425" lon="0.45588">
        <ele>2283</ele>
        <time>2011-10-01T15:07:53.9</time>
      </trkpt>
      <trkpt lat="42.77425" lon="0.45588">
        <ele>2283</ele>
        <time>2011-10-01T15:07:54.39</time>
      </trkpt>
      <trkpt lat="42.77425" lon="0.45588">
        <ele>2283</ele>
        <time>2011-10-01T15:07:55.9</time>
      </trkpt>
      <trkpt lat="42.77425" lon="0.45588">
        <ele>2283</ele>
        <time>2011-10-01T15:07:56.9</time>
      </trkpt>
      <trkpt lat="42.77425" lon="0.45588">
        <ele>2283</ele>
        <time>2011-10-01T15:07:57.9</time>
      </trkpt>
      <trkpt lat="42.77425" lon="0.45588">
        <ele>2283</ele>
        <time>2011-10-01T15:07:58.9</time>
      </trkpt>
      <trkpt lat="42.77425" lon="0.45588">
        <ele>2283</ele>
        <time>2011-10-01T15:07:59</time>
      </trkpt>
      <trkpt lat="42.77425" lon="0.45588">
        <ele>2283</ele>
        <time>2011-10-01T15:08:00.69</time>
      </trkpt>
      <trkpt lat="42.77425" lon="0.45588">
        <ele>2283</ele>
        <time>2011-10-01T15:08:01.9</time>
      </trkpt>
      <trkpt lat="42.77425" lon="0.45588">
        <ele>2283</ele>
        <time>2011-10-01T15:08:02.9</time>
      </trkpt>
      <trkpt lat="42.77425" lon="0.45588">
        <ele>2283</ele>
        <time>2011-10-01T15:08:03.9</time>
      </trkpt>
      <trkpt lat="42.77425" lon="0.45588">
        <ele>2283</ele>
        <time>2011-10-01T15:08:04.9</time>
      </trkpt>
      <trkpt lat="42.77425" lon="0.45588">
        <ele>2283</ele>
        <time>2011-10-01T15:08:05.9</time>
      </trkpt>
      <trkpt lat="42.77425" lon="0.45588">
        <ele>2283</ele>
        <time>2011-10-01T15:08:06.9</time>
      </trkpt>
      <trkpt lat="42.77425" lon="0.45588">
        <ele>2283</ele>
        <time>2011-10-01T15:08:07.9</time>
      </trkpt>
      <trkpt lat="42.77425" lon="0.45588">
        <ele>2283</ele>
        <time>2011-10-01T15:08:08.9</time>
      </trkpt>
      <trkpt lat="42.77425" lon="0.45588">
        <ele>2283</ele>
        <time>2011-10-01T15:08:09</time>
      </trkpt>
      <trkpt lat="42.77425" lon="0.45588">
        <ele>2283</ele>
        <time>2011-10-01T15:08:10.89</time>
      </trkpt>
      <trkpt lat="42.77425" lon="0.45588">
        <ele>2283</ele>
        <time>2011-10-01T15:08:11.9</time>
      </trkpt>
      <trkpt lat="42.77425" lon="0.45588">
        <ele>2283</ele>
        <time>2011-10-01T15:08:12.9</time>
      </trkpt>
      <trkpt lat="42.77425" lon="0.45588">
        <ele>2283</ele>
        <time>2011-10-01T15:08:13.29</time>
      </trkpt>
      <trkpt lat="42.77425" lon="0.45588">
        <ele>2283</ele>
        <time>2011-10-01T15:08:14.9</time>
      </trkpt>
      <trkpt lat="42.77425" lon="0.45588">
        <ele>2283</ele>
        <time>2011-10-01T15:08:15.29</time>
      </trkpt>
      <trkpt lat="42.77425" lon="0.45588">
        <ele>2283</ele>
        <time>2011-10-01T15:08:16.39</time>
      </trkpt>
      <trkpt lat="42.77425" lon="0.45588">
        <ele>2283</ele>
        <time>2011-10-01T15:08:17.39</time>
      </trkpt>
      <trkpt lat="42.77425" lon="0.45588">
        <ele>2283</ele>
        <time>2011-10-01T15:08:18.19</time>
      </trkpt>
      <trkpt lat="42.77425" lon="0.45588">
        <ele>2283</ele>
        <time>2011-10-01T15:08:19.10</time>
      </trkpt>
      <trkpt lat="42.77425" lon="0.45588">
        <ele>2283</ele>
        <time>2011-10-01T15:08:20.39</time>
      </trkpt>
      <trkpt lat="42.77425" lon="0.45588">
        <ele>2283</ele>
        <time>2011-10-01T15:08:21.69</time>
      </trkpt>
      <trkpt lat="42.77425" lon="0.45588">
        <ele>2283</ele>
        <time>2011-10-01T15:08:22.89</time>
      </trkpt>
      <trkpt lat="42.77425" lon="0.45588">
        <ele>2283</ele>
        <time>2011-10-01T15:08:23.89</time>
      </trkpt>
      <trkpt lat="42.77425" lon="0.45588">
        <ele>2283</ele>
        <time>2011-10-01T15:08:24.19</time>
      </trkpt>
      <trkpt lat="42.77425" lon="0.45588">
        <ele>2283</ele>
        <time>2011-10-01T15:08:25.49</time>
      </trkpt>
      <trkpt lat="42.77425" lon="0.45588">
        <ele>2283</ele>
        <time>2011-10-01T15:08:26.19</time>
      </trkpt>
      <trkpt lat="42.77425" lon="0.45588">
        <ele>2283</ele>
        <time>2011-10-01T15:08:27.9</time>
      </trkpt>
      <trkpt lat="42.77425" lon="0.45588">
        <ele>2283</ele>
        <time>2011-10-01T15:08:28.9</time>
      </trkpt>
      <trkpt lat="42.77425" lon="0.45588">
        <ele>2283</ele>
        <time>2011-10-01T15:08:29.9</time>
      </trkpt>
      <trkpt lat="42.77425" lon="0.45588">
        <ele>2283</ele>
        <time>2011-10-01T15:08:30.9</time>
      </trkpt>
      <trkpt lat="42.77425" lon="0.45588">
        <ele>2283</ele>
        <time>2011-10-01T15:08:31.19</time>
      </trkpt>
      <trkpt lat="42.77425" lon="0.45588">
        <ele>2283</ele>
        <time>2011-10-01T15:08:32.9</time>
      </trkpt>
      <trkpt lat="42.77425" lon="0.45588">
        <ele>2283</ele>
        <time>2011-10-01T15:08:33.9</time>
      </trkpt>
      <trkpt lat="42.77425" lon="0.45588">
        <ele>2283</ele>
        <time>2011-10-01T15:08:34.9</time>
      </trkpt>
      <trkpt lat="42.77425" lon="0.45588">
        <ele>2283</ele>
        <time>2011-10-01T15:08:35.9</time>
      </trkpt>
      <trkpt lat="42.77425" lon="0.45588">
        <ele>2283</ele>
        <time>2011-10-01T15:08:36.9</time>
      </trkpt>
      <trkpt lat="42.77425" lon="0.45588">
        <ele>2283</ele>
        <time>2011-10-01T15:08:37.9</time>
      </trkpt>
      <trkpt lat="42.77425" lon="0.45588">
        <ele>2283</ele>
        <time>2011-10-01T15:08:38.29</time>
      </trkpt>
      <trkpt lat="42.77425" lon="0.45588">
        <ele>2283</ele>
        <time>2011-10-01T15:08:39.79</time>
      </trkpt>
      <trkpt lat="42.77425" lon="0.45588">
        <ele>2283</ele>
        <time>2011-10-01T15:08:40.9</time>
      </trkpt>
      <trkpt lat="42.77425" lon="0.45588">
        <ele>2283</ele>
        <time>2011-10-01T15:08:41.9</time>
      </trkpt>
      <trkpt lat="42.77425" lon="0.45588">
        <ele>2283</ele>
        <time>2011-10-01T15:08:42.9</time>
      </trkpt>
      <trkpt lat="42.77425" lon="0.45588">
        <ele>2283</ele>
        <time>2011-10-01T15:08:43.79</time>
      </trkpt>
      <trkpt lat="42.77425" lon="0.45588">
        <ele>2283</ele>
        <time>2011-10-01T15:08:44.9</time>
      </trkpt>
      <trkpt lat="42.77425" lon="0.45588">
        <ele>2283</ele>
        <time>2011-10-01T15:08:45.89</time>
      </trkpt>
      <trkpt lat="42.77425" lon="0.45588">
        <ele>2283</ele>
        <time>2011-10-01T15:08:46.9</time>
      </trkpt>
      <trkpt lat="42.77425" lon="0.45588">
        <ele>2283</ele>
        <time>2011-10-01T15:08:47.89</time>
      </trkpt>
      <trkpt lat="42.77425" lon="0.45588">
        <ele>2283</ele>
        <time>2011-10-01T15:08:48.9</time>
      </trkpt>
      <trkpt lat="42.77425" lon="0.45588">
        <ele>2283</ele>
        <time>2011-10-01T15:08:49.9</time>
      </trkpt>
      <trkpt lat="42.77425" lon="0.45588">
        <ele>2283</ele>
        <time>2011-10-01T15:08:50.9</time>
      </trkpt>
      <trkpt lat="42.77425" lon="0.45588">
        <ele>2283</ele>
        <time>2011-10-01T15:08:51.9</time>
      </trkpt>
      <trkpt lat="42.77425" lon="0.45588">
        <ele>2283</ele>
        <time>2011-10-01T15:08:52.9</time>
      </trkpt>
      <trkpt lat="42.77425" lon="0.45588">
        <ele>2283</ele>
        <time>2011-10-01T15:08:53.79</time>
      </trkpt>
      <trkpt lat="42.77425" lon="0.45588">
        <ele>2283</ele>
        <time>2011-10-01T15:08:54.9</time>
      </trkpt>
      <trkpt lat="42.77425" lon="0.45588">
        <ele>2283</ele>
        <time>2011-10-01T15:08:55.9</time>
      </trkpt>
      <trkpt lat="42.77425" lon="0.45588">
        <ele>2283</ele>
        <time>2011-10-01T15:08:56.9</time>
      </trkpt>
      <trkpt lat="42.77425" lon="0.45588">
        <ele>2283</ele>
        <time>2011-10-01T15:08:57.9</time>
      </trkpt>
      <trkpt lat="42.77425" lon="0.45588">
        <ele>2283</ele>
        <time>2011-10-01T15:08:57.99</time>
      </trkpt>
      <trkpt lat="42.77425" lon="0.45588">
        <ele>2283</ele>
        <time>2011-10-01T15:08:59.9</time>
      </trkpt>
      <trkpt lat="42.77425" lon="0.45588">
        <ele>2283</ele>
        <time>2011-10-01T15:09:00.9</time>
      </trkpt>
      <trkpt lat="42.77425" lon="0.45588">
        <ele>2283</ele>
        <time>2011-10-01T15:09:01.9</time>
      </trkpt>
      <trkpt lat="42.77425" lon="0.45588">
        <ele>2283</ele>
        <time>2011-10-01T15:09:01.99</time>
      </trkpt>
      <trkpt lat="42.77425" lon="0.45588">
        <ele>2283</ele>
        <time>2011-10-01T15:09:03.9</time>
      </trkpt>
      <trkpt lat="42.77425" lon="0.45588">
        <ele>2283</ele>
        <time>2011-10-01T15:09:03.99</time>
      </trkpt>
      <trkpt lat="42.77425" lon="0.45588">
        <ele>2283</ele>
        <time>2011-10-01T15:09:05.49</time>
      </trkpt>
      <trkpt lat="42.77425" lon="0.45588">
        <ele>2283</ele>
        <time>2011-10-01T15:09:05.99</time>
      </trkpt>
      <trkpt lat="42.77425" lon="0.45588">
        <ele>2283</ele>
        <time>2011-10-01T15:09:07.69</time>
      </trkpt>
      <trkpt lat="42.77425" lon="0.45588">
        <ele>2283</ele>
        <time>2011-10-01T15:09:08.9</time>
      </trkpt>
      <trkpt lat="42.77425" lon="0.45588">
        <ele>2283</ele>
        <time>2011-10-01T15:09:09</time>
      </trkpt>
      <trkpt lat="42.77425" lon="0.45588">
        <ele>2283</ele>
        <time>2011-10-01T15:09:10.9</time>
      </trkpt>
      <trkpt lat="42.77425" lon="0.45588">
        <ele>2283</ele>
        <time>2011-10-01T15:09:11.79</time>
      </trkpt>
      <trkpt lat="42.77425" lon="0.45588">
        <ele>2283</ele>
        <time>2011-10-01T15:09:12.39</time>
      </trkpt>
      <trkpt lat="42.77425" lon="0.45588">
        <ele>2283</ele>
        <time>2011-10-01T15:09:13.9</time>
      </trkpt>
      <trkpt lat="42.77425" lon="0.45588">
        <ele>2283</ele>
        <time>2011-10-01T15:09:14.9</time>
      </trkpt>
      <trkpt lat="42.77425" lon="0.45588">
        <ele>2283</ele>
        <time>2011-10-01T15:09:15.9</time>
      </trkpt>
      <trkpt lat="42.77425" lon="0.45588">
        <ele>2283</ele>
        <time>2011-10-01T15:09:16.9</time>
      </trkpt>
      <trkpt lat="42.77425" lon="0.45588">
        <ele>2283</ele>
        <time>2011-10-01T15:09:17.9</time>
      </trkpt>
      <trkpt lat="42.77425" lon="0.45588">
        <ele>2283</ele>
        <time>2011-10-01T15:09:18.9</time>
      </trkpt>
      <trkpt lat="42.77425" lon="0.45588">
        <ele>2283</ele>
        <time>2011-10-01T15:09:19.79</time>
      </trkpt>
      <trkpt lat="42.77425" lon="0.45588">
        <ele>2283</ele>
        <time>2011-10-01T15:09:20.89</time>
      </trkpt>
      <trkpt lat="42.77425" lon="0.45588">
        <ele>2283</ele>
        <time>2011-10-01T15:09:21.9</time>
      </trkpt>
      <trkpt lat="42.77425" lon="0.45588">
        <ele>2283</ele>
        <time>2011-10-01T15:09:22.9</time>
      </trkpt>
      <trkpt lat="42.77425" lon="0.45588">
        <ele>2283</ele>
        <time>2011-10-01T15:09:23.9</time>
      </trkpt>
      <trkpt lat="42.77425" lon="0.45588">
        <ele>2283</ele>
        <time>2011-10-01T15:09:24.69</time>
      </trkpt>
      <trkpt lat="42.77425" lon="0.45588">
        <ele>2283</ele>
        <time>2011-10-01T15:09:25.9</time>
      </trkpt>
      <trkpt lat="42.77425" lon="0.45588">
        <ele>2283</ele>
        <time>2011-10-01T15:09:26.9</time>
      </trkpt>
      <trkpt lat="42.77425" lon="0.45588">
        <ele>2283</ele>
        <time>2011-10-01T15:09:27.9</time>
      </trkpt>
      <trkpt lat="42.77425" lon="0.45588">
        <ele>2283</ele>
        <time>2011-10-01T15:09:28.9</time>
      </trkpt>
      <trkpt lat="42.77425" lon="0.45588">
        <ele>2283</ele>
        <time>2011-10-01T15:09:29.9</time>
      </trkpt>
      <trkpt lat="42.77425" lon="0.45588">
        <ele>2283</ele>
        <time>2011-10-01T15:09:30.19</time>
      </trkpt>
      <trkpt lat="42.77425" lon="0.45588">
        <ele>2283</ele>
        <time>2011-10-01T15:09:31.9</time>
      </trkpt>
      <trkpt lat="42.77425" lon="0.45588">
        <ele>2283</ele>
        <time>2011-10-01T15:09:32.9</time>
      </trkpt>
      <trkpt lat="42.77425" lon="0.45588">
        <ele>2283</ele>
        <time>2011-10-01T15:09:33.9</time>
      </trkpt>
      <trkpt lat="42.77425" lon="0.45588">
        <ele>2283</ele>
        <time>2011-10-01T15:09:34.9</time>
      </trkpt>
      <trkpt lat="42.77425" lon="0.45588">
        <ele>2283</ele>
        <time>2011-10-01T15:09:35.9</time>
      </trkpt>
      <trkpt lat="42.77425" lon="0.45588">
        <ele>2283</ele>
        <time>2011-10-01T15:09:36.9</time>
      </trkpt>
      <trkpt lat="42.77425" lon="0.45588">
        <ele>2283</ele>
        <time>2011-10-01T15:09:37.9</time>
      </trkpt>
      <trkpt lat="42.77425" lon="0.45588">
        <ele>2283</ele>
        <time>2011-10-01T15:09:38.19</time>
      </trkpt>
      <trkpt lat="42.77425" lon="0.45588">
        <ele>2283</ele>
        <time>2011-10-01T15:09:38.99</time>
      </trkpt>
      <trkpt lat="42.77425" lon="0.45588">
        <ele>2283</ele>
        <time>2011-10-01T15:09:40.9</time>
      </trkpt>
      <trkpt lat="42.77425" lon="0.45588">
        <ele>2283</ele>
        <time>2011-10-01T15:09:41.9</time>
      </trkpt>
      <trkpt lat="42.77425" lon="0.45588">
        <ele>2283</ele>
        <time>2011-10-01T15:09:42.9</time>
      </trkpt>
      <trkpt lat="42.77425" lon="0.45588">
        <ele>2283</ele>
        <time>2011-10-01T15:09:43.9</time>
      </trkpt>
      <trkpt lat="42.77425" lon="0.45588">
        <ele>2283</ele>
        <time>2011-10-01T15:09:44.9</time>
      </trkpt>
      <trkpt lat="42.77425" lon="0.45588">
        <ele>2283</ele>
        <time>2011-10-01T15:09:45.9</time>
      </trkpt>
      <trkpt lat="42.77425" lon="0.45588">
        <ele>2283</ele>
        <time>2011-10-01T15:09:46.9</time>
      </trkpt>
      <trkpt lat="42.77425" lon="0.45588">
        <ele>2283</ele>
        <time>2011-10-01T15:09:47.9</time>
      </trkpt>
      <trkpt lat="42.77425" lon="0.45588">
        <ele>2283</ele>
        <time>2011-10-01T15:09:48.59</time>
      </trkpt>
      <trkpt lat="42.77425" lon="0.45588">
        <ele>2283</ele>
        <time>2011-10-01T15:09:48.99</time>
      </trkpt>
      <trkpt lat="42.77425" lon="0.45588">
        <ele>2283</ele>
        <time>2011-10-01T15:09:50.9</time>
      </trkpt>
      <trkpt lat="42.77425" lon="0.45588">
        <ele>2283</ele>
        <time>2011-10-01T15:09:51.9</time>
      </trkpt>
      <trkpt lat="42.77425" lon="0.45588">
        <ele>2283</ele>
        <time>2011-10-01T15:09:52.9</time>
      </trkpt>
      <trkpt lat="42.77425" lon="0.45588">
        <ele>2283</ele>
        <time>2011-10-01T15:09:53.9</time>
      </trkpt>
      <trkpt lat="42.77425" lon="0.45588">
        <ele>2283</ele>
        <time>2011-10-01T15:09:54.29</time>
      </trkpt>
      <trkpt lat="42.77425" lon="0.45588">
        <ele>2283</ele>
        <time>2011-10-01T15:09:55.19</time>
      </trkpt>
      <trkpt lat="42.77425" lon="0.45588">
        <ele>2282.5</ele>
        <time>2011-10-01T15:09:56.89</time>
      </trkpt>
      <trkpt lat="42.77425" lon="0.45588">
        <ele>2282.5</ele>
        <time>2011-10-01T15:09:56.99</time>
      </trkpt>
      <trkpt lat="42.77425" lon="0.45588">
        <ele>2282.5</ele>
        <time>2011-10-01T15:09:57.99</time>
      </trkpt>
      <trkpt lat="42.77425" lon="0.45588">
        <ele>2282.5</ele>
        <time>2011-10-01T15:09:58.99</time>
      </trkpt>
      <trkpt lat="42.77425" lon="0.45588">
        <ele>2282.5</ele>
        <time>2011-10-01T15:10:00.79</time>
      </trkpt>
      <trkpt lat="42.77425" lon="0.45588">
        <ele>2282.5</ele>
        <time>2011-10-01T15:10:00.99</time>
      </trkpt>
      <trkpt lat="42.77425" lon="0.45588">
        <ele>2282.5</ele>
        <time>2011-10-01T15:10:01.99</time>
      </trkpt>
      <trkpt lat="42.77425" lon="0.45588">
        <ele>2282.5</ele>
        <time>2011-10-01T15:10:03.9</time>
      </trkpt>
      <trkpt lat="42.77425" lon="0.45588">
        <ele>2282.5</ele>
        <time>2011-10-01T15:10:04.9</time>
      </trkpt>
      <trkpt lat="42.77425" lon="0.45588">
        <ele>2282.5</ele>
        <time>2011-10-01T15:10:04.99</time>
      </trkpt>
      <trkpt lat="42.77425" lon="0.45588">
        <ele>2282.5</ele>
        <time>2011-10-01T15:10:05.99</time>
      </trkpt>
      <trkpt lat="42.77425" lon="0.45588">
        <ele>2282.5</ele>
        <time>2011-10-01T15:10:06.99</time>
      </trkpt>
      <trkpt lat="42.77425" lon="0.45588">
        <ele>2282.5</ele>
        <time>2011-10-01T15:10:07.99</time>
      </trkpt>
      <trkpt lat="42.77425" lon="0.45588">
        <ele>2282.5</ele>
        <time>2011-10-01T15:10:08.99</time>
      </trkpt>
      <trkpt lat="42.77425" lon="0.45588">
        <ele>2282.5</ele>
        <time>2011-10-01T15:10:10.69</time>
      </trkpt>
      <trkpt lat="42.77425" lon="0.45588">
        <ele>2282.5</ele>
        <time>2011-10-01T15:10:10.99</time>
      </trkpt>
      <trkpt lat="42.77425" lon="0.45588">
        <ele>2282.5</ele>
        <time>2011-10-01T15:10:11.99</time>
      </trkpt>
      <trkpt lat="42.77425" lon="0.45588">
        <ele>2282.5</ele>
        <time>2011-10-01T15:10:12.99</time>
      </trkpt>
      <trkpt lat="42.77425" lon="0.45588">
        <ele>2282.5</ele>
        <time>2011-10-01T15:10:14.89</time>
      </trkpt>
      <trkpt lat="42.77425" lon="0.45588">
        <ele>2282.5</ele>
        <time>2011-10-01T15:10:15.9</time>
      </trkpt>
      <trkpt lat="42.77425" lon="0.45588">
        <ele>2282.5</ele>
        <time>2011-10-01T15:10:16.19</time>
      </trkpt>
      <trkpt lat="42.77425" lon="0.45588">
        <ele>2282.5</ele>
        <time>2011-10-01T15:10:17.9</time>
      </trkpt>
      <trkpt lat="42.77425" lon="0.45588">
        <ele>2282.5</ele>
        <time>2011-10-01T15:10:18.9</time>
      </trkpt>
      <trkpt lat="42.77425" lon="0.45588">
        <ele>2282.5</ele>
        <time>2011-10-01T15:10:19.9</time>
      </trkpt>
      <trkpt lat="42.77425" lon="0.45588">
        <ele>2282.5</ele>
        <time>2011-10-01T15:10:20.9</time>
      </trkpt>
      <trkpt lat="42.77425" lon="0.45588">
        <ele>2282.5</ele>
        <time>2011-10-01T15:10:21.9</time>
      </trkpt>
      <trkpt lat="42.77425" lon="0.45588">
        <ele>2282.5</ele>
        <time>2011-10-01T15:10:21.99</time>
      </trkpt>
      <trkpt lat="42.77425" lon="0.45588">
        <ele>2282.5</ele>
        <time>2011-10-01T15:10:23.9</time>
      </trkpt>
      <trkpt lat="42.77425" lon="0.45588">
        <ele>2282.5</ele>
        <time>2011-10-01T15:10:24.9</time>
      </trkpt>
      <trkpt lat="42.77425" lon="0.45588">
        <ele>2282.5</ele>
        <time>2011-10-01T15:10:25.9</time>
      </trkpt>
      <trkpt lat="42.77425" lon="0.45588">
        <ele>2282.5</ele>
        <time>2011-10-01T15:10:26.29</time>
      </trkpt>
      <trkpt lat="42.77425" lon="0.45588">
        <ele>2282.5</ele>
        <time>2011-10-01T15:10:27.9</time>
      </trkpt>
      <trkpt lat="42.77425" lon="0.45588">
        <ele>2282.5</ele>
        <time>2011-10-01T15:10:27.99</time>
      </trkpt>
      <trkpt lat="42.77425" lon="0.45588">
        <ele>2282.5</ele>
        <time>2011-10-01T15:10:29.19</time>
      </trkpt>
      <trkpt lat="42.77425" lon="0.45588">
        <ele>2282.5</ele>
        <time>2011-10-01T15:10:30.9</time>
      </trkpt>
      <trkpt lat="42.77425" lon="0.45588">
        <ele>2282.5</ele>
        <time>2011-10-01T15:10:31.39</time>
      </trkpt>
      <trkpt lat="42.77425" lon="0.45588">
        <ele>2282.5</ele>
        <time>2011-10-01T15:10:32.29</time>
      </trkpt>
      <trkpt lat="42.77425" lon="0.45588">
        <ele>2282.5</ele>
        <time>2011-10-01T15:10:33.9</time>
      </trkpt>
      <trkpt lat="42.77425" lon="0.45588">
        <ele>2282.5</ele>
        <time>2011-10-01T15:10:34.9</time>
      </trkpt>
      <trkpt lat="42.77425" lon="0.45588">
        <ele>2282.5</ele>
        <time>2011-10-01T15:10:35.9</time>
      </trkpt>
      <trkpt lat="42.77425" lon="0.45588">
        <ele>2282.5</ele>
        <time>2011-10-01T15:10:36.9</time>
      </trkpt>
      <trkpt lat="42.77425" lon="0.45588">
        <ele>2282.5</ele>
        <time>2011-10-01T15:10:37.9</time>
      </trkpt>
      <trkpt lat="42.77425" lon="0.45588">
        <ele>2282.5</ele>
        <time>2011-10-01T15:10:38.29</time>
      </trkpt>
      <trkpt lat="42.77425" lon="0.45588">
        <ele>2282.5</ele>
        <time>2011-10-01T15:10:39.59</time>
      </trkpt>
      <trkpt lat="42.77425" lon="0.45588">
        <ele>2282.5</ele>
        <time>2011-10-01T15:10:40.9</time>
      </trkpt>
      <trkpt lat="42.77425" lon="0.45588">
        <ele>2282.5</ele>
        <time>2011-10-01T15:10:41.19</time>
      </trkpt>
      <trkpt lat="42.77425" lon="0.45588">
        <ele>2282.5</ele>
        <time>2011-10-01T15:10:42.9</time>
      </trkpt>
      <trkpt lat="42.77425" lon="0.45588">
        <ele>2282.5</ele>
        <time>2011-10-01T15:10:43.9</time>
      </trkpt>
      <trkpt lat="42.77425" lon="0.45588">
        <ele>2282.5</ele>
        <time>2011-10-01T15:10:44.9</time>
      </trkpt>
      <trkpt lat="42.77425" lon="0.45588">
        <ele>2282.5</ele>
        <time>2011-10-01T15:10:45.9</time>
      </trkpt>
      <trkpt lat="42.77425" lon="0.45588">
        <ele>2282.5</ele>
        <time>2011-10-01T15:10:46.9</time>
      </trkpt>
      <trkpt lat="42.77425" lon="0.45588">
        <ele>2282.5</ele>
        <time>2011-10-01T15:10:46.99</time>
      </trkpt>
      <trkpt lat="42.77425" lon="0.45588">
        <ele>2282.5</ele>
        <time>2011-10-01T15:10:47.99</time>
      </trkpt>
      <trkpt lat="42.77425" lon="0.45588">
        <ele>2282.5</ele>
        <time>2011-10-01T15:10:49.9</time>
      </trkpt>
      <trkpt lat="42.77425" lon="0.45588">
        <ele>2282.5</ele>
        <time>2011-10-01T15:10:49.99</time>
      </trkpt>
      <trkpt lat="42.77425" lon="0.45588">
        <ele>2282.5</ele>
        <time>2011-10-01T15:10:51.9</time>
      </trkpt>
      <trkpt lat="42.77425" lon="0.45588">
        <ele>2282.5</ele>
        <time>2011-10-01T15:10:51.99</time>
      </trkpt>
      <trkpt lat="42.77425" lon="0.45588">
        <ele>2282.5</ele>
        <time>2011-10-01T15:10:52.99</time>
      </trkpt>
      <trkpt lat="42.77425" lon="0.45588">
        <ele>2282.5</ele>
        <time>2011-10-01T15:10:54.9</time>
      </trkpt>
      <trkpt lat="42.77425" lon="0.45588">
        <ele>2282.5</ele>
        <time>2011-10-01T15:10:55.9</time>
      </trkpt>
      <trkpt lat="42.77425" lon="0.45588">
        <ele>2282.5</ele>
        <time>2011-10-01T15:10:55.99</time>
      </trkpt>
      <trkpt lat="42.77425" lon="0.45588">
        <ele>2282.5</ele>
        <time>2011-10-01T15:10:57.9</time>
      </trkpt>
      <trkpt lat="42.77425" lon="0.45588">
        <ele>2282.5</ele>
        <time>2011-10-01T15:10:57.99</time>
      </trkpt>
      <trkpt lat="42.77425" lon="0.45588">
        <ele>2282.5</ele>
        <time>2011-10-01T15:10:59.39</time>
      </trkpt>
      <trkpt lat="42.77425" lon="0.45588">
        <ele>2282.5</ele>
        <time>2011-10-01T15:11:00.19</time>
      </trkpt>
      <trkpt lat="42.77425" lon="0.45588">
        <ele>2282.5</ele>
        <time>2011-10-01T15:11:01.59</time>
      </trkpt>
      <trkpt lat="42.77425" lon="0.45588">
        <ele>2282.5</ele>
        <time>2011-10-01T15:11:02.79</time>
      </trkpt>
      <trkpt lat="42.77425" lon="0.45588">
        <ele>2282.5</ele>
        <time>2011-10-01T15:11:03.99</time>
      </trkpt>
      <trkpt lat="42.77425" lon="0.45588">
        <ele>2282.5</ele>
        <time>2011-10-01T15:11:05.99</time>
      </trkpt>
      <trkpt lat="42.77425" lon="0.45588">
        <ele>2282.5</ele>
        <time>2011-10-01T15:11:07.9</time>
      </trkpt>
      <trkpt lat="42.77425" lon="0.45588">
        <ele>2282.5</ele>
        <time>2011-10-01T15:11:08.9</time>
      </trkpt>
      <trkpt lat="42.77425" lon="0.45588">
        <ele>2282.5</ele>
        <time>2011-10-01T15:11:09.23</time>
      </trkpt>
      <trkpt lat="42.77425" lon="0.45588">
        <ele>2282.5</ele>
        <time>2011-10-01T15:11:10.9</time>
      </trkpt>
      <trkpt lat="42.77425" lon="0.45588">
        <ele>2282.5</ele>
        <time>2011-10-01T15:11:11.69</time>
      </trkpt>
      <trkpt lat="42.77425" lon="0.45588">
        <ele>2282.5</ele>
        <time>2011-10-01T15:11:12.9</time>
      </trkpt>
      <trkpt lat="42.77425" lon="0.45588">
        <ele>2282.5</ele>
        <time>2011-10-01T15:11:13.59</time>
      </trkpt>
      <trkpt lat="42.77425" lon="0.45588">
        <ele>2282.5</ele>
        <time>2011-10-01T15:11:14.79</time>
      </trkpt>
      <trkpt lat="42.77425" lon="0.45588">
        <ele>2282.5</ele>
        <time>2011-10-01T15:11:15.79</time>
      </trkpt>
      <trkpt lat="42.77425" lon="0.45588">
        <ele>2282.5</ele>
        <time>2011-10-01T15:11:16.10</time>
      </trkpt>
      <trkpt lat="42.77425" lon="0.45588">
        <ele>2282.5</ele>
        <time>2011-10-01T15:11:17.89</time>
      </trkpt>
      <trkpt lat="42.77425" lon="0.45588">
        <ele>2282.5</ele>
        <time>2011-10-01T15:11:18.69</time>
      </trkpt>
      <trkpt lat="42.77425" lon="0.45588">
        <ele>2282.5</ele>
        <time>2011-10-01T15:11:19.79</time>
      </trkpt>
      <trkpt lat="42.77425" lon="0.45588">
        <ele>2282.5</ele>
        <time>2011-10-01T15:11:20.99</time>
      </trkpt>
      <trkpt lat="42.77425" lon="0.45588">
        <ele>2282.5</ele>
        <time>2011-10-01T15:11:21.9</time>
      </trkpt>
      <trkpt lat="42.77425" lon="0.45588">
        <ele>2282.5</ele>
        <time>2011-10-01T15:11:22.99</time>
      </trkpt>
      <trkpt lat="42.77425" lon="0.45588">
        <ele>2282.5</ele>
        <time>2011-10-01T15:11:23.89</time>
      </trkpt>
      <trkpt lat="42.77425" lon="0.45588">
        <ele>2282.5</ele>
        <time>2011-10-01T15:11:24.9</time>
      </trkpt>
      <trkpt lat="42.77425" lon="0.45588">
        <ele>2282.5</ele>
        <time>2011-10-01T15:11:25.9</time>
      </trkpt>
      <trkpt lat="42.77425" lon="0.45588">
        <ele>2282.5</ele>
        <time>2011-10-01T15:11:26.19</time>
      </trkpt>
      <trkpt lat="42.77425" lon="0.45588">
        <ele>2282.5</ele>
        <time>2011-10-01T15:11:27.9</time>
      </trkpt>
      <trkpt lat="42.77425" lon="0.45588">
        <ele>2282.5</ele>
        <time>2011-10-01T15:11:28.9</time>
      </trkpt>
      <trkpt lat="42.77425" lon="0.45588">
        <ele>2282.5</ele>
        <time>2011-10-01T15:11:29.79</time>
      </trkpt>
      <trkpt lat="42.77425" lon="0.45588">
        <ele>2282.5</ele>
        <time>2011-10-01T15:11:30.69</time>
      </trkpt>
      <trkpt lat="42.77425" lon="0.45588">
        <ele>2282.5</ele>
        <time>2011-10-01T15:11:31.79</time>
      </trkpt>
      <trkpt lat="42.77425" lon="0.45588">
        <ele>2282.5</ele>
        <time>2011-10-01T15:11:32.29</time>
      </trkpt>
      <trkpt lat="42.77425" lon="0.45588">
        <ele>2282.5</ele>
        <time>2011-10-01T15:11:32.99</time>
      </trkpt>
      <trkpt lat="42.77425" lon="0.45588">
        <ele>2282.5</ele>
        <time>2011-10-01T15:11:33.99</time>
      </trkpt>
      <trkpt lat="42.77425" lon="0.45588">
        <ele>2282.5</ele>
        <time>2011-10-01T15:11:34.99</time>
      </trkpt>
      <trkpt lat="42.77425" lon="0.45588">
        <ele>2282.5</ele>
        <time>2011-10-01T15:11:35.99</time>
      </trkpt>
      <trkpt lat="42.77425" lon="0.45588">
        <ele>2282.5</ele>
        <time>2011-10-01T15:11:36.99</time>
      </trkpt>
      <trkpt lat="42.77425" lon="0.45588">
        <ele>2282.5</ele>
        <time>2011-10-01T15:11:38.19</time>
      </trkpt>
      <trkpt lat="42.77425" lon="0.45588">
        <ele>2282.5</ele>
        <time>2011-10-01T15:11:39.9</time>
      </trkpt>
      <trkpt lat="42.77425" lon="0.45588">
        <ele>2282.5</ele>
        <time>2011-10-01T15:11:39.99</time>
      </trkpt>
      <trkpt lat="42.77425" lon="0.45588">
        <ele>2282.5</ele>
        <time>2011-10-01T15:11:41.9</time>
      </trkpt>
      <trkpt lat="42.77425" lon="0.45588">
        <ele>2282.5</ele>
        <time>2011-10-01T15:11:42.39</time>
      </trkpt>
      <trkpt lat="42.77425" lon="0.45588">
        <ele>2282.5</ele>
        <time>2011-10-01T15:11:43.9</time>
      </trkpt>
      <trkpt lat="42.77425" lon="0.45588">
        <ele>2282.5</ele>
        <time>2011-10-01T15:11:44.29</time>
      </trkpt>
      <trkpt lat="42.77425" lon="0.45588">
        <ele>2282.5</ele>
        <time>2011-10-01T15:11:45.9</time>
      </trkpt>
      <trkpt lat="42.77425" lon="0.45588">
        <ele>2282.5</ele>
        <time>2011-10-01T15:11:46.39</time>
      </trkpt>
      <trkpt lat="42.77425" lon="0.45588">
        <ele>2282.5</ele>
        <time>2011-10-01T15:11:47.9</time>
      </trkpt>
      <trkpt lat="42.77425" lon="0.45588">
        <ele>2282.5</ele>
        <time>2011-10-01T15:11:48.69</time>
      </trkpt>
      <trkpt lat="42.77425" lon="0.45588">
        <ele>2282.5</ele>
        <time>2011-10-01T15:11:48.99</time>
      </trkpt>
      <trkpt lat="42.77425" lon="0.45588">
        <ele>2282.5</ele>
        <time>2011-10-01T15:11:50.69</time>
      </trkpt>
      <trkpt lat="42.77425" lon="0.45588">
        <ele>2282.5</ele>
        <time>2011-10-01T15:11:51.9</time>
      </trkpt>
      <trkpt lat="42.77425" lon="0.45588">
        <ele>2282.5</ele>
        <time>2011-10-01T15:11:52.89</time>
      </trkpt>
      <trkpt lat="42.77425" lon="0.45588">
        <ele>2282.5</ele>
        <time>2011-10-01T15:11:53.39</time>
      </trkpt>
      <trkpt lat="42.77425" lon="0.45588">
        <ele>2282.5</ele>
        <time>2011-10-01T15:11:54.49</time>
      </trkpt>
      <trkpt lat="42.77424" lon="0.45588">
        <ele>2282.5</ele>
        <time>2011-10-01T15:11:55.9</time>
      </trkpt>
      <trkpt lat="42.77424" lon="0.45588">
        <ele>2282.5</ele>
        <time>2011-10-01T15:11:56.39</time>
      </trkpt>
      <trkpt lat="42.77424" lon="0.45588">
        <ele>2282.5</ele>
        <time>2011-10-01T15:11:57.9</time>
      </trkpt>
      <trkpt lat="42.77424" lon="0.45588">
        <ele>2282.5</ele>
        <time>2011-10-01T15:11:58.49</time>
      </trkpt>
      <trkpt lat="42.77424" lon="0.45588">
        <ele>2282.5</ele>
        <time>2011-10-01T15:11:59.9</time>
      </trkpt>
      <trkpt lat="42.77424" lon="0.45588">
        <ele>2282.5</ele>
        <time>2011-10-01T15:12:00.49</time>
      </trkpt>
      <trkpt lat="42.77424" lon="0.45588">
        <ele>2282.5</ele>
        <time>2011-10-01T15:12:01.9</time>
      </trkpt>
      <trkpt lat="42.77424" lon="0.45588">
        <ele>2282.5</ele>
        <time>2011-10-01T15:12:02.69</time>
      </trkpt>
      <trkpt lat="42.77424" lon="0.45588">
        <ele>2282.5</ele>
        <time>2011-10-01T15:12:03.9</time>
      </trkpt>
      <trkpt lat="42.77424" lon="0.45588">
        <ele>2282.5</ele>
        <time>2011-10-01T15:12:04.9</time>
      </trkpt>
      <trkpt lat="42.77424" lon="0.45588">
        <ele>2282.5</ele>
        <time>2011-10-01T15:12:05.9</time>
      </trkpt>
      <trkpt lat="42.77424" lon="0.45588">
        <ele>2282.5</ele>
        <time>2011-10-01T15:12:06.49</time>
      </trkpt>
      <trkpt lat="42.77424" lon="0.45588">
        <ele>2282.5</ele>
        <time>2011-10-01T15:12:07.9</time>
      </trkpt>
      <trkpt lat="42.77424" lon="0.45588">
        <ele>2282.5</ele>
        <time>2011-10-01T15:12:08.29</time>
      </trkpt>
      <trkpt lat="42.77424" lon="0.45588">
        <ele>2282.5</ele>
        <time>2011-10-01T15:12:09</time>
      </trkpt>
      <trkpt lat="42.77424" lon="0.45588">
        <ele>2282.5</ele>
        <time>2011-10-01T15:12:10.69</time>
      </trkpt>
      <trkpt lat="42.77424" lon="0.45588">
        <ele>2282.5</ele>
        <time>2011-10-01T15:12:11.9</time>
      </trkpt>
      <trkpt lat="42.77424" lon="0.45588">
        <ele>2282.5</ele>
        <time>2011-10-01T15:12:12.9</time>
      </trkpt>
      <trkpt lat="42.77424" lon="0.45588">
        <ele>2282.5</ele>
        <time>2011-10-01T15:12:13.9</time>
      </trkpt>
      <trkpt lat="42.77424" lon="0.45588">
        <ele>2282.5</ele>
        <time>2011-10-01T15:12:14.49</time>
      </trkpt>
      <trkpt lat="42.77424" lon="0.45588">
        <ele>2282.5</ele>
        <time>2011-10-01T15:12:15.9</time>
      </trkpt>
      <trkpt lat="42.77424" lon="0.45588">
        <ele>2282.5</ele>
        <time>2011-10-01T15:12:16.49</time>
      </trkpt>
      <trkpt lat="42.77424" lon="0.45588">
        <ele>2282.5</ele>
        <time>2011-10-01T15:12:17.69</time>
      </trkpt>
      <trkpt lat="42.77424" lon="0.45588">
        <ele>2282.5</ele>
        <time>2011-10-01T15:12:18.49</time>
      </trkpt>
      <trkpt lat="42.77424" lon="0.45588">
        <ele>2282.5</ele>
        <time>2011-10-01T15:12:19.69</time>
      </trkpt>
      <trkpt lat="42.77424" lon="0.45588">
        <ele>2282.5</ele>
        <time>2011-10-01T15:12:20.39</time>
      </trkpt>
      <trkpt lat="42.77424" lon="0.45588">
        <ele>2282.5</ele>
        <time>2011-10-01T15:12:21.79</time>
      </trkpt>
      <trkpt lat="42.77424" lon="0.45588">
        <ele>2282.5</ele>
        <time>2011-10-01T15:12:22.49</time>
      </trkpt>
      <trkpt lat="42.77424" lon="0.45588">
        <ele>2282.5</ele>
        <time>2011-10-01T15:12:23.9</time>
      </trkpt>
      <trkpt lat="42.77424" lon="0.45588">
        <ele>2282.5</ele>
        <time>2011-10-01T15:12:24.9</time>
      </trkpt>
      <trkpt lat="42.77424" lon="0.45588">
        <ele>2282.5</ele>
        <time>2011-10-01T15:12:24.99</time>
      </trkpt>
      <trkpt lat="42.77424" lon="0.45588">
        <ele>2282.5</ele>
        <time>2011-10-01T15:12:25.99</time>
      </trkpt>
      <trkpt lat="42.77424" lon="0.45588">
        <ele>2282.5</ele>
        <time>2011-10-01T15:12:26.99</time>
      </trkpt>
      <trkpt lat="42.77424" lon="0.45588">
        <ele>2282.5</ele>
        <time>2011-10-01T15:12:27.99</time>
      </trkpt>
      <trkpt lat="42.77424" lon="0.45588">
        <ele>2282.5</ele>
        <time>2011-10-01T15:12:28.99</time>
      </trkpt>
      <trkpt lat="42.77424" lon="0.45588">
        <ele>2282.5</ele>
        <time>2011-10-01T15:12:29.99</time>
      </trkpt>
      <trkpt lat="42.77424" lon="0.45588">
        <ele>2282.5</ele>
        <time>2011-10-01T15:12:30.99</time>
      </trkpt>
      <trkpt lat="42.77424" lon="0.45588">
        <ele>2282.5</ele>
        <time>2011-10-01T15:12:31.99</time>
      </trkpt>
      <trkpt lat="42.77424" lon="0.45588">
        <ele>2282.5</ele>
        <time>2011-10-01T15:12:32.99</time>
      </trkpt>
      <trkpt lat="42.77424" lon="0.45588">
        <ele>2282.5</ele>
        <time>2011-10-01T15:12:33.99</time>
      </trkpt>
      <trkpt lat="42.77425" lon="0.45588">
        <ele>2282.5</ele>
        <time>2011-10-01T15:12:34.99</time>
      </trkpt>
      <trkpt lat="42.77425" lon="0.45588">
        <ele>2282.5</ele>
        <time>2011-10-01T15:12:35.99</time>
      </trkpt>
      <trkpt lat="42.77425" lon="0.45588">
        <ele>2282.5</ele>
        <time>2011-10-01T15:12:36.99</time>
      </trkpt>
      <trkpt lat="42.77426" lon="0.45588">
        <ele>2282.5</ele>
        <time>2011-10-01T15:12:38.9</time>
      </trkpt>
      <trkpt lat="42.77426" lon="0.45587">
        <ele>2283</ele>
        <time>2011-10-01T15:12:38.99</time>
      </trkpt>
      <trkpt lat="42.77427" lon="0.45587">
        <ele>2283</ele>
        <time>2011-10-01T15:12:39.99</time>
      </trkpt>
      <trkpt lat="42.77427" lon="0.45586">
        <ele>2283</ele>
        <time>2011-10-01T15:12:40.99</time>
      </trkpt>
      <trkpt lat="42.77428" lon="0.45585">
        <ele>2283</ele>
        <time>2011-10-01T15:12:41.99</time>
      </trkpt>
      <trkpt lat="42.77428" lon="0.45584">
        <ele>2283</ele>
        <time>2011-10-01T15:12:42.99</time>
      </trkpt>
      <trkpt lat="42.77428" lon="0.45582">
        <ele>2282.5</ele>
        <time>2011-10-01T15:12:43.99</time>
      </trkpt>
      <trkpt lat="42.77428" lon="0.45581">
        <ele>2283</ele>
        <time>2011-10-01T15:12:44.99</time>
      </trkpt>
      <trkpt lat="42.77428" lon="0.45581">
        <ele>2283</ele>
        <time>2011-10-01T15:12:45.99</time>
      </trkpt>
      <trkpt lat="42.77428" lon="0.4558">
        <ele>2283</ele>
        <time>2011-10-01T15:12:46.99</time>
      </trkpt>
      <trkpt lat="42.77428" lon="0.45579">
        <ele>2283</ele>
        <time>2011-10-01T15:12:47.99</time>
      </trkpt>
      <trkpt lat="42.77428" lon="0.45577">
        <ele>2283</ele>
        <time>2011-10-01T15:12:48.99</time>
      </trkpt>
      <trkpt lat="42.77428" lon="0.45576">
        <ele>2283</ele>
        <time>2011-10-01T15:12:49.99</time>
      </trkpt>
      <trkpt lat="42.77429" lon="0.45576">
        <ele>2283</ele>
        <time>2011-10-01T15:12:50.99</time>
      </trkpt>
      <trkpt lat="42.77429" lon="0.45575">
        <ele>2283</ele>
        <time>2011-10-01T15:12:51.99</time>
      </trkpt>
      <trkpt lat="42.77429" lon="0.45574">
        <ele>2283.5</ele>
        <time>2011-10-01T15:12:52.99</time>
      </trkpt>
      <trkpt lat="42.7743" lon="0.45573">
        <ele>2284</ele>
        <time>2011-10-01T15:12:54.19</time>
      </trkpt>
      <trkpt lat="42.7743" lon="0.45573">
        <ele>2284</ele>
        <time>2011-10-01T15:12:54.99</time>
      </trkpt>
      <trkpt lat="42.77431" lon="0.45572">
        <ele>2284</ele>
        <time>2011-10-01T15:12:56.9</time>
      </trkpt>
      <trkpt lat="42.77431" lon="0.45571">
        <ele>2284.5</ele>
        <time>2011-10-01T15:12:57.9</time>
      </trkpt>
      <trkpt lat="42.77432" lon="0.4557">
        <ele>2285</ele>
        <time>2011-10-01T15:12:58.9</time>
      </trkpt>
      <trkpt lat="42.77432" lon="0.45569">
        <ele>2285.5</ele>
        <time>2011-10-01T15:12:59.9</time>
      </trkpt>
      <trkpt lat="42.77432" lon="0.45569">
        <ele>2286</ele>
        <time>2011-10-01T15:13:00.9</time>
      </trkpt>
      <trkpt lat="42.77432" lon="0.45568">
        <ele>2286.5</ele>
        <time>2011-10-01T15:13:00.99</time>
      </trkpt>
      <trkpt lat="42.77432" lon="0.45567">
        <ele>2286.5</ele>
        <time>2011-10-01T15:13:02.9</time>
      </trkpt>
      <trkpt lat="42.77431" lon="0.45566">
        <ele>2286.5</ele>
        <time>2011-10-01T15:13:02.99</time>
      </trkpt>
      <trkpt lat="42.77431" lon="0.45566">
        <ele>2286.5</ele>
        <time>2011-10-01T15:13:03.99</time>
      </trkpt>
      <trkpt lat="42.7743" lon="0.45565">
        <ele>2287.5</ele>
        <time>2011-10-01T15:13:05.19</time>
      </trkpt>
      <trkpt lat="42.7743" lon="0.45565">
        <ele>2287.5</ele>
        <time>2011-10-01T15:13:05.99</time>
      </trkpt>
      <trkpt lat="42.7743" lon="0.45565">
        <ele>2287</ele>
        <time>2011-10-01T15:13:07.9</time>
      </trkpt>
      <trkpt lat="42.7743" lon="0.45565">
        <ele>2287</ele>
        <time>2011-10-01T15:13:08.19</time>
      </trkpt>
      <trkpt lat="42.7743" lon="0.45565">
        <ele>2287.5</ele>
        <time>2011-10-01T15:13:09.19</time>
      </trkpt>
      <trkpt lat="42.77429" lon="0.45564">
        <ele>2288</ele>
        <time>2011-10-01T15:13:10.19</time>
      </trkpt>
      <trkpt lat="42.77428" lon="0.45564">
        <ele>2288</ele>
        <time>2011-10-01T15:13:11.49</time>
      </trkpt>
      <trkpt lat="42.77428" lon="0.45563">
        <ele>2288</ele>
        <time>2011-10-01T15:13:12.9</time>
      </trkpt>
      <trkpt lat="42.77428" lon="0.45562">
        <ele>2287.5</ele>
        <time>2011-10-01T15:13:13.19</time>
      </trkpt>
      <trkpt lat="42.77427" lon="0.45562">
        <ele>2287.5</ele>
        <time>2011-10-01T15:13:14.9</time>
      </trkpt>
      <trkpt lat="42.77427" lon="0.45561">
        <ele>2287</ele>
        <time>2011-10-01T15:13:15.9</time>
      </trkpt>
      <trkpt lat="42.77427" lon="0.4556">
        <ele>2286.5</ele>
        <time>2011-10-01T15:13:16.19</time>
      </trkpt>
      <trkpt lat="42.77427" lon="0.4556">
        <ele>2286.5</ele>
        <time>2011-10-01T15:13:17.39</time>
      </trkpt>
      <trkpt lat="42.77427" lon="0.4556">
        <ele>2286.5</ele>
        <time>2011-10-01T15:13:18.79</time>
      </trkpt>
      <trkpt lat="42.77427" lon="0.4556">
        <ele>2286.5</ele>
        <time>2011-10-01T15:13:18.99</time>
      </trkpt>
      <trkpt lat="42.77427" lon="0.4556">
        <ele>2286.5</ele>
        <time>2011-10-01T15:13:20.49</time>
      </trkpt>
      <trkpt lat="42.77427" lon="0.4556">
        <ele>2286</ele>
        <time>2011-10-01T15:13:21.69</time>
      </trkpt>
      <trkpt lat="42.77426" lon="0.45559">
        <ele>2286</ele>
        <time>2011-10-01T15:13:22.69</time>
      </trkpt>
      <trkpt lat="42.77426" lon="0.45559">
        <ele>2286</ele>
        <time>2011-10-01T15:13:23.79</time>
      </trkpt>
      <trkpt lat="42.77426" lon="0.45559">
        <ele>2286.5</ele>
        <time>2011-10-01T15:13:24.9</time>
      </trkpt>
      <trkpt lat="42.77426" lon="0.45559">
        <ele>2286.5</ele>
        <time>2011-10-01T15:13:25.9</time>
      </trkpt>
      <trkpt lat="42.77426" lon="0.45559">
        <ele>2286.5</ele>
        <time>2011-10-01T15:13:26.9</time>
      </trkpt>
      <trkpt lat="42.77426" lon="0.45559">
        <ele>2286.5</ele>
        <time>2011-10-01T15:13:27.9</time>
      </trkpt>
      <trkpt lat="42.77426" lon="0.45559">
        <ele>2287</ele>
        <time>2011-10-01T15:13:28.19</time>
      </trkpt>
      <trkpt lat="42.77426" lon="0.45559">
        <ele>2287</ele>
        <time>2011-10-01T15:13:29.9</time>
      </trkpt>
      <trkpt lat="42.77426" lon="0.45559">
        <ele>2287</ele>
        <time>2011-10-01T15:13:30.19</time>
      </trkpt>
      <trkpt lat="42.77426" lon="0.45559">
        <ele>2287</ele>
        <time>2011-10-01T15:13:31.9</time>
      </trkpt>
      <trkpt lat="42.77426" lon="0.45559">
        <ele>2287</ele>
        <time>2011-10-01T15:13:32.9</time>
      </trkpt>
      <trkpt lat="42.77426" lon="0.45559">
        <ele>2287.5</ele>
        <time>2011-10-01T15:13:33.39</time>
      </trkpt>
      <trkpt lat="42.77426" lon="0.45559">
        <ele>2287.5</ele>
        <time>2011-10-01T15:13:34.9</time>
      </trkpt>
      <trkpt lat="42.77426" lon="0.45559">
        <ele>2287.5</ele>
        <time>2011-10-01T15:13:35.9</time>
      </trkpt>
      <trkpt lat="42.77426" lon="0.45559">
        <ele>2287.5</ele>
        <time>2011-10-01T15:13:36.9</time>
      </trkpt>
      <trkpt lat="42.77426" lon="0.45559">
        <ele>2287.5</ele>
        <time>2011-10-01T15:13:37.9</time>
      </trkpt>
      <trkpt lat="42.77426" lon="0.45559">
        <ele>2287.5</ele>
        <time>2011-10-01T15:13:38.29</time>
      </trkpt>
      <trkpt lat="42.77426" lon="0.45559">
        <ele>2287.5</ele>
        <time>2011-10-01T15:13:39.99</time>
      </trkpt>
      <trkpt lat="42.77426" lon="0.45559">
        <ele>2287.5</ele>
        <time>2011-10-01T15:13:40.89</time>
      </trkpt>
      <trkpt lat="42.77426" lon="0.45558">
        <ele>2288</ele>
        <time>2011-10-01T15:13:41.69</time>
      </trkpt>
      <trkpt lat="42.77426" lon="0.45558">
        <ele>2288</ele>
        <time>2011-10-01T15:13:42.79</time>
      </trkpt>
      <trkpt lat="42.77426" lon="0.45558">
        <ele>2288</ele>
        <time>2011-10-01T15:13:43.9</time>
      </trkpt>
      <trkpt lat="42.77426" lon="0.45558">
        <ele>2288</ele>
        <time>2011-10-01T15:13:44.59</time>
      </trkpt>
      <trkpt lat="42.77426" lon="0.45558">
        <ele>2288</ele>
        <time>2011-10-01T15:13:45.9</time>
      </trkpt>
      <trkpt lat="42.77426" lon="0.45558">
        <ele>2288.5</ele>
        <time>2011-10-01T15:13:46.69</time>
      </trkpt>
      <trkpt lat="42.77426" lon="0.45558">
        <ele>2288.5</ele>
        <time>2011-10-01T15:13:47.39</time>
      </trkpt>
      <trkpt lat="42.77426" lon="0.45558">
        <ele>2288.5</ele>
        <time>2011-10-01T15:13:48.59</time>
      </trkpt>
      <trkpt lat="42.77426" lon="0.45558">
        <ele>2288.5</ele>
        <time>2011-10-01T15:13:49.9</time>
      </trkpt>
      <trkpt lat="42.77426" lon="0.45558">
        <ele>2288.5</ele>
        <time>2011-10-01T15:13:50.99</time>
      </trkpt>
      <trkpt lat="42.77426" lon="0.45558">
        <ele>2288.5</ele>
        <time>2011-10-01T15:13:51.9</time>
      </trkpt>
      <trkpt lat="42.77426" lon="0.45558">
        <ele>2288.5</ele>
        <time>2011-10-01T15:13:52.89</time>
      </trkpt>
      <trkpt lat="42.77426" lon="0.45558">
        <ele>2288.5</ele>
        <time>2011-10-01T15:13:53.9</time>
      </trkpt>
      <trkpt lat="42.77426" lon="0.45558">
        <ele>2288.5</ele>
        <time>2011-10-01T15:13:54.89</time>
      </trkpt>
      <trkpt lat="42.77426" lon="0.45558">
        <ele>2288.5</ele>
        <time>2011-10-01T15:13:55.29</time>
      </trkpt>
      <trkpt lat="42.77426" lon="0.45558">
        <ele>2288.5</ele>
        <time>2011-10-01T15:13:56.89</time>
      </trkpt>
      <trkpt lat="42.77426" lon="0.45558">
        <ele>2288.5</ele>
        <time>2011-10-01T15:13:57.9</time>
      </trkpt>
      <trkpt lat="42.77426" lon="0.45558">
        <ele>2288.5</ele>
        <time>2011-10-01T15:13:58.89</time>
      </trkpt>
      <trkpt lat="42.77426" lon="0.45558">
        <ele>2288.5</ele>
        <time>2011-10-01T15:13:59.9</time>
      </trkpt>
      <trkpt lat="42.77426" lon="0.45558">
        <ele>2288.5</ele>
        <time>2011-10-01T15:14:00.69</time>
      </trkpt>
      <trkpt lat="42.77426" lon="0.45558">
        <ele>2288.5</ele>
        <time>2011-10-01T15:14:01.9</time>
      </trkpt>
      <trkpt lat="42.77426" lon="0.45558">
        <ele>2288.5</ele>
        <time>2011-10-01T15:14:02.99</time>
      </trkpt>
      <trkpt lat="42.77426" lon="0.45558">
        <ele>2288.5</ele>
        <time>2011-10-01T15:14:03.9</time>
      </trkpt>
      <trkpt lat="42.77426" lon="0.45558">
        <ele>2288.5</ele>
        <time>2011-10-01T15:14:04.69</time>
      </trkpt>
      <trkpt lat="42.77426" lon="0.45558">
        <ele>2288.5</ele>
        <time>2011-10-01T15:14:05.9</time>
      </trkpt>
      <trkpt lat="42.77426" lon="0.45558">
        <ele>2288.5</ele>
        <time>2011-10-01T15:14:06.19</time>
      </trkpt>
      <trkpt lat="42.77426" lon="0.45558">
        <ele>2288.5</ele>
        <time>2011-10-01T15:14:07.19</time>
      </trkpt>
      <trkpt lat="42.77426" lon="0.45558">
        <ele>2288.5</ele>
        <time>2011-10-01T15:14:08.89</time>
      </trkpt>
      <trkpt lat="42.77426" lon="0.45558">
        <ele>2288.5</ele>
        <time>2011-10-01T15:14:09.59</time>
      </trkpt>
      <trkpt lat="42.77426" lon="0.45558">
        <ele>2288.5</ele>
        <time>2011-10-01T15:14:10.69</time>
      </trkpt>
      <trkpt lat="42.77426" lon="0.45558">
        <ele>2288.5</ele>
        <time>2011-10-01T15:14:11.69</time>
      </trkpt>
      <trkpt lat="42.77426" lon="0.45558">
        <ele>2288.5</ele>
        <time>2011-10-01T15:14:12.89</time>
      </trkpt>
      <trkpt lat="42.77426" lon="0.45558">
        <ele>2288.5</ele>
        <time>2011-10-01T15:14:13.69</time>
      </trkpt>
      <trkpt lat="42.77426" lon="0.45558">
        <ele>2288.5</ele>
        <time>2011-10-01T15:14:14.89</time>
      </trkpt>
      <trkpt lat="42.77426" lon="0.45558">
        <ele>2288.5</ele>
        <time>2011-10-01T15:14:15.49</time>
      </trkpt>
      <trkpt lat="42.77426" lon="0.45558">
        <ele>2288.5</ele>
        <time>2011-10-01T15:14:16.9</time>
      </trkpt>
      <trkpt lat="42.77426" lon="0.45558">
        <ele>2288.5</ele>
        <time>2011-10-01T15:14:17.59</time>
      </trkpt>
      <trkpt lat="42.77426" lon="0.45558">
        <ele>2288.5</ele>
        <time>2011-10-01T15:14:18.39</time>
      </trkpt>
      <trkpt lat="42.77426" lon="0.45558">
        <ele>2288.5</ele>
        <time>2011-10-01T15:14:19.79</time>
      </trkpt>
      <trkpt lat="42.77426" lon="0.45558">
        <ele>2288.5</ele>
        <time>2011-10-01T15:14:20.79</time>
      </trkpt>
      <trkpt lat="42.77426" lon="0.45558">
        <ele>2288.5</ele>
        <time>2011-10-01T15:14:21.69</time>
      </trkpt>
      <trkpt lat="42.77426" lon="0.45557">
        <ele>2288.5</ele>
        <time>2011-10-01T15:14:22.19</time>
      </trkpt>
      <trkpt lat="42.77426" lon="0.45557">
        <ele>2288.5</ele>
        <time>2011-10-01T15:14:23.19</time>
      </trkpt>
      <trkpt lat="42.77426" lon="0.45557">
        <ele>2288.5</ele>
        <time>2011-10-01T15:14:24.9</time>
      </trkpt>
      <trkpt lat="42.77426" lon="0.45557">
        <ele>2288.5</ele>
        <time>2011-10-01T15:14:25.9</time>
      </trkpt>
      <trkpt lat="42.77426" lon="0.45557">
        <ele>2288</ele>
        <time>2011-10-01T15:14:26.9</time>
      </trkpt>
      <trkpt lat="42.77429" lon="0.45502">
        <ele>2286.5</ele>
        <time>2011-10-01T15:14:31.39</time>
      </trkpt>
      <trkpt lat="42.77428" lon="0.45485">
        <ele>2284.5</ele>
        <time>2011-10-01T15:14:32.19</time>
      </trkpt>
      <trkpt lat="42.77424" lon="0.45458">
        <ele>2283</ele>
        <time>2011-10-01T15:14:34.69</time>
      </trkpt>
      <trkpt lat="42.77422" lon="0.45445">
        <ele>2281.5</ele>
        <time>2011-10-01T15:14:35.89</time>
      </trkpt>
      <trkpt lat="42.77419" lon="0.45432">
        <ele>2281</ele>
        <time>2011-10-01T15:14:36.49</time>
      </trkpt>
      <trkpt lat="42.77415" lon="0.45417">
        <ele>2281</ele>
        <time>2011-10-01T15:14:37.19</time>
      </trkpt>
      <trkpt lat="42.77412" lon="0.45402">
        <ele>2279.5</ele>
        <time>2011-10-01T15:14:38.29</time>
      </trkpt>
      <trkpt lat="42.77408" lon="0.45388">
        <ele>2279</ele>
        <time>2011-10-01T15:14:39.19</time>
      </trkpt>
      <trkpt lat="42.77405" lon="0.45373">
        <ele>2280.5</ele>
        <time>2011-10-01T15:14:40.49</time>
      </trkpt>
      <trkpt lat="42.77402" lon="0.4536">
        <ele>2282</ele>
        <time>2011-10-01T15:14:41.89</time>
      </trkpt>
      <trkpt lat="42.77399" lon="0.45347">
        <ele>2281.5</ele>
        <time>2011-10-01T15:14:42.49</time>
      </trkpt>
      <trkpt lat="42.77397" lon="0.45334">
        <ele>2281.5</ele>
        <time>2011-10-01T15:14:43.99</time>
      </trkpt>
      <trkpt lat="42.77393" lon="0.4532">
        <ele>2281</ele>
        <time>2011-10-01T15:14:44.59</time>
      </trkpt>
      <trkpt lat="42.7739" lon="0.45307">
        <ele>2281.5</ele>
        <time>2011-10-01T15:14:45.9</time>
      </trkpt>
      <trkpt lat="42.77386" lon="0.45294">
        <ele>2281</ele>
        <time>2011-10-01T15:14:46.9</time>
      </trkpt>
      <trkpt lat="42.77382" lon="0.45282">
        <ele>2280</ele>
        <time>2011-10-01T15:14:47.79</time>
      </trkpt>
      <trkpt lat="42.77377" lon="0.45269">
        <ele>2279.5</ele>
        <time>2011-10-01T15:14:48.39</time>
      </trkpt>
      <trkpt lat="42.77373" lon="0.45257">
        <ele>2278.5</ele>
        <time>2011-10-01T15:14:49.19</time>
      </trkpt>
      <trkpt lat="42.77369" lon="0.45244">
        <ele>2278.5</ele>
        <time>2011-10-01T15:14:50.49</time>
      </trkpt>
      <trkpt lat="42.77365" lon="0.45233">
        <ele>2278</ele>
        <time>2011-10-01T15:14:51.9</time>
      </trkpt>
      <trkpt lat="42.77361" lon="0.45223">
        <ele>2277.5</ele>
        <time>2011-10-01T15:14:52.49</time>
      </trkpt>
      <trkpt lat="42.77357" lon="0.45215">
        <ele>2278.5</ele>
        <time>2011-10-01T15:14:53.79</time>
      </trkpt>
      <trkpt lat="42.7735" lon="0.45203">
        <ele>2279.5</ele>
        <time>2011-10-01T15:14:55.19</time>
      </trkpt>
      <trkpt lat="42.77346" lon="0.45198">
        <ele>2279.5</ele>
        <time>2011-10-01T15:14:56.29</time>
      </trkpt>
      <trkpt lat="42.77342" lon="0.4519">
        <ele>2278.5</ele>
        <time>2011-10-01T15:14:57.9</time>
      </trkpt>
      <trkpt lat="42.77338" lon="0.45182">
        <ele>2277</ele>
        <time>2011-10-01T15:14:58.49</time>
      </trkpt>
      <trkpt lat="42.77335" lon="0.4517">
        <ele>2276.5</ele>
        <time>2011-10-01T15:14:59.49</time>
      </trkpt>
      <trkpt lat="42.77335" lon="0.45159">
        <ele>2276.5</ele>
        <time>2011-10-01T15:15:00.9</time>
      </trkpt>
      <trkpt lat="42.77334" lon="0.45148">
        <ele>2277.5</ele>
        <time>2011-10-01T15:15:01.69</time>
      </trkpt>
      <trkpt lat="42.77333" lon="0.45137">
        <ele>2278.5</ele>
        <time>2011-10-01T15:15:02.19</time>
      </trkpt>
      <trkpt lat="42.77328" lon="0.45127">
        <ele>2279.5</ele>
        <time>2011-10-01T15:15:03.79</time>
      </trkpt>
      <trkpt lat="42.77321" lon="0.45119">
        <ele>2281.5</ele>
        <time>2011-10-01T15:15:04.69</time>
      </trkpt>
      <trkpt lat="42.77312" lon="0.45111">
        <ele>2281.5</ele>
        <time>2011-10-01T15:15:05.79</time>
      </trkpt>
      <trkpt lat="42.77301" lon="0.45108">
        <ele>2281.5</ele>
        <time>2011-10-01T15:15:06.49</time>
      </trkpt>
      <trkpt lat="42.7729" lon="0.45106">
        <ele>2281</ele>
        <time>2011-10-01T15:15:07.9</time>
      </trkpt>
      <trkpt lat="42.77242" lon="0.45155">
        <ele>2281</ele>
        <time>2011-10-01T15:15:11.29</time>
      </trkpt>
      <trkpt lat="42.77231" lon="0.45169">
        <ele>2281.5</ele>
        <time>2011-10-01T15:15:12.39</time>
      </trkpt>
      <trkpt lat="42.77222" lon="0.45182">
        <ele>2282</ele>
        <time>2011-10-01T15:15:13.59</time>
      </trkpt>
      <trkpt lat="42.77213" lon="0.45196">
        <ele>2281.5</ele>
        <time>2011-10-01T15:15:14.99</time>
      </trkpt>
      <trkpt lat="42.77204" lon="0.45211">
        <ele>2281.5</ele>
        <time>2011-10-01T15:15:15.19</time>
      </trkpt>
      <trkpt lat="42.77193" lon="0.45228">
        <ele>2282</ele>
        <time>2011-10-01T15:15:16.49</time>
      </trkpt>
      <trkpt lat="42.77184" lon="0.45246">
        <ele>2281</ele>
        <time>2011-10-01T15:15:17.9</time>
      </trkpt>
      <trkpt lat="42.77173" lon="0.45263">
        <ele>2282</ele>
        <time>2011-10-01T15:15:18.29</time>
      </trkpt>
      <trkpt lat="42.77156" lon="0.4531">
        <ele>2282</ele>
        <time>2011-10-01T15:15:21.9</time>
      </trkpt>
      <trkpt lat="42.7715" lon="0.45326">
        <ele>2282</ele>
        <time>2011-10-01T15:15:22.49</time>
      </trkpt>
      <trkpt lat="42.77145" lon="0.45341">
        <ele>2281</ele>
        <time>2011-10-01T15:15:23.79</time>
      </trkpt>
      <trkpt lat="42.77138" lon="0.45358">
        <ele>2279.5</ele>
        <time>2011-10-01T15:15:24.19</time>
      </trkpt>
      <trkpt lat="42.77131" lon="0.45376">
        <ele>2278</ele>
        <time>2011-10-01T15:15:25.19</time>
      </trkpt>
      <trkpt lat="42.77123" lon="0.45394">
        <ele>2278</ele>
        <time>2011-10-01T15:15:26.49</time>
      </trkpt>
      <trkpt lat="42.77115" lon="0.45413">
        <ele>2278.5</ele>
        <time>2011-10-01T15:15:27.9</time>
      </trkpt>
      <trkpt lat="42.77105" lon="0.45432">
        <ele>2278.5</ele>
        <time>2011-10-01T15:15:28.9</time>
      </trkpt>
      <trkpt lat="42.77094" lon="0.45447">
        <ele>2279.5</ele>
        <time>2011-10-01T15:15:29.69</time>
      </trkpt>
      <trkpt lat="42.77069" lon="0.45464">
        <ele>2280.5</ele>
        <time>2011-10-01T15:15:31.11</time>
      </trkpt>
      <trkpt lat="42.77047" lon="0.45448">
        <ele>2281.5</ele>
        <time>2011-10-01T15:15:34.39</time>
      </trkpt>
      <trkpt lat="42.77046" lon="0.45438">
        <ele>2281.5</ele>
        <time>2011-10-01T15:15:35.99</time>
      </trkpt>
      <trkpt lat="42.77048" lon="0.45428">
        <ele>2282</ele>
        <time>2011-10-01T15:15:36.39</time>
      </trkpt>
      <trkpt lat="42.77053" lon="0.45418">
        <ele>2282.5</ele>
        <time>2011-10-01T15:15:37.11</time>
      </trkpt>
      <trkpt lat="42.77059" lon="0.4541">
        <ele>2283</ele>
        <time>2011-10-01T15:15:38.10</time>
      </trkpt>
      <trkpt lat="42.77066" lon="0.45401">
        <ele>2283</ele>
        <time>2011-10-01T15:15:39.9</time>
      </trkpt>
      <trkpt lat="42.77072" lon="0.45392">
        <ele>2283</ele>
        <time>2011-10-01T15:15:40.49</time>
      </trkpt>
      <trkpt lat="42.77078" lon="0.45382">
        <ele>2282.5</ele>
        <time>2011-10-01T15:15:41.89</time>
      </trkpt>
      <trkpt lat="42.77083" lon="0.45372">
        <ele>2282.5</ele>
        <time>2011-10-01T15:15:42.99</time>
      </trkpt>
      <trkpt lat="42.77089" lon="0.45361">
        <ele>2283</ele>
        <time>2011-10-01T15:15:43.39</time>
      </trkpt>
      <trkpt lat="42.77093" lon="0.4535">
        <ele>2284.5</ele>
        <time>2011-10-01T15:15:44.89</time>
      </trkpt>
      <trkpt lat="42.77098" lon="0.4534">
        <ele>2286.5</ele>
        <time>2011-10-01T15:15:45.9</time>
      </trkpt>
      <trkpt lat="42.77103" lon="0.45332">
        <ele>2289</ele>
        <time>2011-10-01T15:15:46.19</time>
      </trkpt>
      <trkpt lat="42.77107" lon="0.45324">
        <ele>2291</ele>
        <time>2011-10-01T15:15:47.69</time>
      </trkpt>
      <trkpt lat="42.77111" lon="0.45316">
        <ele>2293</ele>
        <time>2011-10-01T15:15:48.89</time>
      </trkpt>
      <trkpt lat="42.77115" lon="0.45307">
        <ele>2292.5</ele>
        <time>2011-10-01T15:15:49.9</time>
      </trkpt>
      <trkpt lat="42.77118" lon="0.45296">
        <ele>2292.5</ele>
        <time>2011-10-01T15:15:50.49</time>
      </trkpt>
      <trkpt lat="42.77119" lon="0.45284">
        <ele>2293</ele>
        <time>2011-10-01T15:15:51.11</time>
      </trkpt>
      <trkpt lat="42.7712" lon="0.45271">
        <ele>2294.5</ele>
        <time>2011-10-01T15:15:52.99</time>
      </trkpt>
      <trkpt lat="42.77122" lon="0.45257">
        <ele>2296</ele>
        <time>2011-10-01T15:15:53.79</time>
      </trkpt>
      <trkpt lat="42.77125" lon="0.45246">
        <ele>2298</ele>
        <time>2011-10-01T15:15:54.19</time>
      </trkpt>
      <trkpt lat="42.77129" lon="0.45235">
        <ele>2298.5</ele>
        <time>2011-10-01T15:15:55.9</time>
      </trkpt>
      <trkpt lat="42.77135" lon="0.45225">
        <ele>2298</ele>
        <time>2011-10-01T15:15:56.69</time>
      </trkpt>
      <trkpt lat="42.77152" lon="0.45207">
        <ele>2296</ele>
        <time>2011-10-01T15:15:58.10</time>
      </trkpt>
      <trkpt lat="42.77162" lon="0.452">
        <ele>2295.5</ele>
        <time>2011-10-01T15:15:59.19</time>
      </trkpt>
      <trkpt lat="42.77173" lon="0.45194">
        <ele>2295</ele>
        <time>2011-10-01T15:16:00.89</time>
      </trkpt>
      <trkpt lat="42.77185" lon="0.45189">
        <ele>2294</ele>
        <time>2011-10-01T15:16:01.59</time>
      </trkpt>
      <trkpt lat="42.77195" lon="0.45187">
        <ele>2294</ele>
        <time>2011-10-01T15:16:02.89</time>
      </trkpt>
      <trkpt lat="42.77206" lon="0.45188">
        <ele>2294</ele>
        <time>2011-10-01T15:16:03.79</time>
      </trkpt>
      <trkpt lat="42.77218" lon="0.4519">
        <ele>2294.5</ele>
        <time>2011-10-01T15:16:04.29</time>
      </trkpt>
      <trkpt lat="42.77229" lon="0.45192">
        <ele>2295</ele>
        <time>2011-10-01T15:16:05.9</time>
      </trkpt>
      <trkpt lat="42.77242" lon="0.45192">
        <ele>2294.5</ele>
        <time>2011-10-01T15:16:06.99</time>
      </trkpt>
      <trkpt lat="42.77254" lon="0.45189">
        <ele>2296.5</ele>
        <time>2011-10-01T15:16:07.99</time>
      </trkpt>
      <trkpt lat="42.77264" lon="0.45182">
        <ele>2297.5</ele>
        <time>2011-10-01T15:16:08.39</time>
      </trkpt>
      <trkpt lat="42.77274" lon="0.45175">
        <ele>2299</ele>
        <time>2011-10-01T15:16:09.39</time>
      </trkpt>
      <trkpt lat="42.77283" lon="0.45169">
        <ele>2300.5</ele>
        <time>2011-10-01T15:16:10.29</time>
      </trkpt>
      <trkpt lat="42.77293" lon="0.45163">
        <ele>2301.5</ele>
        <time>2011-10-01T15:16:11.19</time>
      </trkpt>
      <trkpt lat="42.77302" lon="0.45158">
        <ele>2302.5</ele>
        <time>2011-10-01T15:16:12.19</time>
      </trkpt>
      <trkpt lat="42.77312" lon="0.45154">
        <ele>2301.5</ele>
        <time>2011-10-01T15:16:13.69</time>
      </trkpt>
      <trkpt lat="42.77323" lon="0.4515">
        <ele>2300.5</ele>
        <time>2011-10-01T15:16:14.29</time>
      </trkpt>
      <trkpt lat="42.77335" lon="0.45145">
        <ele>2301.5</ele>
        <time>2011-10-01T15:16:15.12</time>
      </trkpt>
      <trkpt lat="42.77346" lon="0.45142">
        <ele>2303.5</ele>
        <time>2011-10-01T15:16:16.99</time>
      </trkpt>
      <trkpt lat="42.77356" lon="0.45138">
        <ele>2305</ele>
        <time>2011-10-01T15:16:17.69</time>
      </trkpt>
      <trkpt lat="42.77366" lon="0.45132">
        <ele>2304.5</ele>
        <time>2011-10-01T15:16:18.89</time>
      </trkpt>
      <trkpt lat="42.77375" lon="0.45125">
        <ele>2305</ele>
        <time>2011-10-01T15:16:19.11</time>
      </trkpt>
      <trkpt lat="42.77384" lon="0.45118">
        <ele>2306.5</ele>
        <time>2011-10-01T15:16:20.69</time>
      </trkpt>
      <trkpt lat="42.77394" lon="0.45112">
        <ele>2307</ele>
        <time>2011-10-01T15:16:21.39</time>
      </trkpt>
      <trkpt lat="42.77403" lon="0.45106">
        <ele>2309</ele>
        <time>2011-10-01T15:16:22.29</time>
      </trkpt>
      <trkpt lat="42.7741" lon="0.451">
        <ele>2310.5</ele>
        <time>2011-10-01T15:16:23.99</time>
      </trkpt>
      <trkpt lat="42.77417" lon="0.45093">
        <ele>2311.5</ele>
        <time>2011-10-01T15:16:24.79</time>
      </trkpt>
      <trkpt lat="42.77425" lon="0.45085">
        <ele>2312.5</ele>
        <time>2011-10-01T15:16:25.79</time>
      </trkpt>
      <trkpt lat="42.77448" lon="0.45079">
        <ele>2315.5</ele>
        <time>2011-10-01T15:16:27.9</time>
      </trkpt>
      <trkpt lat="42.7746" lon="0.45084">
        <ele>2315.5</ele>
        <time>2011-10-01T15:16:28.29</time>
      </trkpt>
      <trkpt lat="42.77471" lon="0.45092">
        <ele>2315.5</ele>
        <time>2011-10-01T15:16:29.59</time>
      </trkpt>
      <trkpt lat="42.77479" lon="0.45106">
        <ele>2315.5</ele>
        <time>2011-10-01T15:16:30.69</time>
      </trkpt>
      <trkpt lat="42.77487" lon="0.45122">
        <ele>2315.5</ele>
        <time>2011-10-01T15:16:31.19</time>
      </trkpt>
      <trkpt lat="42.77489" lon="0.4514">
        <ele>2314.5</ele>
        <time>2011-10-01T15:16:32.89</time>
      </trkpt>
      <trkpt lat="42.77483" lon="0.45155">
        <ele>2315</ele>
        <time>2011-10-01T15:16:33.79</time>
      </trkpt>
      <trkpt lat="42.77474" lon="0.45168">
        <ele>2315.5</ele>
        <time>2011-10-01T15:16:34.79</time>
      </trkpt>
      <trkpt lat="42.77461" lon="0.45174">
        <ele>2316</ele>
        <time>2011-10-01T15:16:35.99</time>
      </trkpt>
      <trkpt lat="42.77431" lon="0.45175">
        <ele>2316</ele>
        <time>2011-10-01T15:16:37.79</time>
      </trkpt>
      <trkpt lat="42.77418" lon="0.45171">
        <ele>2316.5</ele>
        <time>2011-10-01T15:16:38.99</time>
      </trkpt>
      <trkpt lat="42.77406" lon="0.45166">
        <ele>2317.5</ele>
        <time>2011-10-01T15:16:39.11</time>
      </trkpt>
      <trkpt lat="42.77384" lon="0.45151">
        <ele>2320.5</ele>
        <time>2011-10-01T15:16:42.19</time>
      </trkpt>
      <trkpt lat="42.77363" lon="0.45142">
        <ele>2322</ele>
        <time>2011-10-01T15:16:44.89</time>
      </trkpt>
      <trkpt lat="42.77353" lon="0.4514">
        <ele>2323.5</ele>
        <time>2011-10-01T15:16:45.89</time>
      </trkpt>
      <trkpt lat="42.77343" lon="0.45139">
        <ele>2324</ele>
        <time>2011-10-01T15:16:46.69</time>
      </trkpt>
      <trkpt lat="42.77332" lon="0.4514">
        <ele>2326</ele>
        <time>2011-10-01T15:16:47.59</time>
      </trkpt>
      <trkpt lat="42.77322" lon="0.45142">
        <ele>2327.5</ele>
        <time>2011-10-01T15:16:48.9</time>
      </trkpt>
      <trkpt lat="42.77311" lon="0.45146">
        <ele>2328</ele>
        <time>2011-10-01T15:16:49.9</time>
      </trkpt>
      <trkpt lat="42.773" lon="0.45151">
        <ele>2329</ele>
        <time>2011-10-01T15:16:50.89</time>
      </trkpt>
      <trkpt lat="42.77289" lon="0.45158">
        <ele>2330</ele>
        <time>2011-10-01T15:16:51.79</time>
      </trkpt>
      <trkpt lat="42.77277" lon="0.45165">
        <ele>2331</ele>
        <time>2011-10-01T15:16:52.9</time>
      </trkpt>
      <trkpt lat="42.77267" lon="0.45174">
        <ele>2332.5</ele>
        <time>2011-10-01T15:16:53.11</time>
      </trkpt>
      <trkpt lat="42.77257" lon="0.45182">
        <ele>2334</ele>
        <time>2011-10-01T15:16:54.9</time>
      </trkpt>
      <trkpt lat="42.77247" lon="0.4519">
        <ele>2334</ele>
        <time>2011-10-01T15:16:55.9</time>
      </trkpt>
      <trkpt lat="42.77237" lon="0.45199">
        <ele>2334</ele>
        <time>2011-10-01T15:16:56.79</time>
      </trkpt>
      <trkpt lat="42.77227" lon="0.45208">
        <ele>2333</ele>
        <time>2011-10-01T15:16:57.11</time>
      </trkpt>
      <trkpt lat="42.77217" lon="0.45218">
        <ele>2331.5</ele>
        <time>2011-10-01T15:16:58.69</time>
      </trkpt>
      <trkpt lat="42.77206" lon="0.45229">
        <ele>2330.5</ele>
        <time>2011-10-01T15:16:59.19</time>
      </trkpt>
      <trkpt lat="42.77195" lon="0.45241">
        <ele>2330</ele>
        <time>2011-10-01T15:17:00.9</time>
      </trkpt>
      <trkpt lat="42.77184" lon="0.45254">
        <ele>2331</ele>
        <time>2011-10-01T15:17:01.89</time>
      </trkpt>
      <trkpt lat="42.77173" lon="0.45264">
        <ele>2331</ele>
        <time>2011-10-01T15:17:02.19</time>
      </trkpt>
      <trkpt lat="42.77163" lon="0.45271">
        <ele>2329.5</ele>
        <time>2011-10-01T15:17:03.89</time>
      </trkpt>
      <trkpt lat="42.77151" lon="0.45275">
        <ele>2330</ele>
        <time>2011-10-01T15:17:04.39</time>
      </trkpt>
      <trkpt lat="42.77138" lon="0.45279">
        <ele>2330</ele>
        <time>2011-10-01T15:17:05.29</time>
      </trkpt>
      <trkpt lat="42.77121" lon="0.45265">
        <ele>2330</ele>
        <time>2011-10-01T15:17:07.89</time>
      </trkpt>
      <trkpt lat="42.77124" lon="0.45252">
        <ele>2330</ele>
        <time>2011-10-01T15:17:08.89</time>
      </trkpt>
      <trkpt lat="42.77131" lon="0.4524">
        <ele>2330</ele>
        <time>2011-10-01T15:17:09.29</time>
      </trkpt>
      <trkpt lat="42.77142" lon="0.45234">
        <ele>2328</ele>
        <time>2011-10-01T15:17:10.89</time>
      </trkpt>
      <trkpt lat="42.77153" lon="0.4523">
        <ele>2328.5</ele>
        <time>2011-10-01T15:17:11.19</time>
      </trkpt>
      <trkpt lat="42.77164" lon="0.45226">
        <ele>2329</ele>
        <time>2011-10-01T15:17:12.9</time>
      </trkpt>
      <trkpt lat="42.77175" lon="0.45223">
        <ele>2328.5</ele>
        <time>2011-10-01T15:17:13.19</time>
      </trkpt>
      <trkpt lat="42.77186" lon="0.45221">
        <ele>2329</ele>
        <time>2011-10-01T15:17:14.29</time>
      </trkpt>
      <trkpt lat="42.77197" lon="0.45218">
        <ele>2329.5</ele>
        <time>2011-10-01T15:17:15.19</time>
      </trkpt>
      <trkpt lat="42.77208" lon="0.45216">
        <ele>2328.5</ele>
        <time>2011-10-01T15:17:16.9</time>
      </trkpt>
      <trkpt lat="42.77219" lon="0.45212">
        <ele>2328</ele>
        <time>2011-10-01T15:17:17.89</time>
      </trkpt>
      <trkpt lat="42.77229" lon="0.45207">
        <ele>2327.5</ele>
        <time>2011-10-01T15:17:18.19</time>
      </trkpt>
      <trkpt lat="42.7724" lon="0.452">
        <ele>2327</ele>
        <time>2011-10-01T15:17:19.49</time>
      </trkpt>
      <trkpt lat="42.77248" lon="0.45191">
        <ele>2327</ele>
        <time>2011-10-01T15:17:20.69</time>
      </trkpt>
      <trkpt lat="42.77256" lon="0.45183">
        <ele>2329</ele>
        <time>2011-10-01T15:17:21.89</time>
      </trkpt>
      <trkpt lat="42.77264" lon="0.45175">
        <ele>2330.5</ele>
        <time>2011-10-01T15:17:22.49</time>
      </trkpt>
      <trkpt lat="42.77271" lon="0.45167">
        <ele>2330</ele>
        <time>2011-10-01T15:17:23.19</time>
      </trkpt>
      <trkpt lat="42.7728" lon="0.45159">
        <ele>2330.5</ele>
        <time>2011-10-01T15:17:24.39</time>
      </trkpt>
      <trkpt lat="42.7729" lon="0.45154">
        <ele>2331</ele>
        <time>2011-10-01T15:17:25.19</time>
      </trkpt>
      <trkpt lat="42.77301" lon="0.4515">
        <ele>2333.5</ele>
        <time>2011-10-01T15:17:26.19</time>
      </trkpt>
      <trkpt lat="42.77311" lon="0.4515">
        <ele>2335</ele>
        <time>2011-10-01T15:17:27.9</time>
      </trkpt>
      <trkpt lat="42.77323" lon="0.45152">
        <ele>2335.5</ele>
        <time>2011-10-01T15:17:28.9</time>
      </trkpt>
      <trkpt lat="42.77333" lon="0.45163">
        <ele>2337</ele>
        <time>2011-10-01T15:17:29.99</time>
      </trkpt>
      <trkpt lat="42.7734" lon="0.45177">
        <ele>2339.5</ele>
        <time>2011-10-01T15:17:30.19</time>
      </trkpt>
      <trkpt lat="42.77325" lon="0.45237">
        <ele>2341.5</ele>
        <time>2011-10-01T15:17:33.19</time>
      </trkpt>
      <trkpt lat="42.77288" lon="0.45218">
        <ele>2340</ele>
        <time>2011-10-01T15:17:38.49</time>
      </trkpt>
      <trkpt lat="42.77285" lon="0.45207">
        <ele>2340.5</ele>
        <time>2011-10-01T15:17:39.9</time>
      </trkpt>
      <trkpt lat="42.77282" lon="0.45196">
        <ele>2341.5</ele>
        <time>2011-10-01T15:17:40.9</time>
      </trkpt>
      <trkpt lat="42.77279" lon="0.45185">
        <ele>2343</ele>
        <time>2011-10-01T15:17:41.9</time>
      </trkpt>
      <trkpt lat="42.77274" lon="0.45174">
        <ele>2343.5</ele>
        <time>2011-10-01T15:17:42.9</time>
      </trkpt>
      <trkpt lat="42.77268" lon="0.45163">
        <ele>2344</ele>
        <time>2011-10-01T15:17:43.9</time>
      </trkpt>
      <trkpt lat="42.7726" lon="0.45153">
        <ele>2344.5</ele>
        <time>2011-10-01T15:17:44.29</time>
      </trkpt>
      <trkpt lat="42.77236" lon="0.45143">
        <ele>2345.5</ele>
        <time>2011-10-01T15:17:46.49</time>
      </trkpt>
      <trkpt lat="42.77224" lon="0.45143">
        <ele>2345.5</ele>
        <time>2011-10-01T15:17:47.9</time>
      </trkpt>
      <trkpt lat="42.77213" lon="0.45146">
        <ele>2346</ele>
        <time>2011-10-01T15:17:48.9</time>
      </trkpt>
      <trkpt lat="42.77203" lon="0.45157">
        <ele>2345.5</ele>
        <time>2011-10-01T15:17:49.9</time>
      </trkpt>
      <trkpt lat="42.77194" lon="0.4517">
        <ele>2346</ele>
        <time>2011-10-01T15:17:50.9</time>
      </trkpt>
      <trkpt lat="42.77187" lon="0.4521">
        <ele>2344.5</ele>
        <time>2011-10-01T15:17:52.29</time>
      </trkpt>
      <trkpt lat="42.7719" lon="0.4523">
        <ele>2343.5</ele>
        <time>2011-10-01T15:17:53.9</time>
      </trkpt>
      <trkpt lat="42.77196" lon="0.45246">
        <ele>2344</ele>
        <time>2011-10-01T15:17:54.29</time>
      </trkpt>
      <trkpt lat="42.77206" lon="0.45259">
        <ele>2344</ele>
        <time>2011-10-01T15:17:55.9</time>
      </trkpt>
      <trkpt lat="42.77255" lon="0.4525">
        <ele>2344.5</ele>
        <time>2011-10-01T15:17:58.9</time>
      </trkpt>
      <trkpt lat="42.77276" lon="0.45231">
        <ele>2345</ele>
        <time>2011-10-01T15:18:01.19</time>
      </trkpt>
      <trkpt lat="42.77282" lon="0.45222">
        <ele>2343.5</ele>
        <time>2011-10-01T15:18:02.9</time>
      </trkpt>
      <trkpt lat="42.77286" lon="0.45211">
        <ele>2343</ele>
        <time>2011-10-01T15:18:03.9</time>
      </trkpt>
      <trkpt lat="42.7729" lon="0.45201">
        <ele>2343.5</ele>
        <time>2011-10-01T15:18:04.9</time>
      </trkpt>
      <trkpt lat="42.77294" lon="0.45191">
        <ele>2343.5</ele>
        <time>2011-10-01T15:18:05.9</time>
      </trkpt>
      <trkpt lat="42.77297" lon="0.45181">
        <ele>2343</ele>
        <time>2011-10-01T15:18:06.9</time>
      </trkpt>
      <trkpt lat="42.77302" lon="0.4517">
        <ele>2342</ele>
        <time>2011-10-01T15:18:07.9</time>
      </trkpt>
      <trkpt lat="42.77318" lon="0.45152">
        <ele>2341.5</ele>
        <time>2011-10-01T15:18:09.19</time>
      </trkpt>
      <trkpt lat="42.77328" lon="0.45146">
        <ele>2342</ele>
        <time>2011-10-01T15:18:10.99</time>
      </trkpt>
      <trkpt lat="42.77339" lon="0.45141">
        <ele>2343</ele>
        <time>2011-10-01T15:18:11.10</time>
      </trkpt>
      <trkpt lat="42.77351" lon="0.45141">
        <ele>2343</ele>
        <time>2011-10-01T15:18:12.10</time>
      </trkpt>
      <trkpt lat="42.77364" lon="0.45144">
        <ele>2341.5</ele>
        <time>2011-10-01T15:18:13.49</time>
      </trkpt>
      <trkpt lat="42.77376" lon="0.45151">
        <ele>2341</ele>
        <time>2011-10-01T15:18:14.29</time>
      </trkpt>
      <trkpt lat="42.774" lon="0.45175">
        <ele>2340.5</ele>
        <time>2011-10-01T15:18:16.10</time>
      </trkpt>
      <trkpt lat="42.77419" lon="0.45212">
        <ele>2340.5</ele>
        <time>2011-10-01T15:18:18.39</time>
      </trkpt>
      <trkpt lat="42.77423" lon="0.45234">
        <ele>2341</ele>
        <time>2011-10-01T15:18:19</time>
      </trkpt>
      <trkpt lat="42.77423" lon="0.45256">
        <ele>2343.5</ele>
        <time>2011-10-01T15:18:20.39</time>
      </trkpt>
      <trkpt lat="42.7742" lon="0.45275">
        <ele>2345</ele>
        <time>2011-10-01T15:18:21.29</time>
      </trkpt>
      <trkpt lat="42.77414" lon="0.45293">
        <ele>2344.5</ele>
        <time>2011-10-01T15:18:22.39</time>
      </trkpt>
      <trkpt lat="42.77404" lon="0.45306">
        <ele>2345</ele>
        <time>2011-10-01T15:18:23.19</time>
      </trkpt>
      <trkpt lat="42.77371" lon="0.45318">
        <ele>2348</ele>
        <time>2011-10-01T15:18:27.19</time>
      </trkpt>
      <trkpt lat="42.77362" lon="0.45316">
        <ele>2347.5</ele>
        <time>2011-10-01T15:18:28.69</time>
      </trkpt>
      <trkpt lat="42.77343" lon="0.45305">
        <ele>2348</ele>
        <time>2011-10-01T15:18:30.9</time>
      </trkpt>
      <trkpt lat="42.77333" lon="0.45301">
        <ele>2348.5</ele>
        <time>2011-10-01T15:18:31.19</time>
      </trkpt>
      <trkpt lat="42.77323" lon="0.45299">
        <ele>2349</ele>
        <time>2011-10-01T15:18:32.79</time>
      </trkpt>
      <trkpt lat="42.77313" lon="0.45299">
        <ele>2348.5</ele>
        <time>2011-10-01T15:18:33.9</time>
      </trkpt>
      <trkpt lat="42.77302" lon="0.45302">
        <ele>2348.5</ele>
        <time>2011-10-01T15:18:34.49</time>
      </trkpt>
      <trkpt lat="42.7729" lon="0.45307">
        <ele>2349</ele>
        <time>2011-10-01T15:18:35.19</time>
      </trkpt>
      <trkpt lat="42.77278" lon="0.45314">
        <ele>2351</ele>
        <time>2011-10-01T15:18:36.79</time>
      </trkpt>
      <trkpt lat="42.77267" lon="0.45321">
        <ele>2352</ele>
        <time>2011-10-01T15:18:37.9</time>
      </trkpt>
      <trkpt lat="42.77255" lon="0.45329">
        <ele>2353</ele>
        <time>2011-10-01T15:18:38.49</time>
      </trkpt>
      <trkpt lat="42.77244" lon="0.45338">
        <ele>2354</ele>
        <time>2011-10-01T15:18:39.69</time>
      </trkpt>
      <trkpt lat="42.77233" lon="0.45347">
        <ele>2354.5</ele>
        <time>2011-10-01T15:18:40.39</time>
      </trkpt>
      <trkpt lat="42.77223" lon="0.45358">
        <ele>2353.5</ele>
        <time>2011-10-01T15:18:41.9</time>
      </trkpt>
      <trkpt lat="42.77212" lon="0.45369">
        <ele>2353.5</ele>
        <time>2011-10-01T15:18:42.29</time>
      </trkpt>
      <trkpt lat="42.77202" lon="0.45382">
        <ele>2355</ele>
        <time>2011-10-01T15:18:43.79</time>
      </trkpt>
      <trkpt lat="42.77192" lon="0.45394">
        <ele>2356.5</ele>
        <time>2011-10-01T15:18:44.19</time>
      </trkpt>
      <trkpt lat="42.77183" lon="0.45406">
        <ele>2357</ele>
        <time>2011-10-01T15:18:45.19</time>
      </trkpt>
      <trkpt lat="42.77174" lon="0.45417">
        <ele>2357</ele>
        <time>2011-10-01T15:18:46.79</time>
      </trkpt>
      <trkpt lat="42.77164" lon="0.45429">
        <ele>2357</ele>
        <time>2011-10-01T15:18:47.19</time>
      </trkpt>
      <trkpt lat="42.77153" lon="0.4544">
        <ele>2356</ele>
        <time>2011-10-01T15:18:48.9</time>
      </trkpt>
      <trkpt lat="42.77143" lon="0.45452">
        <ele>2355.5</ele>
        <time>2011-10-01T15:18:49.9</time>
      </trkpt>
      <trkpt lat="42.77133" lon="0.45462">
        <ele>2355</ele>
        <time>2011-10-01T15:18:50.29</time>
      </trkpt>
      <trkpt lat="42.77122" lon="0.45472">
        <ele>2355</ele>
        <time>2011-10-01T15:18:51.89</time>
      </trkpt>
      <trkpt lat="42.77111" lon="0.45481">
        <ele>2353.5</ele>
        <time>2011-10-01T15:18:52.79</time>
      </trkpt>
      <trkpt lat="42.77099" lon="0.45488">
        <ele>2352.5</ele>
        <time>2011-10-01T15:18:53.9</time>
      </trkpt>
      <trkpt lat="42.77086" lon="0.45489">
        <ele>2354</ele>
        <time>2011-10-01T15:18:54.29</time>
      </trkpt>
      <trkpt lat="42.77067" lon="0.45479">
        <ele>2354.5</ele>
        <time>2011-10-01T15:18:56.39</time>
      </trkpt>
      <trkpt lat="42.77068" lon="0.45465">
        <ele>2355.5</ele>
        <time>2011-10-01T15:18:57.19</time>
      </trkpt>
      <trkpt lat="42.77074" lon="0.45454">
        <ele>2355</ele>
        <time>2011-10-01T15:18:58.29</time>
      </trkpt>
      <trkpt lat="42.77082" lon="0.45442">
        <ele>2355.5</ele>
        <time>2011-10-01T15:18:59.19</time>
      </trkpt>
      <trkpt lat="42.77091" lon="0.45434">
        <ele>2357.5</ele>
        <time>2011-10-01T15:19:00.19</time>
      </trkpt>
      <trkpt lat="42.77107" lon="0.45425">
        <ele>2361</ele>
        <time>2011-10-01T15:19:02.79</time>
      </trkpt>
      <trkpt lat="42.77115" lon="0.45419">
        <ele>2360.5</ele>
        <time>2011-10-01T15:19:03.99</time>
      </trkpt>
      <trkpt lat="42.77123" lon="0.45411">
        <ele>2359</ele>
        <time>2011-10-01T15:19:04.69</time>
      </trkpt>
      <trkpt lat="42.77131" lon="0.45403">
        <ele>2358</ele>
        <time>2011-10-01T15:19:05.9</time>
      </trkpt>
      <trkpt lat="42.7714" lon="0.45393">
        <ele>2357.5</ele>
        <time>2011-10-01T15:19:06.29</time>
      </trkpt>
      <trkpt lat="42.77148" lon="0.45383">
        <ele>2358.5</ele>
        <time>2011-10-01T15:19:07.9</time>
      </trkpt>
      <trkpt lat="42.77155" lon="0.45373">
        <ele>2360.5</ele>
        <time>2011-10-01T15:19:08.29</time>
      </trkpt>
      <trkpt lat="42.77161" lon="0.45363">
        <ele>2361.5</ele>
        <time>2011-10-01T15:19:09.29</time>
      </trkpt>
      <trkpt lat="42.77168" lon="0.45354">
        <ele>2362</ele>
        <time>2011-10-01T15:19:10.29</time>
      </trkpt>
      <trkpt lat="42.77174" lon="0.45344">
        <ele>2362</ele>
        <time>2011-10-01T15:19:11.29</time>
      </trkpt>
      <trkpt lat="42.77179" lon="0.45334">
        <ele>2362.5</ele>
        <time>2011-10-01T15:19:12.69</time>
      </trkpt>
      <trkpt lat="42.77185" lon="0.45324">
        <ele>2363.5</ele>
        <time>2011-10-01T15:19:13.99</time>
      </trkpt>
      <trkpt lat="42.77189" lon="0.45314">
        <ele>2364</ele>
        <time>2011-10-01T15:19:14.99</time>
      </trkpt>
      <trkpt lat="42.77193" lon="0.45305">
        <ele>2363.5</ele>
        <time>2011-10-01T15:19:15.79</time>
      </trkpt>
      <trkpt lat="42.77197" lon="0.45294">
        <ele>2362</ele>
        <time>2011-10-01T15:19:16.49</time>
      </trkpt>
      <trkpt lat="42.77199" lon="0.45282">
        <ele>2361.5</ele>
        <time>2011-10-01T15:19:17.9</time>
      </trkpt>
      <trkpt lat="42.772" lon="0.4527">
        <ele>2362</ele>
        <time>2011-10-01T15:19:18.29</time>
      </trkpt>
      <trkpt lat="42.77201" lon="0.45258">
        <ele>2361</ele>
        <time>2011-10-01T15:19:19</time>
      </trkpt>
      <trkpt lat="42.77203" lon="0.45246">
        <ele>2361</ele>
        <time>2011-10-01T15:19:20.69</time>
      </trkpt>
      <trkpt lat="42.77206" lon="0.45233">
        <ele>2361</ele>
        <time>2011-10-01T15:19:21.89</time>
      </trkpt>
      <trkpt lat="42.77212" lon="0.45223">
        <ele>2363.5</ele>
        <time>2011-10-01T15:19:22.29</time>
      </trkpt>
      <trkpt lat="42.77218" lon="0.45216">
        <ele>2364.5</ele>
        <time>2011-10-01T15:19:23.69</time>
      </trkpt>
      <trkpt lat="42.77228" lon="0.45212">
        <ele>2363.5</ele>
        <time>2011-10-01T15:19:24.99</time>
      </trkpt>
      <trkpt lat="42.77239" lon="0.45211">
        <ele>2362.5</ele>
        <time>2011-10-01T15:19:25.99</time>
      </trkpt>
      <trkpt lat="42.77249" lon="0.45215">
        <ele>2361</ele>
        <time>2011-10-01T15:19:26.29</time>
      </trkpt>
      <trkpt lat="42.77261" lon="0.4522">
        <ele>2361</ele>
        <time>2011-10-01T15:19:27.39</time>
      </trkpt>
      <trkpt lat="42.77274" lon="0.45225">
        <ele>2360</ele>
        <time>2011-10-01T15:19:28.99</time>
      </trkpt>
      <trkpt lat="42.77286" lon="0.45229">
        <ele>2359</ele>
        <time>2011-10-01T15:19:29.89</time>
      </trkpt>
      <trkpt lat="42.77299" lon="0.4523">
        <ele>2359.5</ele>
        <time>2011-10-01T15:19:30.29</time>
      </trkpt>
      <trkpt lat="42.77323" lon="0.45229">
        <ele>2359.5</ele>
        <time>2011-10-01T15:19:32.39</time>
      </trkpt>
      <trkpt lat="42.77333" lon="0.45227">
        <ele>2359.5</ele>
        <time>2011-10-01T15:19:33.9</time>
      </trkpt>
      <trkpt lat="42.77343" lon="0.45224">
        <ele>2359</ele>
        <time>2011-10-01T15:19:34.59</time>
      </trkpt>
      <trkpt lat="42.77353" lon="0.45221">
        <ele>2358</ele>
        <time>2011-10-01T15:19:35.89</time>
      </trkpt>
      <trkpt lat="42.77363" lon="0.45217">
        <ele>2357.5</ele>
        <time>2011-10-01T15:19:36.99</time>
      </trkpt>
      <trkpt lat="42.77373" lon="0.45211">
        <ele>2358.5</ele>
        <time>2011-10-01T15:19:37.19</time>
      </trkpt>
      <trkpt lat="42.77383" lon="0.45205">
        <ele>2360.5</ele>
        <time>2011-10-01T15:19:38.19</time>
      </trkpt>
      <trkpt lat="42.77393" lon="0.45198">
        <ele>2361.5</ele>
        <time>2011-10-01T15:19:39.79</time>
      </trkpt>
      <trkpt lat="42.77402" lon="0.45192">
        <ele>2362</ele>
        <time>2011-10-01T15:19:40.69</time>
      </trkpt>
      <trkpt lat="42.77411" lon="0.45186">
        <ele>2362</ele>
        <time>2011-10-01T15:19:41.89</time>
      </trkpt>
      <trkpt lat="42.7742" lon="0.45179">
        <ele>2361</ele>
        <time>2011-10-01T15:19:42.59</time>
      </trkpt>
      <trkpt lat="42.77428" lon="0.45171">
        <ele>2360.5</ele>
        <time>2011-10-01T15:19:43.9</time>
      </trkpt>
      <trkpt lat="42.77438" lon="0.45161">
        <ele>2362</ele>
        <time>2011-10-01T15:19:44.99</time>
      </trkpt>
      <trkpt lat="42.77447" lon="0.45152">
        <ele>2363</ele>
        <time>2011-10-01T15:19:45.9</time>
      </trkpt>
      <trkpt lat="42.77456" lon="0.45142">
        <ele>2364</ele>
        <time>2011-10-01T15:19:46.99</time>
      </trkpt>
      <trkpt lat="42.77466" lon="0.45134">
        <ele>2363.5</ele>
        <time>2011-10-01T15:19:47.9</time>
      </trkpt>
      <trkpt lat="42.77477" lon="0.45127">
        <ele>2364.5</ele>
        <time>2011-10-01T15:19:48.59</time>
      </trkpt>
      <trkpt lat="42.77506" lon="0.45126">
        <ele>2363.5</ele>
        <time>2011-10-01T15:19:50.10</time>
      </trkpt>
      <trkpt lat="42.77519" lon="0.45128">
        <ele>2365</ele>
        <time>2011-10-01T15:19:51.9</time>
      </trkpt>
      <trkpt lat="42.77547" lon="0.45144">
        <ele>2364.5</ele>
        <time>2011-10-01T15:19:53.79</time>
      </trkpt>
      <trkpt lat="42.7756" lon="0.45157">
        <ele>2365</ele>
        <time>2011-10-01T15:19:54.59</time>
      </trkpt>
      <trkpt lat="42.77578" lon="0.45189">
        <ele>2365.5</ele>
        <time>2011-10-01T15:19:56.10</time>
      </trkpt>
      <trkpt lat="42.77565" lon="0.45235">
        <ele>2367.5</ele>
        <time>2011-10-01T15:19:59.19</time>
      </trkpt>
      <trkpt lat="42.77543" lon="0.4525">
        <ele>2366.5</ele>
        <time>2011-10-01T15:20:01.39</time>
      </trkpt>
      <trkpt lat="42.77531" lon="0.45254">
        <ele>2366.5</ele>
        <time>2011-10-01T15:20:02.79</time>
      </trkpt>
      <trkpt lat="42.77511" lon="0.45259">
        <ele>2369.5</ele>
        <time>2011-10-01T15:20:04.9</time>
      </trkpt>
      <trkpt lat="42.775" lon="0.4526">
        <ele>2372.5</ele>
        <time>2011-10-01T15:20:05.9</time>
      </trkpt>
      <trkpt lat="42.77488" lon="0.45261">
        <ele>2373.5</ele>
        <time>2011-10-01T15:20:06.99</time>
      </trkpt>
      <trkpt lat="42.77462" lon="0.45263">
        <ele>2375.5</ele>
        <time>2011-10-01T15:20:08.59</time>
      </trkpt>
      <trkpt lat="42.77453" lon="0.45268">
        <ele>2376.5</ele>
        <time>2011-10-01T15:20:09.19</time>
      </trkpt>
      <trkpt lat="42.77444" lon="0.45272">
        <ele>2376.5</ele>
        <time>2011-10-01T15:20:10.49</time>
      </trkpt>
      <trkpt lat="42.77434" lon="0.45277">
        <ele>2377</ele>
        <time>2011-10-01T15:20:11.19</time>
      </trkpt>
      <trkpt lat="42.77423" lon="0.45284">
        <ele>2375</ele>
        <time>2011-10-01T15:20:12.10</time>
      </trkpt>
      <trkpt lat="42.7741" lon="0.4529">
        <ele>2374</ele>
        <time>2011-10-01T15:20:13.19</time>
      </trkpt>
      <trkpt lat="42.77398" lon="0.45296">
        <ele>2375.5</ele>
        <time>2011-10-01T15:20:14.29</time>
      </trkpt>
      <trkpt lat="42.77379" lon="0.45308">
        <ele>2377.5</ele>
        <time>2011-10-01T15:20:16.29</time>
      </trkpt>
      <trkpt lat="42.77369" lon="0.45313">
        <ele>2376</ele>
        <time>2011-10-01T15:20:17.39</time>
      </trkpt>
      <trkpt lat="42.77345" lon="0.45323">
        <ele>2373.5</ele>
        <time>2011-10-01T15:20:19.9</time>
      </trkpt>
      <trkpt lat="42.77332" lon="0.45327">
        <ele>2375</ele>
        <time>2011-10-01T15:20:20.19</time>
      </trkpt>
      <trkpt lat="42.77321" lon="0.45329">
        <ele>2376.5</ele>
        <time>2011-10-01T15:20:21.9</time>
      </trkpt>
      <trkpt lat="42.7731" lon="0.4533">
        <ele>2376.5</ele>
        <time>2011-10-01T15:20:22.29</time>
      </trkpt>
      <trkpt lat="42.77299" lon="0.45331">
        <ele>2376</ele>
        <time>2011-10-01T15:20:23.9</time>
      </trkpt>
      <trkpt lat="42.77288" lon="0.45332">
        <ele>2375</ele>
        <time>2011-10-01T15:20:24.11</time>
      </trkpt>
      <trkpt lat="42.77277" lon="0.45332">
        <ele>2375</ele>
        <time>2011-10-01T15:20:25.19</time>
      </trkpt>
      <trkpt lat="42.77265" lon="0.45332">
        <ele>2376</ele>
        <time>2011-10-01T15:20:26.29</time>
      </trkpt>
      <trkpt lat="42.77254" lon="0.45333">
        <ele>2378</ele>
        <time>2011-10-01T15:20:27.29</time>
      </trkpt>
      <trkpt lat="42.77243" lon="0.45333">
        <ele>2380</ele>
        <time>2011-10-01T15:20:28.29</time>
      </trkpt>
      <trkpt lat="42.77233" lon="0.45332">
        <ele>2381.5</ele>
        <time>2011-10-01T15:20:29.19</time>
      </trkpt>
      <trkpt lat="42.77222" lon="0.45331">
        <ele>2382.5</ele>
        <time>2011-10-01T15:20:30.19</time>
      </trkpt>
      <trkpt lat="42.77211" lon="0.45331">
        <ele>2383.5</ele>
        <time>2011-10-01T15:20:31.79</time>
      </trkpt>
      <trkpt lat="42.772" lon="0.4533">
        <ele>2385</ele>
        <time>2011-10-01T15:20:32.9</time>
      </trkpt>
      <trkpt lat="42.77189" lon="0.45329">
        <ele>2386.5</ele>
        <time>2011-10-01T15:20:33.69</time>
      </trkpt>
      <trkpt lat="42.77179" lon="0.45325">
        <ele>2388.5</ele>
        <time>2011-10-01T15:20:34.99</time>
      </trkpt>
      <trkpt lat="42.77168" lon="0.45309">
        <ele>2385.5</ele>
        <time>2011-10-01T15:20:36.49</time>
      </trkpt>
      <trkpt lat="42.77166" lon="0.45298">
        <ele>2384</ele>
        <time>2011-10-01T15:20:37.19</time>
      </trkpt>
      <trkpt lat="42.77177" lon="0.45276">
        <ele>2384</ele>
        <time>2011-10-01T15:20:39.9</time>
      </trkpt>
      <trkpt lat="42.77185" lon="0.45267">
        <ele>2385.5</ele>
        <time>2011-10-01T15:20:40.9</time>
      </trkpt>
      <trkpt lat="42.77194" lon="0.45261">
        <ele>2388</ele>
        <time>2011-10-01T15:20:41.9</time>
      </trkpt>
      <trkpt lat="42.77204" lon="0.45259">
        <ele>2388.5</ele>
        <time>2011-10-01T15:20:42.29</time>
      </trkpt>
      <trkpt lat="42.77213" lon="0.45259">
        <ele>2390</ele>
        <time>2011-10-01T15:20:43.19</time>
      </trkpt>
      <trkpt lat="42.77265" lon="0.45273">
        <ele>2401</ele>
        <time>2011-10-01T15:20:47.19</time>
      </trkpt>
      <trkpt lat="42.77293" lon="0.45292">
        <ele>2410.5</ele>
        <time>2011-10-01T15:20:50.9</time>
      </trkpt>
      <trkpt lat="42.77304" lon="0.45298">
        <ele>2411</ele>
        <time>2011-10-01T15:20:51.79</time>
      </trkpt>
      <trkpt lat="42.77333" lon="0.45307">
        <ele>2414</ele>
        <time>2011-10-01T15:20:53.79</time>
      </trkpt>
      <trkpt lat="42.77346" lon="0.45308">
        <ele>2416</ele>
        <time>2011-10-01T15:20:54.9</time>
      </trkpt>
      <trkpt lat="42.77361" lon="0.4531">
        <ele>2416</ele>
        <time>2011-10-01T15:20:55.9</time>
      </trkpt>
      <trkpt lat="42.77374" lon="0.45313">
        <ele>2416.5</ele>
        <time>2011-10-01T15:20:56.29</time>
      </trkpt>
      <trkpt lat="42.77396" lon="0.4532">
        <ele>2417.5</ele>
        <time>2011-10-01T15:20:58.36</time>
      </trkpt>
      <trkpt lat="42.77419" lon="0.45329">
        <ele>2420.5</ele>
        <time>2011-10-01T15:21:00.9</time>
      </trkpt>
      <trkpt lat="42.77432" lon="0.45333">
        <ele>2420.5</ele>
        <time>2011-10-01T15:21:01.9</time>
      </trkpt>
      <trkpt lat="42.77445" lon="0.45338">
        <ele>2421</ele>
        <time>2011-10-01T15:21:02.17</time>
      </trkpt>
      <trkpt lat="42.77457" lon="0.45344">
        <ele>2421</ele>
        <time>2011-10-01T15:21:03.96</time>
      </trkpt>
      <trkpt lat="42.77476" lon="0.45359">
        <ele>2424</ele>
        <time>2011-10-01T15:21:04.99</time>
      </trkpt>
      <trkpt lat="42.77486" lon="0.45368">
        <ele>2425</ele>
        <time>2011-10-01T15:21:06.9</time>
      </trkpt>
      <trkpt lat="42.77497" lon="0.45378">
        <ele>2426</ele>
        <time>2011-10-01T15:21:06.99</time>
      </trkpt>
      <trkpt lat="42.77507" lon="0.45387">
        <ele>2429</ele>
        <time>2011-10-01T15:21:07.99</time>
      </trkpt>
      <trkpt lat="42.77518" lon="0.45395">
        <ele>2432</ele>
        <time>2011-10-01T15:21:09</time>
      </trkpt>
      <trkpt lat="42.7753" lon="0.45404">
        <ele>2433</ele>
        <time>2011-10-01T15:21:10.9</time>
      </trkpt>
      <trkpt lat="42.77541" lon="0.45412">
        <ele>2435</ele>
        <time>2011-10-01T15:21:11.9</time>
      </trkpt>
      <trkpt lat="42.77554" lon="0.45421">
        <ele>2436</ele>
        <time>2011-10-01T15:21:12.29</time>
      </trkpt>
      <trkpt lat="42.77566" lon="0.4543">
        <ele>2438.5</ele>
        <time>2011-10-01T15:21:13.9</time>
      </trkpt>
      <trkpt lat="42.77578" lon="0.45438">
        <ele>2441.5</ele>
        <time>2011-10-01T15:21:14.9</time>
      </trkpt>
      <trkpt lat="42.77591" lon="0.45445">
        <ele>2442</ele>
        <time>2011-10-01T15:21:14.99</time>
      </trkpt>
      <trkpt lat="42.77603" lon="0.45451">
        <ele>2444</ele>
        <time>2011-10-01T15:21:16.19</time>
      </trkpt>
      <trkpt lat="42.77615" lon="0.45455">
        <ele>2446.5</ele>
        <time>2011-10-01T15:21:17.19</time>
      </trkpt>
      <trkpt lat="42.77627" lon="0.45458">
        <ele>2447</ele>
        <time>2011-10-01T15:21:18.9</time>
      </trkpt>
      <trkpt lat="42.77639" lon="0.45462">
        <ele>2447.5</ele>
        <time>2011-10-01T15:21:19.9</time>
      </trkpt>
      <trkpt lat="42.7767" lon="0.45466">
        <ele>2447.5</ele>
        <time>2011-10-01T15:21:21.19</time>
      </trkpt>
      <trkpt lat="42.77693" lon="0.45462">
        <ele>2452</ele>
        <time>2011-10-01T15:21:23.29</time>
      </trkpt>
      <trkpt lat="42.77705" lon="0.45457">
        <ele>2453</ele>
        <time>2011-10-01T15:21:24.9</time>
      </trkpt>
      <trkpt lat="42.77717" lon="0.45451">
        <ele>2452.5</ele>
        <time>2011-10-01T15:21:25.9</time>
      </trkpt>
      <trkpt lat="42.7773" lon="0.45443">
        <ele>2453.5</ele>
        <time>2011-10-01T15:21:26.29</time>
      </trkpt>
      <trkpt lat="42.77742" lon="0.45433">
        <ele>2456</ele>
        <time>2011-10-01T15:21:27.9</time>
      </trkpt>
      <trkpt lat="42.77753" lon="0.45421">
        <ele>2458</ele>
        <time>2011-10-01T15:21:28.29</time>
      </trkpt>
      <trkpt lat="42.77761" lon="0.45407">
        <ele>2461</ele>
        <time>2011-10-01T15:21:29.9</time>
      </trkpt>
      <trkpt lat="42.77767" lon="0.45391">
        <ele>2461</ele>
        <time>2011-10-01T15:21:30.39</time>
      </trkpt>
      <trkpt lat="42.77767" lon="0.45372">
        <ele>2459.5</ele>
        <time>2011-10-01T15:21:31.19</time>
      </trkpt>
      <trkpt lat="42.77764" lon="0.45352">
        <ele>2459.5</ele>
        <time>2011-10-01T15:21:32.29</time>
      </trkpt>
      <trkpt lat="42.77756" lon="0.45337">
        <ele>2460</ele>
        <time>2011-10-01T15:21:33.19</time>
      </trkpt>
      <trkpt lat="42.77744" lon="0.45326">
        <ele>2460</ele>
        <time>2011-10-01T15:21:34.99</time>
      </trkpt>
      <trkpt lat="42.77732" lon="0.45313">
        <ele>2460.5</ele>
        <time>2011-10-01T15:21:35.19</time>
      </trkpt>
      <trkpt lat="42.77708" lon="0.4531">
        <ele>2462.5</ele>
        <time>2011-10-01T15:21:37.9</time>
      </trkpt>
      <trkpt lat="42.7768" lon="0.45316">
        <ele>2466.5</ele>
        <time>2011-10-01T15:21:39.9</time>
      </trkpt>
      <trkpt lat="42.77667" lon="0.4532">
        <ele>2468.5</ele>
        <time>2011-10-01T15:21:40.29</time>
      </trkpt>
      <trkpt lat="42.77654" lon="0.45324">
        <ele>2471</ele>
        <time>2011-10-01T15:21:41.9</time>
      </trkpt>
      <trkpt lat="42.77642" lon="0.45325">
        <ele>2470</ele>
        <time>2011-10-01T15:21:42.29</time>
      </trkpt>
      <trkpt lat="42.7763" lon="0.45325">
        <ele>2470.5</ele>
        <time>2011-10-01T15:21:43.9</time>
      </trkpt>
      <trkpt lat="42.77618" lon="0.45323">
        <ele>2469</ele>
        <time>2011-10-01T15:21:44.29</time>
      </trkpt>
      <trkpt lat="42.77606" lon="0.45319">
        <ele>2468.5</ele>
        <time>2011-10-01T15:21:45.9</time>
      </trkpt>
      <trkpt lat="42.77593" lon="0.45314">
        <ele>2468.5</ele>
        <time>2011-10-01T15:21:46.29</time>
      </trkpt>
      <trkpt lat="42.77579" lon="0.45309">
        <ele>2470</ele>
        <time>2011-10-01T15:21:47.19</time>
      </trkpt>
      <trkpt lat="42.77566" lon="0.45307">
        <ele>2470</ele>
        <time>2011-10-01T15:21:48.39</time>
      </trkpt>
      <trkpt lat="42.77553" lon="0.45308">
        <ele>2472</ele>
        <time>2011-10-01T15:21:49.9</time>
      </trkpt>
      <trkpt lat="42.7754" lon="0.45311">
        <ele>2473</ele>
        <time>2011-10-01T15:21:50.29</time>
      </trkpt>
      <trkpt lat="42.77529" lon="0.45315">
        <ele>2473.5</ele>
        <time>2011-10-01T15:21:51.9</time>
      </trkpt>
      <trkpt lat="42.77516" lon="0.45318">
        <ele>2475.5</ele>
        <time>2011-10-01T15:21:52.29</time>
      </trkpt>
      <trkpt lat="42.77503" lon="0.45323">
        <ele>2477.5</ele>
        <time>2011-10-01T15:21:53.9</time>
      </trkpt>
      <trkpt lat="42.77492" lon="0.45329">
        <ele>2478.5</ele>
        <time>2011-10-01T15:21:54.29</time>
      </trkpt>
      <trkpt lat="42.7748" lon="0.45336">
        <ele>2479</ele>
        <time>2011-10-01T15:21:55.19</time>
      </trkpt>
      <trkpt lat="42.77468" lon="0.45344">
        <ele>2480.5</ele>
        <time>2011-10-01T15:21:56.19</time>
      </trkpt>
      <trkpt lat="42.77457" lon="0.45354">
        <ele>2481.5</ele>
        <time>2011-10-01T15:21:57.19</time>
      </trkpt>
      <trkpt lat="42.77446" lon="0.45364">
        <ele>2481.5</ele>
        <time>2011-10-01T15:21:58.29</time>
      </trkpt>
      <trkpt lat="42.77435" lon="0.45376">
        <ele>2482</ele>
        <time>2011-10-01T15:21:59.9</time>
      </trkpt>
      <trkpt lat="42.77424" lon="0.45388">
        <ele>2483.5</ele>
        <time>2011-10-01T15:22:00.29</time>
      </trkpt>
      <trkpt lat="42.77414" lon="0.45402">
        <ele>2485</ele>
        <time>2011-10-01T15:22:01.9</time>
      </trkpt>
      <trkpt lat="42.77405" lon="0.45416">
        <ele>2486</ele>
        <time>2011-10-01T15:22:02.29</time>
      </trkpt>
      <trkpt lat="42.77395" lon="0.4543">
        <ele>2486.5</ele>
        <time>2011-10-01T15:22:03.29</time>
      </trkpt>
      <trkpt lat="42.77386" lon="0.45445">
        <ele>2487</ele>
        <time>2011-10-01T15:22:04.29</time>
      </trkpt>
      <trkpt lat="42.77378" lon="0.45461">
        <ele>2487</ele>
        <time>2011-10-01T15:22:05.29</time>
      </trkpt>
      <trkpt lat="42.77369" lon="0.45477">
        <ele>2487.5</ele>
        <time>2011-10-01T15:22:06.19</time>
      </trkpt>
      <trkpt lat="42.7736" lon="0.45493">
        <ele>2488.5</ele>
        <time>2011-10-01T15:22:07.19</time>
      </trkpt>
      <trkpt lat="42.7735" lon="0.45507">
        <ele>2489.5</ele>
        <time>2011-10-01T15:22:08.29</time>
      </trkpt>
      <trkpt lat="42.7734" lon="0.45521">
        <ele>2490.5</ele>
        <time>2011-10-01T15:22:09.19</time>
      </trkpt>
      <trkpt lat="42.7733" lon="0.4553">
        <ele>2489</ele>
        <time>2011-10-01T15:22:10.39</time>
      </trkpt>
      <trkpt lat="42.77317" lon="0.45536">
        <ele>2489.5</ele>
        <time>2011-10-01T15:22:11.29</time>
      </trkpt>
      <trkpt lat="42.77306" lon="0.45536">
        <ele>2489.5</ele>
        <time>2011-10-01T15:22:12.29</time>
      </trkpt>
      <trkpt lat="42.77295" lon="0.45531">
        <ele>2491</ele>
        <time>2011-10-01T15:22:13.19</time>
      </trkpt>
      <trkpt lat="42.77286" lon="0.45523">
        <ele>2491.5</ele>
        <time>2011-10-01T15:22:14.69</time>
      </trkpt>
      <trkpt lat="42.7728" lon="0.45512">
        <ele>2493.5</ele>
        <time>2011-10-01T15:22:15.9</time>
      </trkpt>
      <trkpt lat="42.77273" lon="0.45493">
        <ele>2493.5</ele>
        <time>2011-10-01T15:22:17.29</time>
      </trkpt>
      <trkpt lat="42.77269" lon="0.45485">
        <ele>2495.5</ele>
        <time>2011-10-01T15:22:18.29</time>
      </trkpt>
      <trkpt lat="42.77266" lon="0.45476">
        <ele>2495.5</ele>
        <time>2011-10-01T15:22:19</time>
      </trkpt>
      <trkpt lat="42.77263" lon="0.45466">
        <ele>2494</ele>
        <time>2011-10-01T15:22:20.9</time>
      </trkpt>
      <trkpt lat="42.77261" lon="0.45454">
        <ele>2495</ele>
        <time>2011-10-01T15:22:21.29</time>
      </trkpt>
      <trkpt lat="42.77262" lon="0.45441">
        <ele>2495</ele>
        <time>2011-10-01T15:22:22.39</time>
      </trkpt>
      <trkpt lat="42.77265" lon="0.45428">
        <ele>2495</ele>
        <time>2011-10-01T15:22:23.9</time>
      </trkpt>
      <trkpt lat="42.77273" lon="0.45417">
        <ele>2495.5</ele>
        <time>2011-10-01T15:22:24.29</time>
      </trkpt>
      <trkpt lat="42.77285" lon="0.45414">
        <ele>2496</ele>
        <time>2011-10-01T15:22:25.19</time>
      </trkpt>
      <trkpt lat="42.77305" lon="0.4542">
        <ele>2498.5</ele>
        <time>2011-10-01T15:22:27.29</time>
      </trkpt>
      <trkpt lat="42.77307" lon="0.45501">
        <ele>2500.5</ele>
        <time>2011-10-01T15:22:31.19</time>
      </trkpt>
      <trkpt lat="42.7728" lon="0.45533">
        <ele>2500.5</ele>
        <time>2011-10-01T15:22:34.19</time>
      </trkpt>
      <trkpt lat="42.77269" lon="0.45529">
        <ele>2500</ele>
        <time>2011-10-01T15:22:35.19</time>
      </trkpt>
      <trkpt lat="42.77262" lon="0.45519">
        <ele>2500</ele>
        <time>2011-10-01T15:22:36.19</time>
      </trkpt>
      <trkpt lat="42.77257" lon="0.45509">
        <ele>2500</ele>
        <time>2011-10-01T15:22:37.9</time>
      </trkpt>
      <trkpt lat="42.77255" lon="0.455">
        <ele>2499.5</ele>
        <time>2011-10-01T15:22:38.29</time>
      </trkpt>
      <trkpt lat="42.77252" lon="0.4549">
        <ele>2498.5</ele>
        <time>2011-10-01T15:22:39.19</time>
      </trkpt>
      <trkpt lat="42.7725" lon="0.4548">
        <ele>2498.5</ele>
        <time>2011-10-01T15:22:40.19</time>
      </trkpt>
      <trkpt lat="42.77247" lon="0.45469">
        <ele>2498.5</ele>
        <time>2011-10-01T15:22:41.9</time>
      </trkpt>
      <trkpt lat="42.77245" lon="0.45457">
        <ele>2499</ele>
        <time>2011-10-01T15:22:42.9</time>
      </trkpt>
      <trkpt lat="42.77244" lon="0.45444">
        <ele>2500</ele>
        <time>2011-10-01T15:22:43.19</time>
      </trkpt>
      <trkpt lat="42.77242" lon="0.45432">
        <ele>2500.5</ele>
        <time>2011-10-01T15:22:44.9</time>
      </trkpt>
      <trkpt lat="42.77241" lon="0.45419">
        <ele>2501</ele>
        <time>2011-10-01T15:22:45.9</time>
      </trkpt>
      <trkpt lat="42.77241" lon="0.45407">
        <ele>2501</ele>
        <time>2011-10-01T15:22:46.39</time>
      </trkpt>
      <trkpt lat="42.77241" lon="0.45395">
        <ele>2500.5</ele>
        <time>2011-10-01T15:22:47.29</time>
      </trkpt>
      <trkpt lat="42.77241" lon="0.45382">
        <ele>2499.5</ele>
        <time>2011-10-01T15:22:48.69</time>
      </trkpt>
      <trkpt lat="42.77241" lon="0.45368">
        <ele>2498.5</ele>
        <time>2011-10-01T15:22:49.89</time>
      </trkpt>
      <trkpt lat="42.77241" lon="0.45354">
        <ele>2498.5</ele>
        <time>2011-10-01T15:22:50.9</time>
      </trkpt>
      <trkpt lat="42.77241" lon="0.45339">
        <ele>2499</ele>
        <time>2011-10-01T15:22:51.19</time>
      </trkpt>
      <trkpt lat="42.77242" lon="0.45325">
        <ele>2500</ele>
        <time>2011-10-01T15:22:52.11</time>
      </trkpt>
      <trkpt lat="42.77247" lon="0.45311">
        <ele>2501.5</ele>
        <time>2011-10-01T15:22:53.9</time>
      </trkpt>
      <trkpt lat="42.77255" lon="0.453">
        <ele>2504.5</ele>
        <time>2011-10-01T15:22:54.19</time>
      </trkpt>
      <trkpt lat="42.77266" lon="0.45294">
        <ele>2505.5</ele>
        <time>2011-10-01T15:22:55.19</time>
      </trkpt>
      <trkpt lat="42.77277" lon="0.45291">
        <ele>2508</ele>
        <time>2011-10-01T15:22:56.9</time>
      </trkpt>
      <trkpt lat="42.77289" lon="0.45294">
        <ele>2507.5</ele>
        <time>2011-10-01T15:22:57.79</time>
      </trkpt>
      <trkpt lat="42.77301" lon="0.453">
        <ele>2507.5</ele>
        <time>2011-10-01T15:22:58.11</time>
      </trkpt>
      <trkpt lat="42.77327" lon="0.45317">
        <ele>2508</ele>
        <time>2011-10-01T15:23:00.99</time>
      </trkpt>
      <trkpt lat="42.77339" lon="0.45327">
        <ele>2508.5</ele>
        <time>2011-10-01T15:23:01.19</time>
      </trkpt>
      <trkpt lat="42.77351" lon="0.45337">
        <ele>2510</ele>
        <time>2011-10-01T15:23:02.11</time>
      </trkpt>
      <trkpt lat="42.77362" lon="0.45347">
        <ele>2511.5</ele>
        <time>2011-10-01T15:23:03.49</time>
      </trkpt>
      <trkpt lat="42.77372" lon="0.45356">
        <ele>2511.5</ele>
        <time>2011-10-01T15:23:04.69</time>
      </trkpt>
      <trkpt lat="42.77383" lon="0.45364">
        <ele>2510</ele>
        <time>2011-10-01T15:23:05.19</time>
      </trkpt>
      <trkpt lat="42.77395" lon="0.45371">
        <ele>2508.5</ele>
        <time>2011-10-01T15:23:06.79</time>
      </trkpt>
      <trkpt lat="42.77407" lon="0.45378">
        <ele>2508</ele>
        <time>2011-10-01T15:23:07.49</time>
      </trkpt>
      <trkpt lat="42.7742" lon="0.45384">
        <ele>2508</ele>
        <time>2011-10-01T15:23:08.69</time>
      </trkpt>
      <trkpt lat="42.77433" lon="0.4539">
        <ele>2508</ele>
        <time>2011-10-01T15:23:09.69</time>
      </trkpt>
      <trkpt lat="42.77445" lon="0.45395">
        <ele>2508.5</ele>
        <time>2011-10-01T15:23:09.99</time>
      </trkpt>
      <trkpt lat="42.77457" lon="0.454">
        <ele>2508.5</ele>
        <time>2011-10-01T15:23:11.9</time>
      </trkpt>
      <trkpt lat="42.77469" lon="0.45405">
        <ele>2508</ele>
        <time>2011-10-01T15:23:12.89</time>
      </trkpt>
      <trkpt lat="42.77481" lon="0.4541">
        <ele>2508</ele>
        <time>2011-10-01T15:23:13.9</time>
      </trkpt>
      <trkpt lat="42.77494" lon="0.45415">
        <ele>2509.5</ele>
        <time>2011-10-01T15:23:14.89</time>
      </trkpt>
      <trkpt lat="42.77506" lon="0.45421">
        <ele>2511</ele>
        <time>2011-10-01T15:23:15.9</time>
      </trkpt>
      <trkpt lat="42.77517" lon="0.45427">
        <ele>2511.5</ele>
        <time>2011-10-01T15:23:16.99</time>
      </trkpt>
      <trkpt lat="42.77527" lon="0.45434">
        <ele>2513</ele>
        <time>2011-10-01T15:23:17.69</time>
      </trkpt>
      <trkpt lat="42.77537" lon="0.45441">
        <ele>2513.5</ele>
        <time>2011-10-01T15:23:18.69</time>
      </trkpt>
      <trkpt lat="42.77546" lon="0.45448">
        <ele>2513.5</ele>
        <time>2011-10-01T15:23:19.39</time>
      </trkpt>
      <trkpt lat="42.77557" lon="0.45455">
        <ele>2514</ele>
        <time>2011-10-01T15:23:20.99</time>
      </trkpt>
      <trkpt lat="42.77568" lon="0.45462">
        <ele>2515</ele>
        <time>2011-10-01T15:23:21.39</time>
      </trkpt>
      <trkpt lat="42.77578" lon="0.45469">
        <ele>2516</ele>
        <time>2011-10-01T15:23:22.99</time>
      </trkpt>
      <trkpt lat="42.77588" lon="0.45476">
        <ele>2515.5</ele>
        <time>2011-10-01T15:23:23.69</time>
      </trkpt>
      <trkpt lat="42.77597" lon="0.45483">
        <ele>2515.5</ele>
        <time>2011-10-01T15:23:24.29</time>
      </trkpt>
      <trkpt lat="42.77622" lon="0.45499">
        <ele>2515</ele>
        <time>2011-10-01T15:23:26.29</time>
      </trkpt>
      <trkpt lat="42.77646" lon="0.45505">
        <ele>2515</ele>
        <time>2011-10-01T15:23:28.9</time>
      </trkpt>
      <trkpt lat="42.7766" lon="0.45506">
        <ele>2514</ele>
        <time>2011-10-01T15:23:29.9</time>
      </trkpt>
      <trkpt lat="42.77688" lon="0.45491">
        <ele>2514.5</ele>
        <time>2011-10-01T15:23:32.39</time>
      </trkpt>
      <trkpt lat="42.77691" lon="0.45479">
        <ele>2514</ele>
        <time>2011-10-01T15:23:33.59</time>
      </trkpt>
      <trkpt lat="42.77688" lon="0.45466">
        <ele>2513</ele>
        <time>2011-10-01T15:23:34.49</time>
      </trkpt>
      <trkpt lat="42.77682" lon="0.45456">
        <ele>2513</ele>
        <time>2011-10-01T15:23:35.19</time>
      </trkpt>
      <trkpt lat="42.77643" lon="0.45455">
        <ele>2513.5</ele>
        <time>2011-10-01T15:23:38.10</time>
      </trkpt>
      <trkpt lat="42.77633" lon="0.45465">
        <ele>2513.5</ele>
        <time>2011-10-01T15:23:39.69</time>
      </trkpt>
      <trkpt lat="42.77625" lon="0.45476">
        <ele>2514</ele>
        <time>2011-10-01T15:23:40.79</time>
      </trkpt>
      <trkpt lat="42.77617" lon="0.45489">
        <ele>2513.5</ele>
        <time>2011-10-01T15:23:41.10</time>
      </trkpt>
      <trkpt lat="42.77602" lon="0.45524">
        <ele>2512.5</ele>
        <time>2011-10-01T15:23:43.39</time>
      </trkpt>
      <trkpt lat="42.77594" lon="0.4554">
        <ele>2514</ele>
        <time>2011-10-01T15:23:44.59</time>
      </trkpt>
      <trkpt lat="42.77587" lon="0.45556">
        <ele>2515.5</ele>
        <time>2011-10-01T15:23:45.79</time>
      </trkpt>
      <trkpt lat="42.77577" lon="0.4557">
        <ele>2517.5</ele>
        <time>2011-10-01T15:23:46.59</time>
      </trkpt>
      <trkpt lat="42.77557" lon="0.45586">
        <ele>2518.5</ele>
        <time>2011-10-01T15:23:48.89</time>
      </trkpt>
      <trkpt lat="42.77545" lon="0.4559">
        <ele>2518</ele>
        <time>2011-10-01T15:23:49.9</time>
      </trkpt>
      <trkpt lat="42.77532" lon="0.45594">
        <ele>2520</ele>
        <time>2011-10-01T15:23:50.99</time>
      </trkpt>
      <trkpt lat="42.77504" lon="0.45601">
        <ele>2520.5</ele>
        <time>2011-10-01T15:23:53.9</time>
      </trkpt>
      <trkpt lat="42.77494" lon="0.45602">
        <ele>2520.5</ele>
        <time>2011-10-01T15:23:54.10</time>
      </trkpt>
      <trkpt lat="42.77483" lon="0.45602">
        <ele>2520</ele>
        <time>2011-10-01T15:23:55.29</time>
      </trkpt>
      <trkpt lat="42.77472" lon="0.45602">
        <ele>2520</ele>
        <time>2011-10-01T15:23:56.79</time>
      </trkpt>
      <trkpt lat="42.77462" lon="0.45603">
        <ele>2521</ele>
        <time>2011-10-01T15:23:57.79</time>
      </trkpt>
      <trkpt lat="42.77452" lon="0.45604">
        <ele>2521.5</ele>
        <time>2011-10-01T15:23:58.49</time>
      </trkpt>
      <trkpt lat="42.77442" lon="0.45607">
        <ele>2521</ele>
        <time>2011-10-01T15:23:59.19</time>
      </trkpt>
      <trkpt lat="42.77432" lon="0.45611">
        <ele>2520.5</ele>
        <time>2011-10-01T15:24:00.69</time>
      </trkpt>
      <trkpt lat="42.77421" lon="0.45616">
        <ele>2521.5</ele>
        <time>2011-10-01T15:24:01.39</time>
      </trkpt>
      <trkpt lat="42.77411" lon="0.45625">
        <ele>2520.5</ele>
        <time>2011-10-01T15:24:02.69</time>
      </trkpt>
      <trkpt lat="42.77401" lon="0.45634">
        <ele>2521</ele>
        <time>2011-10-01T15:24:03.49</time>
      </trkpt>
      <trkpt lat="42.7739" lon="0.45643">
        <ele>2522.5</ele>
        <time>2011-10-01T15:24:04.9</time>
      </trkpt>
      <trkpt lat="42.7738" lon="0.45649">
        <ele>2523</ele>
        <time>2011-10-01T15:24:05.49</time>
      </trkpt>
      <trkpt lat="42.77369" lon="0.45652">
        <ele>2523.5</ele>
        <time>2011-10-01T15:24:06.69</time>
      </trkpt>
      <trkpt lat="42.77358" lon="0.45654">
        <ele>2524</ele>
        <time>2011-10-01T15:24:07.19</time>
      </trkpt>
      <trkpt lat="42.77347" lon="0.45651">
        <ele>2525</ele>
        <time>2011-10-01T15:24:08.29</time>
      </trkpt>
      <trkpt lat="42.77338" lon="0.45643">
        <ele>2527</ele>
        <time>2011-10-01T15:24:09</time>
      </trkpt>
      <trkpt lat="42.77328" lon="0.45627">
        <ele>2527</ele>
        <time>2011-10-01T15:24:11.19</time>
      </trkpt>
      <trkpt lat="42.77325" lon="0.4562">
        <ele>2527</ele>
        <time>2011-10-01T15:24:12.69</time>
      </trkpt>
      <trkpt lat="42.77321" lon="0.45611">
        <ele>2528.5</ele>
        <time>2011-10-01T15:24:13.9</time>
      </trkpt>
      <trkpt lat="42.77319" lon="0.45601">
        <ele>2529</ele>
        <time>2011-10-01T15:24:14.12</time>
      </trkpt>
      <trkpt lat="42.77318" lon="0.45591">
        <ele>2530</ele>
        <time>2011-10-01T15:24:15.49</time>
      </trkpt>
      <trkpt lat="42.77318" lon="0.45579">
        <ele>2529</ele>
        <time>2011-10-01T15:24:16.29</time>
      </trkpt>
      <trkpt lat="42.77318" lon="0.45567">
        <ele>2529</ele>
        <time>2011-10-01T15:24:17.19</time>
      </trkpt>
      <trkpt lat="42.77317" lon="0.45556">
        <ele>2530</ele>
        <time>2011-10-01T15:24:18.9</time>
      </trkpt>
      <trkpt lat="42.77317" lon="0.45545">
        <ele>2530.5</ele>
        <time>2011-10-01T15:24:19.9</time>
      </trkpt>
      <trkpt lat="42.77315" lon="0.45534">
        <ele>2530.5</ele>
        <time>2011-10-01T15:24:20.79</time>
      </trkpt>
      <trkpt lat="42.77312" lon="0.45523">
        <ele>2530</ele>
        <time>2011-10-01T15:24:21.9</time>
      </trkpt>
      <trkpt lat="42.77309" lon="0.45511">
        <ele>2531</ele>
        <time>2011-10-01T15:24:22.69</time>
      </trkpt>
      <trkpt lat="42.77307" lon="0.45497">
        <ele>2533</ele>
        <time>2011-10-01T15:24:23.19</time>
      </trkpt>
      <trkpt lat="42.77306" lon="0.45484">
        <ele>2533.5</ele>
        <time>2011-10-01T15:24:24.39</time>
      </trkpt>
      <trkpt lat="42.77306" lon="0.45472">
        <ele>2534</ele>
        <time>2011-10-01T15:24:25.89</time>
      </trkpt>
      <trkpt lat="42.77306" lon="0.45461">
        <ele>2534</ele>
        <time>2011-10-01T15:24:26.79</time>
      </trkpt>
      <trkpt lat="42.77303" lon="0.45452">
        <ele>2534.5</ele>
        <time>2011-10-01T15:24:27.99</time>
      </trkpt>
      <trkpt lat="42.77298" lon="0.45443">
        <ele>2535.5</ele>
        <time>2011-10-01T15:24:28.79</time>
      </trkpt>
      <trkpt lat="42.77282" lon="0.45429">
        <ele>2536.5</ele>
        <time>2011-10-01T15:24:30.9</time>
      </trkpt>
      <trkpt lat="42.77271" lon="0.45427">
        <ele>2536.5</ele>
        <time>2011-10-01T15:24:31.19</time>
      </trkpt>
      <trkpt lat="42.7726" lon="0.45428">
        <ele>2537</ele>
        <time>2011-10-01T15:24:32.29</time>
      </trkpt>
      <trkpt lat="42.7725" lon="0.45432">
        <ele>2539</ele>
        <time>2011-10-01T15:24:33.9</time>
      </trkpt>
      <trkpt lat="42.77242" lon="0.45441">
        <ele>2538</ele>
        <time>2011-10-01T15:24:34.29</time>
      </trkpt>
      <trkpt lat="42.77234" lon="0.45453">
        <ele>2537</ele>
        <time>2011-10-01T15:24:35.29</time>
      </trkpt>
      <trkpt lat="42.77222" lon="0.45489">
        <ele>2538</ele>
        <time>2011-10-01T15:24:37.9</time>
      </trkpt>
      <trkpt lat="42.7722" lon="0.45508">
        <ele>2540</ele>
        <time>2011-10-01T15:24:38.99</time>
      </trkpt>
      <trkpt lat="42.7722" lon="0.45527">
        <ele>2542.5</ele>
        <time>2011-10-01T15:24:39.19</time>
      </trkpt>
      <trkpt lat="42.77222" lon="0.45546">
        <ele>2545</ele>
        <time>2011-10-01T15:24:40.29</time>
      </trkpt>
      <trkpt lat="42.77226" lon="0.45565">
        <ele>2547</ele>
        <time>2011-10-01T15:24:41.9</time>
      </trkpt>
      <trkpt lat="42.77233" lon="0.45584">
        <ele>2548</ele>
        <time>2011-10-01T15:24:42.99</time>
      </trkpt>
      <trkpt lat="42.77245" lon="0.45599">
        <ele>2549</ele>
        <time>2011-10-01T15:24:43.9</time>
      </trkpt>
      <trkpt lat="42.77293" lon="0.45631">
        <ele>2557</ele>
        <time>2011-10-01T15:24:46.11</time>
      </trkpt>
      <trkpt lat="42.77315" lon="0.45632">
        <ele>2561.5</ele>
        <time>2011-10-01T15:24:48.29</time>
      </trkpt>
      <trkpt lat="42.77328" lon="0.45631">
        <ele>2562.5</ele>
        <time>2011-10-01T15:24:49.19</time>
      </trkpt>
      <trkpt lat="42.77342" lon="0.45629">
        <ele>2563</ele>
        <time>2011-10-01T15:24:50.29</time>
      </trkpt>
      <trkpt lat="42.77365" lon="0.45626">
        <ele>2568</ele>
        <time>2011-10-01T15:24:52.29</time>
      </trkpt>
      <trkpt lat="42.77377" lon="0.45625">
        <ele>2570.5</ele>
        <time>2011-10-01T15:24:53.9</time>
      </trkpt>
      <trkpt lat="42.77391" lon="0.45623">
        <ele>2571.5</ele>
        <time>2011-10-01T15:24:54.29</time>
      </trkpt>
      <trkpt lat="42.77405" lon="0.45621">
        <ele>2572</ele>
        <time>2011-10-01T15:24:55.79</time>
      </trkpt>
      <trkpt lat="42.77425" lon="0.45606">
        <ele>2573</ele>
        <time>2011-10-01T15:24:57.29</time>
      </trkpt>
      <trkpt lat="42.77433" lon="0.45596">
        <ele>2573.5</ele>
        <time>2011-10-01T15:24:58.29</time>
      </trkpt>
      <trkpt lat="42.77437" lon="0.45584">
        <ele>2574</ele>
        <time>2011-10-01T15:24:59.29</time>
      </trkpt>
      <trkpt lat="42.77438" lon="0.45569">
        <ele>2574</ele>
        <time>2011-10-01T15:25:00.39</time>
      </trkpt>
      <trkpt lat="42.77428" lon="0.45541">
        <ele>2575.5</ele>
        <time>2011-10-01T15:25:02.9</time>
      </trkpt>
      <trkpt lat="42.77404" lon="0.45528">
        <ele>2578.5</ele>
        <time>2011-10-01T15:25:04.10</time>
      </trkpt>
      <trkpt lat="42.77391" lon="0.45529">
        <ele>2578.5</ele>
        <time>2011-10-01T15:25:05.29</time>
      </trkpt>
      <trkpt lat="42.77378" lon="0.45534">
        <ele>2579</ele>
        <time>2011-10-01T15:25:06.39</time>
      </trkpt>
      <trkpt lat="42.77366" lon="0.4554">
        <ele>2581</ele>
        <time>2011-10-01T15:25:07.19</time>
      </trkpt>
      <trkpt lat="42.77344" lon="0.45555">
        <ele>2584.5</ele>
        <time>2011-10-01T15:25:09.19</time>
      </trkpt>
      <trkpt lat="42.77335" lon="0.4556">
        <ele>2586.5</ele>
        <time>2011-10-01T15:25:10.19</time>
      </trkpt>
      <trkpt lat="42.77327" lon="0.45563">
        <ele>2585.5</ele>
        <time>2011-10-01T15:25:11.89</time>
      </trkpt>
      <trkpt lat="42.77291" lon="0.45559">
        <ele>2588</ele>
        <time>2011-10-01T15:25:14.69</time>
      </trkpt>
      <trkpt lat="42.77268" lon="0.45554">
        <ele>2593.5</ele>
        <time>2011-10-01T15:25:17.59</time>
      </trkpt>
      <trkpt lat="42.77232" lon="0.45573">
        <ele>2603</ele>
        <time>2011-10-01T15:25:20.29</time>
      </trkpt>
      <trkpt lat="42.77223" lon="0.4561">
        <ele>2603.5</ele>
        <time>2011-10-01T15:25:22.79</time>
      </trkpt>
      <trkpt lat="42.77262" lon="0.45692">
        <ele>2608</ele>
        <time>2011-10-01T15:25:26.19</time>
      </trkpt>
      <trkpt lat="42.77322" lon="0.45699">
        <ele>2614</ele>
        <time>2011-10-01T15:25:31.79</time>
      </trkpt>
      <trkpt lat="42.77332" lon="0.45687">
        <ele>2614</ele>
        <time>2011-10-01T15:25:32.10</time>
      </trkpt>
      <trkpt lat="42.77338" lon="0.45662">
        <ele>2617</ele>
        <time>2011-10-01T15:25:34.10</time>
      </trkpt>
      <trkpt lat="42.77335" lon="0.4565">
        <ele>2618.5</ele>
        <time>2011-10-01T15:25:35.19</time>
      </trkpt>
      <trkpt lat="42.7733" lon="0.45641">
        <ele>2618.5</ele>
        <time>2011-10-01T15:25:36.12</time>
      </trkpt>
      <trkpt lat="42.77323" lon="0.45637">
        <ele>2619</ele>
        <time>2011-10-01T15:25:37.9</time>
      </trkpt>
      <trkpt lat="42.7729" lon="0.45641">
        <ele>2623.5</ele>
        <time>2011-10-01T15:25:40.29</time>
      </trkpt>
      <trkpt lat="42.77279" lon="0.45651">
        <ele>2627</ele>
        <time>2011-10-01T15:25:41.89</time>
      </trkpt>
      <trkpt lat="42.77277" lon="0.45669">
        <ele>2626.5</ele>
        <time>2011-10-01T15:25:42.10</time>
      </trkpt>
      <trkpt lat="42.77277" lon="0.45686">
        <ele>2627.5</ele>
        <time>2011-10-01T15:25:43.19</time>
      </trkpt>
      <trkpt lat="42.77273" lon="0.457">
        <ele>2637.5</ele>
        <time>2011-10-01T15:25:44.39</time>
      </trkpt>
      <trkpt lat="42.77281" lon="0.45717">
        <ele>2639.5</ele>
        <time>2011-10-01T15:25:45.39</time>
      </trkpt>
      <trkpt lat="42.77324" lon="0.45745">
        <ele>2650.5</ele>
        <time>2011-10-01T15:25:48.99</time>
      </trkpt>
      <trkpt lat="42.77387" lon="0.45743">
        <ele>2654</ele>
        <time>2011-10-01T15:25:53.79</time>
      </trkpt>
      <trkpt lat="42.77398" lon="0.45735">
        <ele>2654.5</ele>
        <time>2011-10-01T15:25:54.19</time>
      </trkpt>
      <trkpt lat="42.77407" lon="0.45725">
        <ele>2657</ele>
        <time>2011-10-01T15:25:55.79</time>
      </trkpt>
      <trkpt lat="42.77419" lon="0.45695">
        <ele>2667.5</ele>
        <time>2011-10-01T15:25:58.19</time>
      </trkpt>
      <trkpt lat="42.77421" lon="0.45683">
        <ele>2670.5</ele>
        <time>2011-10-01T15:25:59.19</time>
      </trkpt>
      <trkpt lat="42.77425" lon="0.45671">
        <ele>2670</ele>
        <time>2011-10-01T15:26:00.19</time>
      </trkpt>
      <trkpt lat="42.7743" lon="0.45658">
        <ele>2670.5</ele>
        <time>2011-10-01T15:26:01.99</time>
      </trkpt>
      <trkpt lat="42.77434" lon="0.45644">
        <ele>2670.5</ele>
        <time>2011-10-01T15:26:02.99</time>
      </trkpt>
      <trkpt lat="42.77438" lon="0.4563">
        <ele>2671.5</ele>
        <time>2011-10-01T15:26:03.79</time>
      </trkpt>
      <trkpt lat="42.77442" lon="0.45617">
        <ele>2671</ele>
        <time>2011-10-01T15:26:04.29</time>
      </trkpt>
      <trkpt lat="42.77445" lon="0.45605">
        <ele>2670</ele>
        <time>2011-10-01T15:26:05.69</time>
      </trkpt>
      <trkpt lat="42.77446" lon="0.45592">
        <ele>2669.5</ele>
        <time>2011-10-01T15:26:06.99</time>
      </trkpt>
      <trkpt lat="42.77445" lon="0.45578">
        <ele>2671</ele>
        <time>2011-10-01T15:26:07.19</time>
      </trkpt>
      <trkpt lat="42.77442" lon="0.45566">
        <ele>2675</ele>
        <time>2011-10-01T15:26:08.79</time>
      </trkpt>
      <trkpt lat="42.7744" lon="0.45555">
        <ele>2673.5</ele>
        <time>2011-10-01T15:26:09.79</time>
      </trkpt>
      <trkpt lat="42.77434" lon="0.45546">
        <ele>2675</ele>
        <time>2011-10-01T15:26:10.12</time>
      </trkpt>
      <trkpt lat="42.77425" lon="0.45538">
        <ele>2676</ele>
        <time>2011-10-01T15:26:11.79</time>
      </trkpt>
      <trkpt lat="42.77414" lon="0.45534">
        <ele>2675</ele>
        <time>2011-10-01T15:26:12.99</time>
      </trkpt>
      <trkpt lat="42.77401" lon="0.45533">
        <ele>2676.5</ele>
        <time>2011-10-01T15:26:13.89</time>
      </trkpt>
      <trkpt lat="42.77363" lon="0.45569">
        <ele>2685.5</ele>
        <time>2011-10-01T15:26:16.29</time>
      </trkpt>
      <trkpt lat="42.77356" lon="0.45585">
        <ele>2688.5</ele>
        <time>2011-10-01T15:26:17.19</time>
      </trkpt>
      <trkpt lat="42.77351" lon="0.45603">
        <ele>2691.5</ele>
        <time>2011-10-01T15:26:18.29</time>
      </trkpt>
      <trkpt lat="42.77352" lon="0.45623">
        <ele>2690.5</ele>
        <time>2011-10-01T15:26:19.9</time>
      </trkpt>
      <trkpt lat="42.77353" lon="0.45644">
        <ele>2692</ele>
        <time>2011-10-01T15:26:20.79</time>
      </trkpt>
      <trkpt lat="42.77367" lon="0.45683">
        <ele>2696.5</ele>
        <time>2011-10-01T15:26:22.19</time>
      </trkpt>
      <trkpt lat="42.77373" lon="0.457">
        <ele>2699</ele>
        <time>2011-10-01T15:26:23.79</time>
      </trkpt>
      <trkpt lat="42.77382" lon="0.45715">
        <ele>2702</ele>
        <time>2011-10-01T15:26:24.19</time>
      </trkpt>
      <trkpt lat="42.77392" lon="0.45728">
        <ele>2704.5</ele>
        <time>2011-10-01T15:26:25.79</time>
      </trkpt>
      <trkpt lat="42.77402" lon="0.4574">
        <ele>2707</ele>
        <time>2011-10-01T15:26:26.69</time>
      </trkpt>
      <trkpt lat="42.77411" lon="0.45753">
        <ele>2710</ele>
        <time>2011-10-01T15:26:27.59</time>
      </trkpt>
      <trkpt lat="42.77421" lon="0.45769">
        <ele>2709.5</ele>
        <time>2011-10-01T15:26:28.9</time>
      </trkpt>
      <trkpt lat="42.77429" lon="0.45787">
        <ele>2710.5</ele>
        <time>2011-10-01T15:26:29.49</time>
      </trkpt>
      <trkpt lat="42.77431" lon="0.45806">
        <ele>2714</ele>
        <time>2011-10-01T15:26:30.19</time>
      </trkpt>
      <trkpt lat="42.77419" lon="0.45847">
        <ele>2715.5</ele>
        <time>2011-10-01T15:26:32.99</time>
      </trkpt>
      <trkpt lat="42.77407" lon="0.4588">
        <ele>2714</ele>
        <time>2011-10-01T15:26:34.29</time>
      </trkpt>
      <trkpt lat="42.77394" lon="0.45882">
        <ele>2715.5</ele>
        <time>2011-10-01T15:26:35.59</time>
      </trkpt>
      <trkpt lat="42.77369" lon="0.45882">
        <ele>2726</ele>
        <time>2011-10-01T15:26:37.59</time>
      </trkpt>
      <trkpt lat="42.77363" lon="0.45851">
        <ele>2726</ele>
        <time>2011-10-01T15:26:39.29</time>
      </trkpt>
      <trkpt lat="42.77357" lon="0.45818">
        <ele>2732</ele>
        <time>2011-10-01T15:26:41.29</time>
      </trkpt>
      <trkpt lat="42.77356" lon="0.45804">
        <ele>2731.5</ele>
        <time>2011-10-01T15:26:42.39</time>
      </trkpt>
      <trkpt lat="42.77355" lon="0.45787">
        <ele>2732</ele>
        <time>2011-10-01T15:26:43.49</time>
      </trkpt>
      <trkpt lat="42.77355" lon="0.45773">
        <ele>2734</ele>
        <time>2011-10-01T15:26:44.69</time>
      </trkpt>
      <trkpt lat="42.77352" lon="0.4575">
        <ele>2734</ele>
        <time>2011-10-01T15:26:46.79</time>
      </trkpt>
      <trkpt lat="42.77349" lon="0.4574">
        <ele>2735.5</ele>
        <time>2011-10-01T15:26:47.19</time>
      </trkpt>
      <trkpt lat="42.77345" lon="0.45731">
        <ele>2736</ele>
        <time>2011-10-01T15:26:48.9</time>
      </trkpt>
      <trkpt lat="42.77342" lon="0.45719">
        <ele>2735.5</ele>
        <time>2011-10-01T15:26:49.9</time>
      </trkpt>
      <trkpt lat="42.77342" lon="0.45689">
        <ele>2744.5</ele>
        <time>2011-10-01T15:26:51.19</time>
      </trkpt>
      <trkpt lat="42.77346" lon="0.45678">
        <ele>2743.5</ele>
        <time>2011-10-01T15:26:52.79</time>
      </trkpt>
      <trkpt lat="42.77352" lon="0.45666">
        <ele>2745</ele>
        <time>2011-10-01T15:26:53.19</time>
      </trkpt>
      <trkpt lat="42.77361" lon="0.45659">
        <ele>2745</ele>
        <time>2011-10-01T15:26:54.29</time>
      </trkpt>
      <trkpt lat="42.77399" lon="0.45677">
        <ele>2746</ele>
        <time>2011-10-01T15:26:57.10</time>
      </trkpt>
      <trkpt lat="42.77408" lon="0.45712">
        <ele>2746.5</ele>
        <time>2011-10-01T15:26:59.49</time>
      </trkpt>
      <trkpt lat="42.77405" lon="0.45736">
        <ele>2748.5</ele>
        <time>2011-10-01T15:27:00.79</time>
      </trkpt>
      <trkpt lat="42.77399" lon="0.45756">
        <ele>2750</ele>
        <time>2011-10-01T15:27:01.19</time>
      </trkpt>
      <trkpt lat="42.77391" lon="0.45774">
        <ele>2749.5</ele>
        <time>2011-10-01T15:27:02.39</time>
      </trkpt>
      <trkpt lat="42.7738" lon="0.45788">
        <ele>2750.5</ele>
        <time>2011-10-01T15:27:03.69</time>
      </trkpt>
      <trkpt lat="42.77369" lon="0.45802">
        <ele>2751.5</ele>
        <time>2011-10-01T15:27:04.69</time>
      </trkpt>
      <trkpt lat="42.77355" lon="0.45814">
        <ele>2753</ele>
        <time>2011-10-01T15:27:05.69</time>
      </trkpt>
      <trkpt lat="42.77328" lon="0.45825">
        <ele>2757.5</ele>
        <time>2011-10-01T15:27:07.19</time>
      </trkpt>
      <trkpt lat="42.77314" lon="0.45825">
        <ele>2761.5</ele>
        <time>2011-10-01T15:27:08.9</time>
      </trkpt>
      <trkpt lat="42.77301" lon="0.45824">
        <ele>2765</ele>
        <time>2011-10-01T15:27:09.79</time>
      </trkpt>
      <trkpt lat="42.77288" lon="0.4582">
        <ele>2765.5</ele>
        <time>2011-10-01T15:27:10.49</time>
      </trkpt>
      <trkpt lat="42.77276" lon="0.45813">
        <ele>2767.5</ele>
        <time>2011-10-01T15:27:11.19</time>
      </trkpt>
      <trkpt lat="42.77268" lon="0.45803">
        <ele>2767.5</ele>
        <time>2011-10-01T15:27:12.69</time>
      </trkpt>
      <trkpt lat="42.77261" lon="0.45794">
        <ele>2770.5</ele>
        <time>2011-10-01T15:27:13.59</time>
      </trkpt>
      <trkpt lat="42.77255" lon="0.45785">
        <ele>2772</ele>
        <time>2011-10-01T15:27:14.49</time>
      </trkpt>
      <trkpt lat="42.7725" lon="0.45776">
        <ele>2772.5</ele>
        <time>2011-10-01T15:27:15.19</time>
      </trkpt>
      <trkpt lat="42.77246" lon="0.45768">
        <ele>2772.5</ele>
        <time>2011-10-01T15:27:16.69</time>
      </trkpt>
      <trkpt lat="42.77239" lon="0.4576">
        <ele>2774.5</ele>
        <time>2011-10-01T15:27:17.99</time>
      </trkpt>
      <trkpt lat="42.77231" lon="0.45752">
        <ele>2776.5</ele>
        <time>2011-10-01T15:27:18.69</time>
      </trkpt>
      <trkpt lat="42.77223" lon="0.45745">
        <ele>2778.5</ele>
        <time>2011-10-01T15:27:19.9</time>
      </trkpt>
      <trkpt lat="42.772" lon="0.45734">
        <ele>2782</ele>
        <time>2011-10-01T15:27:21.19</time>
      </trkpt>
      <trkpt lat="42.77188" lon="0.4573">
        <ele>2784.5</ele>
        <time>2011-10-01T15:27:22.29</time>
      </trkpt>
      <trkpt lat="42.77176" lon="0.45725">
        <ele>2787</ele>
        <time>2011-10-01T15:27:23.29</time>
      </trkpt>
      <trkpt lat="42.77166" lon="0.45719">
        <ele>2787.5</ele>
        <time>2011-10-01T15:27:24.79</time>
      </trkpt>
      <trkpt lat="42.77157" lon="0.45711">
        <ele>2788.5</ele>
        <time>2011-10-01T15:27:25.29</time>
      </trkpt>
      <trkpt lat="42.7715" lon="0.45701">
        <ele>2789</ele>
        <time>2011-10-01T15:27:26.19</time>
      </trkpt>
      <trkpt lat="42.77143" lon="0.4569">
        <ele>2790.5</ele>
        <time>2011-10-01T15:27:27.19</time>
      </trkpt>
      <trkpt lat="42.77137" lon="0.45677">
        <ele>2791</ele>
        <time>2011-10-01T15:27:28.69</time>
      </trkpt>
      <trkpt lat="42.77132" lon="0.45663">
        <ele>2792</ele>
        <time>2011-10-01T15:27:29.19</time>
      </trkpt>
      <trkpt lat="42.77128" lon="0.45648">
        <ele>2792.5</ele>
        <time>2011-10-01T15:27:30.69</time>
      </trkpt>
      <trkpt lat="42.77124" lon="0.45634">
        <ele>2792</ele>
        <time>2011-10-01T15:27:31.99</time>
      </trkpt>
      <trkpt lat="42.77121" lon="0.45618">
        <ele>2791</ele>
        <time>2011-10-01T15:27:32.29</time>
      </trkpt>
      <trkpt lat="42.77118" lon="0.45603">
        <ele>2790.5</ele>
        <time>2011-10-01T15:27:33.19</time>
      </trkpt>
      <trkpt lat="42.77117" lon="0.45586">
        <ele>2791</ele>
        <time>2011-10-01T15:27:34.69</time>
      </trkpt>
      <trkpt lat="42.77115" lon="0.4557">
        <ele>2793.5</ele>
        <time>2011-10-01T15:27:35.19</time>
      </trkpt>
      <trkpt lat="42.77122" lon="0.45555">
        <ele>2792.5</ele>
        <time>2011-10-01T15:27:36.9</time>
      </trkpt>
      <trkpt lat="42.77133" lon="0.45545">
        <ele>2793</ele>
        <time>2011-10-01T15:27:37.19</time>
      </trkpt>
      <trkpt lat="42.77146" lon="0.45538">
        <ele>2793</ele>
        <time>2011-10-01T15:27:38.59</time>
      </trkpt>
      <trkpt lat="42.77176" lon="0.45531">
        <ele>2794.5</ele>
        <time>2011-10-01T15:27:41.79</time>
      </trkpt>
      <trkpt lat="42.77188" lon="0.45531">
        <ele>2794.5</ele>
        <time>2011-10-01T15:27:42.99</time>
      </trkpt>
      <trkpt lat="42.77199" lon="0.45531">
        <ele>2795</ele>
        <time>2011-10-01T15:27:43.89</time>
      </trkpt>
      <trkpt lat="42.77211" lon="0.4553">
        <ele>2795</ele>
        <time>2011-10-01T15:27:44.29</time>
      </trkpt>
      <trkpt lat="42.77237" lon="0.45524">
        <ele>2793</ele>
        <time>2011-10-01T15:27:46.29</time>
      </trkpt>
      <trkpt lat="42.77249" lon="0.4552">
        <ele>2793</ele>
        <time>2011-10-01T15:27:47.79</time>
      </trkpt>
      <trkpt lat="42.77261" lon="0.45516">
        <ele>2792.5</ele>
        <time>2011-10-01T15:27:48.9</time>
      </trkpt>
      <trkpt lat="42.77272" lon="0.45516">
        <ele>2792.5</ele>
        <time>2011-10-01T15:27:49.9</time>
      </trkpt>
      <trkpt lat="42.77283" lon="0.45524">
        <ele>2792.5</ele>
        <time>2011-10-01T15:27:50.19</time>
      </trkpt>
      <trkpt lat="42.77294" lon="0.45531">
        <ele>2792</ele>
        <time>2011-10-01T15:27:51.9</time>
      </trkpt>
      <trkpt lat="42.77304" lon="0.45539">
        <ele>2791</ele>
        <time>2011-10-01T15:27:52.69</time>
      </trkpt>
      <trkpt lat="42.77343" lon="0.45609">
        <ele>2791</ele>
        <time>2011-10-01T15:27:56.29</time>
      </trkpt>
      <trkpt lat="42.77351" lon="0.45626">
        <ele>2792</ele>
        <time>2011-10-01T15:27:57.59</time>
      </trkpt>
      <trkpt lat="42.77361" lon="0.45642">
        <ele>2792</ele>
        <time>2011-10-01T15:27:58.29</time>
      </trkpt>
      <trkpt lat="42.77371" lon="0.45658">
        <ele>2793</ele>
        <time>2011-10-01T15:27:59.49</time>
      </trkpt>
      <trkpt lat="42.7739" lon="0.45701">
        <ele>2794.5</ele>
        <time>2011-10-01T15:28:01.29</time>
      </trkpt>
      <trkpt lat="42.77394" lon="0.45724">
        <ele>2796.5</ele>
        <time>2011-10-01T15:28:02.69</time>
      </trkpt>
      <trkpt lat="42.77397" lon="0.45747">
        <ele>2796.5</ele>
        <time>2011-10-01T15:28:03.89</time>
      </trkpt>
      <trkpt lat="42.77376" lon="0.45789">
        <ele>2797</ele>
        <time>2011-10-01T15:28:06.29</time>
      </trkpt>
      <trkpt lat="42.77364" lon="0.45793">
        <ele>2796</ele>
        <time>2011-10-01T15:28:07.69</time>
      </trkpt>
      <trkpt lat="42.77352" lon="0.45791">
        <ele>2796</ele>
        <time>2011-10-01T15:28:08.59</time>
      </trkpt>
      <trkpt lat="42.77343" lon="0.45784">
        <ele>2796</ele>
        <time>2011-10-01T15:28:09.39</time>
      </trkpt>
      <trkpt lat="42.77335" lon="0.45775">
        <ele>2796.5</ele>
        <time>2011-10-01T15:28:10.99</time>
      </trkpt>
      <trkpt lat="42.77331" lon="0.45764">
        <ele>2797</ele>
        <time>2011-10-01T15:28:11.19</time>
      </trkpt>
      <trkpt lat="42.77329" lon="0.45753">
        <ele>2798.5</ele>
        <time>2011-10-01T15:28:12.99</time>
      </trkpt>
      <trkpt lat="42.7733" lon="0.45741">
        <ele>2797</ele>
        <time>2011-10-01T15:28:13.19</time>
      </trkpt>
      <trkpt lat="42.77332" lon="0.4573">
        <ele>2798.5</ele>
        <time>2011-10-01T15:28:14.59</time>
      </trkpt>
      <trkpt lat="42.77336" lon="0.45718">
        <ele>2797.5</ele>
        <time>2011-10-01T15:28:15.19</time>
      </trkpt>
      <trkpt lat="42.77343" lon="0.45707">
        <ele>2800</ele>
        <time>2011-10-01T15:28:16.29</time>
      </trkpt>
      <trkpt lat="42.77351" lon="0.45698">
        <ele>2801</ele>
        <time>2011-10-01T15:28:17.49</time>
      </trkpt>
      <trkpt lat="42.77363" lon="0.45694">
        <ele>2801.5</ele>
        <time>2011-10-01T15:28:18.19</time>
      </trkpt>
      <trkpt lat="42.77375" lon="0.45692">
        <ele>2802.5</ele>
        <time>2011-10-01T15:28:19</time>
      </trkpt>
      <trkpt lat="42.77394" lon="0.45698">
        <ele>2812</ele>
        <time>2011-10-01T15:28:21.89</time>
      </trkpt>
      <trkpt lat="42.77406" lon="0.45709">
        <ele>2812</ele>
        <time>2011-10-01T15:28:22.10</time>
      </trkpt>
      <trkpt lat="42.77413" lon="0.45726">
        <ele>2815</ele>
        <time>2011-10-01T15:28:23.89</time>
      </trkpt>
      <trkpt lat="42.77419" lon="0.45748">
        <ele>2815</ele>
        <time>2011-10-01T15:28:24.10</time>
      </trkpt>
      <trkpt lat="42.77417" lon="0.45771">
        <ele>2816</ele>
        <time>2011-10-01T15:28:25.89</time>
      </trkpt>
      <trkpt lat="42.77417" lon="0.45794">
        <ele>2816</ele>
        <time>2011-10-01T15:28:26.10</time>
      </trkpt>
      <trkpt lat="42.77385" lon="0.45842">
        <ele>2815</ele>
        <time>2011-10-01T15:28:30.29</time>
      </trkpt>
      <trkpt lat="42.7737" lon="0.45842">
        <ele>2821</ele>
        <time>2011-10-01T15:28:31.19</time>
      </trkpt>
      <trkpt lat="42.77357" lon="0.45837">
        <ele>2827</ele>
        <time>2011-10-01T15:28:32.69</time>
      </trkpt>
      <trkpt lat="42.77347" lon="0.4583">
        <ele>2828.5</ele>
        <time>2011-10-01T15:28:33.19</time>
      </trkpt>
      <trkpt lat="42.7734" lon="0.4582">
        <ele>2830.5</ele>
        <time>2011-10-01T15:28:34.59</time>
      </trkpt>
      <trkpt lat="42.77335" lon="0.45807">
        <ele>2833</ele>
        <time>2011-10-01T15:28:35.19</time>
      </trkpt>
      <trkpt lat="42.77344" lon="0.45763">
        <ele>2843</ele>
        <time>2011-10-01T15:28:39.13</time>
      </trkpt>
      <trkpt lat="42.7735" lon="0.45754">
        <ele>2844</ele>
        <time>2011-10-01T15:28:40.12</time>
      </trkpt>
      <trkpt lat="42.77355" lon="0.45744">
        <ele>2846</ele>
        <time>2011-10-01T15:28:41.22</time>
      </trkpt>
      <trkpt lat="42.7736" lon="0.45733">
        <ele>2848.5</ele>
        <time>2011-10-01T15:28:42.13</time>
      </trkpt>
      <trkpt lat="42.77364" lon="0.45721">
        <ele>2849.5</ele>
        <time>2011-10-01T15:28:43.14</time>
      </trkpt>
      <trkpt lat="42.77366" lon="0.45709">
        <ele>2852</ele>
        <time>2011-10-01T15:28:44.13</time>
      </trkpt>
      <trkpt lat="42.77366" lon="0.45696">
        <ele>2852.5</ele>
        <time>2011-10-01T15:28:45.18</time>
      </trkpt>
      <trkpt lat="42.77362" lon="0.45685">
        <ele>2853</ele>
        <time>2011-10-01T15:28:46.13</time>
      </trkpt>
      <trkpt lat="42.77357" lon="0.45674">
        <ele>2852.5</ele>
        <time>2011-10-01T15:28:47.22</time>
      </trkpt>
      <trkpt lat="42.77339" lon="0.45659">
        <ele>2853</ele>
        <time>2011-10-01T15:28:49.12</time>
      </trkpt>
      <trkpt lat="42.77298" lon="0.45657">
        <ele>2865</ele>
        <time>2011-10-01T15:28:52.13</time>
      </trkpt>
      <trkpt lat="42.77289" lon="0.4567">
        <ele>2865.5</ele>
        <time>2011-10-01T15:28:53.14</time>
      </trkpt>
      <trkpt lat="42.77282" lon="0.45687">
        <ele>2866</ele>
        <time>2011-10-01T15:28:54.13</time>
      </trkpt>
      <trkpt lat="42.77285" lon="0.45706">
        <ele>2866</ele>
        <time>2011-10-01T15:28:55.15</time>
      </trkpt>
      <trkpt lat="42.77288" lon="0.45725">
        <ele>2868.5</ele>
        <time>2011-10-01T15:28:56.13</time>
      </trkpt>
      <trkpt lat="42.77297" lon="0.45739">
        <ele>2869.5</ele>
        <time>2011-10-01T15:28:57.15</time>
      </trkpt>
      <trkpt lat="42.77325" lon="0.45738">
        <ele>2869.5</ele>
        <time>2011-10-01T15:29:00.13</time>
      </trkpt>
      <trkpt lat="42.77333" lon="0.45727">
        <ele>2870</ele>
        <time>2011-10-01T15:29:01.20</time>
      </trkpt>
      <trkpt lat="42.77342" lon="0.45717">
        <ele>2870</ele>
        <time>2011-10-01T15:29:02.15</time>
      </trkpt>
      <trkpt lat="42.7735" lon="0.45706">
        <ele>2869</ele>
        <time>2011-10-01T15:29:03.15</time>
      </trkpt>
      <trkpt lat="42.77357" lon="0.45696">
        <ele>2869</ele>
        <time>2011-10-01T15:29:04.13</time>
      </trkpt>
      <trkpt lat="42.77365" lon="0.45687">
        <ele>2870.5</ele>
        <time>2011-10-01T15:29:05.15</time>
      </trkpt>
      <trkpt lat="42.77373" lon="0.45678">
        <ele>2872</ele>
        <time>2011-10-01T15:29:06.13</time>
      </trkpt>
      <trkpt lat="42.77397" lon="0.45669">
        <ele>2871.5</ele>
        <time>2011-10-01T15:29:08.13</time>
      </trkpt>
      <trkpt lat="42.77411" lon="0.45671">
        <ele>2872.5</ele>
        <time>2011-10-01T15:29:09.14</time>
      </trkpt>
      <trkpt lat="42.77426" lon="0.45673">
        <ele>2874</ele>
        <time>2011-10-01T15:29:10.19</time>
      </trkpt>
      <trkpt lat="42.77439" lon="0.45681">
        <ele>2875.5</ele>
        <time>2011-10-01T15:29:11.16</time>
      </trkpt>
      <trkpt lat="42.77443" lon="0.45701">
        <ele>2883</ele>
        <time>2011-10-01T15:29:12.13</time>
      </trkpt>
      <trkpt lat="42.77447" lon="0.45723">
        <ele>2886</ele>
        <time>2011-10-01T15:29:13.23</time>
      </trkpt>
      <trkpt lat="42.77437" lon="0.45772">
        <ele>2888.5</ele>
        <time>2011-10-01T15:29:15.14</time>
      </trkpt>
      <trkpt lat="42.77411" lon="0.45822">
        <ele>2892.5</ele>
        <time>2011-10-01T15:29:18.13</time>
      </trkpt>
      <trkpt lat="42.77401" lon="0.45831">
        <ele>2893.5</ele>
        <time>2011-10-01T15:29:19.17</time>
      </trkpt>
      <trkpt lat="42.77389" lon="0.45835">
        <ele>2895</ele>
        <time>2011-10-01T15:29:20.17</time>
      </trkpt>
      <trkpt lat="42.77377" lon="0.45835">
        <ele>2896</ele>
        <time>2011-10-01T15:29:21.15</time>
      </trkpt>
      <trkpt lat="42.77365" lon="0.45833">
        <ele>2899</ele>
        <time>2011-10-01T15:29:22.13</time>
      </trkpt>
      <trkpt lat="42.77355" lon="0.45828">
        <ele>2900</ele>
        <time>2011-10-01T15:29:23.14</time>
      </trkpt>
      <trkpt lat="42.77346" lon="0.45821">
        <ele>2902.5</ele>
        <time>2011-10-01T15:29:24.13</time>
      </trkpt>
      <trkpt lat="42.7734" lon="0.45813">
        <ele>2903</ele>
        <time>2011-10-01T15:29:25.22</time>
      </trkpt>
      <trkpt lat="42.77333" lon="0.45805">
        <ele>2904.5</ele>
        <time>2011-10-01T15:29:26.13</time>
      </trkpt>
      <trkpt lat="42.77328" lon="0.45797">
        <ele>2904.5</ele>
        <time>2011-10-01T15:29:27.12</time>
      </trkpt>
      <trkpt lat="42.77322" lon="0.45788">
        <ele>2904.5</ele>
        <time>2011-10-01T15:29:28.13</time>
      </trkpt>
      <trkpt lat="42.77317" lon="0.45776">
        <ele>2905</ele>
        <time>2011-10-01T15:29:29.14</time>
      </trkpt>
      <trkpt lat="42.77317" lon="0.45762">
        <ele>2903</ele>
        <time>2011-10-01T15:29:30.13</time>
      </trkpt>
      <trkpt lat="42.77328" lon="0.45734">
        <ele>2902.5</ele>
        <time>2011-10-01T15:29:32.19</time>
      </trkpt>
      <trkpt lat="42.7734" lon="0.45726">
        <ele>2901</ele>
        <time>2011-10-01T15:29:33.12</time>
      </trkpt>
      <trkpt lat="42.77355" lon="0.45723">
        <ele>2900.5</ele>
        <time>2011-10-01T15:29:34.16</time>
      </trkpt>
      <trkpt lat="42.77368" lon="0.45723">
        <ele>2902.5</ele>
        <time>2011-10-01T15:29:35.22</time>
      </trkpt>
      <trkpt lat="42.77382" lon="0.45725">
        <ele>2902.5</ele>
        <time>2011-10-01T15:29:36.21</time>
      </trkpt>
      <trkpt lat="42.77395" lon="0.45729">
        <ele>2903</ele>
        <time>2011-10-01T15:29:37.14</time>
      </trkpt>
      <trkpt lat="42.77406" lon="0.45734">
        <ele>2905</ele>
        <time>2011-10-01T15:29:38.14</time>
      </trkpt>
      <trkpt lat="42.77418" lon="0.45739">
        <ele>2906</ele>
        <time>2011-10-01T15:29:39.14</time>
      </trkpt>
      <trkpt lat="42.7743" lon="0.45745">
        <ele>2907</ele>
        <time>2011-10-01T15:29:40.12</time>
      </trkpt>
      <trkpt lat="42.77445" lon="0.45752">
        <ele>2908</ele>
        <time>2011-10-01T15:29:41.15</time>
      </trkpt>
      <trkpt lat="42.77459" lon="0.4576">
        <ele>2908.5</ele>
        <time>2011-10-01T15:29:42.17</time>
      </trkpt>
      <trkpt lat="42.77483" lon="0.45778">
        <ele>2910.5</ele>
        <time>2011-10-01T15:29:44.14</time>
      </trkpt>
      <trkpt lat="42.77493" lon="0.45787">
        <ele>2912</ele>
        <time>2011-10-01T15:29:45.15</time>
      </trkpt>
      <trkpt lat="42.77519" lon="0.45801">
        <ele>2911.5</ele>
        <time>2011-10-01T15:29:47.15</time>
      </trkpt>
      <trkpt lat="42.7755" lon="0.45815">
        <ele>2914</ele>
        <time>2011-10-01T15:29:49.12</time>
      </trkpt>
      <trkpt lat="42.77563" lon="0.45827">
        <ele>2914.5</ele>
        <time>2011-10-01T15:29:50.18</time>
      </trkpt>
      <trkpt lat="42.77577" lon="0.45842">
        <ele>2915.5</ele>
        <time>2011-10-01T15:29:51.15</time>
      </trkpt>
      <trkpt lat="42.77564" lon="0.45902">
        <ele>2918.5</ele>
        <time>2011-10-01T15:29:56.13</time>
      </trkpt>
      <trkpt lat="42.77538" lon="0.45911">
        <ele>2923.5</ele>
        <time>2011-10-01T15:29:58.15</time>
      </trkpt>
      <trkpt lat="42.77519" lon="0.45909">
        <ele>2927</ele>
        <time>2011-10-01T15:30:00.13</time>
      </trkpt>
      <trkpt lat="42.77502" lon="0.45898">
        <ele>2934.5</ele>
        <time>2011-10-01T15:30:02.13</time>
      </trkpt>
      <trkpt lat="42.77493" lon="0.45891">
        <ele>2937.5</ele>
        <time>2011-10-01T15:30:03.14</time>
      </trkpt>
      <trkpt lat="42.77484" lon="0.45885">
        <ele>2939.5</ele>
        <time>2011-10-01T15:30:04.14</time>
      </trkpt>
      <trkpt lat="42.7745" lon="0.45861">
        <ele>2948</ele>
        <time>2011-10-01T15:30:07.15</time>
      </trkpt>
      <trkpt lat="42.77444" lon="0.45849">
        <ele>2950</ele>
        <time>2011-10-01T15:30:08.13</time>
      </trkpt>
      <trkpt lat="42.77439" lon="0.45839">
        <ele>2954</ele>
        <time>2011-10-01T15:30:09.15</time>
      </trkpt>
      <trkpt lat="42.77437" lon="0.45827">
        <ele>2953</ele>
        <time>2011-10-01T15:30:10.13</time>
      </trkpt>
      <trkpt lat="42.77437" lon="0.45814">
        <ele>2953</ele>
        <time>2011-10-01T15:30:11.15</time>
      </trkpt>
      <trkpt lat="42.7744" lon="0.45801">
        <ele>2954.5</ele>
        <time>2011-10-01T15:30:12.13</time>
      </trkpt>
      <trkpt lat="42.77443" lon="0.45788">
        <ele>2957</ele>
        <time>2011-10-01T15:30:13.15</time>
      </trkpt>
      <trkpt lat="42.77448" lon="0.45775">
        <ele>2958.5</ele>
        <time>2011-10-01T15:30:14.13</time>
      </trkpt>
      <trkpt lat="42.77455" lon="0.45763">
        <ele>2962.5</ele>
        <time>2011-10-01T15:30:15.14</time>
      </trkpt>
      <trkpt lat="42.77465" lon="0.45754">
        <ele>2965</ele>
        <time>2011-10-01T15:30:16.13</time>
      </trkpt>
      <trkpt lat="42.77475" lon="0.45747">
        <ele>2965</ele>
        <time>2011-10-01T15:30:17.15</time>
      </trkpt>
      <trkpt lat="42.77484" lon="0.45739">
        <ele>2965</ele>
        <time>2011-10-01T15:30:18.15</time>
      </trkpt>
      <trkpt lat="42.77492" lon="0.45731">
        <ele>2966.5</ele>
        <time>2011-10-01T15:30:19.13</time>
      </trkpt>
      <trkpt lat="42.77514" lon="0.45716">
        <ele>2970</ele>
        <time>2011-10-01T15:30:21.18</time>
      </trkpt>
      <trkpt lat="42.77541" lon="0.45705">
        <ele>2972</ele>
        <time>2011-10-01T15:30:23.18</time>
      </trkpt>
      <trkpt lat="42.77572" lon="0.45694">
        <ele>2979</ele>
        <time>2011-10-01T15:30:26.14</time>
      </trkpt>
      <trkpt lat="42.77582" lon="0.4569">
        <ele>2981</ele>
        <time>2011-10-01T15:30:27.14</time>
      </trkpt>
      <trkpt lat="42.77609" lon="0.45681">
        <ele>2983.5</ele>
        <time>2011-10-01T15:30:29.15</time>
      </trkpt>
      <trkpt lat="42.77622" lon="0.45678">
        <ele>2984.5</ele>
        <time>2011-10-01T15:30:30.14</time>
      </trkpt>
      <trkpt lat="42.77634" lon="0.45676">
        <ele>2986</ele>
        <time>2011-10-01T15:30:31.16</time>
      </trkpt>
      <trkpt lat="42.77646" lon="0.45675">
        <ele>2987.5</ele>
        <time>2011-10-01T15:30:32.13</time>
      </trkpt>
      <trkpt lat="42.77658" lon="0.45676">
        <ele>2992</ele>
        <time>2011-10-01T15:30:33.15</time>
      </trkpt>
      <trkpt lat="42.77686" lon="0.45689">
        <ele>2996.5</ele>
        <time>2011-10-01T15:30:35.15</time>
      </trkpt>
      <trkpt lat="42.7771" lon="0.45705">
        <ele>3006</ele>
        <time>2011-10-01T15:30:37.23</time>
      </trkpt>
      <trkpt lat="42.77734" lon="0.45721">
        <ele>3016</ele>
        <time>2011-10-01T15:30:39.14</time>
      </trkpt>
      <trkpt lat="42.77747" lon="0.45729">
        <ele>3018.5</ele>
        <time>2011-10-01T15:30:40.13</time>
      </trkpt>
      <trkpt lat="42.77761" lon="0.45736">
        <ele>3020.5</ele>
        <time>2011-10-01T15:30:41.14</time>
      </trkpt>
      <trkpt lat="42.77777" lon="0.45742">
        <ele>3021</ele>
        <time>2011-10-01T15:30:42.14</time>
      </trkpt>
      <trkpt lat="42.77791" lon="0.45748">
        <ele>3021.5</ele>
        <time>2011-10-01T15:30:43.14</time>
      </trkpt>
      <trkpt lat="42.77806" lon="0.45751">
        <ele>3022.5</ele>
        <time>2011-10-01T15:30:44.13</time>
      </trkpt>
      <trkpt lat="42.7782" lon="0.45754">
        <ele>3026</ele>
        <time>2011-10-01T15:30:45.12</time>
      </trkpt>
      <trkpt lat="42.77834" lon="0.45759">
        <ele>3028</ele>
        <time>2011-10-01T15:30:46.13</time>
      </trkpt>
      <trkpt lat="42.77849" lon="0.45767">
        <ele>3029</ele>
        <time>2011-10-01T15:30:47.12</time>
      </trkpt>
      <trkpt lat="42.77866" lon="0.45774">
        <ele>3030.5</ele>
        <time>2011-10-01T15:30:48.14</time>
      </trkpt>
      <trkpt lat="42.77886" lon="0.45808">
        <ele>3033</ele>
        <time>2011-10-01T15:30:50.14</time>
      </trkpt>
      <trkpt lat="42.77892" lon="0.45829">
        <ele>3033</ele>
        <time>2011-10-01T15:30:51.14</time>
      </trkpt>
      <trkpt lat="42.77884" lon="0.4585">
        <ele>3034.5</ele>
        <time>2011-10-01T15:30:52.14</time>
      </trkpt>
      <trkpt lat="42.77874" lon="0.45869">
        <ele>3036.5</ele>
        <time>2011-10-01T15:30:53.14</time>
      </trkpt>
      <trkpt lat="42.77831" lon="0.45902">
        <ele>3044.5</ele>
        <time>2011-10-01T15:30:57.14</time>
      </trkpt>
      <trkpt lat="42.77821" lon="0.45899">
        <ele>3044</ele>
        <time>2011-10-01T15:30:58.12</time>
      </trkpt>
      <trkpt lat="42.77799" lon="0.45887">
        <ele>3051.5</ele>
        <time>2011-10-01T15:31:00.12</time>
      </trkpt>
      <trkpt lat="42.7779" lon="0.45881">
        <ele>3053.5</ele>
        <time>2011-10-01T15:31:01.14</time>
      </trkpt>
      <trkpt lat="42.77781" lon="0.45876">
        <ele>3056</ele>
        <time>2011-10-01T15:31:02.14</time>
      </trkpt>
      <trkpt lat="42.77757" lon="0.45867">
        <ele>3069.5</ele>
        <time>2011-10-01T15:31:04.12</time>
      </trkpt>
      <trkpt lat="42.77747" lon="0.45863">
        <ele>3071.5</ele>
        <time>2011-10-01T15:31:05.15</time>
      </trkpt>
      <trkpt lat="42.77704" lon="0.45862">
        <ele>3081.5</ele>
        <time>2011-10-01T15:31:08.13</time>
      </trkpt>
      <trkpt lat="42.77681" lon="0.45859">
        <ele>3083.5</ele>
        <time>2011-10-01T15:31:10.14</time>
      </trkpt>
      <trkpt lat="42.77672" lon="0.45856">
        <ele>3084</ele>
        <time>2011-10-01T15:31:11.15</time>
      </trkpt>
      <trkpt lat="42.77661" lon="0.45851">
        <ele>3084.5</ele>
        <time>2011-10-01T15:31:12.14</time>
      </trkpt>
      <trkpt lat="42.77636" lon="0.45836">
        <ele>3092</ele>
        <time>2011-10-01T15:31:14.12</time>
      </trkpt>
      <trkpt lat="42.77628" lon="0.45826">
        <ele>3091</ele>
        <time>2011-10-01T15:31:15.14</time>
      </trkpt>
      <trkpt lat="42.77617" lon="0.45814">
        <ele>3094.5</ele>
        <time>2011-10-01T15:31:16.12</time>
      </trkpt>
      <trkpt lat="42.77609" lon="0.45802">
        <ele>3098</ele>
        <time>2011-10-01T15:31:17.14</time>
      </trkpt>
      <trkpt lat="42.77602" lon="0.4579">
        <ele>3101</ele>
        <time>2011-10-01T15:31:18.12</time>
      </trkpt>
      <trkpt lat="42.77597" lon="0.45776">
        <ele>3103</ele>
        <time>2011-10-01T15:31:19.12</time>
      </trkpt>
      <trkpt lat="42.77594" lon="0.4576">
        <ele>3104</ele>
        <time>2011-10-01T15:31:20.13</time>
      </trkpt>
      <trkpt lat="42.77589" lon="0.45722">
        <ele>3106</ele>
        <time>2011-10-01T15:31:22.13</time>
      </trkpt>
      <trkpt lat="42.77588" lon="0.45705">
        <ele>3106</ele>
        <time>2011-10-01T15:31:23.12</time>
      </trkpt>
      <trkpt lat="42.77587" lon="0.45689">
        <ele>3106.5</ele>
        <time>2011-10-01T15:31:24.13</time>
      </trkpt>
      <trkpt lat="42.77586" lon="0.45674">
        <ele>3107</ele>
        <time>2011-10-01T15:31:25.13</time>
      </trkpt>
      <trkpt lat="42.77584" lon="0.4566">
        <ele>3108.5</ele>
        <time>2011-10-01T15:31:26.13</time>
      </trkpt>
      <trkpt lat="42.77583" lon="0.45645">
        <ele>3108.5</ele>
        <time>2011-10-01T15:31:27.17</time>
      </trkpt>
      <trkpt lat="42.77583" lon="0.45629">
        <ele>3107.5</ele>
        <time>2011-10-01T15:31:28.13</time>
      </trkpt>
      <trkpt lat="42.77585" lon="0.45612">
        <ele>3110.5</ele>
        <time>2011-10-01T15:31:29.12</time>
      </trkpt>
      <trkpt lat="42.77588" lon="0.45595">
        <ele>3115.5</ele>
        <time>2011-10-01T15:31:30.13</time>
      </trkpt>
      <trkpt lat="42.77595" lon="0.4558">
        <ele>3118.5</ele>
        <time>2011-10-01T15:31:31.12</time>
      </trkpt>
      <trkpt lat="42.77604" lon="0.45567">
        <ele>3120</ele>
        <time>2011-10-01T15:31:32.13</time>
      </trkpt>
      <trkpt lat="42.77615" lon="0.45556">
        <ele>3121.5</ele>
        <time>2011-10-01T15:31:33.17</time>
      </trkpt>
      <trkpt lat="42.77627" lon="0.45549">
        <ele>3120</ele>
        <time>2011-10-01T15:31:34.21</time>
      </trkpt>
      <trkpt lat="42.7764" lon="0.45544">
        <ele>3120.5</ele>
        <time>2011-10-01T15:31:35.15</time>
      </trkpt>
      <trkpt lat="42.77653" lon="0.45544">
        <ele>3120.5</ele>
        <time>2011-10-01T15:31:36.13</time>
      </trkpt>
      <trkpt lat="42.77665" lon="0.45548">
        <ele>3125</ele>
        <time>2011-10-01T15:31:37.23</time>
      </trkpt>
      <trkpt lat="42.77677" lon="0.45557">
        <ele>3128</ele>
        <time>2011-10-01T15:31:38.14</time>
      </trkpt>
      <trkpt lat="42.77682" lon="0.45591">
        <ele>3132</ele>
        <time>2011-10-01T15:31:40.13</time>
      </trkpt>
      <trkpt lat="42.77681" lon="0.45624">
        <ele>3131.5</ele>
        <time>2011-10-01T15:31:42.18</time>
      </trkpt>
      <trkpt lat="42.77673" lon="0.45637">
        <ele>3131</ele>
        <time>2011-10-01T15:31:43.21</time>
      </trkpt>
      <trkpt lat="42.77652" lon="0.45655">
        <ele>3134.5</ele>
        <time>2011-10-01T15:31:45.22</time>
      </trkpt>
      <trkpt lat="42.77643" lon="0.45663">
        <ele>3135</ele>
        <time>2011-10-01T15:31:46.19</time>
      </trkpt>
      <trkpt lat="42.77633" lon="0.4567">
        <ele>3137</ele>
        <time>2011-10-01T15:31:47.22</time>
      </trkpt>
      <trkpt lat="42.77624" lon="0.45678">
        <ele>3137</ele>
        <time>2011-10-01T15:31:48.13</time>
      </trkpt>
      <trkpt lat="42.77614" lon="0.45688">
        <ele>3136.5</ele>
        <time>2011-10-01T15:31:49.13</time>
      </trkpt>
      <trkpt lat="42.77604" lon="0.45699">
        <ele>3137.5</ele>
        <time>2011-10-01T15:31:50.13</time>
      </trkpt>
      <trkpt lat="42.77595" lon="0.4571">
        <ele>3138</ele>
        <time>2011-10-01T15:31:51.16</time>
      </trkpt>
      <trkpt lat="42.77587" lon="0.45719">
        <ele>3139.5</ele>
        <time>2011-10-01T15:31:52.13</time>
      </trkpt>
      <trkpt lat="42.77577" lon="0.45725">
        <ele>3141</ele>
        <time>2011-10-01T15:31:53.14</time>
      </trkpt>
      <trkpt lat="42.77566" lon="0.4573">
        <ele>3141</ele>
        <time>2011-10-01T15:31:54.14</time>
      </trkpt>
      <trkpt lat="42.77553" lon="0.45733">
        <ele>3140.5</ele>
        <time>2011-10-01T15:31:55.22</time>
      </trkpt>
      <trkpt lat="42.77539" lon="0.45736">
        <ele>3142</ele>
        <time>2011-10-01T15:31:56.19</time>
      </trkpt>
      <trkpt lat="42.77527" lon="0.45736">
        <ele>3143</ele>
        <time>2011-10-01T15:31:57.22</time>
      </trkpt>
      <trkpt lat="42.77515" lon="0.45736">
        <ele>3144.5</ele>
        <time>2011-10-01T15:31:58.19</time>
      </trkpt>
      <trkpt lat="42.77504" lon="0.45736">
        <ele>3145.5</ele>
        <time>2011-10-01T15:31:59.21</time>
      </trkpt>
      <trkpt lat="42.77493" lon="0.45735">
        <ele>3146.5</ele>
        <time>2011-10-01T15:32:00.13</time>
      </trkpt>
      <trkpt lat="42.77481" lon="0.45734">
        <ele>3147.5</ele>
        <time>2011-10-01T15:32:01.22</time>
      </trkpt>
      <trkpt lat="42.7747" lon="0.45733">
        <ele>3148</ele>
        <time>2011-10-01T15:32:02.18</time>
      </trkpt>
      <trkpt lat="42.77459" lon="0.45733">
        <ele>3149</ele>
        <time>2011-10-01T15:32:03.18</time>
      </trkpt>
      <trkpt lat="42.77449" lon="0.45734">
        <ele>3148</ele>
        <time>2011-10-01T15:32:04.19</time>
      </trkpt>
      <trkpt lat="42.77438" lon="0.45734">
        <ele>3147</ele>
        <time>2011-10-01T15:32:05.16</time>
      </trkpt>
      <trkpt lat="42.77427" lon="0.45734">
        <ele>3146.5</ele>
        <time>2011-10-01T15:32:06.19</time>
      </trkpt>
      <trkpt lat="42.77415" lon="0.45729">
        <ele>3148</ele>
        <time>2011-10-01T15:32:07.23</time>
      </trkpt>
      <trkpt lat="42.77406" lon="0.4572">
        <ele>3147.5</ele>
        <time>2011-10-01T15:32:08.19</time>
      </trkpt>
      <trkpt lat="42.77399" lon="0.45709">
        <ele>3148</ele>
        <time>2011-10-01T15:32:09.19</time>
      </trkpt>
      <trkpt lat="42.77395" lon="0.45693">
        <ele>3148</ele>
        <time>2011-10-01T15:32:10.19</time>
      </trkpt>
      <trkpt lat="42.77394" lon="0.45678">
        <ele>3148.5</ele>
        <time>2011-10-01T15:32:11.14</time>
      </trkpt>
      <trkpt lat="42.774" lon="0.45666">
        <ele>3149</ele>
        <time>2011-10-01T15:32:12.14</time>
      </trkpt>
      <trkpt lat="42.77442" lon="0.45673">
        <ele>3150.5</ele>
        <time>2011-10-01T15:32:15.16</time>
      </trkpt>
      <trkpt lat="42.77459" lon="0.45711">
        <ele>3149.5</ele>
        <time>2011-10-01T15:32:17.19</time>
      </trkpt>
      <trkpt lat="42.77461" lon="0.45729">
        <ele>3151</ele>
        <time>2011-10-01T15:32:18.14</time>
      </trkpt>
      <trkpt lat="42.77465" lon="0.45747">
        <ele>3152</ele>
        <time>2011-10-01T15:32:19.15</time>
      </trkpt>
      <trkpt lat="42.77466" lon="0.45765">
        <ele>3153</ele>
        <time>2011-10-01T15:32:20.13</time>
      </trkpt>
      <trkpt lat="42.77467" lon="0.45783">
        <ele>3153.5</ele>
        <time>2011-10-01T15:32:21.15</time>
      </trkpt>
      <trkpt lat="42.77469" lon="0.45802">
        <ele>3154.5</ele>
        <time>2011-10-01T15:32:22.14</time>
      </trkpt>
      <trkpt lat="42.77472" lon="0.4582">
        <ele>3154.5</ele>
        <time>2011-10-01T15:32:23.12</time>
      </trkpt>
      <trkpt lat="42.77476" lon="0.45839">
        <ele>3154.5</ele>
        <time>2011-10-01T15:32:24.13</time>
      </trkpt>
      <trkpt lat="42.77482" lon="0.45858">
        <ele>3154</ele>
        <time>2011-10-01T15:32:25.15</time>
      </trkpt>
      <trkpt lat="42.77489" lon="0.45877">
        <ele>3153.5</ele>
        <time>2011-10-01T15:32:26.13</time>
      </trkpt>
      <trkpt lat="42.77496" lon="0.45895">
        <ele>3155.5</ele>
        <time>2011-10-01T15:32:27.22</time>
      </trkpt>
      <trkpt lat="42.77504" lon="0.45911">
        <ele>3157</ele>
        <time>2011-10-01T15:32:28.22</time>
      </trkpt>
      <trkpt lat="42.77528" lon="0.45942">
        <ele>3155.5</ele>
        <time>2011-10-01T15:32:30.18</time>
      </trkpt>
      <trkpt lat="42.77555" lon="0.45955">
        <ele>3155</ele>
        <time>2011-10-01T15:32:32.17</time>
      </trkpt>
      <trkpt lat="42.77582" lon="0.45928">
        <ele>3154</ele>
        <time>2011-10-01T15:32:35.19</time>
      </trkpt>
      <trkpt lat="42.77578" lon="0.45896">
        <ele>3155</ele>
        <time>2011-10-01T15:32:37.22</time>
      </trkpt>
      <trkpt lat="42.77563" lon="0.45878">
        <ele>3157</ele>
        <time>2011-10-01T15:32:39.19</time>
      </trkpt>
      <trkpt lat="42.77552" lon="0.45876">
        <ele>3158</ele>
        <time>2011-10-01T15:32:40.19</time>
      </trkpt>
      <trkpt lat="42.77527" lon="0.45884">
        <ele>3159</ele>
        <time>2011-10-01T15:32:42.14</time>
      </trkpt>
      <trkpt lat="42.77514" lon="0.45893">
        <ele>3161</ele>
        <time>2011-10-01T15:32:43.19</time>
      </trkpt>
      <trkpt lat="42.77496" lon="0.45909">
        <ele>3162</ele>
        <time>2011-10-01T15:32:45.18</time>
      </trkpt>
      <trkpt lat="42.77501" lon="0.45926">
        <ele>3163</ele>
        <time>2011-10-01T15:32:46.19</time>
      </trkpt>
      <trkpt lat="42.77504" lon="0.45943">
        <ele>3163</ele>
        <time>2011-10-01T15:32:47.19</time>
      </trkpt>
      <trkpt lat="42.77507" lon="0.45961">
        <ele>3163</ele>
        <time>2011-10-01T15:32:48.17</time>
      </trkpt>
      <trkpt lat="42.77517" lon="0.46002">
        <ele>3166.5</ele>
        <time>2011-10-01T15:32:50.14</time>
      </trkpt>
      <trkpt lat="42.77559" lon="0.46044">
        <ele>3169.5</ele>
        <time>2011-10-01T15:32:53.19</time>
      </trkpt>
      <trkpt lat="42.77588" lon="0.46039">
        <ele>3169.5</ele>
        <time>2011-10-01T15:32:55.20</time>
      </trkpt>
      <trkpt lat="42.776" lon="0.46011">
        <ele>3170</ele>
        <time>2011-10-01T15:32:57.19</time>
      </trkpt>
      <trkpt lat="42.77591" lon="0.45979">
        <ele>3171.5</ele>
        <time>2011-10-01T15:32:59.14</time>
      </trkpt>
      <trkpt lat="42.77586" lon="0.45966">
        <ele>3172</ele>
        <time>2011-10-01T15:33:00.22</time>
      </trkpt>
      <trkpt lat="42.77576" lon="0.4596">
        <ele>3173</ele>
        <time>2011-10-01T15:33:01.22</time>
      </trkpt>
      <trkpt lat="42.77554" lon="0.45957">
        <ele>3176</ele>
        <time>2011-10-01T15:33:03.15</time>
      </trkpt>
      <trkpt lat="42.77537" lon="0.45976">
        <ele>3178.5</ele>
        <time>2011-10-01T15:33:05.19</time>
      </trkpt>
      <trkpt lat="42.77528" lon="0.46002">
        <ele>3179.5</ele>
        <time>2011-10-01T15:33:07.14</time>
      </trkpt>
      <trkpt lat="42.77523" lon="0.46017">
        <ele>3182</ele>
        <time>2011-10-01T15:33:08.14</time>
      </trkpt>
      <trkpt lat="42.77518" lon="0.46033">
        <ele>3183.5</ele>
        <time>2011-10-01T15:33:09.20</time>
      </trkpt>
      <trkpt lat="42.77514" lon="0.46048">
        <ele>3184.5</ele>
        <time>2011-10-01T15:33:10.13</time>
      </trkpt>
      <trkpt lat="42.77511" lon="0.46065">
        <ele>3186</ele>
        <time>2011-10-01T15:33:11.18</time>
      </trkpt>
      <trkpt lat="42.77513" lon="0.46103">
        <ele>3189.5</ele>
        <time>2011-10-01T15:33:13.20</time>
      </trkpt>
      <trkpt lat="42.77521" lon="0.46113">
        <ele>3189.5</ele>
        <time>2011-10-01T15:33:14.14</time>
      </trkpt>
      <trkpt lat="42.77527" lon="0.46125">
        <ele>3191</ele>
        <time>2011-10-01T15:33:15.15</time>
      </trkpt>
      <trkpt lat="42.77598" lon="0.46141">
        <ele>3198.5</ele>
        <time>2011-10-01T15:33:19.18</time>
      </trkpt>
      <trkpt lat="42.77613" lon="0.46105">
        <ele>3199.5</ele>
        <time>2011-10-01T15:33:22.13</time>
      </trkpt>
      <trkpt lat="42.77615" lon="0.46087">
        <ele>3200</ele>
        <time>2011-10-01T15:33:23.15</time>
      </trkpt>
      <trkpt lat="42.77614" lon="0.46068">
        <ele>3200</ele>
        <time>2011-10-01T15:33:24.20</time>
      </trkpt>
      <trkpt lat="42.77614" lon="0.4605">
        <ele>3200</ele>
        <time>2011-10-01T15:33:25.22</time>
      </trkpt>
      <trkpt lat="42.7761" lon="0.46034">
        <ele>3200.5</ele>
        <time>2011-10-01T15:33:26.14</time>
      </trkpt>
      <trkpt lat="42.77607" lon="0.46011">
        <ele>3201.5</ele>
        <time>2011-10-01T15:33:28.20</time>
      </trkpt>
      <trkpt lat="42.77549" lon="0.45997">
        <ele>3202.5</ele>
        <time>2011-10-01T15:33:32.20</time>
      </trkpt>
      <trkpt lat="42.77537" lon="0.45995">
        <ele>3206</ele>
        <time>2011-10-01T15:33:33.15</time>
      </trkpt>
      <trkpt lat="42.77512" lon="0.45994">
        <ele>3210.5</ele>
        <time>2011-10-01T15:33:35.14</time>
      </trkpt>
      <trkpt lat="42.77499" lon="0.45995">
        <ele>3210.5</ele>
        <time>2011-10-01T15:33:36.20</time>
      </trkpt>
      <trkpt lat="42.77487" lon="0.45995">
        <ele>3210.5</ele>
        <time>2011-10-01T15:33:37.22</time>
      </trkpt>
      <trkpt lat="42.77475" lon="0.45995">
        <ele>3210.5</ele>
        <time>2011-10-01T15:33:38.21</time>
      </trkpt>
      <trkpt lat="42.77463" lon="0.45997">
        <ele>3210.5</ele>
        <time>2011-10-01T15:33:39.14</time>
      </trkpt>
      <trkpt lat="42.77451" lon="0.46002">
        <ele>3210</ele>
        <time>2011-10-01T15:33:40.19</time>
      </trkpt>
      <trkpt lat="42.77441" lon="0.4601">
        <ele>3211</ele>
        <time>2011-10-01T15:33:41.14</time>
      </trkpt>
      <trkpt lat="42.7743" lon="0.4602">
        <ele>3211</ele>
        <time>2011-10-01T15:33:42.14</time>
      </trkpt>
      <trkpt lat="42.77407" lon="0.46045">
        <ele>3215.5</ele>
        <time>2011-10-01T15:33:44.20</time>
      </trkpt>
      <trkpt lat="42.774" lon="0.4606">
        <ele>3216</ele>
        <time>2011-10-01T15:33:45.14</time>
      </trkpt>
      <trkpt lat="42.77393" lon="0.46078">
        <ele>3219.5</ele>
        <time>2011-10-01T15:33:46.14</time>
      </trkpt>
      <trkpt lat="42.77386" lon="0.46095">
        <ele>3227</ele>
        <time>2011-10-01T15:33:47.14</time>
      </trkpt>
      <trkpt lat="42.77387" lon="0.46115">
        <ele>3227</ele>
        <time>2011-10-01T15:33:48.21</time>
      </trkpt>
      <trkpt lat="42.77392" lon="0.46135">
        <ele>3226.5</ele>
        <time>2011-10-01T15:33:49.14</time>
      </trkpt>
      <trkpt lat="42.77416" lon="0.46168">
        <ele>3229</ele>
        <time>2011-10-01T15:33:51.22</time>
      </trkpt>
      <trkpt lat="42.77428" lon="0.46179">
        <ele>3230.5</ele>
        <time>2011-10-01T15:33:52.21</time>
      </trkpt>
      <trkpt lat="42.77452" lon="0.46178">
        <ele>3231.5</ele>
        <time>2011-10-01T15:33:54.20</time>
      </trkpt>
      <trkpt lat="42.77463" lon="0.46147">
        <ele>3232</ele>
        <time>2011-10-01T15:33:56.22</time>
      </trkpt>
      <trkpt lat="42.77466" lon="0.46132">
        <ele>3231.5</ele>
        <time>2011-10-01T15:33:57.17</time>
      </trkpt>
      <trkpt lat="42.77465" lon="0.46117">
        <ele>3233</ele>
        <time>2011-10-01T15:33:58.19</time>
      </trkpt>
      <trkpt lat="42.77462" lon="0.46104">
        <ele>3233</ele>
        <time>2011-10-01T15:33:59.23</time>
      </trkpt>
      <trkpt lat="42.77458" lon="0.46091">
        <ele>3234</ele>
        <time>2011-10-01T15:34:00.17</time>
      </trkpt>
      <trkpt lat="42.77454" lon="0.46079">
        <ele>3234.5</ele>
        <time>2011-10-01T15:34:01.22</time>
      </trkpt>
      <trkpt lat="42.7745" lon="0.46068">
        <ele>3234.5</ele>
        <time>2011-10-01T15:34:02.15</time>
      </trkpt>
      <trkpt lat="42.77444" lon="0.46055">
        <ele>3234</ele>
        <time>2011-10-01T15:34:03.17</time>
      </trkpt>
      <trkpt lat="42.77436" lon="0.46044">
        <ele>3233.5</ele>
        <time>2011-10-01T15:34:04.19</time>
      </trkpt>
      <trkpt lat="42.77427" lon="0.46035">
        <ele>3234</ele>
        <time>2011-10-01T15:34:05.17</time>
      </trkpt>
      <trkpt lat="42.77417" lon="0.46031">
        <ele>3236</ele>
        <time>2011-10-01T15:34:06.13</time>
      </trkpt>
      <trkpt lat="42.77407" lon="0.46032">
        <ele>3236.5</ele>
        <time>2011-10-01T15:34:07.17</time>
      </trkpt>
      <trkpt lat="42.77398" lon="0.46033">
        <ele>3237.5</ele>
        <time>2011-10-01T15:34:08.14</time>
      </trkpt>
      <trkpt lat="42.77405" lon="0.4611">
        <ele>3238.5</ele>
        <time>2011-10-01T15:34:12.13</time>
      </trkpt>
      <trkpt lat="42.77415" lon="0.46125">
        <ele>3238.5</ele>
        <time>2011-10-01T15:34:13.23</time>
      </trkpt>
      <trkpt lat="42.7744" lon="0.46133">
        <ele>3240.5</ele>
        <time>2011-10-01T15:34:15.14</time>
      </trkpt>
      <trkpt lat="42.77454" lon="0.46129">
        <ele>3241.5</ele>
        <time>2011-10-01T15:34:16.13</time>
      </trkpt>
      <trkpt lat="42.77472" lon="0.46104">
        <ele>3243</ele>
        <time>2011-10-01T15:34:18.13</time>
      </trkpt>
      <trkpt lat="42.77477" lon="0.46088">
        <ele>3244.5</ele>
        <time>2011-10-01T15:34:19.20</time>
      </trkpt>
      <trkpt lat="42.77479" lon="0.46073">
        <ele>3244.5</ele>
        <time>2011-10-01T15:34:20.20</time>
      </trkpt>
      <trkpt lat="42.77479" lon="0.46058">
        <ele>3246</ele>
        <time>2011-10-01T15:34:21.22</time>
      </trkpt>
      <trkpt lat="42.77478" lon="0.46044">
        <ele>3246.5</ele>
        <time>2011-10-01T15:34:22.20</time>
      </trkpt>
      <trkpt lat="42.77476" lon="0.4603">
        <ele>3246.5</ele>
        <time>2011-10-01T15:34:23.14</time>
      </trkpt>
      <trkpt lat="42.77472" lon="0.46018">
        <ele>3244.5</ele>
        <time>2011-10-01T15:34:24.13</time>
      </trkpt>
      <trkpt lat="42.77465" lon="0.46006">
        <ele>3244</ele>
        <time>2011-10-01T15:34:25.14</time>
      </trkpt>
      <trkpt lat="42.77456" lon="0.45996">
        <ele>3246</ele>
        <time>2011-10-01T15:34:26.19</time>
      </trkpt>
      <trkpt lat="42.77437" lon="0.45988">
        <ele>3249</ele>
        <time>2011-10-01T15:34:28.13</time>
      </trkpt>
      <trkpt lat="42.77414" lon="0.4599">
        <ele>3257</ele>
        <time>2011-10-01T15:34:30.18</time>
      </trkpt>
      <trkpt lat="42.774" lon="0.46064">
        <ele>3262.5</ele>
        <time>2011-10-01T15:34:34.18</time>
      </trkpt>
      <trkpt lat="42.77405" lon="0.46084">
        <ele>3263</ele>
        <time>2011-10-01T15:34:35.18</time>
      </trkpt>
      <trkpt lat="42.77413" lon="0.46103">
        <ele>3264</ele>
        <time>2011-10-01T15:34:36.14</time>
      </trkpt>
      <trkpt lat="42.77426" lon="0.46116">
        <ele>3264.5</ele>
        <time>2011-10-01T15:34:37.14</time>
      </trkpt>
      <trkpt lat="42.77451" lon="0.46121">
        <ele>3268.5</ele>
        <time>2011-10-01T15:34:39.22</time>
      </trkpt>
      <trkpt lat="42.77464" lon="0.46118">
        <ele>3270</ele>
        <time>2011-10-01T15:34:40.15</time>
      </trkpt>
      <trkpt lat="42.77476" lon="0.46109">
        <ele>3270</ele>
        <time>2011-10-01T15:34:41.21</time>
      </trkpt>
      <trkpt lat="42.77485" lon="0.46097">
        <ele>3271</ele>
        <time>2011-10-01T15:34:42.13</time>
      </trkpt>
      <trkpt lat="42.77496" lon="0.46071">
        <ele>3272</ele>
        <time>2011-10-01T15:34:44.16</time>
      </trkpt>
      <trkpt lat="42.77496" lon="0.46056">
        <ele>3272.5</ele>
        <time>2011-10-01T15:34:45.22</time>
      </trkpt>
      <trkpt lat="42.77493" lon="0.46042">
        <ele>3272.5</ele>
        <time>2011-10-01T15:34:46.19</time>
      </trkpt>
      <trkpt lat="42.77472" lon="0.46019">
        <ele>3273.5</ele>
        <time>2011-10-01T15:34:48.13</time>
      </trkpt>
      <trkpt lat="42.77459" lon="0.4602">
        <ele>3274</ele>
        <time>2011-10-01T15:34:49.14</time>
      </trkpt>
      <trkpt lat="42.77434" lon="0.46043">
        <ele>3276.5</ele>
        <time>2011-10-01T15:34:51.15</time>
      </trkpt>
      <trkpt lat="42.77429" lon="0.46061">
        <ele>3276.5</ele>
        <time>2011-10-01T15:34:52.19</time>
      </trkpt>
      <trkpt lat="42.77426" lon="0.46079">
        <ele>3277</ele>
        <time>2011-10-01T15:34:53.22</time>
      </trkpt>
      <trkpt lat="42.77436" lon="0.46106">
        <ele>3277.5</ele>
        <time>2011-10-01T15:34:55.21</time>
      </trkpt>
      <trkpt lat="42.77448" lon="0.46137">
        <ele>3276</ele>
        <time>2011-10-01T15:34:57.14</time>
      </trkpt>
      <trkpt lat="42.77458" lon="0.46149">
        <ele>3274</ele>
        <time>2011-10-01T15:34:58.20</time>
      </trkpt>
      <trkpt lat="42.77508" lon="0.4617">
        <ele>3276</ele>
        <time>2011-10-01T15:35:01.23</time>
      </trkpt>
      <trkpt lat="42.77543" lon="0.46135">
        <ele>3277</ele>
        <time>2011-10-01T15:35:05.20</time>
      </trkpt>
      <trkpt lat="42.77553" lon="0.46089">
        <ele>3280</ele>
        <time>2011-10-01T15:35:08.13</time>
      </trkpt>
      <trkpt lat="42.7755" lon="0.46074">
        <ele>3281</ele>
        <time>2011-10-01T15:35:09.19</time>
      </trkpt>
      <trkpt lat="42.77543" lon="0.46059">
        <ele>3284</ele>
        <time>2011-10-01T15:35:10.19</time>
      </trkpt>
      <trkpt lat="42.77536" lon="0.46047">
        <ele>3285</ele>
        <time>2011-10-01T15:35:11.17</time>
      </trkpt>
      <trkpt lat="42.77526" lon="0.46039">
        <ele>3283.5</ele>
        <time>2011-10-01T15:35:12.19</time>
      </trkpt>
      <trkpt lat="42.77515" lon="0.46034">
        <ele>3284.5</ele>
        <time>2011-10-01T15:35:13.19</time>
      </trkpt>
      <trkpt lat="42.77503" lon="0.46034">
        <ele>3285</ele>
        <time>2011-10-01T15:35:14.19</time>
      </trkpt>
      <trkpt lat="42.77491" lon="0.46036">
        <ele>3285.5</ele>
        <time>2011-10-01T15:35:15.14</time>
      </trkpt>
      <trkpt lat="42.77481" lon="0.46043">
        <ele>3285.5</ele>
        <time>2011-10-01T15:35:16.13</time>
      </trkpt>
      <trkpt lat="42.77471" lon="0.46054">
        <ele>3287</ele>
        <time>2011-10-01T15:35:17.19</time>
      </trkpt>
      <trkpt lat="42.77461" lon="0.46091">
        <ele>3290</ele>
        <time>2011-10-01T15:35:19.20</time>
      </trkpt>
      <trkpt lat="42.77462" lon="0.4611">
        <ele>3291</ele>
        <time>2011-10-01T15:35:20.17</time>
      </trkpt>
      <trkpt lat="42.77482" lon="0.46144">
        <ele>3292.5</ele>
        <time>2011-10-01T15:35:22.17</time>
      </trkpt>
      <trkpt lat="42.77489" lon="0.46158">
        <ele>3293</ele>
        <time>2011-10-01T15:35:23.15</time>
      </trkpt>
      <trkpt lat="42.77496" lon="0.46174">
        <ele>3293</ele>
        <time>2011-10-01T15:35:24.17</time>
      </trkpt>
      <trkpt lat="42.77504" lon="0.46191">
        <ele>3293.5</ele>
        <time>2011-10-01T15:35:25.15</time>
      </trkpt>
      <trkpt lat="42.77515" lon="0.46208">
        <ele>3293.5</ele>
        <time>2011-10-01T15:35:26.19</time>
      </trkpt>
      <trkpt lat="42.77529" lon="0.46225">
        <ele>3294</ele>
        <time>2011-10-01T15:35:27.15</time>
      </trkpt>
      <trkpt lat="42.77543" lon="0.46239">
        <ele>3294.5</ele>
        <time>2011-10-01T15:35:28.13</time>
      </trkpt>
      <trkpt lat="42.77583" lon="0.46256">
        <ele>3294</ele>
        <time>2011-10-01T15:35:31.14</time>
      </trkpt>
      <trkpt lat="42.77605" lon="0.46249">
        <ele>3298.5</ele>
        <time>2011-10-01T15:35:33.15</time>
      </trkpt>
      <trkpt lat="42.77622" lon="0.46229">
        <ele>3301.5</ele>
        <time>2011-10-01T15:35:35.19</time>
      </trkpt>
      <trkpt lat="42.77635" lon="0.462">
        <ele>3302.5</ele>
        <time>2011-10-01T15:35:37.19</time>
      </trkpt>
      <trkpt lat="42.77633" lon="0.46176">
        <ele>3304.5</ele>
        <time>2011-10-01T15:35:39.18</time>
      </trkpt>
      <trkpt lat="42.77637" lon="0.46167">
        <ele>3305</ele>
        <time>2011-10-01T15:35:40.20</time>
      </trkpt>
      <trkpt lat="42.77561" lon="0.4616">
        <ele>3342</ele>
        <time>2011-10-01T15:35:45.12</time>
      </trkpt>
      <trkpt lat="42.77549" lon="0.46166">
        <ele>3342.5</ele>
        <time>2011-10-01T15:35:46.14</time>
      </trkpt>
      <trkpt lat="42.77538" lon="0.46173">
        <ele>3343</ele>
        <time>2011-10-01T15:35:47.15</time>
      </trkpt>
      <trkpt lat="42.77527" lon="0.4618">
        <ele>3342</ele>
        <time>2011-10-01T15:35:48.13</time>
      </trkpt>
      <trkpt lat="42.77507" lon="0.46207">
        <ele>3342.5</ele>
        <time>2011-10-01T15:35:50.20</time>
      </trkpt>
      <trkpt lat="42.77499" lon="0.46222">
        <ele>3345</ele>
        <time>2011-10-01T15:35:51.19</time>
      </trkpt>
      <trkpt lat="42.77492" lon="0.46239">
        <ele>3349</ele>
        <time>2011-10-01T15:35:52.13</time>
      </trkpt>
      <trkpt lat="42.7749" lon="0.46258">
        <ele>3353</ele>
        <time>2011-10-01T15:35:53.19</time>
      </trkpt>
      <trkpt lat="42.77491" lon="0.46277">
        <ele>3355.5</ele>
        <time>2011-10-01T15:35:54.20</time>
      </trkpt>
      <trkpt lat="42.77493" lon="0.46296">
        <ele>3355.5</ele>
        <time>2011-10-01T15:35:55.19</time>
      </trkpt>
      <trkpt lat="42.77496" lon="0.46315">
        <ele>3357.5</ele>
        <time>2011-10-01T15:35:56.20</time>
      </trkpt>
      <trkpt lat="42.77502" lon="0.46333">
        <ele>3357.5</ele>
        <time>2011-10-01T15:35:57.19</time>
      </trkpt>
      <trkpt lat="42.77511" lon="0.4635">
        <ele>3358</ele>
        <time>2011-10-01T15:35:58.19</time>
      </trkpt>
      <trkpt lat="42.77521" lon="0.46365">
        <ele>3358</ele>
        <time>2011-10-01T15:35:59.18</time>
      </trkpt>
      <trkpt lat="42.77531" lon="0.46377">
        <ele>3359</ele>
        <time>2011-10-01T15:36:00.13</time>
      </trkpt>
      <trkpt lat="42.77542" lon="0.46388">
        <ele>3361.5</ele>
        <time>2011-10-01T15:36:01.24</time>
      </trkpt>
      <trkpt lat="42.77571" lon="0.46396">
        <ele>3362.5</ele>
        <time>2011-10-01T15:36:03.18</time>
      </trkpt>
      <trkpt lat="42.77584" lon="0.46394">
        <ele>3367</ele>
        <time>2011-10-01T15:36:04.13</time>
      </trkpt>
      <trkpt lat="42.77609" lon="0.46356">
        <ele>3369.5</ele>
        <time>2011-10-01T15:36:08.21</time>
      </trkpt>
      <trkpt lat="42.77609" lon="0.46344">
        <ele>3371</ele>
        <time>2011-10-01T15:36:09.14</time>
      </trkpt>
      <trkpt lat="42.77606" lon="0.46332">
        <ele>3371.5</ele>
        <time>2011-10-01T15:36:10.20</time>
      </trkpt>
      <trkpt lat="42.77601" lon="0.46321">
        <ele>3374.5</ele>
        <time>2011-10-01T15:36:11.21</time>
      </trkpt>
      <trkpt lat="42.77596" lon="0.46309">
        <ele>3374.5</ele>
        <time>2011-10-01T15:36:12.21</time>
      </trkpt>
      <trkpt lat="42.7759" lon="0.463">
        <ele>3375</ele>
        <time>2011-10-01T15:36:13.21</time>
      </trkpt>
      <trkpt lat="42.77582" lon="0.46294">
        <ele>3376</ele>
        <time>2011-10-01T15:36:14.21</time>
      </trkpt>
      <trkpt lat="42.77559" lon="0.46292">
        <ele>3382.5</ele>
        <time>2011-10-01T15:36:16.15</time>
      </trkpt>
      <trkpt lat="42.77547" lon="0.46295">
        <ele>3382.5</ele>
        <time>2011-10-01T15:36:17.22</time>
      </trkpt>
      <trkpt lat="42.77536" lon="0.46303">
        <ele>3382.5</ele>
        <time>2011-10-01T15:36:18.21</time>
      </trkpt>
      <trkpt lat="42.77526" lon="0.46314">
        <ele>3383.5</ele>
        <time>2011-10-01T15:36:19.14</time>
      </trkpt>
      <trkpt lat="42.77518" lon="0.46328">
        <ele>3385.5</ele>
        <time>2011-10-01T15:36:20.14</time>
      </trkpt>
      <trkpt lat="42.77511" lon="0.46342">
        <ele>3387.5</ele>
        <time>2011-10-01T15:36:21.18</time>
      </trkpt>
      <trkpt lat="42.77506" lon="0.46357">
        <ele>3389.5</ele>
        <time>2011-10-01T15:36:22.20</time>
      </trkpt>
      <trkpt lat="42.77506" lon="0.46372">
        <ele>3388</ele>
        <time>2011-10-01T15:36:23.14</time>
      </trkpt>
      <trkpt lat="42.77509" lon="0.46389">
        <ele>3388</ele>
        <time>2011-10-01T15:36:24.14</time>
      </trkpt>
      <trkpt lat="42.77528" lon="0.46422">
        <ele>3393</ele>
        <time>2011-10-01T15:36:26.21</time>
      </trkpt>
      <trkpt lat="42.77541" lon="0.4643">
        <ele>3395</ele>
        <time>2011-10-01T15:36:27.14</time>
      </trkpt>
      <trkpt lat="42.77555" lon="0.46439">
        <ele>3395.5</ele>
        <time>2011-10-01T15:36:28.14</time>
      </trkpt>
      <trkpt lat="42.77569" lon="0.46447">
        <ele>3397.5</ele>
        <time>2011-10-01T15:36:29.14</time>
      </trkpt>
      <trkpt lat="42.77596" lon="0.46458">
        <ele>3400</ele>
        <time>2011-10-01T15:36:31.22</time>
      </trkpt>
      <trkpt lat="42.77624" lon="0.46459">
        <ele>3408</ele>
        <time>2011-10-01T15:36:33.14</time>
      </trkpt>
      <trkpt lat="42.77638" lon="0.46457">
        <ele>3408.5</ele>
        <time>2011-10-01T15:36:34.14</time>
      </trkpt>
      <trkpt lat="42.77652" lon="0.46451">
        <ele>3408.5</ele>
        <time>2011-10-01T15:36:35.22</time>
      </trkpt>
      <trkpt lat="42.77674" lon="0.46427">
        <ele>3416.5</ele>
        <time>2011-10-01T15:36:38.14</time>
      </trkpt>
      <trkpt lat="42.77675" lon="0.46412">
        <ele>3424</ele>
        <time>2011-10-01T15:36:39.14</time>
      </trkpt>
      <trkpt lat="42.7768" lon="0.46395">
        <ele>3424.5</ele>
        <time>2011-10-01T15:36:40.19</time>
      </trkpt>
      <trkpt lat="42.77679" lon="0.46378">
        <ele>3433.5</ele>
        <time>2011-10-01T15:36:41.23</time>
      </trkpt>
      <trkpt lat="42.7768" lon="0.46361">
        <ele>3434.5</ele>
        <time>2011-10-01T15:36:42.20</time>
      </trkpt>
      <trkpt lat="42.77682" lon="0.46347">
        <ele>3436</ele>
        <time>2011-10-01T15:36:43.17</time>
      </trkpt>
      <trkpt lat="42.77682" lon="0.46332">
        <ele>3437</ele>
        <time>2011-10-01T15:36:44.20</time>
      </trkpt>
      <trkpt lat="42.77681" lon="0.46318">
        <ele>3440.5</ele>
        <time>2011-10-01T15:36:45.22</time>
      </trkpt>
      <trkpt lat="42.7768" lon="0.46303">
        <ele>3443</ele>
        <time>2011-10-01T15:36:46.19</time>
      </trkpt>
      <trkpt lat="42.77678" lon="0.46287">
        <ele>3444.5</ele>
        <time>2011-10-01T15:36:47.22</time>
      </trkpt>
      <trkpt lat="42.77675" lon="0.46272">
        <ele>3445.5</ele>
        <time>2011-10-01T15:36:48.20</time>
      </trkpt>
      <trkpt lat="42.77671" lon="0.46259">
        <ele>3446.5</ele>
        <time>2011-10-01T15:36:49.14</time>
      </trkpt>
      <trkpt lat="42.77666" lon="0.46247">
        <ele>3447.5</ele>
        <time>2011-10-01T15:36:50.17</time>
      </trkpt>
      <trkpt lat="42.77629" lon="0.46232">
        <ele>3471.5</ele>
        <time>2011-10-01T15:36:53.17</time>
      </trkpt>
      <trkpt lat="42.77617" lon="0.46231">
        <ele>3472.5</ele>
        <time>2011-10-01T15:36:54.19</time>
      </trkpt>
      <trkpt lat="42.77606" lon="0.46232">
        <ele>3473.5</ele>
        <time>2011-10-01T15:36:55.18</time>
      </trkpt>
      <trkpt lat="42.77597" lon="0.46236">
        <ele>3474.5</ele>
        <time>2011-10-01T15:36:56.15</time>
      </trkpt>
      <trkpt lat="42.77589" lon="0.46242">
        <ele>3475.5</ele>
        <time>2011-10-01T15:36:57.15</time>
      </trkpt>
      <trkpt lat="42.77558" lon="0.46271">
        <ele>3484.5</ele>
        <time>2011-10-01T15:37:00.13</time>
      </trkpt>
      <trkpt lat="42.77551" lon="0.46285">
        <ele>3486</ele>
        <time>2011-10-01T15:37:01.20</time>
      </trkpt>
      <trkpt lat="42.77545" lon="0.46301">
        <ele>3488</ele>
        <time>2011-10-01T15:37:02.14</time>
      </trkpt>
      <trkpt lat="42.77533" lon="0.46336">
        <ele>3507</ele>
        <time>2011-10-01T15:37:04.13</time>
      </trkpt>
      <trkpt lat="42.77536" lon="0.46354">
        <ele>3507</ele>
        <time>2011-10-01T15:37:05.19</time>
      </trkpt>
      <trkpt lat="42.7754" lon="0.46372">
        <ele>3508.5</ele>
        <time>2011-10-01T15:37:06.14</time>
      </trkpt>
      <trkpt lat="42.77547" lon="0.4639">
        <ele>3508.5</ele>
        <time>2011-10-01T15:37:07.23</time>
      </trkpt>
      <trkpt lat="42.7759" lon="0.46434">
        <ele>3512</ele>
        <time>2011-10-01T15:37:10.14</time>
      </trkpt>
      <trkpt lat="42.77645" lon="0.46441">
        <ele>3529</ele>
        <time>2011-10-01T15:37:13.23</time>
      </trkpt>
      <trkpt lat="42.77679" lon="0.46419">
        <ele>3538.5</ele>
        <time>2011-10-01T15:37:17.14</time>
      </trkpt>
      <trkpt lat="42.77687" lon="0.46407">
        <ele>3539</ele>
        <time>2011-10-01T15:37:18.17</time>
      </trkpt>
      <trkpt lat="42.77695" lon="0.46393">
        <ele>3539.5</ele>
        <time>2011-10-01T15:37:19.22</time>
      </trkpt>
      <trkpt lat="42.77702" lon="0.46378">
        <ele>3539.5</ele>
        <time>2011-10-01T15:37:20.17</time>
      </trkpt>
      <trkpt lat="42.77704" lon="0.46346">
        <ele>3548.5</ele>
        <time>2011-10-01T15:37:22.17</time>
      </trkpt>
      <trkpt lat="42.77703" lon="0.4633">
        <ele>3547.5</ele>
        <time>2011-10-01T15:37:23.17</time>
      </trkpt>
      <trkpt lat="42.77696" lon="0.46315">
        <ele>3553</ele>
        <time>2011-10-01T15:37:24.19</time>
      </trkpt>
      <trkpt lat="42.77684" lon="0.46292">
        <ele>3553</ele>
        <time>2011-10-01T15:37:26.13</time>
      </trkpt>
      <trkpt lat="42.77664" lon="0.46277">
        <ele>3561.5</ele>
        <time>2011-10-01T15:37:28.14</time>
      </trkpt>
      <trkpt lat="42.7763" lon="0.46276">
        <ele>3577</ele>
        <time>2011-10-01T15:37:31.14</time>
      </trkpt>
      <trkpt lat="42.77596" lon="0.46304">
        <ele>3579.5</ele>
        <time>2011-10-01T15:37:34.20</time>
      </trkpt>
      <trkpt lat="42.77587" lon="0.4632">
        <ele>3581.5</ele>
        <time>2011-10-01T15:37:35.23</time>
      </trkpt>
      <trkpt lat="42.77583" lon="0.46336">
        <ele>3581.5</ele>
        <time>2011-10-01T15:37:36.13</time>
      </trkpt>
      <trkpt lat="42.7758" lon="0.46354">
        <ele>3581.5</ele>
        <time>2011-10-01T15:37:37.15</time>
      </trkpt>
      <trkpt lat="42.77581" lon="0.46372">
        <ele>3582</ele>
        <time>2011-10-01T15:37:38.17</time>
      </trkpt>
      <trkpt lat="42.77584" lon="0.46391">
        <ele>3582.5</ele>
        <time>2011-10-01T15:37:39.21</time>
      </trkpt>
      <trkpt lat="42.77588" lon="0.46411">
        <ele>3584</ele>
        <time>2011-10-01T15:37:40.12</time>
      </trkpt>
      <trkpt lat="42.77594" lon="0.4643">
        <ele>3582</ele>
        <time>2011-10-01T15:37:41.21</time>
      </trkpt>
      <trkpt lat="42.77602" lon="0.46449">
        <ele>3583</ele>
        <time>2011-10-01T15:37:42.12</time>
      </trkpt>
      <trkpt lat="42.7768" lon="0.46498">
        <ele>3604</ele>
        <time>2011-10-01T15:37:46.19</time>
      </trkpt>
      <trkpt lat="42.77724" lon="0.46471">
        <ele>3606.5</ele>
        <time>2011-10-01T15:37:50.12</time>
      </trkpt>
      <trkpt lat="42.77733" lon="0.46443">
        <ele>3611</ele>
        <time>2011-10-01T15:37:52.13</time>
      </trkpt>
      <trkpt lat="42.77738" lon="0.46427">
        <ele>3612</ele>
        <time>2011-10-01T15:37:53.19</time>
      </trkpt>
      <trkpt lat="42.77741" lon="0.46411">
        <ele>3614</ele>
        <time>2011-10-01T15:37:54.17</time>
      </trkpt>
      <trkpt lat="42.77741" lon="0.46396">
        <ele>3615</ele>
        <time>2011-10-01T15:37:55.19</time>
      </trkpt>
      <trkpt lat="42.7774" lon="0.46381">
        <ele>3615.5</ele>
        <time>2011-10-01T15:37:56.13</time>
      </trkpt>
      <trkpt lat="42.77739" lon="0.46366">
        <ele>3613.5</ele>
        <time>2011-10-01T15:37:57.23</time>
      </trkpt>
      <trkpt lat="42.77729" lon="0.46332">
        <ele>3614</ele>
        <time>2011-10-01T15:37:59.23</time>
      </trkpt>
      <trkpt lat="42.77721" lon="0.46316">
        <ele>3614</ele>
        <time>2011-10-01T15:38:00.13</time>
      </trkpt>
      <trkpt lat="42.77702" lon="0.46299">
        <ele>3618</ele>
        <time>2011-10-01T15:38:02.20</time>
      </trkpt>
      <trkpt lat="42.77691" lon="0.46294">
        <ele>3618.5</ele>
        <time>2011-10-01T15:38:03.15</time>
      </trkpt>
      <trkpt lat="42.77664" lon="0.46296">
        <ele>3626.5</ele>
        <time>2011-10-01T15:38:05.15</time>
      </trkpt>
      <trkpt lat="42.77651" lon="0.46304">
        <ele>3627</ele>
        <time>2011-10-01T15:38:06.14</time>
      </trkpt>
      <trkpt lat="42.7764" lon="0.46316">
        <ele>3627</ele>
        <time>2011-10-01T15:38:07.12</time>
      </trkpt>
      <trkpt lat="42.77631" lon="0.4633">
        <ele>3627.5</ele>
        <time>2011-10-01T15:38:08.22</time>
      </trkpt>
      <trkpt lat="42.77622" lon="0.46346">
        <ele>3634</ele>
        <time>2011-10-01T15:38:09.14</time>
      </trkpt>
      <trkpt lat="42.7762" lon="0.46364">
        <ele>3634.5</ele>
        <time>2011-10-01T15:38:10.13</time>
      </trkpt>
      <trkpt lat="42.77617" lon="0.46404">
        <ele>3642.5</ele>
        <time>2011-10-01T15:38:12.17</time>
      </trkpt>
      <trkpt lat="42.77617" lon="0.46424">
        <ele>3647.5</ele>
        <time>2011-10-01T15:38:13.14</time>
      </trkpt>
      <trkpt lat="42.77618" lon="0.46445">
        <ele>3653</ele>
        <time>2011-10-01T15:38:14.17</time>
      </trkpt>
      <trkpt lat="42.77624" lon="0.46466">
        <ele>3655</ele>
        <time>2011-10-01T15:38:15.17</time>
      </trkpt>
      <trkpt lat="42.7763" lon="0.46485">
        <ele>3659</ele>
        <time>2011-10-01T15:38:16.22</time>
      </trkpt>
      <trkpt lat="42.77639" lon="0.46502">
        <ele>3659.5</ele>
        <time>2011-10-01T15:38:17.15</time>
      </trkpt>
      <trkpt lat="42.77668" lon="0.46527">
        <ele>3662.5</ele>
        <time>2011-10-01T15:38:19.19</time>
      </trkpt>
      <trkpt lat="42.77704" lon="0.46534">
        <ele>3669.5</ele>
        <time>2011-10-01T15:38:22.19</time>
      </trkpt>
      <trkpt lat="42.77716" lon="0.46529">
        <ele>3670.5</ele>
        <time>2011-10-01T15:38:23.19</time>
      </trkpt>
      <trkpt lat="42.77727" lon="0.4652">
        <ele>3673.5</ele>
        <time>2011-10-01T15:38:24.13</time>
      </trkpt>
      <trkpt lat="42.77737" lon="0.46509">
        <ele>3674</ele>
        <time>2011-10-01T15:38:25.19</time>
      </trkpt>
      <trkpt lat="42.77745" lon="0.46496">
        <ele>3676</ele>
        <time>2011-10-01T15:38:26.14</time>
      </trkpt>
      <trkpt lat="42.77749" lon="0.46481">
        <ele>3677</ele>
        <time>2011-10-01T15:38:27.20</time>
      </trkpt>
      <trkpt lat="42.77754" lon="0.46466">
        <ele>3677.5</ele>
        <time>2011-10-01T15:38:28.13</time>
      </trkpt>
      <trkpt lat="42.77758" lon="0.46451">
        <ele>3678</ele>
        <time>2011-10-01T15:38:29.19</time>
      </trkpt>
      <trkpt lat="42.77761" lon="0.46435">
        <ele>3678.5</ele>
        <time>2011-10-01T15:38:30.13</time>
      </trkpt>
      <trkpt lat="42.77763" lon="0.46419">
        <ele>3679.5</ele>
        <time>2011-10-01T15:38:31.15</time>
      </trkpt>
      <trkpt lat="42.77761" lon="0.46403">
        <ele>3681.5</ele>
        <time>2011-10-01T15:38:32.17</time>
      </trkpt>
      <trkpt lat="42.77759" lon="0.46388">
        <ele>3683</ele>
        <time>2011-10-01T15:38:33.15</time>
      </trkpt>
      <trkpt lat="42.77755" lon="0.46373">
        <ele>3682.5</ele>
        <time>2011-10-01T15:38:34.17</time>
      </trkpt>
      <trkpt lat="42.77749" lon="0.46358">
        <ele>3682</ele>
        <time>2011-10-01T15:38:35.14</time>
      </trkpt>
      <trkpt lat="42.7773" lon="0.46331">
        <ele>3683.5</ele>
        <time>2011-10-01T15:38:37.16</time>
      </trkpt>
      <trkpt lat="42.7772" lon="0.46323">
        <ele>3684</ele>
        <time>2011-10-01T15:38:38.15</time>
      </trkpt>
      <trkpt lat="42.7771" lon="0.46317">
        <ele>3684</ele>
        <time>2011-10-01T15:38:39.22</time>
      </trkpt>
      <trkpt lat="42.7769" lon="0.46317">
        <ele>3692</ele>
        <time>2011-10-01T15:38:41.15</time>
      </trkpt>
      <trkpt lat="42.77681" lon="0.46317">
        <ele>3692.5</ele>
        <time>2011-10-01T15:38:42.17</time>
      </trkpt>
      <trkpt lat="42.77671" lon="0.46318">
        <ele>3694.5</ele>
        <time>2011-10-01T15:38:43.19</time>
      </trkpt>
      <trkpt lat="42.77661" lon="0.46321">
        <ele>3696.5</ele>
        <time>2011-10-01T15:38:44.13</time>
      </trkpt>
      <trkpt lat="42.77651" lon="0.46326">
        <ele>3698.5</ele>
        <time>2011-10-01T15:38:45.19</time>
      </trkpt>
      <trkpt lat="42.77641" lon="0.46332">
        <ele>3700</ele>
        <time>2011-10-01T15:38:46.14</time>
      </trkpt>
      <trkpt lat="42.77631" lon="0.4634">
        <ele>3703.5</ele>
        <time>2011-10-01T15:38:47.16</time>
      </trkpt>
      <trkpt lat="42.77623" lon="0.46351">
        <ele>3706</ele>
        <time>2011-10-01T15:38:48.17</time>
      </trkpt>
      <trkpt lat="42.77607" lon="0.46379">
        <ele>3711.5</ele>
        <time>2011-10-01T15:38:50.13</time>
      </trkpt>
      <trkpt lat="42.77599" lon="0.46395">
        <ele>3712.5</ele>
        <time>2011-10-01T15:38:51.15</time>
      </trkpt>
      <trkpt lat="42.77586" lon="0.46437">
        <ele>3714.5</ele>
        <time>2011-10-01T15:38:53.15</time>
      </trkpt>
      <trkpt lat="42.77586" lon="0.46459">
        <ele>3716</ele>
        <time>2011-10-01T15:38:54.15</time>
      </trkpt>
      <trkpt lat="42.77588" lon="0.46482">
        <ele>3719</ele>
        <time>2011-10-01T15:38:55.18</time>
      </trkpt>
      <trkpt lat="42.77619" lon="0.46532">
        <ele>3727.5</ele>
        <time>2011-10-01T15:38:58.13</time>
      </trkpt>
      <trkpt lat="42.77628" lon="0.46546">
        <ele>3728.5</ele>
        <time>2011-10-01T15:38:59.14</time>
      </trkpt>
      <trkpt lat="42.77638" lon="0.46559">
        <ele>3729</ele>
        <time>2011-10-01T15:39:00.15</time>
      </trkpt>
      <trkpt lat="42.77649" lon="0.4657">
        <ele>3730</ele>
        <time>2011-10-01T15:39:01.15</time>
      </trkpt>
      <trkpt lat="42.77661" lon="0.46579">
        <ele>3729.5</ele>
        <time>2011-10-01T15:39:02.14</time>
      </trkpt>
      <trkpt lat="42.77682" lon="0.4659">
        <ele>3729.5</ele>
        <time>2011-10-01T15:39:04.18</time>
      </trkpt>
      <trkpt lat="42.77694" lon="0.46594">
        <ele>3730.5</ele>
        <time>2011-10-01T15:39:05.22</time>
      </trkpt>
      <trkpt lat="42.77706" lon="0.46594">
        <ele>3730.5</ele>
        <time>2011-10-01T15:39:06.13</time>
      </trkpt>
      <trkpt lat="42.7772" lon="0.46591">
        <ele>3731.5</ele>
        <time>2011-10-01T15:39:07.20</time>
      </trkpt>
      <trkpt lat="42.77732" lon="0.46586">
        <ele>3731.5</ele>
        <time>2011-10-01T15:39:08.14</time>
      </trkpt>
      <trkpt lat="42.77745" lon="0.4658">
        <ele>3732.5</ele>
        <time>2011-10-01T15:39:09.14</time>
      </trkpt>
      <trkpt lat="42.77756" lon="0.46572">
        <ele>3733</ele>
        <time>2011-10-01T15:39:10.14</time>
      </trkpt>
      <trkpt lat="42.77764" lon="0.46561">
        <ele>3734.5</ele>
        <time>2011-10-01T15:39:11.14</time>
      </trkpt>
      <trkpt lat="42.77772" lon="0.46549">
        <ele>3734</ele>
        <time>2011-10-01T15:39:12.22</time>
      </trkpt>
      <trkpt lat="42.77782" lon="0.4652">
        <ele>3735.5</ele>
        <time>2011-10-01T15:39:14.13</time>
      </trkpt>
      <trkpt lat="42.77785" lon="0.46503">
        <ele>3735</ele>
        <time>2011-10-01T15:39:15.14</time>
      </trkpt>
      <trkpt lat="42.77782" lon="0.46485">
        <ele>3735</ele>
        <time>2011-10-01T15:39:16.14</time>
      </trkpt>
      <trkpt lat="42.77775" lon="0.4647">
        <ele>3736</ele>
        <time>2011-10-01T15:39:17.18</time>
      </trkpt>
      <trkpt lat="42.77766" lon="0.4646">
        <ele>3735</ele>
        <time>2011-10-01T15:39:18.21</time>
      </trkpt>
      <trkpt lat="42.77755" lon="0.4646">
        <ele>3736</ele>
        <time>2011-10-01T15:39:19.14</time>
      </trkpt>
      <trkpt lat="42.77743" lon="0.46461">
        <ele>3734.5</ele>
        <time>2011-10-01T15:39:20.21</time>
      </trkpt>
      <trkpt lat="42.77732" lon="0.46467">
        <ele>3733.5</ele>
        <time>2011-10-01T15:39:21.18</time>
      </trkpt>
      <trkpt lat="42.77708" lon="0.46486">
        <ele>3731</ele>
        <time>2011-10-01T15:39:23.23</time>
      </trkpt>
      <trkpt lat="42.77695" lon="0.46493">
        <ele>3731</ele>
        <time>2011-10-01T15:39:24.16</time>
      </trkpt>
      <trkpt lat="42.77683" lon="0.46499">
        <ele>3730.5</ele>
        <time>2011-10-01T15:39:25.23</time>
      </trkpt>
      <trkpt lat="42.77671" lon="0.46506">
        <ele>3730</ele>
        <time>2011-10-01T15:39:26.14</time>
      </trkpt>
      <trkpt lat="42.77659" lon="0.46517">
        <ele>3732</ele>
        <time>2011-10-01T15:39:27.14</time>
      </trkpt>
      <trkpt lat="42.77639" lon="0.46536">
        <ele>3733.5</ele>
        <time>2011-10-01T15:39:29.15</time>
      </trkpt>
      <trkpt lat="42.77629" lon="0.46545">
        <ele>3735</ele>
        <time>2011-10-01T15:39:30.19</time>
      </trkpt>
      <trkpt lat="42.77619" lon="0.46554">
        <ele>3735</ele>
        <time>2011-10-01T15:39:31.20</time>
      </trkpt>
      <trkpt lat="42.77609" lon="0.46565">
        <ele>3735</ele>
        <time>2011-10-01T15:39:32.20</time>
      </trkpt>
      <trkpt lat="42.77589" lon="0.46597">
        <ele>3735.5</ele>
        <time>2011-10-01T15:39:34.13</time>
      </trkpt>
      <trkpt lat="42.77585" lon="0.46619">
        <ele>3736</ele>
        <time>2011-10-01T15:39:35.17</time>
      </trkpt>
      <trkpt lat="42.77583" lon="0.4664">
        <ele>3738.5</ele>
        <time>2011-10-01T15:39:36.13</time>
      </trkpt>
      <trkpt lat="42.77583" lon="0.46661">
        <ele>3739.5</ele>
        <time>2011-10-01T15:39:37.17</time>
      </trkpt>
      <trkpt lat="42.77587" lon="0.4668">
        <ele>3739.5</ele>
        <time>2011-10-01T15:39:38.21</time>
      </trkpt>
      <trkpt lat="42.77593" lon="0.46698">
        <ele>3738.5</ele>
        <time>2011-10-01T15:39:39.14</time>
      </trkpt>
      <trkpt lat="42.77605" lon="0.46712">
        <ele>3738.5</ele>
        <time>2011-10-01T15:39:40.13</time>
      </trkpt>
      <trkpt lat="42.77629" lon="0.46729">
        <ele>3741</ele>
        <time>2011-10-01T15:39:42.13</time>
      </trkpt>
      <trkpt lat="42.77644" lon="0.46732">
        <ele>3741</ele>
        <time>2011-10-01T15:39:43.23</time>
      </trkpt>
      <trkpt lat="42.77669" lon="0.46726">
        <ele>3740</ele>
        <time>2011-10-01T15:39:45.23</time>
      </trkpt>
      <trkpt lat="42.7768" lon="0.46716">
        <ele>3740.5</ele>
        <time>2011-10-01T15:39:46.14</time>
      </trkpt>
      <trkpt lat="42.77687" lon="0.467">
        <ele>3740.5</ele>
        <time>2011-10-01T15:39:47.23</time>
      </trkpt>
      <trkpt lat="42.77691" lon="0.46683">
        <ele>3740</ele>
        <time>2011-10-01T15:39:48.18</time>
      </trkpt>
      <trkpt lat="42.77693" lon="0.46665">
        <ele>3740</ele>
        <time>2011-10-01T15:39:49.14</time>
      </trkpt>
      <trkpt lat="42.77693" lon="0.46648">
        <ele>3740.5</ele>
        <time>2011-10-01T15:39:50.20</time>
      </trkpt>
      <trkpt lat="42.77693" lon="0.46632">
        <ele>3741</ele>
        <time>2011-10-01T15:39:51.22</time>
      </trkpt>
      <trkpt lat="42.77694" lon="0.46616">
        <ele>3741</ele>
        <time>2011-10-01T15:39:52.13</time>
      </trkpt>
      <trkpt lat="42.77695" lon="0.466">
        <ele>3741</ele>
        <time>2011-10-01T15:39:53.15</time>
      </trkpt>
      <trkpt lat="42.77695" lon="0.46583">
        <ele>3741.5</ele>
        <time>2011-10-01T15:39:54.13</time>
      </trkpt>
      <trkpt lat="42.77695" lon="0.46566">
        <ele>3741.5</ele>
        <time>2011-10-01T15:39:55.18</time>
      </trkpt>
      <trkpt lat="42.77692" lon="0.46548">
        <ele>3741</ele>
        <time>2011-10-01T15:39:56.13</time>
      </trkpt>
      <trkpt lat="42.77687" lon="0.46533">
        <ele>3742</ele>
        <time>2011-10-01T15:39:57.14</time>
      </trkpt>
      <trkpt lat="42.77683" lon="0.46518">
        <ele>3742.5</ele>
        <time>2011-10-01T15:39:58.13</time>
      </trkpt>
      <trkpt lat="42.77678" lon="0.46503">
        <ele>3743.5</ele>
        <time>2011-10-01T15:39:59.22</time>
      </trkpt>
      <trkpt lat="42.77672" lon="0.4649">
        <ele>3745.5</ele>
        <time>2011-10-01T15:40:00.13</time>
      </trkpt>
      <trkpt lat="42.77664" lon="0.46479">
        <ele>3746</ele>
        <time>2011-10-01T15:40:01.22</time>
      </trkpt>
      <trkpt lat="42.77655" lon="0.46469">
        <ele>3746.5</ele>
        <time>2011-10-01T15:40:02.13</time>
      </trkpt>
      <trkpt lat="42.77644" lon="0.46461">
        <ele>3747.5</ele>
        <time>2011-10-01T15:40:03.24</time>
      </trkpt>
      <trkpt lat="42.77633" lon="0.46454">
        <ele>3748.5</ele>
        <time>2011-10-01T15:40:04.13</time>
      </trkpt>
      <trkpt lat="42.77622" lon="0.46448">
        <ele>3750</ele>
        <time>2011-10-01T15:40:05.14</time>
      </trkpt>
      <trkpt lat="42.77611" lon="0.46442">
        <ele>3751.5</ele>
        <time>2011-10-01T15:40:06.13</time>
      </trkpt>
      <trkpt lat="42.776" lon="0.46438">
        <ele>3753</ele>
        <time>2011-10-01T15:40:07.14</time>
      </trkpt>
      <trkpt lat="42.7759" lon="0.46436">
        <ele>3754</ele>
        <time>2011-10-01T15:40:08.13</time>
      </trkpt>
      <trkpt lat="42.7758" lon="0.46435">
        <ele>3753.5</ele>
        <time>2011-10-01T15:40:09.22</time>
      </trkpt>
      <trkpt lat="42.77569" lon="0.46434">
        <ele>3753</ele>
        <time>2011-10-01T15:40:10.13</time>
      </trkpt>
      <trkpt lat="42.77557" lon="0.46433">
        <ele>3752.5</ele>
        <time>2011-10-01T15:40:11.14</time>
      </trkpt>
      <trkpt lat="42.77545" lon="0.46432">
        <ele>3752</ele>
        <time>2011-10-01T15:40:12.13</time>
      </trkpt>
      <trkpt lat="42.77526" lon="0.46432">
        <ele>3752</ele>
        <time>2011-10-01T15:40:14.14</time>
      </trkpt>
      <trkpt lat="42.77517" lon="0.46432">
        <ele>3753</ele>
        <time>2011-10-01T15:40:15.22</time>
      </trkpt>
      <trkpt lat="42.77494" lon="0.46437">
        <ele>3751</ele>
        <time>2011-10-01T15:40:17.15</time>
      </trkpt>
      <trkpt lat="42.77467" lon="0.4645">
        <ele>3751</ele>
        <time>2011-10-01T15:40:19.14</time>
      </trkpt>
      <trkpt lat="42.77455" lon="0.4646">
        <ele>3751</ele>
        <time>2011-10-01T15:40:20.13</time>
      </trkpt>
      <trkpt lat="42.77446" lon="0.46473">
        <ele>3751.5</ele>
        <time>2011-10-01T15:40:21.14</time>
      </trkpt>
      <trkpt lat="42.77438" lon="0.46488">
        <ele>3751.5</ele>
        <time>2011-10-01T15:40:22.21</time>
      </trkpt>
      <trkpt lat="42.77429" lon="0.46503">
        <ele>3753</ele>
        <time>2011-10-01T15:40:23.16</time>
      </trkpt>
      <trkpt lat="42.7742" lon="0.46519">
        <ele>3754.5</ele>
        <time>2011-10-01T15:40:24.13</time>
      </trkpt>
      <trkpt lat="42.77412" lon="0.46534">
        <ele>3755.5</ele>
        <time>2011-10-01T15:40:25.15</time>
      </trkpt>
      <trkpt lat="42.77404" lon="0.46549">
        <ele>3756</ele>
        <time>2011-10-01T15:40:26.20</time>
      </trkpt>
      <trkpt lat="42.77396" lon="0.46563">
        <ele>3757</ele>
        <time>2011-10-01T15:40:27.14</time>
      </trkpt>
      <trkpt lat="42.77387" lon="0.46576">
        <ele>3759</ele>
        <time>2011-10-01T15:40:28.12</time>
      </trkpt>
      <trkpt lat="42.77379" lon="0.46589">
        <ele>3758.5</ele>
        <time>2011-10-01T15:40:29.14</time>
      </trkpt>
      <trkpt lat="42.77371" lon="0.46603">
        <ele>3757.5</ele>
        <time>2011-10-01T15:40:30.13</time>
      </trkpt>
      <trkpt lat="42.77364" lon="0.46619">
        <ele>3756</ele>
        <time>2011-10-01T15:40:31.14</time>
      </trkpt>
      <trkpt lat="42.77358" lon="0.46639">
        <ele>3756.5</ele>
        <time>2011-10-01T15:40:32.13</time>
      </trkpt>
      <trkpt lat="42.77355" lon="0.46658">
        <ele>3757</ele>
        <time>2011-10-01T15:40:33.14</time>
      </trkpt>
      <trkpt lat="42.77355" lon="0.46677">
        <ele>3755.5</ele>
        <time>2011-10-01T15:40:34.14</time>
      </trkpt>
      <trkpt lat="42.77354" lon="0.46698">
        <ele>3756</ele>
        <time>2011-10-01T15:40:35.14</time>
      </trkpt>
      <trkpt lat="42.77353" lon="0.46719">
        <ele>3756</ele>
        <time>2011-10-01T15:40:36.13</time>
      </trkpt>
      <trkpt lat="42.77349" lon="0.4674">
        <ele>3758</ele>
        <time>2011-10-01T15:40:37.14</time>
      </trkpt>
      <trkpt lat="42.77344" lon="0.4676">
        <ele>3759.5</ele>
        <time>2011-10-01T15:40:38.14</time>
      </trkpt>
      <trkpt lat="42.77338" lon="0.46778">
        <ele>3761.5</ele>
        <time>2011-10-01T15:40:39.14</time>
      </trkpt>
      <trkpt lat="42.77331" lon="0.46795">
        <ele>3763</ele>
        <time>2011-10-01T15:40:40.13</time>
      </trkpt>
      <trkpt lat="42.77324" lon="0.46812">
        <ele>3763.5</ele>
        <time>2011-10-01T15:40:41.20</time>
      </trkpt>
      <trkpt lat="42.77316" lon="0.46829">
        <ele>3763.5</ele>
        <time>2011-10-01T15:40:42.13</time>
      </trkpt>
      <trkpt lat="42.77308" lon="0.46846">
        <ele>3763</ele>
        <time>2011-10-01T15:40:43.14</time>
      </trkpt>
      <trkpt lat="42.77299" lon="0.46863">
        <ele>3762.5</ele>
        <time>2011-10-01T15:40:44.13</time>
      </trkpt>
      <trkpt lat="42.7729" lon="0.46878">
        <ele>3764</ele>
        <time>2011-10-01T15:40:45.21</time>
      </trkpt>
      <trkpt lat="42.77281" lon="0.46893">
        <ele>3765</ele>
        <time>2011-10-01T15:40:46.13</time>
      </trkpt>
      <trkpt lat="42.77273" lon="0.46906">
        <ele>3763.5</ele>
        <time>2011-10-01T15:40:47.15</time>
      </trkpt>
      <trkpt lat="42.77265" lon="0.46919">
        <ele>3762</ele>
        <time>2011-10-01T15:40:48.14</time>
      </trkpt>
      <trkpt lat="42.77257" lon="0.46934">
        <ele>3760.5</ele>
        <time>2011-10-01T15:40:49.15</time>
      </trkpt>
      <trkpt lat="42.77248" lon="0.46951">
        <ele>3760</ele>
        <time>2011-10-01T15:40:50.13</time>
      </trkpt>
      <trkpt lat="42.77242" lon="0.46969">
        <ele>3761</ele>
        <time>2011-10-01T15:40:51.14</time>
      </trkpt>
      <trkpt lat="42.77236" lon="0.46987">
        <ele>3761</ele>
        <time>2011-10-01T15:40:52.13</time>
      </trkpt>
      <trkpt lat="42.7723" lon="0.47006">
        <ele>3760.5</ele>
        <time>2011-10-01T15:40:53.14</time>
      </trkpt>
      <trkpt lat="42.77223" lon="0.47025">
        <ele>3761.5</ele>
        <time>2011-10-01T15:40:54.13</time>
      </trkpt>
      <trkpt lat="42.77208" lon="0.47054">
        <ele>3761</ele>
        <time>2011-10-01T15:40:56.13</time>
      </trkpt>
      <trkpt lat="42.77202" lon="0.47067">
        <ele>3760.5</ele>
        <time>2011-10-01T15:40:57.15</time>
      </trkpt>
      <trkpt lat="42.77194" lon="0.4708">
        <ele>3761</ele>
        <time>2011-10-01T15:40:58.13</time>
      </trkpt>
      <trkpt lat="42.77171" lon="0.47107">
        <ele>3761</ele>
        <time>2011-10-01T15:41:00.13</time>
      </trkpt>
      <trkpt lat="42.77159" lon="0.47118">
        <ele>3763</ele>
        <time>2011-10-01T15:41:01.15</time>
      </trkpt>
      <trkpt lat="42.77138" lon="0.47139">
        <ele>3763.5</ele>
        <time>2011-10-01T15:41:03.15</time>
      </trkpt>
      <trkpt lat="42.77128" lon="0.47148">
        <ele>3765.5</ele>
        <time>2011-10-01T15:41:04.13</time>
      </trkpt>
      <trkpt lat="42.77116" lon="0.47156">
        <ele>3764.5</ele>
        <time>2011-10-01T15:41:05.15</time>
      </trkpt>
      <trkpt lat="42.77104" lon="0.47165">
        <ele>3764.5</ele>
        <time>2011-10-01T15:41:06.13</time>
      </trkpt>
      <trkpt lat="42.77093" lon="0.47175">
        <ele>3764.5</ele>
        <time>2011-10-01T15:41:07.14</time>
      </trkpt>
      <trkpt lat="42.7708" lon="0.47184">
        <ele>3765.5</ele>
        <time>2011-10-01T15:41:08.13</time>
      </trkpt>
      <trkpt lat="42.77069" lon="0.47192">
        <ele>3767</ele>
        <time>2011-10-01T15:41:09.15</time>
      </trkpt>
      <trkpt lat="42.77058" lon="0.47198">
        <ele>3767.5</ele>
        <time>2011-10-01T15:41:10.22</time>
      </trkpt>
      <trkpt lat="42.77046" lon="0.47204">
        <ele>3768</ele>
        <time>2011-10-01T15:41:11.15</time>
      </trkpt>
      <trkpt lat="42.77035" lon="0.47208">
        <ele>3766.5</ele>
        <time>2011-10-01T15:41:12.13</time>
      </trkpt>
      <trkpt lat="42.77023" lon="0.47212">
        <ele>3765</ele>
        <time>2011-10-01T15:41:13.15</time>
      </trkpt>
      <trkpt lat="42.76994" lon="0.4722">
        <ele>3764</ele>
        <time>2011-10-01T15:41:15.14</time>
      </trkpt>
      <trkpt lat="42.7698" lon="0.47223">
        <ele>3764.5</ele>
        <time>2011-10-01T15:41:16.13</time>
      </trkpt>
      <trkpt lat="42.76967" lon="0.47224">
        <ele>3764</ele>
        <time>2011-10-01T15:41:17.15</time>
      </trkpt>
      <trkpt lat="42.76954" lon="0.47222">
        <ele>3764</ele>
        <time>2011-10-01T15:41:18.13</time>
      </trkpt>
      <trkpt lat="42.76941" lon="0.47217">
        <ele>3764.5</ele>
        <time>2011-10-01T15:41:19.15</time>
      </trkpt>
      <trkpt lat="42.76921" lon="0.47201">
        <ele>3764.5</ele>
        <time>2011-10-01T15:41:21.15</time>
      </trkpt>
      <trkpt lat="42.76909" lon="0.47185">
        <ele>3765</ele>
        <time>2011-10-01T15:41:23.14</time>
      </trkpt>
      <trkpt lat="42.76902" lon="0.47177">
        <ele>3765.5</ele>
        <time>2011-10-01T15:41:24.14</time>
      </trkpt>
      <trkpt lat="42.76889" lon="0.47153">
        <ele>3765</ele>
        <time>2011-10-01T15:41:26.14</time>
      </trkpt>
      <trkpt lat="42.76883" lon="0.47139">
        <ele>3766</ele>
        <time>2011-10-01T15:41:27.14</time>
      </trkpt>
      <trkpt lat="42.76876" lon="0.47118">
        <ele>3764.5</ele>
        <time>2011-10-01T15:41:29.20</time>
      </trkpt>
      <trkpt lat="42.7687" lon="0.4711">
        <ele>3763</ele>
        <time>2011-10-01T15:41:30.13</time>
      </trkpt>
      <trkpt lat="42.76863" lon="0.47103">
        <ele>3760.5</ele>
        <time>2011-10-01T15:41:31.15</time>
      </trkpt>
      <trkpt lat="42.76824" lon="0.47076">
        <ele>3761</ele>
        <time>2011-10-01T15:41:34.13</time>
      </trkpt>
      <trkpt lat="42.76805" lon="0.47048">
        <ele>3756</ele>
        <time>2011-10-01T15:41:38.17</time>
      </trkpt>
      <trkpt lat="42.76781" lon="0.47016">
        <ele>3754</ele>
        <time>2011-10-01T15:41:41.14</time>
      </trkpt>
      <trkpt lat="42.76761" lon="0.46992">
        <ele>3753.5</ele>
        <time>2011-10-01T15:41:44.14</time>
      </trkpt>
      <trkpt lat="42.76746" lon="0.46971">
        <ele>3752.5</ele>
        <time>2011-10-01T15:41:46.46</time>
      </trkpt>
      <trkpt lat="42.76734" lon="0.46947">
        <ele>3754.5</ele>
        <time>2011-10-01T15:41:48.14</time>
      </trkpt>
      <trkpt lat="42.7673" lon="0.46929">
        <ele>3757</ele>
        <time>2011-10-01T15:41:50.12</time>
      </trkpt>
      <trkpt lat="42.76729" lon="0.4692">
        <ele>3755.5</ele>
        <time>2011-10-01T15:41:51.37</time>
      </trkpt>
      <trkpt lat="42.76724" lon="0.46862">
        <ele>3755</ele>
        <time>2011-10-01T15:41:55.12</time>
      </trkpt>
      <trkpt lat="42.76725" lon="0.46848">
        <ele>3755.5</ele>
        <time>2011-10-01T15:41:56.13</time>
      </trkpt>
      <trkpt lat="42.76727" lon="0.46834">
        <ele>3755.5</ele>
        <time>2011-10-01T15:41:57.14</time>
      </trkpt>
      <trkpt lat="42.7673" lon="0.46821">
        <ele>3755.5</ele>
        <time>2011-10-01T15:41:58.13</time>
      </trkpt>
      <trkpt lat="42.76734" lon="0.46809">
        <ele>3756</ele>
        <time>2011-10-01T15:41:59.14</time>
      </trkpt>
      <trkpt lat="42.76738" lon="0.46796">
        <ele>3758</ele>
        <time>2011-10-01T15:42:00.13</time>
      </trkpt>
      <trkpt lat="42.76744" lon="0.46783">
        <ele>3760</ele>
        <time>2011-10-01T15:42:01.13</time>
      </trkpt>
      <trkpt lat="42.7675" lon="0.4677">
        <ele>3762.5</ele>
        <time>2011-10-01T15:42:02.12</time>
      </trkpt>
      <trkpt lat="42.76757" lon="0.46757">
        <ele>3763</ele>
        <time>2011-10-01T15:42:03.14</time>
      </trkpt>
      <trkpt lat="42.76764" lon="0.46745">
        <ele>3763</ele>
        <time>2011-10-01T15:42:04.13</time>
      </trkpt>
      <trkpt lat="42.76773" lon="0.46735">
        <ele>3764</ele>
        <time>2011-10-01T15:42:05.13</time>
      </trkpt>
      <trkpt lat="42.76788" lon="0.4672">
        <ele>3766</ele>
        <time>2011-10-01T15:42:07.13</time>
      </trkpt>
      <trkpt lat="42.76797" lon="0.46713">
        <ele>3765.5</ele>
        <time>2011-10-01T15:42:08.12</time>
      </trkpt>
      <trkpt lat="42.76808" lon="0.46708">
        <ele>3765.5</ele>
        <time>2011-10-01T15:42:09.12</time>
      </trkpt>
      <trkpt lat="42.76834" lon="0.4671">
        <ele>3767</ele>
        <time>2011-10-01T15:42:11.13</time>
      </trkpt>
      <trkpt lat="42.76849" lon="0.46717">
        <ele>3767.5</ele>
        <time>2011-10-01T15:42:12.13</time>
      </trkpt>
      <trkpt lat="42.76858" lon="0.46735">
        <ele>3770.5</ele>
        <time>2011-10-01T15:42:13.14</time>
      </trkpt>
      <trkpt lat="42.76863" lon="0.4677">
        <ele>3773.5</ele>
        <time>2011-10-01T15:42:15.14</time>
      </trkpt>
      <trkpt lat="42.76856" lon="0.46789">
        <ele>3775.5</ele>
        <time>2011-10-01T15:42:16.12</time>
      </trkpt>
      <trkpt lat="42.76844" lon="0.46802">
        <ele>3779</ele>
        <time>2011-10-01T15:42:17.14</time>
      </trkpt>
      <trkpt lat="42.76819" lon="0.46816">
        <ele>3779.5</ele>
        <time>2011-10-01T15:42:19.12</time>
      </trkpt>
      <trkpt lat="42.76806" lon="0.46819">
        <ele>3781</ele>
        <time>2011-10-01T15:42:20.12</time>
      </trkpt>
      <trkpt lat="42.76792" lon="0.4682">
        <ele>3783.5</ele>
        <time>2011-10-01T15:42:21.12</time>
      </trkpt>
      <trkpt lat="42.76777" lon="0.4682">
        <ele>3786</ele>
        <time>2011-10-01T15:42:22.12</time>
      </trkpt>
      <trkpt lat="42.76765" lon="0.46819">
        <ele>3786.5</ele>
        <time>2011-10-01T15:42:23.14</time>
      </trkpt>
      <trkpt lat="42.76753" lon="0.46817">
        <ele>3787.5</ele>
        <time>2011-10-01T15:42:24.13</time>
      </trkpt>
      <trkpt lat="42.76741" lon="0.46815">
        <ele>3789.5</ele>
        <time>2011-10-01T15:42:25.14</time>
      </trkpt>
      <trkpt lat="42.76729" lon="0.46811">
        <ele>3792</ele>
        <time>2011-10-01T15:42:26.12</time>
      </trkpt>
      <trkpt lat="42.76717" lon="0.46807">
        <ele>3794.5</ele>
        <time>2011-10-01T15:42:27.12</time>
      </trkpt>
      <trkpt lat="42.76705" lon="0.46801">
        <ele>3797</ele>
        <time>2011-10-01T15:42:28.12</time>
      </trkpt>
      <trkpt lat="42.76694" lon="0.46794">
        <ele>3801</ele>
        <time>2011-10-01T15:42:29.14</time>
      </trkpt>
      <trkpt lat="42.76685" lon="0.46785">
        <ele>3802.5</ele>
        <time>2011-10-01T15:42:30.12</time>
      </trkpt>
      <trkpt lat="42.76678" lon="0.46776">
        <ele>3804.5</ele>
        <time>2011-10-01T15:42:31.12</time>
      </trkpt>
      <trkpt lat="42.76671" lon="0.46765">
        <ele>3808</ele>
        <time>2011-10-01T15:42:32.12</time>
      </trkpt>
      <trkpt lat="42.76667" lon="0.46751">
        <ele>3810</ele>
        <time>2011-10-01T15:42:33.14</time>
      </trkpt>
      <trkpt lat="42.76666" lon="0.46735">
        <ele>3811.5</ele>
        <time>2011-10-01T15:42:34.13</time>
      </trkpt>
      <trkpt lat="42.76669" lon="0.46721">
        <ele>3812</ele>
        <time>2011-10-01T15:42:35.14</time>
      </trkpt>
      <trkpt lat="42.76673" lon="0.46706">
        <ele>3814.5</ele>
        <time>2011-10-01T15:42:36.12</time>
      </trkpt>
      <trkpt lat="42.76684" lon="0.46683">
        <ele>3818.5</ele>
        <time>2011-10-01T15:42:38.13</time>
      </trkpt>
      <trkpt lat="42.76689" lon="0.46672">
        <ele>3819.5</ele>
        <time>2011-10-01T15:42:39.12</time>
      </trkpt>
      <trkpt lat="42.76695" lon="0.4666">
        <ele>3819.5</ele>
        <time>2011-10-01T15:42:40.13</time>
      </trkpt>
      <trkpt lat="42.767" lon="0.46648">
        <ele>3819</ele>
        <time>2011-10-01T15:42:41.14</time>
      </trkpt>
      <trkpt lat="42.76701" lon="0.46612">
        <ele>3820</ele>
        <time>2011-10-01T15:42:43.14</time>
      </trkpt>
      <trkpt lat="42.76699" lon="0.46593">
        <ele>3820.5</ele>
        <time>2011-10-01T15:42:44.13</time>
      </trkpt>
      <trkpt lat="42.76697" lon="0.46575">
        <ele>3820.5</ele>
        <time>2011-10-01T15:42:45.12</time>
      </trkpt>
      <trkpt lat="42.76697" lon="0.46559">
        <ele>3821</ele>
        <time>2011-10-01T15:42:46.13</time>
      </trkpt>
      <trkpt lat="42.76695" lon="0.46544">
        <ele>3823.5</ele>
        <time>2011-10-01T15:42:47.14</time>
      </trkpt>
      <trkpt lat="42.76693" lon="0.46532">
        <ele>3826</ele>
        <time>2011-10-01T15:42:48.13</time>
      </trkpt>
      <trkpt lat="42.76691" lon="0.46519">
        <ele>3826.5</ele>
        <time>2011-10-01T15:42:49.12</time>
      </trkpt>
      <trkpt lat="42.76691" lon="0.46504">
        <ele>3827</ele>
        <time>2011-10-01T15:42:50.13</time>
      </trkpt>
      <trkpt lat="42.76697" lon="0.4647">
        <ele>3828</ele>
        <time>2011-10-01T15:42:52.12</time>
      </trkpt>
      <trkpt lat="42.767" lon="0.46455">
        <ele>3830</ele>
        <time>2011-10-01T15:42:53.12</time>
      </trkpt>
      <trkpt lat="42.76705" lon="0.46442">
        <ele>3831</ele>
        <time>2011-10-01T15:42:54.12</time>
      </trkpt>
      <trkpt lat="42.7671" lon="0.46428">
        <ele>3831.5</ele>
        <time>2011-10-01T15:42:55.15</time>
      </trkpt>
      <trkpt lat="42.76726" lon="0.464">
        <ele>3833.5</ele>
        <time>2011-10-01T15:42:57.12</time>
      </trkpt>
      <trkpt lat="42.76735" lon="0.46387">
        <ele>3835</ele>
        <time>2011-10-01T15:42:58.13</time>
      </trkpt>
      <trkpt lat="42.76745" lon="0.46377">
        <ele>3836.5</ele>
        <time>2011-10-01T15:42:59.12</time>
      </trkpt>
      <trkpt lat="42.76756" lon="0.4637">
        <ele>3837</ele>
        <time>2011-10-01T15:43:00.12</time>
      </trkpt>
      <trkpt lat="42.76777" lon="0.46364">
        <ele>3838.5</ele>
        <time>2011-10-01T15:43:02.13</time>
      </trkpt>
      <trkpt lat="42.76805" lon="0.46369">
        <ele>3836.5</ele>
        <time>2011-10-01T15:43:04.13</time>
      </trkpt>
      <trkpt lat="42.76818" lon="0.46377">
        <ele>3838</ele>
        <time>2011-10-01T15:43:05.12</time>
      </trkpt>
      <trkpt lat="42.76829" lon="0.46387">
        <ele>3839.5</ele>
        <time>2011-10-01T15:43:06.12</time>
      </trkpt>
      <trkpt lat="42.76838" lon="0.464">
        <ele>3840.5</ele>
        <time>2011-10-01T15:43:07.12</time>
      </trkpt>
      <trkpt lat="42.76843" lon="0.46417">
        <ele>3841</ele>
        <time>2011-10-01T15:43:08.12</time>
      </trkpt>
      <trkpt lat="42.76848" lon="0.46435">
        <ele>3841</ele>
        <time>2011-10-01T15:43:09.12</time>
      </trkpt>
      <trkpt lat="42.7685" lon="0.46454">
        <ele>3841</ele>
        <time>2011-10-01T15:43:10.12</time>
      </trkpt>
      <trkpt lat="42.76849" lon="0.46473">
        <ele>3842.5</ele>
        <time>2011-10-01T15:43:11.14</time>
      </trkpt>
      <trkpt lat="42.76847" lon="0.46491">
        <ele>3841</ele>
        <time>2011-10-01T15:43:12.14</time>
      </trkpt>
      <trkpt lat="42.76842" lon="0.46508">
        <ele>3840.5</ele>
        <time>2011-10-01T15:43:13.16</time>
      </trkpt>
      <trkpt lat="42.76835" lon="0.46522">
        <ele>3841</ele>
        <time>2011-10-01T15:43:14.12</time>
      </trkpt>
      <trkpt lat="42.76826" lon="0.46535">
        <ele>3842.5</ele>
        <time>2011-10-01T15:43:15.12</time>
      </trkpt>
      <trkpt lat="42.76815" lon="0.46544">
        <ele>3842</ele>
        <time>2011-10-01T15:43:16.13</time>
      </trkpt>
      <trkpt lat="42.76803" lon="0.46551">
        <ele>3843</ele>
        <time>2011-10-01T15:43:17.15</time>
      </trkpt>
      <trkpt lat="42.76789" lon="0.46554">
        <ele>3843</ele>
        <time>2011-10-01T15:43:18.14</time>
      </trkpt>
      <trkpt lat="42.76776" lon="0.46553">
        <ele>3843</ele>
        <time>2011-10-01T15:43:19.15</time>
      </trkpt>
      <trkpt lat="42.76763" lon="0.46547">
        <ele>3843</ele>
        <time>2011-10-01T15:43:20.13</time>
      </trkpt>
      <trkpt lat="42.7675" lon="0.46522">
        <ele>3841</ele>
        <time>2011-10-01T15:43:22.15</time>
      </trkpt>
      <trkpt lat="42.76752" lon="0.46505">
        <ele>3841</ele>
        <time>2011-10-01T15:43:23.16</time>
      </trkpt>
      <trkpt lat="42.76756" lon="0.46489">
        <ele>3841</ele>
        <time>2011-10-01T15:43:24.14</time>
      </trkpt>
      <trkpt lat="42.76765" lon="0.46477">
        <ele>3841</ele>
        <time>2011-10-01T15:43:25.16</time>
      </trkpt>
      <trkpt lat="42.76773" lon="0.46464">
        <ele>3842</ele>
        <time>2011-10-01T15:43:26.13</time>
      </trkpt>
      <trkpt lat="42.76781" lon="0.46452">
        <ele>3841</ele>
        <time>2011-10-01T15:43:27.14</time>
      </trkpt>
      <trkpt lat="42.7679" lon="0.4644">
        <ele>3839</ele>
        <time>2011-10-01T15:43:28.13</time>
      </trkpt>
      <trkpt lat="42.76798" lon="0.46428">
        <ele>3838</ele>
        <time>2011-10-01T15:43:29.16</time>
      </trkpt>
      <trkpt lat="42.76806" lon="0.46414">
        <ele>3837</ele>
        <time>2011-10-01T15:43:30.14</time>
      </trkpt>
      <trkpt lat="42.76811" lon="0.464">
        <ele>3835.5</ele>
        <time>2011-10-01T15:43:31.14</time>
      </trkpt>
      <trkpt lat="42.76815" lon="0.46384">
        <ele>3835.5</ele>
        <time>2011-10-01T15:43:32.13</time>
      </trkpt>
      <trkpt lat="42.76818" lon="0.46367">
        <ele>3834</ele>
        <time>2011-10-01T15:43:33.15</time>
      </trkpt>
      <trkpt lat="42.7682" lon="0.46349">
        <ele>3832</ele>
        <time>2011-10-01T15:43:34.13</time>
      </trkpt>
      <trkpt lat="42.76821" lon="0.46331">
        <ele>3831.5</ele>
        <time>2011-10-01T15:43:35.16</time>
      </trkpt>
      <trkpt lat="42.76823" lon="0.46313">
        <ele>3831.5</ele>
        <time>2011-10-01T15:43:36.12</time>
      </trkpt>
      <trkpt lat="42.76824" lon="0.46296">
        <ele>3832.5</ele>
        <time>2011-10-01T15:43:37.15</time>
      </trkpt>
      <trkpt lat="42.76826" lon="0.46281">
        <ele>3832.5</ele>
        <time>2011-10-01T15:43:38.15</time>
      </trkpt>
      <trkpt lat="42.76828" lon="0.46266">
        <ele>3832.5</ele>
        <time>2011-10-01T15:43:39.16</time>
      </trkpt>
      <trkpt lat="42.76829" lon="0.46251">
        <ele>3832</ele>
        <time>2011-10-01T15:43:40.14</time>
      </trkpt>
      <trkpt lat="42.76831" lon="0.46235">
        <ele>3830</ele>
        <time>2011-10-01T15:43:41.16</time>
      </trkpt>
      <trkpt lat="42.76833" lon="0.46219">
        <ele>3828.5</ele>
        <time>2011-10-01T15:43:42.12</time>
      </trkpt>
      <trkpt lat="42.76833" lon="0.46202">
        <ele>3828.5</ele>
        <time>2011-10-01T15:43:43.17</time>
      </trkpt>
      <trkpt lat="42.76832" lon="0.46183">
        <ele>3828.5</ele>
        <time>2011-10-01T15:43:44.13</time>
      </trkpt>
      <trkpt lat="42.76831" lon="0.46165">
        <ele>3826.5</ele>
        <time>2011-10-01T15:43:45.15</time>
      </trkpt>
      <trkpt lat="42.76826" lon="0.46148">
        <ele>3825</ele>
        <time>2011-10-01T15:43:46.14</time>
      </trkpt>
      <trkpt lat="42.76818" lon="0.46132">
        <ele>3825</ele>
        <time>2011-10-01T15:43:47.15</time>
      </trkpt>
      <trkpt lat="42.76799" lon="0.46114">
        <ele>3824</ele>
        <time>2011-10-01T15:43:49.12</time>
      </trkpt>
      <trkpt lat="42.76787" lon="0.46105">
        <ele>3824</ele>
        <time>2011-10-01T15:43:50.14</time>
      </trkpt>
      <trkpt lat="42.76766" lon="0.46093">
        <ele>3819.5</ele>
        <time>2011-10-01T15:43:52.12</time>
      </trkpt>
      <trkpt lat="42.76755" lon="0.4609">
        <ele>3817.5</ele>
        <time>2011-10-01T15:43:53.14</time>
      </trkpt>
      <trkpt lat="42.76743" lon="0.46087">
        <ele>3818</ele>
        <time>2011-10-01T15:43:54.14</time>
      </trkpt>
      <trkpt lat="42.76729" lon="0.46087">
        <ele>3818</ele>
        <time>2011-10-01T15:43:55.14</time>
      </trkpt>
      <trkpt lat="42.76716" lon="0.4609">
        <ele>3818.5</ele>
        <time>2011-10-01T15:43:56.13</time>
      </trkpt>
      <trkpt lat="42.76696" lon="0.46095">
        <ele>3818.5</ele>
        <time>2011-10-01T15:43:58.12</time>
      </trkpt>
      <trkpt lat="42.76686" lon="0.46096">
        <ele>3817</ele>
        <time>2011-10-01T15:43:59.12</time>
      </trkpt>
      <trkpt lat="42.76675" lon="0.46097">
        <ele>3817</ele>
        <time>2011-10-01T15:44:00.13</time>
      </trkpt>
      <trkpt lat="42.76664" lon="0.46097">
        <ele>3817</ele>
        <time>2011-10-01T15:44:01.14</time>
      </trkpt>
      <trkpt lat="42.76651" lon="0.46096">
        <ele>3817</ele>
        <time>2011-10-01T15:44:02.13</time>
      </trkpt>
      <trkpt lat="42.76639" lon="0.46096">
        <ele>3815</ele>
        <time>2011-10-01T15:44:03.12</time>
      </trkpt>
      <trkpt lat="42.76627" lon="0.46096">
        <ele>3813.5</ele>
        <time>2011-10-01T15:44:04.13</time>
      </trkpt>
      <trkpt lat="42.76616" lon="0.46097">
        <ele>3812.5</ele>
        <time>2011-10-01T15:44:05.14</time>
      </trkpt>
      <trkpt lat="42.76606" lon="0.461">
        <ele>3811.5</ele>
        <time>2011-10-01T15:44:06.13</time>
      </trkpt>
      <trkpt lat="42.76597" lon="0.46105">
        <ele>3810.5</ele>
        <time>2011-10-01T15:44:07.14</time>
      </trkpt>
      <trkpt lat="42.76589" lon="0.4611">
        <ele>3809</ele>
        <time>2011-10-01T15:44:08.12</time>
      </trkpt>
      <trkpt lat="42.76581" lon="0.46119">
        <ele>3809</ele>
        <time>2011-10-01T15:44:09.14</time>
      </trkpt>
      <trkpt lat="42.76572" lon="0.46127">
        <ele>3808.5</ele>
        <time>2011-10-01T15:44:10.13</time>
      </trkpt>
      <trkpt lat="42.76562" lon="0.46135">
        <ele>3808.5</ele>
        <time>2011-10-01T15:44:11.15</time>
      </trkpt>
      <trkpt lat="42.76551" lon="0.4614">
        <ele>3808</ele>
        <time>2011-10-01T15:44:12.13</time>
      </trkpt>
      <trkpt lat="42.76539" lon="0.46143">
        <ele>3808</ele>
        <time>2011-10-01T15:44:13.15</time>
      </trkpt>
      <trkpt lat="42.76517" lon="0.46139">
        <ele>3799.5</ele>
        <time>2011-10-01T15:44:15.14</time>
      </trkpt>
      <trkpt lat="42.76506" lon="0.46132">
        <ele>3798</ele>
        <time>2011-10-01T15:44:16.13</time>
      </trkpt>
      <trkpt lat="42.76496" lon="0.46123">
        <ele>3798</ele>
        <time>2011-10-01T15:44:17.14</time>
      </trkpt>
      <trkpt lat="42.76486" lon="0.46112">
        <ele>3798</ele>
        <time>2011-10-01T15:44:18.14</time>
      </trkpt>
      <trkpt lat="42.76478" lon="0.46101">
        <ele>3792</ele>
        <time>2011-10-01T15:44:19.14</time>
      </trkpt>
      <trkpt lat="42.76466" lon="0.4609">
        <ele>3791.5</ele>
        <time>2011-10-01T15:44:20.13</time>
      </trkpt>
      <trkpt lat="42.76455" lon="0.46079">
        <ele>3791</ele>
        <time>2011-10-01T15:44:21.14</time>
      </trkpt>
      <trkpt lat="42.76443" lon="0.46068">
        <ele>3790.5</ele>
        <time>2011-10-01T15:44:22.14</time>
      </trkpt>
      <trkpt lat="42.76431" lon="0.46056">
        <ele>3790.5</ele>
        <time>2011-10-01T15:44:23.14</time>
      </trkpt>
      <trkpt lat="42.76419" lon="0.46043">
        <ele>3790.5</ele>
        <time>2011-10-01T15:44:24.14</time>
      </trkpt>
      <trkpt lat="42.76406" lon="0.4603">
        <ele>3790</ele>
        <time>2011-10-01T15:44:25.14</time>
      </trkpt>
      <trkpt lat="42.76389" lon="0.46005">
        <ele>3772</ele>
        <time>2011-10-01T15:44:27.14</time>
      </trkpt>
      <trkpt lat="42.76371" lon="0.45983">
        <ele>3759.5</ele>
        <time>2011-10-01T15:44:29.14</time>
      </trkpt>
      <trkpt lat="42.76359" lon="0.45976">
        <ele>3759.5</ele>
        <time>2011-10-01T15:44:30.13</time>
      </trkpt>
      <trkpt lat="42.76346" lon="0.45969">
        <ele>3759</ele>
        <time>2011-10-01T15:44:31.17</time>
      </trkpt>
      <trkpt lat="42.76332" lon="0.45965">
        <ele>3759</ele>
        <time>2011-10-01T15:44:32.18</time>
      </trkpt>
      <trkpt lat="42.76316" lon="0.45963">
        <ele>3758.5</ele>
        <time>2011-10-01T15:44:33.14</time>
      </trkpt>
      <trkpt lat="42.76282" lon="0.45982">
        <ele>3756.5</ele>
        <time>2011-10-01T15:44:36.14</time>
      </trkpt>
      <trkpt lat="42.76275" lon="0.45995">
        <ele>3755</ele>
        <time>2011-10-01T15:44:37.14</time>
      </trkpt>
      <trkpt lat="42.7627" lon="0.4601">
        <ele>3754.5</ele>
        <time>2011-10-01T15:44:38.22</time>
      </trkpt>
      <trkpt lat="42.76266" lon="0.46045">
        <ele>3753.5</ele>
        <time>2011-10-01T15:44:40.14</time>
      </trkpt>
      <trkpt lat="42.76267" lon="0.46061">
        <ele>3753</ele>
        <time>2011-10-01T15:44:41.18</time>
      </trkpt>
      <trkpt lat="42.76264" lon="0.46074">
        <ele>3749</ele>
        <time>2011-10-01T15:44:42.22</time>
      </trkpt>
      <trkpt lat="42.76267" lon="0.46088">
        <ele>3742</ele>
        <time>2011-10-01T15:44:43.15</time>
      </trkpt>
      <trkpt lat="42.76268" lon="0.46102">
        <ele>3734.5</ele>
        <time>2011-10-01T15:44:44.17</time>
      </trkpt>
      <trkpt lat="42.76273" lon="0.46116">
        <ele>3729.5</ele>
        <time>2011-10-01T15:44:45.18</time>
      </trkpt>
      <trkpt lat="42.76276" lon="0.46131">
        <ele>3729</ele>
        <time>2011-10-01T15:44:46.15</time>
      </trkpt>
      <trkpt lat="42.76286" lon="0.46165">
        <ele>3720</ele>
        <time>2011-10-01T15:44:48.19</time>
      </trkpt>
      <trkpt lat="42.76287" lon="0.4618">
        <ele>3718</ele>
        <time>2011-10-01T15:44:49.14</time>
      </trkpt>
      <trkpt lat="42.76287" lon="0.46196">
        <ele>3710.5</ele>
        <time>2011-10-01T15:44:50.14</time>
      </trkpt>
      <trkpt lat="42.76288" lon="0.46213">
        <ele>3704.5</ele>
        <time>2011-10-01T15:44:51.26</time>
      </trkpt>
      <trkpt lat="42.76282" lon="0.46229">
        <ele>3698.5</ele>
        <time>2011-10-01T15:44:52.14</time>
      </trkpt>
      <trkpt lat="42.76278" lon="0.46243">
        <ele>3695</ele>
        <time>2011-10-01T15:44:53.14</time>
      </trkpt>
      <trkpt lat="42.76259" lon="0.46257">
        <ele>3691.5</ele>
        <time>2011-10-01T15:44:55.22</time>
      </trkpt>
      <trkpt lat="42.76249" lon="0.4626">
        <ele>3691.5</ele>
        <time>2011-10-01T15:44:56.14</time>
      </trkpt>
      <trkpt lat="42.76239" lon="0.46263">
        <ele>3691</ele>
        <time>2011-10-01T15:44:57.22</time>
      </trkpt>
      <trkpt lat="42.76228" lon="0.46267">
        <ele>3692.5</ele>
        <time>2011-10-01T15:44:58.12</time>
      </trkpt>
      <trkpt lat="42.76217" lon="0.46273">
        <ele>3690.5</ele>
        <time>2011-10-01T15:44:59.14</time>
      </trkpt>
      <trkpt lat="42.76206" lon="0.46283">
        <ele>3690</ele>
        <time>2011-10-01T15:45:00.19</time>
      </trkpt>
      <trkpt lat="42.76194" lon="0.46291">
        <ele>3689.5</ele>
        <time>2011-10-01T15:45:01.15</time>
      </trkpt>
      <trkpt lat="42.76175" lon="0.46301">
        <ele>3687.5</ele>
        <time>2011-10-01T15:45:03.15</time>
      </trkpt>
      <trkpt lat="42.76164" lon="0.46301">
        <ele>3687</ele>
        <time>2011-10-01T15:45:04.21</time>
      </trkpt>
      <trkpt lat="42.76151" lon="0.463">
        <ele>3688</ele>
        <time>2011-10-01T15:45:05.19</time>
      </trkpt>
      <trkpt lat="42.76106" lon="0.46282">
        <ele>3687.5</ele>
        <time>2011-10-01T15:45:08.14</time>
      </trkpt>
      <trkpt lat="42.76093" lon="0.46273">
        <ele>3687</ele>
        <time>2011-10-01T15:45:09.22</time>
      </trkpt>
      <trkpt lat="42.7608" lon="0.46263">
        <ele>3687</ele>
        <time>2011-10-01T15:45:10.13</time>
      </trkpt>
      <trkpt lat="42.7607" lon="0.46232">
        <ele>3687.5</ele>
        <time>2011-10-01T15:45:12.21</time>
      </trkpt>
      <trkpt lat="42.76067" lon="0.46214">
        <ele>3690</ele>
        <time>2011-10-01T15:45:13.22</time>
      </trkpt>
      <trkpt lat="42.76065" lon="0.46196">
        <ele>3691</ele>
        <time>2011-10-01T15:45:14.20</time>
      </trkpt>
      <trkpt lat="42.76066" lon="0.46178">
        <ele>3691</ele>
        <time>2011-10-01T15:45:15.17</time>
      </trkpt>
      <trkpt lat="42.7607" lon="0.4616">
        <ele>3691.5</ele>
        <time>2011-10-01T15:45:16.21</time>
      </trkpt>
      <trkpt lat="42.76076" lon="0.46145">
        <ele>3693.5</ele>
        <time>2011-10-01T15:45:17.12</time>
      </trkpt>
      <trkpt lat="42.76084" lon="0.46135">
        <ele>3695</ele>
        <time>2011-10-01T15:45:18.19</time>
      </trkpt>
      <trkpt lat="42.76094" lon="0.46126">
        <ele>3693.5</ele>
        <time>2011-10-01T15:45:19.15</time>
      </trkpt>
      <trkpt lat="42.76104" lon="0.46119">
        <ele>3693.5</ele>
        <time>2011-10-01T15:45:20.20</time>
      </trkpt>
      <trkpt lat="42.76114" lon="0.46113">
        <ele>3693</ele>
        <time>2011-10-01T15:45:21.25</time>
      </trkpt>
      <trkpt lat="42.76126" lon="0.4611">
        <ele>3692.5</ele>
        <time>2011-10-01T15:45:22.19</time>
      </trkpt>
      <trkpt lat="42.76139" lon="0.46111">
        <ele>3692.5</ele>
        <time>2011-10-01T15:45:23.23</time>
      </trkpt>
      <trkpt lat="42.76149" lon="0.46116">
        <ele>3692.5</ele>
        <time>2011-10-01T15:45:24.19</time>
      </trkpt>
      <trkpt lat="42.76159" lon="0.46122">
        <ele>3693</ele>
        <time>2011-10-01T15:45:25.15</time>
      </trkpt>
      <trkpt lat="42.76169" lon="0.46144">
        <ele>3692</ele>
        <time>2011-10-01T15:45:27.22</time>
      </trkpt>
      <trkpt lat="42.76178" lon="0.46198">
        <ele>3694</ele>
        <time>2011-10-01T15:45:30.19</time>
      </trkpt>
      <trkpt lat="42.76176" lon="0.46214">
        <ele>3695.5</ele>
        <time>2011-10-01T15:45:31.17</time>
      </trkpt>
      <trkpt lat="42.76172" lon="0.46228">
        <ele>3695</ele>
        <time>2011-10-01T15:45:32.13</time>
      </trkpt>
      <trkpt lat="42.76165" lon="0.46238">
        <ele>3695</ele>
        <time>2011-10-01T15:45:33.15</time>
      </trkpt>
      <trkpt lat="42.7614" lon="0.46235">
        <ele>3695</ele>
        <time>2011-10-01T15:45:35.20</time>
      </trkpt>
      <trkpt lat="42.76126" lon="0.46211">
        <ele>3694.5</ele>
        <time>2011-10-01T15:45:37.22</time>
      </trkpt>
      <trkpt lat="42.76121" lon="0.46198">
        <ele>3696</ele>
        <time>2011-10-01T15:45:38.15</time>
      </trkpt>
      <trkpt lat="42.76119" lon="0.46185">
        <ele>3694.5</ele>
        <time>2011-10-01T15:45:39.22</time>
      </trkpt>
      <trkpt lat="42.76116" lon="0.4617">
        <ele>3693.5</ele>
        <time>2011-10-01T15:45:40.15</time>
      </trkpt>
      <trkpt lat="42.76114" lon="0.46153">
        <ele>3693</ele>
        <time>2011-10-01T15:45:41.22</time>
      </trkpt>
      <trkpt lat="42.76111" lon="0.46137">
        <ele>3693</ele>
        <time>2011-10-01T15:45:42.19</time>
      </trkpt>
      <trkpt lat="42.76106" lon="0.46122">
        <ele>3695</ele>
        <time>2011-10-01T15:45:43.20</time>
      </trkpt>
      <trkpt lat="42.76101" lon="0.46109">
        <ele>3696.5</ele>
        <time>2011-10-01T15:45:44.18</time>
      </trkpt>
      <trkpt lat="42.76094" lon="0.46097">
        <ele>3696</ele>
        <time>2011-10-01T15:45:45.22</time>
      </trkpt>
      <trkpt lat="42.76085" lon="0.46086">
        <ele>3695.5</ele>
        <time>2011-10-01T15:45:46.18</time>
      </trkpt>
      <trkpt lat="42.76075" lon="0.46075">
        <ele>3694</ele>
        <time>2011-10-01T15:45:47.18</time>
      </trkpt>
      <trkpt lat="42.76065" lon="0.46063">
        <ele>3693</ele>
        <time>2011-10-01T15:45:48.18</time>
      </trkpt>
      <trkpt lat="42.76055" lon="0.46049">
        <ele>3694.5</ele>
        <time>2011-10-01T15:45:49.14</time>
      </trkpt>
      <trkpt lat="42.76047" lon="0.46034">
        <ele>3696</ele>
        <time>2011-10-01T15:45:50.13</time>
      </trkpt>
      <trkpt lat="42.7604" lon="0.46018">
        <ele>3698</ele>
        <time>2011-10-01T15:45:51.14</time>
      </trkpt>
      <trkpt lat="42.76036" lon="0.46">
        <ele>3699.5</ele>
        <time>2011-10-01T15:45:52.26</time>
      </trkpt>
      <trkpt lat="42.76035" lon="0.45982">
        <ele>3699.5</ele>
        <time>2011-10-01T15:45:53.14</time>
      </trkpt>
      <trkpt lat="42.76036" lon="0.45965">
        <ele>3700</ele>
        <time>2011-10-01T15:45:54.14</time>
      </trkpt>
      <trkpt lat="42.76042" lon="0.45948">
        <ele>3700.5</ele>
        <time>2011-10-01T15:45:55.12</time>
      </trkpt>
      <trkpt lat="42.76052" lon="0.45936">
        <ele>3701</ele>
        <time>2011-10-01T15:45:56.12</time>
      </trkpt>
      <trkpt lat="42.76062" lon="0.45924">
        <ele>3701</ele>
        <time>2011-10-01T15:45:57.14</time>
      </trkpt>
      <trkpt lat="42.76072" lon="0.45915">
        <ele>3701.5</ele>
        <time>2011-10-01T15:45:58.13</time>
      </trkpt>
      <trkpt lat="42.76084" lon="0.45908">
        <ele>3701.5</ele>
        <time>2011-10-01T15:45:59.14</time>
      </trkpt>
      <trkpt lat="42.76098" lon="0.45903">
        <ele>3699</ele>
        <time>2011-10-01T15:46:00.13</time>
      </trkpt>
      <trkpt lat="42.76112" lon="0.459">
        <ele>3698</ele>
        <time>2011-10-01T15:46:01.12</time>
      </trkpt>
      <trkpt lat="42.76126" lon="0.45896">
        <ele>3697.5</ele>
        <time>2011-10-01T15:46:02.14</time>
      </trkpt>
      <trkpt lat="42.7614" lon="0.45892">
        <ele>3697.5</ele>
        <time>2011-10-01T15:46:03.14</time>
      </trkpt>
      <trkpt lat="42.76154" lon="0.45889">
        <ele>3697</ele>
        <time>2011-10-01T15:46:04.14</time>
      </trkpt>
      <trkpt lat="42.76167" lon="0.45885">
        <ele>3696.5</ele>
        <time>2011-10-01T15:46:05.14</time>
      </trkpt>
      <trkpt lat="42.7618" lon="0.45882">
        <ele>3696</ele>
        <time>2011-10-01T15:46:06.13</time>
      </trkpt>
      <trkpt lat="42.76193" lon="0.4588">
        <ele>3696</ele>
        <time>2011-10-01T15:46:07.13</time>
      </trkpt>
      <trkpt lat="42.76204" lon="0.45881">
        <ele>3695.5</ele>
        <time>2011-10-01T15:46:08.13</time>
      </trkpt>
      <trkpt lat="42.76215" lon="0.45882">
        <ele>3695</ele>
        <time>2011-10-01T15:46:09.14</time>
      </trkpt>
      <trkpt lat="42.76224" lon="0.45891">
        <ele>3695</ele>
        <time>2011-10-01T15:46:10.13</time>
      </trkpt>
      <trkpt lat="42.76232" lon="0.45903">
        <ele>3695</ele>
        <time>2011-10-01T15:46:11.16</time>
      </trkpt>
      <trkpt lat="42.76204" lon="0.4596">
        <ele>3692</ele>
        <time>2011-10-01T15:46:14.14</time>
      </trkpt>
      <trkpt lat="42.76196" lon="0.45975">
        <ele>3691</ele>
        <time>2011-10-01T15:46:15.15</time>
      </trkpt>
      <trkpt lat="42.76177" lon="0.4599">
        <ele>3689</ele>
        <time>2011-10-01T15:46:17.19</time>
      </trkpt>
      <trkpt lat="42.76155" lon="0.45991">
        <ele>3687</ele>
        <time>2011-10-01T15:46:19.16</time>
      </trkpt>
      <trkpt lat="42.76145" lon="0.45988">
        <ele>3684</ele>
        <time>2011-10-01T15:46:20.17</time>
      </trkpt>
      <trkpt lat="42.76132" lon="0.45984">
        <ele>3681.5</ele>
        <time>2011-10-01T15:46:21.14</time>
      </trkpt>
      <trkpt lat="42.7612" lon="0.45979">
        <ele>3680.5</ele>
        <time>2011-10-01T15:46:22.19</time>
      </trkpt>
      <trkpt lat="42.76107" lon="0.45973">
        <ele>3680.5</ele>
        <time>2011-10-01T15:46:23.17</time>
      </trkpt>
      <trkpt lat="42.76095" lon="0.45968">
        <ele>3678.5</ele>
        <time>2011-10-01T15:46:24.16</time>
      </trkpt>
      <trkpt lat="42.76081" lon="0.45965">
        <ele>3677.5</ele>
        <time>2011-10-01T15:46:25.19</time>
      </trkpt>
      <trkpt lat="42.76068" lon="0.45964">
        <ele>3677.5</ele>
        <time>2011-10-01T15:46:26.14</time>
      </trkpt>
      <trkpt lat="42.76046" lon="0.4597">
        <ele>3677.5</ele>
        <time>2011-10-01T15:46:28.19</time>
      </trkpt>
      <trkpt lat="42.76034" lon="0.45976">
        <ele>3678.5</ele>
        <time>2011-10-01T15:46:29.15</time>
      </trkpt>
      <trkpt lat="42.76023" lon="0.45985">
        <ele>3677</ele>
        <time>2011-10-01T15:46:30.14</time>
      </trkpt>
      <trkpt lat="42.76013" lon="0.45995">
        <ele>3675.5</ele>
        <time>2011-10-01T15:46:31.22</time>
      </trkpt>
      <trkpt lat="42.76003" lon="0.46009">
        <ele>3676</ele>
        <time>2011-10-01T15:46:32.15</time>
      </trkpt>
      <trkpt lat="42.75995" lon="0.46021">
        <ele>3677.5</ele>
        <time>2011-10-01T15:46:33.19</time>
      </trkpt>
      <trkpt lat="42.7598" lon="0.46038">
        <ele>3676.5</ele>
        <time>2011-10-01T15:46:35.14</time>
      </trkpt>
      <trkpt lat="42.75971" lon="0.46046">
        <ele>3676</ele>
        <time>2011-10-01T15:46:36.13</time>
      </trkpt>
      <trkpt lat="42.75961" lon="0.46054">
        <ele>3675.5</ele>
        <time>2011-10-01T15:46:37.19</time>
      </trkpt>
      <trkpt lat="42.75949" lon="0.46061">
        <ele>3675.5</ele>
        <time>2011-10-01T15:46:38.15</time>
      </trkpt>
      <trkpt lat="42.75937" lon="0.46065">
        <ele>3672.5</ele>
        <time>2011-10-01T15:46:39.19</time>
      </trkpt>
      <trkpt lat="42.75925" lon="0.46063">
        <ele>3671</ele>
        <time>2011-10-01T15:46:40.19</time>
      </trkpt>
      <trkpt lat="42.75913" lon="0.46059">
        <ele>3671.5</ele>
        <time>2011-10-01T15:46:41.19</time>
      </trkpt>
      <trkpt lat="42.75903" lon="0.46047">
        <ele>3671.5</ele>
        <time>2011-10-01T15:46:42.13</time>
      </trkpt>
      <trkpt lat="42.75899" lon="0.4603">
        <ele>3672.5</ele>
        <time>2011-10-01T15:46:43.19</time>
      </trkpt>
      <trkpt lat="42.75902" lon="0.4599">
        <ele>3675.5</ele>
        <time>2011-10-01T15:46:45.19</time>
      </trkpt>
      <trkpt lat="42.75913" lon="0.45975">
        <ele>3675.5</ele>
        <time>2011-10-01T15:46:46.17</time>
      </trkpt>
      <trkpt lat="42.75926" lon="0.45963">
        <ele>3675.5</ele>
        <time>2011-10-01T15:46:47.19</time>
      </trkpt>
      <trkpt lat="42.75939" lon="0.45956">
        <ele>3676</ele>
        <time>2011-10-01T15:46:48.19</time>
      </trkpt>
      <trkpt lat="42.75952" lon="0.45952">
        <ele>3675.5</ele>
        <time>2011-10-01T15:46:49.14</time>
      </trkpt>
      <trkpt lat="42.75965" lon="0.45949">
        <ele>3675</ele>
        <time>2011-10-01T15:46:50.15</time>
      </trkpt>
      <trkpt lat="42.75978" lon="0.45947">
        <ele>3673.5</ele>
        <time>2011-10-01T15:46:51.19</time>
      </trkpt>
      <trkpt lat="42.7599" lon="0.45946">
        <ele>3671.5</ele>
        <time>2011-10-01T15:46:52.15</time>
      </trkpt>
      <trkpt lat="42.76003" lon="0.45945">
        <ele>3668.5</ele>
        <time>2011-10-01T15:46:53.14</time>
      </trkpt>
      <trkpt lat="42.76016" lon="0.45946">
        <ele>3666.5</ele>
        <time>2011-10-01T15:46:54.13</time>
      </trkpt>
      <trkpt lat="42.76044" lon="0.45956">
        <ele>3665</ele>
        <time>2011-10-01T15:46:56.21</time>
      </trkpt>
      <trkpt lat="42.76064" lon="0.45977">
        <ele>3666.5</ele>
        <time>2011-10-01T15:46:58.17</time>
      </trkpt>
      <trkpt lat="42.76067" lon="0.46003">
        <ele>3667.5</ele>
        <time>2011-10-01T15:47:00.13</time>
      </trkpt>
      <trkpt lat="42.76066" lon="0.46018">
        <ele>3666.5</ele>
        <time>2011-10-01T15:47:01.19</time>
      </trkpt>
      <trkpt lat="42.7606" lon="0.46033">
        <ele>3666</ele>
        <time>2011-10-01T15:47:02.16</time>
      </trkpt>
      <trkpt lat="42.76053" lon="0.46046">
        <ele>3665.5</ele>
        <time>2011-10-01T15:47:03.18</time>
      </trkpt>
      <trkpt lat="42.76043" lon="0.46055">
        <ele>3664.5</ele>
        <time>2011-10-01T15:47:04.20</time>
      </trkpt>
      <trkpt lat="42.76023" lon="0.46061">
        <ele>3664.5</ele>
        <time>2011-10-01T15:47:06.14</time>
      </trkpt>
      <trkpt lat="42.76013" lon="0.46059">
        <ele>3664.5</ele>
        <time>2011-10-01T15:47:07.14</time>
      </trkpt>
      <trkpt lat="42.76003" lon="0.46054">
        <ele>3664.5</ele>
        <time>2011-10-01T15:47:08.13</time>
      </trkpt>
      <trkpt lat="42.75994" lon="0.46046">
        <ele>3662.5</ele>
        <time>2011-10-01T15:47:09.15</time>
      </trkpt>
      <trkpt lat="42.75984" lon="0.46036">
        <ele>3662</ele>
        <time>2011-10-01T15:47:10.20</time>
      </trkpt>
      <trkpt lat="42.75975" lon="0.46025">
        <ele>3663</ele>
        <time>2011-10-01T15:47:11.14</time>
      </trkpt>
      <trkpt lat="42.75967" lon="0.46012">
        <ele>3664</ele>
        <time>2011-10-01T15:47:12.13</time>
      </trkpt>
      <trkpt lat="42.7596" lon="0.45999">
        <ele>3665.5</ele>
        <time>2011-10-01T15:47:13.15</time>
      </trkpt>
      <trkpt lat="42.75955" lon="0.45984">
        <ele>3665.5</ele>
        <time>2011-10-01T15:47:14.20</time>
      </trkpt>
      <trkpt lat="42.75952" lon="0.45968">
        <ele>3665.5</ele>
        <time>2011-10-01T15:47:15.18</time>
      </trkpt>
      <trkpt lat="42.75952" lon="0.4595">
        <ele>3665.5</ele>
        <time>2011-10-01T15:47:16.21</time>
      </trkpt>
      <trkpt lat="42.75953" lon="0.45933">
        <ele>3665</ele>
        <time>2011-10-01T15:47:17.18</time>
      </trkpt>
      <trkpt lat="42.75956" lon="0.45914">
        <ele>3665</ele>
        <time>2011-10-01T15:47:18.20</time>
      </trkpt>
      <trkpt lat="42.75962" lon="0.45898">
        <ele>3664.5</ele>
        <time>2011-10-01T15:47:19.18</time>
      </trkpt>
      <trkpt lat="42.75971" lon="0.45885">
        <ele>3664</ele>
        <time>2011-10-01T15:47:20.14</time>
      </trkpt>
      <trkpt lat="42.75981" lon="0.45873">
        <ele>3662.5</ele>
        <time>2011-10-01T15:47:21.18</time>
      </trkpt>
      <trkpt lat="42.75993" lon="0.45866">
        <ele>3661</ele>
        <time>2011-10-01T15:47:22.20</time>
      </trkpt>
      <trkpt lat="42.76006" lon="0.45861">
        <ele>3660</ele>
        <time>2011-10-01T15:47:23.18</time>
      </trkpt>
      <trkpt lat="42.76019" lon="0.45858">
        <ele>3660</ele>
        <time>2011-10-01T15:47:24.21</time>
      </trkpt>
      <trkpt lat="42.76031" lon="0.45859">
        <ele>3661.5</ele>
        <time>2011-10-01T15:47:25.19</time>
      </trkpt>
      <trkpt lat="42.76056" lon="0.45862">
        <ele>3660</ele>
        <time>2011-10-01T15:47:27.14</time>
      </trkpt>
      <trkpt lat="42.76068" lon="0.45864">
        <ele>3659</ele>
        <time>2011-10-01T15:47:28.21</time>
      </trkpt>
      <trkpt lat="42.76079" lon="0.45866">
        <ele>3658</ele>
        <time>2011-10-01T15:47:29.14</time>
      </trkpt>
      <trkpt lat="42.7609" lon="0.45869">
        <ele>3657.5</ele>
        <time>2011-10-01T15:47:30.20</time>
      </trkpt>
      <trkpt lat="42.76102" lon="0.45873">
        <ele>3657</ele>
        <time>2011-10-01T15:47:31.14</time>
      </trkpt>
      <trkpt lat="42.76112" lon="0.45881">
        <ele>3658</ele>
        <time>2011-10-01T15:47:32.16</time>
      </trkpt>
      <trkpt lat="42.76123" lon="0.45892">
        <ele>3658</ele>
        <time>2011-10-01T15:47:33.15</time>
      </trkpt>
      <trkpt lat="42.76133" lon="0.45921">
        <ele>3660.5</ele>
        <time>2011-10-01T15:47:35.14</time>
      </trkpt>
      <trkpt lat="42.76136" lon="0.45936">
        <ele>3661</ele>
        <time>2011-10-01T15:47:36.13</time>
      </trkpt>
      <trkpt lat="42.76137" lon="0.4595">
        <ele>3661</ele>
        <time>2011-10-01T15:47:37.14</time>
      </trkpt>
      <trkpt lat="42.76136" lon="0.45965">
        <ele>3659.5</ele>
        <time>2011-10-01T15:47:38.14</time>
      </trkpt>
      <trkpt lat="42.76135" lon="0.45982">
        <ele>3658</ele>
        <time>2011-10-01T15:47:39.23</time>
      </trkpt>
      <trkpt lat="42.76138" lon="0.4602">
        <ele>3656</ele>
        <time>2011-10-01T15:47:41.22</time>
      </trkpt>
      <trkpt lat="42.76142" lon="0.46037">
        <ele>3656.5</ele>
        <time>2011-10-01T15:47:42.14</time>
      </trkpt>
      <trkpt lat="42.76148" lon="0.46053">
        <ele>3656.5</ele>
        <time>2011-10-01T15:47:43.22</time>
      </trkpt>
      <trkpt lat="42.76156" lon="0.46066">
        <ele>3656.5</ele>
        <time>2011-10-01T15:47:44.13</time>
      </trkpt>
      <trkpt lat="42.76185" lon="0.46079">
        <ele>3656.5</ele>
        <time>2011-10-01T15:47:46.13</time>
      </trkpt>
      <trkpt lat="42.762" lon="0.46082">
        <ele>3657</ele>
        <time>2011-10-01T15:47:47.17</time>
      </trkpt>
      <trkpt lat="42.76213" lon="0.46079">
        <ele>3656.5</ele>
        <time>2011-10-01T15:47:48.20</time>
      </trkpt>
      <trkpt lat="42.76225" lon="0.46071">
        <ele>3656.5</ele>
        <time>2011-10-01T15:47:49.14</time>
      </trkpt>
      <trkpt lat="42.76234" lon="0.46046">
        <ele>3657</ele>
        <time>2011-10-01T15:47:51.24</time>
      </trkpt>
      <trkpt lat="42.7623" lon="0.45993">
        <ele>3653.5</ele>
        <time>2011-10-01T15:47:54.19</time>
      </trkpt>
      <trkpt lat="42.76227" lon="0.45975">
        <ele>3652.5</ele>
        <time>2011-10-01T15:47:55.23</time>
      </trkpt>
      <trkpt lat="42.76222" lon="0.4596">
        <ele>3652</ele>
        <time>2011-10-01T15:47:56.21</time>
      </trkpt>
      <trkpt lat="42.76195" lon="0.45939">
        <ele>3652</ele>
        <time>2011-10-01T15:47:58.21</time>
      </trkpt>
      <trkpt lat="42.76181" lon="0.45933">
        <ele>3652</ele>
        <time>2011-10-01T15:47:59.23</time>
      </trkpt>
      <trkpt lat="42.76166" lon="0.4593">
        <ele>3652</ele>
        <time>2011-10-01T15:48:00.16</time>
      </trkpt>
      <trkpt lat="42.76152" lon="0.45931">
        <ele>3652</ele>
        <time>2011-10-01T15:48:01.24</time>
      </trkpt>
      <trkpt lat="42.76134" lon="0.45949">
        <ele>3651.5</ele>
        <time>2011-10-01T15:48:03.19</time>
      </trkpt>
      <trkpt lat="42.76132" lon="0.45966">
        <ele>3652.5</ele>
        <time>2011-10-01T15:48:04.19</time>
      </trkpt>
      <trkpt lat="42.76138" lon="0.45999">
        <ele>3655.5</ele>
        <time>2011-10-01T15:48:06.22</time>
      </trkpt>
      <trkpt lat="42.76144" lon="0.46012">
        <ele>3653.5</ele>
        <time>2011-10-01T15:48:07.14</time>
      </trkpt>
      <trkpt lat="42.76167" lon="0.46033">
        <ele>3650.5</ele>
        <time>2011-10-01T15:48:09.15</time>
      </trkpt>
      <trkpt lat="42.76177" lon="0.46042">
        <ele>3650.5</ele>
        <time>2011-10-01T15:48:10.13</time>
      </trkpt>
      <trkpt lat="42.76188" lon="0.4605">
        <ele>3650.5</ele>
        <time>2011-10-01T15:48:11.24</time>
      </trkpt>
      <trkpt lat="42.76198" lon="0.46056">
        <ele>3649.5</ele>
        <time>2011-10-01T15:48:12.16</time>
      </trkpt>
      <trkpt lat="42.76208" lon="0.46063">
        <ele>3647.5</ele>
        <time>2011-10-01T15:48:13.22</time>
      </trkpt>
      <trkpt lat="42.76219" lon="0.46069">
        <ele>3646.5</ele>
        <time>2011-10-01T15:48:14.17</time>
      </trkpt>
      <trkpt lat="42.76244" lon="0.46083">
        <ele>3644.5</ele>
        <time>2011-10-01T15:48:16.20</time>
      </trkpt>
      <trkpt lat="42.76267" lon="0.46096">
        <ele>3641</ele>
        <time>2011-10-01T15:48:18.17</time>
      </trkpt>
      <trkpt lat="42.76275" lon="0.46102">
        <ele>3640.5</ele>
        <time>2011-10-01T15:48:19.14</time>
      </trkpt>
      <trkpt lat="42.76286" lon="0.46109">
        <ele>3640</ele>
        <time>2011-10-01T15:48:20.16</time>
      </trkpt>
      <trkpt lat="42.76296" lon="0.46118">
        <ele>3640</ele>
        <time>2011-10-01T15:48:21.19</time>
      </trkpt>
      <trkpt lat="42.76329" lon="0.46163">
        <ele>3632</ele>
        <time>2011-10-01T15:48:24.20</time>
      </trkpt>
      <trkpt lat="42.76327" lon="0.46196">
        <ele>3630</ele>
        <time>2011-10-01T15:48:26.17</time>
      </trkpt>
      <trkpt lat="42.76323" lon="0.46211">
        <ele>3628</ele>
        <time>2011-10-01T15:48:27.22</time>
      </trkpt>
      <trkpt lat="42.76313" lon="0.46222">
        <ele>3626</ele>
        <time>2011-10-01T15:48:28.13</time>
      </trkpt>
      <trkpt lat="42.76285" lon="0.46238">
        <ele>3626.5</ele>
        <time>2011-10-01T15:48:30.20</time>
      </trkpt>
      <trkpt lat="42.76265" lon="0.46223">
        <ele>3625.5</ele>
        <time>2011-10-01T15:48:32.19</time>
      </trkpt>
      <trkpt lat="42.76259" lon="0.46209">
        <ele>3626</ele>
        <time>2011-10-01T15:48:33.20</time>
      </trkpt>
      <trkpt lat="42.76254" lon="0.46194">
        <ele>3626.5</ele>
        <time>2011-10-01T15:48:34.18</time>
      </trkpt>
      <trkpt lat="42.76254" lon="0.46179">
        <ele>3626.5</ele>
        <time>2011-10-01T15:48:35.14</time>
      </trkpt>
      <trkpt lat="42.76272" lon="0.4615">
        <ele>3626</ele>
        <time>2011-10-01T15:48:37.20</time>
      </trkpt>
      <trkpt lat="42.76283" lon="0.46141">
        <ele>3627</ele>
        <time>2011-10-01T15:48:38.21</time>
      </trkpt>
      <trkpt lat="42.76295" lon="0.46135">
        <ele>3628</ele>
        <time>2011-10-01T15:48:39.23</time>
      </trkpt>
      <trkpt lat="42.76306" lon="0.46132">
        <ele>3628</ele>
        <time>2011-10-01T15:48:40.13</time>
      </trkpt>
      <trkpt lat="42.76318" lon="0.46135">
        <ele>3626</ele>
        <time>2011-10-01T15:48:41.14</time>
      </trkpt>
      <trkpt lat="42.7633" lon="0.46138">
        <ele>3624</ele>
        <time>2011-10-01T15:48:42.18</time>
      </trkpt>
      <trkpt lat="42.76341" lon="0.46145">
        <ele>3624</ele>
        <time>2011-10-01T15:48:43.24</time>
      </trkpt>
      <trkpt lat="42.7635" lon="0.46154">
        <ele>3624.5</ele>
        <time>2011-10-01T15:48:44.13</time>
      </trkpt>
      <trkpt lat="42.7636" lon="0.46164">
        <ele>3625</ele>
        <time>2011-10-01T15:48:45.21</time>
      </trkpt>
      <trkpt lat="42.76369" lon="0.46174">
        <ele>3625.5</ele>
        <time>2011-10-01T15:48:46.19</time>
      </trkpt>
      <trkpt lat="42.76378" lon="0.46184">
        <ele>3626</ele>
        <time>2011-10-01T15:48:47.14</time>
      </trkpt>
      <trkpt lat="42.76388" lon="0.46193">
        <ele>3626</ele>
        <time>2011-10-01T15:48:48.19</time>
      </trkpt>
      <trkpt lat="42.76399" lon="0.46201">
        <ele>3626</ele>
        <time>2011-10-01T15:48:49.14</time>
      </trkpt>
      <trkpt lat="42.76427" lon="0.46212">
        <ele>3627</ele>
        <time>2011-10-01T15:48:51.18</time>
      </trkpt>
      <trkpt lat="42.7644" lon="0.46215">
        <ele>3627</ele>
        <time>2011-10-01T15:48:52.13</time>
      </trkpt>
      <trkpt lat="42.76461" lon="0.46222">
        <ele>3627.5</ele>
        <time>2011-10-01T15:48:54.13</time>
      </trkpt>
      <trkpt lat="42.76472" lon="0.46226">
        <ele>3627.5</ele>
        <time>2011-10-01T15:48:55.16</time>
      </trkpt>
      <trkpt lat="42.76483" lon="0.4623">
        <ele>3626.5</ele>
        <time>2011-10-01T15:48:56.17</time>
      </trkpt>
      <trkpt lat="42.76496" lon="0.46235">
        <ele>3625.5</ele>
        <time>2011-10-01T15:48:57.22</time>
      </trkpt>
      <trkpt lat="42.76509" lon="0.46242">
        <ele>3626</ele>
        <time>2011-10-01T15:48:58.14</time>
      </trkpt>
      <trkpt lat="42.76522" lon="0.46251">
        <ele>3628</ele>
        <time>2011-10-01T15:48:59.22</time>
      </trkpt>
      <trkpt lat="42.76532" lon="0.46262">
        <ele>3629.5</ele>
        <time>2011-10-01T15:49:00.17</time>
      </trkpt>
      <trkpt lat="42.76542" lon="0.46274">
        <ele>3629.5</ele>
        <time>2011-10-01T15:49:01.14</time>
      </trkpt>
      <trkpt lat="42.76551" lon="0.46288">
        <ele>3629</ele>
        <time>2011-10-01T15:49:02.17</time>
      </trkpt>
      <trkpt lat="42.76556" lon="0.46305">
        <ele>3629.5</ele>
        <time>2011-10-01T15:49:03.18</time>
      </trkpt>
      <trkpt lat="42.76558" lon="0.46321">
        <ele>3629.5</ele>
        <time>2011-10-01T15:49:04.14</time>
      </trkpt>
      <trkpt lat="42.76558" lon="0.46338">
        <ele>3629.5</ele>
        <time>2011-10-01T15:49:05.18</time>
      </trkpt>
      <trkpt lat="42.76558" lon="0.46355">
        <ele>3630</ele>
        <time>2011-10-01T15:49:06.17</time>
      </trkpt>
      <trkpt lat="42.76556" lon="0.46371">
        <ele>3631.5</ele>
        <time>2011-10-01T15:49:07.19</time>
      </trkpt>
      <trkpt lat="42.76552" lon="0.46388">
        <ele>3633</ele>
        <time>2011-10-01T15:49:08.21</time>
      </trkpt>
      <trkpt lat="42.76548" lon="0.46405">
        <ele>3635</ele>
        <time>2011-10-01T15:49:09.19</time>
      </trkpt>
      <trkpt lat="42.76545" lon="0.46424">
        <ele>3635</ele>
        <time>2011-10-01T15:49:10.14</time>
      </trkpt>
      <trkpt lat="42.76541" lon="0.46441">
        <ele>3635</ele>
        <time>2011-10-01T15:49:11.20</time>
      </trkpt>
      <trkpt lat="42.76534" lon="0.46458">
        <ele>3637</ele>
        <time>2011-10-01T15:49:12.17</time>
      </trkpt>
      <trkpt lat="42.76526" lon="0.4647">
        <ele>3637.5</ele>
        <time>2011-10-01T15:49:13.19</time>
      </trkpt>
      <trkpt lat="42.76517" lon="0.4648">
        <ele>3637.5</ele>
        <time>2011-10-01T15:49:14.19</time>
      </trkpt>
      <trkpt lat="42.76508" lon="0.46488">
        <ele>3637.5</ele>
        <time>2011-10-01T15:49:15.15</time>
      </trkpt>
      <trkpt lat="42.76496" lon="0.46494">
        <ele>3639.5</ele>
        <time>2011-10-01T15:49:16.18</time>
      </trkpt>
      <trkpt lat="42.76484" lon="0.465">
        <ele>3639.5</ele>
        <time>2011-10-01T15:49:17.15</time>
      </trkpt>
      <trkpt lat="42.76471" lon="0.46503">
        <ele>3638.5</ele>
        <time>2011-10-01T15:49:18.13</time>
      </trkpt>
      <trkpt lat="42.76457" lon="0.46505">
        <ele>3639</ele>
        <time>2011-10-01T15:49:19.19</time>
      </trkpt>
      <trkpt lat="42.76445" lon="0.46503">
        <ele>3639.5</ele>
        <time>2011-10-01T15:49:20.17</time>
      </trkpt>
      <trkpt lat="42.76434" lon="0.46498">
        <ele>3639.5</ele>
        <time>2011-10-01T15:49:21.20</time>
      </trkpt>
      <trkpt lat="42.76425" lon="0.46491">
        <ele>3639</ele>
        <time>2011-10-01T15:49:22.17</time>
      </trkpt>
      <trkpt lat="42.76417" lon="0.46481">
        <ele>3640</ele>
        <time>2011-10-01T15:49:23.19</time>
      </trkpt>
      <trkpt lat="42.76411" lon="0.46468">
        <ele>3639.5</ele>
        <time>2011-10-01T15:49:24.13</time>
      </trkpt>
      <trkpt lat="42.76406" lon="0.46454">
        <ele>3640</ele>
        <time>2011-10-01T15:49:25.22</time>
      </trkpt>
      <trkpt lat="42.76404" lon="0.46439">
        <ele>3640</ele>
        <time>2011-10-01T15:49:26.17</time>
      </trkpt>
      <trkpt lat="42.76401" lon="0.46422">
        <ele>3642.5</ele>
        <time>2011-10-01T15:49:27.15</time>
      </trkpt>
      <trkpt lat="42.76401" lon="0.46405">
        <ele>3643</ele>
        <time>2011-10-01T15:49:28.21</time>
      </trkpt>
      <trkpt lat="42.76403" lon="0.46389">
        <ele>3644.5</ele>
        <time>2011-10-01T15:49:29.15</time>
      </trkpt>
      <trkpt lat="42.76407" lon="0.46373">
        <ele>3645.5</ele>
        <time>2011-10-01T15:49:30.15</time>
      </trkpt>
      <trkpt lat="42.76414" lon="0.4636">
        <ele>3644.5</ele>
        <time>2011-10-01T15:49:31.14</time>
      </trkpt>
      <trkpt lat="42.76422" lon="0.46348">
        <ele>3645</ele>
        <time>2011-10-01T15:49:32.14</time>
      </trkpt>
      <trkpt lat="42.76432" lon="0.46339">
        <ele>3645</ele>
        <time>2011-10-01T15:49:33.14</time>
      </trkpt>
      <trkpt lat="42.76444" lon="0.46334">
        <ele>3646</ele>
        <time>2011-10-01T15:49:34.17</time>
      </trkpt>
      <trkpt lat="42.76458" lon="0.46335">
        <ele>3647</ele>
        <time>2011-10-01T15:49:35.14</time>
      </trkpt>
      <trkpt lat="42.7648" lon="0.46347">
        <ele>3650.5</ele>
        <time>2011-10-01T15:49:37.14</time>
      </trkpt>
      <trkpt lat="42.76489" lon="0.46362">
        <ele>3652</ele>
        <time>2011-10-01T15:49:38.15</time>
      </trkpt>
      <trkpt lat="42.76495" lon="0.4638">
        <ele>3652.5</ele>
        <time>2011-10-01T15:49:39.19</time>
      </trkpt>
      <trkpt lat="42.76499" lon="0.46397">
        <ele>3653.5</ele>
        <time>2011-10-01T15:49:40.13</time>
      </trkpt>
      <trkpt lat="42.765" lon="0.46414">
        <ele>3654</ele>
        <time>2011-10-01T15:49:41.23</time>
      </trkpt>
      <trkpt lat="42.76498" lon="0.46431">
        <ele>3654.5</ele>
        <time>2011-10-01T15:49:42.17</time>
      </trkpt>
      <trkpt lat="42.76493" lon="0.46447">
        <ele>3656</ele>
        <time>2011-10-01T15:49:43.25</time>
      </trkpt>
      <trkpt lat="42.76486" lon="0.46461">
        <ele>3657</ele>
        <time>2011-10-01T15:49:44.13</time>
      </trkpt>
      <trkpt lat="42.76475" lon="0.46473">
        <ele>3657.5</ele>
        <time>2011-10-01T15:49:45.15</time>
      </trkpt>
      <trkpt lat="42.76463" lon="0.46484">
        <ele>3660</ele>
        <time>2011-10-01T15:49:46.13</time>
      </trkpt>
      <trkpt lat="42.76452" lon="0.46495">
        <ele>3663</ele>
        <time>2011-10-01T15:49:47.14</time>
      </trkpt>
      <trkpt lat="42.76441" lon="0.46504">
        <ele>3663.5</ele>
        <time>2011-10-01T15:49:48.15</time>
      </trkpt>
      <trkpt lat="42.7643" lon="0.46513">
        <ele>3665</ele>
        <time>2011-10-01T15:49:49.13</time>
      </trkpt>
      <trkpt lat="42.76419" lon="0.46522">
        <ele>3666</ele>
        <time>2011-10-01T15:49:50.19</time>
      </trkpt>
      <trkpt lat="42.76408" lon="0.46531">
        <ele>3666</ele>
        <time>2011-10-01T15:49:51.16</time>
      </trkpt>
      <trkpt lat="42.76396" lon="0.4654">
        <ele>3666.5</ele>
        <time>2011-10-01T15:49:52.14</time>
      </trkpt>
      <trkpt lat="42.76382" lon="0.46548">
        <ele>3667.5</ele>
        <time>2011-10-01T15:49:53.14</time>
      </trkpt>
      <trkpt lat="42.76368" lon="0.46553">
        <ele>3667</ele>
        <time>2011-10-01T15:49:54.13</time>
      </trkpt>
      <trkpt lat="42.76353" lon="0.46555">
        <ele>3668.5</ele>
        <time>2011-10-01T15:49:55.18</time>
      </trkpt>
      <trkpt lat="42.7634" lon="0.46554">
        <ele>3669.5</ele>
        <time>2011-10-01T15:49:56.20</time>
      </trkpt>
      <trkpt lat="42.76328" lon="0.46548">
        <ele>3671.5</ele>
        <time>2011-10-01T15:49:57.18</time>
      </trkpt>
      <trkpt lat="42.76317" lon="0.46539">
        <ele>3672</ele>
        <time>2011-10-01T15:49:58.20</time>
      </trkpt>
      <trkpt lat="42.7631" lon="0.46527">
        <ele>3672</ele>
        <time>2011-10-01T15:49:59.19</time>
      </trkpt>
      <trkpt lat="42.76303" lon="0.46513">
        <ele>3675</ele>
        <time>2011-10-01T15:50:00.21</time>
      </trkpt>
      <trkpt lat="42.763" lon="0.46497">
        <ele>3675</ele>
        <time>2011-10-01T15:50:01.22</time>
      </trkpt>
      <trkpt lat="42.76301" lon="0.46479">
        <ele>3677</ele>
        <time>2011-10-01T15:50:02.13</time>
      </trkpt>
      <trkpt lat="42.76305" lon="0.46462">
        <ele>3678.5</ele>
        <time>2011-10-01T15:50:03.17</time>
      </trkpt>
      <trkpt lat="42.76313" lon="0.46448">
        <ele>3679</ele>
        <time>2011-10-01T15:50:04.20</time>
      </trkpt>
      <trkpt lat="42.76326" lon="0.46443">
        <ele>3681</ele>
        <time>2011-10-01T15:50:05.18</time>
      </trkpt>
      <trkpt lat="42.76338" lon="0.46437">
        <ele>3679.5</ele>
        <time>2011-10-01T15:50:06.14</time>
      </trkpt>
      <trkpt lat="42.76351" lon="0.46435">
        <ele>3679.5</ele>
        <time>2011-10-01T15:50:07.18</time>
      </trkpt>
      <trkpt lat="42.76363" lon="0.46435">
        <ele>3682.5</ele>
        <time>2011-10-01T15:50:08.13</time>
      </trkpt>
      <trkpt lat="42.76375" lon="0.46441">
        <ele>3684.5</ele>
        <time>2011-10-01T15:50:09.20</time>
      </trkpt>
      <trkpt lat="42.76385" lon="0.46449">
        <ele>3687</ele>
        <time>2011-10-01T15:50:10.21</time>
      </trkpt>
      <trkpt lat="42.76395" lon="0.46459">
        <ele>3687</ele>
        <time>2011-10-01T15:50:11.14</time>
      </trkpt>
      <trkpt lat="42.76405" lon="0.46486">
        <ele>3687.5</ele>
        <time>2011-10-01T15:50:13.18</time>
      </trkpt>
      <trkpt lat="42.76408" lon="0.46503">
        <ele>3687.5</ele>
        <time>2011-10-01T15:50:14.17</time>
      </trkpt>
      <trkpt lat="42.7641" lon="0.46523">
        <ele>3688.5</ele>
        <time>2011-10-01T15:50:15.14</time>
      </trkpt>
      <trkpt lat="42.76409" lon="0.46542">
        <ele>3689</ele>
        <time>2011-10-01T15:50:16.21</time>
      </trkpt>
      <trkpt lat="42.76403" lon="0.46559">
        <ele>3689.5</ele>
        <time>2011-10-01T15:50:17.15</time>
      </trkpt>
      <trkpt lat="42.76396" lon="0.46573">
        <ele>3691</ele>
        <time>2011-10-01T15:50:18.21</time>
      </trkpt>
      <trkpt lat="42.76388" lon="0.46584">
        <ele>3693</ele>
        <time>2011-10-01T15:50:19.18</time>
      </trkpt>
      <trkpt lat="42.76346" lon="0.46598">
        <ele>3693</ele>
        <time>2011-10-01T15:50:22.14</time>
      </trkpt>
      <trkpt lat="42.76331" lon="0.46596">
        <ele>3694.5</ele>
        <time>2011-10-01T15:50:23.18</time>
      </trkpt>
      <trkpt lat="42.76317" lon="0.46591">
        <ele>3696.5</ele>
        <time>2011-10-01T15:50:24.14</time>
      </trkpt>
      <trkpt lat="42.76305" lon="0.46583">
        <ele>3697.5</ele>
        <time>2011-10-01T15:50:25.14</time>
      </trkpt>
      <trkpt lat="42.76294" lon="0.46574">
        <ele>3699.5</ele>
        <time>2011-10-01T15:50:26.13</time>
      </trkpt>
      <trkpt lat="42.76283" lon="0.46563">
        <ele>3702</ele>
        <time>2011-10-01T15:50:27.17</time>
      </trkpt>
      <trkpt lat="42.76274" lon="0.46551">
        <ele>3703.5</ele>
        <time>2011-10-01T15:50:28.13</time>
      </trkpt>
      <trkpt lat="42.76266" lon="0.46537">
        <ele>3704</ele>
        <time>2011-10-01T15:50:29.22</time>
      </trkpt>
      <trkpt lat="42.76261" lon="0.46522">
        <ele>3704.5</ele>
        <time>2011-10-01T15:50:30.16</time>
      </trkpt>
      <trkpt lat="42.76257" lon="0.46508">
        <ele>3705.5</ele>
        <time>2011-10-01T15:50:31.14</time>
      </trkpt>
      <trkpt lat="42.76256" lon="0.46493">
        <ele>3706</ele>
        <time>2011-10-01T15:50:32.13</time>
      </trkpt>
      <trkpt lat="42.76257" lon="0.46477">
        <ele>3705.5</ele>
        <time>2011-10-01T15:50:33.14</time>
      </trkpt>
      <trkpt lat="42.7626" lon="0.46462">
        <ele>3704</ele>
        <time>2011-10-01T15:50:34.13</time>
      </trkpt>
      <trkpt lat="42.76266" lon="0.46448">
        <ele>3704</ele>
        <time>2011-10-01T15:50:35.18</time>
      </trkpt>
      <trkpt lat="42.76276" lon="0.46437">
        <ele>3704.5</ele>
        <time>2011-10-01T15:50:36.14</time>
      </trkpt>
      <trkpt lat="42.76287" lon="0.4643">
        <ele>3704.5</ele>
        <time>2011-10-01T15:50:37.15</time>
      </trkpt>
      <trkpt lat="42.76301" lon="0.46426">
        <ele>3704.5</ele>
        <time>2011-10-01T15:50:38.22</time>
      </trkpt>
      <trkpt lat="42.76313" lon="0.46426">
        <ele>3706</ele>
        <time>2011-10-01T15:50:39.14</time>
      </trkpt>
      <trkpt lat="42.76324" lon="0.46428">
        <ele>3707.5</ele>
        <time>2011-10-01T15:50:40.13</time>
      </trkpt>
      <trkpt lat="42.76335" lon="0.46434">
        <ele>3707.5</ele>
        <time>2011-10-01T15:50:41.22</time>
      </trkpt>
      <trkpt lat="42.76346" lon="0.46441">
        <ele>3706</ele>
        <time>2011-10-01T15:50:42.13</time>
      </trkpt>
      <trkpt lat="42.76357" lon="0.46448">
        <ele>3704.5</ele>
        <time>2011-10-01T15:50:43.14</time>
      </trkpt>
      <trkpt lat="42.76384" lon="0.46461">
        <ele>3706</ele>
        <time>2011-10-01T15:50:45.14</time>
      </trkpt>
      <trkpt lat="42.76406" lon="0.46464">
        <ele>3706.5</ele>
        <time>2011-10-01T15:50:47.23</time>
      </trkpt>
      <trkpt lat="42.76415" lon="0.46461">
        <ele>3706.5</ele>
        <time>2011-10-01T15:50:48.17</time>
      </trkpt>
      <trkpt lat="42.76439" lon="0.46447">
        <ele>3703.5</ele>
        <time>2011-10-01T15:50:50.14</time>
      </trkpt>
      <trkpt lat="42.76448" lon="0.46437">
        <ele>3703.5</ele>
        <time>2011-10-01T15:50:51.23</time>
      </trkpt>
      <trkpt lat="42.76456" lon="0.46425">
        <ele>3704.5</ele>
        <time>2011-10-01T15:50:52.20</time>
      </trkpt>
      <trkpt lat="42.76457" lon="0.46408">
        <ele>3706.5</ele>
        <time>2011-10-01T15:50:53.22</time>
      </trkpt>
      <trkpt lat="42.76458" lon="0.46392">
        <ele>3708.5</ele>
        <time>2011-10-01T15:50:54.13</time>
      </trkpt>
      <trkpt lat="42.76459" lon="0.46374">
        <ele>3710</ele>
        <time>2011-10-01T15:50:55.22</time>
      </trkpt>
      <trkpt lat="42.76464" lon="0.46358">
        <ele>3708</ele>
        <time>2011-10-01T15:50:56.13</time>
      </trkpt>
      <trkpt lat="42.76472" lon="0.46341">
        <ele>3707</ele>
        <time>2011-10-01T15:50:57.22</time>
      </trkpt>
      <trkpt lat="42.76482" lon="0.46326">
        <ele>3707</ele>
        <time>2011-10-01T15:50:58.16</time>
      </trkpt>
      <trkpt lat="42.76493" lon="0.46315">
        <ele>3708.5</ele>
        <time>2011-10-01T15:50:59.15</time>
      </trkpt>
      <trkpt lat="42.76507" lon="0.46311">
        <ele>3710.5</ele>
        <time>2011-10-01T15:51:00.14</time>
      </trkpt>
      <trkpt lat="42.76522" lon="0.46313">
        <ele>3712.5</ele>
        <time>2011-10-01T15:51:01.15</time>
      </trkpt>
      <trkpt lat="42.76545" lon="0.46328">
        <ele>3711</ele>
        <time>2011-10-01T15:51:03.22</time>
      </trkpt>
      <trkpt lat="42.76556" lon="0.46342">
        <ele>3710</ele>
        <time>2011-10-01T15:51:04.20</time>
      </trkpt>
      <trkpt lat="42.76573" lon="0.46383">
        <ele>3713</ele>
        <time>2011-10-01T15:51:06.17</time>
      </trkpt>
      <trkpt lat="42.76595" lon="0.46441">
        <ele>3713.5</ele>
        <time>2011-10-01T15:51:10.14</time>
      </trkpt>
      <trkpt lat="42.76603" lon="0.46453">
        <ele>3713.5</ele>
        <time>2011-10-01T15:51:11.15</time>
      </trkpt>
      <trkpt lat="42.76611" lon="0.46466">
        <ele>3714</ele>
        <time>2011-10-01T15:51:12.20</time>
      </trkpt>
      <trkpt lat="42.76618" lon="0.46479">
        <ele>3715.5</ele>
        <time>2011-10-01T15:51:13.23</time>
      </trkpt>
      <trkpt lat="42.76625" lon="0.46491">
        <ele>3717</ele>
        <time>2011-10-01T15:51:14.13</time>
      </trkpt>
      <trkpt lat="42.76631" lon="0.46504">
        <ele>3718.5</ele>
        <time>2011-10-01T15:51:15.14</time>
      </trkpt>
      <trkpt lat="42.76636" lon="0.46517">
        <ele>3719</ele>
        <time>2011-10-01T15:51:16.20</time>
      </trkpt>
      <trkpt lat="42.76641" lon="0.46532">
        <ele>3718</ele>
        <time>2011-10-01T15:51:17.23</time>
      </trkpt>
      <trkpt lat="42.76645" lon="0.46548">
        <ele>3717</ele>
        <time>2011-10-01T15:51:18.13</time>
      </trkpt>
      <trkpt lat="42.76648" lon="0.46565">
        <ele>3717.5</ele>
        <time>2011-10-01T15:51:19.21</time>
      </trkpt>
      <trkpt lat="42.76651" lon="0.46583">
        <ele>3718</ele>
        <time>2011-10-01T15:51:20.20</time>
      </trkpt>
      <trkpt lat="42.76651" lon="0.46602">
        <ele>3718.5</ele>
        <time>2011-10-01T15:51:21.33</time>
      </trkpt>
      <trkpt lat="42.76646" lon="0.46638">
        <ele>3720</ele>
        <time>2011-10-01T15:51:23.14</time>
      </trkpt>
      <trkpt lat="42.7664" lon="0.46656">
        <ele>3721</ele>
        <time>2011-10-01T15:51:24.13</time>
      </trkpt>
      <trkpt lat="42.76633" lon="0.46672">
        <ele>3723</ele>
        <time>2011-10-01T15:51:25.15</time>
      </trkpt>
      <trkpt lat="42.76624" lon="0.46686">
        <ele>3723.5</ele>
        <time>2011-10-01T15:51:26.13</time>
      </trkpt>
      <trkpt lat="42.76615" lon="0.46699">
        <ele>3725</ele>
        <time>2011-10-01T15:51:27.12</time>
      </trkpt>
      <trkpt lat="42.76604" lon="0.46712">
        <ele>3726.5</ele>
        <time>2011-10-01T15:51:28.19</time>
      </trkpt>
      <trkpt lat="42.76593" lon="0.46724">
        <ele>3728</ele>
        <time>2011-10-01T15:51:29.15</time>
      </trkpt>
      <trkpt lat="42.76582" lon="0.46735">
        <ele>3729.5</ele>
        <time>2011-10-01T15:51:30.13</time>
      </trkpt>
      <trkpt lat="42.76569" lon="0.46745">
        <ele>3731.5</ele>
        <time>2011-10-01T15:51:31.15</time>
      </trkpt>
      <trkpt lat="42.76556" lon="0.46753">
        <ele>3733.5</ele>
        <time>2011-10-01T15:51:32.21</time>
      </trkpt>
      <trkpt lat="42.76543" lon="0.4676">
        <ele>3735.5</ele>
        <time>2011-10-01T15:51:33.21</time>
      </trkpt>
      <trkpt lat="42.76529" lon="0.46765">
        <ele>3737.5</ele>
        <time>2011-10-01T15:51:34.14</time>
      </trkpt>
      <trkpt lat="42.76515" lon="0.46768">
        <ele>3738.5</ele>
        <time>2011-10-01T15:51:35.23</time>
      </trkpt>
      <trkpt lat="42.76501" lon="0.4677">
        <ele>3740.5</ele>
        <time>2011-10-01T15:51:36.14</time>
      </trkpt>
      <trkpt lat="42.76486" lon="0.46771">
        <ele>3742</ele>
        <time>2011-10-01T15:51:37.23</time>
      </trkpt>
      <trkpt lat="42.76472" lon="0.46769">
        <ele>3744</ele>
        <time>2011-10-01T15:51:38.18</time>
      </trkpt>
      <trkpt lat="42.7645" lon="0.4676">
        <ele>3741.5</ele>
        <time>2011-10-01T15:51:40.19</time>
      </trkpt>
      <trkpt lat="42.76426" lon="0.46741">
        <ele>3743</ele>
        <time>2011-10-01T15:51:42.19</time>
      </trkpt>
      <trkpt lat="42.76416" lon="0.46728">
        <ele>3743.5</ele>
        <time>2011-10-01T15:51:43.22</time>
      </trkpt>
      <trkpt lat="42.76407" lon="0.46715">
        <ele>3744</ele>
        <time>2011-10-01T15:51:44.19</time>
      </trkpt>
      <trkpt lat="42.76398" lon="0.46702">
        <ele>3744.5</ele>
        <time>2011-10-01T15:51:45.21</time>
      </trkpt>
      <trkpt lat="42.76391" lon="0.46691">
        <ele>3746.5</ele>
        <time>2011-10-01T15:51:46.20</time>
      </trkpt>
      <trkpt lat="42.76382" lon="0.4668">
        <ele>3748.5</ele>
        <time>2011-10-01T15:51:47.20</time>
      </trkpt>
      <trkpt lat="42.76374" lon="0.4667">
        <ele>3748.5</ele>
        <time>2011-10-01T15:51:48.13</time>
      </trkpt>
      <trkpt lat="42.76365" lon="0.4666">
        <ele>3748.5</ele>
        <time>2011-10-01T15:51:49.14</time>
      </trkpt>
      <trkpt lat="42.76357" lon="0.46649">
        <ele>3747.5</ele>
        <time>2011-10-01T15:51:50.13</time>
      </trkpt>
      <trkpt lat="42.76348" lon="0.46637">
        <ele>3747</ele>
        <time>2011-10-01T15:51:51.15</time>
      </trkpt>
      <trkpt lat="42.7634" lon="0.46624">
        <ele>3747.5</ele>
        <time>2011-10-01T15:51:52.13</time>
      </trkpt>
      <trkpt lat="42.76333" lon="0.46612">
        <ele>3749.5</ele>
        <time>2011-10-01T15:51:53.15</time>
      </trkpt>
      <trkpt lat="42.76327" lon="0.46599">
        <ele>3750.5</ele>
        <time>2011-10-01T15:51:54.16</time>
      </trkpt>
      <trkpt lat="42.76321" lon="0.46585">
        <ele>3749</ele>
        <time>2011-10-01T15:51:55.16</time>
      </trkpt>
      <trkpt lat="42.76316" lon="0.46568">
        <ele>3749</ele>
        <time>2011-10-01T15:51:56.14</time>
      </trkpt>
      <trkpt lat="42.76314" lon="0.46549">
        <ele>3748</ele>
        <time>2011-10-01T15:51:57.15</time>
      </trkpt>
      <trkpt lat="42.76312" lon="0.46532">
        <ele>3748.5</ele>
        <time>2011-10-01T15:51:58.19</time>
      </trkpt>
      <trkpt lat="42.76311" lon="0.46516">
        <ele>3749</ele>
        <time>2011-10-01T15:51:59.22</time>
      </trkpt>
      <trkpt lat="42.76309" lon="0.46502">
        <ele>3747.5</ele>
        <time>2011-10-01T15:52:00.13</time>
      </trkpt>
      <trkpt lat="42.76306" lon="0.46488">
        <ele>3747.5</ele>
        <time>2011-10-01T15:52:01.14</time>
      </trkpt>
      <trkpt lat="42.76302" lon="0.46473">
        <ele>3747</ele>
        <time>2011-10-01T15:52:02.17</time>
      </trkpt>
      <trkpt lat="42.76296" lon="0.46457">
        <ele>3746.5</ele>
        <time>2011-10-01T15:52:03.15</time>
      </trkpt>
      <trkpt lat="42.7629" lon="0.4644">
        <ele>3746.5</ele>
        <time>2011-10-01T15:52:04.14</time>
      </trkpt>
      <trkpt lat="42.76283" lon="0.46425">
        <ele>3745</ele>
        <time>2011-10-01T15:52:05.14</time>
      </trkpt>
      <trkpt lat="42.76275" lon="0.4641">
        <ele>3742.5</ele>
        <time>2011-10-01T15:52:06.13</time>
      </trkpt>
      <trkpt lat="42.76267" lon="0.46396">
        <ele>3741.5</ele>
        <time>2011-10-01T15:52:07.17</time>
      </trkpt>
      <trkpt lat="42.7626" lon="0.46382">
        <ele>3740.5</ele>
        <time>2011-10-01T15:52:08.17</time>
      </trkpt>
      <trkpt lat="42.76254" lon="0.46368">
        <ele>3738.5</ele>
        <time>2011-10-01T15:52:09.19</time>
      </trkpt>
      <trkpt lat="42.76249" lon="0.46353">
        <ele>3739</ele>
        <time>2011-10-01T15:52:10.13</time>
      </trkpt>
      <trkpt lat="42.76245" lon="0.46336">
        <ele>3737.5</ele>
        <time>2011-10-01T15:52:11.19</time>
      </trkpt>
      <trkpt lat="42.76244" lon="0.46317">
        <ele>3737.5</ele>
        <time>2011-10-01T15:52:12.14</time>
      </trkpt>
      <trkpt lat="42.76248" lon="0.46299">
        <ele>3736.5</ele>
        <time>2011-10-01T15:52:13.14</time>
      </trkpt>
      <trkpt lat="42.76254" lon="0.46282">
        <ele>3735</ele>
        <time>2011-10-01T15:52:14.17</time>
      </trkpt>
      <trkpt lat="42.76262" lon="0.46266">
        <ele>3733</ele>
        <time>2011-10-01T15:52:15.20</time>
      </trkpt>
      <trkpt lat="42.76271" lon="0.46252">
        <ele>3732.5</ele>
        <time>2011-10-01T15:52:16.19</time>
      </trkpt>
      <trkpt lat="42.76282" lon="0.46241">
        <ele>3731</ele>
        <time>2011-10-01T15:52:17.19</time>
      </trkpt>
      <trkpt lat="42.76311" lon="0.46223">
        <ele>3728</ele>
        <time>2011-10-01T15:52:19.19</time>
      </trkpt>
      <trkpt lat="42.76327" lon="0.46217">
        <ele>3728</ele>
        <time>2011-10-01T15:52:20.13</time>
      </trkpt>
      <trkpt lat="42.76365" lon="0.462">
        <ele>3728.5</ele>
        <time>2011-10-01T15:52:23.14</time>
      </trkpt>
      <trkpt lat="42.76377" lon="0.46193">
        <ele>3729</ele>
        <time>2011-10-01T15:52:24.18</time>
      </trkpt>
      <trkpt lat="42.76389" lon="0.46185">
        <ele>3730</ele>
        <time>2011-10-01T15:52:25.14</time>
      </trkpt>
      <trkpt lat="42.76401" lon="0.46177">
        <ele>3730.5</ele>
        <time>2011-10-01T15:52:26.16</time>
      </trkpt>
      <trkpt lat="42.76411" lon="0.46168">
        <ele>3730.5</ele>
        <time>2011-10-01T15:52:27.14</time>
      </trkpt>
      <trkpt lat="42.76422" lon="0.46159">
        <ele>3730.5</ele>
        <time>2011-10-01T15:52:28.13</time>
      </trkpt>
      <trkpt lat="42.76432" lon="0.46147">
        <ele>3731.5</ele>
        <time>2011-10-01T15:52:29.19</time>
      </trkpt>
      <trkpt lat="42.76442" lon="0.46136">
        <ele>3732.5</ele>
        <time>2011-10-01T15:52:30.20</time>
      </trkpt>
      <trkpt lat="42.76451" lon="0.46124">
        <ele>3733</ele>
        <time>2011-10-01T15:52:31.22</time>
      </trkpt>
      <trkpt lat="42.76459" lon="0.46111">
        <ele>3732</ele>
        <time>2011-10-01T15:52:32.15</time>
      </trkpt>
      <trkpt lat="42.76468" lon="0.46099">
        <ele>3730.5</ele>
        <time>2011-10-01T15:52:33.15</time>
      </trkpt>
      <trkpt lat="42.76477" lon="0.46086">
        <ele>3728.5</ele>
        <time>2011-10-01T15:52:34.13</time>
      </trkpt>
      <trkpt lat="42.76487" lon="0.46073">
        <ele>3726.5</ele>
        <time>2011-10-01T15:52:35.18</time>
      </trkpt>
      <trkpt lat="42.76496" lon="0.4606">
        <ele>3725</ele>
        <time>2011-10-01T15:52:36.13</time>
      </trkpt>
      <trkpt lat="42.76506" lon="0.46048">
        <ele>3723.5</ele>
        <time>2011-10-01T15:52:37.18</time>
      </trkpt>
      <trkpt lat="42.76516" lon="0.46034">
        <ele>3722</ele>
        <time>2011-10-01T15:52:38.14</time>
      </trkpt>
      <trkpt lat="42.76526" lon="0.46022">
        <ele>3722</ele>
        <time>2011-10-01T15:52:39.22</time>
      </trkpt>
      <trkpt lat="42.76535" lon="0.46012">
        <ele>3721.5</ele>
        <time>2011-10-01T15:52:40.15</time>
      </trkpt>
      <trkpt lat="42.76545" lon="0.46001">
        <ele>3720</ele>
        <time>2011-10-01T15:52:41.22</time>
      </trkpt>
      <trkpt lat="42.76555" lon="0.45992">
        <ele>3718.5</ele>
        <time>2011-10-01T15:52:42.14</time>
      </trkpt>
      <trkpt lat="42.76565" lon="0.45982">
        <ele>3717.5</ele>
        <time>2011-10-01T15:52:43.15</time>
      </trkpt>
      <trkpt lat="42.76576" lon="0.45972">
        <ele>3716</ele>
        <time>2011-10-01T15:52:44.18</time>
      </trkpt>
      <trkpt lat="42.76587" lon="0.45963">
        <ele>3716</ele>
        <time>2011-10-01T15:52:45.18</time>
      </trkpt>
      <trkpt lat="42.76597" lon="0.45955">
        <ele>3714.5</ele>
        <time>2011-10-01T15:52:46.20</time>
      </trkpt>
      <trkpt lat="42.76608" lon="0.45946">
        <ele>3712.5</ele>
        <time>2011-10-01T15:52:47.15</time>
      </trkpt>
      <trkpt lat="42.76619" lon="0.45938">
        <ele>3710</ele>
        <time>2011-10-01T15:52:48.13</time>
      </trkpt>
      <trkpt lat="42.76631" lon="0.4593">
        <ele>3708</ele>
        <time>2011-10-01T15:52:49.17</time>
      </trkpt>
      <trkpt lat="42.76643" lon="0.45922">
        <ele>3705.5</ele>
        <time>2011-10-01T15:52:50.20</time>
      </trkpt>
      <trkpt lat="42.76655" lon="0.45913">
        <ele>3704.5</ele>
        <time>2011-10-01T15:52:51.22</time>
      </trkpt>
      <trkpt lat="42.76667" lon="0.45904">
        <ele>3703.5</ele>
        <time>2011-10-01T15:52:52.22</time>
      </trkpt>
      <trkpt lat="42.76678" lon="0.45895">
        <ele>3702.5</ele>
        <time>2011-10-01T15:52:53.15</time>
      </trkpt>
      <trkpt lat="42.7669" lon="0.45885">
        <ele>3701</ele>
        <time>2011-10-01T15:52:54.14</time>
      </trkpt>
      <trkpt lat="42.76702" lon="0.45874">
        <ele>3699</ele>
        <time>2011-10-01T15:52:55.15</time>
      </trkpt>
      <trkpt lat="42.76713" lon="0.45862">
        <ele>3698</ele>
        <time>2011-10-01T15:52:56.13</time>
      </trkpt>
      <trkpt lat="42.76723" lon="0.45848">
        <ele>3697.5</ele>
        <time>2011-10-01T15:52:57.18</time>
      </trkpt>
      <trkpt lat="42.76732" lon="0.45834">
        <ele>3697</ele>
        <time>2011-10-01T15:52:58.14</time>
      </trkpt>
      <trkpt lat="42.7674" lon="0.45819">
        <ele>3696</ele>
        <time>2011-10-01T15:52:59.18</time>
      </trkpt>
      <trkpt lat="42.76748" lon="0.45803">
        <ele>3694</ele>
        <time>2011-10-01T15:53:00.14</time>
      </trkpt>
      <trkpt lat="42.76757" lon="0.45787">
        <ele>3692.5</ele>
        <time>2011-10-01T15:53:01.19</time>
      </trkpt>
      <trkpt lat="42.76767" lon="0.45773">
        <ele>3694.5</ele>
        <time>2011-10-01T15:53:02.14</time>
      </trkpt>
      <trkpt lat="42.76779" lon="0.45762">
        <ele>3695.5</ele>
        <time>2011-10-01T15:53:03.15</time>
      </trkpt>
      <trkpt lat="42.7679" lon="0.45754">
        <ele>3695.5</ele>
        <time>2011-10-01T15:53:04.14</time>
      </trkpt>
      <trkpt lat="42.76801" lon="0.45746">
        <ele>3695</ele>
        <time>2011-10-01T15:53:05.18</time>
      </trkpt>
      <trkpt lat="42.76813" lon="0.45737">
        <ele>3693.5</ele>
        <time>2011-10-01T15:53:06.14</time>
      </trkpt>
      <trkpt lat="42.76824" lon="0.45728">
        <ele>3693.5</ele>
        <time>2011-10-01T15:53:07.14</time>
      </trkpt>
      <trkpt lat="42.76836" lon="0.45718">
        <ele>3692.5</ele>
        <time>2011-10-01T15:53:08.14</time>
      </trkpt>
      <trkpt lat="42.76848" lon="0.45709">
        <ele>3691.5</ele>
        <time>2011-10-01T15:53:09.19</time>
      </trkpt>
      <trkpt lat="42.76861" lon="0.457">
        <ele>3691</ele>
        <time>2011-10-01T15:53:10.14</time>
      </trkpt>
      <trkpt lat="42.76873" lon="0.45694">
        <ele>3689</ele>
        <time>2011-10-01T15:53:11.15</time>
      </trkpt>
      <trkpt lat="42.76885" lon="0.45689">
        <ele>3688.5</ele>
        <time>2011-10-01T15:53:12.14</time>
      </trkpt>
      <trkpt lat="42.76899" lon="0.45685">
        <ele>3688</ele>
        <time>2011-10-01T15:53:13.14</time>
      </trkpt>
      <trkpt lat="42.76911" lon="0.45682">
        <ele>3688</ele>
        <time>2011-10-01T15:53:14.14</time>
      </trkpt>
      <trkpt lat="42.76925" lon="0.4568">
        <ele>3685.5</ele>
        <time>2011-10-01T15:53:15.21</time>
      </trkpt>
      <trkpt lat="42.76938" lon="0.4568">
        <ele>3683.5</ele>
        <time>2011-10-01T15:53:16.14</time>
      </trkpt>
      <trkpt lat="42.76951" lon="0.45681">
        <ele>3681</ele>
        <time>2011-10-01T15:53:17.15</time>
      </trkpt>
      <trkpt lat="42.76963" lon="0.45684">
        <ele>3678.5</ele>
        <time>2011-10-01T15:53:18.19</time>
      </trkpt>
      <trkpt lat="42.76974" lon="0.45689">
        <ele>3676</ele>
        <time>2011-10-01T15:53:19.23</time>
      </trkpt>
      <trkpt lat="42.76986" lon="0.45696">
        <ele>3675.5</ele>
        <time>2011-10-01T15:53:20.14</time>
      </trkpt>
      <trkpt lat="42.76997" lon="0.45703">
        <ele>3674.5</ele>
        <time>2011-10-01T15:53:21.18</time>
      </trkpt>
      <trkpt lat="42.77007" lon="0.45711">
        <ele>3674.5</ele>
        <time>2011-10-01T15:53:22.17</time>
      </trkpt>
      <trkpt lat="42.77019" lon="0.4572">
        <ele>3672.5</ele>
        <time>2011-10-01T15:53:23.14</time>
      </trkpt>
      <trkpt lat="42.7703" lon="0.45729">
        <ele>3671</ele>
        <time>2011-10-01T15:53:24.19</time>
      </trkpt>
      <trkpt lat="42.7704" lon="0.45738">
        <ele>3669.5</ele>
        <time>2011-10-01T15:53:25.14</time>
      </trkpt>
      <trkpt lat="42.7705" lon="0.45748">
        <ele>3669.5</ele>
        <time>2011-10-01T15:53:26.17</time>
      </trkpt>
      <trkpt lat="42.77072" lon="0.45773">
        <ele>3668</ele>
        <time>2011-10-01T15:53:28.17</time>
      </trkpt>
      <trkpt lat="42.77078" lon="0.4579">
        <ele>3668</ele>
        <time>2011-10-01T15:53:29.17</time>
      </trkpt>
      <trkpt lat="42.77077" lon="0.45822">
        <ele>3666</ele>
        <time>2011-10-01T15:53:31.23</time>
      </trkpt>
      <trkpt lat="42.77074" lon="0.45837">
        <ele>3664.5</ele>
        <time>2011-10-01T15:53:32.13</time>
      </trkpt>
      <trkpt lat="42.77071" lon="0.45852">
        <ele>3662</ele>
        <time>2011-10-01T15:53:33.15</time>
      </trkpt>
      <trkpt lat="42.77066" lon="0.45865">
        <ele>3661.5</ele>
        <time>2011-10-01T15:53:34.13</time>
      </trkpt>
      <trkpt lat="42.77061" lon="0.45879">
        <ele>3659.5</ele>
        <time>2011-10-01T15:53:35.14</time>
      </trkpt>
      <trkpt lat="42.77054" lon="0.45894">
        <ele>3659</ele>
        <time>2011-10-01T15:53:36.13</time>
      </trkpt>
      <trkpt lat="42.77048" lon="0.45908">
        <ele>3657.5</ele>
        <time>2011-10-01T15:53:37.24</time>
      </trkpt>
      <trkpt lat="42.77041" lon="0.45923">
        <ele>3656.5</ele>
        <time>2011-10-01T15:53:38.17</time>
      </trkpt>
      <trkpt lat="42.77035" lon="0.45936">
        <ele>3656</ele>
        <time>2011-10-01T15:53:39.14</time>
      </trkpt>
      <trkpt lat="42.77029" lon="0.45949">
        <ele>3655.5</ele>
        <time>2011-10-01T15:53:40.21</time>
      </trkpt>
      <trkpt lat="42.77024" lon="0.45961">
        <ele>3653.5</ele>
        <time>2011-10-01T15:53:41.16</time>
      </trkpt>
      <trkpt lat="42.7702" lon="0.45975">
        <ele>3650.5</ele>
        <time>2011-10-01T15:53:42.13</time>
      </trkpt>
      <trkpt lat="42.77014" lon="0.45989">
        <ele>3650.5</ele>
        <time>2011-10-01T15:53:43.15</time>
      </trkpt>
      <trkpt lat="42.77008" lon="0.46003">
        <ele>3648</ele>
        <time>2011-10-01T15:53:44.14</time>
      </trkpt>
      <trkpt lat="42.77002" lon="0.46017">
        <ele>3646.5</ele>
        <time>2011-10-01T15:53:45.15</time>
      </trkpt>
      <trkpt lat="42.76996" lon="0.46031">
        <ele>3645</ele>
        <time>2011-10-01T15:53:46.17</time>
      </trkpt>
      <trkpt lat="42.7699" lon="0.46045">
        <ele>3644</ele>
        <time>2011-10-01T15:53:47.23</time>
      </trkpt>
      <trkpt lat="42.76983" lon="0.46059">
        <ele>3642.5</ele>
        <time>2011-10-01T15:53:48.16</time>
      </trkpt>
      <trkpt lat="42.76977" lon="0.46072">
        <ele>3642.5</ele>
        <time>2011-10-01T15:53:49.14</time>
      </trkpt>
      <trkpt lat="42.7697" lon="0.46086">
        <ele>3641.5</ele>
        <time>2011-10-01T15:53:50.13</time>
      </trkpt>
      <trkpt lat="42.76963" lon="0.46098">
        <ele>3641.5</ele>
        <time>2011-10-01T15:53:51.22</time>
      </trkpt>
      <trkpt lat="42.76955" lon="0.46109">
        <ele>3640.5</ele>
        <time>2011-10-01T15:53:52.14</time>
      </trkpt>
      <trkpt lat="42.76947" lon="0.4612">
        <ele>3639</ele>
        <time>2011-10-01T15:53:53.15</time>
      </trkpt>
      <trkpt lat="42.76938" lon="0.46131">
        <ele>3637</ele>
        <time>2011-10-01T15:53:54.13</time>
      </trkpt>
      <trkpt lat="42.7693" lon="0.46144">
        <ele>3635</ele>
        <time>2011-10-01T15:53:55.14</time>
      </trkpt>
      <trkpt lat="42.76921" lon="0.46156">
        <ele>3635</ele>
        <time>2011-10-01T15:53:56.13</time>
      </trkpt>
      <trkpt lat="42.76913" lon="0.46169">
        <ele>3635.5</ele>
        <time>2011-10-01T15:53:57.14</time>
      </trkpt>
      <trkpt lat="42.76905" lon="0.46182">
        <ele>3635.5</ele>
        <time>2011-10-01T15:53:58.14</time>
      </trkpt>
      <trkpt lat="42.76897" lon="0.46194">
        <ele>3635</ele>
        <time>2011-10-01T15:53:59.15</time>
      </trkpt>
      <trkpt lat="42.76888" lon="0.46204">
        <ele>3634</ele>
        <time>2011-10-01T15:54:00.15</time>
      </trkpt>
      <trkpt lat="42.76877" lon="0.46213">
        <ele>3632.5</ele>
        <time>2011-10-01T15:54:01.17</time>
      </trkpt>
      <trkpt lat="42.76867" lon="0.46218">
        <ele>3631</ele>
        <time>2011-10-01T15:54:02.20</time>
      </trkpt>
      <trkpt lat="42.76855" lon="0.4622">
        <ele>3631</ele>
        <time>2011-10-01T15:54:03.15</time>
      </trkpt>
      <trkpt lat="42.76844" lon="0.4622">
        <ele>3630.5</ele>
        <time>2011-10-01T15:54:04.17</time>
      </trkpt>
      <trkpt lat="42.76833" lon="0.46219">
        <ele>3630.5</ele>
        <time>2011-10-01T15:54:05.23</time>
      </trkpt>
      <trkpt lat="42.76822" lon="0.46216">
        <ele>3629.5</ele>
        <time>2011-10-01T15:54:06.19</time>
      </trkpt>
      <trkpt lat="42.76811" lon="0.46212">
        <ele>3628</ele>
        <time>2011-10-01T15:54:07.22</time>
      </trkpt>
      <trkpt lat="42.768" lon="0.46208">
        <ele>3626.5</ele>
        <time>2011-10-01T15:54:08.13</time>
      </trkpt>
      <trkpt lat="42.76789" lon="0.46205">
        <ele>3625</ele>
        <time>2011-10-01T15:54:09.20</time>
      </trkpt>
      <trkpt lat="42.76776" lon="0.46203">
        <ele>3624</ele>
        <time>2011-10-01T15:54:10.14</time>
      </trkpt>
      <trkpt lat="42.76764" lon="0.46201">
        <ele>3622</ele>
        <time>2011-10-01T15:54:11.17</time>
      </trkpt>
      <trkpt lat="42.76752" lon="0.46199">
        <ele>3621</ele>
        <time>2011-10-01T15:54:12.15</time>
      </trkpt>
      <trkpt lat="42.7674" lon="0.46197">
        <ele>3620.5</ele>
        <time>2011-10-01T15:54:13.20</time>
      </trkpt>
      <trkpt lat="42.76728" lon="0.46196">
        <ele>3619.5</ele>
        <time>2011-10-01T15:54:14.13</time>
      </trkpt>
      <trkpt lat="42.76716" lon="0.46195">
        <ele>3618</ele>
        <time>2011-10-01T15:54:15.22</time>
      </trkpt>
      <trkpt lat="42.76704" lon="0.46194">
        <ele>3618</ele>
        <time>2011-10-01T15:54:16.15</time>
      </trkpt>
      <trkpt lat="42.76676" lon="0.46188">
        <ele>3618</ele>
        <time>2011-10-01T15:54:18.14</time>
      </trkpt>
      <trkpt lat="42.76665" lon="0.46177">
        <ele>3617</ele>
        <time>2011-10-01T15:54:19.15</time>
      </trkpt>
      <trkpt lat="42.76655" lon="0.46164">
        <ele>3619</ele>
        <time>2011-10-01T15:54:20.22</time>
      </trkpt>
      <trkpt lat="42.76651" lon="0.46146">
        <ele>3618.5</ele>
        <time>2011-10-01T15:54:21.22</time>
      </trkpt>
      <trkpt lat="42.7665" lon="0.46128">
        <ele>3617</ele>
        <time>2011-10-01T15:54:22.14</time>
      </trkpt>
      <trkpt lat="42.76649" lon="0.46111">
        <ele>3616.5</ele>
        <time>2011-10-01T15:54:23.15</time>
      </trkpt>
      <trkpt lat="42.76652" lon="0.46093">
        <ele>3616.5</ele>
        <time>2011-10-01T15:54:24.14</time>
      </trkpt>
      <trkpt lat="42.76657" lon="0.46077">
        <ele>3615</ele>
        <time>2011-10-01T15:54:25.24</time>
      </trkpt>
      <trkpt lat="42.76665" lon="0.46061">
        <ele>3613</ele>
        <time>2011-10-01T15:54:26.14</time>
      </trkpt>
      <trkpt lat="42.76673" lon="0.46047">
        <ele>3612.5</ele>
        <time>2011-10-01T15:54:27.14</time>
      </trkpt>
      <trkpt lat="42.7668" lon="0.46034">
        <ele>3611.5</ele>
        <time>2011-10-01T15:54:28.13</time>
      </trkpt>
      <trkpt lat="42.76687" lon="0.4602">
        <ele>3609</ele>
        <time>2011-10-01T15:54:29.16</time>
      </trkpt>
      <trkpt lat="42.76695" lon="0.46005">
        <ele>3606.5</ele>
        <time>2011-10-01T15:54:30.13</time>
      </trkpt>
      <trkpt lat="42.76702" lon="0.45989">
        <ele>3605</ele>
        <time>2011-10-01T15:54:31.15</time>
      </trkpt>
      <trkpt lat="42.76708" lon="0.45973">
        <ele>3604</ele>
        <time>2011-10-01T15:54:32.20</time>
      </trkpt>
      <trkpt lat="42.76714" lon="0.45957">
        <ele>3603.5</ele>
        <time>2011-10-01T15:54:33.15</time>
      </trkpt>
      <trkpt lat="42.76718" lon="0.45941">
        <ele>3604</ele>
        <time>2011-10-01T15:54:34.13</time>
      </trkpt>
      <trkpt lat="42.76721" lon="0.45925">
        <ele>3604</ele>
        <time>2011-10-01T15:54:35.14</time>
      </trkpt>
      <trkpt lat="42.76723" lon="0.45908">
        <ele>3604</ele>
        <time>2011-10-01T15:54:36.13</time>
      </trkpt>
      <trkpt lat="42.76721" lon="0.45892">
        <ele>3603</ele>
        <time>2011-10-01T15:54:37.15</time>
      </trkpt>
      <trkpt lat="42.76719" lon="0.45876">
        <ele>3601.5</ele>
        <time>2011-10-01T15:54:38.14</time>
      </trkpt>
      <trkpt lat="42.76716" lon="0.4586">
        <ele>3600.5</ele>
        <time>2011-10-01T15:54:39.15</time>
      </trkpt>
      <trkpt lat="42.76712" lon="0.45845">
        <ele>3599.5</ele>
        <time>2011-10-01T15:54:40.13</time>
      </trkpt>
      <trkpt lat="42.76708" lon="0.45829">
        <ele>3598.5</ele>
        <time>2011-10-01T15:54:41.14</time>
      </trkpt>
      <trkpt lat="42.76706" lon="0.45813">
        <ele>3598.5</ele>
        <time>2011-10-01T15:54:42.17</time>
      </trkpt>
      <trkpt lat="42.76708" lon="0.45795">
        <ele>3596.5</ele>
        <time>2011-10-01T15:54:43.19</time>
      </trkpt>
      <trkpt lat="42.76714" lon="0.45778">
        <ele>3595.5</ele>
        <time>2011-10-01T15:54:44.13</time>
      </trkpt>
      <trkpt lat="42.76733" lon="0.45756">
        <ele>3591.5</ele>
        <time>2011-10-01T15:54:46.14</time>
      </trkpt>
      <trkpt lat="42.7676" lon="0.45756">
        <ele>3581</ele>
        <time>2011-10-01T15:54:48.19</time>
      </trkpt>
      <trkpt lat="42.7678" lon="0.45775">
        <ele>3578</ele>
        <time>2011-10-01T15:54:50.17</time>
      </trkpt>
      <trkpt lat="42.76777" lon="0.458">
        <ele>3577.5</ele>
        <time>2011-10-01T15:54:52.14</time>
      </trkpt>
      <trkpt lat="42.76753" lon="0.45823">
        <ele>3575</ele>
        <time>2011-10-01T15:54:54.14</time>
      </trkpt>
      <trkpt lat="42.76741" lon="0.45827">
        <ele>3574.5</ele>
        <time>2011-10-01T15:54:55.15</time>
      </trkpt>
      <trkpt lat="42.7673" lon="0.45826">
        <ele>3572.5</ele>
        <time>2011-10-01T15:54:56.14</time>
      </trkpt>
      <trkpt lat="42.76718" lon="0.4582">
        <ele>3571.5</ele>
        <time>2011-10-01T15:54:57.19</time>
      </trkpt>
      <trkpt lat="42.7671" lon="0.45809">
        <ele>3569.5</ele>
        <time>2011-10-01T15:54:58.13</time>
      </trkpt>
      <trkpt lat="42.76704" lon="0.45797">
        <ele>3568</ele>
        <time>2011-10-01T15:54:59.19</time>
      </trkpt>
      <trkpt lat="42.76703" lon="0.45784">
        <ele>3567</ele>
        <time>2011-10-01T15:55:00.17</time>
      </trkpt>
      <trkpt lat="42.76702" lon="0.4577">
        <ele>3564.5</ele>
        <time>2011-10-01T15:55:01.15</time>
      </trkpt>
      <trkpt lat="42.76701" lon="0.45754">
        <ele>3564.5</ele>
        <time>2011-10-01T15:55:02.15</time>
      </trkpt>
      <trkpt lat="42.76703" lon="0.45738">
        <ele>3564.5</ele>
        <time>2011-10-01T15:55:03.19</time>
      </trkpt>
      <trkpt lat="42.76706" lon="0.45722">
        <ele>3564</ele>
        <time>2011-10-01T15:55:04.15</time>
      </trkpt>
      <trkpt lat="42.76711" lon="0.45705">
        <ele>3564</ele>
        <time>2011-10-01T15:55:05.19</time>
      </trkpt>
      <trkpt lat="42.76715" lon="0.45686">
        <ele>3563.5</ele>
        <time>2011-10-01T15:55:06.15</time>
      </trkpt>
      <trkpt lat="42.76721" lon="0.4567">
        <ele>3561</ele>
        <time>2011-10-01T15:55:07.18</time>
      </trkpt>
      <trkpt lat="42.76726" lon="0.45654">
        <ele>3559.5</ele>
        <time>2011-10-01T15:55:08.23</time>
      </trkpt>
      <trkpt lat="42.76732" lon="0.45639">
        <ele>3558</ele>
        <time>2011-10-01T15:55:09.14</time>
      </trkpt>
      <trkpt lat="42.76737" lon="0.45623">
        <ele>3557.5</ele>
        <time>2011-10-01T15:55:10.15</time>
      </trkpt>
      <trkpt lat="42.76742" lon="0.45607">
        <ele>3557</ele>
        <time>2011-10-01T15:55:11.15</time>
      </trkpt>
      <trkpt lat="42.76747" lon="0.4559">
        <ele>3556.5</ele>
        <time>2011-10-01T15:55:12.13</time>
      </trkpt>
      <trkpt lat="42.76754" lon="0.45573">
        <ele>3554</ele>
        <time>2011-10-01T15:55:13.15</time>
      </trkpt>
      <trkpt lat="42.7676" lon="0.45558">
        <ele>3551.5</ele>
        <time>2011-10-01T15:55:14.13</time>
      </trkpt>
      <trkpt lat="42.76767" lon="0.45543">
        <ele>3550.5</ele>
        <time>2011-10-01T15:55:15.14</time>
      </trkpt>
      <trkpt lat="42.76773" lon="0.45528">
        <ele>3549.5</ele>
        <time>2011-10-01T15:55:16.22</time>
      </trkpt>
      <trkpt lat="42.76781" lon="0.45514">
        <ele>3548.5</ele>
        <time>2011-10-01T15:55:17.15</time>
      </trkpt>
      <trkpt lat="42.76789" lon="0.45499">
        <ele>3546</ele>
        <time>2011-10-01T15:55:18.19</time>
      </trkpt>
      <trkpt lat="42.76796" lon="0.45485">
        <ele>3546</ele>
        <time>2011-10-01T15:55:19.15</time>
      </trkpt>
      <trkpt lat="42.76805" lon="0.45471">
        <ele>3544</ele>
        <time>2011-10-01T15:55:20.14</time>
      </trkpt>
      <trkpt lat="42.76814" lon="0.45456">
        <ele>3541.5</ele>
        <time>2011-10-01T15:55:21.16</time>
      </trkpt>
      <trkpt lat="42.76824" lon="0.45441">
        <ele>3541</ele>
        <time>2011-10-01T15:55:22.14</time>
      </trkpt>
      <trkpt lat="42.76833" lon="0.45427">
        <ele>3540.5</ele>
        <time>2011-10-01T15:55:23.15</time>
      </trkpt>
      <trkpt lat="42.76844" lon="0.45417">
        <ele>3538</ele>
        <time>2011-10-01T15:55:24.25</time>
      </trkpt>
      <trkpt lat="42.76854" lon="0.45409">
        <ele>3538</ele>
        <time>2011-10-01T15:55:25.15</time>
      </trkpt>
      <trkpt lat="42.76865" lon="0.45406">
        <ele>3537.5</ele>
        <time>2011-10-01T15:55:26.13</time>
      </trkpt>
      <trkpt lat="42.76879" lon="0.45407">
        <ele>3535</ele>
        <time>2011-10-01T15:55:27.15</time>
      </trkpt>
      <trkpt lat="42.76908" lon="0.4542">
        <ele>3527.5</ele>
        <time>2011-10-01T15:55:29.18</time>
      </trkpt>
      <trkpt lat="42.76934" lon="0.4544">
        <ele>3525.5</ele>
        <time>2011-10-01T15:55:31.15</time>
      </trkpt>
      <trkpt lat="42.76951" lon="0.45465">
        <ele>3521</ele>
        <time>2011-10-01T15:55:33.15</time>
      </trkpt>
      <trkpt lat="42.76959" lon="0.45479">
        <ele>3516.5</ele>
        <time>2011-10-01T15:55:34.13</time>
      </trkpt>
      <trkpt lat="42.76967" lon="0.45492">
        <ele>3516</ele>
        <time>2011-10-01T15:55:35.18</time>
      </trkpt>
      <trkpt lat="42.76975" lon="0.45505">
        <ele>3514.5</ele>
        <time>2011-10-01T15:55:36.22</time>
      </trkpt>
      <trkpt lat="42.76982" lon="0.45518">
        <ele>3513.5</ele>
        <time>2011-10-01T15:55:37.23</time>
      </trkpt>
      <trkpt lat="42.76991" lon="0.4553">
        <ele>3512.5</ele>
        <time>2011-10-01T15:55:38.15</time>
      </trkpt>
      <trkpt lat="42.77" lon="0.45541">
        <ele>3510</ele>
        <time>2011-10-01T15:55:39.14</time>
      </trkpt>
      <trkpt lat="42.7701" lon="0.45552">
        <ele>3507</ele>
        <time>2011-10-01T15:55:40.19</time>
      </trkpt>
      <trkpt lat="42.7702" lon="0.45562">
        <ele>3504.5</ele>
        <time>2011-10-01T15:55:41.15</time>
      </trkpt>
      <trkpt lat="42.77031" lon="0.45571">
        <ele>3504</ele>
        <time>2011-10-01T15:55:42.14</time>
      </trkpt>
      <trkpt lat="42.77042" lon="0.4558">
        <ele>3501.5</ele>
        <time>2011-10-01T15:55:43.15</time>
      </trkpt>
      <trkpt lat="42.77056" lon="0.45585">
        <ele>3498</ele>
        <time>2011-10-01T15:55:44.17</time>
      </trkpt>
      <trkpt lat="42.77069" lon="0.45589">
        <ele>3496</ele>
        <time>2011-10-01T15:55:45.14</time>
      </trkpt>
      <trkpt lat="42.77082" lon="0.45591">
        <ele>3494</ele>
        <time>2011-10-01T15:55:46.14</time>
      </trkpt>
      <trkpt lat="42.77113" lon="0.45592">
        <ele>3492</ele>
        <time>2011-10-01T15:55:48.14</time>
      </trkpt>
      <trkpt lat="42.77127" lon="0.4559">
        <ele>3490.5</ele>
        <time>2011-10-01T15:55:49.13</time>
      </trkpt>
      <trkpt lat="42.77141" lon="0.45588">
        <ele>3489.5</ele>
        <time>2011-10-01T15:55:50.14</time>
      </trkpt>
      <trkpt lat="42.77155" lon="0.45586">
        <ele>3487.5</ele>
        <time>2011-10-01T15:55:51.14</time>
      </trkpt>
      <trkpt lat="42.77168" lon="0.45583">
        <ele>3487.5</ele>
        <time>2011-10-01T15:55:52.13</time>
      </trkpt>
      <trkpt lat="42.77181" lon="0.4558">
        <ele>3487</ele>
        <time>2011-10-01T15:55:53.14</time>
      </trkpt>
      <trkpt lat="42.77195" lon="0.45575">
        <ele>3485.5</ele>
        <time>2011-10-01T15:55:54.14</time>
      </trkpt>
      <trkpt lat="42.77209" lon="0.45569">
        <ele>3483.5</ele>
        <time>2011-10-01T15:55:55.15</time>
      </trkpt>
      <trkpt lat="42.77222" lon="0.45563">
        <ele>3482</ele>
        <time>2011-10-01T15:55:56.23</time>
      </trkpt>
      <trkpt lat="42.77236" lon="0.45557">
        <ele>3480.5</ele>
        <time>2011-10-01T15:55:57.15</time>
      </trkpt>
      <trkpt lat="42.77249" lon="0.45553">
        <ele>3478.5</ele>
        <time>2011-10-01T15:55:58.14</time>
      </trkpt>
      <trkpt lat="42.77264" lon="0.4555">
        <ele>3476.5</ele>
        <time>2011-10-01T15:55:59.14</time>
      </trkpt>
      <trkpt lat="42.77279" lon="0.45551">
        <ele>3474.5</ele>
        <time>2011-10-01T15:56:00.14</time>
      </trkpt>
      <trkpt lat="42.77294" lon="0.45554">
        <ele>3472</ele>
        <time>2011-10-01T15:56:01.16</time>
      </trkpt>
      <trkpt lat="42.77326" lon="0.4557">
        <ele>3468.5</ele>
        <time>2011-10-01T15:56:03.15</time>
      </trkpt>
      <trkpt lat="42.77341" lon="0.45577">
        <ele>3467</ele>
        <time>2011-10-01T15:56:04.14</time>
      </trkpt>
      <trkpt lat="42.77355" lon="0.45585">
        <ele>3464.5</ele>
        <time>2011-10-01T15:56:05.15</time>
      </trkpt>
      <trkpt lat="42.7737" lon="0.45593">
        <ele>3462</ele>
        <time>2011-10-01T15:56:06.14</time>
      </trkpt>
      <trkpt lat="42.77385" lon="0.45601">
        <ele>3459.5</ele>
        <time>2011-10-01T15:56:07.24</time>
      </trkpt>
      <trkpt lat="42.77416" lon="0.4562">
        <ele>3458.5</ele>
        <time>2011-10-01T15:56:09.17</time>
      </trkpt>
      <trkpt lat="42.77431" lon="0.45628">
        <ele>3457</ele>
        <time>2011-10-01T15:56:10.13</time>
      </trkpt>
      <trkpt lat="42.77446" lon="0.45635">
        <ele>3457</ele>
        <time>2011-10-01T15:56:11.14</time>
      </trkpt>
      <trkpt lat="42.77459" lon="0.45641">
        <ele>3456</ele>
        <time>2011-10-01T15:56:12.14</time>
      </trkpt>
      <trkpt lat="42.77473" lon="0.45648">
        <ele>3457.5</ele>
        <time>2011-10-01T15:56:13.15</time>
      </trkpt>
      <trkpt lat="42.77486" lon="0.45655">
        <ele>3456.5</ele>
        <time>2011-10-01T15:56:14.13</time>
      </trkpt>
      <trkpt lat="42.775" lon="0.45662">
        <ele>3455</ele>
        <time>2011-10-01T15:56:15.15</time>
      </trkpt>
      <trkpt lat="42.77514" lon="0.45669">
        <ele>3454.5</ele>
        <time>2011-10-01T15:56:16.13</time>
      </trkpt>
      <trkpt lat="42.77529" lon="0.45674">
        <ele>3454.5</ele>
        <time>2011-10-01T15:56:17.15</time>
      </trkpt>
      <trkpt lat="42.77544" lon="0.45678">
        <ele>3454.5</ele>
        <time>2011-10-01T15:56:18.13</time>
      </trkpt>
      <trkpt lat="42.77559" lon="0.45681">
        <ele>3455</ele>
        <time>2011-10-01T15:56:19.14</time>
      </trkpt>
      <trkpt lat="42.77575" lon="0.45683">
        <ele>3455.5</ele>
        <time>2011-10-01T15:56:20.13</time>
      </trkpt>
      <trkpt lat="42.77589" lon="0.45686">
        <ele>3456</ele>
        <time>2011-10-01T15:56:21.15</time>
      </trkpt>
      <trkpt lat="42.77603" lon="0.45689">
        <ele>3456</ele>
        <time>2011-10-01T15:56:22.13</time>
      </trkpt>
      <trkpt lat="42.77618" lon="0.45694">
        <ele>3457</ele>
        <time>2011-10-01T15:56:23.15</time>
      </trkpt>
      <trkpt lat="42.77633" lon="0.457">
        <ele>3457.5</ele>
        <time>2011-10-01T15:56:24.13</time>
      </trkpt>
      <trkpt lat="42.77649" lon="0.45707">
        <ele>3458</ele>
        <time>2011-10-01T15:56:25.14</time>
      </trkpt>
      <trkpt lat="42.77666" lon="0.45715">
        <ele>3459</ele>
        <time>2011-10-01T15:56:26.12</time>
      </trkpt>
      <trkpt lat="42.77684" lon="0.45722">
        <ele>3459</ele>
        <time>2011-10-01T15:56:27.14</time>
      </trkpt>
      <trkpt lat="42.777" lon="0.45728">
        <ele>3459</ele>
        <time>2011-10-01T15:56:28.14</time>
      </trkpt>
      <trkpt lat="42.77717" lon="0.45734">
        <ele>3459</ele>
        <time>2011-10-01T15:56:29.15</time>
      </trkpt>
      <trkpt lat="42.77733" lon="0.45739">
        <ele>3459</ele>
        <time>2011-10-01T15:56:30.14</time>
      </trkpt>
      <trkpt lat="42.77749" lon="0.45743">
        <ele>3459.5</ele>
        <time>2011-10-01T15:56:31.15</time>
      </trkpt>
      <trkpt lat="42.77764" lon="0.45747">
        <ele>3461</ele>
        <time>2011-10-01T15:56:32.12</time>
      </trkpt>
      <trkpt lat="42.77779" lon="0.45752">
        <ele>3462</ele>
        <time>2011-10-01T15:56:33.14</time>
      </trkpt>
      <trkpt lat="42.77795" lon="0.45757">
        <ele>3463</ele>
        <time>2011-10-01T15:56:34.14</time>
      </trkpt>
      <trkpt lat="42.77812" lon="0.45762">
        <ele>3463.5</ele>
        <time>2011-10-01T15:56:35.14</time>
      </trkpt>
      <trkpt lat="42.77829" lon="0.45769">
        <ele>3465.5</ele>
        <time>2011-10-01T15:56:36.12</time>
      </trkpt>
      <trkpt lat="42.77846" lon="0.45777">
        <ele>3466</ele>
        <time>2011-10-01T15:56:37.13</time>
      </trkpt>
      <trkpt lat="42.77861" lon="0.45785">
        <ele>3466.5</ele>
        <time>2011-10-01T15:56:38.14</time>
      </trkpt>
      <trkpt lat="42.77876" lon="0.45793">
        <ele>3468</ele>
        <time>2011-10-01T15:56:39.13</time>
      </trkpt>
      <trkpt lat="42.7789" lon="0.458">
        <ele>3467</ele>
        <time>2011-10-01T15:56:40.12</time>
      </trkpt>
      <trkpt lat="42.77904" lon="0.45809">
        <ele>3466</ele>
        <time>2011-10-01T15:56:41.14</time>
      </trkpt>
      <trkpt lat="42.77918" lon="0.45818">
        <ele>3465.5</ele>
        <time>2011-10-01T15:56:42.12</time>
      </trkpt>
      <trkpt lat="42.77945" lon="0.45849">
        <ele>3467</ele>
        <time>2011-10-01T15:56:44.13</time>
      </trkpt>
      <trkpt lat="42.77952" lon="0.45869">
        <ele>3466.5</ele>
        <time>2011-10-01T15:56:45.13</time>
      </trkpt>
      <trkpt lat="42.7796" lon="0.4589">
        <ele>3465</ele>
        <time>2011-10-01T15:56:46.13</time>
      </trkpt>
      <trkpt lat="42.77963" lon="0.45912">
        <ele>3465</ele>
        <time>2011-10-01T15:56:47.14</time>
      </trkpt>
      <trkpt lat="42.7796" lon="0.45934">
        <ele>3465.5</ele>
        <time>2011-10-01T15:56:48.13</time>
      </trkpt>
      <trkpt lat="42.77952" lon="0.45951">
        <ele>3466</ele>
        <time>2011-10-01T15:56:49.14</time>
      </trkpt>
      <trkpt lat="42.77941" lon="0.45966">
        <ele>3466</ele>
        <time>2011-10-01T15:56:50.13</time>
      </trkpt>
      <trkpt lat="42.7793" lon="0.45976">
        <ele>3466</ele>
        <time>2011-10-01T15:56:51.13</time>
      </trkpt>
      <trkpt lat="42.77908" lon="0.45985">
        <ele>3465</ele>
        <time>2011-10-01T15:56:53.14</time>
      </trkpt>
      <trkpt lat="42.77896" lon="0.45984">
        <ele>3463</ele>
        <time>2011-10-01T15:56:54.13</time>
      </trkpt>
      <trkpt lat="42.77886" lon="0.4598">
        <ele>3463</ele>
        <time>2011-10-01T15:56:55.14</time>
      </trkpt>
      <trkpt lat="42.77877" lon="0.45977">
        <ele>3464</ele>
        <time>2011-10-01T15:56:56.13</time>
      </trkpt>
      <trkpt lat="42.7787" lon="0.45974">
        <ele>3464.5</ele>
        <time>2011-10-01T15:56:57.13</time>
      </trkpt>
      <trkpt lat="42.77863" lon="0.45969">
        <ele>3464</ele>
        <time>2011-10-01T15:56:58.12</time>
      </trkpt>
      <trkpt lat="42.77855" lon="0.45964">
        <ele>3463</ele>
        <time>2011-10-01T15:56:59.12</time>
      </trkpt>
      <trkpt lat="42.77846" lon="0.45959">
        <ele>3461.5</ele>
        <time>2011-10-01T15:57:00.13</time>
      </trkpt>
      <trkpt lat="42.77836" lon="0.45954">
        <ele>3461</ele>
        <time>2011-10-01T15:57:01.12</time>
      </trkpt>
      <trkpt lat="42.77827" lon="0.45951">
        <ele>3462</ele>
        <time>2011-10-01T15:57:02.12</time>
      </trkpt>
      <trkpt lat="42.77818" lon="0.45948">
        <ele>3463.5</ele>
        <time>2011-10-01T15:57:03.14</time>
      </trkpt>
      <trkpt lat="42.77809" lon="0.45946">
        <ele>3464.5</ele>
        <time>2011-10-01T15:57:04.13</time>
      </trkpt>
      <trkpt lat="42.77801" lon="0.45944">
        <ele>3464</ele>
        <time>2011-10-01T15:57:05.12</time>
      </trkpt>
      <trkpt lat="42.77791" lon="0.45941">
        <ele>3463.5</ele>
        <time>2011-10-01T15:57:06.13</time>
      </trkpt>
      <trkpt lat="42.77781" lon="0.45938">
        <ele>3464</ele>
        <time>2011-10-01T15:57:07.12</time>
      </trkpt>
      <trkpt lat="42.77773" lon="0.45934">
        <ele>3464</ele>
        <time>2011-10-01T15:57:08.12</time>
      </trkpt>
      <trkpt lat="42.77767" lon="0.4593">
        <ele>3464</ele>
        <time>2011-10-01T15:57:09.14</time>
      </trkpt>
      <trkpt lat="42.77755" lon="0.45923">
        <ele>3466</ele>
        <time>2011-10-01T15:57:11.12</time>
      </trkpt>
      <trkpt lat="42.77749" lon="0.45917">
        <ele>3465.5</ele>
        <time>2011-10-01T15:57:12.13</time>
      </trkpt>
      <trkpt lat="42.77744" lon="0.45908">
        <ele>3464</ele>
        <time>2011-10-01T15:57:13.12</time>
      </trkpt>
      <trkpt lat="42.77738" lon="0.45898">
        <ele>3462.5</ele>
        <time>2011-10-01T15:57:14.12</time>
      </trkpt>
      <trkpt lat="42.77725" lon="0.45873">
        <ele>3465</ele>
        <time>2011-10-01T15:57:16.13</time>
      </trkpt>
      <trkpt lat="42.77719" lon="0.45863">
        <ele>3465</ele>
        <time>2011-10-01T15:57:17.14</time>
      </trkpt>
      <trkpt lat="42.77713" lon="0.45854">
        <ele>3465</ele>
        <time>2011-10-01T15:57:18.15</time>
      </trkpt>
      <trkpt lat="42.77707" lon="0.45845">
        <ele>3465.5</ele>
        <time>2011-10-01T15:57:19.15</time>
      </trkpt>
      <trkpt lat="42.777" lon="0.45837">
        <ele>3465.5</ele>
        <time>2011-10-01T15:57:20.18</time>
      </trkpt>
      <trkpt lat="42.77693" lon="0.45829">
        <ele>3465.5</ele>
        <time>2011-10-01T15:57:21.20</time>
      </trkpt>
      <trkpt lat="42.77685" lon="0.45822">
        <ele>3466</ele>
        <time>2011-10-01T15:57:22.17</time>
      </trkpt>
      <trkpt lat="42.77678" lon="0.45817">
        <ele>3466</ele>
        <time>2011-10-01T15:57:23.22</time>
      </trkpt>
      <trkpt lat="42.77671" lon="0.45815">
        <ele>3467</ele>
        <time>2011-10-01T15:57:24.12</time>
      </trkpt>
      <trkpt lat="42.77663" lon="0.45816">
        <ele>3469</ele>
        <time>2011-10-01T15:57:25.14</time>
      </trkpt>
      <trkpt lat="42.77657" lon="0.45817">
        <ele>3470</ele>
        <time>2011-10-01T15:57:26.21</time>
      </trkpt>
      <trkpt lat="42.7765" lon="0.4582">
        <ele>3470</ele>
        <time>2011-10-01T15:57:27.14</time>
      </trkpt>
      <trkpt lat="42.77642" lon="0.45823">
        <ele>3470</ele>
        <time>2011-10-01T15:57:28.14</time>
      </trkpt>
      <trkpt lat="42.77621" lon="0.45824">
        <ele>3470.5</ele>
        <time>2011-10-01T15:57:30.13</time>
      </trkpt>
      <trkpt lat="42.7761" lon="0.45821">
        <ele>3470.5</ele>
        <time>2011-10-01T15:57:31.19</time>
      </trkpt>
      <trkpt lat="42.77601" lon="0.45817">
        <ele>3471</ele>
        <time>2011-10-01T15:57:32.13</time>
      </trkpt>
      <trkpt lat="42.77588" lon="0.45806">
        <ele>3471.5</ele>
        <time>2011-10-01T15:57:34.14</time>
      </trkpt>
      <trkpt lat="42.77571" lon="0.45786">
        <ele>3472</ele>
        <time>2011-10-01T15:57:36.15</time>
      </trkpt>
      <trkpt lat="42.77564" lon="0.45774">
        <ele>3472</ele>
        <time>2011-10-01T15:57:37.15</time>
      </trkpt>
      <trkpt lat="42.77559" lon="0.45762">
        <ele>3472.5</ele>
        <time>2011-10-01T15:57:38.16</time>
      </trkpt>
      <trkpt lat="42.77555" lon="0.4575">
        <ele>3472.5</ele>
        <time>2011-10-01T15:57:39.19</time>
      </trkpt>
      <trkpt lat="42.77549" lon="0.45741">
        <ele>3474.5</ele>
        <time>2011-10-01T15:57:40.22</time>
      </trkpt>
      <trkpt lat="42.77542" lon="0.45731">
        <ele>3478.5</ele>
        <time>2011-10-01T15:57:41.15</time>
      </trkpt>
      <trkpt lat="42.77535" lon="0.45724">
        <ele>3480</ele>
        <time>2011-10-01T15:57:42.13</time>
      </trkpt>
      <trkpt lat="42.77525" lon="0.45718">
        <ele>3480.5</ele>
        <time>2011-10-01T15:57:43.19</time>
      </trkpt>
      <trkpt lat="42.77515" lon="0.45715">
        <ele>3481.5</ele>
        <time>2011-10-01T15:57:44.17</time>
      </trkpt>
      <trkpt lat="42.77503" lon="0.45715">
        <ele>3483</ele>
        <time>2011-10-01T15:57:45.26</time>
      </trkpt>
      <trkpt lat="42.77494" lon="0.45717">
        <ele>3484.5</ele>
        <time>2011-10-01T15:57:46.13</time>
      </trkpt>
      <trkpt lat="42.77484" lon="0.4572">
        <ele>3484.5</ele>
        <time>2011-10-01T15:57:47.18</time>
      </trkpt>
      <trkpt lat="42.77474" lon="0.45724">
        <ele>3484.5</ele>
        <time>2011-10-01T15:57:48.12</time>
      </trkpt>
      <trkpt lat="42.77464" lon="0.45731">
        <ele>3483</ele>
        <time>2011-10-01T15:57:49.14</time>
      </trkpt>
      <trkpt lat="42.77455" lon="0.45743">
        <ele>3484.5</ele>
        <time>2011-10-01T15:57:50.16</time>
      </trkpt>
      <trkpt lat="42.77449" lon="0.45758">
        <ele>3484</ele>
        <time>2011-10-01T15:57:51.20</time>
      </trkpt>
      <trkpt lat="42.7745" lon="0.45798">
        <ele>3481.5</ele>
        <time>2011-10-01T15:57:53.15</time>
      </trkpt>
      <trkpt lat="42.77456" lon="0.45817">
        <ele>3481.5</ele>
        <time>2011-10-01T15:57:54.13</time>
      </trkpt>
      <trkpt lat="42.77472" lon="0.45841">
        <ele>3486.5</ele>
        <time>2011-10-01T15:57:56.14</time>
      </trkpt>
      <trkpt lat="42.77502" lon="0.45834">
        <ele>3488.5</ele>
        <time>2011-10-01T15:57:58.13</time>
      </trkpt>
      <trkpt lat="42.7752" lon="0.45808">
        <ele>3492.5</ele>
        <time>2011-10-01T15:58:00.14</time>
      </trkpt>
      <trkpt lat="42.77524" lon="0.45791">
        <ele>3494</ele>
        <time>2011-10-01T15:58:01.19</time>
      </trkpt>
      <trkpt lat="42.77523" lon="0.45774">
        <ele>3494.5</ele>
        <time>2011-10-01T15:58:02.16</time>
      </trkpt>
      <trkpt lat="42.77517" lon="0.45739">
        <ele>3498.5</ele>
        <time>2011-10-01T15:58:05.14</time>
      </trkpt>
      <trkpt lat="42.77512" lon="0.45727">
        <ele>3501</ele>
        <time>2011-10-01T15:58:06.13</time>
      </trkpt>
      <trkpt lat="42.77506" lon="0.45714">
        <ele>3503.5</ele>
        <time>2011-10-01T15:58:07.23</time>
      </trkpt>
      <trkpt lat="42.77494" lon="0.45688">
        <ele>3506.5</ele>
        <time>2011-10-01T15:58:09.18</time>
      </trkpt>
      <trkpt lat="42.77489" lon="0.45677">
        <ele>3509</ele>
        <time>2011-10-01T15:58:10.15</time>
      </trkpt>
      <trkpt lat="42.77485" lon="0.45666">
        <ele>3509.5</ele>
        <time>2011-10-01T15:58:11.19</time>
      </trkpt>
      <trkpt lat="42.77481" lon="0.45657">
        <ele>3509</ele>
        <time>2011-10-01T15:58:12.20</time>
      </trkpt>
      <trkpt lat="42.77476" lon="0.45646">
        <ele>3509</ele>
        <time>2011-10-01T15:58:13.18</time>
      </trkpt>
      <trkpt lat="42.7747" lon="0.45634">
        <ele>3509.5</ele>
        <time>2011-10-01T15:58:14.14</time>
      </trkpt>
      <trkpt lat="42.7747" lon="0.45601">
        <ele>3513</ele>
        <time>2011-10-01T15:58:16.15</time>
      </trkpt>
      <trkpt lat="42.77476" lon="0.45584">
        <ele>3515.5</ele>
        <time>2011-10-01T15:58:17.14</time>
      </trkpt>
      <trkpt lat="42.77486" lon="0.45571">
        <ele>3517</ele>
        <time>2011-10-01T15:58:18.17</time>
      </trkpt>
      <trkpt lat="42.77498" lon="0.4556">
        <ele>3518.5</ele>
        <time>2011-10-01T15:58:19.14</time>
      </trkpt>
      <trkpt lat="42.77511" lon="0.45554">
        <ele>3519.5</ele>
        <time>2011-10-01T15:58:20.22</time>
      </trkpt>
      <trkpt lat="42.77525" lon="0.4555">
        <ele>3518</ele>
        <time>2011-10-01T15:58:21.15</time>
      </trkpt>
      <trkpt lat="42.7754" lon="0.4555">
        <ele>3519</ele>
        <time>2011-10-01T15:58:22.13</time>
      </trkpt>
      <trkpt lat="42.77555" lon="0.45553">
        <ele>3519.5</ele>
        <time>2011-10-01T15:58:23.16</time>
      </trkpt>
      <trkpt lat="42.77598" lon="0.45592">
        <ele>3518.5</ele>
        <time>2011-10-01T15:58:26.14</time>
      </trkpt>
      <trkpt lat="42.77606" lon="0.4561">
        <ele>3519.5</ele>
        <time>2011-10-01T15:58:27.23</time>
      </trkpt>
      <trkpt lat="42.77611" lon="0.45628">
        <ele>3520</ele>
        <time>2011-10-01T15:58:28.14</time>
      </trkpt>
      <trkpt lat="42.77584" lon="0.45653">
        <ele>3519.5</ele>
        <time>2011-10-01T15:58:32.14</time>
      </trkpt>
      <trkpt lat="42.77568" lon="0.45632">
        <ele>3515.5</ele>
        <time>2011-10-01T15:58:34.13</time>
      </trkpt>
      <trkpt lat="42.77565" lon="0.45619">
        <ele>3515</ele>
        <time>2011-10-01T15:58:35.23</time>
      </trkpt>
      <trkpt lat="42.77562" lon="0.45605">
        <ele>3515.5</ele>
        <time>2011-10-01T15:58:37.30</time>
      </trkpt>
      <trkpt lat="42.77553" lon="0.45568">
        <ele>3516.5</ele>
        <time>2011-10-01T15:58:39.20</time>
      </trkpt>
      <trkpt lat="42.7755" lon="0.45556">
        <ele>3515.5</ele>
        <time>2011-10-01T15:58:40.14</time>
      </trkpt>
      <trkpt lat="42.77547" lon="0.45544">
        <ele>3515</ele>
        <time>2011-10-01T15:58:41.17</time>
      </trkpt>
      <trkpt lat="42.77543" lon="0.45532">
        <ele>3514.5</ele>
        <time>2011-10-01T15:58:42.21</time>
      </trkpt>
      <trkpt lat="42.7754" lon="0.45521">
        <ele>3514.5</ele>
        <time>2011-10-01T15:58:43.13</time>
      </trkpt>
      <trkpt lat="42.77537" lon="0.4551">
        <ele>3513.5</ele>
        <time>2011-10-01T15:58:44.21</time>
      </trkpt>
      <trkpt lat="42.77534" lon="0.455">
        <ele>3511</ele>
        <time>2011-10-01T15:58:45.20</time>
      </trkpt>
      <trkpt lat="42.7753" lon="0.45489">
        <ele>3511</ele>
        <time>2011-10-01T15:58:46.14</time>
      </trkpt>
      <trkpt lat="42.77525" lon="0.45478">
        <ele>3510.5</ele>
        <time>2011-10-01T15:58:47.14</time>
      </trkpt>
      <trkpt lat="42.77519" lon="0.45468">
        <ele>3510</ele>
        <time>2011-10-01T15:58:48.14</time>
      </trkpt>
      <trkpt lat="42.77514" lon="0.45461">
        <ele>3508.5</ele>
        <time>2011-10-01T15:58:49.13</time>
      </trkpt>
      <trkpt lat="42.77508" lon="0.45455">
        <ele>3508.5</ele>
        <time>2011-10-01T15:58:50.22</time>
      </trkpt>
      <trkpt lat="42.775" lon="0.45452">
        <ele>3508</ele>
        <time>2011-10-01T15:58:51.21</time>
      </trkpt>
      <trkpt lat="42.77482" lon="0.45458">
        <ele>3507.5</ele>
        <time>2011-10-01T15:58:53.13</time>
      </trkpt>
      <trkpt lat="42.77474" lon="0.45463">
        <ele>3508.5</ele>
        <time>2011-10-01T15:58:54.14</time>
      </trkpt>
      <trkpt lat="42.77465" lon="0.4547">
        <ele>3509</ele>
        <time>2011-10-01T15:58:55.13</time>
      </trkpt>
      <trkpt lat="42.77456" lon="0.4548">
        <ele>3510.5</ele>
        <time>2011-10-01T15:58:56.17</time>
      </trkpt>
      <trkpt lat="42.7745" lon="0.45492">
        <ele>3510.5</ele>
        <time>2011-10-01T15:58:57.20</time>
      </trkpt>
      <trkpt lat="42.77446" lon="0.45505">
        <ele>3510</ele>
        <time>2011-10-01T15:58:58.15</time>
      </trkpt>
      <trkpt lat="42.77442" lon="0.45519">
        <ele>3510.5</ele>
        <time>2011-10-01T15:58:59.13</time>
      </trkpt>
      <trkpt lat="42.77442" lon="0.45535">
        <ele>3512</ele>
        <time>2011-10-01T15:59:00.14</time>
      </trkpt>
      <trkpt lat="42.77442" lon="0.45552">
        <ele>3515</ele>
        <time>2011-10-01T15:59:01.17</time>
      </trkpt>
      <trkpt lat="42.77444" lon="0.45569">
        <ele>3516</ele>
        <time>2011-10-01T15:59:02.18</time>
      </trkpt>
      <trkpt lat="42.77447" lon="0.45588">
        <ele>3516</ele>
        <time>2011-10-01T15:59:03.15</time>
      </trkpt>
      <trkpt lat="42.77452" lon="0.45607">
        <ele>3516</ele>
        <time>2011-10-01T15:59:04.22</time>
      </trkpt>
      <trkpt lat="42.77458" lon="0.45626">
        <ele>3517</ele>
        <time>2011-10-01T15:59:05.15</time>
      </trkpt>
      <trkpt lat="42.77467" lon="0.45642">
        <ele>3518.5</ele>
        <time>2011-10-01T15:59:06.14</time>
      </trkpt>
      <trkpt lat="42.77477" lon="0.45656">
        <ele>3517.5</ele>
        <time>2011-10-01T15:59:07.13</time>
      </trkpt>
      <trkpt lat="42.77523" lon="0.45668">
        <ele>3520.5</ele>
        <time>2011-10-01T15:59:10.15</time>
      </trkpt>
      <trkpt lat="42.77552" lon="0.45646">
        <ele>3520.5</ele>
        <time>2011-10-01T15:59:12.14</time>
      </trkpt>
      <trkpt lat="42.77563" lon="0.45632">
        <ele>3518.5</ele>
        <time>2011-10-01T15:59:13.16</time>
      </trkpt>
      <trkpt lat="42.77572" lon="0.45617">
        <ele>3516.5</ele>
        <time>2011-10-01T15:59:14.22</time>
      </trkpt>
      <trkpt lat="42.77581" lon="0.456">
        <ele>3515</ele>
        <time>2011-10-01T15:59:15.20</time>
      </trkpt>
      <trkpt lat="42.77588" lon="0.45582">
        <ele>3513</ele>
        <time>2011-10-01T15:59:16.22</time>
      </trkpt>
      <trkpt lat="42.77595" lon="0.45565">
        <ele>3512</ele>
        <time>2011-10-01T15:59:17.21</time>
      </trkpt>
      <trkpt lat="42.776" lon="0.45548">
        <ele>3510.5</ele>
        <time>2011-10-01T15:59:18.26</time>
      </trkpt>
      <trkpt lat="42.77605" lon="0.4553">
        <ele>3508.5</ele>
        <time>2011-10-01T15:59:19.17</time>
      </trkpt>
      <trkpt lat="42.77607" lon="0.4551">
        <ele>3508.5</ele>
        <time>2011-10-01T15:59:20.24</time>
      </trkpt>
      <trkpt lat="42.77612" lon="0.45491">
        <ele>3506.5</ele>
        <time>2011-10-01T15:59:21.14</time>
      </trkpt>
      <trkpt lat="42.7762" lon="0.45471">
        <ele>3508</ele>
        <time>2011-10-01T15:59:22.13</time>
      </trkpt>
      <trkpt lat="42.77631" lon="0.45453">
        <ele>3507.5</ele>
        <time>2011-10-01T15:59:23.20</time>
      </trkpt>
      <trkpt lat="42.77643" lon="0.45437">
        <ele>3507</ele>
        <time>2011-10-01T15:59:24.15</time>
      </trkpt>
      <trkpt lat="42.77655" lon="0.45422">
        <ele>3507.5</ele>
        <time>2011-10-01T15:59:25.20</time>
      </trkpt>
      <trkpt lat="42.77666" lon="0.45406">
        <ele>3508</ele>
        <time>2011-10-01T15:59:26.22</time>
      </trkpt>
      <trkpt lat="42.77677" lon="0.4539">
        <ele>3508.5</ele>
        <time>2011-10-01T15:59:27.17</time>
      </trkpt>
      <trkpt lat="42.77685" lon="0.45374">
        <ele>3509</ele>
        <time>2011-10-01T15:59:28.22</time>
      </trkpt>
      <trkpt lat="42.7769" lon="0.45358">
        <ele>3510</ele>
        <time>2011-10-01T15:59:29.17</time>
      </trkpt>
      <trkpt lat="42.77692" lon="0.45341">
        <ele>3510</ele>
        <time>2011-10-01T15:59:30.14</time>
      </trkpt>
      <trkpt lat="42.77693" lon="0.45325">
        <ele>3509</ele>
        <time>2011-10-01T15:59:31.14</time>
      </trkpt>
      <trkpt lat="42.77693" lon="0.4531">
        <ele>3507.5</ele>
        <time>2011-10-01T15:59:32.25</time>
      </trkpt>
      <trkpt lat="42.77693" lon="0.45294">
        <ele>3506</ele>
        <time>2011-10-01T15:59:33.13</time>
      </trkpt>
      <trkpt lat="42.77691" lon="0.4528">
        <ele>3504</ele>
        <time>2011-10-01T15:59:34.22</time>
      </trkpt>
      <trkpt lat="42.77687" lon="0.45266">
        <ele>3503.5</ele>
        <time>2011-10-01T15:59:35.18</time>
      </trkpt>
      <trkpt lat="42.77682" lon="0.45256">
        <ele>3501</ele>
        <time>2011-10-01T15:59:36.22</time>
      </trkpt>
      <trkpt lat="42.77673" lon="0.45248">
        <ele>3501</ele>
        <time>2011-10-01T15:59:37.19</time>
      </trkpt>
      <trkpt lat="42.77657" lon="0.45246">
        <ele>3497.5</ele>
        <time>2011-10-01T15:59:39.13</time>
      </trkpt>
      <trkpt lat="42.77649" lon="0.45248">
        <ele>3497</ele>
        <time>2011-10-01T15:59:40.22</time>
      </trkpt>
      <trkpt lat="42.77641" lon="0.45252">
        <ele>3497</ele>
        <time>2011-10-01T15:59:41.13</time>
      </trkpt>
      <trkpt lat="42.77631" lon="0.45259">
        <ele>3496.5</ele>
        <time>2011-10-01T15:59:42.23</time>
      </trkpt>
      <trkpt lat="42.77621" lon="0.45265">
        <ele>3496.5</ele>
        <time>2011-10-01T15:59:43.13</time>
      </trkpt>
      <trkpt lat="42.77612" lon="0.45297">
        <ele>3496</ele>
        <time>2011-10-01T15:59:45.17</time>
      </trkpt>
      <trkpt lat="42.77612" lon="0.45314">
        <ele>3494.5</ele>
        <time>2011-10-01T15:59:46.25</time>
      </trkpt>
      <trkpt lat="42.77627" lon="0.4537">
        <ele>3492</ele>
        <time>2011-10-01T15:59:49.12</time>
      </trkpt>
      <trkpt lat="42.77638" lon="0.45403">
        <ele>3491</ele>
        <time>2011-10-01T15:59:51.19</time>
      </trkpt>
      <trkpt lat="42.77645" lon="0.45418">
        <ele>3490.5</ele>
        <time>2011-10-01T15:59:52.15</time>
      </trkpt>
      <trkpt lat="42.77656" lon="0.45431">
        <ele>3489.5</ele>
        <time>2011-10-01T15:59:53.19</time>
      </trkpt>
      <trkpt lat="42.77667" lon="0.45442">
        <ele>3488</ele>
        <time>2011-10-01T15:59:54.17</time>
      </trkpt>
      <trkpt lat="42.7768" lon="0.4545">
        <ele>3486</ele>
        <time>2011-10-01T15:59:55.13</time>
      </trkpt>
      <trkpt lat="42.77695" lon="0.45456">
        <ele>3484.5</ele>
        <time>2011-10-01T15:59:56.15</time>
      </trkpt>
      <trkpt lat="42.7771" lon="0.45458">
        <ele>3486</ele>
        <time>2011-10-01T15:59:57.19</time>
      </trkpt>
      <trkpt lat="42.77725" lon="0.45456">
        <ele>3486</ele>
        <time>2011-10-01T15:59:58.16</time>
      </trkpt>
      <trkpt lat="42.77773" lon="0.45424">
        <ele>3484.5</ele>
        <time>2011-10-01T16:00:01.18</time>
      </trkpt>
      <trkpt lat="42.77781" lon="0.45391">
        <ele>3482</ele>
        <time>2011-10-01T16:00:03.19</time>
      </trkpt>
      <trkpt lat="42.77777" lon="0.45376">
        <ele>3480.5</ele>
        <time>2011-10-01T16:00:04.14</time>
      </trkpt>
      <trkpt lat="42.77768" lon="0.45356">
        <ele>3477.5</ele>
        <time>2011-10-01T16:00:06.15</time>
      </trkpt>
      <trkpt lat="42.77759" lon="0.45352">
        <ele>3477.5</ele>
        <time>2011-10-01T16:00:07.13</time>
      </trkpt>
      <trkpt lat="42.77749" lon="0.4535">
        <ele>3477.5</ele>
        <time>2011-10-01T16:00:08.16</time>
      </trkpt>
      <trkpt lat="42.77739" lon="0.45352">
        <ele>3476</ele>
        <time>2011-10-01T16:00:09.17</time>
      </trkpt>
      <trkpt lat="42.77729" lon="0.45355">
        <ele>3476</ele>
        <time>2011-10-01T16:00:10.16</time>
      </trkpt>
      <trkpt lat="42.77718" lon="0.45358">
        <ele>3474.5</ele>
        <time>2011-10-01T16:00:11.17</time>
      </trkpt>
      <trkpt lat="42.77708" lon="0.45362">
        <ele>3473.5</ele>
        <time>2011-10-01T16:00:12.12</time>
      </trkpt>
      <trkpt lat="42.77698" lon="0.45367">
        <ele>3473</ele>
        <time>2011-10-01T16:00:13.12</time>
      </trkpt>
      <trkpt lat="42.77689" lon="0.45373">
        <ele>3472</ele>
        <time>2011-10-01T16:00:14.16</time>
      </trkpt>
      <trkpt lat="42.7768" lon="0.45381">
        <ele>3470</ele>
        <time>2011-10-01T16:00:15.13</time>
      </trkpt>
      <trkpt lat="42.77671" lon="0.45391">
        <ele>3470</ele>
        <time>2011-10-01T16:00:16.17</time>
      </trkpt>
      <trkpt lat="42.77663" lon="0.45402">
        <ele>3469</ele>
        <time>2011-10-01T16:00:17.15</time>
      </trkpt>
      <trkpt lat="42.77655" lon="0.45414">
        <ele>3468.5</ele>
        <time>2011-10-01T16:00:18.12</time>
      </trkpt>
      <trkpt lat="42.77647" lon="0.45426">
        <ele>3468.5</ele>
        <time>2011-10-01T16:00:19.13</time>
      </trkpt>
      <trkpt lat="42.7764" lon="0.45439">
        <ele>3469</ele>
        <time>2011-10-01T16:00:20.19</time>
      </trkpt>
      <trkpt lat="42.77634" lon="0.45453">
        <ele>3469</ele>
        <time>2011-10-01T16:00:21.14</time>
      </trkpt>
      <trkpt lat="42.77629" lon="0.45467">
        <ele>3468.5</ele>
        <time>2011-10-01T16:00:22.19</time>
      </trkpt>
      <trkpt lat="42.77625" lon="0.45482">
        <ele>3468.5</ele>
        <time>2011-10-01T16:00:23.12</time>
      </trkpt>
      <trkpt lat="42.77624" lon="0.455">
        <ele>3467</ele>
        <time>2011-10-01T16:00:24.12</time>
      </trkpt>
      <trkpt lat="42.77626" lon="0.45518">
        <ele>3467.5</ele>
        <time>2011-10-01T16:00:25.14</time>
      </trkpt>
      <trkpt lat="42.77631" lon="0.45535">
        <ele>3468</ele>
        <time>2011-10-01T16:00:26.19</time>
      </trkpt>
      <trkpt lat="42.77636" lon="0.45552">
        <ele>3467.5</ele>
        <time>2011-10-01T16:00:27.13</time>
      </trkpt>
      <trkpt lat="42.77644" lon="0.45568">
        <ele>3467.5</ele>
        <time>2011-10-01T16:00:28.12</time>
      </trkpt>
      <trkpt lat="42.77655" lon="0.45582">
        <ele>3466.5</ele>
        <time>2011-10-01T16:00:29.14</time>
      </trkpt>
      <trkpt lat="42.77666" lon="0.45595">
        <ele>3466.5</ele>
        <time>2011-10-01T16:00:30.18</time>
      </trkpt>
      <trkpt lat="42.77677" lon="0.45608">
        <ele>3467</ele>
        <time>2011-10-01T16:00:31.18</time>
      </trkpt>
      <trkpt lat="42.77688" lon="0.4562">
        <ele>3465.5</ele>
        <time>2011-10-01T16:00:32.12</time>
      </trkpt>
      <trkpt lat="42.777" lon="0.45631">
        <ele>3462</ele>
        <time>2011-10-01T16:00:33.19</time>
      </trkpt>
      <trkpt lat="42.77713" lon="0.45641">
        <ele>3461</ele>
        <time>2011-10-01T16:00:34.19</time>
      </trkpt>
      <trkpt lat="42.77739" lon="0.45655">
        <ele>3458</ele>
        <time>2011-10-01T16:00:36.12</time>
      </trkpt>
      <trkpt lat="42.77753" lon="0.4566">
        <ele>3456</ele>
        <time>2011-10-01T16:00:37.19</time>
      </trkpt>
      <trkpt lat="42.77767" lon="0.45665">
        <ele>3453</ele>
        <time>2011-10-01T16:00:38.14</time>
      </trkpt>
      <trkpt lat="42.77782" lon="0.45669">
        <ele>3451</ele>
        <time>2011-10-01T16:00:39.12</time>
      </trkpt>
      <trkpt lat="42.77797" lon="0.45672">
        <ele>3450</ele>
        <time>2011-10-01T16:00:40.12</time>
      </trkpt>
      <trkpt lat="42.77812" lon="0.45675">
        <ele>3449.5</ele>
        <time>2011-10-01T16:00:41.21</time>
      </trkpt>
      <trkpt lat="42.77826" lon="0.45677">
        <ele>3449</ele>
        <time>2011-10-01T16:00:42.19</time>
      </trkpt>
      <trkpt lat="42.77841" lon="0.45678">
        <ele>3447.5</ele>
        <time>2011-10-01T16:00:43.13</time>
      </trkpt>
      <trkpt lat="42.77855" lon="0.45677">
        <ele>3445.5</ele>
        <time>2011-10-01T16:00:44.18</time>
      </trkpt>
      <trkpt lat="42.77869" lon="0.45676">
        <ele>3444.5</ele>
        <time>2011-10-01T16:00:45.13</time>
      </trkpt>
      <trkpt lat="42.77883" lon="0.45677">
        <ele>3444</ele>
        <time>2011-10-01T16:00:46.15</time>
      </trkpt>
      <trkpt lat="42.77916" lon="0.45681">
        <ele>3444</ele>
        <time>2011-10-01T16:00:48.12</time>
      </trkpt>
      <trkpt lat="42.77932" lon="0.45681">
        <ele>3443.5</ele>
        <time>2011-10-01T16:00:49.12</time>
      </trkpt>
      <trkpt lat="42.77946" lon="0.45681">
        <ele>3442.5</ele>
        <time>2011-10-01T16:00:50.19</time>
      </trkpt>
      <trkpt lat="42.77961" lon="0.4568">
        <ele>3440.5</ele>
        <time>2011-10-01T16:00:51.12</time>
      </trkpt>
      <trkpt lat="42.77976" lon="0.45678">
        <ele>3440</ele>
        <time>2011-10-01T16:00:52.18</time>
      </trkpt>
      <trkpt lat="42.77991" lon="0.45675">
        <ele>3438</ele>
        <time>2011-10-01T16:00:53.13</time>
      </trkpt>
      <trkpt lat="42.78005" lon="0.4567">
        <ele>3436.5</ele>
        <time>2011-10-01T16:00:54.15</time>
      </trkpt>
      <trkpt lat="42.78026" lon="0.45651">
        <ele>3434</ele>
        <time>2011-10-01T16:00:56.15</time>
      </trkpt>
      <trkpt lat="42.78033" lon="0.45639">
        <ele>3432.5</ele>
        <time>2011-10-01T16:00:57.13</time>
      </trkpt>
      <trkpt lat="42.78039" lon="0.45627">
        <ele>3430</ele>
        <time>2011-10-01T16:00:58.15</time>
      </trkpt>
      <trkpt lat="42.78044" lon="0.45615">
        <ele>3430</ele>
        <time>2011-10-01T16:00:59.19</time>
      </trkpt>
      <trkpt lat="42.78049" lon="0.45601">
        <ele>3430</ele>
        <time>2011-10-01T16:01:00.18</time>
      </trkpt>
      <trkpt lat="42.78054" lon="0.45587">
        <ele>3429.5</ele>
        <time>2011-10-01T16:01:01.13</time>
      </trkpt>
      <trkpt lat="42.7806" lon="0.45573">
        <ele>3429.5</ele>
        <time>2011-10-01T16:01:02.14</time>
      </trkpt>
      <trkpt lat="42.78066" lon="0.4556">
        <ele>3425</ele>
        <time>2011-10-01T16:01:03.18</time>
      </trkpt>
      <trkpt lat="42.78071" lon="0.45549">
        <ele>3425</ele>
        <time>2011-10-01T16:01:04.16</time>
      </trkpt>
      <trkpt lat="42.78077" lon="0.45537">
        <ele>3424.5</ele>
        <time>2011-10-01T16:01:05.20</time>
      </trkpt>
      <trkpt lat="42.78082" lon="0.45523">
        <ele>3424.5</ele>
        <time>2011-10-01T16:01:06.15</time>
      </trkpt>
      <trkpt lat="42.78089" lon="0.4551">
        <ele>3422.5</ele>
        <time>2011-10-01T16:01:07.13</time>
      </trkpt>
      <trkpt lat="42.78097" lon="0.45498">
        <ele>3421</ele>
        <time>2011-10-01T16:01:08.16</time>
      </trkpt>
      <trkpt lat="42.78105" lon="0.45487">
        <ele>3419.5</ele>
        <time>2011-10-01T16:01:09.17</time>
      </trkpt>
      <trkpt lat="42.78112" lon="0.45476">
        <ele>3419</ele>
        <time>2011-10-01T16:01:10.15</time>
      </trkpt>
      <trkpt lat="42.78119" lon="0.45463">
        <ele>3418.5</ele>
        <time>2011-10-01T16:01:11.21</time>
      </trkpt>
      <trkpt lat="42.78125" lon="0.45451">
        <ele>3418</ele>
        <time>2011-10-01T16:01:12.22</time>
      </trkpt>
      <trkpt lat="42.78131" lon="0.45439">
        <ele>3417</ele>
        <time>2011-10-01T16:01:13.13</time>
      </trkpt>
      <trkpt lat="42.78138" lon="0.45427">
        <ele>3416.5</ele>
        <time>2011-10-01T16:01:14.22</time>
      </trkpt>
      <trkpt lat="42.78144" lon="0.45414">
        <ele>3416</ele>
        <time>2011-10-01T16:01:15.14</time>
      </trkpt>
      <trkpt lat="42.7815" lon="0.45401">
        <ele>3414.5</ele>
        <time>2011-10-01T16:01:16.14</time>
      </trkpt>
      <trkpt lat="42.78156" lon="0.45386">
        <ele>3414</ele>
        <time>2011-10-01T16:01:17.15</time>
      </trkpt>
      <trkpt lat="42.78163" lon="0.45372">
        <ele>3412</ele>
        <time>2011-10-01T16:01:18.12</time>
      </trkpt>
      <trkpt lat="42.7817" lon="0.4536">
        <ele>3408</ele>
        <time>2011-10-01T16:01:19.12</time>
      </trkpt>
      <trkpt lat="42.78179" lon="0.45349">
        <ele>3408</ele>
        <time>2011-10-01T16:01:20.12</time>
      </trkpt>
      <trkpt lat="42.78187" lon="0.45339">
        <ele>3407.5</ele>
        <time>2011-10-01T16:01:21.20</time>
      </trkpt>
      <trkpt lat="42.78196" lon="0.4533">
        <ele>3405</ele>
        <time>2011-10-01T16:01:22.15</time>
      </trkpt>
      <trkpt lat="42.78206" lon="0.45322">
        <ele>3404.5</ele>
        <time>2011-10-01T16:01:23.11</time>
      </trkpt>
      <trkpt lat="42.78216" lon="0.45313">
        <ele>3404</ele>
        <time>2011-10-01T16:01:24.14</time>
      </trkpt>
      <trkpt lat="42.78228" lon="0.45304">
        <ele>3402</ele>
        <time>2011-10-01T16:01:25.12</time>
      </trkpt>
      <trkpt lat="42.78239" lon="0.45296">
        <ele>3401.5</ele>
        <time>2011-10-01T16:01:26.12</time>
      </trkpt>
      <trkpt lat="42.7825" lon="0.45288">
        <ele>3401.5</ele>
        <time>2011-10-01T16:01:27.12</time>
      </trkpt>
      <trkpt lat="42.7826" lon="0.4528">
        <ele>3399.5</ele>
        <time>2011-10-01T16:01:28.12</time>
      </trkpt>
      <trkpt lat="42.78269" lon="0.4527">
        <ele>3399.5</ele>
        <time>2011-10-01T16:01:29.13</time>
      </trkpt>
      <trkpt lat="42.78277" lon="0.45259">
        <ele>3398.5</ele>
        <time>2011-10-01T16:01:30.12</time>
      </trkpt>
      <trkpt lat="42.78286" lon="0.45245">
        <ele>3398</ele>
        <time>2011-10-01T16:01:31.12</time>
      </trkpt>
      <trkpt lat="42.78294" lon="0.45231">
        <ele>3398.5</ele>
        <time>2011-10-01T16:01:32.12</time>
      </trkpt>
      <trkpt lat="42.78303" lon="0.45219">
        <ele>3398.5</ele>
        <time>2011-10-01T16:01:33.12</time>
      </trkpt>
      <trkpt lat="42.78316" lon="0.45196">
        <ele>3397.5</ele>
        <time>2011-10-01T16:01:35.13</time>
      </trkpt>
      <trkpt lat="42.78322" lon="0.45185">
        <ele>3395</ele>
        <time>2011-10-01T16:01:36.14</time>
      </trkpt>
      <trkpt lat="42.78329" lon="0.45172">
        <ele>3392</ele>
        <time>2011-10-01T16:01:37.12</time>
      </trkpt>
      <trkpt lat="42.78336" lon="0.45158">
        <ele>3387.5</ele>
        <time>2011-10-01T16:01:38.17</time>
      </trkpt>
      <trkpt lat="42.78349" lon="0.45128">
        <ele>3388</ele>
        <time>2011-10-01T16:01:40.14</time>
      </trkpt>
      <trkpt lat="42.78355" lon="0.45114">
        <ele>3387.5</ele>
        <time>2011-10-01T16:01:41.12</time>
      </trkpt>
      <trkpt lat="42.7836" lon="0.45101">
        <ele>3388.5</ele>
        <time>2011-10-01T16:01:42.14</time>
      </trkpt>
      <trkpt lat="42.78365" lon="0.45087">
        <ele>3385</ele>
        <time>2011-10-01T16:01:43.13</time>
      </trkpt>
      <trkpt lat="42.78371" lon="0.45072">
        <ele>3381</ele>
        <time>2011-10-01T16:01:44.15</time>
      </trkpt>
      <trkpt lat="42.78377" lon="0.45057">
        <ele>3378.5</ele>
        <time>2011-10-01T16:01:45.13</time>
      </trkpt>
      <trkpt lat="42.78383" lon="0.45041">
        <ele>3377</ele>
        <time>2011-10-01T16:01:46.14</time>
      </trkpt>
      <trkpt lat="42.78391" lon="0.45026">
        <ele>3377</ele>
        <time>2011-10-01T16:01:47.19</time>
      </trkpt>
      <trkpt lat="42.784" lon="0.45012">
        <ele>3377</ele>
        <time>2011-10-01T16:01:48.22</time>
      </trkpt>
      <trkpt lat="42.7841" lon="0.45">
        <ele>3377.5</ele>
        <time>2011-10-01T16:01:49.13</time>
      </trkpt>
      <trkpt lat="42.78419" lon="0.44988">
        <ele>3377</ele>
        <time>2011-10-01T16:01:50.23</time>
      </trkpt>
      <trkpt lat="42.78428" lon="0.44976">
        <ele>3378</ele>
        <time>2011-10-01T16:01:51.12</time>
      </trkpt>
      <trkpt lat="42.78437" lon="0.44964">
        <ele>3377.5</ele>
        <time>2011-10-01T16:01:52.12</time>
      </trkpt>
      <trkpt lat="42.78445" lon="0.4495">
        <ele>3377</ele>
        <time>2011-10-01T16:01:53.15</time>
      </trkpt>
      <trkpt lat="42.78453" lon="0.44935">
        <ele>3376.5</ele>
        <time>2011-10-01T16:01:54.18</time>
      </trkpt>
      <trkpt lat="42.78459" lon="0.44918">
        <ele>3377</ele>
        <time>2011-10-01T16:01:55.20</time>
      </trkpt>
      <trkpt lat="42.78465" lon="0.44902">
        <ele>3378</ele>
        <time>2011-10-01T16:01:56.24</time>
      </trkpt>
      <trkpt lat="42.78471" lon="0.44886">
        <ele>3377.5</ele>
        <time>2011-10-01T16:01:57.13</time>
      </trkpt>
      <trkpt lat="42.78477" lon="0.44872">
        <ele>3379</ele>
        <time>2011-10-01T16:01:58.22</time>
      </trkpt>
      <trkpt lat="42.78484" lon="0.4486">
        <ele>3378</ele>
        <time>2011-10-01T16:01:59.12</time>
      </trkpt>
      <trkpt lat="42.78492" lon="0.44847">
        <ele>3377.5</ele>
        <time>2011-10-01T16:02:00.14</time>
      </trkpt>
      <trkpt lat="42.78501" lon="0.44836">
        <ele>3375</ele>
        <time>2011-10-01T16:02:01.13</time>
      </trkpt>
      <trkpt lat="42.78514" lon="0.44827">
        <ele>3373.5</ele>
        <time>2011-10-01T16:02:02.18</time>
      </trkpt>
      <trkpt lat="42.78527" lon="0.44822">
        <ele>3373.5</ele>
        <time>2011-10-01T16:02:03.19</time>
      </trkpt>
      <trkpt lat="42.78543" lon="0.4482">
        <ele>3367</ele>
        <time>2011-10-01T16:02:04.22</time>
      </trkpt>
      <trkpt lat="42.78565" lon="0.44844">
        <ele>3359</ele>
        <time>2011-10-01T16:02:07.13</time>
      </trkpt>
      <trkpt lat="42.78566" lon="0.4486">
        <ele>3356</ele>
        <time>2011-10-01T16:02:08.14</time>
      </trkpt>
      <trkpt lat="42.78563" lon="0.44876">
        <ele>3356</ele>
        <time>2011-10-01T16:02:09.18</time>
      </trkpt>
      <trkpt lat="42.78554" lon="0.44886">
        <ele>3355.5</ele>
        <time>2011-10-01T16:02:10.12</time>
      </trkpt>
      <trkpt lat="42.78543" lon="0.44894">
        <ele>3357</ele>
        <time>2011-10-01T16:02:11.13</time>
      </trkpt>
      <trkpt lat="42.78531" lon="0.44895">
        <ele>3356.5</ele>
        <time>2011-10-01T16:02:12.22</time>
      </trkpt>
      <trkpt lat="42.78509" lon="0.44881">
        <ele>3354.5</ele>
        <time>2011-10-01T16:02:14.13</time>
      </trkpt>
      <trkpt lat="42.78496" lon="0.44849">
        <ele>3354</ele>
        <time>2011-10-01T16:02:16.22</time>
      </trkpt>
      <trkpt lat="42.78494" lon="0.44833">
        <ele>3356</ele>
        <time>2011-10-01T16:02:17.13</time>
      </trkpt>
      <trkpt lat="42.78498" lon="0.44817">
        <ele>3355.5</ele>
        <time>2011-10-01T16:02:18.22</time>
      </trkpt>
      <trkpt lat="42.78503" lon="0.44803">
        <ele>3357</ele>
        <time>2011-10-01T16:02:19.20</time>
      </trkpt>
      <trkpt lat="42.78509" lon="0.4479">
        <ele>3357.5</ele>
        <time>2011-10-01T16:02:20.15</time>
      </trkpt>
      <trkpt lat="42.78512" lon="0.44775">
        <ele>3357.5</ele>
        <time>2011-10-01T16:02:21.13</time>
      </trkpt>
      <trkpt lat="42.7852" lon="0.44762">
        <ele>3357</ele>
        <time>2011-10-01T16:02:22.15</time>
      </trkpt>
      <trkpt lat="42.7853" lon="0.44751">
        <ele>3356</ele>
        <time>2011-10-01T16:02:23.13</time>
      </trkpt>
      <trkpt lat="42.78542" lon="0.44741">
        <ele>3356.5</ele>
        <time>2011-10-01T16:02:24.17</time>
      </trkpt>
      <trkpt lat="42.78554" lon="0.44733">
        <ele>3356.5</ele>
        <time>2011-10-01T16:02:25.19</time>
      </trkpt>
      <trkpt lat="42.78567" lon="0.44728">
        <ele>3356.5</ele>
        <time>2011-10-01T16:02:26.14</time>
      </trkpt>
      <trkpt lat="42.7858" lon="0.44724">
        <ele>3355.5</ele>
        <time>2011-10-01T16:02:27.20</time>
      </trkpt>
      <trkpt lat="42.78592" lon="0.44722">
        <ele>3354.5</ele>
        <time>2011-10-01T16:02:28.14</time>
      </trkpt>
      <trkpt lat="42.78606" lon="0.44722">
        <ele>3354</ele>
        <time>2011-10-01T16:02:29.13</time>
      </trkpt>
      <trkpt lat="42.78617" lon="0.44725">
        <ele>3353.5</ele>
        <time>2011-10-01T16:02:30.22</time>
      </trkpt>
      <trkpt lat="42.78629" lon="0.4473">
        <ele>3353</ele>
        <time>2011-10-01T16:02:31.12</time>
      </trkpt>
      <trkpt lat="42.78653" lon="0.44743">
        <ele>3350</ele>
        <time>2011-10-01T16:02:33.13</time>
      </trkpt>
      <trkpt lat="42.78665" lon="0.44751">
        <ele>3348.5</ele>
        <time>2011-10-01T16:02:34.12</time>
      </trkpt>
      <trkpt lat="42.78677" lon="0.44759">
        <ele>3347.5</ele>
        <time>2011-10-01T16:02:35.13</time>
      </trkpt>
      <trkpt lat="42.7869" lon="0.44767">
        <ele>3347.5</ele>
        <time>2011-10-01T16:02:36.22</time>
      </trkpt>
      <trkpt lat="42.78702" lon="0.44775">
        <ele>3347.5</ele>
        <time>2011-10-01T16:02:37.21</time>
      </trkpt>
      <trkpt lat="42.78714" lon="0.44782">
        <ele>3347</ele>
        <time>2011-10-01T16:02:38.16</time>
      </trkpt>
      <trkpt lat="42.78726" lon="0.44789">
        <ele>3346</ele>
        <time>2011-10-01T16:02:39.19</time>
      </trkpt>
      <trkpt lat="42.78739" lon="0.44792">
        <ele>3344.5</ele>
        <time>2011-10-01T16:02:40.14</time>
      </trkpt>
      <trkpt lat="42.78767" lon="0.44787">
        <ele>3344.5</ele>
        <time>2011-10-01T16:02:42.14</time>
      </trkpt>
      <trkpt lat="42.78778" lon="0.4478">
        <ele>3344</ele>
        <time>2011-10-01T16:02:43.13</time>
      </trkpt>
      <trkpt lat="42.78789" lon="0.44772">
        <ele>3343.5</ele>
        <time>2011-10-01T16:02:44.18</time>
      </trkpt>
      <trkpt lat="42.788" lon="0.44763">
        <ele>3343</ele>
        <time>2011-10-01T16:02:45.13</time>
      </trkpt>
      <trkpt lat="42.78811" lon="0.44754">
        <ele>3343.5</ele>
        <time>2011-10-01T16:02:46.24</time>
      </trkpt>
      <trkpt lat="42.78822" lon="0.44746">
        <ele>3344</ele>
        <time>2011-10-01T16:02:47.19</time>
      </trkpt>
      <trkpt lat="42.78832" lon="0.44738">
        <ele>3344.5</ele>
        <time>2011-10-01T16:02:48.14</time>
      </trkpt>
      <trkpt lat="42.78842" lon="0.44731">
        <ele>3344</ele>
        <time>2011-10-01T16:02:49.12</time>
      </trkpt>
      <trkpt lat="42.78853" lon="0.44723">
        <ele>3343</ele>
        <time>2011-10-01T16:02:50.22</time>
      </trkpt>
      <trkpt lat="42.78863" lon="0.44715">
        <ele>3341</ele>
        <time>2011-10-01T16:02:51.13</time>
      </trkpt>
      <trkpt lat="42.78874" lon="0.44706">
        <ele>3341</ele>
        <time>2011-10-01T16:02:52.14</time>
      </trkpt>
      <trkpt lat="42.78886" lon="0.44698">
        <ele>3340</ele>
        <time>2011-10-01T16:02:53.13</time>
      </trkpt>
      <trkpt lat="42.78899" lon="0.44691">
        <ele>3340.5</ele>
        <time>2011-10-01T16:02:54.12</time>
      </trkpt>
      <trkpt lat="42.78912" lon="0.44689">
        <ele>3340.5</ele>
        <time>2011-10-01T16:02:55.12</time>
      </trkpt>
      <trkpt lat="42.78927" lon="0.44689">
        <ele>3341.5</ele>
        <time>2011-10-01T16:02:56.14</time>
      </trkpt>
      <trkpt lat="42.78953" lon="0.44694">
        <ele>3340</ele>
        <time>2011-10-01T16:02:58.12</time>
      </trkpt>
      <trkpt lat="42.78966" lon="0.44697">
        <ele>3340</ele>
        <time>2011-10-01T16:02:59.21</time>
      </trkpt>
      <trkpt lat="42.7898" lon="0.447">
        <ele>3340.5</ele>
        <time>2011-10-01T16:03:00.12</time>
      </trkpt>
      <trkpt lat="42.78993" lon="0.447">
        <ele>3340.5</ele>
        <time>2011-10-01T16:03:01.12</time>
      </trkpt>
      <trkpt lat="42.79006" lon="0.44698">
        <ele>3340.5</ele>
        <time>2011-10-01T16:03:02.12</time>
      </trkpt>
      <trkpt lat="42.79018" lon="0.44696">
        <ele>3340.5</ele>
        <time>2011-10-01T16:03:03.12</time>
      </trkpt>
      <trkpt lat="42.7903" lon="0.44692">
        <ele>3341</ele>
        <time>2011-10-01T16:03:04.12</time>
      </trkpt>
      <trkpt lat="42.79043" lon="0.44688">
        <ele>3341</ele>
        <time>2011-10-01T16:03:05.12</time>
      </trkpt>
      <trkpt lat="42.79055" lon="0.44685">
        <ele>3341</ele>
        <time>2011-10-01T16:03:06.12</time>
      </trkpt>
      <trkpt lat="42.79067" lon="0.44682">
        <ele>3342</ele>
        <time>2011-10-01T16:03:07.12</time>
      </trkpt>
      <trkpt lat="42.79079" lon="0.4468">
        <ele>3342.5</ele>
        <time>2011-10-01T16:03:08.11</time>
      </trkpt>
      <trkpt lat="42.79091" lon="0.44677">
        <ele>3342.5</ele>
        <time>2011-10-01T16:03:09.12</time>
      </trkpt>
      <trkpt lat="42.79103" lon="0.44675">
        <ele>3341.5</ele>
        <time>2011-10-01T16:03:10.12</time>
      </trkpt>
      <trkpt lat="42.79115" lon="0.44673">
        <ele>3341</ele>
        <time>2011-10-01T16:03:11.12</time>
      </trkpt>
      <trkpt lat="42.79126" lon="0.44672">
        <ele>3340.5</ele>
        <time>2011-10-01T16:03:12.11</time>
      </trkpt>
      <trkpt lat="42.79138" lon="0.44671">
        <ele>3340</ele>
        <time>2011-10-01T16:03:13.12</time>
      </trkpt>
      <trkpt lat="42.79149" lon="0.44671">
        <ele>3340</ele>
        <time>2011-10-01T16:03:14.11</time>
      </trkpt>
      <trkpt lat="42.79161" lon="0.44671">
        <ele>3339</ele>
        <time>2011-10-01T16:03:15.12</time>
      </trkpt>
      <trkpt lat="42.79173" lon="0.44673">
        <ele>3338</ele>
        <time>2011-10-01T16:03:16.11</time>
      </trkpt>
      <trkpt lat="42.79185" lon="0.44674">
        <ele>3338</ele>
        <time>2011-10-01T16:03:17.12</time>
      </trkpt>
      <trkpt lat="42.79197" lon="0.44675">
        <ele>3338</ele>
        <time>2011-10-01T16:03:18.12</time>
      </trkpt>
      <trkpt lat="42.79208" lon="0.44677">
        <ele>3338</ele>
        <time>2011-10-01T16:03:19.12</time>
      </trkpt>
      <trkpt lat="42.7922" lon="0.44679">
        <ele>3337</ele>
        <time>2011-10-01T16:03:20.15</time>
      </trkpt>
      <trkpt lat="42.79232" lon="0.44682">
        <ele>3336</ele>
        <time>2011-10-01T16:03:21.12</time>
      </trkpt>
      <trkpt lat="42.79244" lon="0.44686">
        <ele>3335.5</ele>
        <time>2011-10-01T16:03:22.12</time>
      </trkpt>
      <trkpt lat="42.79256" lon="0.44689">
        <ele>3335</ele>
        <time>2011-10-01T16:03:23.12</time>
      </trkpt>
      <trkpt lat="42.79268" lon="0.44693">
        <ele>3335</ele>
        <time>2011-10-01T16:03:24.12</time>
      </trkpt>
      <trkpt lat="42.79279" lon="0.44696">
        <ele>3334.5</ele>
        <time>2011-10-01T16:03:25.12</time>
      </trkpt>
      <trkpt lat="42.79291" lon="0.44699">
        <ele>3333.5</ele>
        <time>2011-10-01T16:03:26.16</time>
      </trkpt>
      <trkpt lat="42.79303" lon="0.447">
        <ele>3333</ele>
        <time>2011-10-01T16:03:27.12</time>
      </trkpt>
      <trkpt lat="42.79315" lon="0.44699">
        <ele>3332.5</ele>
        <time>2011-10-01T16:03:28.12</time>
      </trkpt>
      <trkpt lat="42.79326" lon="0.44697">
        <ele>3331.5</ele>
        <time>2011-10-01T16:03:29.13</time>
      </trkpt>
      <trkpt lat="42.79338" lon="0.44694">
        <ele>3330.5</ele>
        <time>2011-10-01T16:03:30.12</time>
      </trkpt>
      <trkpt lat="42.79349" lon="0.4469">
        <ele>3330</ele>
        <time>2011-10-01T16:03:31.12</time>
      </trkpt>
      <trkpt lat="42.7936" lon="0.44685">
        <ele>3330</ele>
        <time>2011-10-01T16:03:32.17</time>
      </trkpt>
      <trkpt lat="42.79371" lon="0.4468">
        <ele>3329.5</ele>
        <time>2011-10-01T16:03:33.13</time>
      </trkpt>
      <trkpt lat="42.79382" lon="0.44676">
        <ele>3329</ele>
        <time>2011-10-01T16:03:34.14</time>
      </trkpt>
      <trkpt lat="42.79393" lon="0.44672">
        <ele>3327.5</ele>
        <time>2011-10-01T16:03:35.13</time>
      </trkpt>
      <trkpt lat="42.79404" lon="0.44669">
        <ele>3325.5</ele>
        <time>2011-10-01T16:03:36.22</time>
      </trkpt>
      <trkpt lat="42.79416" lon="0.44667">
        <ele>3323.5</ele>
        <time>2011-10-01T16:03:37.13</time>
      </trkpt>
      <trkpt lat="42.79428" lon="0.44665">
        <ele>3323.5</ele>
        <time>2011-10-01T16:03:38.15</time>
      </trkpt>
      <trkpt lat="42.79441" lon="0.44664">
        <ele>3323</ele>
        <time>2011-10-01T16:03:39.14</time>
      </trkpt>
      <trkpt lat="42.79455" lon="0.44664">
        <ele>3323</ele>
        <time>2011-10-01T16:03:40.15</time>
      </trkpt>
      <trkpt lat="42.79468" lon="0.44665">
        <ele>3322.5</ele>
        <time>2011-10-01T16:03:41.13</time>
      </trkpt>
      <trkpt lat="42.7948" lon="0.44668">
        <ele>3320.5</ele>
        <time>2011-10-01T16:03:42.19</time>
      </trkpt>
      <trkpt lat="42.79491" lon="0.44672">
        <ele>3318.5</ele>
        <time>2011-10-01T16:03:43.18</time>
      </trkpt>
      <trkpt lat="42.79502" lon="0.44677">
        <ele>3316.5</ele>
        <time>2011-10-01T16:03:44.18</time>
      </trkpt>
      <trkpt lat="42.79513" lon="0.44683">
        <ele>3314</ele>
        <time>2011-10-01T16:03:45.13</time>
      </trkpt>
      <trkpt lat="42.79523" lon="0.4469">
        <ele>3314</ele>
        <time>2011-10-01T16:03:46.14</time>
      </trkpt>
      <trkpt lat="42.79533" lon="0.44698">
        <ele>3313.5</ele>
        <time>2011-10-01T16:03:47.16</time>
      </trkpt>
      <trkpt lat="42.79544" lon="0.44705">
        <ele>3311.5</ele>
        <time>2011-10-01T16:03:48.19</time>
      </trkpt>
      <trkpt lat="42.79556" lon="0.44712">
        <ele>3310</ele>
        <time>2011-10-01T16:03:49.12</time>
      </trkpt>
      <trkpt lat="42.79567" lon="0.44718">
        <ele>3308.5</ele>
        <time>2011-10-01T16:03:50.15</time>
      </trkpt>
      <trkpt lat="42.79578" lon="0.44722">
        <ele>3306.5</ele>
        <time>2011-10-01T16:03:51.15</time>
      </trkpt>
      <trkpt lat="42.7959" lon="0.44725">
        <ele>3306</ele>
        <time>2011-10-01T16:03:52.15</time>
      </trkpt>
      <trkpt lat="42.79603" lon="0.44727">
        <ele>3305.5</ele>
        <time>2011-10-01T16:03:53.15</time>
      </trkpt>
      <trkpt lat="42.79615" lon="0.44728">
        <ele>3303.5</ele>
        <time>2011-10-01T16:03:54.12</time>
      </trkpt>
      <trkpt lat="42.79627" lon="0.4473">
        <ele>3302.5</ele>
        <time>2011-10-01T16:03:55.20</time>
      </trkpt>
      <trkpt lat="42.79639" lon="0.44732">
        <ele>3301.5</ele>
        <time>2011-10-01T16:03:56.15</time>
      </trkpt>
      <trkpt lat="42.7965" lon="0.44734">
        <ele>3300</ele>
        <time>2011-10-01T16:03:57.13</time>
      </trkpt>
      <trkpt lat="42.79661" lon="0.44736">
        <ele>3298</ele>
        <time>2011-10-01T16:03:58.12</time>
      </trkpt>
      <trkpt lat="42.79673" lon="0.44739">
        <ele>3296</ele>
        <time>2011-10-01T16:03:59.13</time>
      </trkpt>
      <trkpt lat="42.79684" lon="0.44743">
        <ele>3294.5</ele>
        <time>2011-10-01T16:04:00.12</time>
      </trkpt>
      <trkpt lat="42.79695" lon="0.44746">
        <ele>3294</ele>
        <time>2011-10-01T16:04:01.13</time>
      </trkpt>
      <trkpt lat="42.79707" lon="0.44751">
        <ele>3293.5</ele>
        <time>2011-10-01T16:04:02.15</time>
      </trkpt>
      <trkpt lat="42.79719" lon="0.44756">
        <ele>3291.5</ele>
        <time>2011-10-01T16:04:03.14</time>
      </trkpt>
      <trkpt lat="42.79731" lon="0.44762">
        <ele>3290</ele>
        <time>2011-10-01T16:04:04.15</time>
      </trkpt>
      <trkpt lat="42.79742" lon="0.44767">
        <ele>3289.5</ele>
        <time>2011-10-01T16:04:05.21</time>
      </trkpt>
      <trkpt lat="42.79753" lon="0.44772">
        <ele>3288</ele>
        <time>2011-10-01T16:04:06.14</time>
      </trkpt>
      <trkpt lat="42.79763" lon="0.44777">
        <ele>3286</ele>
        <time>2011-10-01T16:04:07.12</time>
      </trkpt>
      <trkpt lat="42.79775" lon="0.44782">
        <ele>3285.5</ele>
        <time>2011-10-01T16:04:08.15</time>
      </trkpt>
      <trkpt lat="42.79786" lon="0.44787">
        <ele>3285</ele>
        <time>2011-10-01T16:04:09.17</time>
      </trkpt>
      <trkpt lat="42.79811" lon="0.44797">
        <ele>3283</ele>
        <time>2011-10-01T16:04:11.13</time>
      </trkpt>
      <trkpt lat="42.79823" lon="0.44802">
        <ele>3283</ele>
        <time>2011-10-01T16:04:12.44</time>
      </trkpt>
      <trkpt lat="42.79845" lon="0.44811">
        <ele>3281</ele>
        <time>2011-10-01T16:04:14.12</time>
      </trkpt>
      <trkpt lat="42.79857" lon="0.44815">
        <ele>3279.5</ele>
        <time>2011-10-01T16:04:15.11</time>
      </trkpt>
      <trkpt lat="42.79869" lon="0.4482">
        <ele>3278.5</ele>
        <time>2011-10-01T16:04:16.11</time>
      </trkpt>
      <trkpt lat="42.79882" lon="0.44824">
        <ele>3277.5</ele>
        <time>2011-10-01T16:04:17.12</time>
      </trkpt>
      <trkpt lat="42.79894" lon="0.44828">
        <ele>3277</ele>
        <time>2011-10-01T16:04:18.12</time>
      </trkpt>
      <trkpt lat="42.79907" lon="0.44831">
        <ele>3276.5</ele>
        <time>2011-10-01T16:04:19.31</time>
      </trkpt>
      <trkpt lat="42.79919" lon="0.44834">
        <ele>3276.5</ele>
        <time>2011-10-01T16:04:20.12</time>
      </trkpt>
      <trkpt lat="42.7993" lon="0.44837">
        <ele>3275</ele>
        <time>2011-10-01T16:04:21.11</time>
      </trkpt>
      <trkpt lat="42.79941" lon="0.44842">
        <ele>3274</ele>
        <time>2011-10-01T16:04:22.14</time>
      </trkpt>
      <trkpt lat="42.79952" lon="0.44846">
        <ele>3272.5</ele>
        <time>2011-10-01T16:04:23.12</time>
      </trkpt>
      <trkpt lat="42.79963" lon="0.44851">
        <ele>3270.5</ele>
        <time>2011-10-01T16:04:24.15</time>
      </trkpt>
      <trkpt lat="42.79975" lon="0.44855">
        <ele>3269.5</ele>
        <time>2011-10-01T16:04:25.14</time>
      </trkpt>
      <trkpt lat="42.79987" lon="0.44859">
        <ele>3269.5</ele>
        <time>2011-10-01T16:04:26.15</time>
      </trkpt>
      <trkpt lat="42.79998" lon="0.44865">
        <ele>3269.5</ele>
        <time>2011-10-01T16:04:27.13</time>
      </trkpt>
      <trkpt lat="42.80008" lon="0.44872">
        <ele>3267.5</ele>
        <time>2011-10-01T16:04:28.14</time>
      </trkpt>
      <trkpt lat="42.80019" lon="0.44883">
        <ele>3267</ele>
        <time>2011-10-01T16:04:29.12</time>
      </trkpt>
      <trkpt lat="42.80029" lon="0.44894">
        <ele>3265.5</ele>
        <time>2011-10-01T16:04:30.15</time>
      </trkpt>
      <trkpt lat="42.80038" lon="0.44905">
        <ele>3264</ele>
        <time>2011-10-01T16:04:31.13</time>
      </trkpt>
      <trkpt lat="42.80048" lon="0.44917">
        <ele>3263</ele>
        <time>2011-10-01T16:04:32.15</time>
      </trkpt>
      <trkpt lat="42.80058" lon="0.44928">
        <ele>3261.5</ele>
        <time>2011-10-01T16:04:33.13</time>
      </trkpt>
      <trkpt lat="42.80068" lon="0.44939">
        <ele>3260</ele>
        <time>2011-10-01T16:04:34.14</time>
      </trkpt>
      <trkpt lat="42.80076" lon="0.44952">
        <ele>3259.5</ele>
        <time>2011-10-01T16:04:35.15</time>
      </trkpt>
      <trkpt lat="42.80084" lon="0.44966">
        <ele>3257</ele>
        <time>2011-10-01T16:04:36.14</time>
      </trkpt>
      <trkpt lat="42.8009" lon="0.44982">
        <ele>3256.5</ele>
        <time>2011-10-01T16:04:37.16</time>
      </trkpt>
      <trkpt lat="42.80097" lon="0.44998">
        <ele>3256</ele>
        <time>2011-10-01T16:04:38.18</time>
      </trkpt>
      <trkpt lat="42.80102" lon="0.45016">
        <ele>3256</ele>
        <time>2011-10-01T16:04:39.16</time>
      </trkpt>
      <trkpt lat="42.80103" lon="0.45036">
        <ele>3253.5</ele>
        <time>2011-10-01T16:04:40.24</time>
      </trkpt>
      <trkpt lat="42.80103" lon="0.45055">
        <ele>3253</ele>
        <time>2011-10-01T16:04:41.13</time>
      </trkpt>
      <trkpt lat="42.801" lon="0.45073">
        <ele>3251.5</ele>
        <time>2011-10-01T16:04:42.15</time>
      </trkpt>
      <trkpt lat="42.80094" lon="0.4509">
        <ele>3251.5</ele>
        <time>2011-10-01T16:04:43.13</time>
      </trkpt>
      <trkpt lat="42.80087" lon="0.45106">
        <ele>3251.5</ele>
        <time>2011-10-01T16:04:44.15</time>
      </trkpt>
      <trkpt lat="42.80079" lon="0.45121">
        <ele>3251.5</ele>
        <time>2011-10-01T16:04:45.15</time>
      </trkpt>
      <trkpt lat="42.8007" lon="0.45137">
        <ele>3251.5</ele>
        <time>2011-10-01T16:04:46.15</time>
      </trkpt>
      <trkpt lat="42.80062" lon="0.45155">
        <ele>3252</ele>
        <time>2011-10-01T16:04:47.15</time>
      </trkpt>
      <trkpt lat="42.80055" lon="0.45171">
        <ele>3251.5</ele>
        <time>2011-10-01T16:04:48.17</time>
      </trkpt>
      <trkpt lat="42.80049" lon="0.45185">
        <ele>3251.5</ele>
        <time>2011-10-01T16:04:49.12</time>
      </trkpt>
      <trkpt lat="42.80042" lon="0.452">
        <ele>3251</ele>
        <time>2011-10-01T16:04:50.23</time>
      </trkpt>
      <trkpt lat="42.80034" lon="0.45215">
        <ele>3251</ele>
        <time>2011-10-01T16:04:51.18</time>
      </trkpt>
      <trkpt lat="42.80026" lon="0.4523">
        <ele>3251</ele>
        <time>2011-10-01T16:04:52.18</time>
      </trkpt>
      <trkpt lat="42.80018" lon="0.45244">
        <ele>3249</ele>
        <time>2011-10-01T16:04:53.17</time>
      </trkpt>
      <trkpt lat="42.80009" lon="0.45257">
        <ele>3247</ele>
        <time>2011-10-01T16:04:54.14</time>
      </trkpt>
      <trkpt lat="42.80001" lon="0.4527">
        <ele>3245.5</ele>
        <time>2011-10-01T16:04:55.13</time>
      </trkpt>
      <trkpt lat="42.79992" lon="0.45283">
        <ele>3243</ele>
        <time>2011-10-01T16:04:56.16</time>
      </trkpt>
      <trkpt lat="42.79983" lon="0.45296">
        <ele>3241</ele>
        <time>2011-10-01T16:04:57.13</time>
      </trkpt>
      <trkpt lat="42.79973" lon="0.45308">
        <ele>3239</ele>
        <time>2011-10-01T16:04:58.12</time>
      </trkpt>
      <trkpt lat="42.79964" lon="0.4532">
        <ele>3237.5</ele>
        <time>2011-10-01T16:04:59.12</time>
      </trkpt>
      <trkpt lat="42.79953" lon="0.4533">
        <ele>3235</ele>
        <time>2011-10-01T16:05:00.22</time>
      </trkpt>
      <trkpt lat="42.79941" lon="0.45338">
        <ele>3235</ele>
        <time>2011-10-01T16:05:01.14</time>
      </trkpt>
      <trkpt lat="42.79929" lon="0.45344">
        <ele>3233</ele>
        <time>2011-10-01T16:05:02.22</time>
      </trkpt>
      <trkpt lat="42.79916" lon="0.45347">
        <ele>3228.5</ele>
        <time>2011-10-01T16:05:03.12</time>
      </trkpt>
      <trkpt lat="42.79904" lon="0.4535">
        <ele>3226</ele>
        <time>2011-10-01T16:05:04.22</time>
      </trkpt>
      <trkpt lat="42.79891" lon="0.45352">
        <ele>3224.5</ele>
        <time>2011-10-01T16:05:05.19</time>
      </trkpt>
      <trkpt lat="42.79878" lon="0.45352">
        <ele>3223</ele>
        <time>2011-10-01T16:05:06.15</time>
      </trkpt>
      <trkpt lat="42.79865" lon="0.4535">
        <ele>3222</ele>
        <time>2011-10-01T16:05:07.20</time>
      </trkpt>
      <trkpt lat="42.79854" lon="0.45345">
        <ele>3220.5</ele>
        <time>2011-10-01T16:05:08.22</time>
      </trkpt>
      <trkpt lat="42.79842" lon="0.45338">
        <ele>3219</ele>
        <time>2011-10-01T16:05:09.13</time>
      </trkpt>
      <trkpt lat="42.79833" lon="0.4533">
        <ele>3217.5</ele>
        <time>2011-10-01T16:05:10.17</time>
      </trkpt>
      <trkpt lat="42.79825" lon="0.45321">
        <ele>3215</ele>
        <time>2011-10-01T16:05:11.19</time>
      </trkpt>
      <trkpt lat="42.79816" lon="0.45309">
        <ele>3215</ele>
        <time>2011-10-01T16:05:12.19</time>
      </trkpt>
      <trkpt lat="42.79808" lon="0.45297">
        <ele>3214</ele>
        <time>2011-10-01T16:05:13.19</time>
      </trkpt>
      <trkpt lat="42.79801" lon="0.45284">
        <ele>3212.5</ele>
        <time>2011-10-01T16:05:14.19</time>
      </trkpt>
      <trkpt lat="42.79795" lon="0.45271">
        <ele>3211.5</ele>
        <time>2011-10-01T16:05:15.19</time>
      </trkpt>
      <trkpt lat="42.79789" lon="0.45258">
        <ele>3209.5</ele>
        <time>2011-10-01T16:05:16.20</time>
      </trkpt>
      <trkpt lat="42.79783" lon="0.45244">
        <ele>3206.5</ele>
        <time>2011-10-01T16:05:17.13</time>
      </trkpt>
      <trkpt lat="42.79777" lon="0.45231">
        <ele>3204.5</ele>
        <time>2011-10-01T16:05:18.18</time>
      </trkpt>
      <trkpt lat="42.79773" lon="0.45217">
        <ele>3202.5</ele>
        <time>2011-10-01T16:05:19.13</time>
      </trkpt>
      <trkpt lat="42.79769" lon="0.45202">
        <ele>3201.5</ele>
        <time>2011-10-01T16:05:20.17</time>
      </trkpt>
      <trkpt lat="42.79766" lon="0.45187">
        <ele>3198.5</ele>
        <time>2011-10-01T16:05:21.13</time>
      </trkpt>
      <trkpt lat="42.79764" lon="0.45171">
        <ele>3198</ele>
        <time>2011-10-01T16:05:22.20</time>
      </trkpt>
      <trkpt lat="42.79764" lon="0.45155">
        <ele>3194</ele>
        <time>2011-10-01T16:05:23.22</time>
      </trkpt>
      <trkpt lat="42.79765" lon="0.45139">
        <ele>3191</ele>
        <time>2011-10-01T16:05:24.15</time>
      </trkpt>
      <trkpt lat="42.79767" lon="0.45122">
        <ele>3190</ele>
        <time>2011-10-01T16:05:25.13</time>
      </trkpt>
      <trkpt lat="42.7977" lon="0.45107">
        <ele>3187</ele>
        <time>2011-10-01T16:05:26.14</time>
      </trkpt>
      <trkpt lat="42.79774" lon="0.45092">
        <ele>3185</ele>
        <time>2011-10-01T16:05:27.14</time>
      </trkpt>
      <trkpt lat="42.79779" lon="0.45077">
        <ele>3182.5</ele>
        <time>2011-10-01T16:05:28.19</time>
      </trkpt>
      <trkpt lat="42.79784" lon="0.45063">
        <ele>3181.5</ele>
        <time>2011-10-01T16:05:29.13</time>
      </trkpt>
      <trkpt lat="42.7979" lon="0.45049">
        <ele>3181.5</ele>
        <time>2011-10-01T16:05:30.15</time>
      </trkpt>
      <trkpt lat="42.79797" lon="0.45037">
        <ele>3179.5</ele>
        <time>2011-10-01T16:05:31.13</time>
      </trkpt>
      <trkpt lat="42.79804" lon="0.45025">
        <ele>3177</ele>
        <time>2011-10-01T16:05:32.15</time>
      </trkpt>
      <trkpt lat="42.79812" lon="0.45014">
        <ele>3175</ele>
        <time>2011-10-01T16:05:33.12</time>
      </trkpt>
      <trkpt lat="42.79821" lon="0.45003">
        <ele>3172</ele>
        <time>2011-10-01T16:05:34.14</time>
      </trkpt>
      <trkpt lat="42.7983" lon="0.44995">
        <ele>3169.5</ele>
        <time>2011-10-01T16:05:35.13</time>
      </trkpt>
      <trkpt lat="42.7984" lon="0.44987">
        <ele>3167.5</ele>
        <time>2011-10-01T16:05:36.14</time>
      </trkpt>
      <trkpt lat="42.79851" lon="0.44981">
        <ele>3164.5</ele>
        <time>2011-10-01T16:05:37.13</time>
      </trkpt>
      <trkpt lat="42.79862" lon="0.44976">
        <ele>3164.5</ele>
        <time>2011-10-01T16:05:38.14</time>
      </trkpt>
      <trkpt lat="42.79874" lon="0.44972">
        <ele>3164</ele>
        <time>2011-10-01T16:05:39.20</time>
      </trkpt>
      <trkpt lat="42.79886" lon="0.44969">
        <ele>3162</ele>
        <time>2011-10-01T16:05:40.15</time>
      </trkpt>
      <trkpt lat="42.79899" lon="0.44968">
        <ele>3157</ele>
        <time>2011-10-01T16:05:41.13</time>
      </trkpt>
      <trkpt lat="42.79911" lon="0.44969">
        <ele>3156</ele>
        <time>2011-10-01T16:05:42.22</time>
      </trkpt>
      <trkpt lat="42.79936" lon="0.44974">
        <ele>3150.5</ele>
        <time>2011-10-01T16:05:44.12</time>
      </trkpt>
      <trkpt lat="42.79948" lon="0.44978">
        <ele>3146</ele>
        <time>2011-10-01T16:05:45.13</time>
      </trkpt>
      <trkpt lat="42.7996" lon="0.44984">
        <ele>3143</ele>
        <time>2011-10-01T16:05:46.22</time>
      </trkpt>
      <trkpt lat="42.79971" lon="0.4499">
        <ele>3141.5</ele>
        <time>2011-10-01T16:05:47.13</time>
      </trkpt>
      <trkpt lat="42.79981" lon="0.44996">
        <ele>3140.5</ele>
        <time>2011-10-01T16:05:48.12</time>
      </trkpt>
      <trkpt lat="42.79992" lon="0.45002">
        <ele>3139</ele>
        <time>2011-10-01T16:05:49.12</time>
      </trkpt>
      <trkpt lat="42.80001" lon="0.45007">
        <ele>3136.5</ele>
        <time>2011-10-01T16:05:50.16</time>
      </trkpt>
      <trkpt lat="42.80012" lon="0.45012">
        <ele>3135</ele>
        <time>2011-10-01T16:05:51.20</time>
      </trkpt>
      <trkpt lat="42.80024" lon="0.45017">
        <ele>3134.5</ele>
        <time>2011-10-01T16:05:52.15</time>
      </trkpt>
      <trkpt lat="42.80035" lon="0.4502">
        <ele>3132.5</ele>
        <time>2011-10-01T16:05:53.12</time>
      </trkpt>
      <trkpt lat="42.80047" lon="0.45023">
        <ele>3130.5</ele>
        <time>2011-10-01T16:05:54.15</time>
      </trkpt>
      <trkpt lat="42.80059" lon="0.45025">
        <ele>3128.5</ele>
        <time>2011-10-01T16:05:55.13</time>
      </trkpt>
      <trkpt lat="42.80071" lon="0.45026">
        <ele>3127</ele>
        <time>2011-10-01T16:05:56.19</time>
      </trkpt>
      <trkpt lat="42.80097" lon="0.45028">
        <ele>3126.5</ele>
        <time>2011-10-01T16:05:58.19</time>
      </trkpt>
      <trkpt lat="42.8011" lon="0.45029">
        <ele>3125.5</ele>
        <time>2011-10-01T16:05:59.12</time>
      </trkpt>
      <trkpt lat="42.80122" lon="0.45032">
        <ele>3123.5</ele>
        <time>2011-10-01T16:06:00.12</time>
      </trkpt>
      <trkpt lat="42.80135" lon="0.45035">
        <ele>3121</ele>
        <time>2011-10-01T16:06:01.12</time>
      </trkpt>
      <trkpt lat="42.80147" lon="0.4504">
        <ele>3119.5</ele>
        <time>2011-10-01T16:06:02.14</time>
      </trkpt>
      <trkpt lat="42.80159" lon="0.45044">
        <ele>3118</ele>
        <time>2011-10-01T16:06:03.14</time>
      </trkpt>
      <trkpt lat="42.80171" lon="0.45048">
        <ele>3115</ele>
        <time>2011-10-01T16:06:04.15</time>
      </trkpt>
      <trkpt lat="42.80184" lon="0.45051">
        <ele>3112.5</ele>
        <time>2011-10-01T16:06:05.13</time>
      </trkpt>
      <trkpt lat="42.80196" lon="0.45053">
        <ele>3111</ele>
        <time>2011-10-01T16:06:06.15</time>
      </trkpt>
      <trkpt lat="42.80208" lon="0.45053">
        <ele>3110</ele>
        <time>2011-10-01T16:06:07.13</time>
      </trkpt>
      <trkpt lat="42.80221" lon="0.45051">
        <ele>3109</ele>
        <time>2011-10-01T16:06:08.12</time>
      </trkpt>
      <trkpt lat="42.80233" lon="0.45049">
        <ele>3108</ele>
        <time>2011-10-01T16:06:09.23</time>
      </trkpt>
      <trkpt lat="42.80245" lon="0.45046">
        <ele>3107</ele>
        <time>2011-10-01T16:06:10.12</time>
      </trkpt>
      <trkpt lat="42.80257" lon="0.45044">
        <ele>3106</ele>
        <time>2011-10-01T16:06:11.12</time>
      </trkpt>
      <trkpt lat="42.80268" lon="0.45043">
        <ele>3104</ele>
        <time>2011-10-01T16:06:12.13</time>
      </trkpt>
      <trkpt lat="42.8028" lon="0.45041">
        <ele>3103.5</ele>
        <time>2011-10-01T16:06:13.13</time>
      </trkpt>
      <trkpt lat="42.80291" lon="0.45036">
        <ele>3102</ele>
        <time>2011-10-01T16:06:14.19</time>
      </trkpt>
      <trkpt lat="42.80316" lon="0.4503">
        <ele>3098.5</ele>
        <time>2011-10-01T16:06:16.15</time>
      </trkpt>
      <trkpt lat="42.80329" lon="0.45029">
        <ele>3097.5</ele>
        <time>2011-10-01T16:06:17.12</time>
      </trkpt>
      <trkpt lat="42.80341" lon="0.45029">
        <ele>3094.5</ele>
        <time>2011-10-01T16:06:18.14</time>
      </trkpt>
      <trkpt lat="42.80354" lon="0.4503">
        <ele>3092.5</ele>
        <time>2011-10-01T16:06:19.13</time>
      </trkpt>
      <trkpt lat="42.80383" lon="0.45038">
        <ele>3088</ele>
        <time>2011-10-01T16:06:21.13</time>
      </trkpt>
      <trkpt lat="42.80395" lon="0.45044">
        <ele>3085.5</ele>
        <time>2011-10-01T16:06:22.12</time>
      </trkpt>
      <trkpt lat="42.80407" lon="0.45051">
        <ele>3083.5</ele>
        <time>2011-10-01T16:06:23.19</time>
      </trkpt>
      <trkpt lat="42.8042" lon="0.45059">
        <ele>3081.5</ele>
        <time>2011-10-01T16:06:24.12</time>
      </trkpt>
      <trkpt lat="42.80431" lon="0.45066">
        <ele>3079</ele>
        <time>2011-10-01T16:06:25.16</time>
      </trkpt>
      <trkpt lat="42.80442" lon="0.45072">
        <ele>3076.5</ele>
        <time>2011-10-01T16:06:26.12</time>
      </trkpt>
      <trkpt lat="42.80454" lon="0.45078">
        <ele>3074</ele>
        <time>2011-10-01T16:06:27.16</time>
      </trkpt>
      <trkpt lat="42.80467" lon="0.45083">
        <ele>3073.5</ele>
        <time>2011-10-01T16:06:28.12</time>
      </trkpt>
      <trkpt lat="42.80481" lon="0.45086">
        <ele>3073.5</ele>
        <time>2011-10-01T16:06:29.16</time>
      </trkpt>
      <trkpt lat="42.80496" lon="0.45087">
        <ele>3073</ele>
        <time>2011-10-01T16:06:30.12</time>
      </trkpt>
      <trkpt lat="42.80511" lon="0.45085">
        <ele>3070</ele>
        <time>2011-10-01T16:06:31.13</time>
      </trkpt>
      <trkpt lat="42.80524" lon="0.45083">
        <ele>3068.5</ele>
        <time>2011-10-01T16:06:32.14</time>
      </trkpt>
      <trkpt lat="42.80538" lon="0.45077">
        <ele>3066</ele>
        <time>2011-10-01T16:06:33.14</time>
      </trkpt>
      <trkpt lat="42.80551" lon="0.4507">
        <ele>3067.5</ele>
        <time>2011-10-01T16:06:34.12</time>
      </trkpt>
      <trkpt lat="42.80565" lon="0.45063">
        <ele>3067</ele>
        <time>2011-10-01T16:06:35.13</time>
      </trkpt>
      <trkpt lat="42.80579" lon="0.45057">
        <ele>3066.5</ele>
        <time>2011-10-01T16:06:36.15</time>
      </trkpt>
      <trkpt lat="42.80593" lon="0.45052">
        <ele>3065.5</ele>
        <time>2011-10-01T16:06:37.13</time>
      </trkpt>
      <trkpt lat="42.80607" lon="0.45048">
        <ele>3066</ele>
        <time>2011-10-01T16:06:38.14</time>
      </trkpt>
      <trkpt lat="42.8062" lon="0.45048">
        <ele>3066</ele>
        <time>2011-10-01T16:06:39.13</time>
      </trkpt>
      <trkpt lat="42.80634" lon="0.45048">
        <ele>3064.5</ele>
        <time>2011-10-01T16:06:40.15</time>
      </trkpt>
      <trkpt lat="42.80649" lon="0.4505">
        <ele>3063</ele>
        <time>2011-10-01T16:06:41.13</time>
      </trkpt>
      <trkpt lat="42.80662" lon="0.45052">
        <ele>3061.5</ele>
        <time>2011-10-01T16:06:42.15</time>
      </trkpt>
      <trkpt lat="42.80675" lon="0.45055">
        <ele>3060</ele>
        <time>2011-10-01T16:06:43.13</time>
      </trkpt>
      <trkpt lat="42.80689" lon="0.45058">
        <ele>3060</ele>
        <time>2011-10-01T16:06:44.15</time>
      </trkpt>
      <trkpt lat="42.80702" lon="0.4506">
        <ele>3060</ele>
        <time>2011-10-01T16:06:45.13</time>
      </trkpt>
      <trkpt lat="42.80716" lon="0.45059">
        <ele>3060</ele>
        <time>2011-10-01T16:06:46.15</time>
      </trkpt>
      <trkpt lat="42.80729" lon="0.45057">
        <ele>3059.5</ele>
        <time>2011-10-01T16:06:47.13</time>
      </trkpt>
      <trkpt lat="42.80742" lon="0.45054">
        <ele>3059.5</ele>
        <time>2011-10-01T16:06:48.15</time>
      </trkpt>
      <trkpt lat="42.80755" lon="0.45049">
        <ele>3059.5</ele>
        <time>2011-10-01T16:06:49.12</time>
      </trkpt>
      <trkpt lat="42.80768" lon="0.45044">
        <ele>3059</ele>
        <time>2011-10-01T16:06:50.16</time>
      </trkpt>
      <trkpt lat="42.80781" lon="0.45039">
        <ele>3058.5</ele>
        <time>2011-10-01T16:06:51.13</time>
      </trkpt>
      <trkpt lat="42.80794" lon="0.45034">
        <ele>3057</ele>
        <time>2011-10-01T16:06:52.14</time>
      </trkpt>
      <trkpt lat="42.80807" lon="0.45032">
        <ele>3057</ele>
        <time>2011-10-01T16:06:53.17</time>
      </trkpt>
      <trkpt lat="42.80821" lon="0.45032">
        <ele>3056.5</ele>
        <time>2011-10-01T16:06:54.14</time>
      </trkpt>
      <trkpt lat="42.80835" lon="0.45034">
        <ele>3056</ele>
        <time>2011-10-01T16:06:55.12</time>
      </trkpt>
      <trkpt lat="42.80849" lon="0.45036">
        <ele>3055.5</ele>
        <time>2011-10-01T16:06:56.14</time>
      </trkpt>
      <trkpt lat="42.80862" lon="0.45039">
        <ele>3055</ele>
        <time>2011-10-01T16:06:57.12</time>
      </trkpt>
      <trkpt lat="42.80875" lon="0.45043">
        <ele>3054</ele>
        <time>2011-10-01T16:06:58.14</time>
      </trkpt>
      <trkpt lat="42.80887" lon="0.45047">
        <ele>3053.5</ele>
        <time>2011-10-01T16:06:59.13</time>
      </trkpt>
      <trkpt lat="42.80899" lon="0.4505">
        <ele>3051</ele>
        <time>2011-10-01T16:07:00.14</time>
      </trkpt>
      <trkpt lat="42.80912" lon="0.45054">
        <ele>3048</ele>
        <time>2011-10-01T16:07:01.17</time>
      </trkpt>
      <trkpt lat="42.80925" lon="0.45058">
        <ele>3046</ele>
        <time>2011-10-01T16:07:02.15</time>
      </trkpt>
      <trkpt lat="42.80939" lon="0.45061">
        <ele>3045.5</ele>
        <time>2011-10-01T16:07:03.14</time>
      </trkpt>
      <trkpt lat="42.80952" lon="0.45064">
        <ele>3045.5</ele>
        <time>2011-10-01T16:07:04.15</time>
      </trkpt>
      <trkpt lat="42.80964" lon="0.45067">
        <ele>3045.5</ele>
        <time>2011-10-01T16:07:05.13</time>
      </trkpt>
      <trkpt lat="42.80976" lon="0.45073">
        <ele>3045.5</ele>
        <time>2011-10-01T16:07:06.15</time>
      </trkpt>
      <trkpt lat="42.80987" lon="0.45079">
        <ele>3043</ele>
        <time>2011-10-01T16:07:07.13</time>
      </trkpt>
      <trkpt lat="42.80998" lon="0.45086">
        <ele>3041</ele>
        <time>2011-10-01T16:07:08.15</time>
      </trkpt>
      <trkpt lat="42.81009" lon="0.45093">
        <ele>3038.5</ele>
        <time>2011-10-01T16:07:09.12</time>
      </trkpt>
      <trkpt lat="42.81021" lon="0.45101">
        <ele>3036.5</ele>
        <time>2011-10-01T16:07:10.14</time>
      </trkpt>
      <trkpt lat="42.81032" lon="0.45109">
        <ele>3035.5</ele>
        <time>2011-10-01T16:07:11.13</time>
      </trkpt>
      <trkpt lat="42.81043" lon="0.45116">
        <ele>3034.5</ele>
        <time>2011-10-01T16:07:12.14</time>
      </trkpt>
      <trkpt lat="42.81054" lon="0.45123">
        <ele>3034</ele>
        <time>2011-10-01T16:07:13.13</time>
      </trkpt>
      <trkpt lat="42.81065" lon="0.45128">
        <ele>3032.5</ele>
        <time>2011-10-01T16:07:14.15</time>
      </trkpt>
      <trkpt lat="42.81077" lon="0.45134">
        <ele>3030.5</ele>
        <time>2011-10-01T16:07:15.14</time>
      </trkpt>
      <trkpt lat="42.8109" lon="0.45139">
        <ele>3029</ele>
        <time>2011-10-01T16:07:16.12</time>
      </trkpt>
      <trkpt lat="42.81102" lon="0.45146">
        <ele>3028</ele>
        <time>2011-10-01T16:07:17.13</time>
      </trkpt>
      <trkpt lat="42.81113" lon="0.45152">
        <ele>3027.5</ele>
        <time>2011-10-01T16:07:18.14</time>
      </trkpt>
      <trkpt lat="42.81125" lon="0.45159">
        <ele>3026.5</ele>
        <time>2011-10-01T16:07:19.13</time>
      </trkpt>
      <trkpt lat="42.81136" lon="0.45166">
        <ele>3025</ele>
        <time>2011-10-01T16:07:20.14</time>
      </trkpt>
      <trkpt lat="42.81147" lon="0.45172">
        <ele>3023.5</ele>
        <time>2011-10-01T16:07:21.13</time>
      </trkpt>
      <trkpt lat="42.81159" lon="0.45177">
        <ele>3022</ele>
        <time>2011-10-01T16:07:22.14</time>
      </trkpt>
      <trkpt lat="42.81172" lon="0.45182">
        <ele>3020.5</ele>
        <time>2011-10-01T16:07:23.12</time>
      </trkpt>
      <trkpt lat="42.81185" lon="0.45186">
        <ele>3019.5</ele>
        <time>2011-10-01T16:07:24.12</time>
      </trkpt>
      <trkpt lat="42.81199" lon="0.45189">
        <ele>3018.5</ele>
        <time>2011-10-01T16:07:25.12</time>
      </trkpt>
      <trkpt lat="42.81211" lon="0.4519">
        <ele>3017.5</ele>
        <time>2011-10-01T16:07:26.12</time>
      </trkpt>
      <trkpt lat="42.81224" lon="0.45191">
        <ele>3016</ele>
        <time>2011-10-01T16:07:27.12</time>
      </trkpt>
      <trkpt lat="42.81236" lon="0.45192">
        <ele>3014</ele>
        <time>2011-10-01T16:07:28.12</time>
      </trkpt>
      <trkpt lat="42.81248" lon="0.45193">
        <ele>3013.5</ele>
        <time>2011-10-01T16:07:29.13</time>
      </trkpt>
      <trkpt lat="42.81261" lon="0.45195">
        <ele>3013.5</ele>
        <time>2011-10-01T16:07:30.14</time>
      </trkpt>
      <trkpt lat="42.81273" lon="0.45196">
        <ele>3012</ele>
        <time>2011-10-01T16:07:31.12</time>
      </trkpt>
      <trkpt lat="42.81285" lon="0.45196">
        <ele>3011.5</ele>
        <time>2011-10-01T16:07:32.15</time>
      </trkpt>
      <trkpt lat="42.81298" lon="0.45193">
        <ele>3011.5</ele>
        <time>2011-10-01T16:07:33.13</time>
      </trkpt>
      <trkpt lat="42.81311" lon="0.45191">
        <ele>3011</ele>
        <time>2011-10-01T16:07:34.14</time>
      </trkpt>
      <trkpt lat="42.81323" lon="0.4519">
        <ele>3010.5</ele>
        <time>2011-10-01T16:07:35.17</time>
      </trkpt>
      <trkpt lat="42.81335" lon="0.4519">
        <ele>3010.5</ele>
        <time>2011-10-01T16:07:36.14</time>
      </trkpt>
      <trkpt lat="42.81347" lon="0.45192">
        <ele>3010.5</ele>
        <time>2011-10-01T16:07:37.13</time>
      </trkpt>
      <trkpt lat="42.81359" lon="0.45195">
        <ele>3009.5</ele>
        <time>2011-10-01T16:07:38.17</time>
      </trkpt>
      <trkpt lat="42.81372" lon="0.452">
        <ele>3009</ele>
        <time>2011-10-01T16:07:39.13</time>
      </trkpt>
      <trkpt lat="42.81384" lon="0.45205">
        <ele>3008</ele>
        <time>2011-10-01T16:07:40.15</time>
      </trkpt>
      <trkpt lat="42.81395" lon="0.45211">
        <ele>3007</ele>
        <time>2011-10-01T16:07:41.13</time>
      </trkpt>
      <trkpt lat="42.81405" lon="0.45218">
        <ele>3006</ele>
        <time>2011-10-01T16:07:42.23</time>
      </trkpt>
      <trkpt lat="42.81414" lon="0.45225">
        <ele>3005.5</ele>
        <time>2011-10-01T16:07:43.14</time>
      </trkpt>
      <trkpt lat="42.81424" lon="0.45233">
        <ele>3005</ele>
        <time>2011-10-01T16:07:44.12</time>
      </trkpt>
      <trkpt lat="42.81435" lon="0.4524">
        <ele>3005</ele>
        <time>2011-10-01T16:07:45.13</time>
      </trkpt>
      <trkpt lat="42.81448" lon="0.45246">
        <ele>3004</ele>
        <time>2011-10-01T16:07:46.12</time>
      </trkpt>
      <trkpt lat="42.81461" lon="0.45252">
        <ele>3003</ele>
        <time>2011-10-01T16:07:47.12</time>
      </trkpt>
      <trkpt lat="42.81473" lon="0.45255">
        <ele>3001</ele>
        <time>2011-10-01T16:07:48.12</time>
      </trkpt>
      <trkpt lat="42.81486" lon="0.45257">
        <ele>3001</ele>
        <time>2011-10-01T16:07:49.12</time>
      </trkpt>
      <trkpt lat="42.81501" lon="0.45258">
        <ele>3000.5</ele>
        <time>2011-10-01T16:07:50.12</time>
      </trkpt>
      <trkpt lat="42.81515" lon="0.45257">
        <ele>2999</ele>
        <time>2011-10-01T16:07:51.12</time>
      </trkpt>
      <trkpt lat="42.81528" lon="0.45256">
        <ele>2998.5</ele>
        <time>2011-10-01T16:07:52.12</time>
      </trkpt>
      <trkpt lat="42.81541" lon="0.45253">
        <ele>2996.5</ele>
        <time>2011-10-01T16:07:53.12</time>
      </trkpt>
      <trkpt lat="42.81556" lon="0.45251">
        <ele>2994.5</ele>
        <time>2011-10-01T16:07:54.15</time>
      </trkpt>
      <trkpt lat="42.81571" lon="0.45249">
        <ele>2993</ele>
        <time>2011-10-01T16:07:55.13</time>
      </trkpt>
      <trkpt lat="42.81586" lon="0.45248">
        <ele>2989.5</ele>
        <time>2011-10-01T16:07:56.16</time>
      </trkpt>
      <trkpt lat="42.81601" lon="0.45248">
        <ele>2989</ele>
        <time>2011-10-01T16:07:57.12</time>
      </trkpt>
      <trkpt lat="42.81614" lon="0.4525">
        <ele>2989</ele>
        <time>2011-10-01T16:07:58.14</time>
      </trkpt>
      <trkpt lat="42.81628" lon="0.4525">
        <ele>2988</ele>
        <time>2011-10-01T16:07:59.13</time>
      </trkpt>
      <trkpt lat="42.81641" lon="0.45252">
        <ele>2985</ele>
        <time>2011-10-01T16:08:00.14</time>
      </trkpt>
      <trkpt lat="42.81672" lon="0.45257">
        <ele>2981.5</ele>
        <time>2011-10-01T16:08:02.14</time>
      </trkpt>
      <trkpt lat="42.81686" lon="0.4526">
        <ele>2978.5</ele>
        <time>2011-10-01T16:08:03.13</time>
      </trkpt>
      <trkpt lat="42.817" lon="0.45263">
        <ele>2978.5</ele>
        <time>2011-10-01T16:08:04.14</time>
      </trkpt>
      <trkpt lat="42.81713" lon="0.45265">
        <ele>2978.5</ele>
        <time>2011-10-01T16:08:05.13</time>
      </trkpt>
      <trkpt lat="42.81725" lon="0.45268">
        <ele>2978</ele>
        <time>2011-10-01T16:08:06.22</time>
      </trkpt>
      <trkpt lat="42.81738" lon="0.45271">
        <ele>2975.5</ele>
        <time>2011-10-01T16:08:07.13</time>
      </trkpt>
      <trkpt lat="42.81751" lon="0.45274">
        <ele>2975.5</ele>
        <time>2011-10-01T16:08:08.14</time>
      </trkpt>
      <trkpt lat="42.81764" lon="0.45276">
        <ele>2975</ele>
        <time>2011-10-01T16:08:09.13</time>
      </trkpt>
      <trkpt lat="42.81779" lon="0.45277">
        <ele>2975</ele>
        <time>2011-10-01T16:08:10.15</time>
      </trkpt>
      <trkpt lat="42.81793" lon="0.45278">
        <ele>2974</ele>
        <time>2011-10-01T16:08:11.13</time>
      </trkpt>
      <trkpt lat="42.81807" lon="0.45279">
        <ele>2971.5</ele>
        <time>2011-10-01T16:08:12.14</time>
      </trkpt>
      <trkpt lat="42.81821" lon="0.45282">
        <ele>2969.5</ele>
        <time>2011-10-01T16:08:13.13</time>
      </trkpt>
      <trkpt lat="42.81834" lon="0.45287">
        <ele>2967</ele>
        <time>2011-10-01T16:08:14.15</time>
      </trkpt>
      <trkpt lat="42.81847" lon="0.45292">
        <ele>2964</ele>
        <time>2011-10-01T16:08:15.13</time>
      </trkpt>
      <trkpt lat="42.8186" lon="0.45299">
        <ele>2960.5</ele>
        <time>2011-10-01T16:08:16.14</time>
      </trkpt>
      <trkpt lat="42.81873" lon="0.45306">
        <ele>2957</ele>
        <time>2011-10-01T16:08:17.13</time>
      </trkpt>
      <trkpt lat="42.81886" lon="0.45314">
        <ele>2955</ele>
        <time>2011-10-01T16:08:18.14</time>
      </trkpt>
      <trkpt lat="42.81899" lon="0.45322">
        <ele>2953</ele>
        <time>2011-10-01T16:08:19.13</time>
      </trkpt>
      <trkpt lat="42.81912" lon="0.45328">
        <ele>2950.5</ele>
        <time>2011-10-01T16:08:20.12</time>
      </trkpt>
      <trkpt lat="42.81924" lon="0.45335">
        <ele>2948.5</ele>
        <time>2011-10-01T16:08:21.13</time>
      </trkpt>
      <trkpt lat="42.81937" lon="0.45342">
        <ele>2947.5</ele>
        <time>2011-10-01T16:08:22.14</time>
      </trkpt>
      <trkpt lat="42.81949" lon="0.4535">
        <ele>2946.5</ele>
        <time>2011-10-01T16:08:23.13</time>
      </trkpt>
      <trkpt lat="42.81961" lon="0.45358">
        <ele>2946.5</ele>
        <time>2011-10-01T16:08:24.14</time>
      </trkpt>
      <trkpt lat="42.81975" lon="0.45367">
        <ele>2944</ele>
        <time>2011-10-01T16:08:25.13</time>
      </trkpt>
      <trkpt lat="42.81989" lon="0.45375">
        <ele>2943</ele>
        <time>2011-10-01T16:08:26.21</time>
      </trkpt>
      <trkpt lat="42.82002" lon="0.4538">
        <ele>2943.5</ele>
        <time>2011-10-01T16:08:27.13</time>
      </trkpt>
      <trkpt lat="42.82014" lon="0.45385">
        <ele>2944</ele>
        <time>2011-10-01T16:08:28.11</time>
      </trkpt>
      <trkpt lat="42.82025" lon="0.45387">
        <ele>2943.5</ele>
        <time>2011-10-01T16:08:29.33</time>
      </trkpt>
      <trkpt lat="42.82037" lon="0.45389">
        <ele>2941.5</ele>
        <time>2011-10-01T16:08:30.18</time>
      </trkpt>
      <trkpt lat="42.82051" lon="0.45392">
        <ele>2941.5</ele>
        <time>2011-10-01T16:08:31.12</time>
      </trkpt>
      <trkpt lat="42.82064" lon="0.45394">
        <ele>2941</ele>
        <time>2011-10-01T16:08:32.14</time>
      </trkpt>
      <trkpt lat="42.82094" lon="0.45402">
        <ele>2939.5</ele>
        <time>2011-10-01T16:08:34.17</time>
      </trkpt>
      <trkpt lat="42.82107" lon="0.45404">
        <ele>2939</ele>
        <time>2011-10-01T16:08:35.12</time>
      </trkpt>
      <trkpt lat="42.8212" lon="0.45407">
        <ele>2937.5</ele>
        <time>2011-10-01T16:08:36.12</time>
      </trkpt>
      <trkpt lat="42.82133" lon="0.4541">
        <ele>2935.5</ele>
        <time>2011-10-01T16:08:37.12</time>
      </trkpt>
      <trkpt lat="42.82147" lon="0.45413">
        <ele>2933.5</ele>
        <time>2011-10-01T16:08:38.14</time>
      </trkpt>
      <trkpt lat="42.82161" lon="0.45418">
        <ele>2931.5</ele>
        <time>2011-10-01T16:08:39.12</time>
      </trkpt>
      <trkpt lat="42.82175" lon="0.45422">
        <ele>2930.5</ele>
        <time>2011-10-01T16:08:40.12</time>
      </trkpt>
      <trkpt lat="42.82189" lon="0.45427">
        <ele>2930.5</ele>
        <time>2011-10-01T16:08:41.12</time>
      </trkpt>
      <trkpt lat="42.82203" lon="0.4543">
        <ele>2930.5</ele>
        <time>2011-10-01T16:08:42.12</time>
      </trkpt>
      <trkpt lat="42.82217" lon="0.45434">
        <ele>2930</ele>
        <time>2011-10-01T16:08:43.12</time>
      </trkpt>
      <trkpt lat="42.8223" lon="0.45437">
        <ele>2929</ele>
        <time>2011-10-01T16:08:44.12</time>
      </trkpt>
      <trkpt lat="42.82243" lon="0.45439">
        <ele>2928</ele>
        <time>2011-10-01T16:08:45.11</time>
      </trkpt>
      <trkpt lat="42.82256" lon="0.45442">
        <ele>2927.5</ele>
        <time>2011-10-01T16:08:46.12</time>
      </trkpt>
      <trkpt lat="42.82269" lon="0.45446">
        <ele>2927.5</ele>
        <time>2011-10-01T16:08:47.11</time>
      </trkpt>
      <trkpt lat="42.82282" lon="0.4545">
        <ele>2926.5</ele>
        <time>2011-10-01T16:08:48.14</time>
      </trkpt>
      <trkpt lat="42.82294" lon="0.45457">
        <ele>2926</ele>
        <time>2011-10-01T16:08:49.12</time>
      </trkpt>
      <trkpt lat="42.82305" lon="0.45464">
        <ele>2926</ele>
        <time>2011-10-01T16:08:50.12</time>
      </trkpt>
      <trkpt lat="42.82317" lon="0.45473">
        <ele>2925</ele>
        <time>2011-10-01T16:08:51.12</time>
      </trkpt>
      <trkpt lat="42.82328" lon="0.45483">
        <ele>2924</ele>
        <time>2011-10-01T16:08:52.12</time>
      </trkpt>
      <trkpt lat="42.82338" lon="0.45495">
        <ele>2923.5</ele>
        <time>2011-10-01T16:08:53.12</time>
      </trkpt>
      <trkpt lat="42.82349" lon="0.45507">
        <ele>2924</ele>
        <time>2011-10-01T16:08:54.12</time>
      </trkpt>
      <trkpt lat="42.8236" lon="0.45518">
        <ele>2924.5</ele>
        <time>2011-10-01T16:08:55.12</time>
      </trkpt>
      <trkpt lat="42.8237" lon="0.45529">
        <ele>2924</ele>
        <time>2011-10-01T16:08:56.12</time>
      </trkpt>
      <trkpt lat="42.82381" lon="0.45538">
        <ele>2923.5</ele>
        <time>2011-10-01T16:08:57.12</time>
      </trkpt>
      <trkpt lat="42.82393" lon="0.45547">
        <ele>2922</ele>
        <time>2011-10-01T16:08:58.12</time>
      </trkpt>
      <trkpt lat="42.82423" lon="0.45559">
        <ele>2921.5</ele>
        <time>2011-10-01T16:09:00.14</time>
      </trkpt>
      <trkpt lat="42.82438" lon="0.45562">
        <ele>2922</ele>
        <time>2011-10-01T16:09:01.12</time>
      </trkpt>
      <trkpt lat="42.82452" lon="0.45564">
        <ele>2922</ele>
        <time>2011-10-01T16:09:02.12</time>
      </trkpt>
      <trkpt lat="42.82467" lon="0.45562">
        <ele>2922.5</ele>
        <time>2011-10-01T16:09:03.12</time>
      </trkpt>
      <trkpt lat="42.82481" lon="0.4556">
        <ele>2920.5</ele>
        <time>2011-10-01T16:09:04.12</time>
      </trkpt>
      <trkpt lat="42.82496" lon="0.45557">
        <ele>2920.5</ele>
        <time>2011-10-01T16:09:05.12</time>
      </trkpt>
      <trkpt lat="42.82512" lon="0.45553">
        <ele>2919.5</ele>
        <time>2011-10-01T16:09:06.12</time>
      </trkpt>
      <trkpt lat="42.82527" lon="0.45549">
        <ele>2919.5</ele>
        <time>2011-10-01T16:09:07.12</time>
      </trkpt>
      <trkpt lat="42.82541" lon="0.45545">
        <ele>2918.5</ele>
        <time>2011-10-01T16:09:08.12</time>
      </trkpt>
      <trkpt lat="42.82555" lon="0.45541">
        <ele>2917</ele>
        <time>2011-10-01T16:09:09.12</time>
      </trkpt>
      <trkpt lat="42.8257" lon="0.45538">
        <ele>2915.5</ele>
        <time>2011-10-01T16:09:10.12</time>
      </trkpt>
      <trkpt lat="42.82585" lon="0.45534">
        <ele>2914</ele>
        <time>2011-10-01T16:09:11.12</time>
      </trkpt>
      <trkpt lat="42.826" lon="0.4553">
        <ele>2913.5</ele>
        <time>2011-10-01T16:09:12.12</time>
      </trkpt>
      <trkpt lat="42.82616" lon="0.45526">
        <ele>2914</ele>
        <time>2011-10-01T16:09:13.11</time>
      </trkpt>
      <trkpt lat="42.82632" lon="0.45524">
        <ele>2915.5</ele>
        <time>2011-10-01T16:09:14.12</time>
      </trkpt>
      <trkpt lat="42.82647" lon="0.45522">
        <ele>2917</ele>
        <time>2011-10-01T16:09:15.13</time>
      </trkpt>
      <trkpt lat="42.82661" lon="0.45521">
        <ele>2918</ele>
        <time>2011-10-01T16:09:16.15</time>
      </trkpt>
      <trkpt lat="42.82676" lon="0.45521">
        <ele>2917.5</ele>
        <time>2011-10-01T16:09:17.12</time>
      </trkpt>
      <trkpt lat="42.82691" lon="0.45521">
        <ele>2917</ele>
        <time>2011-10-01T16:09:18.12</time>
      </trkpt>
      <trkpt lat="42.82707" lon="0.45523">
        <ele>2917.5</ele>
        <time>2011-10-01T16:09:19.12</time>
      </trkpt>
      <trkpt lat="42.82723" lon="0.45524">
        <ele>2919</ele>
        <time>2011-10-01T16:09:20.12</time>
      </trkpt>
      <trkpt lat="42.82738" lon="0.45523">
        <ele>2920.5</ele>
        <time>2011-10-01T16:09:21.12</time>
      </trkpt>
      <trkpt lat="42.82753" lon="0.45522">
        <ele>2922</ele>
        <time>2011-10-01T16:09:22.14</time>
      </trkpt>
      <trkpt lat="42.82766" lon="0.45515">
        <ele>2922</ele>
        <time>2011-10-01T16:09:23.12</time>
      </trkpt>
      <trkpt lat="42.82778" lon="0.45506">
        <ele>2921.5</ele>
        <time>2011-10-01T16:09:24.11</time>
      </trkpt>
      <trkpt lat="42.82788" lon="0.45492">
        <ele>2919</ele>
        <time>2011-10-01T16:09:25.12</time>
      </trkpt>
      <trkpt lat="42.82798" lon="0.45477">
        <ele>2916.5</ele>
        <time>2011-10-01T16:09:26.14</time>
      </trkpt>
      <trkpt lat="42.82808" lon="0.45459">
        <ele>2917.5</ele>
        <time>2011-10-01T16:09:27.13</time>
      </trkpt>
      <trkpt lat="42.82818" lon="0.45423">
        <ele>2917</ele>
        <time>2011-10-01T16:09:29.13</time>
      </trkpt>
      <trkpt lat="42.82815" lon="0.45391">
        <ele>2918.5</ele>
        <time>2011-10-01T16:09:31.13</time>
      </trkpt>
      <trkpt lat="42.82809" lon="0.45377">
        <ele>2918</ele>
        <time>2011-10-01T16:09:32.14</time>
      </trkpt>
      <trkpt lat="42.82792" lon="0.45368">
        <ele>2918.5</ele>
        <time>2011-10-01T16:09:34.14</time>
      </trkpt>
      <trkpt lat="42.82782" lon="0.45364">
        <ele>2920.5</ele>
        <time>2011-10-01T16:09:35.12</time>
      </trkpt>
      <trkpt lat="42.82773" lon="0.45362">
        <ele>2921</ele>
        <time>2011-10-01T16:09:36.14</time>
      </trkpt>
      <trkpt lat="42.82762" lon="0.45358">
        <ele>2921</ele>
        <time>2011-10-01T16:09:37.12</time>
      </trkpt>
      <trkpt lat="42.82751" lon="0.45354">
        <ele>2921.5</ele>
        <time>2011-10-01T16:09:38.14</time>
      </trkpt>
      <trkpt lat="42.82742" lon="0.45347">
        <ele>2922</ele>
        <time>2011-10-01T16:09:39.12</time>
      </trkpt>
      <trkpt lat="42.82733" lon="0.45341">
        <ele>2922.5</ele>
        <time>2011-10-01T16:09:40.12</time>
      </trkpt>
      <trkpt lat="42.82723" lon="0.45333">
        <ele>2923</ele>
        <time>2011-10-01T16:09:41.13</time>
      </trkpt>
      <trkpt lat="42.82714" lon="0.45326">
        <ele>2924</ele>
        <time>2011-10-01T16:09:42.13</time>
      </trkpt>
      <trkpt lat="42.82705" lon="0.4532">
        <ele>2925.5</ele>
        <time>2011-10-01T16:09:43.11</time>
      </trkpt>
      <trkpt lat="42.82696" lon="0.45314">
        <ele>2926.5</ele>
        <time>2011-10-01T16:09:44.12</time>
      </trkpt>
      <trkpt lat="42.82686" lon="0.4531">
        <ele>2927.5</ele>
        <time>2011-10-01T16:09:45.12</time>
      </trkpt>
      <trkpt lat="42.82674" lon="0.45309">
        <ele>2927.5</ele>
        <time>2011-10-01T16:09:46.12</time>
      </trkpt>
      <trkpt lat="42.82662" lon="0.45308">
        <ele>2929</ele>
        <time>2011-10-01T16:09:47.12</time>
      </trkpt>
      <trkpt lat="42.82643" lon="0.45302">
        <ele>2930.5</ele>
        <time>2011-10-01T16:09:49.11</time>
      </trkpt>
      <trkpt lat="42.82635" lon="0.45295">
        <ele>2930.5</ele>
        <time>2011-10-01T16:09:50.13</time>
      </trkpt>
      <trkpt lat="42.82618" lon="0.45269">
        <ele>2934</ele>
        <time>2011-10-01T16:09:52.12</time>
      </trkpt>
      <trkpt lat="42.82611" lon="0.45257">
        <ele>2934</ele>
        <time>2011-10-01T16:09:53.13</time>
      </trkpt>
      <trkpt lat="42.82605" lon="0.45245">
        <ele>2934.5</ele>
        <time>2011-10-01T16:09:54.16</time>
      </trkpt>
      <trkpt lat="42.82599" lon="0.45236">
        <ele>2934.5</ele>
        <time>2011-10-01T16:09:55.13</time>
      </trkpt>
      <trkpt lat="42.82592" lon="0.45227">
        <ele>2935.5</ele>
        <time>2011-10-01T16:09:56.12</time>
      </trkpt>
      <trkpt lat="42.82575" lon="0.45203">
        <ele>2937</ele>
        <time>2011-10-01T16:09:58.14</time>
      </trkpt>
      <trkpt lat="42.82552" lon="0.45177">
        <ele>2940</ele>
        <time>2011-10-01T16:10:00.14</time>
      </trkpt>
      <trkpt lat="42.82523" lon="0.45154">
        <ele>2942.5</ele>
        <time>2011-10-01T16:10:03.13</time>
      </trkpt>
      <trkpt lat="42.82513" lon="0.45149">
        <ele>2944.5</ele>
        <time>2011-10-01T16:10:04.12</time>
      </trkpt>
      <trkpt lat="42.82502" lon="0.45146">
        <ele>2945.5</ele>
        <time>2011-10-01T16:10:05.14</time>
      </trkpt>
      <trkpt lat="42.82491" lon="0.45142">
        <ele>2946.5</ele>
        <time>2011-10-01T16:10:06.14</time>
      </trkpt>
      <trkpt lat="42.8248" lon="0.45138">
        <ele>2948.5</ele>
        <time>2011-10-01T16:10:07.14</time>
      </trkpt>
      <trkpt lat="42.8247" lon="0.45133">
        <ele>2949</ele>
        <time>2011-10-01T16:10:08.14</time>
      </trkpt>
      <trkpt lat="42.82461" lon="0.45127">
        <ele>2949.5</ele>
        <time>2011-10-01T16:10:09.12</time>
      </trkpt>
      <trkpt lat="42.82454" lon="0.4512">
        <ele>2950</ele>
        <time>2011-10-01T16:10:10.12</time>
      </trkpt>
      <trkpt lat="42.82449" lon="0.45112">
        <ele>2952</ele>
        <time>2011-10-01T16:10:11.13</time>
      </trkpt>
      <trkpt lat="42.82442" lon="0.45103">
        <ele>2953</ele>
        <time>2011-10-01T16:10:12.12</time>
      </trkpt>
      <trkpt lat="42.82436" lon="0.45093">
        <ele>2952</ele>
        <time>2011-10-01T16:10:13.12</time>
      </trkpt>
      <trkpt lat="42.82418" lon="0.45046">
        <ele>2952.5</ele>
        <time>2011-10-01T16:10:16.12</time>
      </trkpt>
      <trkpt lat="42.8241" lon="0.45032">
        <ele>2952.5</ele>
        <time>2011-10-01T16:10:17.13</time>
      </trkpt>
      <trkpt lat="42.82391" lon="0.45022">
        <ele>2953.5</ele>
        <time>2011-10-01T16:10:19.13</time>
      </trkpt>
      <trkpt lat="42.8238" lon="0.45021">
        <ele>2954</ele>
        <time>2011-10-01T16:10:20.15</time>
      </trkpt>
      <trkpt lat="42.82354" lon="0.45029">
        <ele>2955</ele>
        <time>2011-10-01T16:10:22.12</time>
      </trkpt>
      <trkpt lat="42.82343" lon="0.45039">
        <ele>2955.5</ele>
        <time>2011-10-01T16:10:23.13</time>
      </trkpt>
      <trkpt lat="42.82334" lon="0.4505">
        <ele>2956</ele>
        <time>2011-10-01T16:10:24.14</time>
      </trkpt>
      <trkpt lat="42.8233" lon="0.45065">
        <ele>2956.5</ele>
        <time>2011-10-01T16:10:25.13</time>
      </trkpt>
      <trkpt lat="42.82329" lon="0.45081">
        <ele>2958.5</ele>
        <time>2011-10-01T16:10:26.12</time>
      </trkpt>
      <trkpt lat="42.82331" lon="0.45097">
        <ele>2959</ele>
        <time>2011-10-01T16:10:27.13</time>
      </trkpt>
      <trkpt lat="42.82336" lon="0.45114">
        <ele>2959</ele>
        <time>2011-10-01T16:10:28.14</time>
      </trkpt>
      <trkpt lat="42.82343" lon="0.45128">
        <ele>2960.5</ele>
        <time>2011-10-01T16:10:29.12</time>
      </trkpt>
      <trkpt lat="42.8235" lon="0.4514">
        <ele>2961.5</ele>
        <time>2011-10-01T16:10:30.14</time>
      </trkpt>
      <trkpt lat="42.82356" lon="0.4515">
        <ele>2965</ele>
        <time>2011-10-01T16:10:31.13</time>
      </trkpt>
      <trkpt lat="42.82366" lon="0.45156">
        <ele>2968</ele>
        <time>2011-10-01T16:10:32.14</time>
      </trkpt>
      <trkpt lat="42.82377" lon="0.45158">
        <ele>2971.5</ele>
        <time>2011-10-01T16:10:33.13</time>
      </trkpt>
      <trkpt lat="42.8239" lon="0.45159">
        <ele>2973</ele>
        <time>2011-10-01T16:10:34.13</time>
      </trkpt>
      <trkpt lat="42.82404" lon="0.45159">
        <ele>2974</ele>
        <time>2011-10-01T16:10:35.12</time>
      </trkpt>
      <trkpt lat="42.82418" lon="0.45158">
        <ele>2975.5</ele>
        <time>2011-10-01T16:10:36.12</time>
      </trkpt>
      <trkpt lat="42.82433" lon="0.45154">
        <ele>2977.5</ele>
        <time>2011-10-01T16:10:37.13</time>
      </trkpt>
      <trkpt lat="42.82447" lon="0.45149">
        <ele>2978.5</ele>
        <time>2011-10-01T16:10:38.14</time>
      </trkpt>
      <trkpt lat="42.8248" lon="0.45103">
        <ele>2981</ele>
        <time>2011-10-01T16:10:42.20</time>
      </trkpt>
      <trkpt lat="42.82502" lon="0.45023">
        <ele>2991.5</ele>
        <time>2011-10-01T16:10:46.12</time>
      </trkpt>
      <trkpt lat="42.825" lon="0.45002">
        <ele>2994.5</ele>
        <time>2011-10-01T16:10:47.13</time>
      </trkpt>
      <trkpt lat="42.82497" lon="0.44982">
        <ele>2998</ele>
        <time>2011-10-01T16:10:48.12</time>
      </trkpt>
      <trkpt lat="42.82492" lon="0.44963">
        <ele>3000.5</ele>
        <time>2011-10-01T16:10:49.13</time>
      </trkpt>
      <trkpt lat="42.82486" lon="0.44945">
        <ele>3002</ele>
        <time>2011-10-01T16:10:50.12</time>
      </trkpt>
      <trkpt lat="42.82477" lon="0.44928">
        <ele>3004</ele>
        <time>2011-10-01T16:10:51.13</time>
      </trkpt>
      <trkpt lat="42.82466" lon="0.44912">
        <ele>3005</ele>
        <time>2011-10-01T16:10:52.12</time>
      </trkpt>
      <trkpt lat="42.82455" lon="0.44898">
        <ele>3007</ele>
        <time>2011-10-01T16:10:53.13</time>
      </trkpt>
      <trkpt lat="42.82442" lon="0.44888">
        <ele>3009.5</ele>
        <time>2011-10-01T16:10:54.12</time>
      </trkpt>
      <trkpt lat="42.82416" lon="0.4488">
        <ele>3015</ele>
        <time>2011-10-01T16:10:56.13</time>
      </trkpt>
      <trkpt lat="42.82405" lon="0.44883">
        <ele>3014</ele>
        <time>2011-10-01T16:10:57.13</time>
      </trkpt>
      <trkpt lat="42.82395" lon="0.44889">
        <ele>3012.5</ele>
        <time>2011-10-01T16:10:58.13</time>
      </trkpt>
      <trkpt lat="42.82387" lon="0.449">
        <ele>3012.5</ele>
        <time>2011-10-01T16:10:59.17</time>
      </trkpt>
      <trkpt lat="42.82386" lon="0.44918">
        <ele>3012.5</ele>
        <time>2011-10-01T16:11:00.17</time>
      </trkpt>
      <trkpt lat="42.82387" lon="0.44935">
        <ele>3015</ele>
        <time>2011-10-01T16:11:01.17</time>
      </trkpt>
      <trkpt lat="42.82399" lon="0.4496">
        <ele>3016</ele>
        <time>2011-10-01T16:11:03.13</time>
      </trkpt>
      <trkpt lat="42.8242" lon="0.44974">
        <ele>3019</ele>
        <time>2011-10-01T16:11:05.13</time>
      </trkpt>
      <trkpt lat="42.82443" lon="0.44971">
        <ele>3021</ele>
        <time>2011-10-01T16:11:07.21</time>
      </trkpt>
      <trkpt lat="42.82463" lon="0.44942">
        <ele>3025.5</ele>
        <time>2011-10-01T16:11:09.14</time>
      </trkpt>
      <trkpt lat="42.82469" lon="0.44924">
        <ele>3026</ele>
        <time>2011-10-01T16:11:10.12</time>
      </trkpt>
      <trkpt lat="42.8247" lon="0.44904">
        <ele>3026</ele>
        <time>2011-10-01T16:11:11.20</time>
      </trkpt>
      <trkpt lat="42.82458" lon="0.44868">
        <ele>3028</ele>
        <time>2011-10-01T16:11:13.17</time>
      </trkpt>
      <trkpt lat="42.82445" lon="0.44845">
        <ele>3031</ele>
        <time>2011-10-01T16:11:15.13</time>
      </trkpt>
      <trkpt lat="42.82435" lon="0.44839">
        <ele>3033.5</ele>
        <time>2011-10-01T16:11:16.13</time>
      </trkpt>
      <trkpt lat="42.82423" lon="0.44837">
        <ele>3034</ele>
        <time>2011-10-01T16:11:17.21</time>
      </trkpt>
      <trkpt lat="42.82411" lon="0.4484">
        <ele>3035</ele>
        <time>2011-10-01T16:11:18.13</time>
      </trkpt>
      <trkpt lat="42.824" lon="0.44845">
        <ele>3035</ele>
        <time>2011-10-01T16:11:19.18</time>
      </trkpt>
      <trkpt lat="42.82389" lon="0.44853">
        <ele>3036</ele>
        <time>2011-10-01T16:11:20.19</time>
      </trkpt>
      <trkpt lat="42.82384" lon="0.44865">
        <ele>3036.5</ele>
        <time>2011-10-01T16:11:21.21</time>
      </trkpt>
      <trkpt lat="42.82379" lon="0.44879">
        <ele>3039.5</ele>
        <time>2011-10-01T16:11:22.19</time>
      </trkpt>
      <trkpt lat="42.82378" lon="0.44896">
        <ele>3040.5</ele>
        <time>2011-10-01T16:11:23.14</time>
      </trkpt>
      <trkpt lat="42.82381" lon="0.44913">
        <ele>3040</ele>
        <time>2011-10-01T16:11:24.12</time>
      </trkpt>
      <trkpt lat="42.82386" lon="0.4493">
        <ele>3043</ele>
        <time>2011-10-01T16:11:25.20</time>
      </trkpt>
      <trkpt lat="42.82395" lon="0.44955">
        <ele>3044.5</ele>
        <time>2011-10-01T16:11:27.13</time>
      </trkpt>
      <trkpt lat="42.82404" lon="0.44962">
        <ele>3045.5</ele>
        <time>2011-10-01T16:11:28.19</time>
      </trkpt>
      <trkpt lat="42.82416" lon="0.44964">
        <ele>3046.5</ele>
        <time>2011-10-01T16:11:29.21</time>
      </trkpt>
      <trkpt lat="42.82429" lon="0.44965">
        <ele>3048</ele>
        <time>2011-10-01T16:11:30.19</time>
      </trkpt>
      <trkpt lat="42.82441" lon="0.44965">
        <ele>3049</ele>
        <time>2011-10-01T16:11:31.15</time>
      </trkpt>
      <trkpt lat="42.82464" lon="0.44945">
        <ele>3051.5</ele>
        <time>2011-10-01T16:11:33.15</time>
      </trkpt>
      <trkpt lat="42.82472" lon="0.44931">
        <ele>3054.5</ele>
        <time>2011-10-01T16:11:34.13</time>
      </trkpt>
      <trkpt lat="42.82481" lon="0.44915">
        <ele>3056.5</ele>
        <time>2011-10-01T16:11:35.13</time>
      </trkpt>
      <trkpt lat="42.82488" lon="0.44898">
        <ele>3059.5</ele>
        <time>2011-10-01T16:11:36.52</time>
      </trkpt>
      <trkpt lat="42.82497" lon="0.4486">
        <ele>3065.5</ele>
        <time>2011-10-01T16:11:38.17</time>
      </trkpt>
      <trkpt lat="42.825" lon="0.44842">
        <ele>3066</ele>
        <time>2011-10-01T16:11:39.13</time>
      </trkpt>
      <trkpt lat="42.82503" lon="0.44822">
        <ele>3068</ele>
        <time>2011-10-01T16:11:40.13</time>
      </trkpt>
      <trkpt lat="42.82502" lon="0.44803">
        <ele>3070</ele>
        <time>2011-10-01T16:11:41.13</time>
      </trkpt>
      <trkpt lat="42.82499" lon="0.44784">
        <ele>3071.5</ele>
        <time>2011-10-01T16:11:42.14</time>
      </trkpt>
      <trkpt lat="42.82494" lon="0.44766">
        <ele>3074</ele>
        <time>2011-10-01T16:11:43.14</time>
      </trkpt>
      <trkpt lat="42.82488" lon="0.44751">
        <ele>3075.5</ele>
        <time>2011-10-01T16:11:44.12</time>
      </trkpt>
      <trkpt lat="42.8248" lon="0.44737">
        <ele>3076</ele>
        <time>2011-10-01T16:11:45.13</time>
      </trkpt>
      <trkpt lat="42.8247" lon="0.44729">
        <ele>3076.5</ele>
        <time>2011-10-01T16:11:46.12</time>
      </trkpt>
      <trkpt lat="42.82451" lon="0.44722">
        <ele>3083.5</ele>
        <time>2011-10-01T16:11:48.12</time>
      </trkpt>
      <trkpt lat="42.8244" lon="0.4472">
        <ele>3085.5</ele>
        <time>2011-10-01T16:11:49.13</time>
      </trkpt>
      <trkpt lat="42.8243" lon="0.44716">
        <ele>3085.5</ele>
        <time>2011-10-01T16:11:50.17</time>
      </trkpt>
      <trkpt lat="42.8242" lon="0.4471">
        <ele>3089.5</ele>
        <time>2011-10-01T16:11:51.13</time>
      </trkpt>
      <trkpt lat="42.8241" lon="0.44706">
        <ele>3089</ele>
        <time>2011-10-01T16:11:52.12</time>
      </trkpt>
      <trkpt lat="42.824" lon="0.44705">
        <ele>3089</ele>
        <time>2011-10-01T16:11:53.13</time>
      </trkpt>
      <trkpt lat="42.82388" lon="0.44708">
        <ele>3089.5</ele>
        <time>2011-10-01T16:11:54.13</time>
      </trkpt>
      <trkpt lat="42.82377" lon="0.44716">
        <ele>3090.5</ele>
        <time>2011-10-01T16:11:55.13</time>
      </trkpt>
      <trkpt lat="42.8237" lon="0.44731">
        <ele>3091</ele>
        <time>2011-10-01T16:11:56.13</time>
      </trkpt>
      <trkpt lat="42.82372" lon="0.4475">
        <ele>3093</ele>
        <time>2011-10-01T16:11:57.12</time>
      </trkpt>
      <trkpt lat="42.82379" lon="0.44766">
        <ele>3093.5</ele>
        <time>2011-10-01T16:11:58.13</time>
      </trkpt>
      <trkpt lat="42.82407" lon="0.4478">
        <ele>3096.5</ele>
        <time>2011-10-01T16:12:01.13</time>
      </trkpt>
      <trkpt lat="42.82418" lon="0.44773">
        <ele>3097</ele>
        <time>2011-10-01T16:12:02.13</time>
      </trkpt>
      <trkpt lat="42.82448" lon="0.4472">
        <ele>3100.5</ele>
        <time>2011-10-01T16:12:05.13</time>
      </trkpt>
      <trkpt lat="42.82451" lon="0.44663">
        <ele>3108.5</ele>
        <time>2011-10-01T16:12:08.13</time>
      </trkpt>
      <trkpt lat="42.82444" lon="0.44651">
        <ele>3107</ele>
        <time>2011-10-01T16:12:09.13</time>
      </trkpt>
      <trkpt lat="42.82435" lon="0.44642">
        <ele>3107</ele>
        <time>2011-10-01T16:12:10.14</time>
      </trkpt>
      <trkpt lat="42.82424" lon="0.44635">
        <ele>3107</ele>
        <time>2011-10-01T16:12:11.13</time>
      </trkpt>
      <trkpt lat="42.82411" lon="0.44634">
        <ele>3106</ele>
        <time>2011-10-01T16:12:12.14</time>
      </trkpt>
      <trkpt lat="42.82399" lon="0.44637">
        <ele>3107</ele>
        <time>2011-10-01T16:12:13.14</time>
      </trkpt>
      <trkpt lat="42.82391" lon="0.44663">
        <ele>3106.5</ele>
        <time>2011-10-01T16:12:15.14</time>
      </trkpt>
      <trkpt lat="42.82392" lon="0.44683">
        <ele>3108</ele>
        <time>2011-10-01T16:12:17.13</time>
      </trkpt>
      <trkpt lat="42.82478" lon="0.44665">
        <ele>3112</ele>
        <time>2011-10-01T16:12:22.13</time>
      </trkpt>
      <trkpt lat="42.82487" lon="0.44649">
        <ele>3113.5</ele>
        <time>2011-10-01T16:12:23.14</time>
      </trkpt>
      <trkpt lat="42.82493" lon="0.44631">
        <ele>3114.5</ele>
        <time>2011-10-01T16:12:24.13</time>
      </trkpt>
      <trkpt lat="42.82498" lon="0.44614">
        <ele>3115.5</ele>
        <time>2011-10-01T16:12:25.13</time>
      </trkpt>
      <trkpt lat="42.82504" lon="0.44584">
        <ele>3116.5</ele>
        <time>2011-10-01T16:12:27.14</time>
      </trkpt>
      <trkpt lat="42.82503" lon="0.44571">
        <ele>3115.5</ele>
        <time>2011-10-01T16:12:28.13</time>
      </trkpt>
      <trkpt lat="42.82488" lon="0.4452">
        <ele>3113</ele>
        <time>2011-10-01T16:12:31.15</time>
      </trkpt>
      <trkpt lat="42.82479" lon="0.44506">
        <ele>3113</ele>
        <time>2011-10-01T16:12:32.14</time>
      </trkpt>
      <trkpt lat="42.82471" lon="0.44491">
        <ele>3113</ele>
        <time>2011-10-01T16:12:33.15</time>
      </trkpt>
      <trkpt lat="42.82463" lon="0.44475">
        <ele>3113</ele>
        <time>2011-10-01T16:12:34.13</time>
      </trkpt>
      <trkpt lat="42.82458" lon="0.44458">
        <ele>3114</ele>
        <time>2011-10-01T16:12:35.14</time>
      </trkpt>
      <trkpt lat="42.82455" lon="0.44443">
        <ele>3114.5</ele>
        <time>2011-10-01T16:12:36.13</time>
      </trkpt>
      <trkpt lat="42.8245" lon="0.44426">
        <ele>3114.5</ele>
        <time>2011-10-01T16:12:37.14</time>
      </trkpt>
      <trkpt lat="42.82446" lon="0.44407">
        <ele>3115.5</ele>
        <time>2011-10-01T16:12:38.17</time>
      </trkpt>
      <trkpt lat="42.82445" lon="0.44387">
        <ele>3116</ele>
        <time>2011-10-01T16:12:39.14</time>
      </trkpt>
      <trkpt lat="42.82449" lon="0.44366">
        <ele>3115.5</ele>
        <time>2011-10-01T16:12:40.13</time>
      </trkpt>
      <trkpt lat="42.82453" lon="0.44347">
        <ele>3117</ele>
        <time>2011-10-01T16:12:41.14</time>
      </trkpt>
      <trkpt lat="42.82464" lon="0.44334">
        <ele>3117.5</ele>
        <time>2011-10-01T16:12:42.21</time>
      </trkpt>
      <trkpt lat="42.82475" lon="0.44321">
        <ele>3118</ele>
        <time>2011-10-01T16:12:43.13</time>
      </trkpt>
      <trkpt lat="42.82488" lon="0.44316">
        <ele>3118.5</ele>
        <time>2011-10-01T16:12:44.16</time>
      </trkpt>
      <trkpt lat="42.82519" lon="0.44316">
        <ele>3118.5</ele>
        <time>2011-10-01T16:12:46.13</time>
      </trkpt>
      <trkpt lat="42.82541" lon="0.44337">
        <ele>3118.5</ele>
        <time>2011-10-01T16:12:48.13</time>
      </trkpt>
      <trkpt lat="42.82549" lon="0.44365">
        <ele>3118</ele>
        <time>2011-10-01T16:12:50.13</time>
      </trkpt>
      <trkpt lat="42.82549" lon="0.44379">
        <ele>3118</ele>
        <time>2011-10-01T16:12:51.14</time>
      </trkpt>
      <trkpt lat="42.82548" lon="0.44394">
        <ele>3118</ele>
        <time>2011-10-01T16:12:52.12</time>
      </trkpt>
      <trkpt lat="42.82543" lon="0.44409">
        <ele>3117.5</ele>
        <time>2011-10-01T16:12:53.14</time>
      </trkpt>
      <trkpt lat="42.82535" lon="0.44421">
        <ele>3117</ele>
        <time>2011-10-01T16:12:54.13</time>
      </trkpt>
      <trkpt lat="42.82525" lon="0.44431">
        <ele>3117</ele>
        <time>2011-10-01T16:12:55.17</time>
      </trkpt>
      <trkpt lat="42.82515" lon="0.44438">
        <ele>3116.5</ele>
        <time>2011-10-01T16:12:56.13</time>
      </trkpt>
      <trkpt lat="42.82506" lon="0.44439">
        <ele>3114.5</ele>
        <time>2011-10-01T16:12:57.14</time>
      </trkpt>
      <trkpt lat="42.82497" lon="0.44441">
        <ele>3114.5</ele>
        <time>2011-10-01T16:12:58.17</time>
      </trkpt>
      <trkpt lat="42.82473" lon="0.44432">
        <ele>3112</ele>
        <time>2011-10-01T16:13:00.19</time>
      </trkpt>
      <trkpt lat="42.82462" lon="0.44425">
        <ele>3112</ele>
        <time>2011-10-01T16:13:01.13</time>
      </trkpt>
      <trkpt lat="42.82454" lon="0.44413">
        <ele>3111.5</ele>
        <time>2011-10-01T16:13:02.18</time>
      </trkpt>
      <trkpt lat="42.82446" lon="0.44399">
        <ele>3110</ele>
        <time>2011-10-01T16:13:03.17</time>
      </trkpt>
      <trkpt lat="42.8244" lon="0.44382">
        <ele>3109.5</ele>
        <time>2011-10-01T16:13:04.13</time>
      </trkpt>
      <trkpt lat="42.82436" lon="0.44365">
        <ele>3109</ele>
        <time>2011-10-01T16:13:05.14</time>
      </trkpt>
      <trkpt lat="42.82439" lon="0.44323">
        <ele>3106.5</ele>
        <time>2011-10-01T16:13:07.18</time>
      </trkpt>
      <trkpt lat="42.82443" lon="0.44303">
        <ele>3107</ele>
        <time>2011-10-01T16:13:08.19</time>
      </trkpt>
      <trkpt lat="42.82458" lon="0.44276">
        <ele>3107</ele>
        <time>2011-10-01T16:13:10.13</time>
      </trkpt>
      <trkpt lat="42.82468" lon="0.44265">
        <ele>3105.5</ele>
        <time>2011-10-01T16:13:11.17</time>
      </trkpt>
      <trkpt lat="42.82491" lon="0.44245">
        <ele>3105</ele>
        <time>2011-10-01T16:13:13.14</time>
      </trkpt>
      <trkpt lat="42.82505" lon="0.4424">
        <ele>3102.5</ele>
        <time>2011-10-01T16:13:14.21</time>
      </trkpt>
      <trkpt lat="42.82519" lon="0.44239">
        <ele>3100.5</ele>
        <time>2011-10-01T16:13:15.17</time>
      </trkpt>
      <trkpt lat="42.82533" lon="0.44242">
        <ele>3099</ele>
        <time>2011-10-01T16:13:16.13</time>
      </trkpt>
      <trkpt lat="42.82546" lon="0.44246">
        <ele>3097</ele>
        <time>2011-10-01T16:13:17.16</time>
      </trkpt>
      <trkpt lat="42.82558" lon="0.44254">
        <ele>3094.5</ele>
        <time>2011-10-01T16:13:18.13</time>
      </trkpt>
      <trkpt lat="42.82568" lon="0.44265">
        <ele>3090</ele>
        <time>2011-10-01T16:13:19.17</time>
      </trkpt>
      <trkpt lat="42.82584" lon="0.44293">
        <ele>3087.5</ele>
        <time>2011-10-01T16:13:21.17</time>
      </trkpt>
      <trkpt lat="42.82587" lon="0.4431">
        <ele>3085</ele>
        <time>2011-10-01T16:13:22.12</time>
      </trkpt>
      <trkpt lat="42.82585" lon="0.44328">
        <ele>3082</ele>
        <time>2011-10-01T16:13:23.13</time>
      </trkpt>
      <trkpt lat="42.82584" lon="0.44343">
        <ele>3080.5</ele>
        <time>2011-10-01T16:13:24.12</time>
      </trkpt>
      <trkpt lat="42.82582" lon="0.44357">
        <ele>3078.5</ele>
        <time>2011-10-01T16:13:25.19</time>
      </trkpt>
      <trkpt lat="42.82578" lon="0.4437">
        <ele>3075.5</ele>
        <time>2011-10-01T16:13:26.13</time>
      </trkpt>
      <trkpt lat="42.82572" lon="0.44384">
        <ele>3073.5</ele>
        <time>2011-10-01T16:13:27.16</time>
      </trkpt>
      <trkpt lat="42.82566" lon="0.44397">
        <ele>3073</ele>
        <time>2011-10-01T16:13:28.13</time>
      </trkpt>
      <trkpt lat="42.82559" lon="0.4441">
        <ele>3070.5</ele>
        <time>2011-10-01T16:13:29.13</time>
      </trkpt>
      <trkpt lat="42.82552" lon="0.44422">
        <ele>3068</ele>
        <time>2011-10-01T16:13:30.13</time>
      </trkpt>
      <trkpt lat="42.82545" lon="0.44434">
        <ele>3065</ele>
        <time>2011-10-01T16:13:31.17</time>
      </trkpt>
      <trkpt lat="42.82539" lon="0.44447">
        <ele>3062.5</ele>
        <time>2011-10-01T16:13:32.12</time>
      </trkpt>
      <trkpt lat="42.82535" lon="0.44462">
        <ele>3060.5</ele>
        <time>2011-10-01T16:13:33.13</time>
      </trkpt>
      <trkpt lat="42.82535" lon="0.44491">
        <ele>3055.5</ele>
        <time>2011-10-01T16:13:35.14</time>
      </trkpt>
      <trkpt lat="42.82538" lon="0.44505">
        <ele>3054.5</ele>
        <time>2011-10-01T16:13:36.12</time>
      </trkpt>
      <trkpt lat="42.82544" lon="0.4452">
        <ele>3054</ele>
        <time>2011-10-01T16:13:37.19</time>
      </trkpt>
      <trkpt lat="42.8255" lon="0.44536">
        <ele>3053.5</ele>
        <time>2011-10-01T16:13:38.15</time>
      </trkpt>
      <trkpt lat="42.82557" lon="0.4455">
        <ele>3053.5</ele>
        <time>2011-10-01T16:13:39.17</time>
      </trkpt>
      <trkpt lat="42.82562" lon="0.44565">
        <ele>3053</ele>
        <time>2011-10-01T16:13:40.12</time>
      </trkpt>
      <trkpt lat="42.82566" lon="0.4458">
        <ele>3051.5</ele>
        <time>2011-10-01T16:13:41.17</time>
      </trkpt>
      <trkpt lat="42.82569" lon="0.44594">
        <ele>3049</ele>
        <time>2011-10-01T16:13:42.12</time>
      </trkpt>
      <trkpt lat="42.82572" lon="0.44609">
        <ele>3047</ele>
        <time>2011-10-01T16:13:43.17</time>
      </trkpt>
      <trkpt lat="42.82573" lon="0.44625">
        <ele>3045</ele>
        <time>2011-10-01T16:13:44.12</time>
      </trkpt>
      <trkpt lat="42.82574" lon="0.44642">
        <ele>3043</ele>
        <time>2011-10-01T16:13:45.17</time>
      </trkpt>
      <trkpt lat="42.82576" lon="0.44659">
        <ele>3042</ele>
        <time>2011-10-01T16:13:46.12</time>
      </trkpt>
      <trkpt lat="42.82577" lon="0.44675">
        <ele>3040.5</ele>
        <time>2011-10-01T16:13:47.16</time>
      </trkpt>
      <trkpt lat="42.82579" lon="0.44692">
        <ele>3039</ele>
        <time>2011-10-01T16:13:48.13</time>
      </trkpt>
      <trkpt lat="42.82582" lon="0.44709">
        <ele>3037</ele>
        <time>2011-10-01T16:13:49.13</time>
      </trkpt>
      <trkpt lat="42.82585" lon="0.44725">
        <ele>3036</ele>
        <time>2011-10-01T16:13:50.18</time>
      </trkpt>
      <trkpt lat="42.82589" lon="0.44741">
        <ele>3034.5</ele>
        <time>2011-10-01T16:13:51.17</time>
      </trkpt>
      <trkpt lat="42.82593" lon="0.44757">
        <ele>3033.5</ele>
        <time>2011-10-01T16:13:52.18</time>
      </trkpt>
      <trkpt lat="42.82599" lon="0.44773">
        <ele>3032</ele>
        <time>2011-10-01T16:13:53.17</time>
      </trkpt>
      <trkpt lat="42.82606" lon="0.44787">
        <ele>3032</ele>
        <time>2011-10-01T16:13:54.20</time>
      </trkpt>
      <trkpt lat="42.82613" lon="0.44801">
        <ele>3032</ele>
        <time>2011-10-01T16:13:55.17</time>
      </trkpt>
      <trkpt lat="42.8262" lon="0.44814">
        <ele>3032.5</ele>
        <time>2011-10-01T16:13:56.12</time>
      </trkpt>
      <trkpt lat="42.82628" lon="0.44827">
        <ele>3032</ele>
        <time>2011-10-01T16:13:57.15</time>
      </trkpt>
      <trkpt lat="42.82636" lon="0.44839">
        <ele>3031.5</ele>
        <time>2011-10-01T16:13:58.13</time>
      </trkpt>
      <trkpt lat="42.82654" lon="0.44862">
        <ele>3029.5</ele>
        <time>2011-10-01T16:14:00.16</time>
      </trkpt>
      <trkpt lat="42.82664" lon="0.44874">
        <ele>3029</ele>
        <time>2011-10-01T16:14:01.16</time>
      </trkpt>
      <trkpt lat="42.82673" lon="0.44886">
        <ele>3029</ele>
        <time>2011-10-01T16:14:02.12</time>
      </trkpt>
      <trkpt lat="42.82681" lon="0.44898">
        <ele>3029.5</ele>
        <time>2011-10-01T16:14:03.21</time>
      </trkpt>
      <trkpt lat="42.8269" lon="0.44909">
        <ele>3029.5</ele>
        <time>2011-10-01T16:14:04.12</time>
      </trkpt>
      <trkpt lat="42.82699" lon="0.4492">
        <ele>3029.5</ele>
        <time>2011-10-01T16:14:05.20</time>
      </trkpt>
      <trkpt lat="42.82708" lon="0.4493">
        <ele>3030</ele>
        <time>2011-10-01T16:14:06.13</time>
      </trkpt>
      <trkpt lat="42.82718" lon="0.44939">
        <ele>3030.5</ele>
        <time>2011-10-01T16:14:07.21</time>
      </trkpt>
      <trkpt lat="42.82727" lon="0.44946">
        <ele>3031</ele>
        <time>2011-10-01T16:14:08.16</time>
      </trkpt>
      <trkpt lat="42.82736" lon="0.44954">
        <ele>3031.5</ele>
        <time>2011-10-01T16:14:09.13</time>
      </trkpt>
      <trkpt lat="42.82746" lon="0.44962">
        <ele>3032</ele>
        <time>2011-10-01T16:14:10.19</time>
      </trkpt>
      <trkpt lat="42.82756" lon="0.4497">
        <ele>3031.5</ele>
        <time>2011-10-01T16:14:11.17</time>
      </trkpt>
      <trkpt lat="42.82764" lon="0.44978">
        <ele>3032</ele>
        <time>2011-10-01T16:14:12.19</time>
      </trkpt>
      <trkpt lat="42.82772" lon="0.44986">
        <ele>3032.5</ele>
        <time>2011-10-01T16:14:13.13</time>
      </trkpt>
      <trkpt lat="42.8278" lon="0.44993">
        <ele>3032.5</ele>
        <time>2011-10-01T16:14:14.12</time>
      </trkpt>
      <trkpt lat="42.82788" lon="0.45001">
        <ele>3031.5</ele>
        <time>2011-10-01T16:14:15.14</time>
      </trkpt>
      <trkpt lat="42.82797" lon="0.45009">
        <ele>3030</ele>
        <time>2011-10-01T16:14:16.12</time>
      </trkpt>
      <trkpt lat="42.82806" lon="0.45017">
        <ele>3029.5</ele>
        <time>2011-10-01T16:14:17.13</time>
      </trkpt>
      <trkpt lat="42.82816" lon="0.45026">
        <ele>3030</ele>
        <time>2011-10-01T16:14:18.12</time>
      </trkpt>
      <trkpt lat="42.82825" lon="0.45033">
        <ele>3030</ele>
        <time>2011-10-01T16:14:19.17</time>
      </trkpt>
      <trkpt lat="42.82834" lon="0.45041">
        <ele>3031.5</ele>
        <time>2011-10-01T16:14:20.15</time>
      </trkpt>
      <trkpt lat="42.82842" lon="0.45048">
        <ele>3031.5</ele>
        <time>2011-10-01T16:14:21.14</time>
      </trkpt>
      <trkpt lat="42.82864" lon="0.45059">
        <ele>3031</ele>
        <time>2011-10-01T16:14:23.20</time>
      </trkpt>
      <trkpt lat="42.82874" lon="0.45063">
        <ele>3031</ele>
        <time>2011-10-01T16:14:24.15</time>
      </trkpt>
      <trkpt lat="42.82884" lon="0.45066">
        <ele>3032</ele>
        <time>2011-10-01T16:14:25.13</time>
      </trkpt>
      <trkpt lat="42.82895" lon="0.4507">
        <ele>3031</ele>
        <time>2011-10-01T16:14:26.14</time>
      </trkpt>
      <trkpt lat="42.82906" lon="0.45074">
        <ele>3029.5</ele>
        <time>2011-10-01T16:14:27.21</time>
      </trkpt>
      <trkpt lat="42.82917" lon="0.4508">
        <ele>3028.5</ele>
        <time>2011-10-01T16:14:28.14</time>
      </trkpt>
      <trkpt lat="42.82928" lon="0.45088">
        <ele>3028</ele>
        <time>2011-10-01T16:14:29.17</time>
      </trkpt>
      <trkpt lat="42.82938" lon="0.45095">
        <ele>3029</ele>
        <time>2011-10-01T16:14:30.15</time>
      </trkpt>
      <trkpt lat="42.82946" lon="0.45103">
        <ele>3030.5</ele>
        <time>2011-10-01T16:14:31.12</time>
      </trkpt>
      <trkpt lat="42.82953" lon="0.45111">
        <ele>3029.5</ele>
        <time>2011-10-01T16:14:32.11</time>
      </trkpt>
      <trkpt lat="42.82959" lon="0.45119">
        <ele>3030</ele>
        <time>2011-10-01T16:14:33.12</time>
      </trkpt>
      <trkpt lat="42.82991" lon="0.45149">
        <ele>3029.5</ele>
        <time>2011-10-01T16:14:36.11</time>
      </trkpt>
      <trkpt lat="42.82998" lon="0.45161">
        <ele>3031</ele>
        <time>2011-10-01T16:14:37.12</time>
      </trkpt>
      <trkpt lat="42.83005" lon="0.45172">
        <ele>3032</ele>
        <time>2011-10-01T16:14:38.12</time>
      </trkpt>
      <trkpt lat="42.83011" lon="0.45182">
        <ele>3032.5</ele>
        <time>2011-10-01T16:14:39.12</time>
      </trkpt>
      <trkpt lat="42.83016" lon="0.45193">
        <ele>3032</ele>
        <time>2011-10-01T16:14:40.12</time>
      </trkpt>
      <trkpt lat="42.83039" lon="0.45235">
        <ele>3029</ele>
        <time>2011-10-01T16:14:43.41</time>
      </trkpt>
      <trkpt lat="42.83058" lon="0.45259">
        <ele>3028</ele>
        <time>2011-10-01T16:14:45.12</time>
      </trkpt>
      <trkpt lat="42.8307" lon="0.45274">
        <ele>3029</ele>
        <time>2011-10-01T16:14:47.12</time>
      </trkpt>
      <trkpt lat="42.83102" lon="0.45295">
        <ele>3028</ele>
        <time>2011-10-01T16:14:50.11</time>
      </trkpt>
      <trkpt lat="42.83116" lon="0.45299">
        <ele>3027</ele>
        <time>2011-10-01T16:14:51.13</time>
      </trkpt>
      <trkpt lat="42.8313" lon="0.45304">
        <ele>3027</ele>
        <time>2011-10-01T16:14:52.12</time>
      </trkpt>
      <trkpt lat="42.83144" lon="0.45312">
        <ele>3026.5</ele>
        <time>2011-10-01T16:14:53.11</time>
      </trkpt>
      <trkpt lat="42.83156" lon="0.45319">
        <ele>3025.5</ele>
        <time>2011-10-01T16:14:54.12</time>
      </trkpt>
      <trkpt lat="42.83175" lon="0.45339">
        <ele>3023</ele>
        <time>2011-10-01T16:14:56.12</time>
      </trkpt>
      <trkpt lat="42.83184" lon="0.45352">
        <ele>3021</ele>
        <time>2011-10-01T16:14:57.20</time>
      </trkpt>
      <trkpt lat="42.83194" lon="0.45365">
        <ele>3019.5</ele>
        <time>2011-10-01T16:14:58.17</time>
      </trkpt>
      <trkpt lat="42.83204" lon="0.45378">
        <ele>3020</ele>
        <time>2011-10-01T16:14:59.13</time>
      </trkpt>
      <trkpt lat="42.83213" lon="0.45389">
        <ele>3020</ele>
        <time>2011-10-01T16:15:00.12</time>
      </trkpt>
      <trkpt lat="42.83223" lon="0.45399">
        <ele>3020</ele>
        <time>2011-10-01T16:15:01.13</time>
      </trkpt>
      <trkpt lat="42.83233" lon="0.45408">
        <ele>3018.5</ele>
        <time>2011-10-01T16:15:02.12</time>
      </trkpt>
      <trkpt lat="42.83243" lon="0.45418">
        <ele>3017</ele>
        <time>2011-10-01T16:15:03.13</time>
      </trkpt>
      <trkpt lat="42.83255" lon="0.45428">
        <ele>3015.5</ele>
        <time>2011-10-01T16:15:04.12</time>
      </trkpt>
      <trkpt lat="42.83266" lon="0.45437">
        <ele>3014.5</ele>
        <time>2011-10-01T16:15:05.13</time>
      </trkpt>
      <trkpt lat="42.83278" lon="0.45445">
        <ele>3013.5</ele>
        <time>2011-10-01T16:15:06.12</time>
      </trkpt>
      <trkpt lat="42.8329" lon="0.45452">
        <ele>3012.5</ele>
        <time>2011-10-01T16:15:07.12</time>
      </trkpt>
      <trkpt lat="42.83301" lon="0.45459">
        <ele>3011</ele>
        <time>2011-10-01T16:15:08.12</time>
      </trkpt>
      <trkpt lat="42.83312" lon="0.45465">
        <ele>3010</ele>
        <time>2011-10-01T16:15:09.12</time>
      </trkpt>
      <trkpt lat="42.83323" lon="0.45471">
        <ele>3008</ele>
        <time>2011-10-01T16:15:10.11</time>
      </trkpt>
      <trkpt lat="42.83334" lon="0.45476">
        <ele>3007.5</ele>
        <time>2011-10-01T16:15:11.13</time>
      </trkpt>
      <trkpt lat="42.83346" lon="0.45481">
        <ele>3007.5</ele>
        <time>2011-10-01T16:15:12.11</time>
      </trkpt>
      <trkpt lat="42.83358" lon="0.45485">
        <ele>3005.5</ele>
        <time>2011-10-01T16:15:13.12</time>
      </trkpt>
      <trkpt lat="42.8337" lon="0.45488">
        <ele>3004</ele>
        <time>2011-10-01T16:15:14.11</time>
      </trkpt>
      <trkpt lat="42.83382" lon="0.4549">
        <ele>3002</ele>
        <time>2011-10-01T16:15:15.12</time>
      </trkpt>
      <trkpt lat="42.83395" lon="0.45492">
        <ele>3000.5</ele>
        <time>2011-10-01T16:15:16.11</time>
      </trkpt>
      <trkpt lat="42.83407" lon="0.45494">
        <ele>2999</ele>
        <time>2011-10-01T16:15:17.12</time>
      </trkpt>
      <trkpt lat="42.83418" lon="0.45495">
        <ele>2997.5</ele>
        <time>2011-10-01T16:15:18.11</time>
      </trkpt>
      <trkpt lat="42.8343" lon="0.45494">
        <ele>2995.5</ele>
        <time>2011-10-01T16:15:19.13</time>
      </trkpt>
      <trkpt lat="42.83443" lon="0.45492">
        <ele>2994</ele>
        <time>2011-10-01T16:15:20.11</time>
      </trkpt>
      <trkpt lat="42.83455" lon="0.45487">
        <ele>2993.5</ele>
        <time>2011-10-01T16:15:21.13</time>
      </trkpt>
      <trkpt lat="42.83467" lon="0.45483">
        <ele>2992</ele>
        <time>2011-10-01T16:15:22.12</time>
      </trkpt>
      <trkpt lat="42.83479" lon="0.45478">
        <ele>2991.5</ele>
        <time>2011-10-01T16:15:23.13</time>
      </trkpt>
      <trkpt lat="42.83491" lon="0.45475">
        <ele>2991</ele>
        <time>2011-10-01T16:15:24.11</time>
      </trkpt>
      <trkpt lat="42.83503" lon="0.45473">
        <ele>2990</ele>
        <time>2011-10-01T16:15:25.12</time>
      </trkpt>
      <trkpt lat="42.83515" lon="0.45472">
        <ele>2988.5</ele>
        <time>2011-10-01T16:15:26.12</time>
      </trkpt>
      <trkpt lat="42.83527" lon="0.45472">
        <ele>2986</ele>
        <time>2011-10-01T16:15:27.13</time>
      </trkpt>
      <trkpt lat="42.8354" lon="0.45473">
        <ele>2985</ele>
        <time>2011-10-01T16:15:28.11</time>
      </trkpt>
      <trkpt lat="42.83552" lon="0.45474">
        <ele>2984</ele>
        <time>2011-10-01T16:15:29.12</time>
      </trkpt>
      <trkpt lat="42.83564" lon="0.45476">
        <ele>2982.5</ele>
        <time>2011-10-01T16:15:30.20</time>
      </trkpt>
      <trkpt lat="42.83576" lon="0.45479">
        <ele>2980.5</ele>
        <time>2011-10-01T16:15:31.14</time>
      </trkpt>
      <trkpt lat="42.83588" lon="0.45483">
        <ele>2980</ele>
        <time>2011-10-01T16:15:32.11</time>
      </trkpt>
      <trkpt lat="42.83601" lon="0.45488">
        <ele>2977.5</ele>
        <time>2011-10-01T16:15:33.13</time>
      </trkpt>
      <trkpt lat="42.83613" lon="0.45494">
        <ele>2977</ele>
        <time>2011-10-01T16:15:34.12</time>
      </trkpt>
      <trkpt lat="42.83625" lon="0.45501">
        <ele>2976.5</ele>
        <time>2011-10-01T16:15:35.14</time>
      </trkpt>
      <trkpt lat="42.83636" lon="0.45508">
        <ele>2975.5</ele>
        <time>2011-10-01T16:15:36.12</time>
      </trkpt>
      <trkpt lat="42.83647" lon="0.45516">
        <ele>2974</ele>
        <time>2011-10-01T16:15:37.13</time>
      </trkpt>
      <trkpt lat="42.83659" lon="0.45524">
        <ele>2971.5</ele>
        <time>2011-10-01T16:15:38.13</time>
      </trkpt>
      <trkpt lat="42.83671" lon="0.45532">
        <ele>2969.5</ele>
        <time>2011-10-01T16:15:39.14</time>
      </trkpt>
      <trkpt lat="42.83683" lon="0.4554">
        <ele>2967.5</ele>
        <time>2011-10-01T16:15:40.12</time>
      </trkpt>
      <trkpt lat="42.83696" lon="0.45548">
        <ele>2966.5</ele>
        <time>2011-10-01T16:15:41.14</time>
      </trkpt>
      <trkpt lat="42.83707" lon="0.45556">
        <ele>2968</ele>
        <time>2011-10-01T16:15:42.12</time>
      </trkpt>
      <trkpt lat="42.83718" lon="0.45563">
        <ele>2968.5</ele>
        <time>2011-10-01T16:15:43.13</time>
      </trkpt>
      <trkpt lat="42.83729" lon="0.45568">
        <ele>2967</ele>
        <time>2011-10-01T16:15:44.12</time>
      </trkpt>
      <trkpt lat="42.83739" lon="0.45572">
        <ele>2965</ele>
        <time>2011-10-01T16:15:45.13</time>
      </trkpt>
      <trkpt lat="42.8375" lon="0.45576">
        <ele>2963</ele>
        <time>2011-10-01T16:15:46.12</time>
      </trkpt>
      <trkpt lat="42.83763" lon="0.45578">
        <ele>2962.5</ele>
        <time>2011-10-01T16:15:47.13</time>
      </trkpt>
      <trkpt lat="42.83776" lon="0.4558">
        <ele>2961</ele>
        <time>2011-10-01T16:15:48.15</time>
      </trkpt>
      <trkpt lat="42.83788" lon="0.4558">
        <ele>2959.5</ele>
        <time>2011-10-01T16:15:49.13</time>
      </trkpt>
      <trkpt lat="42.838" lon="0.45579">
        <ele>2958.5</ele>
        <time>2011-10-01T16:15:50.12</time>
      </trkpt>
      <trkpt lat="42.83812" lon="0.45578">
        <ele>2956.5</ele>
        <time>2011-10-01T16:15:51.18</time>
      </trkpt>
      <trkpt lat="42.83824" lon="0.45576">
        <ele>2955</ele>
        <time>2011-10-01T16:15:52.14</time>
      </trkpt>
      <trkpt lat="42.83836" lon="0.45574">
        <ele>2953</ele>
        <time>2011-10-01T16:15:53.12</time>
      </trkpt>
      <trkpt lat="42.83848" lon="0.45571">
        <ele>2951.5</ele>
        <time>2011-10-01T16:15:54.19</time>
      </trkpt>
      <trkpt lat="42.83859" lon="0.45568">
        <ele>2950</ele>
        <time>2011-10-01T16:15:55.17</time>
      </trkpt>
      <trkpt lat="42.83871" lon="0.45565">
        <ele>2948</ele>
        <time>2011-10-01T16:15:56.12</time>
      </trkpt>
      <trkpt lat="42.83882" lon="0.4556">
        <ele>2946.5</ele>
        <time>2011-10-01T16:15:57.18</time>
      </trkpt>
      <trkpt lat="42.83894" lon="0.45556">
        <ele>2945.5</ele>
        <time>2011-10-01T16:15:58.12</time>
      </trkpt>
      <trkpt lat="42.83905" lon="0.45552">
        <ele>2945.5</ele>
        <time>2011-10-01T16:15:59.17</time>
      </trkpt>
      <trkpt lat="42.83916" lon="0.45548">
        <ele>2945</ele>
        <time>2011-10-01T16:16:00.12</time>
      </trkpt>
      <trkpt lat="42.83926" lon="0.45545">
        <ele>2944</ele>
        <time>2011-10-01T16:16:01.18</time>
      </trkpt>
      <trkpt lat="42.83937" lon="0.45543">
        <ele>2943.5</ele>
        <time>2011-10-01T16:16:02.18</time>
      </trkpt>
      <trkpt lat="42.8395" lon="0.45541">
        <ele>2943.5</ele>
        <time>2011-10-01T16:16:03.17</time>
      </trkpt>
      <trkpt lat="42.83962" lon="0.4554">
        <ele>2942</ele>
        <time>2011-10-01T16:16:04.15</time>
      </trkpt>
      <trkpt lat="42.83974" lon="0.4554">
        <ele>2941</ele>
        <time>2011-10-01T16:16:05.14</time>
      </trkpt>
      <trkpt lat="42.83986" lon="0.45541">
        <ele>2940.5</ele>
        <time>2011-10-01T16:16:06.12</time>
      </trkpt>
      <trkpt lat="42.83999" lon="0.45543">
        <ele>2941.5</ele>
        <time>2011-10-01T16:16:07.12</time>
      </trkpt>
      <trkpt lat="42.8401" lon="0.45545">
        <ele>2941</ele>
        <time>2011-10-01T16:16:08.12</time>
      </trkpt>
      <trkpt lat="42.84022" lon="0.45547">
        <ele>2940.5</ele>
        <time>2011-10-01T16:16:09.13</time>
      </trkpt>
      <trkpt lat="42.84034" lon="0.45551">
        <ele>2940.5</ele>
        <time>2011-10-01T16:16:10.19</time>
      </trkpt>
      <trkpt lat="42.84048" lon="0.45554">
        <ele>2940.5</ele>
        <time>2011-10-01T16:16:11.23</time>
      </trkpt>
      <trkpt lat="42.84062" lon="0.45556">
        <ele>2940</ele>
        <time>2011-10-01T16:16:12.12</time>
      </trkpt>
      <trkpt lat="42.84077" lon="0.45557">
        <ele>2939.5</ele>
        <time>2011-10-01T16:16:13.15</time>
      </trkpt>
      <trkpt lat="42.84101" lon="0.45555">
        <ele>2937.5</ele>
        <time>2011-10-01T16:16:15.13</time>
      </trkpt>
      <trkpt lat="42.84112" lon="0.45553">
        <ele>2936</ele>
        <time>2011-10-01T16:16:16.12</time>
      </trkpt>
      <trkpt lat="42.84124" lon="0.45549">
        <ele>2935</ele>
        <time>2011-10-01T16:16:17.17</time>
      </trkpt>
      <trkpt lat="42.84137" lon="0.45545">
        <ele>2933.5</ele>
        <time>2011-10-01T16:16:18.12</time>
      </trkpt>
      <trkpt lat="42.84159" lon="0.45535">
        <ele>2930.5</ele>
        <time>2011-10-01T16:16:20.13</time>
      </trkpt>
      <trkpt lat="42.8417" lon="0.45529">
        <ele>2928.5</ele>
        <time>2011-10-01T16:16:21.18</time>
      </trkpt>
      <trkpt lat="42.84181" lon="0.45525">
        <ele>2926.5</ele>
        <time>2011-10-01T16:16:22.12</time>
      </trkpt>
      <trkpt lat="42.84194" lon="0.45523">
        <ele>2925.5</ele>
        <time>2011-10-01T16:16:23.13</time>
      </trkpt>
      <trkpt lat="42.84207" lon="0.45525">
        <ele>2925</ele>
        <time>2011-10-01T16:16:24.13</time>
      </trkpt>
      <trkpt lat="42.84219" lon="0.45527">
        <ele>2922.5</ele>
        <time>2011-10-01T16:16:25.12</time>
      </trkpt>
      <trkpt lat="42.84232" lon="0.45531">
        <ele>2920.5</ele>
        <time>2011-10-01T16:16:26.14</time>
      </trkpt>
      <trkpt lat="42.84244" lon="0.45536">
        <ele>2918.5</ele>
        <time>2011-10-01T16:16:27.18</time>
      </trkpt>
      <trkpt lat="42.84256" lon="0.45543">
        <ele>2918</ele>
        <time>2011-10-01T16:16:28.12</time>
      </trkpt>
      <trkpt lat="42.84268" lon="0.4555">
        <ele>2916</ele>
        <time>2011-10-01T16:16:29.13</time>
      </trkpt>
      <trkpt lat="42.8428" lon="0.45556">
        <ele>2915</ele>
        <time>2011-10-01T16:16:30.12</time>
      </trkpt>
      <trkpt lat="42.84294" lon="0.4556">
        <ele>2915.5</ele>
        <time>2011-10-01T16:16:31.13</time>
      </trkpt>
      <trkpt lat="42.84307" lon="0.45561">
        <ele>2913</ele>
        <time>2011-10-01T16:16:32.12</time>
      </trkpt>
      <trkpt lat="42.8432" lon="0.45559">
        <ele>2912.5</ele>
        <time>2011-10-01T16:16:33.17</time>
      </trkpt>
      <trkpt lat="42.84334" lon="0.45551">
        <ele>2912</ele>
        <time>2011-10-01T16:16:34.13</time>
      </trkpt>
      <trkpt lat="42.84356" lon="0.45535">
        <ele>2910.5</ele>
        <time>2011-10-01T16:16:36.12</time>
      </trkpt>
      <trkpt lat="42.84365" lon="0.45527">
        <ele>2909.5</ele>
        <time>2011-10-01T16:16:37.20</time>
      </trkpt>
      <trkpt lat="42.84374" lon="0.45519">
        <ele>2908</ele>
        <time>2011-10-01T16:16:38.13</time>
      </trkpt>
      <trkpt lat="42.84383" lon="0.45511">
        <ele>2906</ele>
        <time>2011-10-01T16:16:39.17</time>
      </trkpt>
      <trkpt lat="42.84393" lon="0.45505">
        <ele>2904</ele>
        <time>2011-10-01T16:16:40.12</time>
      </trkpt>
      <trkpt lat="42.84403" lon="0.45498">
        <ele>2902</ele>
        <time>2011-10-01T16:16:41.12</time>
      </trkpt>
      <trkpt lat="42.84414" lon="0.45491">
        <ele>2900</ele>
        <time>2011-10-01T16:16:42.12</time>
      </trkpt>
      <trkpt lat="42.84425" lon="0.45485">
        <ele>2898.5</ele>
        <time>2011-10-01T16:16:43.12</time>
      </trkpt>
      <trkpt lat="42.84435" lon="0.45478">
        <ele>2898</ele>
        <time>2011-10-01T16:16:44.12</time>
      </trkpt>
      <trkpt lat="42.84444" lon="0.4547">
        <ele>2897</ele>
        <time>2011-10-01T16:16:45.13</time>
      </trkpt>
      <trkpt lat="42.84452" lon="0.45462">
        <ele>2895.5</ele>
        <time>2011-10-01T16:16:46.12</time>
      </trkpt>
      <trkpt lat="42.8446" lon="0.45454">
        <ele>2893</ele>
        <time>2011-10-01T16:16:47.16</time>
      </trkpt>
      <trkpt lat="42.84469" lon="0.45445">
        <ele>2891</ele>
        <time>2011-10-01T16:16:48.12</time>
      </trkpt>
      <trkpt lat="42.84478" lon="0.45434">
        <ele>2888.5</ele>
        <time>2011-10-01T16:16:49.12</time>
      </trkpt>
      <trkpt lat="42.84485" lon="0.45423">
        <ele>2886</ele>
        <time>2011-10-01T16:16:50.21</time>
      </trkpt>
      <trkpt lat="42.84493" lon="0.45411">
        <ele>2884.5</ele>
        <time>2011-10-01T16:16:51.18</time>
      </trkpt>
      <trkpt lat="42.84501" lon="0.45401">
        <ele>2883.5</ele>
        <time>2011-10-01T16:16:52.12</time>
      </trkpt>
      <trkpt lat="42.84509" lon="0.45391">
        <ele>2882.5</ele>
        <time>2011-10-01T16:16:53.18</time>
      </trkpt>
      <trkpt lat="42.84518" lon="0.45383">
        <ele>2881.5</ele>
        <time>2011-10-01T16:16:54.12</time>
      </trkpt>
      <trkpt lat="42.84528" lon="0.45375">
        <ele>2880</ele>
        <time>2011-10-01T16:16:55.13</time>
      </trkpt>
      <trkpt lat="42.84538" lon="0.45368">
        <ele>2878</ele>
        <time>2011-10-01T16:16:56.12</time>
      </trkpt>
      <trkpt lat="42.84549" lon="0.45363">
        <ele>2876</ele>
        <time>2011-10-01T16:16:57.13</time>
      </trkpt>
      <trkpt lat="42.8456" lon="0.45358">
        <ele>2874</ele>
        <time>2011-10-01T16:16:58.21</time>
      </trkpt>
      <trkpt lat="42.84572" lon="0.45353">
        <ele>2873</ele>
        <time>2011-10-01T16:16:59.20</time>
      </trkpt>
      <trkpt lat="42.84584" lon="0.45349">
        <ele>2871.5</ele>
        <time>2011-10-01T16:17:00.12</time>
      </trkpt>
      <trkpt lat="42.84596" lon="0.45345">
        <ele>2870.5</ele>
        <time>2011-10-01T16:17:01.18</time>
      </trkpt>
      <trkpt lat="42.84607" lon="0.4534">
        <ele>2869.5</ele>
        <time>2011-10-01T16:17:02.12</time>
      </trkpt>
      <trkpt lat="42.84618" lon="0.45336">
        <ele>2868.5</ele>
        <time>2011-10-01T16:17:03.13</time>
      </trkpt>
      <trkpt lat="42.84629" lon="0.45331">
        <ele>2866.5</ele>
        <time>2011-10-01T16:17:04.13</time>
      </trkpt>
      <trkpt lat="42.84641" lon="0.45325">
        <ele>2865.5</ele>
        <time>2011-10-01T16:17:05.21</time>
      </trkpt>
      <trkpt lat="42.84653" lon="0.45319">
        <ele>2865</ele>
        <time>2011-10-01T16:17:06.12</time>
      </trkpt>
      <trkpt lat="42.84664" lon="0.45312">
        <ele>2864.5</ele>
        <time>2011-10-01T16:17:07.13</time>
      </trkpt>
      <trkpt lat="42.84675" lon="0.45305">
        <ele>2865</ele>
        <time>2011-10-01T16:17:08.11</time>
      </trkpt>
      <trkpt lat="42.84685" lon="0.45299">
        <ele>2865.5</ele>
        <time>2011-10-01T16:17:09.12</time>
      </trkpt>
      <trkpt lat="42.84695" lon="0.45293">
        <ele>2865</ele>
        <time>2011-10-01T16:17:10.11</time>
      </trkpt>
      <trkpt lat="42.84706" lon="0.45287">
        <ele>2864</ele>
        <time>2011-10-01T16:17:11.12</time>
      </trkpt>
      <trkpt lat="42.84716" lon="0.45282">
        <ele>2863</ele>
        <time>2011-10-01T16:17:12.11</time>
      </trkpt>
      <trkpt lat="42.84727" lon="0.45276">
        <ele>2861</ele>
        <time>2011-10-01T16:17:13.12</time>
      </trkpt>
      <trkpt lat="42.84739" lon="0.45271">
        <ele>2859.5</ele>
        <time>2011-10-01T16:17:14.11</time>
      </trkpt>
      <trkpt lat="42.8475" lon="0.45265">
        <ele>2858.5</ele>
        <time>2011-10-01T16:17:15.12</time>
      </trkpt>
      <trkpt lat="42.84762" lon="0.4526">
        <ele>2858</ele>
        <time>2011-10-01T16:17:16.11</time>
      </trkpt>
      <trkpt lat="42.84774" lon="0.45256">
        <ele>2857</ele>
        <time>2011-10-01T16:17:17.11</time>
      </trkpt>
      <trkpt lat="42.84785" lon="0.45252">
        <ele>2855.5</ele>
        <time>2011-10-01T16:17:18.11</time>
      </trkpt>
      <trkpt lat="42.84797" lon="0.45249">
        <ele>2854</ele>
        <time>2011-10-01T16:17:19.12</time>
      </trkpt>
      <trkpt lat="42.84811" lon="0.45246">
        <ele>2853.5</ele>
        <time>2011-10-01T16:17:20.11</time>
      </trkpt>
      <trkpt lat="42.84823" lon="0.45243">
        <ele>2853.5</ele>
        <time>2011-10-01T16:17:21.12</time>
      </trkpt>
      <trkpt lat="42.8485" lon="0.45231">
        <ele>2854.5</ele>
        <time>2011-10-01T16:17:24.11</time>
      </trkpt>
      <trkpt lat="42.84861" lon="0.45228">
        <ele>2854</ele>
        <time>2011-10-01T16:17:25.14</time>
      </trkpt>
      <trkpt lat="42.84872" lon="0.45224">
        <ele>2855</ele>
        <time>2011-10-01T16:17:26.11</time>
      </trkpt>
      <trkpt lat="42.84884" lon="0.45222">
        <ele>2856</ele>
        <time>2011-10-01T16:17:27.12</time>
      </trkpt>
      <trkpt lat="42.84897" lon="0.4522">
        <ele>2858</ele>
        <time>2011-10-01T16:17:28.11</time>
      </trkpt>
      <trkpt lat="42.84909" lon="0.45218">
        <ele>2859.5</ele>
        <time>2011-10-01T16:17:29.12</time>
      </trkpt>
      <trkpt lat="42.84921" lon="0.45215">
        <ele>2861.5</ele>
        <time>2011-10-01T16:17:30.13</time>
      </trkpt>
      <trkpt lat="42.84934" lon="0.45212">
        <ele>2861.5</ele>
        <time>2011-10-01T16:17:31.15</time>
      </trkpt>
      <trkpt lat="42.84944" lon="0.45208">
        <ele>2862</ele>
        <time>2011-10-01T16:17:32.14</time>
      </trkpt>
      <trkpt lat="42.84955" lon="0.45203">
        <ele>2862</ele>
        <time>2011-10-01T16:17:33.13</time>
      </trkpt>
      <trkpt lat="42.84967" lon="0.45196">
        <ele>2862.5</ele>
        <time>2011-10-01T16:17:34.12</time>
      </trkpt>
      <trkpt lat="42.84978" lon="0.45189">
        <ele>2864</ele>
        <time>2011-10-01T16:17:35.13</time>
      </trkpt>
      <trkpt lat="42.84989" lon="0.45179">
        <ele>2866</ele>
        <time>2011-10-01T16:17:36.12</time>
      </trkpt>
      <trkpt lat="42.84999" lon="0.45169">
        <ele>2866.5</ele>
        <time>2011-10-01T16:17:37.13</time>
      </trkpt>
      <trkpt lat="42.85008" lon="0.4516">
        <ele>2866.5</ele>
        <time>2011-10-01T16:17:38.13</time>
      </trkpt>
      <trkpt lat="42.85017" lon="0.4515">
        <ele>2868</ele>
        <time>2011-10-01T16:17:39.13</time>
      </trkpt>
      <trkpt lat="42.85025" lon="0.45143">
        <ele>2868</ele>
        <time>2011-10-01T16:17:40.13</time>
      </trkpt>
      <trkpt lat="42.85033" lon="0.45136">
        <ele>2869</ele>
        <time>2011-10-01T16:17:41.13</time>
      </trkpt>
      <trkpt lat="42.85043" lon="0.45129">
        <ele>2870</ele>
        <time>2011-10-01T16:17:42.12</time>
      </trkpt>
      <trkpt lat="42.85054" lon="0.45122">
        <ele>2870.5</ele>
        <time>2011-10-01T16:17:43.13</time>
      </trkpt>
      <trkpt lat="42.85065" lon="0.45115">
        <ele>2872</ele>
        <time>2011-10-01T16:17:44.12</time>
      </trkpt>
      <trkpt lat="42.85075" lon="0.45109">
        <ele>2874</ele>
        <time>2011-10-01T16:17:45.13</time>
      </trkpt>
      <trkpt lat="42.85085" lon="0.45104">
        <ele>2875.5</ele>
        <time>2011-10-01T16:17:46.12</time>
      </trkpt>
      <trkpt lat="42.85095" lon="0.45098">
        <ele>2875.5</ele>
        <time>2011-10-01T16:17:47.14</time>
      </trkpt>
      <trkpt lat="42.85105" lon="0.4509">
        <ele>2875</ele>
        <time>2011-10-01T16:17:48.12</time>
      </trkpt>
      <trkpt lat="42.85116" lon="0.45082">
        <ele>2874.5</ele>
        <time>2011-10-01T16:17:49.12</time>
      </trkpt>
      <trkpt lat="42.85127" lon="0.45073">
        <ele>2875</ele>
        <time>2011-10-01T16:17:50.12</time>
      </trkpt>
      <trkpt lat="42.85137" lon="0.45064">
        <ele>2875.5</ele>
        <time>2011-10-01T16:17:51.13</time>
      </trkpt>
      <trkpt lat="42.85148" lon="0.45057">
        <ele>2876.5</ele>
        <time>2011-10-01T16:17:52.12</time>
      </trkpt>
      <trkpt lat="42.85158" lon="0.45049">
        <ele>2877</ele>
        <time>2011-10-01T16:17:53.15</time>
      </trkpt>
      <trkpt lat="42.85168" lon="0.45043">
        <ele>2876.5</ele>
        <time>2011-10-01T16:17:54.11</time>
      </trkpt>
      <trkpt lat="42.85179" lon="0.45037">
        <ele>2875.5</ele>
        <time>2011-10-01T16:17:55.13</time>
      </trkpt>
      <trkpt lat="42.85191" lon="0.45032">
        <ele>2874.5</ele>
        <time>2011-10-01T16:17:56.13</time>
      </trkpt>
      <trkpt lat="42.85204" lon="0.45028">
        <ele>2874.5</ele>
        <time>2011-10-01T16:17:57.13</time>
      </trkpt>
      <trkpt lat="42.85216" lon="0.45025">
        <ele>2875</ele>
        <time>2011-10-01T16:17:58.12</time>
      </trkpt>
      <trkpt lat="42.85229" lon="0.45023">
        <ele>2876.5</ele>
        <time>2011-10-01T16:17:59.13</time>
      </trkpt>
      <trkpt lat="42.85241" lon="0.45021">
        <ele>2876.5</ele>
        <time>2011-10-01T16:18:00.12</time>
      </trkpt>
      <trkpt lat="42.85254" lon="0.4502">
        <ele>2876.5</ele>
        <time>2011-10-01T16:18:01.13</time>
      </trkpt>
      <trkpt lat="42.85266" lon="0.45021">
        <ele>2877.5</ele>
        <time>2011-10-01T16:18:02.17</time>
      </trkpt>
      <trkpt lat="42.8528" lon="0.45022">
        <ele>2879.5</ele>
        <time>2011-10-01T16:18:03.13</time>
      </trkpt>
      <trkpt lat="42.85292" lon="0.45024">
        <ele>2882</ele>
        <time>2011-10-01T16:18:04.12</time>
      </trkpt>
      <trkpt lat="42.85305" lon="0.45025">
        <ele>2883.5</ele>
        <time>2011-10-01T16:18:05.13</time>
      </trkpt>
      <trkpt lat="42.85318" lon="0.45026">
        <ele>2886.5</ele>
        <time>2011-10-01T16:18:06.12</time>
      </trkpt>
      <trkpt lat="42.8533" lon="0.45027">
        <ele>2887.5</ele>
        <time>2011-10-01T16:18:07.13</time>
      </trkpt>
      <trkpt lat="42.85341" lon="0.45026">
        <ele>2886</ele>
        <time>2011-10-01T16:18:08.12</time>
      </trkpt>
      <trkpt lat="42.85365" lon="0.45008">
        <ele>2886</ele>
        <time>2011-10-01T16:18:10.12</time>
      </trkpt>
      <trkpt lat="42.85377" lon="0.44997">
        <ele>2886.5</ele>
        <time>2011-10-01T16:18:11.20</time>
      </trkpt>
      <trkpt lat="42.85388" lon="0.44987">
        <ele>2887</ele>
        <time>2011-10-01T16:18:12.18</time>
      </trkpt>
      <trkpt lat="42.85411" lon="0.44964">
        <ele>2889</ele>
        <time>2011-10-01T16:18:15.13</time>
      </trkpt>
      <trkpt lat="42.85432" lon="0.44946">
        <ele>2888</ele>
        <time>2011-10-01T16:18:17.12</time>
      </trkpt>
      <trkpt lat="42.85441" lon="0.44936">
        <ele>2888.5</ele>
        <time>2011-10-01T16:18:18.12</time>
      </trkpt>
      <trkpt lat="42.85447" lon="0.44925">
        <ele>2889</ele>
        <time>2011-10-01T16:18:19.14</time>
      </trkpt>
      <trkpt lat="42.85452" lon="0.44912">
        <ele>2887.5</ele>
        <time>2011-10-01T16:18:20.18</time>
      </trkpt>
      <trkpt lat="42.85457" lon="0.44899">
        <ele>2887</ele>
        <time>2011-10-01T16:18:21.14</time>
      </trkpt>
      <trkpt lat="42.85462" lon="0.44885">
        <ele>2887.5</ele>
        <time>2011-10-01T16:18:22.12</time>
      </trkpt>
      <trkpt lat="42.85467" lon="0.44872">
        <ele>2888.5</ele>
        <time>2011-10-01T16:18:23.14</time>
      </trkpt>
      <trkpt lat="42.85471" lon="0.44859">
        <ele>2889</ele>
        <time>2011-10-01T16:18:24.12</time>
      </trkpt>
      <trkpt lat="42.85476" lon="0.44846">
        <ele>2889.5</ele>
        <time>2011-10-01T16:18:25.13</time>
      </trkpt>
      <trkpt lat="42.85481" lon="0.44833">
        <ele>2889.5</ele>
        <time>2011-10-01T16:18:26.12</time>
      </trkpt>
      <trkpt lat="42.85487" lon="0.4482">
        <ele>2890</ele>
        <time>2011-10-01T16:18:27.13</time>
      </trkpt>
      <trkpt lat="42.85493" lon="0.44807">
        <ele>2891.5</ele>
        <time>2011-10-01T16:18:28.11</time>
      </trkpt>
      <trkpt lat="42.85499" lon="0.44794">
        <ele>2893</ele>
        <time>2011-10-01T16:18:29.14</time>
      </trkpt>
      <trkpt lat="42.85505" lon="0.44782">
        <ele>2894.5</ele>
        <time>2011-10-01T16:18:30.12</time>
      </trkpt>
      <trkpt lat="42.8551" lon="0.44769">
        <ele>2895</ele>
        <time>2011-10-01T16:18:31.14</time>
      </trkpt>
      <trkpt lat="42.85515" lon="0.44754">
        <ele>2894.5</ele>
        <time>2011-10-01T16:18:32.12</time>
      </trkpt>
      <trkpt lat="42.85521" lon="0.4474">
        <ele>2895.5</ele>
        <time>2011-10-01T16:18:33.20</time>
      </trkpt>
      <trkpt lat="42.85528" lon="0.44729">
        <ele>2897.5</ele>
        <time>2011-10-01T16:18:34.12</time>
      </trkpt>
      <trkpt lat="42.85534" lon="0.44717">
        <ele>2899</ele>
        <time>2011-10-01T16:18:35.13</time>
      </trkpt>
      <trkpt lat="42.85541" lon="0.44706">
        <ele>2899.5</ele>
        <time>2011-10-01T16:18:36.12</time>
      </trkpt>
      <trkpt lat="42.85548" lon="0.44694">
        <ele>2898.5</ele>
        <time>2011-10-01T16:18:37.12</time>
      </trkpt>
      <trkpt lat="42.85555" lon="0.44681">
        <ele>2897</ele>
        <time>2011-10-01T16:18:38.13</time>
      </trkpt>
      <trkpt lat="42.85563" lon="0.44668">
        <ele>2896.5</ele>
        <time>2011-10-01T16:18:39.14</time>
      </trkpt>
      <trkpt lat="42.85571" lon="0.44653">
        <ele>2897</ele>
        <time>2011-10-01T16:18:40.12</time>
      </trkpt>
      <trkpt lat="42.85579" lon="0.4464">
        <ele>2899</ele>
        <time>2011-10-01T16:18:41.14</time>
      </trkpt>
      <trkpt lat="42.85586" lon="0.44627">
        <ele>2900.5</ele>
        <time>2011-10-01T16:18:42.12</time>
      </trkpt>
      <trkpt lat="42.85593" lon="0.44615">
        <ele>2901.5</ele>
        <time>2011-10-01T16:18:43.14</time>
      </trkpt>
      <trkpt lat="42.856" lon="0.44603">
        <ele>2902</ele>
        <time>2011-10-01T16:18:44.12</time>
      </trkpt>
      <trkpt lat="42.85607" lon="0.44591">
        <ele>2901.5</ele>
        <time>2011-10-01T16:18:45.14</time>
      </trkpt>
      <trkpt lat="42.85614" lon="0.44577">
        <ele>2901.5</ele>
        <time>2011-10-01T16:18:46.12</time>
      </trkpt>
      <trkpt lat="42.8562" lon="0.44563">
        <ele>2902.5</ele>
        <time>2011-10-01T16:18:47.24</time>
      </trkpt>
      <trkpt lat="42.85626" lon="0.44549">
        <ele>2903.5</ele>
        <time>2011-10-01T16:18:48.13</time>
      </trkpt>
      <trkpt lat="42.85631" lon="0.44536">
        <ele>2905</ele>
        <time>2011-10-01T16:18:49.12</time>
      </trkpt>
      <trkpt lat="42.85636" lon="0.44523">
        <ele>2905.5</ele>
        <time>2011-10-01T16:18:50.13</time>
      </trkpt>
      <trkpt lat="42.85641" lon="0.44509">
        <ele>2905</ele>
        <time>2011-10-01T16:18:51.14</time>
      </trkpt>
      <trkpt lat="42.85646" lon="0.44495">
        <ele>2904.5</ele>
        <time>2011-10-01T16:18:52.12</time>
      </trkpt>
      <trkpt lat="42.85651" lon="0.4448">
        <ele>2904.5</ele>
        <time>2011-10-01T16:18:53.13</time>
      </trkpt>
      <trkpt lat="42.85655" lon="0.44465">
        <ele>2905</ele>
        <time>2011-10-01T16:18:54.12</time>
      </trkpt>
      <trkpt lat="42.8566" lon="0.4445">
        <ele>2905.5</ele>
        <time>2011-10-01T16:18:55.13</time>
      </trkpt>
      <trkpt lat="42.85665" lon="0.44436">
        <ele>2906.5</ele>
        <time>2011-10-01T16:18:56.13</time>
      </trkpt>
      <trkpt lat="42.85669" lon="0.44422">
        <ele>2906</ele>
        <time>2011-10-01T16:18:57.13</time>
      </trkpt>
      <trkpt lat="42.85675" lon="0.44407">
        <ele>2906</ele>
        <time>2011-10-01T16:18:58.12</time>
      </trkpt>
      <trkpt lat="42.8568" lon="0.44393">
        <ele>2905.5</ele>
        <time>2011-10-01T16:18:59.13</time>
      </trkpt>
      <trkpt lat="42.85686" lon="0.44379">
        <ele>2905.5</ele>
        <time>2011-10-01T16:19:00.13</time>
      </trkpt>
      <trkpt lat="42.85691" lon="0.44364">
        <ele>2906.5</ele>
        <time>2011-10-01T16:19:01.13</time>
      </trkpt>
      <trkpt lat="42.85696" lon="0.4435">
        <ele>2906.5</ele>
        <time>2011-10-01T16:19:02.12</time>
      </trkpt>
      <trkpt lat="42.85702" lon="0.44336">
        <ele>2906.5</ele>
        <time>2011-10-01T16:19:03.13</time>
      </trkpt>
      <trkpt lat="42.85707" lon="0.44321">
        <ele>2906</ele>
        <time>2011-10-01T16:19:04.12</time>
      </trkpt>
      <trkpt lat="42.85712" lon="0.44306">
        <ele>2906</ele>
        <time>2011-10-01T16:19:05.13</time>
      </trkpt>
      <trkpt lat="42.85716" lon="0.44292">
        <ele>2907</ele>
        <time>2011-10-01T16:19:06.12</time>
      </trkpt>
      <trkpt lat="42.85721" lon="0.44279">
        <ele>2907</ele>
        <time>2011-10-01T16:19:07.13</time>
      </trkpt>
      <trkpt lat="42.85726" lon="0.44267">
        <ele>2906.5</ele>
        <time>2011-10-01T16:19:08.12</time>
      </trkpt>
      <trkpt lat="42.85732" lon="0.44255">
        <ele>2906</ele>
        <time>2011-10-01T16:19:09.13</time>
      </trkpt>
      <trkpt lat="42.85737" lon="0.44243">
        <ele>2905</ele>
        <time>2011-10-01T16:19:10.12</time>
      </trkpt>
      <trkpt lat="42.85744" lon="0.44231">
        <ele>2904.5</ele>
        <time>2011-10-01T16:19:11.14</time>
      </trkpt>
      <trkpt lat="42.85751" lon="0.44219">
        <ele>2904</ele>
        <time>2011-10-01T16:19:12.12</time>
      </trkpt>
      <trkpt lat="42.85758" lon="0.44207">
        <ele>2904.5</ele>
        <time>2011-10-01T16:19:13.13</time>
      </trkpt>
      <trkpt lat="42.85766" lon="0.44196">
        <ele>2905</ele>
        <time>2011-10-01T16:19:14.12</time>
      </trkpt>
      <trkpt lat="42.85775" lon="0.44186">
        <ele>2905.5</ele>
        <time>2011-10-01T16:19:15.13</time>
      </trkpt>
      <trkpt lat="42.85784" lon="0.44177">
        <ele>2905</ele>
        <time>2011-10-01T16:19:16.13</time>
      </trkpt>
      <trkpt lat="42.85793" lon="0.44167">
        <ele>2905</ele>
        <time>2011-10-01T16:19:17.13</time>
      </trkpt>
      <trkpt lat="42.85802" lon="0.44155">
        <ele>2904.5</ele>
        <time>2011-10-01T16:19:18.12</time>
      </trkpt>
      <trkpt lat="42.85812" lon="0.44143">
        <ele>2903.5</ele>
        <time>2011-10-01T16:19:19.13</time>
      </trkpt>
      <trkpt lat="42.85821" lon="0.4413">
        <ele>2903.5</ele>
        <time>2011-10-01T16:19:20.17</time>
      </trkpt>
      <trkpt lat="42.8583" lon="0.44117">
        <ele>2904.5</ele>
        <time>2011-10-01T16:19:21.13</time>
      </trkpt>
      <trkpt lat="42.85837" lon="0.44106">
        <ele>2905</ele>
        <time>2011-10-01T16:19:22.13</time>
      </trkpt>
      <trkpt lat="42.85844" lon="0.44094">
        <ele>2904</ele>
        <time>2011-10-01T16:19:23.13</time>
      </trkpt>
      <trkpt lat="42.8585" lon="0.44081">
        <ele>2902</ele>
        <time>2011-10-01T16:19:24.12</time>
      </trkpt>
      <trkpt lat="42.85857" lon="0.44067">
        <ele>2900.5</ele>
        <time>2011-10-01T16:19:25.13</time>
      </trkpt>
      <trkpt lat="42.85862" lon="0.44053">
        <ele>2899.5</ele>
        <time>2011-10-01T16:19:26.12</time>
      </trkpt>
      <trkpt lat="42.85868" lon="0.4404">
        <ele>2898.5</ele>
        <time>2011-10-01T16:19:27.13</time>
      </trkpt>
      <trkpt lat="42.85874" lon="0.44026">
        <ele>2897.5</ele>
        <time>2011-10-01T16:19:28.12</time>
      </trkpt>
      <trkpt lat="42.85878" lon="0.44012">
        <ele>2897</ele>
        <time>2011-10-01T16:19:29.13</time>
      </trkpt>
      <trkpt lat="42.85882" lon="0.43996">
        <ele>2897</ele>
        <time>2011-10-01T16:19:30.13</time>
      </trkpt>
      <trkpt lat="42.85884" lon="0.43979">
        <ele>2897</ele>
        <time>2011-10-01T16:19:31.14</time>
      </trkpt>
      <trkpt lat="42.85883" lon="0.43962">
        <ele>2896.5</ele>
        <time>2011-10-01T16:19:32.15</time>
      </trkpt>
      <trkpt lat="42.85881" lon="0.43945">
        <ele>2895.5</ele>
        <time>2011-10-01T16:19:33.13</time>
      </trkpt>
      <trkpt lat="42.85877" lon="0.4393">
        <ele>2895</ele>
        <time>2011-10-01T16:19:34.12</time>
      </trkpt>
      <trkpt lat="42.85872" lon="0.43915">
        <ele>2893.5</ele>
        <time>2011-10-01T16:19:35.13</time>
      </trkpt>
      <trkpt lat="42.85867" lon="0.43901">
        <ele>2891.5</ele>
        <time>2011-10-01T16:19:36.13</time>
      </trkpt>
      <trkpt lat="42.85862" lon="0.43887">
        <ele>2889</ele>
        <time>2011-10-01T16:19:37.13</time>
      </trkpt>
      <trkpt lat="42.85858" lon="0.43872">
        <ele>2889</ele>
        <time>2011-10-01T16:19:38.13</time>
      </trkpt>
      <trkpt lat="42.85855" lon="0.43856">
        <ele>2889</ele>
        <time>2011-10-01T16:19:39.13</time>
      </trkpt>
      <trkpt lat="42.85853" lon="0.43841">
        <ele>2887</ele>
        <time>2011-10-01T16:19:40.12</time>
      </trkpt>
      <trkpt lat="42.85852" lon="0.43825">
        <ele>2885.5</ele>
        <time>2011-10-01T16:19:41.13</time>
      </trkpt>
      <trkpt lat="42.85852" lon="0.4381">
        <ele>2883.5</ele>
        <time>2011-10-01T16:19:42.13</time>
      </trkpt>
      <trkpt lat="42.85852" lon="0.43795">
        <ele>2883</ele>
        <time>2011-10-01T16:19:43.13</time>
      </trkpt>
      <trkpt lat="42.85851" lon="0.4378">
        <ele>2882.5</ele>
        <time>2011-10-01T16:19:44.12</time>
      </trkpt>
      <trkpt lat="42.85851" lon="0.43764">
        <ele>2882</ele>
        <time>2011-10-01T16:19:45.13</time>
      </trkpt>
      <trkpt lat="42.8585" lon="0.43747">
        <ele>2882</ele>
        <time>2011-10-01T16:19:46.12</time>
      </trkpt>
      <trkpt lat="42.85851" lon="0.43731">
        <ele>2881.5</ele>
        <time>2011-10-01T16:19:47.13</time>
      </trkpt>
      <trkpt lat="42.85853" lon="0.43715">
        <ele>2880</ele>
        <time>2011-10-01T16:19:48.12</time>
      </trkpt>
      <trkpt lat="42.85859" lon="0.437">
        <ele>2879.5</ele>
        <time>2011-10-01T16:19:49.12</time>
      </trkpt>
      <trkpt lat="42.85866" lon="0.43687">
        <ele>2877</ele>
        <time>2011-10-01T16:19:50.12</time>
      </trkpt>
      <trkpt lat="42.85875" lon="0.43678">
        <ele>2876.5</ele>
        <time>2011-10-01T16:19:51.14</time>
      </trkpt>
      <trkpt lat="42.85888" lon="0.43672">
        <ele>2876</ele>
        <time>2011-10-01T16:19:52.13</time>
      </trkpt>
      <trkpt lat="42.85902" lon="0.43668">
        <ele>2874</ele>
        <time>2011-10-01T16:19:53.13</time>
      </trkpt>
      <trkpt lat="42.85915" lon="0.43669">
        <ele>2873</ele>
        <time>2011-10-01T16:19:54.12</time>
      </trkpt>
      <trkpt lat="42.85928" lon="0.43673">
        <ele>2872.5</ele>
        <time>2011-10-01T16:19:55.14</time>
      </trkpt>
      <trkpt lat="42.8594" lon="0.4368">
        <ele>2871.5</ele>
        <time>2011-10-01T16:19:56.12</time>
      </trkpt>
      <trkpt lat="42.85952" lon="0.4369">
        <ele>2870.5</ele>
        <time>2011-10-01T16:19:57.13</time>
      </trkpt>
      <trkpt lat="42.85961" lon="0.43702">
        <ele>2869.5</ele>
        <time>2011-10-01T16:19:58.12</time>
      </trkpt>
      <trkpt lat="42.85968" lon="0.43716">
        <ele>2867</ele>
        <time>2011-10-01T16:19:59.14</time>
      </trkpt>
      <trkpt lat="42.8597" lon="0.43733">
        <ele>2863.5</ele>
        <time>2011-10-01T16:20:00.12</time>
      </trkpt>
      <trkpt lat="42.8597" lon="0.4375">
        <ele>2861.5</ele>
        <time>2011-10-01T16:20:01.13</time>
      </trkpt>
      <trkpt lat="42.85968" lon="0.43766">
        <ele>2859.5</ele>
        <time>2011-10-01T16:20:02.12</time>
      </trkpt>
      <trkpt lat="42.85963" lon="0.43781">
        <ele>2857</ele>
        <time>2011-10-01T16:20:03.15</time>
      </trkpt>
      <trkpt lat="42.85957" lon="0.43796">
        <ele>2855.5</ele>
        <time>2011-10-01T16:20:04.12</time>
      </trkpt>
      <trkpt lat="42.85951" lon="0.4381">
        <ele>2854</ele>
        <time>2011-10-01T16:20:05.13</time>
      </trkpt>
      <trkpt lat="42.85944" lon="0.43823">
        <ele>2853</ele>
        <time>2011-10-01T16:20:06.26</time>
      </trkpt>
      <trkpt lat="42.85936" lon="0.43835">
        <ele>2851</ele>
        <time>2011-10-01T16:20:07.14</time>
      </trkpt>
      <trkpt lat="42.85928" lon="0.43848">
        <ele>2849</ele>
        <time>2011-10-01T16:20:08.12</time>
      </trkpt>
      <trkpt lat="42.85921" lon="0.43861">
        <ele>2846.5</ele>
        <time>2011-10-01T16:20:09.14</time>
      </trkpt>
      <trkpt lat="42.85914" lon="0.43874">
        <ele>2845</ele>
        <time>2011-10-01T16:20:10.12</time>
      </trkpt>
      <trkpt lat="42.85908" lon="0.43889">
        <ele>2843</ele>
        <time>2011-10-01T16:20:11.15</time>
      </trkpt>
      <trkpt lat="42.85903" lon="0.43904">
        <ele>2840.5</ele>
        <time>2011-10-01T16:20:12.12</time>
      </trkpt>
      <trkpt lat="42.859" lon="0.43921">
        <ele>2839.5</ele>
        <time>2011-10-01T16:20:13.14</time>
      </trkpt>
      <trkpt lat="42.85898" lon="0.43939">
        <ele>2838</ele>
        <time>2011-10-01T16:20:14.12</time>
      </trkpt>
      <trkpt lat="42.85898" lon="0.43958">
        <ele>2836</ele>
        <time>2011-10-01T16:20:15.13</time>
      </trkpt>
      <trkpt lat="42.85899" lon="0.43976">
        <ele>2837.5</ele>
        <time>2011-10-01T16:20:16.12</time>
      </trkpt>
      <trkpt lat="42.859" lon="0.43992">
        <ele>2836</ele>
        <time>2011-10-01T16:20:17.14</time>
      </trkpt>
      <trkpt lat="42.85902" lon="0.44008">
        <ele>2833.5</ele>
        <time>2011-10-01T16:20:18.12</time>
      </trkpt>
      <trkpt lat="42.85904" lon="0.44024">
        <ele>2830.5</ele>
        <time>2011-10-01T16:20:19.13</time>
      </trkpt>
      <trkpt lat="42.85906" lon="0.4404">
        <ele>2828.5</ele>
        <time>2011-10-01T16:20:20.12</time>
      </trkpt>
      <trkpt lat="42.85907" lon="0.44057">
        <ele>2826.5</ele>
        <time>2011-10-01T16:20:21.14</time>
      </trkpt>
      <trkpt lat="42.85907" lon="0.44075">
        <ele>2825</ele>
        <time>2011-10-01T16:20:22.12</time>
      </trkpt>
      <trkpt lat="42.85906" lon="0.44091">
        <ele>2823.5</ele>
        <time>2011-10-01T16:20:23.13</time>
      </trkpt>
      <trkpt lat="42.85905" lon="0.44108">
        <ele>2821.5</ele>
        <time>2011-10-01T16:20:24.12</time>
      </trkpt>
      <trkpt lat="42.85903" lon="0.44123">
        <ele>2821</ele>
        <time>2011-10-01T16:20:25.13</time>
      </trkpt>
      <trkpt lat="42.85899" lon="0.44139">
        <ele>2820.5</ele>
        <time>2011-10-01T16:20:26.12</time>
      </trkpt>
      <trkpt lat="42.85896" lon="0.44153">
        <ele>2819.5</ele>
        <time>2011-10-01T16:20:27.13</time>
      </trkpt>
      <trkpt lat="42.85892" lon="0.44167">
        <ele>2817.5</ele>
        <time>2011-10-01T16:20:28.12</time>
      </trkpt>
      <trkpt lat="42.85887" lon="0.44181">
        <ele>2817</ele>
        <time>2011-10-01T16:20:29.13</time>
      </trkpt>
      <trkpt lat="42.8588" lon="0.44194">
        <ele>2817</ele>
        <time>2011-10-01T16:20:30.12</time>
      </trkpt>
      <trkpt lat="42.85872" lon="0.44205">
        <ele>2817.5</ele>
        <time>2011-10-01T16:20:31.13</time>
      </trkpt>
      <trkpt lat="42.85864" lon="0.44214">
        <ele>2817.5</ele>
        <time>2011-10-01T16:20:32.12</time>
      </trkpt>
      <trkpt lat="42.85853" lon="0.4422">
        <ele>2818</ele>
        <time>2011-10-01T16:20:33.14</time>
      </trkpt>
      <trkpt lat="42.85841" lon="0.44225">
        <ele>2816.5</ele>
        <time>2011-10-01T16:20:34.11</time>
      </trkpt>
      <trkpt lat="42.85828" lon="0.44228">
        <ele>2816</ele>
        <time>2011-10-01T16:20:35.13</time>
      </trkpt>
      <trkpt lat="42.85815" lon="0.44234">
        <ele>2814</ele>
        <time>2011-10-01T16:20:36.11</time>
      </trkpt>
      <trkpt lat="42.85801" lon="0.44241">
        <ele>2816</ele>
        <time>2011-10-01T16:20:37.13</time>
      </trkpt>
      <trkpt lat="42.85791" lon="0.44251">
        <ele>2816</ele>
        <time>2011-10-01T16:20:38.12</time>
      </trkpt>
      <trkpt lat="42.85783" lon="0.44262">
        <ele>2817.5</ele>
        <time>2011-10-01T16:20:39.12</time>
      </trkpt>
      <trkpt lat="42.85777" lon="0.44275">
        <ele>2815.5</ele>
        <time>2011-10-01T16:20:40.13</time>
      </trkpt>
      <trkpt lat="42.85771" lon="0.44288">
        <ele>2814</ele>
        <time>2011-10-01T16:20:41.12</time>
      </trkpt>
      <trkpt lat="42.85765" lon="0.44304">
        <ele>2813</ele>
        <time>2011-10-01T16:20:42.11</time>
      </trkpt>
      <trkpt lat="42.85761" lon="0.44321">
        <ele>2812</ele>
        <time>2011-10-01T16:20:43.12</time>
      </trkpt>
      <trkpt lat="42.8576" lon="0.4434">
        <ele>2811.5</ele>
        <time>2011-10-01T16:20:44.12</time>
      </trkpt>
      <trkpt lat="42.85759" lon="0.44358">
        <ele>2811.5</ele>
        <time>2011-10-01T16:20:45.12</time>
      </trkpt>
      <trkpt lat="42.85759" lon="0.44376">
        <ele>2811</ele>
        <time>2011-10-01T16:20:46.11</time>
      </trkpt>
      <trkpt lat="42.85756" lon="0.44393">
        <ele>2810.5</ele>
        <time>2011-10-01T16:20:47.13</time>
      </trkpt>
      <trkpt lat="42.85753" lon="0.4441">
        <ele>2810</ele>
        <time>2011-10-01T16:20:48.11</time>
      </trkpt>
      <trkpt lat="42.85749" lon="0.44428">
        <ele>2809.5</ele>
        <time>2011-10-01T16:20:49.12</time>
      </trkpt>
      <trkpt lat="42.85745" lon="0.44445">
        <ele>2809</ele>
        <time>2011-10-01T16:20:50.12</time>
      </trkpt>
      <trkpt lat="42.8574" lon="0.44462">
        <ele>2808</ele>
        <time>2011-10-01T16:20:51.13</time>
      </trkpt>
      <trkpt lat="42.85732" lon="0.44478">
        <ele>2807</ele>
        <time>2011-10-01T16:20:52.12</time>
      </trkpt>
      <trkpt lat="42.85723" lon="0.44492">
        <ele>2806.5</ele>
        <time>2011-10-01T16:20:53.13</time>
      </trkpt>
      <trkpt lat="42.85711" lon="0.44502">
        <ele>2807</ele>
        <time>2011-10-01T16:20:54.12</time>
      </trkpt>
      <trkpt lat="42.85697" lon="0.44508">
        <ele>2807</ele>
        <time>2011-10-01T16:20:55.13</time>
      </trkpt>
      <trkpt lat="42.85684" lon="0.44509">
        <ele>2809</ele>
        <time>2011-10-01T16:20:56.12</time>
      </trkpt>
      <trkpt lat="42.85671" lon="0.44504">
        <ele>2808</ele>
        <time>2011-10-01T16:20:57.13</time>
      </trkpt>
      <trkpt lat="42.85658" lon="0.44496">
        <ele>2810</ele>
        <time>2011-10-01T16:20:58.12</time>
      </trkpt>
      <trkpt lat="42.85644" lon="0.44469">
        <ele>2810.5</ele>
        <time>2011-10-01T16:21:00.13</time>
      </trkpt>
      <trkpt lat="42.85644" lon="0.44452">
        <ele>2811</ele>
        <time>2011-10-01T16:21:01.14</time>
      </trkpt>
      <trkpt lat="42.85647" lon="0.44436">
        <ele>2812</ele>
        <time>2011-10-01T16:21:02.12</time>
      </trkpt>
      <trkpt lat="42.85651" lon="0.44421">
        <ele>2812</ele>
        <time>2011-10-01T16:21:03.14</time>
      </trkpt>
      <trkpt lat="42.85656" lon="0.44408">
        <ele>2812</ele>
        <time>2011-10-01T16:21:04.12</time>
      </trkpt>
      <trkpt lat="42.85663" lon="0.44395">
        <ele>2812.5</ele>
        <time>2011-10-01T16:21:05.14</time>
      </trkpt>
      <trkpt lat="42.8567" lon="0.44383">
        <ele>2812.5</ele>
        <time>2011-10-01T16:21:06.12</time>
      </trkpt>
      <trkpt lat="42.85678" lon="0.44373">
        <ele>2813</ele>
        <time>2011-10-01T16:21:07.14</time>
      </trkpt>
      <trkpt lat="42.85686" lon="0.44362">
        <ele>2813.5</ele>
        <time>2011-10-01T16:21:08.12</time>
      </trkpt>
      <trkpt lat="42.85695" lon="0.44352">
        <ele>2814</ele>
        <time>2011-10-01T16:21:09.14</time>
      </trkpt>
      <trkpt lat="42.85704" lon="0.44342">
        <ele>2815</ele>
        <time>2011-10-01T16:21:10.15</time>
      </trkpt>
      <trkpt lat="42.85712" lon="0.44331">
        <ele>2816</ele>
        <time>2011-10-01T16:21:11.20</time>
      </trkpt>
      <trkpt lat="42.8572" lon="0.4432">
        <ele>2816</ele>
        <time>2011-10-01T16:21:12.12</time>
      </trkpt>
      <trkpt lat="42.85727" lon="0.44307">
        <ele>2816</ele>
        <time>2011-10-01T16:21:13.14</time>
      </trkpt>
      <trkpt lat="42.85733" lon="0.44293">
        <ele>2816.5</ele>
        <time>2011-10-01T16:21:14.12</time>
      </trkpt>
      <trkpt lat="42.85735" lon="0.44278">
        <ele>2816.5</ele>
        <time>2011-10-01T16:21:15.14</time>
      </trkpt>
      <trkpt lat="42.85738" lon="0.44263">
        <ele>2818</ele>
        <time>2011-10-01T16:21:16.12</time>
      </trkpt>
      <trkpt lat="42.85739" lon="0.44249">
        <ele>2819.5</ele>
        <time>2011-10-01T16:21:17.14</time>
      </trkpt>
      <trkpt lat="42.8574" lon="0.44234">
        <ele>2820</ele>
        <time>2011-10-01T16:21:18.12</time>
      </trkpt>
      <trkpt lat="42.8574" lon="0.44219">
        <ele>2820.5</ele>
        <time>2011-10-01T16:21:19.17</time>
      </trkpt>
      <trkpt lat="42.85739" lon="0.44204">
        <ele>2820</ele>
        <time>2011-10-01T16:21:20.12</time>
      </trkpt>
      <trkpt lat="42.85738" lon="0.44188">
        <ele>2820.5</ele>
        <time>2011-10-01T16:21:21.14</time>
      </trkpt>
      <trkpt lat="42.85737" lon="0.44172">
        <ele>2821</ele>
        <time>2011-10-01T16:21:22.12</time>
      </trkpt>
      <trkpt lat="42.85737" lon="0.44157">
        <ele>2822</ele>
        <time>2011-10-01T16:21:23.14</time>
      </trkpt>
      <trkpt lat="42.85738" lon="0.44141">
        <ele>2822.5</ele>
        <time>2011-10-01T16:21:24.13</time>
      </trkpt>
      <trkpt lat="42.8574" lon="0.44125">
        <ele>2822.5</ele>
        <time>2011-10-01T16:21:25.15</time>
      </trkpt>
      <trkpt lat="42.85743" lon="0.4411">
        <ele>2822.5</ele>
        <time>2011-10-01T16:21:26.12</time>
      </trkpt>
      <trkpt lat="42.85747" lon="0.44094">
        <ele>2823</ele>
        <time>2011-10-01T16:21:27.15</time>
      </trkpt>
      <trkpt lat="42.85751" lon="0.44079">
        <ele>2824</ele>
        <time>2011-10-01T16:21:28.11</time>
      </trkpt>
      <trkpt lat="42.85755" lon="0.44065">
        <ele>2824.5</ele>
        <time>2011-10-01T16:21:29.13</time>
      </trkpt>
      <trkpt lat="42.85759" lon="0.44052">
        <ele>2824</ele>
        <time>2011-10-01T16:21:30.12</time>
      </trkpt>
      <trkpt lat="42.85762" lon="0.44037">
        <ele>2823</ele>
        <time>2011-10-01T16:21:31.13</time>
      </trkpt>
      <trkpt lat="42.85765" lon="0.44022">
        <ele>2821.5</ele>
        <time>2011-10-01T16:21:32.12</time>
      </trkpt>
      <trkpt lat="42.85768" lon="0.44006">
        <ele>2821</ele>
        <time>2011-10-01T16:21:33.13</time>
      </trkpt>
      <trkpt lat="42.8577" lon="0.4399">
        <ele>2821</ele>
        <time>2011-10-01T16:21:34.12</time>
      </trkpt>
      <trkpt lat="42.85771" lon="0.43974">
        <ele>2822</ele>
        <time>2011-10-01T16:21:35.13</time>
      </trkpt>
      <trkpt lat="42.85773" lon="0.43959">
        <ele>2823.5</ele>
        <time>2011-10-01T16:21:36.11</time>
      </trkpt>
      <trkpt lat="42.85776" lon="0.43944">
        <ele>2824.5</ele>
        <time>2011-10-01T16:21:37.12</time>
      </trkpt>
      <trkpt lat="42.85779" lon="0.43932">
        <ele>2824</ele>
        <time>2011-10-01T16:21:38.13</time>
      </trkpt>
      <trkpt lat="42.85784" lon="0.43919">
        <ele>2824</ele>
        <time>2011-10-01T16:21:39.13</time>
      </trkpt>
      <trkpt lat="42.8579" lon="0.43906">
        <ele>2823.5</ele>
        <time>2011-10-01T16:21:40.12</time>
      </trkpt>
      <trkpt lat="42.85796" lon="0.43892">
        <ele>2821.5</ele>
        <time>2011-10-01T16:21:41.13</time>
      </trkpt>
      <trkpt lat="42.85801" lon="0.43878">
        <ele>2820</ele>
        <time>2011-10-01T16:21:42.12</time>
      </trkpt>
      <trkpt lat="42.85806" lon="0.43865">
        <ele>2818.5</ele>
        <time>2011-10-01T16:21:43.13</time>
      </trkpt>
      <trkpt lat="42.85812" lon="0.43853">
        <ele>2816.5</ele>
        <time>2011-10-01T16:21:44.12</time>
      </trkpt>
      <trkpt lat="42.85819" lon="0.43841">
        <ele>2816.5</ele>
        <time>2011-10-01T16:21:45.12</time>
      </trkpt>
      <trkpt lat="42.85828" lon="0.43829">
        <ele>2814.5</ele>
        <time>2011-10-01T16:21:46.12</time>
      </trkpt>
      <trkpt lat="42.85837" lon="0.43819">
        <ele>2814</ele>
        <time>2011-10-01T16:21:47.13</time>
      </trkpt>
      <trkpt lat="42.85849" lon="0.43811">
        <ele>2814</ele>
        <time>2011-10-01T16:21:48.13</time>
      </trkpt>
      <trkpt lat="42.85863" lon="0.43806">
        <ele>2813.5</ele>
        <time>2011-10-01T16:21:49.13</time>
      </trkpt>
      <trkpt lat="42.85887" lon="0.43812">
        <ele>2810</ele>
        <time>2011-10-01T16:21:51.13</time>
      </trkpt>
      <trkpt lat="42.85911" lon="0.43832">
        <ele>2808.5</ele>
        <time>2011-10-01T16:21:53.13</time>
      </trkpt>
      <trkpt lat="42.85918" lon="0.43846">
        <ele>2807</ele>
        <time>2011-10-01T16:21:54.19</time>
      </trkpt>
      <trkpt lat="42.85921" lon="0.43864">
        <ele>2805</ele>
        <time>2011-10-01T16:21:55.13</time>
      </trkpt>
      <trkpt lat="42.85918" lon="0.43881">
        <ele>2804.5</ele>
        <time>2011-10-01T16:21:56.12</time>
      </trkpt>
      <trkpt lat="42.85915" lon="0.43911">
        <ele>2804.5</ele>
        <time>2011-10-01T16:21:58.12</time>
      </trkpt>
      <trkpt lat="42.85914" lon="0.43926">
        <ele>2804</ele>
        <time>2011-10-01T16:21:59.13</time>
      </trkpt>
      <trkpt lat="42.85913" lon="0.43942">
        <ele>2802.5</ele>
        <time>2011-10-01T16:22:00.12</time>
      </trkpt>
      <trkpt lat="42.85912" lon="0.43959">
        <ele>2800</ele>
        <time>2011-10-01T16:22:01.13</time>
      </trkpt>
      <trkpt lat="42.85914" lon="0.43977">
        <ele>2798.5</ele>
        <time>2011-10-01T16:22:02.12</time>
      </trkpt>
      <trkpt lat="42.85918" lon="0.43993">
        <ele>2798</ele>
        <time>2011-10-01T16:22:03.13</time>
      </trkpt>
      <trkpt lat="42.8592" lon="0.44009">
        <ele>2797</ele>
        <time>2011-10-01T16:22:04.12</time>
      </trkpt>
      <trkpt lat="42.85923" lon="0.44024">
        <ele>2795</ele>
        <time>2011-10-01T16:22:05.13</time>
      </trkpt>
      <trkpt lat="42.85926" lon="0.44041">
        <ele>2793</ele>
        <time>2011-10-01T16:22:06.13</time>
      </trkpt>
      <trkpt lat="42.85928" lon="0.44059">
        <ele>2793</ele>
        <time>2011-10-01T16:22:07.14</time>
      </trkpt>
      <trkpt lat="42.85928" lon="0.44095">
        <ele>2795.5</ele>
        <time>2011-10-01T16:22:09.20</time>
      </trkpt>
      <trkpt lat="42.85926" lon="0.44112">
        <ele>2797</ele>
        <time>2011-10-01T16:22:10.17</time>
      </trkpt>
      <trkpt lat="42.85922" lon="0.44129">
        <ele>2798.5</ele>
        <time>2011-10-01T16:22:11.14</time>
      </trkpt>
      <trkpt lat="42.85918" lon="0.44145">
        <ele>2798</ele>
        <time>2011-10-01T16:22:12.17</time>
      </trkpt>
      <trkpt lat="42.85912" lon="0.44159">
        <ele>2798</ele>
        <time>2011-10-01T16:22:13.20</time>
      </trkpt>
      <trkpt lat="42.85905" lon="0.44172">
        <ele>2797</ele>
        <time>2011-10-01T16:22:14.20</time>
      </trkpt>
      <trkpt lat="42.85897" lon="0.44186">
        <ele>2795</ele>
        <time>2011-10-01T16:22:15.21</time>
      </trkpt>
      <trkpt lat="42.85889" lon="0.44201">
        <ele>2794</ele>
        <time>2011-10-01T16:22:16.14</time>
      </trkpt>
      <trkpt lat="42.8588" lon="0.44215">
        <ele>2795</ele>
        <time>2011-10-01T16:22:17.12</time>
      </trkpt>
      <trkpt lat="42.8587" lon="0.44229">
        <ele>2796.5</ele>
        <time>2011-10-01T16:22:18.19</time>
      </trkpt>
      <trkpt lat="42.8586" lon="0.44243">
        <ele>2796.5</ele>
        <time>2011-10-01T16:22:19.13</time>
      </trkpt>
      <trkpt lat="42.85851" lon="0.44257">
        <ele>2797</ele>
        <time>2011-10-01T16:22:20.19</time>
      </trkpt>
      <trkpt lat="42.85843" lon="0.44273">
        <ele>2795</ele>
        <time>2011-10-01T16:22:21.20</time>
      </trkpt>
      <trkpt lat="42.85836" lon="0.4429">
        <ele>2794.5</ele>
        <time>2011-10-01T16:22:22.12</time>
      </trkpt>
      <trkpt lat="42.85828" lon="0.44307">
        <ele>2794.5</ele>
        <time>2011-10-01T16:22:23.13</time>
      </trkpt>
      <trkpt lat="42.8582" lon="0.4432">
        <ele>2796</ele>
        <time>2011-10-01T16:22:24.18</time>
      </trkpt>
      <trkpt lat="42.8581" lon="0.44332">
        <ele>2796.5</ele>
        <time>2011-10-01T16:22:25.16</time>
      </trkpt>
      <trkpt lat="42.85802" lon="0.44343">
        <ele>2796.5</ele>
        <time>2011-10-01T16:22:26.12</time>
      </trkpt>
      <trkpt lat="42.85794" lon="0.44355">
        <ele>2798.5</ele>
        <time>2011-10-01T16:22:27.17</time>
      </trkpt>
      <trkpt lat="42.85787" lon="0.44367">
        <ele>2799.5</ele>
        <time>2011-10-01T16:22:28.18</time>
      </trkpt>
      <trkpt lat="42.85779" lon="0.44381">
        <ele>2800</ele>
        <time>2011-10-01T16:22:29.13</time>
      </trkpt>
      <trkpt lat="42.85772" lon="0.44395">
        <ele>2800.5</ele>
        <time>2011-10-01T16:22:30.15</time>
      </trkpt>
      <trkpt lat="42.85766" lon="0.44411">
        <ele>2800.5</ele>
        <time>2011-10-01T16:22:31.13</time>
      </trkpt>
      <trkpt lat="42.8576" lon="0.44428">
        <ele>2800.5</ele>
        <time>2011-10-01T16:22:32.12</time>
      </trkpt>
      <trkpt lat="42.85755" lon="0.44444">
        <ele>2801.5</ele>
        <time>2011-10-01T16:22:33.13</time>
      </trkpt>
      <trkpt lat="42.8575" lon="0.44461">
        <ele>2803</ele>
        <time>2011-10-01T16:22:34.12</time>
      </trkpt>
      <trkpt lat="42.85744" lon="0.44477">
        <ele>2803.5</ele>
        <time>2011-10-01T16:22:35.13</time>
      </trkpt>
      <trkpt lat="42.85739" lon="0.44493">
        <ele>2804.5</ele>
        <time>2011-10-01T16:22:36.15</time>
      </trkpt>
      <trkpt lat="42.85734" lon="0.44509">
        <ele>2805</ele>
        <time>2011-10-01T16:22:37.13</time>
      </trkpt>
      <trkpt lat="42.85728" lon="0.44524">
        <ele>2805.5</ele>
        <time>2011-10-01T16:22:38.14</time>
      </trkpt>
      <trkpt lat="42.85722" lon="0.4454">
        <ele>2805.5</ele>
        <time>2011-10-01T16:22:39.14</time>
      </trkpt>
      <trkpt lat="42.85716" lon="0.44557">
        <ele>2806</ele>
        <time>2011-10-01T16:22:40.27</time>
      </trkpt>
      <trkpt lat="42.8571" lon="0.44573">
        <ele>2807.5</ele>
        <time>2011-10-01T16:22:41.13</time>
      </trkpt>
      <trkpt lat="42.85704" lon="0.44589">
        <ele>2807.5</ele>
        <time>2011-10-01T16:22:42.14</time>
      </trkpt>
      <trkpt lat="42.85698" lon="0.44604">
        <ele>2807.5</ele>
        <time>2011-10-01T16:22:43.21</time>
      </trkpt>
      <trkpt lat="42.85692" lon="0.44619">
        <ele>2808</ele>
        <time>2011-10-01T16:22:44.15</time>
      </trkpt>
      <trkpt lat="42.85687" lon="0.44634">
        <ele>2808</ele>
        <time>2011-10-01T16:22:45.21</time>
      </trkpt>
      <trkpt lat="42.85683" lon="0.44649">
        <ele>2809.5</ele>
        <time>2011-10-01T16:22:46.18</time>
      </trkpt>
      <trkpt lat="42.85679" lon="0.44665">
        <ele>2810</ele>
        <time>2011-10-01T16:22:47.14</time>
      </trkpt>
      <trkpt lat="42.85676" lon="0.44682">
        <ele>2811</ele>
        <time>2011-10-01T16:22:48.14</time>
      </trkpt>
      <trkpt lat="42.85673" lon="0.44699">
        <ele>2809.5</ele>
        <time>2011-10-01T16:22:49.12</time>
      </trkpt>
      <trkpt lat="42.85668" lon="0.44718">
        <ele>2808.5</ele>
        <time>2011-10-01T16:22:50.19</time>
      </trkpt>
      <trkpt lat="42.85662" lon="0.44736">
        <ele>2809</ele>
        <time>2011-10-01T16:22:51.14</time>
      </trkpt>
      <trkpt lat="42.85655" lon="0.44752">
        <ele>2810</ele>
        <time>2011-10-01T16:22:52.19</time>
      </trkpt>
      <trkpt lat="42.85646" lon="0.44766">
        <ele>2810</ele>
        <time>2011-10-01T16:22:53.14</time>
      </trkpt>
      <trkpt lat="42.85635" lon="0.44777">
        <ele>2809.5</ele>
        <time>2011-10-01T16:22:54.18</time>
      </trkpt>
      <trkpt lat="42.85623" lon="0.44785">
        <ele>2809</ele>
        <time>2011-10-01T16:22:55.21</time>
      </trkpt>
      <trkpt lat="42.85611" lon="0.44786">
        <ele>2809.5</ele>
        <time>2011-10-01T16:22:56.13</time>
      </trkpt>
      <trkpt lat="42.856" lon="0.44789">
        <ele>2809.5</ele>
        <time>2011-10-01T16:22:57.16</time>
      </trkpt>
      <trkpt lat="42.8559" lon="0.44781">
        <ele>2810</ele>
        <time>2011-10-01T16:22:58.20</time>
      </trkpt>
      <trkpt lat="42.85584" lon="0.44769">
        <ele>2810</ele>
        <time>2011-10-01T16:22:59.13</time>
      </trkpt>
      <trkpt lat="42.85577" lon="0.44757">
        <ele>2809</ele>
        <time>2011-10-01T16:23:00.19</time>
      </trkpt>
      <trkpt lat="42.85574" lon="0.44744">
        <ele>2811</ele>
        <time>2011-10-01T16:23:01.21</time>
      </trkpt>
      <trkpt lat="42.85572" lon="0.4473">
        <ele>2811.5</ele>
        <time>2011-10-01T16:23:02.14</time>
      </trkpt>
      <trkpt lat="42.8557" lon="0.44716">
        <ele>2812.5</ele>
        <time>2011-10-01T16:23:03.21</time>
      </trkpt>
      <trkpt lat="42.85568" lon="0.44703">
        <ele>2813.5</ele>
        <time>2011-10-01T16:23:04.18</time>
      </trkpt>
      <trkpt lat="42.85568" lon="0.44689">
        <ele>2814</ele>
        <time>2011-10-01T16:23:05.22</time>
      </trkpt>
      <trkpt lat="42.8557" lon="0.44676">
        <ele>2814.5</ele>
        <time>2011-10-01T16:23:06.18</time>
      </trkpt>
      <trkpt lat="42.85572" lon="0.44663">
        <ele>2814.5</ele>
        <time>2011-10-01T16:23:07.22</time>
      </trkpt>
      <trkpt lat="42.85576" lon="0.44649">
        <ele>2814</ele>
        <time>2011-10-01T16:23:08.19</time>
      </trkpt>
      <trkpt lat="42.85582" lon="0.44635">
        <ele>2814</ele>
        <time>2011-10-01T16:23:09.19</time>
      </trkpt>
      <trkpt lat="42.8559" lon="0.44625">
        <ele>2814.5</ele>
        <time>2011-10-01T16:23:10.18</time>
      </trkpt>
      <trkpt lat="42.856" lon="0.44618">
        <ele>2814.5</ele>
        <time>2011-10-01T16:23:11.13</time>
      </trkpt>
      <trkpt lat="42.85609" lon="0.4461">
        <ele>2815.5</ele>
        <time>2011-10-01T16:23:12.18</time>
      </trkpt>
      <trkpt lat="42.8562" lon="0.44603">
        <ele>2817</ele>
        <time>2011-10-01T16:23:13.13</time>
      </trkpt>
      <trkpt lat="42.85632" lon="0.44597">
        <ele>2817.5</ele>
        <time>2011-10-01T16:23:14.19</time>
      </trkpt>
      <trkpt lat="42.85643" lon="0.44591">
        <ele>2817.5</ele>
        <time>2011-10-01T16:23:15.22</time>
      </trkpt>
      <trkpt lat="42.85654" lon="0.44586">
        <ele>2817.5</ele>
        <time>2011-10-01T16:23:16.14</time>
      </trkpt>
      <trkpt lat="42.85664" lon="0.44581">
        <ele>2818</ele>
        <time>2011-10-01T16:23:17.14</time>
      </trkpt>
      <trkpt lat="42.85674" lon="0.44575">
        <ele>2818.5</ele>
        <time>2011-10-01T16:23:18.19</time>
      </trkpt>
      <trkpt lat="42.85684" lon="0.4457">
        <ele>2819</ele>
        <time>2011-10-01T16:23:19.17</time>
      </trkpt>
      <trkpt lat="42.85693" lon="0.44564">
        <ele>2821</ele>
        <time>2011-10-01T16:23:20.17</time>
      </trkpt>
      <trkpt lat="42.85704" lon="0.44558">
        <ele>2823</ele>
        <time>2011-10-01T16:23:21.20</time>
      </trkpt>
      <trkpt lat="42.85714" lon="0.44551">
        <ele>2824</ele>
        <time>2011-10-01T16:23:22.12</time>
      </trkpt>
      <trkpt lat="42.85725" lon="0.44545">
        <ele>2825</ele>
        <time>2011-10-01T16:23:23.19</time>
      </trkpt>
      <trkpt lat="42.85735" lon="0.4454">
        <ele>2825.5</ele>
        <time>2011-10-01T16:23:24.15</time>
      </trkpt>
      <trkpt lat="42.85745" lon="0.44536">
        <ele>2826</ele>
        <time>2011-10-01T16:23:25.13</time>
      </trkpt>
      <trkpt lat="42.85756" lon="0.44532">
        <ele>2825.5</ele>
        <time>2011-10-01T16:23:26.17</time>
      </trkpt>
      <trkpt lat="42.85766" lon="0.44527">
        <ele>2825</ele>
        <time>2011-10-01T16:23:27.19</time>
      </trkpt>
      <trkpt lat="42.85776" lon="0.44521">
        <ele>2824</ele>
        <time>2011-10-01T16:23:28.12</time>
      </trkpt>
      <trkpt lat="42.85785" lon="0.44513">
        <ele>2823</ele>
        <time>2011-10-01T16:23:29.13</time>
      </trkpt>
      <trkpt lat="42.85795" lon="0.44503">
        <ele>2822</ele>
        <time>2011-10-01T16:23:30.12</time>
      </trkpt>
      <trkpt lat="42.85804" lon="0.44492">
        <ele>2823</ele>
        <time>2011-10-01T16:23:31.14</time>
      </trkpt>
      <trkpt lat="42.85812" lon="0.44482">
        <ele>2824</ele>
        <time>2011-10-01T16:23:32.14</time>
      </trkpt>
      <trkpt lat="42.85819" lon="0.44473">
        <ele>2824.5</ele>
        <time>2011-10-01T16:23:33.19</time>
      </trkpt>
      <trkpt lat="42.85826" lon="0.44461">
        <ele>2825.5</ele>
        <time>2011-10-01T16:23:34.11</time>
      </trkpt>
      <trkpt lat="42.85832" lon="0.44448">
        <ele>2824.5</ele>
        <time>2011-10-01T16:23:35.18</time>
      </trkpt>
      <trkpt lat="42.85839" lon="0.44434">
        <ele>2823.5</ele>
        <time>2011-10-01T16:23:36.12</time>
      </trkpt>
      <trkpt lat="42.85844" lon="0.44418">
        <ele>2822</ele>
        <time>2011-10-01T16:23:37.13</time>
      </trkpt>
      <trkpt lat="42.85845" lon="0.44401">
        <ele>2821.5</ele>
        <time>2011-10-01T16:23:38.13</time>
      </trkpt>
      <trkpt lat="42.85843" lon="0.44385">
        <ele>2822</ele>
        <time>2011-10-01T16:23:39.14</time>
      </trkpt>
      <trkpt lat="42.85837" lon="0.44371">
        <ele>2822</ele>
        <time>2011-10-01T16:23:40.18</time>
      </trkpt>
      <trkpt lat="42.85828" lon="0.44361">
        <ele>2822</ele>
        <time>2011-10-01T16:23:41.13</time>
      </trkpt>
      <trkpt lat="42.85817" lon="0.44354">
        <ele>2821.5</ele>
        <time>2011-10-01T16:23:42.21</time>
      </trkpt>
      <trkpt lat="42.85791" lon="0.44364">
        <ele>2821</ele>
        <time>2011-10-01T16:23:44.21</time>
      </trkpt>
      <trkpt lat="42.85782" lon="0.44375">
        <ele>2822.5</ele>
        <time>2011-10-01T16:23:45.18</time>
      </trkpt>
      <trkpt lat="42.85775" lon="0.4439">
        <ele>2822.5</ele>
        <time>2011-10-01T16:23:46.13</time>
      </trkpt>
      <trkpt lat="42.8577" lon="0.44405">
        <ele>2824</ele>
        <time>2011-10-01T16:23:47.13</time>
      </trkpt>
      <trkpt lat="42.85765" lon="0.4442">
        <ele>2825.5</ele>
        <time>2011-10-01T16:23:48.15</time>
      </trkpt>
      <trkpt lat="42.85759" lon="0.44436">
        <ele>2825.5</ele>
        <time>2011-10-01T16:23:49.12</time>
      </trkpt>
      <trkpt lat="42.85754" lon="0.44452">
        <ele>2825.5</ele>
        <time>2011-10-01T16:23:50.12</time>
      </trkpt>
      <trkpt lat="42.85747" lon="0.44469">
        <ele>2826</ele>
        <time>2011-10-01T16:23:51.16</time>
      </trkpt>
      <trkpt lat="42.85741" lon="0.44485">
        <ele>2828</ele>
        <time>2011-10-01T16:23:52.12</time>
      </trkpt>
      <trkpt lat="42.85735" lon="0.44501">
        <ele>2829.5</ele>
        <time>2011-10-01T16:23:53.17</time>
      </trkpt>
      <trkpt lat="42.85729" lon="0.44517">
        <ele>2830</ele>
        <time>2011-10-01T16:23:54.12</time>
      </trkpt>
      <trkpt lat="42.85724" lon="0.44534">
        <ele>2829.5</ele>
        <time>2011-10-01T16:23:55.17</time>
      </trkpt>
      <trkpt lat="42.85717" lon="0.44551">
        <ele>2829.5</ele>
        <time>2011-10-01T16:23:56.15</time>
      </trkpt>
      <trkpt lat="42.85709" lon="0.44567">
        <ele>2830</ele>
        <time>2011-10-01T16:23:57.17</time>
      </trkpt>
      <trkpt lat="42.85701" lon="0.44584">
        <ele>2830</ele>
        <time>2011-10-01T16:23:58.16</time>
      </trkpt>
      <trkpt lat="42.85693" lon="0.44602">
        <ele>2830.5</ele>
        <time>2011-10-01T16:23:59.14</time>
      </trkpt>
      <trkpt lat="42.85684" lon="0.44619">
        <ele>2832.5</ele>
        <time>2011-10-01T16:24:00.16</time>
      </trkpt>
      <trkpt lat="42.85675" lon="0.44635">
        <ele>2833</ele>
        <time>2011-10-01T16:24:01.18</time>
      </trkpt>
      <trkpt lat="42.85666" lon="0.44649">
        <ele>2833</ele>
        <time>2011-10-01T16:24:02.12</time>
      </trkpt>
      <trkpt lat="42.85648" lon="0.44671">
        <ele>2835</ele>
        <time>2011-10-01T16:24:04.12</time>
      </trkpt>
      <trkpt lat="42.85639" lon="0.44682">
        <ele>2835</ele>
        <time>2011-10-01T16:24:05.20</time>
      </trkpt>
      <trkpt lat="42.85629" lon="0.44693">
        <ele>2834</ele>
        <time>2011-10-01T16:24:06.12</time>
      </trkpt>
      <trkpt lat="42.85619" lon="0.44706">
        <ele>2833</ele>
        <time>2011-10-01T16:24:07.14</time>
      </trkpt>
      <trkpt lat="42.85599" lon="0.44737">
        <ele>2835.5</ele>
        <time>2011-10-01T16:24:09.18</time>
      </trkpt>
      <trkpt lat="42.85591" lon="0.44754">
        <ele>2837</ele>
        <time>2011-10-01T16:24:10.19</time>
      </trkpt>
      <trkpt lat="42.85583" lon="0.44771">
        <ele>2839</ele>
        <time>2011-10-01T16:24:11.21</time>
      </trkpt>
      <trkpt lat="42.85577" lon="0.44788">
        <ele>2839.5</ele>
        <time>2011-10-01T16:24:12.18</time>
      </trkpt>
      <trkpt lat="42.85572" lon="0.44806">
        <ele>2840</ele>
        <time>2011-10-01T16:24:13.14</time>
      </trkpt>
      <trkpt lat="42.85566" lon="0.44825">
        <ele>2840</ele>
        <time>2011-10-01T16:24:14.12</time>
      </trkpt>
      <trkpt lat="42.85561" lon="0.44845">
        <ele>2840</ele>
        <time>2011-10-01T16:24:15.23</time>
      </trkpt>
      <trkpt lat="42.85557" lon="0.44865">
        <ele>2843.5</ele>
        <time>2011-10-01T16:24:16.12</time>
      </trkpt>
      <trkpt lat="42.85552" lon="0.44885">
        <ele>2846</ele>
        <time>2011-10-01T16:24:17.21</time>
      </trkpt>
      <trkpt lat="42.85548" lon="0.44904">
        <ele>2847</ele>
        <time>2011-10-01T16:24:18.16</time>
      </trkpt>
      <trkpt lat="42.85544" lon="0.44923">
        <ele>2849</ele>
        <time>2011-10-01T16:24:19.14</time>
      </trkpt>
      <trkpt lat="42.85539" lon="0.44942">
        <ele>2850</ele>
        <time>2011-10-01T16:24:20.16</time>
      </trkpt>
      <trkpt lat="42.85533" lon="0.44959">
        <ele>2851.5</ele>
        <time>2011-10-01T16:24:21.14</time>
      </trkpt>
      <trkpt lat="42.85516" lon="0.44993">
        <ele>2852.5</ele>
        <time>2011-10-01T16:24:23.14</time>
      </trkpt>
      <trkpt lat="42.85506" lon="0.45008">
        <ele>2851.5</ele>
        <time>2011-10-01T16:24:24.18</time>
      </trkpt>
      <trkpt lat="42.85496" lon="0.45023">
        <ele>2850.5</ele>
        <time>2011-10-01T16:24:25.14</time>
      </trkpt>
      <trkpt lat="42.85486" lon="0.4504">
        <ele>2850.5</ele>
        <time>2011-10-01T16:24:26.12</time>
      </trkpt>
      <trkpt lat="42.85477" lon="0.4506">
        <ele>2851</ele>
        <time>2011-10-01T16:24:27.23</time>
      </trkpt>
      <trkpt lat="42.85469" lon="0.45079">
        <ele>2851.5</ele>
        <time>2011-10-01T16:24:28.12</time>
      </trkpt>
      <trkpt lat="42.85462" lon="0.45097">
        <ele>2853.5</ele>
        <time>2011-10-01T16:24:29.17</time>
      </trkpt>
      <trkpt lat="42.85455" lon="0.45114">
        <ele>2854</ele>
        <time>2011-10-01T16:24:30.12</time>
      </trkpt>
      <trkpt lat="42.85448" lon="0.4513">
        <ele>2853.5</ele>
        <time>2011-10-01T16:24:31.14</time>
      </trkpt>
      <trkpt lat="42.85439" lon="0.45147">
        <ele>2852.5</ele>
        <time>2011-10-01T16:24:32.12</time>
      </trkpt>
      <trkpt lat="42.85432" lon="0.45166">
        <ele>2853</ele>
        <time>2011-10-01T16:24:33.13</time>
      </trkpt>
      <trkpt lat="42.85425" lon="0.45184">
        <ele>2854</ele>
        <time>2011-10-01T16:24:34.15</time>
      </trkpt>
      <trkpt lat="42.85419" lon="0.45202">
        <ele>2855.5</ele>
        <time>2011-10-01T16:24:35.13</time>
      </trkpt>
      <trkpt lat="42.85413" lon="0.45219">
        <ele>2857</ele>
        <time>2011-10-01T16:24:36.19</time>
      </trkpt>
      <trkpt lat="42.85405" lon="0.45233">
        <ele>2858</ele>
        <time>2011-10-01T16:24:37.18</time>
      </trkpt>
      <trkpt lat="42.85397" lon="0.45245">
        <ele>2857</ele>
        <time>2011-10-01T16:24:38.13</time>
      </trkpt>
      <trkpt lat="42.85387" lon="0.45254">
        <ele>2857</ele>
        <time>2011-10-01T16:24:39.13</time>
      </trkpt>
      <trkpt lat="42.85377" lon="0.45265">
        <ele>2856.5</ele>
        <time>2011-10-01T16:24:40.22</time>
      </trkpt>
      <trkpt lat="42.85355" lon="0.45288">
        <ele>2856</ele>
        <time>2011-10-01T16:24:42.18</time>
      </trkpt>
      <trkpt lat="42.85344" lon="0.45298">
        <ele>2856.5</ele>
        <time>2011-10-01T16:24:43.13</time>
      </trkpt>
      <trkpt lat="42.85332" lon="0.45308">
        <ele>2858</ele>
        <time>2011-10-01T16:24:44.12</time>
      </trkpt>
      <trkpt lat="42.85321" lon="0.45319">
        <ele>2860</ele>
        <time>2011-10-01T16:24:45.12</time>
      </trkpt>
      <trkpt lat="42.85309" lon="0.45331">
        <ele>2861</ele>
        <time>2011-10-01T16:24:46.12</time>
      </trkpt>
      <trkpt lat="42.85299" lon="0.45344">
        <ele>2862.5</ele>
        <time>2011-10-01T16:24:47.19</time>
      </trkpt>
      <trkpt lat="42.85289" lon="0.45357">
        <ele>2863.5</ele>
        <time>2011-10-01T16:24:48.12</time>
      </trkpt>
      <trkpt lat="42.8528" lon="0.45369">
        <ele>2864</ele>
        <time>2011-10-01T16:24:49.13</time>
      </trkpt>
      <trkpt lat="42.85271" lon="0.45381">
        <ele>2864</ele>
        <time>2011-10-01T16:24:50.20</time>
      </trkpt>
      <trkpt lat="42.85261" lon="0.45393">
        <ele>2862.5</ele>
        <time>2011-10-01T16:24:51.15</time>
      </trkpt>
      <trkpt lat="42.85251" lon="0.45405">
        <ele>2862</ele>
        <time>2011-10-01T16:24:52.11</time>
      </trkpt>
      <trkpt lat="42.85241" lon="0.45418">
        <ele>2862.5</ele>
        <time>2011-10-01T16:24:53.12</time>
      </trkpt>
      <trkpt lat="42.8523" lon="0.4543">
        <ele>2863</ele>
        <time>2011-10-01T16:24:54.12</time>
      </trkpt>
      <trkpt lat="42.85218" lon="0.45442">
        <ele>2863</ele>
        <time>2011-10-01T16:24:55.12</time>
      </trkpt>
      <trkpt lat="42.85206" lon="0.45454">
        <ele>2862.5</ele>
        <time>2011-10-01T16:24:56.11</time>
      </trkpt>
      <trkpt lat="42.85194" lon="0.45465">
        <ele>2861</ele>
        <time>2011-10-01T16:24:57.12</time>
      </trkpt>
      <trkpt lat="42.85181" lon="0.45478">
        <ele>2860.5</ele>
        <time>2011-10-01T16:24:58.12</time>
      </trkpt>
      <trkpt lat="42.8517" lon="0.45491">
        <ele>2861</ele>
        <time>2011-10-01T16:24:59.12</time>
      </trkpt>
      <trkpt lat="42.85155" lon="0.45518">
        <ele>2863.5</ele>
        <time>2011-10-01T16:25:01.13</time>
      </trkpt>
      <trkpt lat="42.85148" lon="0.45534">
        <ele>2863.5</ele>
        <time>2011-10-01T16:25:02.11</time>
      </trkpt>
      <trkpt lat="42.85142" lon="0.45552">
        <ele>2862.5</ele>
        <time>2011-10-01T16:25:03.13</time>
      </trkpt>
      <trkpt lat="42.85136" lon="0.45571">
        <ele>2862</ele>
        <time>2011-10-01T16:25:04.11</time>
      </trkpt>
      <trkpt lat="42.85128" lon="0.4559">
        <ele>2862.5</ele>
        <time>2011-10-01T16:25:05.12</time>
      </trkpt>
      <trkpt lat="42.85119" lon="0.45608">
        <ele>2864</ele>
        <time>2011-10-01T16:25:06.11</time>
      </trkpt>
      <trkpt lat="42.8511" lon="0.45626">
        <ele>2864</ele>
        <time>2011-10-01T16:25:07.12</time>
      </trkpt>
      <trkpt lat="42.85101" lon="0.45643">
        <ele>2864.5</ele>
        <time>2011-10-01T16:25:08.12</time>
      </trkpt>
      <trkpt lat="42.85083" lon="0.45669">
        <ele>2865.5</ele>
        <time>2011-10-01T16:25:10.11</time>
      </trkpt>
      <trkpt lat="42.85073" lon="0.4568">
        <ele>2867</ele>
        <time>2011-10-01T16:25:11.20</time>
      </trkpt>
      <trkpt lat="42.85064" lon="0.45692">
        <ele>2867</ele>
        <time>2011-10-01T16:25:12.12</time>
      </trkpt>
      <trkpt lat="42.85053" lon="0.45705">
        <ele>2868</ele>
        <time>2011-10-01T16:25:13.12</time>
      </trkpt>
      <trkpt lat="42.85041" lon="0.45718">
        <ele>2870</ele>
        <time>2011-10-01T16:25:14.12</time>
      </trkpt>
      <trkpt lat="42.85029" lon="0.45731">
        <ele>2870</ele>
        <time>2011-10-01T16:25:15.13</time>
      </trkpt>
      <trkpt lat="42.85016" lon="0.45743">
        <ele>2870</ele>
        <time>2011-10-01T16:25:16.12</time>
      </trkpt>
      <trkpt lat="42.84996" lon="0.45765">
        <ele>2870.5</ele>
        <time>2011-10-01T16:25:18.11</time>
      </trkpt>
      <trkpt lat="42.84986" lon="0.45776">
        <ele>2872</ele>
        <time>2011-10-01T16:25:19.14</time>
      </trkpt>
      <trkpt lat="42.84976" lon="0.45786">
        <ele>2873</ele>
        <time>2011-10-01T16:25:20.12</time>
      </trkpt>
      <trkpt lat="42.84965" lon="0.45796">
        <ele>2875</ele>
        <time>2011-10-01T16:25:21.13</time>
      </trkpt>
      <trkpt lat="42.84948" lon="0.45813">
        <ele>2876.5</ele>
        <time>2011-10-01T16:25:23.14</time>
      </trkpt>
      <trkpt lat="42.84938" lon="0.45822">
        <ele>2877.5</ele>
        <time>2011-10-01T16:25:24.12</time>
      </trkpt>
      <trkpt lat="42.84928" lon="0.45831">
        <ele>2878</ele>
        <time>2011-10-01T16:25:25.21</time>
      </trkpt>
      <trkpt lat="42.84916" lon="0.45838">
        <ele>2876.5</ele>
        <time>2011-10-01T16:25:26.14</time>
      </trkpt>
      <trkpt lat="42.84903" lon="0.45842">
        <ele>2875.5</ele>
        <time>2011-10-01T16:25:27.13</time>
      </trkpt>
      <trkpt lat="42.84878" lon="0.45837">
        <ele>2878</ele>
        <time>2011-10-01T16:25:29.13</time>
      </trkpt>
      <trkpt lat="42.84868" lon="0.45828">
        <ele>2879</ele>
        <time>2011-10-01T16:25:30.19</time>
      </trkpt>
      <trkpt lat="42.84858" lon="0.45804">
        <ele>2880</ele>
        <time>2011-10-01T16:25:32.14</time>
      </trkpt>
      <trkpt lat="42.84857" lon="0.4579">
        <ele>2880</ele>
        <time>2011-10-01T16:25:33.13</time>
      </trkpt>
      <trkpt lat="42.8486" lon="0.45775">
        <ele>2880.5</ele>
        <time>2011-10-01T16:25:34.12</time>
      </trkpt>
      <trkpt lat="42.84865" lon="0.4576">
        <ele>2881</ele>
        <time>2011-10-01T16:25:35.12</time>
      </trkpt>
      <trkpt lat="42.84871" lon="0.45747">
        <ele>2882</ele>
        <time>2011-10-01T16:25:36.14</time>
      </trkpt>
      <trkpt lat="42.84877" lon="0.45734">
        <ele>2884</ele>
        <time>2011-10-01T16:25:37.13</time>
      </trkpt>
      <trkpt lat="42.84884" lon="0.45723">
        <ele>2884.5</ele>
        <time>2011-10-01T16:25:38.20</time>
      </trkpt>
      <trkpt lat="42.84891" lon="0.45711">
        <ele>2884.5</ele>
        <time>2011-10-01T16:25:39.14</time>
      </trkpt>
      <trkpt lat="42.84899" lon="0.457">
        <ele>2884</ele>
        <time>2011-10-01T16:25:40.19</time>
      </trkpt>
      <trkpt lat="42.84906" lon="0.45687">
        <ele>2883</ele>
        <time>2011-10-01T16:25:41.13</time>
      </trkpt>
      <trkpt lat="42.84914" lon="0.45673">
        <ele>2882</ele>
        <time>2011-10-01T16:25:42.14</time>
      </trkpt>
      <trkpt lat="42.84921" lon="0.45659">
        <ele>2881.5</ele>
        <time>2011-10-01T16:25:43.22</time>
      </trkpt>
      <trkpt lat="42.84928" lon="0.45643">
        <ele>2880.5</ele>
        <time>2011-10-01T16:25:44.17</time>
      </trkpt>
      <trkpt lat="42.84934" lon="0.45628">
        <ele>2881</ele>
        <time>2011-10-01T16:25:45.20</time>
      </trkpt>
      <trkpt lat="42.8494" lon="0.45613">
        <ele>2883</ele>
        <time>2011-10-01T16:25:46.20</time>
      </trkpt>
      <trkpt lat="42.84946" lon="0.45599">
        <ele>2884.5</ele>
        <time>2011-10-01T16:25:47.15</time>
      </trkpt>
      <trkpt lat="42.84952" lon="0.45588">
        <ele>2884</ele>
        <time>2011-10-01T16:25:48.12</time>
      </trkpt>
      <trkpt lat="42.8496" lon="0.45575">
        <ele>2882</ele>
        <time>2011-10-01T16:25:49.14</time>
      </trkpt>
      <trkpt lat="42.84968" lon="0.45564">
        <ele>2881.5</ele>
        <time>2011-10-01T16:25:50.12</time>
      </trkpt>
      <trkpt lat="42.84978" lon="0.45552">
        <ele>2881</ele>
        <time>2011-10-01T16:25:51.21</time>
      </trkpt>
      <trkpt lat="42.84989" lon="0.45542">
        <ele>2882</ele>
        <time>2011-10-01T16:25:52.12</time>
      </trkpt>
      <trkpt lat="42.84999" lon="0.45534">
        <ele>2884</ele>
        <time>2011-10-01T16:25:53.17</time>
      </trkpt>
      <trkpt lat="42.8501" lon="0.45526">
        <ele>2885</ele>
        <time>2011-10-01T16:25:54.14</time>
      </trkpt>
      <trkpt lat="42.85021" lon="0.45517">
        <ele>2885.5</ele>
        <time>2011-10-01T16:25:55.13</time>
      </trkpt>
      <trkpt lat="42.85031" lon="0.45509">
        <ele>2887.5</ele>
        <time>2011-10-01T16:25:56.19</time>
      </trkpt>
      <trkpt lat="42.85039" lon="0.45497">
        <ele>2887</ele>
        <time>2011-10-01T16:25:57.20</time>
      </trkpt>
      <trkpt lat="42.85045" lon="0.45484">
        <ele>2887.5</ele>
        <time>2011-10-01T16:25:58.18</time>
      </trkpt>
      <trkpt lat="42.85049" lon="0.4547">
        <ele>2887.5</ele>
        <time>2011-10-01T16:25:59.20</time>
      </trkpt>
      <trkpt lat="42.8505" lon="0.45455">
        <ele>2888</ele>
        <time>2011-10-01T16:26:00.23</time>
      </trkpt>
      <trkpt lat="42.8505" lon="0.4544">
        <ele>2888.5</ele>
        <time>2011-10-01T16:26:01.20</time>
      </trkpt>
      <trkpt lat="42.85048" lon="0.45425">
        <ele>2889</ele>
        <time>2011-10-01T16:26:02.16</time>
      </trkpt>
      <trkpt lat="42.85045" lon="0.45411">
        <ele>2889.5</ele>
        <time>2011-10-01T16:26:03.21</time>
      </trkpt>
      <trkpt lat="42.85041" lon="0.45397">
        <ele>2890</ele>
        <time>2011-10-01T16:26:04.22</time>
      </trkpt>
      <trkpt lat="42.85037" lon="0.45384">
        <ele>2890</ele>
        <time>2011-10-01T16:26:05.13</time>
      </trkpt>
      <trkpt lat="42.85035" lon="0.4537">
        <ele>2890.5</ele>
        <time>2011-10-01T16:26:06.19</time>
      </trkpt>
      <trkpt lat="42.85033" lon="0.45355">
        <ele>2891</ele>
        <time>2011-10-01T16:26:07.14</time>
      </trkpt>
      <trkpt lat="42.85032" lon="0.45341">
        <ele>2894.5</ele>
        <time>2011-10-01T16:26:08.15</time>
      </trkpt>
      <trkpt lat="42.85031" lon="0.45325">
        <ele>2893.5</ele>
        <time>2011-10-01T16:26:09.20</time>
      </trkpt>
      <trkpt lat="42.85032" lon="0.4531">
        <ele>2894.5</ele>
        <time>2011-10-01T16:26:10.18</time>
      </trkpt>
      <trkpt lat="42.85037" lon="0.45296">
        <ele>2895</ele>
        <time>2011-10-01T16:26:11.12</time>
      </trkpt>
      <trkpt lat="42.85059" lon="0.45277">
        <ele>2898.5</ele>
        <time>2011-10-01T16:26:13.18</time>
      </trkpt>
      <trkpt lat="42.85071" lon="0.45276">
        <ele>2899</ele>
        <time>2011-10-01T16:26:14.17</time>
      </trkpt>
      <trkpt lat="42.85081" lon="0.45283">
        <ele>2899</ele>
        <time>2011-10-01T16:26:15.15</time>
      </trkpt>
      <trkpt lat="42.8509" lon="0.45294">
        <ele>2900</ele>
        <time>2011-10-01T16:26:16.17</time>
      </trkpt>
      <trkpt lat="42.85097" lon="0.45309">
        <ele>2900.5</ele>
        <time>2011-10-01T16:26:17.13</time>
      </trkpt>
      <trkpt lat="42.85101" lon="0.45373">
        <ele>2901.5</ele>
        <time>2011-10-01T16:26:20.17</time>
      </trkpt>
      <trkpt lat="42.85089" lon="0.45412">
        <ele>2903</ele>
        <time>2011-10-01T16:26:22.17</time>
      </trkpt>
      <trkpt lat="42.85079" lon="0.45429">
        <ele>2905.5</ele>
        <time>2011-10-01T16:26:23.18</time>
      </trkpt>
      <trkpt lat="42.85069" lon="0.45446">
        <ele>2905.5</ele>
        <time>2011-10-01T16:26:24.18</time>
      </trkpt>
      <trkpt lat="42.8506" lon="0.45464">
        <ele>2907</ele>
        <time>2011-10-01T16:26:25.16</time>
      </trkpt>
      <trkpt lat="42.85048" lon="0.4548">
        <ele>2911</ele>
        <time>2011-10-01T16:26:26.21</time>
      </trkpt>
      <trkpt lat="42.85028" lon="0.45502">
        <ele>2911.5</ele>
        <time>2011-10-01T16:26:28.12</time>
      </trkpt>
      <trkpt lat="42.85017" lon="0.45513">
        <ele>2912</ele>
        <time>2011-10-01T16:26:29.20</time>
      </trkpt>
      <trkpt lat="42.85005" lon="0.45522">
        <ele>2912.5</ele>
        <time>2011-10-01T16:26:30.15</time>
      </trkpt>
      <trkpt lat="42.84993" lon="0.4553">
        <ele>2912.5</ele>
        <time>2011-10-01T16:26:31.15</time>
      </trkpt>
      <trkpt lat="42.8497" lon="0.45536">
        <ele>2916</ele>
        <time>2011-10-01T16:26:33.13</time>
      </trkpt>
      <trkpt lat="42.84959" lon="0.45538">
        <ele>2916.5</ele>
        <time>2011-10-01T16:26:34.17</time>
      </trkpt>
      <trkpt lat="42.84946" lon="0.45537">
        <ele>2917</ele>
        <time>2011-10-01T16:26:35.13</time>
      </trkpt>
      <trkpt lat="42.84934" lon="0.45534">
        <ele>2918</ele>
        <time>2011-10-01T16:26:36.11</time>
      </trkpt>
      <trkpt lat="42.84921" lon="0.45527">
        <ele>2917</ele>
        <time>2011-10-01T16:26:37.21</time>
      </trkpt>
      <trkpt lat="42.84901" lon="0.4551">
        <ele>2932</ele>
        <time>2011-10-01T16:26:39.15</time>
      </trkpt>
      <trkpt lat="42.84893" lon="0.45481">
        <ele>2939</ele>
        <time>2011-10-01T16:26:41.14</time>
      </trkpt>
      <trkpt lat="42.84896" lon="0.45466">
        <ele>2939</ele>
        <time>2011-10-01T16:26:42.11</time>
      </trkpt>
      <trkpt lat="42.84902" lon="0.45452">
        <ele>2941.5</ele>
        <time>2011-10-01T16:26:43.17</time>
      </trkpt>
      <trkpt lat="42.8491" lon="0.4544">
        <ele>2942.5</ele>
        <time>2011-10-01T16:26:44.17</time>
      </trkpt>
      <trkpt lat="42.84924" lon="0.4543">
        <ele>2947.5</ele>
        <time>2011-10-01T16:26:46.14</time>
      </trkpt>
      <trkpt lat="42.84932" lon="0.45433">
        <ele>2952.5</ele>
        <time>2011-10-01T16:26:47.16</time>
      </trkpt>
      <trkpt lat="42.84954" lon="0.45448">
        <ele>2957</ele>
        <time>2011-10-01T16:26:49.12</time>
      </trkpt>
      <trkpt lat="42.84965" lon="0.45458">
        <ele>2958.5</ele>
        <time>2011-10-01T16:26:50.12</time>
      </trkpt>
      <trkpt lat="42.84986" lon="0.45482">
        <ele>2963.5</ele>
        <time>2011-10-01T16:26:52.12</time>
      </trkpt>
      <trkpt lat="42.84995" lon="0.45495">
        <ele>2964.5</ele>
        <time>2011-10-01T16:26:53.21</time>
      </trkpt>
      <trkpt lat="42.85011" lon="0.45529">
        <ele>2966</ele>
        <time>2011-10-01T16:26:55.14</time>
      </trkpt>
      <trkpt lat="42.85016" lon="0.45548">
        <ele>2967</ele>
        <time>2011-10-01T16:26:56.14</time>
      </trkpt>
      <trkpt lat="42.85021" lon="0.45568">
        <ele>2968</ele>
        <time>2011-10-01T16:26:57.17</time>
      </trkpt>
      <trkpt lat="42.8502" lon="0.45588">
        <ele>2970.5</ele>
        <time>2011-10-01T16:26:58.21</time>
      </trkpt>
      <trkpt lat="42.85018" lon="0.45606">
        <ele>2975</ele>
        <time>2011-10-01T16:26:59.17</time>
      </trkpt>
      <trkpt lat="42.85015" lon="0.45624">
        <ele>2979</ele>
        <time>2011-10-01T16:27:00.12</time>
      </trkpt>
      <trkpt lat="42.85012" lon="0.45644">
        <ele>2981.5</ele>
        <time>2011-10-01T16:27:01.20</time>
      </trkpt>
      <trkpt lat="42.85006" lon="0.45686">
        <ele>2984.5</ele>
        <time>2011-10-01T16:27:03.14</time>
      </trkpt>
      <trkpt lat="42.84995" lon="0.45719">
        <ele>2985</ele>
        <time>2011-10-01T16:27:05.13</time>
      </trkpt>
      <trkpt lat="42.84986" lon="0.45729">
        <ele>2986</ele>
        <time>2011-10-01T16:27:06.12</time>
      </trkpt>
      <trkpt lat="42.84974" lon="0.45737">
        <ele>2987</ele>
        <time>2011-10-01T16:27:07.13</time>
      </trkpt>
      <trkpt lat="42.84962" lon="0.45743">
        <ele>2988.5</ele>
        <time>2011-10-01T16:27:08.11</time>
      </trkpt>
      <trkpt lat="42.84948" lon="0.45748">
        <ele>2990</ele>
        <time>2011-10-01T16:27:09.13</time>
      </trkpt>
      <trkpt lat="42.84935" lon="0.45749">
        <ele>2991</ele>
        <time>2011-10-01T16:27:10.12</time>
      </trkpt>
      <trkpt lat="42.84914" lon="0.45744">
        <ele>2993.5</ele>
        <time>2011-10-01T16:27:12.12</time>
      </trkpt>
      <trkpt lat="42.84904" lon="0.4574">
        <ele>2994.5</ele>
        <time>2011-10-01T16:27:13.12</time>
      </trkpt>
      <trkpt lat="42.84881" lon="0.45724">
        <ele>2994.5</ele>
        <time>2011-10-01T16:27:15.11</time>
      </trkpt>
      <trkpt lat="42.8487" lon="0.45715">
        <ele>2994.5</ele>
        <time>2011-10-01T16:27:16.12</time>
      </trkpt>
      <trkpt lat="42.84861" lon="0.45705">
        <ele>2995</ele>
        <time>2011-10-01T16:27:17.13</time>
      </trkpt>
      <trkpt lat="42.84854" lon="0.45695">
        <ele>2994</ele>
        <time>2011-10-01T16:27:18.12</time>
      </trkpt>
      <trkpt lat="42.8485" lon="0.45682">
        <ele>2994</ele>
        <time>2011-10-01T16:27:19.13</time>
      </trkpt>
      <trkpt lat="42.84849" lon="0.45668">
        <ele>2994.5</ele>
        <time>2011-10-01T16:27:20.14</time>
      </trkpt>
      <trkpt lat="42.84852" lon="0.45654">
        <ele>2994.5</ele>
        <time>2011-10-01T16:27:21.13</time>
      </trkpt>
      <trkpt lat="42.84856" lon="0.4564">
        <ele>2995</ele>
        <time>2011-10-01T16:27:22.12</time>
      </trkpt>
      <trkpt lat="42.84862" lon="0.45628">
        <ele>2996</ele>
        <time>2011-10-01T16:27:23.18</time>
      </trkpt>
      <trkpt lat="42.84869" lon="0.45616">
        <ele>2997</ele>
        <time>2011-10-01T16:27:24.19</time>
      </trkpt>
      <trkpt lat="42.84875" lon="0.45607">
        <ele>2998</ele>
        <time>2011-10-01T16:27:25.12</time>
      </trkpt>
      <trkpt lat="42.84883" lon="0.45599">
        <ele>2999.5</ele>
        <time>2011-10-01T16:27:26.12</time>
      </trkpt>
      <trkpt lat="42.8489" lon="0.45591">
        <ele>3001.5</ele>
        <time>2011-10-01T16:27:27.13</time>
      </trkpt>
      <trkpt lat="42.84896" lon="0.45582">
        <ele>3002.5</ele>
        <time>2011-10-01T16:27:28.14</time>
      </trkpt>
      <trkpt lat="42.84903" lon="0.45573">
        <ele>3006</ele>
        <time>2011-10-01T16:27:29.22</time>
      </trkpt>
      <trkpt lat="42.84907" lon="0.45565">
        <ele>3008.5</ele>
        <time>2011-10-01T16:27:30.14</time>
      </trkpt>
      <trkpt lat="42.84912" lon="0.45538">
        <ele>3008.5</ele>
        <time>2011-10-01T16:27:32.12</time>
      </trkpt>
      <trkpt lat="42.84911" lon="0.45522">
        <ele>3011</ele>
        <time>2011-10-01T16:27:33.21</time>
      </trkpt>
      <trkpt lat="42.84909" lon="0.45497">
        <ele>3012.5</ele>
        <time>2011-10-01T16:27:35.18</time>
      </trkpt>
      <trkpt lat="42.84909" lon="0.45484">
        <ele>3014.5</ele>
        <time>2011-10-01T16:27:36.19</time>
      </trkpt>
      <trkpt lat="42.84911" lon="0.45472">
        <ele>3018</ele>
        <time>2011-10-01T16:27:37.14</time>
      </trkpt>
      <trkpt lat="42.84916" lon="0.4546">
        <ele>3019.5</ele>
        <time>2011-10-01T16:27:38.14</time>
      </trkpt>
      <trkpt lat="42.84922" lon="0.45449">
        <ele>3021.5</ele>
        <time>2011-10-01T16:27:39.18</time>
      </trkpt>
      <trkpt lat="42.8493" lon="0.45439">
        <ele>3023.5</ele>
        <time>2011-10-01T16:27:40.12</time>
      </trkpt>
      <trkpt lat="42.8494" lon="0.4543">
        <ele>3025</ele>
        <time>2011-10-01T16:27:41.14</time>
      </trkpt>
      <trkpt lat="42.84949" lon="0.45422">
        <ele>3025.5</ele>
        <time>2011-10-01T16:27:42.12</time>
      </trkpt>
      <trkpt lat="42.84959" lon="0.45414">
        <ele>3028</ele>
        <time>2011-10-01T16:27:43.20</time>
      </trkpt>
      <trkpt lat="42.84967" lon="0.45404">
        <ele>3028.5</ele>
        <time>2011-10-01T16:27:44.12</time>
      </trkpt>
      <trkpt lat="42.84974" lon="0.45393">
        <ele>3029</ele>
        <time>2011-10-01T16:27:45.20</time>
      </trkpt>
      <trkpt lat="42.8498" lon="0.45382">
        <ele>3030</ele>
        <time>2011-10-01T16:27:46.18</time>
      </trkpt>
      <trkpt lat="42.84985" lon="0.45371">
        <ele>3032</ele>
        <time>2011-10-01T16:27:47.20</time>
      </trkpt>
      <trkpt lat="42.8499" lon="0.4536">
        <ele>3033</ele>
        <time>2011-10-01T16:27:48.14</time>
      </trkpt>
      <trkpt lat="42.84995" lon="0.45348">
        <ele>3033.5</ele>
        <time>2011-10-01T16:27:49.12</time>
      </trkpt>
      <trkpt lat="42.85002" lon="0.45336">
        <ele>3034</ele>
        <time>2011-10-01T16:27:50.12</time>
      </trkpt>
      <trkpt lat="42.85012" lon="0.45326">
        <ele>3034.5</ele>
        <time>2011-10-01T16:27:51.18</time>
      </trkpt>
      <trkpt lat="42.85023" lon="0.4532">
        <ele>3036</ele>
        <time>2011-10-01T16:27:52.15</time>
      </trkpt>
      <trkpt lat="42.85034" lon="0.45319">
        <ele>3038.5</ele>
        <time>2011-10-01T16:27:53.13</time>
      </trkpt>
      <trkpt lat="42.85059" lon="0.45333">
        <ele>3038.5</ele>
        <time>2011-10-01T16:27:55.16</time>
      </trkpt>
      <trkpt lat="42.85076" lon="0.45368">
        <ele>3041</ele>
        <time>2011-10-01T16:27:57.20</time>
      </trkpt>
      <trkpt lat="42.85076" lon="0.4539">
        <ele>3042</ele>
        <time>2011-10-01T16:27:58.18</time>
      </trkpt>
      <trkpt lat="42.85073" lon="0.45411">
        <ele>3043.5</ele>
        <time>2011-10-01T16:27:59.13</time>
      </trkpt>
      <trkpt lat="42.85067" lon="0.45429">
        <ele>3044.5</ele>
        <time>2011-10-01T16:28:00.12</time>
      </trkpt>
      <trkpt lat="42.85058" lon="0.45445">
        <ele>3045.5</ele>
        <time>2011-10-01T16:28:01.27</time>
      </trkpt>
      <trkpt lat="42.85048" lon="0.45458">
        <ele>3045</ele>
        <time>2011-10-01T16:28:02.80</time>
      </trkpt>
      <trkpt lat="42.85022" lon="0.45479">
        <ele>3044.5</ele>
        <time>2011-10-01T16:28:04.12</time>
      </trkpt>
      <trkpt lat="42.85006" lon="0.45487">
        <ele>3047</ele>
        <time>2011-10-01T16:28:05.12</time>
      </trkpt>
      <trkpt lat="42.84968" lon="0.45505">
        <ele>3049.5</ele>
        <time>2011-10-01T16:28:08.14</time>
      </trkpt>
      <trkpt lat="42.84957" lon="0.45511">
        <ele>3051.5</ele>
        <time>2011-10-01T16:28:09.20</time>
      </trkpt>
      <trkpt lat="42.84944" lon="0.45516">
        <ele>3053</ele>
        <time>2011-10-01T16:28:10.12</time>
      </trkpt>
      <trkpt lat="42.84931" lon="0.4552">
        <ele>3055.5</ele>
        <time>2011-10-01T16:28:11.24</time>
      </trkpt>
      <trkpt lat="42.84918" lon="0.4552">
        <ele>3057.5</ele>
        <time>2011-10-01T16:28:12.12</time>
      </trkpt>
      <trkpt lat="42.84906" lon="0.45518">
        <ele>3058</ele>
        <time>2011-10-01T16:28:13.22</time>
      </trkpt>
      <trkpt lat="42.84896" lon="0.45512">
        <ele>3059.5</ele>
        <time>2011-10-01T16:28:14.14</time>
      </trkpt>
      <trkpt lat="42.84887" lon="0.45504">
        <ele>3059</ele>
        <time>2011-10-01T16:28:15.19</time>
      </trkpt>
      <trkpt lat="42.84881" lon="0.45495">
        <ele>3062.5</ele>
        <time>2011-10-01T16:28:16.19</time>
      </trkpt>
      <trkpt lat="42.84875" lon="0.45482">
        <ele>3061.5</ele>
        <time>2011-10-01T16:28:17.20</time>
      </trkpt>
      <trkpt lat="42.84869" lon="0.45468">
        <ele>3063.5</ele>
        <time>2011-10-01T16:28:18.14</time>
      </trkpt>
      <trkpt lat="42.8486" lon="0.45447">
        <ele>3073</ele>
        <time>2011-10-01T16:28:20.18</time>
      </trkpt>
      <trkpt lat="42.84857" lon="0.45435">
        <ele>3073.5</ele>
        <time>2011-10-01T16:28:21.22</time>
      </trkpt>
      <trkpt lat="42.84853" lon="0.45423">
        <ele>3073</ele>
        <time>2011-10-01T16:28:22.14</time>
      </trkpt>
      <trkpt lat="42.8485" lon="0.45409">
        <ele>3071.5</ele>
        <time>2011-10-01T16:28:23.22</time>
      </trkpt>
      <trkpt lat="42.84847" lon="0.45394">
        <ele>3070</ele>
        <time>2011-10-01T16:28:24.12</time>
      </trkpt>
      <trkpt lat="42.84844" lon="0.4538">
        <ele>3071</ele>
        <time>2011-10-01T16:28:25.23</time>
      </trkpt>
      <trkpt lat="42.84842" lon="0.45364">
        <ele>3071</ele>
        <time>2011-10-01T16:28:26.19</time>
      </trkpt>
      <trkpt lat="42.84842" lon="0.45348">
        <ele>3071.5</ele>
        <time>2011-10-01T16:28:27.20</time>
      </trkpt>
      <trkpt lat="42.84845" lon="0.45333">
        <ele>3074.5</ele>
        <time>2011-10-01T16:28:28.18</time>
      </trkpt>
      <trkpt lat="42.84852" lon="0.4532">
        <ele>3077</ele>
        <time>2011-10-01T16:28:29.21</time>
      </trkpt>
      <trkpt lat="42.8486" lon="0.45309">
        <ele>3078.5</ele>
        <time>2011-10-01T16:28:30.12</time>
      </trkpt>
      <trkpt lat="42.84869" lon="0.45303">
        <ele>3080</ele>
        <time>2011-10-01T16:28:31.13</time>
      </trkpt>
      <trkpt lat="42.8488" lon="0.453">
        <ele>3081</ele>
        <time>2011-10-01T16:28:32.21</time>
      </trkpt>
      <trkpt lat="42.84908" lon="0.45306">
        <ele>3081</ele>
        <time>2011-10-01T16:28:34.20</time>
      </trkpt>
      <trkpt lat="42.8492" lon="0.45316">
        <ele>3080.5</ele>
        <time>2011-10-01T16:28:35.20</time>
      </trkpt>
      <trkpt lat="42.84946" lon="0.45387">
        <ele>3081</ele>
        <time>2011-10-01T16:28:39.12</time>
      </trkpt>
      <trkpt lat="42.8494" lon="0.45407">
        <ele>3083</ele>
        <time>2011-10-01T16:28:40.22</time>
      </trkpt>
      <trkpt lat="42.84934" lon="0.45425">
        <ele>3085.5</ele>
        <time>2011-10-01T16:28:41.12</time>
      </trkpt>
      <trkpt lat="42.84925" lon="0.45441">
        <ele>3086.5</ele>
        <time>2011-10-01T16:28:42.22</time>
      </trkpt>
      <trkpt lat="42.84914" lon="0.45452">
        <ele>3087</ele>
        <time>2011-10-01T16:28:43.18</time>
      </trkpt>
      <trkpt lat="42.84901" lon="0.45458">
        <ele>3088.5</ele>
        <time>2011-10-01T16:28:44.13</time>
      </trkpt>
      <trkpt lat="42.84889" lon="0.45459">
        <ele>3090</ele>
        <time>2011-10-01T16:28:45.19</time>
      </trkpt>
      <trkpt lat="42.84877" lon="0.45457">
        <ele>3090</ele>
        <time>2011-10-01T16:28:46.21</time>
      </trkpt>
      <trkpt lat="42.84859" lon="0.45446">
        <ele>3089.5</ele>
        <time>2011-10-01T16:28:48.20</time>
      </trkpt>
      <trkpt lat="42.84852" lon="0.45435">
        <ele>3089.5</ele>
        <time>2011-10-01T16:28:49.12</time>
      </trkpt>
      <trkpt lat="42.84849" lon="0.45422">
        <ele>3091</ele>
        <time>2011-10-01T16:28:50.22</time>
      </trkpt>
      <trkpt lat="42.84848" lon="0.45407">
        <ele>3091</ele>
        <time>2011-10-01T16:28:51.18</time>
      </trkpt>
      <trkpt lat="42.84849" lon="0.45393">
        <ele>3091</ele>
        <time>2011-10-01T16:28:52.20</time>
      </trkpt>
      <trkpt lat="42.84855" lon="0.4538">
        <ele>3092.5</ele>
        <time>2011-10-01T16:28:53.17</time>
      </trkpt>
      <trkpt lat="42.84864" lon="0.45371">
        <ele>3092</ele>
        <time>2011-10-01T16:28:54.18</time>
      </trkpt>
      <trkpt lat="42.84875" lon="0.45364">
        <ele>3092</ele>
        <time>2011-10-01T16:28:55.12</time>
      </trkpt>
      <trkpt lat="42.84888" lon="0.45362">
        <ele>3090.5</ele>
        <time>2011-10-01T16:28:56.21</time>
      </trkpt>
      <trkpt lat="42.84902" lon="0.45363">
        <ele>3091.5</ele>
        <time>2011-10-01T16:28:57.17</time>
      </trkpt>
      <trkpt lat="42.84915" lon="0.45368">
        <ele>3091.5</ele>
        <time>2011-10-01T16:28:58.13</time>
      </trkpt>
      <trkpt lat="42.84925" lon="0.45378">
        <ele>3091</ele>
        <time>2011-10-01T16:28:59.18</time>
      </trkpt>
      <trkpt lat="42.84936" lon="0.45416">
        <ele>3090.5</ele>
        <time>2011-10-01T16:29:01.18</time>
      </trkpt>
      <trkpt lat="42.84936" lon="0.45437">
        <ele>3090</ele>
        <time>2011-10-01T16:29:02.23</time>
      </trkpt>
      <trkpt lat="42.84931" lon="0.45458">
        <ele>3089</ele>
        <time>2011-10-01T16:29:03.13</time>
      </trkpt>
      <trkpt lat="42.84923" lon="0.45477">
        <ele>3089</ele>
        <time>2011-10-01T16:29:04.29</time>
      </trkpt>
      <trkpt lat="42.84912" lon="0.45493">
        <ele>3089</ele>
        <time>2011-10-01T16:29:05.12</time>
      </trkpt>
      <trkpt lat="42.84901" lon="0.45505">
        <ele>3089</ele>
        <time>2011-10-01T16:29:06.13</time>
      </trkpt>
      <trkpt lat="42.8489" lon="0.45516">
        <ele>3090.5</ele>
        <time>2011-10-01T16:29:07.12</time>
      </trkpt>
      <trkpt lat="42.84861" lon="0.45535">
        <ele>3090</ele>
        <time>2011-10-01T16:29:10.18</time>
      </trkpt>
      <trkpt lat="42.84849" lon="0.45541">
        <ele>3089</ele>
        <time>2011-10-01T16:29:11.18</time>
      </trkpt>
      <trkpt lat="42.84838" lon="0.45548">
        <ele>3087.5</ele>
        <time>2011-10-01T16:29:12.18</time>
      </trkpt>
      <trkpt lat="42.84828" lon="0.45555">
        <ele>3088</ele>
        <time>2011-10-01T16:29:13.12</time>
      </trkpt>
      <trkpt lat="42.84818" lon="0.45561">
        <ele>3087</ele>
        <time>2011-10-01T16:29:14.13</time>
      </trkpt>
      <trkpt lat="42.84808" lon="0.45567">
        <ele>3087</ele>
        <time>2011-10-01T16:29:15.17</time>
      </trkpt>
      <trkpt lat="42.84798" lon="0.45573">
        <ele>3087</ele>
        <time>2011-10-01T16:29:16.14</time>
      </trkpt>
      <trkpt lat="42.84787" lon="0.4558">
        <ele>3087</ele>
        <time>2011-10-01T16:29:17.12</time>
      </trkpt>
      <trkpt lat="42.84775" lon="0.45587">
        <ele>3086.5</ele>
        <time>2011-10-01T16:29:18.18</time>
      </trkpt>
      <trkpt lat="42.84763" lon="0.45595">
        <ele>3085</ele>
        <time>2011-10-01T16:29:19.13</time>
      </trkpt>
      <trkpt lat="42.84752" lon="0.45602">
        <ele>3083</ele>
        <time>2011-10-01T16:29:20.13</time>
      </trkpt>
      <trkpt lat="42.84741" lon="0.45611">
        <ele>3082</ele>
        <time>2011-10-01T16:29:21.13</time>
      </trkpt>
      <trkpt lat="42.8473" lon="0.4562">
        <ele>3081.5</ele>
        <time>2011-10-01T16:29:22.13</time>
      </trkpt>
      <trkpt lat="42.84705" lon="0.45638">
        <ele>3081</ele>
        <time>2011-10-01T16:29:24.15</time>
      </trkpt>
      <trkpt lat="42.84694" lon="0.45647">
        <ele>3080.5</ele>
        <time>2011-10-01T16:29:25.12</time>
      </trkpt>
      <trkpt lat="42.84684" lon="0.45655">
        <ele>3079</ele>
        <time>2011-10-01T16:29:26.13</time>
      </trkpt>
      <trkpt lat="42.84673" lon="0.45661">
        <ele>3077</ele>
        <time>2011-10-01T16:29:27.12</time>
      </trkpt>
      <trkpt lat="42.84662" lon="0.45666">
        <ele>3076</ele>
        <time>2011-10-01T16:29:28.14</time>
      </trkpt>
      <trkpt lat="42.8465" lon="0.4567">
        <ele>3077</ele>
        <time>2011-10-01T16:29:29.18</time>
      </trkpt>
      <trkpt lat="42.84624" lon="0.45663">
        <ele>3074.5</ele>
        <time>2011-10-01T16:29:31.18</time>
      </trkpt>
      <trkpt lat="42.84612" lon="0.45651">
        <ele>3073</ele>
        <time>2011-10-01T16:29:32.14</time>
      </trkpt>
      <trkpt lat="42.84608" lon="0.45621">
        <ele>3071.5</ele>
        <time>2011-10-01T16:29:34.18</time>
      </trkpt>
      <trkpt lat="42.8461" lon="0.45606">
        <ele>3070</ele>
        <time>2011-10-01T16:29:35.17</time>
      </trkpt>
      <trkpt lat="42.84614" lon="0.45593">
        <ele>3068</ele>
        <time>2011-10-01T16:29:36.17</time>
      </trkpt>
      <trkpt lat="42.84621" lon="0.45581">
        <ele>3067</ele>
        <time>2011-10-01T16:29:37.14</time>
      </trkpt>
      <trkpt lat="42.84629" lon="0.45569">
        <ele>3064.5</ele>
        <time>2011-10-01T16:29:38.12</time>
      </trkpt>
      <trkpt lat="42.84638" lon="0.45559">
        <ele>3061</ele>
        <time>2011-10-01T16:29:39.13</time>
      </trkpt>
      <trkpt lat="42.84648" lon="0.45549">
        <ele>3057.5</ele>
        <time>2011-10-01T16:29:40.13</time>
      </trkpt>
      <trkpt lat="42.84658" lon="0.45542">
        <ele>3055.5</ele>
        <time>2011-10-01T16:29:41.13</time>
      </trkpt>
      <trkpt lat="42.84669" lon="0.45536">
        <ele>3052</ele>
        <time>2011-10-01T16:29:42.16</time>
      </trkpt>
      <trkpt lat="42.84681" lon="0.4553">
        <ele>3049</ele>
        <time>2011-10-01T16:29:43.11</time>
      </trkpt>
      <trkpt lat="42.84704" lon="0.4552">
        <ele>3046</ele>
        <time>2011-10-01T16:29:45.13</time>
      </trkpt>
      <trkpt lat="42.84715" lon="0.45514">
        <ele>3044.5</ele>
        <time>2011-10-01T16:29:46.17</time>
      </trkpt>
      <trkpt lat="42.84725" lon="0.45507">
        <ele>3042.5</ele>
        <time>2011-10-01T16:29:47.12</time>
      </trkpt>
      <trkpt lat="42.84734" lon="0.455">
        <ele>3040.5</ele>
        <time>2011-10-01T16:29:48.18</time>
      </trkpt>
      <trkpt lat="42.84744" lon="0.45491">
        <ele>3038.5</ele>
        <time>2011-10-01T16:29:49.12</time>
      </trkpt>
      <trkpt lat="42.84753" lon="0.45482">
        <ele>3037.5</ele>
        <time>2011-10-01T16:29:50.13</time>
      </trkpt>
      <trkpt lat="42.84762" lon="0.45472">
        <ele>3035.5</ele>
        <time>2011-10-01T16:29:51.12</time>
      </trkpt>
      <trkpt lat="42.84771" lon="0.45463">
        <ele>3034</ele>
        <time>2011-10-01T16:29:52.14</time>
      </trkpt>
      <trkpt lat="42.8478" lon="0.45456">
        <ele>3033</ele>
        <time>2011-10-01T16:29:53.18</time>
      </trkpt>
      <trkpt lat="42.8479" lon="0.45449">
        <ele>3032</ele>
        <time>2011-10-01T16:29:54.17</time>
      </trkpt>
      <trkpt lat="42.848" lon="0.45443">
        <ele>3031</ele>
        <time>2011-10-01T16:29:55.12</time>
      </trkpt>
      <trkpt lat="42.8481" lon="0.45437">
        <ele>3028.5</ele>
        <time>2011-10-01T16:29:56.17</time>
      </trkpt>
      <trkpt lat="42.84821" lon="0.45432">
        <ele>3026.5</ele>
        <time>2011-10-01T16:29:57.19</time>
      </trkpt>
      <trkpt lat="42.84831" lon="0.45428">
        <ele>3026</ele>
        <time>2011-10-01T16:29:58.13</time>
      </trkpt>
      <trkpt lat="42.84842" lon="0.45424">
        <ele>3025.5</ele>
        <time>2011-10-01T16:29:59.13</time>
      </trkpt>
      <trkpt lat="42.84852" lon="0.45421">
        <ele>3025</ele>
        <time>2011-10-01T16:30:00.13</time>
      </trkpt>
      <trkpt lat="42.84863" lon="0.45417">
        <ele>3025</ele>
        <time>2011-10-01T16:30:01.18</time>
      </trkpt>
      <trkpt lat="42.84873" lon="0.45411">
        <ele>3022.5</ele>
        <time>2011-10-01T16:30:02.14</time>
      </trkpt>
      <trkpt lat="42.84883" lon="0.45405">
        <ele>3020.5</ele>
        <time>2011-10-01T16:30:03.14</time>
      </trkpt>
      <trkpt lat="42.84905" lon="0.45393">
        <ele>3018.5</ele>
        <time>2011-10-01T16:30:05.18</time>
      </trkpt>
      <trkpt lat="42.84927" lon="0.45383">
        <ele>3020</ele>
        <time>2011-10-01T16:30:07.12</time>
      </trkpt>
      <trkpt lat="42.84938" lon="0.45378">
        <ele>3021</ele>
        <time>2011-10-01T16:30:08.21</time>
      </trkpt>
      <trkpt lat="42.84948" lon="0.45373">
        <ele>3021.5</ele>
        <time>2011-10-01T16:30:09.19</time>
      </trkpt>
      <trkpt lat="42.84959" lon="0.45368">
        <ele>3022</ele>
        <time>2011-10-01T16:30:10.12</time>
      </trkpt>
      <trkpt lat="42.8497" lon="0.45363">
        <ele>3022</ele>
        <time>2011-10-01T16:30:11.17</time>
      </trkpt>
      <trkpt lat="42.84981" lon="0.45357">
        <ele>3022.5</ele>
        <time>2011-10-01T16:30:12.17</time>
      </trkpt>
      <trkpt lat="42.84992" lon="0.45352">
        <ele>3021.5</ele>
        <time>2011-10-01T16:30:13.12</time>
      </trkpt>
      <trkpt lat="42.85004" lon="0.45348">
        <ele>3021.5</ele>
        <time>2011-10-01T16:30:14.14</time>
      </trkpt>
      <trkpt lat="42.85015" lon="0.45343">
        <ele>3021</ele>
        <time>2011-10-01T16:30:15.12</time>
      </trkpt>
      <trkpt lat="42.85027" lon="0.4534">
        <ele>3020</ele>
        <time>2011-10-01T16:30:16.18</time>
      </trkpt>
      <trkpt lat="42.85038" lon="0.45337">
        <ele>3019</ele>
        <time>2011-10-01T16:30:17.12</time>
      </trkpt>
      <trkpt lat="42.8505" lon="0.45334">
        <ele>3018</ele>
        <time>2011-10-01T16:30:18.12</time>
      </trkpt>
      <trkpt lat="42.85062" lon="0.45332">
        <ele>3017.5</ele>
        <time>2011-10-01T16:30:19.20</time>
      </trkpt>
      <trkpt lat="42.85074" lon="0.4533">
        <ele>3017</ele>
        <time>2011-10-01T16:30:20.17</time>
      </trkpt>
      <trkpt lat="42.85086" lon="0.45329">
        <ele>3016.5</ele>
        <time>2011-10-01T16:30:21.14</time>
      </trkpt>
      <trkpt lat="42.85097" lon="0.45327">
        <ele>3016.5</ele>
        <time>2011-10-01T16:30:22.14</time>
      </trkpt>
      <trkpt lat="42.85109" lon="0.45325">
        <ele>3016</ele>
        <time>2011-10-01T16:30:23.12</time>
      </trkpt>
      <trkpt lat="42.8512" lon="0.45321">
        <ele>3015.5</ele>
        <time>2011-10-01T16:30:24.20</time>
      </trkpt>
      <trkpt lat="42.85131" lon="0.45318">
        <ele>3014.5</ele>
        <time>2011-10-01T16:30:25.12</time>
      </trkpt>
      <trkpt lat="42.85143" lon="0.45316">
        <ele>3014.5</ele>
        <time>2011-10-01T16:30:26.14</time>
      </trkpt>
      <trkpt lat="42.85155" lon="0.45318">
        <ele>3016</ele>
        <time>2011-10-01T16:30:27.20</time>
      </trkpt>
      <trkpt lat="42.85166" lon="0.45323">
        <ele>3014.5</ele>
        <time>2011-10-01T16:30:28.12</time>
      </trkpt>
      <trkpt lat="42.85176" lon="0.4533">
        <ele>3013</ele>
        <time>2011-10-01T16:30:29.13</time>
      </trkpt>
      <trkpt lat="42.85217" lon="0.45394">
        <ele>3009</ele>
        <time>2011-10-01T16:30:33.13</time>
      </trkpt>
      <trkpt lat="42.85214" lon="0.45435">
        <ele>3008.5</ele>
        <time>2011-10-01T16:30:35.20</time>
      </trkpt>
      <trkpt lat="42.8521" lon="0.45454">
        <ele>3007.5</ele>
        <time>2011-10-01T16:30:36.13</time>
      </trkpt>
      <trkpt lat="42.85203" lon="0.45469">
        <ele>3007.5</ele>
        <time>2011-10-01T16:30:37.18</time>
      </trkpt>
      <trkpt lat="42.85192" lon="0.45483">
        <ele>3007</ele>
        <time>2011-10-01T16:30:38.22</time>
      </trkpt>
      <trkpt lat="42.85178" lon="0.45489">
        <ele>3007</ele>
        <time>2011-10-01T16:30:39.20</time>
      </trkpt>
      <trkpt lat="42.85166" lon="0.45487">
        <ele>3006</ele>
        <time>2011-10-01T16:30:40.13</time>
      </trkpt>
      <trkpt lat="42.85154" lon="0.4548">
        <ele>3006</ele>
        <time>2011-10-01T16:30:41.18</time>
      </trkpt>
      <trkpt lat="42.85145" lon="0.45471">
        <ele>3006</ele>
        <time>2011-10-01T16:30:42.13</time>
      </trkpt>
      <trkpt lat="42.85138" lon="0.45462">
        <ele>3007</ele>
        <time>2011-10-01T16:30:43.13</time>
      </trkpt>
      <trkpt lat="42.85132" lon="0.45452">
        <ele>3006</ele>
        <time>2011-10-01T16:30:44.12</time>
      </trkpt>
      <trkpt lat="42.85127" lon="0.4544">
        <ele>3005.5</ele>
        <time>2011-10-01T16:30:45.12</time>
      </trkpt>
      <trkpt lat="42.85121" lon="0.45427">
        <ele>3003.5</ele>
        <time>2011-10-01T16:30:46.14</time>
      </trkpt>
      <trkpt lat="42.85114" lon="0.45415">
        <ele>3001.5</ele>
        <time>2011-10-01T16:30:47.20</time>
      </trkpt>
      <trkpt lat="42.85106" lon="0.45402">
        <ele>3000.5</ele>
        <time>2011-10-01T16:30:48.20</time>
      </trkpt>
      <trkpt lat="42.85099" lon="0.45389">
        <ele>3001</ele>
        <time>2011-10-01T16:30:49.12</time>
      </trkpt>
      <trkpt lat="42.85092" lon="0.45379">
        <ele>3000.5</ele>
        <time>2011-10-01T16:30:50.16</time>
      </trkpt>
      <trkpt lat="42.85085" lon="0.45369">
        <ele>3002</ele>
        <time>2011-10-01T16:30:51.20</time>
      </trkpt>
      <trkpt lat="42.85078" lon="0.45359">
        <ele>3002.5</ele>
        <time>2011-10-01T16:30:52.20</time>
      </trkpt>
      <trkpt lat="42.85071" lon="0.45348">
        <ele>3002</ele>
        <time>2011-10-01T16:30:53.19</time>
      </trkpt>
      <trkpt lat="42.85065" lon="0.45334">
        <ele>3001</ele>
        <time>2011-10-01T16:30:54.16</time>
      </trkpt>
      <trkpt lat="42.8506" lon="0.4532">
        <ele>3002.5</ele>
        <time>2011-10-01T16:30:55.14</time>
      </trkpt>
      <trkpt lat="42.85055" lon="0.45304">
        <ele>3002</ele>
        <time>2011-10-01T16:30:56.21</time>
      </trkpt>
      <trkpt lat="42.8505" lon="0.45289">
        <ele>3002</ele>
        <time>2011-10-01T16:30:57.19</time>
      </trkpt>
      <trkpt lat="42.85043" lon="0.45276">
        <ele>3002.5</ele>
        <time>2011-10-01T16:30:58.22</time>
      </trkpt>
      <trkpt lat="42.85036" lon="0.45264">
        <ele>3003</ele>
        <time>2011-10-01T16:30:59.12</time>
      </trkpt>
      <trkpt lat="42.85028" lon="0.45254">
        <ele>3003.5</ele>
        <time>2011-10-01T16:31:00.21</time>
      </trkpt>
      <trkpt lat="42.8502" lon="0.45244">
        <ele>3003</ele>
        <time>2011-10-01T16:31:01.18</time>
      </trkpt>
      <trkpt lat="42.85012" lon="0.45233">
        <ele>3001</ele>
        <time>2011-10-01T16:31:02.22</time>
      </trkpt>
      <trkpt lat="42.85004" lon="0.45221">
        <ele>2999.5</ele>
        <time>2011-10-01T16:31:03.19</time>
      </trkpt>
      <trkpt lat="42.84996" lon="0.45209">
        <ele>2999</ele>
        <time>2011-10-01T16:31:04.22</time>
      </trkpt>
      <trkpt lat="42.84989" lon="0.45197">
        <ele>2999.5</ele>
        <time>2011-10-01T16:31:05.14</time>
      </trkpt>
      <trkpt lat="42.84983" lon="0.45186">
        <ele>3000</ele>
        <time>2011-10-01T16:31:06.16</time>
      </trkpt>
      <trkpt lat="42.84979" lon="0.45174">
        <ele>3000.5</ele>
        <time>2011-10-01T16:31:07.12</time>
      </trkpt>
      <trkpt lat="42.84975" lon="0.45161">
        <ele>2999</ele>
        <time>2011-10-01T16:31:08.22</time>
      </trkpt>
      <trkpt lat="42.8497" lon="0.45147">
        <ele>2998</ele>
        <time>2011-10-01T16:31:09.12</time>
      </trkpt>
      <trkpt lat="42.84965" lon="0.45133">
        <ele>2997</ele>
        <time>2011-10-01T16:31:10.18</time>
      </trkpt>
      <trkpt lat="42.84961" lon="0.45119">
        <ele>2998</ele>
        <time>2011-10-01T16:31:11.14</time>
      </trkpt>
      <trkpt lat="42.84957" lon="0.45105">
        <ele>2998</ele>
        <time>2011-10-01T16:31:12.22</time>
      </trkpt>
      <trkpt lat="42.84954" lon="0.45092">
        <ele>2997.5</ele>
        <time>2011-10-01T16:31:13.20</time>
      </trkpt>
      <trkpt lat="42.84951" lon="0.45078">
        <ele>2997.5</ele>
        <time>2011-10-01T16:31:14.12</time>
      </trkpt>
      <trkpt lat="42.8495" lon="0.45064">
        <ele>2995.5</ele>
        <time>2011-10-01T16:31:15.13</time>
      </trkpt>
      <trkpt lat="42.84949" lon="0.45048">
        <ele>2995</ele>
        <time>2011-10-01T16:31:16.22</time>
      </trkpt>
      <trkpt lat="42.84949" lon="0.4503">
        <ele>2992.5</ele>
        <time>2011-10-01T16:31:17.19</time>
      </trkpt>
      <trkpt lat="42.84952" lon="0.45012">
        <ele>2991</ele>
        <time>2011-10-01T16:31:18.20</time>
      </trkpt>
      <trkpt lat="42.84957" lon="0.44997">
        <ele>2990.5</ele>
        <time>2011-10-01T16:31:19.18</time>
      </trkpt>
      <trkpt lat="42.84965" lon="0.44985">
        <ele>2989.5</ele>
        <time>2011-10-01T16:31:20.12</time>
      </trkpt>
      <trkpt lat="42.84974" lon="0.44974">
        <ele>2988</ele>
        <time>2011-10-01T16:31:21.18</time>
      </trkpt>
      <trkpt lat="42.84986" lon="0.44968">
        <ele>2987</ele>
        <time>2011-10-01T16:31:22.14</time>
      </trkpt>
      <trkpt lat="42.84999" lon="0.44966">
        <ele>2985</ele>
        <time>2011-10-01T16:31:23.12</time>
      </trkpt>
      <trkpt lat="42.85012" lon="0.44967">
        <ele>2985</ele>
        <time>2011-10-01T16:31:24.14</time>
      </trkpt>
      <trkpt lat="42.85025" lon="0.44972">
        <ele>2983.5</ele>
        <time>2011-10-01T16:31:25.12</time>
      </trkpt>
      <trkpt lat="42.85037" lon="0.44976">
        <ele>2982</ele>
        <time>2011-10-01T16:31:26.20</time>
      </trkpt>
      <trkpt lat="42.8505" lon="0.4498">
        <ele>2981.5</ele>
        <time>2011-10-01T16:31:27.12</time>
      </trkpt>
      <trkpt lat="42.85064" lon="0.44984">
        <ele>2980.5</ele>
        <time>2011-10-01T16:31:28.22</time>
      </trkpt>
      <trkpt lat="42.85078" lon="0.44986">
        <ele>2981</ele>
        <time>2011-10-01T16:31:29.12</time>
      </trkpt>
      <trkpt lat="42.8509" lon="0.44987">
        <ele>2980.5</ele>
        <time>2011-10-01T16:31:30.22</time>
      </trkpt>
      <trkpt lat="42.85101" lon="0.44987">
        <ele>2979.5</ele>
        <time>2011-10-01T16:31:31.18</time>
      </trkpt>
      <trkpt lat="42.85114" lon="0.44987">
        <ele>2979</ele>
        <time>2011-10-01T16:31:32.12</time>
      </trkpt>
      <trkpt lat="42.8516" lon="0.44985">
        <ele>2978</ele>
        <time>2011-10-01T16:31:35.18</time>
      </trkpt>
      <trkpt lat="42.85186" lon="0.4498">
        <ele>2976</ele>
        <time>2011-10-01T16:31:37.12</time>
      </trkpt>
      <trkpt lat="42.85198" lon="0.44974">
        <ele>2978</ele>
        <time>2011-10-01T16:31:38.20</time>
      </trkpt>
      <trkpt lat="42.8521" lon="0.44967">
        <ele>2977.5</ele>
        <time>2011-10-01T16:31:39.12</time>
      </trkpt>
      <trkpt lat="42.8522" lon="0.44959">
        <ele>2975.5</ele>
        <time>2011-10-01T16:31:40.13</time>
      </trkpt>
      <trkpt lat="42.85231" lon="0.44949">
        <ele>2975</ele>
        <time>2011-10-01T16:31:41.12</time>
      </trkpt>
      <trkpt lat="42.85241" lon="0.44938">
        <ele>2973.5</ele>
        <time>2011-10-01T16:31:42.22</time>
      </trkpt>
      <trkpt lat="42.85252" lon="0.44928">
        <ele>2972.5</ele>
        <time>2011-10-01T16:31:43.17</time>
      </trkpt>
      <trkpt lat="42.85263" lon="0.4492">
        <ele>2971.5</ele>
        <time>2011-10-01T16:31:44.20</time>
      </trkpt>
      <trkpt lat="42.85274" lon="0.44914">
        <ele>2971.5</ele>
        <time>2011-10-01T16:31:45.13</time>
      </trkpt>
      <trkpt lat="42.85288" lon="0.44911">
        <ele>2971.5</ele>
        <time>2011-10-01T16:31:46.17</time>
      </trkpt>
      <trkpt lat="42.853" lon="0.44911">
        <ele>2969</ele>
        <time>2011-10-01T16:31:47.13</time>
      </trkpt>
      <trkpt lat="42.85313" lon="0.44917">
        <ele>2967.5</ele>
        <time>2011-10-01T16:31:48.14</time>
      </trkpt>
      <trkpt lat="42.85325" lon="0.44928">
        <ele>2967</ele>
        <time>2011-10-01T16:31:49.12</time>
      </trkpt>
      <trkpt lat="42.85335" lon="0.44942">
        <ele>2966.5</ele>
        <time>2011-10-01T16:31:50.13</time>
      </trkpt>
      <trkpt lat="42.85334" lon="0.44963">
        <ele>2966.5</ele>
        <time>2011-10-01T16:31:51.13</time>
      </trkpt>
      <trkpt lat="42.85288" lon="0.44989">
        <ele>2965</ele>
        <time>2011-10-01T16:31:56.13</time>
      </trkpt>
      <trkpt lat="42.85272" lon="0.44953">
        <ele>2964</ele>
        <time>2011-10-01T16:31:59.14</time>
      </trkpt>
      <trkpt lat="42.8527" lon="0.44938">
        <ele>2961.5</ele>
        <time>2011-10-01T16:32:00.12</time>
      </trkpt>
      <trkpt lat="42.85267" lon="0.44922">
        <ele>2959</ele>
        <time>2011-10-01T16:32:01.12</time>
      </trkpt>
      <trkpt lat="42.85264" lon="0.44907">
        <ele>2957.5</ele>
        <time>2011-10-01T16:32:02.12</time>
      </trkpt>
      <trkpt lat="42.85261" lon="0.44892">
        <ele>2956</ele>
        <time>2011-10-01T16:32:03.12</time>
      </trkpt>
      <trkpt lat="42.85257" lon="0.44877">
        <ele>2955.5</ele>
        <time>2011-10-01T16:32:04.12</time>
      </trkpt>
      <trkpt lat="42.85251" lon="0.44863">
        <ele>2953.5</ele>
        <time>2011-10-01T16:32:05.12</time>
      </trkpt>
      <trkpt lat="42.85244" lon="0.4485">
        <ele>2951.5</ele>
        <time>2011-10-01T16:32:06.12</time>
      </trkpt>
      <trkpt lat="42.85236" lon="0.44838">
        <ele>2951.5</ele>
        <time>2011-10-01T16:32:07.13</time>
      </trkpt>
      <trkpt lat="42.85227" lon="0.44826">
        <ele>2949.5</ele>
        <time>2011-10-01T16:32:08.12</time>
      </trkpt>
      <trkpt lat="42.85216" lon="0.44816">
        <ele>2949.5</ele>
        <time>2011-10-01T16:32:09.12</time>
      </trkpt>
      <trkpt lat="42.85205" lon="0.44808">
        <ele>2948.5</ele>
        <time>2011-10-01T16:32:10.12</time>
      </trkpt>
      <trkpt lat="42.85194" lon="0.448">
        <ele>2947</ele>
        <time>2011-10-01T16:32:11.12</time>
      </trkpt>
      <trkpt lat="42.85184" lon="0.44793">
        <ele>2946</ele>
        <time>2011-10-01T16:32:12.12</time>
      </trkpt>
      <trkpt lat="42.85173" lon="0.44787">
        <ele>2944.5</ele>
        <time>2011-10-01T16:32:13.12</time>
      </trkpt>
      <trkpt lat="42.85163" lon="0.44781">
        <ele>2943</ele>
        <time>2011-10-01T16:32:14.12</time>
      </trkpt>
      <trkpt lat="42.85151" lon="0.44775">
        <ele>2940.5</ele>
        <time>2011-10-01T16:32:15.12</time>
      </trkpt>
      <trkpt lat="42.85139" lon="0.44772">
        <ele>2938</ele>
        <time>2011-10-01T16:32:16.12</time>
      </trkpt>
      <trkpt lat="42.85127" lon="0.44771">
        <ele>2936</ele>
        <time>2011-10-01T16:32:17.12</time>
      </trkpt>
      <trkpt lat="42.85116" lon="0.44775">
        <ele>2935.5</ele>
        <time>2011-10-01T16:32:18.12</time>
      </trkpt>
      <trkpt lat="42.85104" lon="0.44778">
        <ele>2934.5</ele>
        <time>2011-10-01T16:32:19.12</time>
      </trkpt>
      <trkpt lat="42.85093" lon="0.44783">
        <ele>2933</ele>
        <time>2011-10-01T16:32:20.12</time>
      </trkpt>
      <trkpt lat="42.85082" lon="0.44789">
        <ele>2931.5</ele>
        <time>2011-10-01T16:32:21.12</time>
      </trkpt>
      <trkpt lat="42.85071" lon="0.44795">
        <ele>2929.5</ele>
        <time>2011-10-01T16:32:22.12</time>
      </trkpt>
      <trkpt lat="42.8506" lon="0.44802">
        <ele>2927.5</ele>
        <time>2011-10-01T16:32:23.12</time>
      </trkpt>
      <trkpt lat="42.85049" lon="0.44808">
        <ele>2925.5</ele>
        <time>2011-10-01T16:32:24.12</time>
      </trkpt>
      <trkpt lat="42.85037" lon="0.44813">
        <ele>2924.5</ele>
        <time>2011-10-01T16:32:25.12</time>
      </trkpt>
      <trkpt lat="42.85026" lon="0.44818">
        <ele>2923.5</ele>
        <time>2011-10-01T16:32:26.12</time>
      </trkpt>
      <trkpt lat="42.85014" lon="0.44821">
        <ele>2923</ele>
        <time>2011-10-01T16:32:27.12</time>
      </trkpt>
      <trkpt lat="42.85003" lon="0.44824">
        <ele>2922</ele>
        <time>2011-10-01T16:32:28.12</time>
      </trkpt>
      <trkpt lat="42.84992" lon="0.44828">
        <ele>2920.5</ele>
        <time>2011-10-01T16:32:29.12</time>
      </trkpt>
      <trkpt lat="42.84981" lon="0.4483">
        <ele>2919.5</ele>
        <time>2011-10-01T16:32:30.12</time>
      </trkpt>
      <trkpt lat="42.84969" lon="0.44833">
        <ele>2917.5</ele>
        <time>2011-10-01T16:32:31.12</time>
      </trkpt>
      <trkpt lat="42.84957" lon="0.44836">
        <ele>2915</ele>
        <time>2011-10-01T16:32:32.12</time>
      </trkpt>
      <trkpt lat="42.84944" lon="0.4484">
        <ele>2914.5</ele>
        <time>2011-10-01T16:32:33.12</time>
      </trkpt>
      <trkpt lat="42.84932" lon="0.44844">
        <ele>2912.5</ele>
        <time>2011-10-01T16:32:34.12</time>
      </trkpt>
      <trkpt lat="42.8492" lon="0.44848">
        <ele>2911.5</ele>
        <time>2011-10-01T16:32:35.12</time>
      </trkpt>
      <trkpt lat="42.84909" lon="0.44852">
        <ele>2910.5</ele>
        <time>2011-10-01T16:32:36.12</time>
      </trkpt>
      <trkpt lat="42.84898" lon="0.44857">
        <ele>2908.5</ele>
        <time>2011-10-01T16:32:37.12</time>
      </trkpt>
      <trkpt lat="42.84886" lon="0.44863">
        <ele>2906.5</ele>
        <time>2011-10-01T16:32:38.13</time>
      </trkpt>
      <trkpt lat="42.84875" lon="0.4487">
        <ele>2905.5</ele>
        <time>2011-10-01T16:32:39.12</time>
      </trkpt>
      <trkpt lat="42.84864" lon="0.44876">
        <ele>2904.5</ele>
        <time>2011-10-01T16:32:40.12</time>
      </trkpt>
      <trkpt lat="42.84853" lon="0.44882">
        <ele>2903</ele>
        <time>2011-10-01T16:32:41.12</time>
      </trkpt>
      <trkpt lat="42.84842" lon="0.44888">
        <ele>2902.5</ele>
        <time>2011-10-01T16:32:42.12</time>
      </trkpt>
      <trkpt lat="42.84831" lon="0.44894">
        <ele>2901.5</ele>
        <time>2011-10-01T16:32:43.12</time>
      </trkpt>
      <trkpt lat="42.8482" lon="0.44898">
        <ele>2901</ele>
        <time>2011-10-01T16:32:44.12</time>
      </trkpt>
      <trkpt lat="42.84809" lon="0.44903">
        <ele>2900.5</ele>
        <time>2011-10-01T16:32:45.12</time>
      </trkpt>
      <trkpt lat="42.84797" lon="0.44906">
        <ele>2900</ele>
        <time>2011-10-01T16:32:46.12</time>
      </trkpt>
      <trkpt lat="42.84785" lon="0.44909">
        <ele>2898</ele>
        <time>2011-10-01T16:32:47.12</time>
      </trkpt>
      <trkpt lat="42.84775" lon="0.44911">
        <ele>2896.5</ele>
        <time>2011-10-01T16:32:48.12</time>
      </trkpt>
      <trkpt lat="42.84764" lon="0.44914">
        <ele>2894.5</ele>
        <time>2011-10-01T16:32:49.12</time>
      </trkpt>
      <trkpt lat="42.84753" lon="0.44916">
        <ele>2894</ele>
        <time>2011-10-01T16:32:50.12</time>
      </trkpt>
      <trkpt lat="42.84742" lon="0.44918">
        <ele>2893.5</ele>
        <time>2011-10-01T16:32:51.12</time>
      </trkpt>
      <trkpt lat="42.8473" lon="0.44919">
        <ele>2891.5</ele>
        <time>2011-10-01T16:32:52.12</time>
      </trkpt>
      <trkpt lat="42.84718" lon="0.44919">
        <ele>2891</ele>
        <time>2011-10-01T16:32:53.12</time>
      </trkpt>
      <trkpt lat="42.84707" lon="0.44917">
        <ele>2890.5</ele>
        <time>2011-10-01T16:32:54.12</time>
      </trkpt>
      <trkpt lat="42.84697" lon="0.44914">
        <ele>2890</ele>
        <time>2011-10-01T16:32:55.12</time>
      </trkpt>
      <trkpt lat="42.84688" lon="0.44908">
        <ele>2888</ele>
        <time>2011-10-01T16:32:56.12</time>
      </trkpt>
      <trkpt lat="42.84679" lon="0.44898">
        <ele>2886.5</ele>
        <time>2011-10-01T16:32:57.12</time>
      </trkpt>
      <trkpt lat="42.8467" lon="0.44885">
        <ele>2886</ele>
        <time>2011-10-01T16:32:58.63</time>
      </trkpt>
      <trkpt lat="42.84651" lon="0.44862">
        <ele>2883.5</ele>
        <time>2011-10-01T16:33:00.12</time>
      </trkpt>
      <trkpt lat="42.84642" lon="0.44853">
        <ele>2883</ele>
        <time>2011-10-01T16:33:01.12</time>
      </trkpt>
      <trkpt lat="42.84632" lon="0.44847">
        <ele>2881</ele>
        <time>2011-10-01T16:33:02.13</time>
      </trkpt>
      <trkpt lat="42.84621" lon="0.44842">
        <ele>2880</ele>
        <time>2011-10-01T16:33:03.14</time>
      </trkpt>
      <trkpt lat="42.84582" lon="0.44845">
        <ele>2880</ele>
        <time>2011-10-01T16:33:07.89</time>
      </trkpt>
      <trkpt lat="42.84528" lon="0.44854">
        <ele>2876.5</ele>
        <time>2011-10-01T16:33:11.14</time>
      </trkpt>
      <trkpt lat="42.84516" lon="0.44854">
        <ele>2875</ele>
        <time>2011-10-01T16:33:12.13</time>
      </trkpt>
      <trkpt lat="42.84505" lon="0.44853">
        <ele>2873.5</ele>
        <time>2011-10-01T16:33:13.13</time>
      </trkpt>
      <trkpt lat="42.84493" lon="0.44853">
        <ele>2871.5</ele>
        <time>2011-10-01T16:33:14.13</time>
      </trkpt>
      <trkpt lat="42.84483" lon="0.44852">
        <ele>2869</ele>
        <time>2011-10-01T16:33:15.13</time>
      </trkpt>
      <trkpt lat="42.84472" lon="0.44851">
        <ele>2868.5</ele>
        <time>2011-10-01T16:33:16.13</time>
      </trkpt>
      <trkpt lat="42.8446" lon="0.4485">
        <ele>2866</ele>
        <time>2011-10-01T16:33:17.12</time>
      </trkpt>
      <trkpt lat="42.84448" lon="0.44848">
        <ele>2863.5</ele>
        <time>2011-10-01T16:33:18.13</time>
      </trkpt>
      <trkpt lat="42.84436" lon="0.44845">
        <ele>2862</ele>
        <time>2011-10-01T16:33:19.12</time>
      </trkpt>
      <trkpt lat="42.84425" lon="0.44843">
        <ele>2860.5</ele>
        <time>2011-10-01T16:33:20.12</time>
      </trkpt>
      <trkpt lat="42.84415" lon="0.44838">
        <ele>2857.5</ele>
        <time>2011-10-01T16:33:21.13</time>
      </trkpt>
      <trkpt lat="42.84404" lon="0.44833">
        <ele>2855.5</ele>
        <time>2011-10-01T16:33:22.12</time>
      </trkpt>
      <trkpt lat="42.84393" lon="0.44828">
        <ele>2852.5</ele>
        <time>2011-10-01T16:33:23.13</time>
      </trkpt>
      <trkpt lat="42.84382" lon="0.44822">
        <ele>2849.5</ele>
        <time>2011-10-01T16:33:24.12</time>
      </trkpt>
      <trkpt lat="42.84372" lon="0.44815">
        <ele>2848</ele>
        <time>2011-10-01T16:33:25.13</time>
      </trkpt>
      <trkpt lat="42.84362" lon="0.44808">
        <ele>2845.5</ele>
        <time>2011-10-01T16:33:26.12</time>
      </trkpt>
      <trkpt lat="42.84353" lon="0.448">
        <ele>2843.5</ele>
        <time>2011-10-01T16:33:27.12</time>
      </trkpt>
      <trkpt lat="42.84345" lon="0.44792">
        <ele>2841.5</ele>
        <time>2011-10-01T16:33:28.13</time>
      </trkpt>
      <trkpt lat="42.84337" lon="0.44783">
        <ele>2838.5</ele>
        <time>2011-10-01T16:33:29.12</time>
      </trkpt>
      <trkpt lat="42.8433" lon="0.44773">
        <ele>2837</ele>
        <time>2011-10-01T16:33:30.13</time>
      </trkpt>
      <trkpt lat="42.84323" lon="0.44762">
        <ele>2835</ele>
        <time>2011-10-01T16:33:31.13</time>
      </trkpt>
      <trkpt lat="42.84316" lon="0.4475">
        <ele>2833</ele>
        <time>2011-10-01T16:33:32.12</time>
      </trkpt>
      <trkpt lat="42.84309" lon="0.44738">
        <ele>2830.5</ele>
        <time>2011-10-01T16:33:33.12</time>
      </trkpt>
      <trkpt lat="42.84302" lon="0.44726">
        <ele>2828.5</ele>
        <time>2011-10-01T16:33:34.13</time>
      </trkpt>
      <trkpt lat="42.84296" lon="0.44716">
        <ele>2827.5</ele>
        <time>2011-10-01T16:33:35.13</time>
      </trkpt>
      <trkpt lat="42.84289" lon="0.44706">
        <ele>2825</ele>
        <time>2011-10-01T16:33:36.12</time>
      </trkpt>
      <trkpt lat="42.84282" lon="0.44697">
        <ele>2823</ele>
        <time>2011-10-01T16:33:37.13</time>
      </trkpt>
      <trkpt lat="42.84274" lon="0.44687">
        <ele>2820.5</ele>
        <time>2011-10-01T16:33:38.13</time>
      </trkpt>
      <trkpt lat="42.84267" lon="0.44676">
        <ele>2818</ele>
        <time>2011-10-01T16:33:39.13</time>
      </trkpt>
      <trkpt lat="42.84259" lon="0.44665">
        <ele>2816.5</ele>
        <time>2011-10-01T16:33:40.12</time>
      </trkpt>
      <trkpt lat="42.84251" lon="0.44654">
        <ele>2815.5</ele>
        <time>2011-10-01T16:33:41.12</time>
      </trkpt>
      <trkpt lat="42.84245" lon="0.44644">
        <ele>2814.5</ele>
        <time>2011-10-01T16:33:42.13</time>
      </trkpt>
      <trkpt lat="42.84238" lon="0.44634">
        <ele>2813</ele>
        <time>2011-10-01T16:33:43.13</time>
      </trkpt>
      <trkpt lat="42.84232" lon="0.44624">
        <ele>2811.5</ele>
        <time>2011-10-01T16:33:44.13</time>
      </trkpt>
      <trkpt lat="42.84226" lon="0.44613">
        <ele>2810</ele>
        <time>2011-10-01T16:33:45.13</time>
      </trkpt>
      <trkpt lat="42.84219" lon="0.44603">
        <ele>2808.5</ele>
        <time>2011-10-01T16:33:46.13</time>
      </trkpt>
      <trkpt lat="42.84213" lon="0.44592">
        <ele>2807</ele>
        <time>2011-10-01T16:33:47.12</time>
      </trkpt>
      <trkpt lat="42.84206" lon="0.44582">
        <ele>2805.5</ele>
        <time>2011-10-01T16:33:48.13</time>
      </trkpt>
      <trkpt lat="42.842" lon="0.44572">
        <ele>2805</ele>
        <time>2011-10-01T16:33:49.13</time>
      </trkpt>
      <trkpt lat="42.84193" lon="0.44562">
        <ele>2805.5</ele>
        <time>2011-10-01T16:33:50.12</time>
      </trkpt>
      <trkpt lat="42.84187" lon="0.44553">
        <ele>2805</ele>
        <time>2011-10-01T16:33:51.13</time>
      </trkpt>
      <trkpt lat="42.84181" lon="0.44545">
        <ele>2804.5</ele>
        <time>2011-10-01T16:33:52.13</time>
      </trkpt>
      <trkpt lat="42.84167" lon="0.44524">
        <ele>2803</ele>
        <time>2011-10-01T16:33:54.12</time>
      </trkpt>
      <trkpt lat="42.8416" lon="0.44514">
        <ele>2802.5</ele>
        <time>2011-10-01T16:33:55.13</time>
      </trkpt>
      <trkpt lat="42.84151" lon="0.44505">
        <ele>2800.5</ele>
        <time>2011-10-01T16:33:56.12</time>
      </trkpt>
      <trkpt lat="42.84142" lon="0.44498">
        <ele>2798.5</ele>
        <time>2011-10-01T16:33:57.13</time>
      </trkpt>
      <trkpt lat="42.84133" lon="0.44493">
        <ele>2796.5</ele>
        <time>2011-10-01T16:33:58.13</time>
      </trkpt>
      <trkpt lat="42.84123" lon="0.4449">
        <ele>2794</ele>
        <time>2011-10-01T16:33:59.13</time>
      </trkpt>
      <trkpt lat="42.84113" lon="0.44488">
        <ele>2792.5</ele>
        <time>2011-10-01T16:34:00.12</time>
      </trkpt>
      <trkpt lat="42.84103" lon="0.44487">
        <ele>2792</ele>
        <time>2011-10-01T16:34:01.13</time>
      </trkpt>
      <trkpt lat="42.84093" lon="0.44486">
        <ele>2789.5</ele>
        <time>2011-10-01T16:34:02.13</time>
      </trkpt>
      <trkpt lat="42.84082" lon="0.44483">
        <ele>2787</ele>
        <time>2011-10-01T16:34:03.13</time>
      </trkpt>
      <trkpt lat="42.84072" lon="0.44481">
        <ele>2785</ele>
        <time>2011-10-01T16:34:04.13</time>
      </trkpt>
      <trkpt lat="42.84062" lon="0.44477">
        <ele>2783.5</ele>
        <time>2011-10-01T16:34:05.13</time>
      </trkpt>
      <trkpt lat="42.84052" lon="0.44473">
        <ele>2782</ele>
        <time>2011-10-01T16:34:06.13</time>
      </trkpt>
      <trkpt lat="42.84043" lon="0.44468">
        <ele>2780</ele>
        <time>2011-10-01T16:34:07.13</time>
      </trkpt>
      <trkpt lat="42.84034" lon="0.44461">
        <ele>2778.5</ele>
        <time>2011-10-01T16:34:08.13</time>
      </trkpt>
      <trkpt lat="42.84025" lon="0.44453">
        <ele>2778.5</ele>
        <time>2011-10-01T16:34:09.13</time>
      </trkpt>
      <trkpt lat="42.84017" lon="0.44443">
        <ele>2776.5</ele>
        <time>2011-10-01T16:34:10.12</time>
      </trkpt>
      <trkpt lat="42.84009" lon="0.44433">
        <ele>2774.5</ele>
        <time>2011-10-01T16:34:11.13</time>
      </trkpt>
      <trkpt lat="42.84003" lon="0.44421">
        <ele>2772.5</ele>
        <time>2011-10-01T16:34:12.12</time>
      </trkpt>
      <trkpt lat="42.83997" lon="0.44409">
        <ele>2770.5</ele>
        <time>2011-10-01T16:34:13.13</time>
      </trkpt>
      <trkpt lat="42.83993" lon="0.44396">
        <ele>2769.5</ele>
        <time>2011-10-01T16:34:14.13</time>
      </trkpt>
      <trkpt lat="42.83989" lon="0.44383">
        <ele>2769</ele>
        <time>2011-10-01T16:34:15.13</time>
      </trkpt>
      <trkpt lat="42.83986" lon="0.44369">
        <ele>2768</ele>
        <time>2011-10-01T16:34:16.13</time>
      </trkpt>
      <trkpt lat="42.83982" lon="0.44355">
        <ele>2767.5</ele>
        <time>2011-10-01T16:34:17.12</time>
      </trkpt>
      <trkpt lat="42.83978" lon="0.44341">
        <ele>2765</ele>
        <time>2011-10-01T16:34:18.13</time>
      </trkpt>
      <trkpt lat="42.83973" lon="0.44328">
        <ele>2764</ele>
        <time>2011-10-01T16:34:19.13</time>
      </trkpt>
      <trkpt lat="42.83968" lon="0.44316">
        <ele>2762.5</ele>
        <time>2011-10-01T16:34:20.13</time>
      </trkpt>
      <trkpt lat="42.83963" lon="0.44305">
        <ele>2761</ele>
        <time>2011-10-01T16:34:21.13</time>
      </trkpt>
      <trkpt lat="42.83956" lon="0.44294">
        <ele>2759</ele>
        <time>2011-10-01T16:34:22.13</time>
      </trkpt>
      <trkpt lat="42.83949" lon="0.44283">
        <ele>2757.5</ele>
        <time>2011-10-01T16:34:23.12</time>
      </trkpt>
      <trkpt lat="42.83939" lon="0.44274">
        <ele>2756.5</ele>
        <time>2011-10-01T16:34:24.13</time>
      </trkpt>
      <trkpt lat="42.83931" lon="0.44266">
        <ele>2756</ele>
        <time>2011-10-01T16:34:25.13</time>
      </trkpt>
      <trkpt lat="42.83924" lon="0.44258">
        <ele>2755</ele>
        <time>2011-10-01T16:34:26.13</time>
      </trkpt>
      <trkpt lat="42.83916" lon="0.44249">
        <ele>2753.5</ele>
        <time>2011-10-01T16:34:27.13</time>
      </trkpt>
      <trkpt lat="42.83908" lon="0.4424">
        <ele>2751</ele>
        <time>2011-10-01T16:34:28.13</time>
      </trkpt>
      <trkpt lat="42.83899" lon="0.4423">
        <ele>2749.5</ele>
        <time>2011-10-01T16:34:29.13</time>
      </trkpt>
      <trkpt lat="42.83891" lon="0.44219">
        <ele>2748.5</ele>
        <time>2011-10-01T16:34:30.13</time>
      </trkpt>
      <trkpt lat="42.83884" lon="0.44208">
        <ele>2748</ele>
        <time>2011-10-01T16:34:31.13</time>
      </trkpt>
      <trkpt lat="42.83878" lon="0.44196">
        <ele>2746</ele>
        <time>2011-10-01T16:34:32.13</time>
      </trkpt>
      <trkpt lat="42.83872" lon="0.44184">
        <ele>2744</ele>
        <time>2011-10-01T16:34:33.13</time>
      </trkpt>
      <trkpt lat="42.83869" lon="0.44171">
        <ele>2745</ele>
        <time>2011-10-01T16:34:34.13</time>
      </trkpt>
      <trkpt lat="42.83866" lon="0.44157">
        <ele>2743</ele>
        <time>2011-10-01T16:34:35.13</time>
      </trkpt>
      <trkpt lat="42.83864" lon="0.44141">
        <ele>2740</ele>
        <time>2011-10-01T16:34:36.13</time>
      </trkpt>
      <trkpt lat="42.83863" lon="0.44125">
        <ele>2737.5</ele>
        <time>2011-10-01T16:34:37.12</time>
      </trkpt>
      <trkpt lat="42.83862" lon="0.44108">
        <ele>2735</ele>
        <time>2011-10-01T16:34:38.12</time>
      </trkpt>
      <trkpt lat="42.83862" lon="0.44091">
        <ele>2733</ele>
        <time>2011-10-01T16:34:39.13</time>
      </trkpt>
      <trkpt lat="42.83862" lon="0.44075">
        <ele>2731.5</ele>
        <time>2011-10-01T16:34:40.13</time>
      </trkpt>
      <trkpt lat="42.83862" lon="0.4406">
        <ele>2730.5</ele>
        <time>2011-10-01T16:34:41.13</time>
      </trkpt>
      <trkpt lat="42.83861" lon="0.44044">
        <ele>2728.5</ele>
        <time>2011-10-01T16:34:42.13</time>
      </trkpt>
      <trkpt lat="42.8386" lon="0.44029">
        <ele>2726.5</ele>
        <time>2011-10-01T16:34:43.13</time>
      </trkpt>
      <trkpt lat="42.83859" lon="0.44014">
        <ele>2724.5</ele>
        <time>2011-10-01T16:34:44.12</time>
      </trkpt>
      <trkpt lat="42.83857" lon="0.43998">
        <ele>2723</ele>
        <time>2011-10-01T16:34:45.13</time>
      </trkpt>
      <trkpt lat="42.83854" lon="0.43984">
        <ele>2722</ele>
        <time>2011-10-01T16:34:46.13</time>
      </trkpt>
      <trkpt lat="42.8385" lon="0.4397">
        <ele>2720.5</ele>
        <time>2011-10-01T16:34:47.13</time>
      </trkpt>
      <trkpt lat="42.83846" lon="0.43957">
        <ele>2720.5</ele>
        <time>2011-10-01T16:34:48.13</time>
      </trkpt>
      <trkpt lat="42.8384" lon="0.43945">
        <ele>2718</ele>
        <time>2011-10-01T16:34:49.14</time>
      </trkpt>
      <trkpt lat="42.83834" lon="0.43933">
        <ele>2716</ele>
        <time>2011-10-01T16:34:50.13</time>
      </trkpt>
      <trkpt lat="42.83826" lon="0.43922">
        <ele>2714.5</ele>
        <time>2011-10-01T16:34:51.13</time>
      </trkpt>
      <trkpt lat="42.83819" lon="0.43912">
        <ele>2713</ele>
        <time>2011-10-01T16:34:52.13</time>
      </trkpt>
      <trkpt lat="42.83811" lon="0.43902">
        <ele>2711</ele>
        <time>2011-10-01T16:34:53.12</time>
      </trkpt>
      <trkpt lat="42.83802" lon="0.43894">
        <ele>2709</ele>
        <time>2011-10-01T16:34:54.13</time>
      </trkpt>
      <trkpt lat="42.83793" lon="0.43886">
        <ele>2707</ele>
        <time>2011-10-01T16:34:55.13</time>
      </trkpt>
      <trkpt lat="42.83784" lon="0.43878">
        <ele>2706.5</ele>
        <time>2011-10-01T16:34:56.13</time>
      </trkpt>
      <trkpt lat="42.83775" lon="0.4387">
        <ele>2704.5</ele>
        <time>2011-10-01T16:34:57.13</time>
      </trkpt>
      <trkpt lat="42.83765" lon="0.43863">
        <ele>2703.5</ele>
        <time>2011-10-01T16:34:58.13</time>
      </trkpt>
      <trkpt lat="42.83756" lon="0.43856">
        <ele>2702.5</ele>
        <time>2011-10-01T16:34:59.13</time>
      </trkpt>
      <trkpt lat="42.83747" lon="0.43849">
        <ele>2700.5</ele>
        <time>2011-10-01T16:35:00.12</time>
      </trkpt>
      <trkpt lat="42.83738" lon="0.43842">
        <ele>2700</ele>
        <time>2011-10-01T16:35:01.13</time>
      </trkpt>
      <trkpt lat="42.83729" lon="0.43835">
        <ele>2698</ele>
        <time>2011-10-01T16:35:02.12</time>
      </trkpt>
      <trkpt lat="42.83719" lon="0.43828">
        <ele>2696.5</ele>
        <time>2011-10-01T16:35:03.14</time>
      </trkpt>
      <trkpt lat="42.8371" lon="0.43821">
        <ele>2695</ele>
        <time>2011-10-01T16:35:04.13</time>
      </trkpt>
      <trkpt lat="42.83702" lon="0.43813">
        <ele>2693</ele>
        <time>2011-10-01T16:35:05.13</time>
      </trkpt>
      <trkpt lat="42.83694" lon="0.43805">
        <ele>2693</ele>
        <time>2011-10-01T16:35:06.13</time>
      </trkpt>
      <trkpt lat="42.83687" lon="0.43798">
        <ele>2693</ele>
        <time>2011-10-01T16:35:07.14</time>
      </trkpt>
      <trkpt lat="42.83679" lon="0.43789">
        <ele>2692.5</ele>
        <time>2011-10-01T16:35:08.14</time>
      </trkpt>
      <trkpt lat="42.83671" lon="0.43778">
        <ele>2692.5</ele>
        <time>2011-10-01T16:35:09.14</time>
      </trkpt>
      <trkpt lat="42.83663" lon="0.43765">
        <ele>2692</ele>
        <time>2011-10-01T16:35:10.12</time>
      </trkpt>
      <trkpt lat="42.83656" lon="0.43752">
        <ele>2691.5</ele>
        <time>2011-10-01T16:35:11.13</time>
      </trkpt>
      <trkpt lat="42.83652" lon="0.43738">
        <ele>2689</ele>
        <time>2011-10-01T16:35:12.13</time>
      </trkpt>
      <trkpt lat="42.83649" lon="0.43723">
        <ele>2688</ele>
        <time>2011-10-01T16:35:13.13</time>
      </trkpt>
      <trkpt lat="42.83647" lon="0.43707">
        <ele>2686.5</ele>
        <time>2011-10-01T16:35:14.14</time>
      </trkpt>
      <trkpt lat="42.83638" lon="0.43673">
        <ele>2683.5</ele>
        <time>2011-10-01T16:35:16.12</time>
      </trkpt>
      <trkpt lat="42.83633" lon="0.43658">
        <ele>2683</ele>
        <time>2011-10-01T16:35:17.13</time>
      </trkpt>
      <trkpt lat="42.83628" lon="0.43646">
        <ele>2682</ele>
        <time>2011-10-01T16:35:18.13</time>
      </trkpt>
      <trkpt lat="42.83622" lon="0.43634">
        <ele>2682</ele>
        <time>2011-10-01T16:35:19.14</time>
      </trkpt>
      <trkpt lat="42.83614" lon="0.43623">
        <ele>2681.5</ele>
        <time>2011-10-01T16:35:20.14</time>
      </trkpt>
      <trkpt lat="42.83605" lon="0.43611">
        <ele>2681</ele>
        <time>2011-10-01T16:35:21.13</time>
      </trkpt>
      <trkpt lat="42.83596" lon="0.43601">
        <ele>2680</ele>
        <time>2011-10-01T16:35:22.14</time>
      </trkpt>
      <trkpt lat="42.83588" lon="0.43591">
        <ele>2679</ele>
        <time>2011-10-01T16:35:23.13</time>
      </trkpt>
      <trkpt lat="42.8358" lon="0.43581">
        <ele>2677</ele>
        <time>2011-10-01T16:35:24.12</time>
      </trkpt>
      <trkpt lat="42.83573" lon="0.43571">
        <ele>2675.5</ele>
        <time>2011-10-01T16:35:25.12</time>
      </trkpt>
      <trkpt lat="42.83565" lon="0.43559">
        <ele>2675</ele>
        <time>2011-10-01T16:35:26.13</time>
      </trkpt>
      <trkpt lat="42.83557" lon="0.43548">
        <ele>2673</ele>
        <time>2011-10-01T16:35:27.13</time>
      </trkpt>
      <trkpt lat="42.83549" lon="0.43536">
        <ele>2673</ele>
        <time>2011-10-01T16:35:28.13</time>
      </trkpt>
      <trkpt lat="42.83542" lon="0.43524">
        <ele>2672</ele>
        <time>2011-10-01T16:35:29.13</time>
      </trkpt>
      <trkpt lat="42.83536" lon="0.43513">
        <ele>2670.5</ele>
        <time>2011-10-01T16:35:30.13</time>
      </trkpt>
      <trkpt lat="42.8353" lon="0.43501">
        <ele>2668.5</ele>
        <time>2011-10-01T16:35:31.13</time>
      </trkpt>
      <trkpt lat="42.83525" lon="0.43488">
        <ele>2668</ele>
        <time>2011-10-01T16:35:32.12</time>
      </trkpt>
      <trkpt lat="42.83519" lon="0.43474">
        <ele>2665</ele>
        <time>2011-10-01T16:35:33.13</time>
      </trkpt>
      <trkpt lat="42.83513" lon="0.4346">
        <ele>2663</ele>
        <time>2011-10-01T16:35:34.13</time>
      </trkpt>
      <trkpt lat="42.83508" lon="0.43447">
        <ele>2661.5</ele>
        <time>2011-10-01T16:35:35.12</time>
      </trkpt>
      <trkpt lat="42.83503" lon="0.43434">
        <ele>2660</ele>
        <time>2011-10-01T16:35:36.13</time>
      </trkpt>
      <trkpt lat="42.835" lon="0.43421">
        <ele>2658</ele>
        <time>2011-10-01T16:35:37.13</time>
      </trkpt>
      <trkpt lat="42.83496" lon="0.43408">
        <ele>2655</ele>
        <time>2011-10-01T16:35:38.14</time>
      </trkpt>
      <trkpt lat="42.83494" lon="0.43394">
        <ele>2653.5</ele>
        <time>2011-10-01T16:35:39.13</time>
      </trkpt>
      <trkpt lat="42.83492" lon="0.43379">
        <ele>2651.5</ele>
        <time>2011-10-01T16:35:40.12</time>
      </trkpt>
      <trkpt lat="42.83489" lon="0.43363">
        <ele>2650</ele>
        <time>2011-10-01T16:35:41.12</time>
      </trkpt>
      <trkpt lat="42.83486" lon="0.43348">
        <ele>2647</ele>
        <time>2011-10-01T16:35:42.13</time>
      </trkpt>
      <trkpt lat="42.83483" lon="0.43332">
        <ele>2644.5</ele>
        <time>2011-10-01T16:35:43.13</time>
      </trkpt>
      <trkpt lat="42.83479" lon="0.43317">
        <ele>2642.5</ele>
        <time>2011-10-01T16:35:44.13</time>
      </trkpt>
      <trkpt lat="42.83476" lon="0.43303">
        <ele>2641</ele>
        <time>2011-10-01T16:35:45.13</time>
      </trkpt>
      <trkpt lat="42.83472" lon="0.4329">
        <ele>2639.5</ele>
        <time>2011-10-01T16:35:46.13</time>
      </trkpt>
      <trkpt lat="42.83468" lon="0.43277">
        <ele>2638</ele>
        <time>2011-10-01T16:35:47.12</time>
      </trkpt>
      <trkpt lat="42.83463" lon="0.43265">
        <ele>2636</ele>
        <time>2011-10-01T16:35:48.12</time>
      </trkpt>
      <trkpt lat="42.83458" lon="0.43253">
        <ele>2636</ele>
        <time>2011-10-01T16:35:49.13</time>
      </trkpt>
      <trkpt lat="42.83452" lon="0.43241">
        <ele>2635.5</ele>
        <time>2011-10-01T16:35:50.12</time>
      </trkpt>
      <trkpt lat="42.83446" lon="0.43228">
        <ele>2634.5</ele>
        <time>2011-10-01T16:35:51.13</time>
      </trkpt>
      <trkpt lat="42.83439" lon="0.43216">
        <ele>2632.5</ele>
        <time>2011-10-01T16:35:52.13</time>
      </trkpt>
      <trkpt lat="42.83432" lon="0.43204">
        <ele>2631.5</ele>
        <time>2011-10-01T16:35:53.13</time>
      </trkpt>
      <trkpt lat="42.83425" lon="0.43192">
        <ele>2630</ele>
        <time>2011-10-01T16:35:54.13</time>
      </trkpt>
      <trkpt lat="42.83419" lon="0.43181">
        <ele>2629</ele>
        <time>2011-10-01T16:35:55.13</time>
      </trkpt>
      <trkpt lat="42.83413" lon="0.4317">
        <ele>2627</ele>
        <time>2011-10-01T16:35:56.12</time>
      </trkpt>
      <trkpt lat="42.83407" lon="0.43158">
        <ele>2625</ele>
        <time>2011-10-01T16:35:57.12</time>
      </trkpt>
      <trkpt lat="42.83401" lon="0.43146">
        <ele>2622.5</ele>
        <time>2011-10-01T16:35:58.13</time>
      </trkpt>
      <trkpt lat="42.83395" lon="0.43133">
        <ele>2620.5</ele>
        <time>2011-10-01T16:35:59.13</time>
      </trkpt>
      <trkpt lat="42.83389" lon="0.43121">
        <ele>2619.5</ele>
        <time>2011-10-01T16:36:00.13</time>
      </trkpt>
      <trkpt lat="42.83384" lon="0.43109">
        <ele>2618.5</ele>
        <time>2011-10-01T16:36:01.12</time>
      </trkpt>
      <trkpt lat="42.83379" lon="0.43097">
        <ele>2617</ele>
        <time>2011-10-01T16:36:02.13</time>
      </trkpt>
      <trkpt lat="42.83374" lon="0.43084">
        <ele>2616.5</ele>
        <time>2011-10-01T16:36:03.13</time>
      </trkpt>
      <trkpt lat="42.83369" lon="0.43071">
        <ele>2616.5</ele>
        <time>2011-10-01T16:36:04.13</time>
      </trkpt>
      <trkpt lat="42.83363" lon="0.43058">
        <ele>2614.5</ele>
        <time>2011-10-01T16:36:05.13</time>
      </trkpt>
      <trkpt lat="42.83358" lon="0.43046">
        <ele>2613</ele>
        <time>2011-10-01T16:36:06.15</time>
      </trkpt>
      <trkpt lat="42.83352" lon="0.43033">
        <ele>2611</ele>
        <time>2011-10-01T16:36:07.13</time>
      </trkpt>
      <trkpt lat="42.83347" lon="0.43021">
        <ele>2609.5</ele>
        <time>2011-10-01T16:36:08.12</time>
      </trkpt>
      <trkpt lat="42.83341" lon="0.43009">
        <ele>2607</ele>
        <time>2011-10-01T16:36:09.13</time>
      </trkpt>
      <trkpt lat="42.83335" lon="0.42996">
        <ele>2605</ele>
        <time>2011-10-01T16:36:10.13</time>
      </trkpt>
      <trkpt lat="42.83329" lon="0.42983">
        <ele>2603.5</ele>
        <time>2011-10-01T16:36:11.13</time>
      </trkpt>
      <trkpt lat="42.83324" lon="0.4297">
        <ele>2601.5</ele>
        <time>2011-10-01T16:36:12.13</time>
      </trkpt>
      <trkpt lat="42.83319" lon="0.42957">
        <ele>2600.5</ele>
        <time>2011-10-01T16:36:13.13</time>
      </trkpt>
      <trkpt lat="42.83315" lon="0.42944">
        <ele>2599.5</ele>
        <time>2011-10-01T16:36:14.13</time>
      </trkpt>
      <trkpt lat="42.83311" lon="0.42931">
        <ele>2598</ele>
        <time>2011-10-01T16:36:15.13</time>
      </trkpt>
      <trkpt lat="42.83308" lon="0.42917">
        <ele>2596</ele>
        <time>2011-10-01T16:36:16.13</time>
      </trkpt>
      <trkpt lat="42.83306" lon="0.42903">
        <ele>2594.5</ele>
        <time>2011-10-01T16:36:17.12</time>
      </trkpt>
      <trkpt lat="42.83304" lon="0.42889">
        <ele>2593.5</ele>
        <time>2011-10-01T16:36:18.12</time>
      </trkpt>
      <trkpt lat="42.83303" lon="0.42875">
        <ele>2592</ele>
        <time>2011-10-01T16:36:19.13</time>
      </trkpt>
      <trkpt lat="42.83302" lon="0.42861">
        <ele>2590</ele>
        <time>2011-10-01T16:36:20.13</time>
      </trkpt>
      <trkpt lat="42.833" lon="0.42846">
        <ele>2587</ele>
        <time>2011-10-01T16:36:21.13</time>
      </trkpt>
      <trkpt lat="42.833" lon="0.4283">
        <ele>2585.5</ele>
        <time>2011-10-01T16:36:22.13</time>
      </trkpt>
      <trkpt lat="42.83299" lon="0.42814">
        <ele>2583</ele>
        <time>2011-10-01T16:36:23.13</time>
      </trkpt>
      <trkpt lat="42.83299" lon="0.42799">
        <ele>2583</ele>
        <time>2011-10-01T16:36:24.13</time>
      </trkpt>
      <trkpt lat="42.83298" lon="0.42785">
        <ele>2583</ele>
        <time>2011-10-01T16:36:25.13</time>
      </trkpt>
      <trkpt lat="42.83297" lon="0.42771">
        <ele>2581.5</ele>
        <time>2011-10-01T16:36:26.12</time>
      </trkpt>
      <trkpt lat="42.83296" lon="0.42757">
        <ele>2579.5</ele>
        <time>2011-10-01T16:36:27.13</time>
      </trkpt>
      <trkpt lat="42.83294" lon="0.42742">
        <ele>2577</ele>
        <time>2011-10-01T16:36:28.13</time>
      </trkpt>
      <trkpt lat="42.83292" lon="0.42727">
        <ele>2574</ele>
        <time>2011-10-01T16:36:29.13</time>
      </trkpt>
      <trkpt lat="42.83289" lon="0.42712">
        <ele>2572</ele>
        <time>2011-10-01T16:36:30.13</time>
      </trkpt>
      <trkpt lat="42.83286" lon="0.42697">
        <ele>2571</ele>
        <time>2011-10-01T16:36:31.13</time>
      </trkpt>
      <trkpt lat="42.83283" lon="0.42682">
        <ele>2570.5</ele>
        <time>2011-10-01T16:36:32.13</time>
      </trkpt>
      <trkpt lat="42.83281" lon="0.42669">
        <ele>2570</ele>
        <time>2011-10-01T16:36:33.12</time>
      </trkpt>
      <trkpt lat="42.83278" lon="0.42655">
        <ele>2568.5</ele>
        <time>2011-10-01T16:36:34.13</time>
      </trkpt>
      <trkpt lat="42.83275" lon="0.42641">
        <ele>2567</ele>
        <time>2011-10-01T16:36:35.13</time>
      </trkpt>
      <trkpt lat="42.83272" lon="0.42627">
        <ele>2565</ele>
        <time>2011-10-01T16:36:36.13</time>
      </trkpt>
      <trkpt lat="42.83268" lon="0.42613">
        <ele>2563.5</ele>
        <time>2011-10-01T16:36:37.13</time>
      </trkpt>
      <trkpt lat="42.83265" lon="0.42598">
        <ele>2562.5</ele>
        <time>2011-10-01T16:36:38.13</time>
      </trkpt>
      <trkpt lat="42.83261" lon="0.42585">
        <ele>2560.5</ele>
        <time>2011-10-01T16:36:39.13</time>
      </trkpt>
      <trkpt lat="42.83257" lon="0.42571">
        <ele>2558.5</ele>
        <time>2011-10-01T16:36:40.13</time>
      </trkpt>
      <trkpt lat="42.83253" lon="0.42557">
        <ele>2557</ele>
        <time>2011-10-01T16:36:41.13</time>
      </trkpt>
      <trkpt lat="42.83248" lon="0.42543">
        <ele>2555.5</ele>
        <time>2011-10-01T16:36:42.12</time>
      </trkpt>
      <trkpt lat="42.83244" lon="0.4253">
        <ele>2554</ele>
        <time>2011-10-01T16:36:43.13</time>
      </trkpt>
      <trkpt lat="42.83239" lon="0.42517">
        <ele>2552</ele>
        <time>2011-10-01T16:36:44.13</time>
      </trkpt>
      <trkpt lat="42.83233" lon="0.42505">
        <ele>2550</ele>
        <time>2011-10-01T16:36:45.12</time>
      </trkpt>
      <trkpt lat="42.83227" lon="0.42492">
        <ele>2548</ele>
        <time>2011-10-01T16:36:46.11</time>
      </trkpt>
      <trkpt lat="42.83222" lon="0.42481">
        <ele>2546.5</ele>
        <time>2011-10-01T16:36:47.12</time>
      </trkpt>
      <trkpt lat="42.83216" lon="0.42469">
        <ele>2545</ele>
        <time>2011-10-01T16:36:48.12</time>
      </trkpt>
      <trkpt lat="42.8321" lon="0.42456">
        <ele>2544</ele>
        <time>2011-10-01T16:36:49.12</time>
      </trkpt>
      <trkpt lat="42.83205" lon="0.42444">
        <ele>2543</ele>
        <time>2011-10-01T16:36:50.12</time>
      </trkpt>
      <trkpt lat="42.83201" lon="0.42431">
        <ele>2541</ele>
        <time>2011-10-01T16:36:51.12</time>
      </trkpt>
      <trkpt lat="42.83197" lon="0.42417">
        <ele>2538.5</ele>
        <time>2011-10-01T16:36:52.12</time>
      </trkpt>
      <trkpt lat="42.83193" lon="0.42403">
        <ele>2536.5</ele>
        <time>2011-10-01T16:36:53.12</time>
      </trkpt>
      <trkpt lat="42.8319" lon="0.42388">
        <ele>2535</ele>
        <time>2011-10-01T16:36:54.12</time>
      </trkpt>
      <trkpt lat="42.83186" lon="0.42374">
        <ele>2534</ele>
        <time>2011-10-01T16:36:55.12</time>
      </trkpt>
      <trkpt lat="42.83183" lon="0.4236">
        <ele>2533.5</ele>
        <time>2011-10-01T16:36:56.12</time>
      </trkpt>
      <trkpt lat="42.8318" lon="0.42346">
        <ele>2532</ele>
        <time>2011-10-01T16:36:57.12</time>
      </trkpt>
      <trkpt lat="42.83176" lon="0.42333">
        <ele>2530</ele>
        <time>2011-10-01T16:36:58.13</time>
      </trkpt>
      <trkpt lat="42.83173" lon="0.42319">
        <ele>2528</ele>
        <time>2011-10-01T16:36:59.12</time>
      </trkpt>
      <trkpt lat="42.8317" lon="0.42304">
        <ele>2526</ele>
        <time>2011-10-01T16:37:00.12</time>
      </trkpt>
      <trkpt lat="42.83166" lon="0.42289">
        <ele>2525</ele>
        <time>2011-10-01T16:37:01.12</time>
      </trkpt>
      <trkpt lat="42.83163" lon="0.42275">
        <ele>2524.5</ele>
        <time>2011-10-01T16:37:02.12</time>
      </trkpt>
      <trkpt lat="42.83159" lon="0.42262">
        <ele>2523.5</ele>
        <time>2011-10-01T16:37:03.12</time>
      </trkpt>
      <trkpt lat="42.83156" lon="0.42248">
        <ele>2522.5</ele>
        <time>2011-10-01T16:37:04.12</time>
      </trkpt>
      <trkpt lat="42.83152" lon="0.42235">
        <ele>2521.5</ele>
        <time>2011-10-01T16:37:05.12</time>
      </trkpt>
      <trkpt lat="42.83147" lon="0.42223">
        <ele>2520.5</ele>
        <time>2011-10-01T16:37:06.12</time>
      </trkpt>
      <trkpt lat="42.83143" lon="0.4221">
        <ele>2519.5</ele>
        <time>2011-10-01T16:37:07.12</time>
      </trkpt>
      <trkpt lat="42.83137" lon="0.42199">
        <ele>2518.5</ele>
        <time>2011-10-01T16:37:08.12</time>
      </trkpt>
      <trkpt lat="42.83131" lon="0.42188">
        <ele>2517</ele>
        <time>2011-10-01T16:37:09.12</time>
      </trkpt>
      <trkpt lat="42.83124" lon="0.42178">
        <ele>2516</ele>
        <time>2011-10-01T16:37:10.12</time>
      </trkpt>
      <trkpt lat="42.83116" lon="0.42169">
        <ele>2514.5</ele>
        <time>2011-10-01T16:37:11.14</time>
      </trkpt>
      <trkpt lat="42.83107" lon="0.42161">
        <ele>2512.5</ele>
        <time>2011-10-01T16:37:12.13</time>
      </trkpt>
      <trkpt lat="42.83097" lon="0.42153">
        <ele>2511.5</ele>
        <time>2011-10-01T16:37:13.13</time>
      </trkpt>
      <trkpt lat="42.83088" lon="0.42147">
        <ele>2510.5</ele>
        <time>2011-10-01T16:37:14.13</time>
      </trkpt>
      <trkpt lat="42.83078" lon="0.42141">
        <ele>2510.5</ele>
        <time>2011-10-01T16:37:15.12</time>
      </trkpt>
      <trkpt lat="42.83069" lon="0.42136">
        <ele>2510</ele>
        <time>2011-10-01T16:37:16.12</time>
      </trkpt>
      <trkpt lat="42.8306" lon="0.4213">
        <ele>2509</ele>
        <time>2011-10-01T16:37:17.18</time>
      </trkpt>
      <trkpt lat="42.83052" lon="0.42124">
        <ele>2507</ele>
        <time>2011-10-01T16:37:18.13</time>
      </trkpt>
      <trkpt lat="42.83044" lon="0.42117">
        <ele>2505.5</ele>
        <time>2011-10-01T16:37:19.13</time>
      </trkpt>
      <trkpt lat="42.83036" lon="0.42107">
        <ele>2505</ele>
        <time>2011-10-01T16:37:20.14</time>
      </trkpt>
      <trkpt lat="42.83028" lon="0.42096">
        <ele>2505</ele>
        <time>2011-10-01T16:37:21.12</time>
      </trkpt>
      <trkpt lat="42.83021" lon="0.42085">
        <ele>2503</ele>
        <time>2011-10-01T16:37:22.12</time>
      </trkpt>
      <trkpt lat="42.83014" lon="0.42072">
        <ele>2501.5</ele>
        <time>2011-10-01T16:37:23.12</time>
      </trkpt>
      <trkpt lat="42.83008" lon="0.42059">
        <ele>2500.5</ele>
        <time>2011-10-01T16:37:24.13</time>
      </trkpt>
      <trkpt lat="42.83002" lon="0.42047">
        <ele>2500</ele>
        <time>2011-10-01T16:37:25.13</time>
      </trkpt>
      <trkpt lat="42.82996" lon="0.42035">
        <ele>2499.5</ele>
        <time>2011-10-01T16:37:26.13</time>
      </trkpt>
      <trkpt lat="42.82991" lon="0.42023">
        <ele>2498.5</ele>
        <time>2011-10-01T16:37:27.13</time>
      </trkpt>
      <trkpt lat="42.82985" lon="0.4201">
        <ele>2496.5</ele>
        <time>2011-10-01T16:37:28.14</time>
      </trkpt>
      <trkpt lat="42.82979" lon="0.41997">
        <ele>2494.5</ele>
        <time>2011-10-01T16:37:29.13</time>
      </trkpt>
      <trkpt lat="42.82973" lon="0.41984">
        <ele>2493</ele>
        <time>2011-10-01T16:37:30.13</time>
      </trkpt>
      <trkpt lat="42.82967" lon="0.41971">
        <ele>2492</ele>
        <time>2011-10-01T16:37:31.13</time>
      </trkpt>
      <trkpt lat="42.82962" lon="0.41958">
        <ele>2491</ele>
        <time>2011-10-01T16:37:32.13</time>
      </trkpt>
      <trkpt lat="42.82956" lon="0.41945">
        <ele>2490</ele>
        <time>2011-10-01T16:37:33.13</time>
      </trkpt>
      <trkpt lat="42.8295" lon="0.41932">
        <ele>2488.5</ele>
        <time>2011-10-01T16:37:34.13</time>
      </trkpt>
      <trkpt lat="42.82944" lon="0.4192">
        <ele>2487</ele>
        <time>2011-10-01T16:37:35.13</time>
      </trkpt>
      <trkpt lat="42.82938" lon="0.41906">
        <ele>2485.5</ele>
        <time>2011-10-01T16:37:36.13</time>
      </trkpt>
      <trkpt lat="42.82932" lon="0.41893">
        <ele>2484.5</ele>
        <time>2011-10-01T16:37:37.12</time>
      </trkpt>
      <trkpt lat="42.82926" lon="0.4188">
        <ele>2483.5</ele>
        <time>2011-10-01T16:37:38.14</time>
      </trkpt>
      <trkpt lat="42.82919" lon="0.41867">
        <ele>2482.5</ele>
        <time>2011-10-01T16:37:39.13</time>
      </trkpt>
      <trkpt lat="42.82913" lon="0.41855">
        <ele>2481</ele>
        <time>2011-10-01T16:37:40.13</time>
      </trkpt>
      <trkpt lat="42.82907" lon="0.41843">
        <ele>2479.5</ele>
        <time>2011-10-01T16:37:41.14</time>
      </trkpt>
      <trkpt lat="42.82901" lon="0.4183">
        <ele>2478.5</ele>
        <time>2011-10-01T16:37:42.13</time>
      </trkpt>
      <trkpt lat="42.82895" lon="0.41818">
        <ele>2477</ele>
        <time>2011-10-01T16:37:43.13</time>
      </trkpt>
      <trkpt lat="42.82889" lon="0.41805">
        <ele>2475.5</ele>
        <time>2011-10-01T16:37:44.13</time>
      </trkpt>
      <trkpt lat="42.82883" lon="0.41793">
        <ele>2474.5</ele>
        <time>2011-10-01T16:37:45.12</time>
      </trkpt>
      <trkpt lat="42.82878" lon="0.4178">
        <ele>2474</ele>
        <time>2011-10-01T16:37:46.13</time>
      </trkpt>
      <trkpt lat="42.82872" lon="0.41766">
        <ele>2473</ele>
        <time>2011-10-01T16:37:47.13</time>
      </trkpt>
      <trkpt lat="42.82867" lon="0.41753">
        <ele>2472</ele>
        <time>2011-10-01T16:37:48.13</time>
      </trkpt>
      <trkpt lat="42.82862" lon="0.41739">
        <ele>2471</ele>
        <time>2011-10-01T16:37:49.13</time>
      </trkpt>
      <trkpt lat="42.82857" lon="0.41725">
        <ele>2470</ele>
        <time>2011-10-01T16:37:50.13</time>
      </trkpt>
      <trkpt lat="42.82853" lon="0.41711">
        <ele>2469</ele>
        <time>2011-10-01T16:37:51.13</time>
      </trkpt>
      <trkpt lat="42.82848" lon="0.41698">
        <ele>2468.5</ele>
        <time>2011-10-01T16:37:52.13</time>
      </trkpt>
      <trkpt lat="42.82843" lon="0.41685">
        <ele>2467.5</ele>
        <time>2011-10-01T16:37:53.12</time>
      </trkpt>
      <trkpt lat="42.82838" lon="0.41672">
        <ele>2466.5</ele>
        <time>2011-10-01T16:37:54.13</time>
      </trkpt>
      <trkpt lat="42.82833" lon="0.41658">
        <ele>2465</ele>
        <time>2011-10-01T16:37:55.13</time>
      </trkpt>
      <trkpt lat="42.82827" lon="0.41644">
        <ele>2463.5</ele>
        <time>2011-10-01T16:37:56.13</time>
      </trkpt>
      <trkpt lat="42.82822" lon="0.4163">
        <ele>2462.5</ele>
        <time>2011-10-01T16:37:57.13</time>
      </trkpt>
      <trkpt lat="42.82817" lon="0.41617">
        <ele>2462</ele>
        <time>2011-10-01T16:37:58.13</time>
      </trkpt>
      <trkpt lat="42.82811" lon="0.41604">
        <ele>2461.5</ele>
        <time>2011-10-01T16:37:59.13</time>
      </trkpt>
      <trkpt lat="42.82805" lon="0.41591">
        <ele>2460.5</ele>
        <time>2011-10-01T16:38:00.13</time>
      </trkpt>
      <trkpt lat="42.82799" lon="0.41578">
        <ele>2460</ele>
        <time>2011-10-01T16:38:01.13</time>
      </trkpt>
      <trkpt lat="42.82793" lon="0.41566">
        <ele>2459</ele>
        <time>2011-10-01T16:38:02.13</time>
      </trkpt>
      <trkpt lat="42.82787" lon="0.41554">
        <ele>2458.5</ele>
        <time>2011-10-01T16:38:03.13</time>
      </trkpt>
      <trkpt lat="42.82781" lon="0.41543">
        <ele>2458</ele>
        <time>2011-10-01T16:38:04.13</time>
      </trkpt>
      <trkpt lat="42.82774" lon="0.41532">
        <ele>2457</ele>
        <time>2011-10-01T16:38:05.13</time>
      </trkpt>
      <trkpt lat="42.82768" lon="0.41521">
        <ele>2456.5</ele>
        <time>2011-10-01T16:38:06.13</time>
      </trkpt>
      <trkpt lat="42.82761" lon="0.4151">
        <ele>2456.5</ele>
        <time>2011-10-01T16:38:07.13</time>
      </trkpt>
      <trkpt lat="42.82755" lon="0.41498">
        <ele>2456.5</ele>
        <time>2011-10-01T16:38:08.13</time>
      </trkpt>
      <trkpt lat="42.8275" lon="0.41487">
        <ele>2456</ele>
        <time>2011-10-01T16:38:09.12</time>
      </trkpt>
      <trkpt lat="42.82745" lon="0.41475">
        <ele>2455</ele>
        <time>2011-10-01T16:38:10.13</time>
      </trkpt>
      <trkpt lat="42.8274" lon="0.41462">
        <ele>2454</ele>
        <time>2011-10-01T16:38:11.13</time>
      </trkpt>
      <trkpt lat="42.82736" lon="0.41449">
        <ele>2453</ele>
        <time>2011-10-01T16:38:12.13</time>
      </trkpt>
      <trkpt lat="42.82732" lon="0.41435">
        <ele>2452.5</ele>
        <time>2011-10-01T16:38:13.13</time>
      </trkpt>
      <trkpt lat="42.82727" lon="0.41422">
        <ele>2451.5</ele>
        <time>2011-10-01T16:38:14.13</time>
      </trkpt>
      <trkpt lat="42.82722" lon="0.41408">
        <ele>2450</ele>
        <time>2011-10-01T16:38:15.13</time>
      </trkpt>
      <trkpt lat="42.82716" lon="0.41395">
        <ele>2449.5</ele>
        <time>2011-10-01T16:38:16.13</time>
      </trkpt>
      <trkpt lat="42.82711" lon="0.41382">
        <ele>2449</ele>
        <time>2011-10-01T16:38:17.13</time>
      </trkpt>
      <trkpt lat="42.82706" lon="0.41369">
        <ele>2448.5</ele>
        <time>2011-10-01T16:38:18.13</time>
      </trkpt>
      <trkpt lat="42.82701" lon="0.41355">
        <ele>2447</ele>
        <time>2011-10-01T16:38:19.13</time>
      </trkpt>
      <trkpt lat="42.82696" lon="0.41342">
        <ele>2445</ele>
        <time>2011-10-01T16:38:20.13</time>
      </trkpt>
      <trkpt lat="42.82691" lon="0.41328">
        <ele>2444</ele>
        <time>2011-10-01T16:38:21.13</time>
      </trkpt>
      <trkpt lat="42.82685" lon="0.41315">
        <ele>2444</ele>
        <time>2011-10-01T16:38:22.13</time>
      </trkpt>
      <trkpt lat="42.8268" lon="0.41302">
        <ele>2443</ele>
        <time>2011-10-01T16:38:23.13</time>
      </trkpt>
      <trkpt lat="42.82674" lon="0.41291">
        <ele>2443</ele>
        <time>2011-10-01T16:38:24.13</time>
      </trkpt>
      <trkpt lat="42.82667" lon="0.41279">
        <ele>2441</ele>
        <time>2011-10-01T16:38:25.12</time>
      </trkpt>
      <trkpt lat="42.82659" lon="0.41268">
        <ele>2439</ele>
        <time>2011-10-01T16:38:26.14</time>
      </trkpt>
      <trkpt lat="42.8265" lon="0.41257">
        <ele>2438.5</ele>
        <time>2011-10-01T16:38:27.13</time>
      </trkpt>
      <trkpt lat="42.82642" lon="0.41246">
        <ele>2439.5</ele>
        <time>2011-10-01T16:38:28.13</time>
      </trkpt>
      <trkpt lat="42.82635" lon="0.41237">
        <ele>2439.5</ele>
        <time>2011-10-01T16:38:29.13</time>
      </trkpt>
      <trkpt lat="42.82629" lon="0.41228">
        <ele>2438.5</ele>
        <time>2011-10-01T16:38:30.13</time>
      </trkpt>
      <trkpt lat="42.82622" lon="0.41217">
        <ele>2438.5</ele>
        <time>2011-10-01T16:38:31.13</time>
      </trkpt>
      <trkpt lat="42.82615" lon="0.41204">
        <ele>2438.5</ele>
        <time>2011-10-01T16:38:32.13</time>
      </trkpt>
      <trkpt lat="42.82608" lon="0.41191">
        <ele>2437</ele>
        <time>2011-10-01T16:38:33.13</time>
      </trkpt>
      <trkpt lat="42.82602" lon="0.41177">
        <ele>2437</ele>
        <time>2011-10-01T16:38:34.13</time>
      </trkpt>
      <trkpt lat="42.82596" lon="0.41163">
        <ele>2437.5</ele>
        <time>2011-10-01T16:38:35.13</time>
      </trkpt>
      <trkpt lat="42.82592" lon="0.4115">
        <ele>2437.5</ele>
        <time>2011-10-01T16:38:36.13</time>
      </trkpt>
      <trkpt lat="42.82589" lon="0.41136">
        <ele>2435</ele>
        <time>2011-10-01T16:38:37.13</time>
      </trkpt>
      <trkpt lat="42.82586" lon="0.41122">
        <ele>2435</ele>
        <time>2011-10-01T16:38:38.14</time>
      </trkpt>
      <trkpt lat="42.82582" lon="0.41107">
        <ele>2434.5</ele>
        <time>2011-10-01T16:38:39.13</time>
      </trkpt>
      <trkpt lat="42.82578" lon="0.41092">
        <ele>2433.5</ele>
        <time>2011-10-01T16:38:40.13</time>
      </trkpt>
      <trkpt lat="42.82572" lon="0.4108">
        <ele>2432</ele>
        <time>2011-10-01T16:38:41.13</time>
      </trkpt>
      <trkpt lat="42.82567" lon="0.41067">
        <ele>2431</ele>
        <time>2011-10-01T16:38:42.14</time>
      </trkpt>
      <trkpt lat="42.82561" lon="0.41056">
        <ele>2429</ele>
        <time>2011-10-01T16:38:43.13</time>
      </trkpt>
      <trkpt lat="42.82555" lon="0.41044">
        <ele>2428</ele>
        <time>2011-10-01T16:38:44.13</time>
      </trkpt>
      <trkpt lat="42.82549" lon="0.41033">
        <ele>2427</ele>
        <time>2011-10-01T16:38:45.13</time>
      </trkpt>
      <trkpt lat="42.82542" lon="0.41022">
        <ele>2426.5</ele>
        <time>2011-10-01T16:38:46.13</time>
      </trkpt>
      <trkpt lat="42.82536" lon="0.41012">
        <ele>2426</ele>
        <time>2011-10-01T16:38:47.13</time>
      </trkpt>
      <trkpt lat="42.8253" lon="0.41002">
        <ele>2424.5</ele>
        <time>2011-10-01T16:38:48.13</time>
      </trkpt>
      <trkpt lat="42.82523" lon="0.40991">
        <ele>2422.5</ele>
        <time>2011-10-01T16:38:49.13</time>
      </trkpt>
      <trkpt lat="42.82517" lon="0.40981">
        <ele>2421</ele>
        <time>2011-10-01T16:38:50.13</time>
      </trkpt>
      <trkpt lat="42.8251" lon="0.4097">
        <ele>2420</ele>
        <time>2011-10-01T16:38:51.13</time>
      </trkpt>
      <trkpt lat="42.82504" lon="0.40959">
        <ele>2419</ele>
        <time>2011-10-01T16:38:52.13</time>
      </trkpt>
      <trkpt lat="42.82499" lon="0.40948">
        <ele>2418</ele>
        <time>2011-10-01T16:38:53.13</time>
      </trkpt>
      <trkpt lat="42.82494" lon="0.40936">
        <ele>2416.5</ele>
        <time>2011-10-01T16:38:54.12</time>
      </trkpt>
      <trkpt lat="42.82489" lon="0.40925">
        <ele>2415</ele>
        <time>2011-10-01T16:38:55.12</time>
      </trkpt>
      <trkpt lat="42.82485" lon="0.40913">
        <ele>2414.5</ele>
        <time>2011-10-01T16:38:56.12</time>
      </trkpt>
      <trkpt lat="42.82481" lon="0.40901">
        <ele>2414.5</ele>
        <time>2011-10-01T16:38:57.12</time>
      </trkpt>
      <trkpt lat="42.82476" lon="0.40888">
        <ele>2414.5</ele>
        <time>2011-10-01T16:38:58.12</time>
      </trkpt>
      <trkpt lat="42.8247" lon="0.40875">
        <ele>2412.5</ele>
        <time>2011-10-01T16:38:59.12</time>
      </trkpt>
      <trkpt lat="42.82464" lon="0.40862">
        <ele>2410.5</ele>
        <time>2011-10-01T16:39:00.12</time>
      </trkpt>
      <trkpt lat="42.82459" lon="0.40849">
        <ele>2408.5</ele>
        <time>2011-10-01T16:39:01.12</time>
      </trkpt>
      <trkpt lat="42.82455" lon="0.40835">
        <ele>2406.5</ele>
        <time>2011-10-01T16:39:02.12</time>
      </trkpt>
      <trkpt lat="42.82453" lon="0.40821">
        <ele>2405.5</ele>
        <time>2011-10-01T16:39:03.12</time>
      </trkpt>
      <trkpt lat="42.82452" lon="0.40806">
        <ele>2403.5</ele>
        <time>2011-10-01T16:39:04.12</time>
      </trkpt>
      <trkpt lat="42.82452" lon="0.40792">
        <ele>2403</ele>
        <time>2011-10-01T16:39:05.12</time>
      </trkpt>
      <trkpt lat="42.82451" lon="0.40776">
        <ele>2402.5</ele>
        <time>2011-10-01T16:39:06.18</time>
      </trkpt>
      <trkpt lat="42.82451" lon="0.40761">
        <ele>2402</ele>
        <time>2011-10-01T16:39:07.13</time>
      </trkpt>
      <trkpt lat="42.82449" lon="0.40746">
        <ele>2400.5</ele>
        <time>2011-10-01T16:39:08.12</time>
      </trkpt>
      <trkpt lat="42.82448" lon="0.40731">
        <ele>2399</ele>
        <time>2011-10-01T16:39:09.13</time>
      </trkpt>
      <trkpt lat="42.82446" lon="0.40717">
        <ele>2397</ele>
        <time>2011-10-01T16:39:10.12</time>
      </trkpt>
      <trkpt lat="42.82443" lon="0.40703">
        <ele>2395</ele>
        <time>2011-10-01T16:39:11.13</time>
      </trkpt>
      <trkpt lat="42.8244" lon="0.40689">
        <ele>2393</ele>
        <time>2011-10-01T16:39:12.12</time>
      </trkpt>
      <trkpt lat="42.82436" lon="0.40676">
        <ele>2390.5</ele>
        <time>2011-10-01T16:39:13.13</time>
      </trkpt>
      <trkpt lat="42.82431" lon="0.40662">
        <ele>2388.5</ele>
        <time>2011-10-01T16:39:14.12</time>
      </trkpt>
      <trkpt lat="42.82425" lon="0.40649">
        <ele>2386.5</ele>
        <time>2011-10-01T16:39:15.13</time>
      </trkpt>
      <trkpt lat="42.82419" lon="0.40635">
        <ele>2384.5</ele>
        <time>2011-10-01T16:39:16.12</time>
      </trkpt>
      <trkpt lat="42.82414" lon="0.40622">
        <ele>2383</ele>
        <time>2011-10-01T16:39:17.14</time>
      </trkpt>
      <trkpt lat="42.82408" lon="0.40609">
        <ele>2382</ele>
        <time>2011-10-01T16:39:18.13</time>
      </trkpt>
      <trkpt lat="42.82403" lon="0.40596">
        <ele>2381</ele>
        <time>2011-10-01T16:39:19.13</time>
      </trkpt>
      <trkpt lat="42.82398" lon="0.40584">
        <ele>2380</ele>
        <time>2011-10-01T16:39:20.13</time>
      </trkpt>
      <trkpt lat="42.82393" lon="0.40571">
        <ele>2378</ele>
        <time>2011-10-01T16:39:21.13</time>
      </trkpt>
      <trkpt lat="42.82389" lon="0.40558">
        <ele>2376.5</ele>
        <time>2011-10-01T16:39:22.14</time>
      </trkpt>
      <trkpt lat="42.82385" lon="0.40545">
        <ele>2375</ele>
        <time>2011-10-01T16:39:23.13</time>
      </trkpt>
      <trkpt lat="42.82381" lon="0.40532">
        <ele>2373</ele>
        <time>2011-10-01T16:39:24.14</time>
      </trkpt>
      <trkpt lat="42.82378" lon="0.40519">
        <ele>2371.5</ele>
        <time>2011-10-01T16:39:25.13</time>
      </trkpt>
      <trkpt lat="42.82374" lon="0.40505">
        <ele>2369.5</ele>
        <time>2011-10-01T16:39:26.13</time>
      </trkpt>
      <trkpt lat="42.8237" lon="0.40492">
        <ele>2367.5</ele>
        <time>2011-10-01T16:39:27.13</time>
      </trkpt>
      <trkpt lat="42.82367" lon="0.40479">
        <ele>2367.5</ele>
        <time>2011-10-01T16:39:28.13</time>
      </trkpt>
      <trkpt lat="42.82363" lon="0.40466">
        <ele>2365.5</ele>
        <time>2011-10-01T16:39:29.12</time>
      </trkpt>
      <trkpt lat="42.82361" lon="0.40452">
        <ele>2365</ele>
        <time>2011-10-01T16:39:30.13</time>
      </trkpt>
      <trkpt lat="42.82358" lon="0.40439">
        <ele>2364.5</ele>
        <time>2011-10-01T16:39:31.13</time>
      </trkpt>
      <trkpt lat="42.82355" lon="0.40425">
        <ele>2364</ele>
        <time>2011-10-01T16:39:32.13</time>
      </trkpt>
      <trkpt lat="42.82352" lon="0.4041">
        <ele>2362</ele>
        <time>2011-10-01T16:39:33.14</time>
      </trkpt>
      <trkpt lat="42.82349" lon="0.40396">
        <ele>2360</ele>
        <time>2011-10-01T16:39:34.13</time>
      </trkpt>
      <trkpt lat="42.82346" lon="0.40382">
        <ele>2358</ele>
        <time>2011-10-01T16:39:35.13</time>
      </trkpt>
      <trkpt lat="42.82343" lon="0.40368">
        <ele>2355.5</ele>
        <time>2011-10-01T16:39:36.14</time>
      </trkpt>
      <trkpt lat="42.82341" lon="0.40354">
        <ele>2355</ele>
        <time>2011-10-01T16:39:37.13</time>
      </trkpt>
      <trkpt lat="42.82339" lon="0.4034">
        <ele>2355</ele>
        <time>2011-10-01T16:39:38.14</time>
      </trkpt>
      <trkpt lat="42.82336" lon="0.40326">
        <ele>2352.5</ele>
        <time>2011-10-01T16:39:39.13</time>
      </trkpt>
      <trkpt lat="42.82334" lon="0.40311">
        <ele>2351</ele>
        <time>2011-10-01T16:39:40.13</time>
      </trkpt>
      <trkpt lat="42.82331" lon="0.40297">
        <ele>2349</ele>
        <time>2011-10-01T16:39:41.13</time>
      </trkpt>
      <trkpt lat="42.82329" lon="0.40283">
        <ele>2347</ele>
        <time>2011-10-01T16:39:42.12</time>
      </trkpt>
      <trkpt lat="42.82327" lon="0.40269">
        <ele>2344.5</ele>
        <time>2011-10-01T16:39:43.12</time>
      </trkpt>
      <trkpt lat="42.82325" lon="0.40255">
        <ele>2342</ele>
        <time>2011-10-01T16:39:44.12</time>
      </trkpt>
      <trkpt lat="42.82323" lon="0.40241">
        <ele>2340</ele>
        <time>2011-10-01T16:39:45.12</time>
      </trkpt>
      <trkpt lat="42.82322" lon="0.40227">
        <ele>2339.5</ele>
        <time>2011-10-01T16:39:46.12</time>
      </trkpt>
      <trkpt lat="42.82321" lon="0.40212">
        <ele>2339.5</ele>
        <time>2011-10-01T16:39:47.13</time>
      </trkpt>
      <trkpt lat="42.82319" lon="0.40197">
        <ele>2338.5</ele>
        <time>2011-10-01T16:39:48.12</time>
      </trkpt>
      <trkpt lat="42.82316" lon="0.40183">
        <ele>2336</ele>
        <time>2011-10-01T16:39:49.12</time>
      </trkpt>
      <trkpt lat="42.82313" lon="0.40169">
        <ele>2334</ele>
        <time>2011-10-01T16:39:50.12</time>
      </trkpt>
      <trkpt lat="42.82309" lon="0.40155">
        <ele>2332</ele>
        <time>2011-10-01T16:39:51.12</time>
      </trkpt>
      <trkpt lat="42.82305" lon="0.40142">
        <ele>2330.5</ele>
        <time>2011-10-01T16:39:52.13</time>
      </trkpt>
      <trkpt lat="42.82301" lon="0.40129">
        <ele>2329</ele>
        <time>2011-10-01T16:39:53.12</time>
      </trkpt>
      <trkpt lat="42.82296" lon="0.40116">
        <ele>2328</ele>
        <time>2011-10-01T16:39:54.13</time>
      </trkpt>
      <trkpt lat="42.82291" lon="0.40104">
        <ele>2327.5</ele>
        <time>2011-10-01T16:39:55.12</time>
      </trkpt>
      <trkpt lat="42.82287" lon="0.40091">
        <ele>2326.5</ele>
        <time>2011-10-01T16:39:56.12</time>
      </trkpt>
      <trkpt lat="42.82282" lon="0.40079">
        <ele>2326</ele>
        <time>2011-10-01T16:39:57.12</time>
      </trkpt>
      <trkpt lat="42.82279" lon="0.40067">
        <ele>2324</ele>
        <time>2011-10-01T16:39:58.12</time>
      </trkpt>
      <trkpt lat="42.82276" lon="0.40053">
        <ele>2321</ele>
        <time>2011-10-01T16:39:59.12</time>
      </trkpt>
      <trkpt lat="42.82273" lon="0.40038">
        <ele>2319</ele>
        <time>2011-10-01T16:40:00.12</time>
      </trkpt>
      <trkpt lat="42.82271" lon="0.40022">
        <ele>2318</ele>
        <time>2011-10-01T16:40:01.12</time>
      </trkpt>
      <trkpt lat="42.82269" lon="0.40007">
        <ele>2317.5</ele>
        <time>2011-10-01T16:40:02.12</time>
      </trkpt>
      <trkpt lat="42.82266" lon="0.39993">
        <ele>2317</ele>
        <time>2011-10-01T16:40:03.12</time>
      </trkpt>
      <trkpt lat="42.82263" lon="0.39979">
        <ele>2315</ele>
        <time>2011-10-01T16:40:04.12</time>
      </trkpt>
      <trkpt lat="42.82259" lon="0.39965">
        <ele>2313</ele>
        <time>2011-10-01T16:40:05.13</time>
      </trkpt>
      <trkpt lat="42.82255" lon="0.3995">
        <ele>2311.5</ele>
        <time>2011-10-01T16:40:06.13</time>
      </trkpt>
      <trkpt lat="42.8225" lon="0.39935">
        <ele>2309.5</ele>
        <time>2011-10-01T16:40:07.13</time>
      </trkpt>
      <trkpt lat="42.82246" lon="0.39921">
        <ele>2308.5</ele>
        <time>2011-10-01T16:40:08.13</time>
      </trkpt>
      <trkpt lat="42.82242" lon="0.39907">
        <ele>2307.5</ele>
        <time>2011-10-01T16:40:09.13</time>
      </trkpt>
      <trkpt lat="42.82239" lon="0.39893">
        <ele>2306</ele>
        <time>2011-10-01T16:40:10.12</time>
      </trkpt>
      <trkpt lat="42.82236" lon="0.39878">
        <ele>2304</ele>
        <time>2011-10-01T16:40:11.14</time>
      </trkpt>
      <trkpt lat="42.82233" lon="0.39864">
        <ele>2302</ele>
        <time>2011-10-01T16:40:12.13</time>
      </trkpt>
      <trkpt lat="42.8223" lon="0.39849">
        <ele>2300.5</ele>
        <time>2011-10-01T16:40:13.13</time>
      </trkpt>
      <trkpt lat="42.82228" lon="0.39835">
        <ele>2298.5</ele>
        <time>2011-10-01T16:40:14.13</time>
      </trkpt>
      <trkpt lat="42.82225" lon="0.3982">
        <ele>2297</ele>
        <time>2011-10-01T16:40:15.13</time>
      </trkpt>
      <trkpt lat="42.82222" lon="0.39805">
        <ele>2295</ele>
        <time>2011-10-01T16:40:16.13</time>
      </trkpt>
      <trkpt lat="42.82218" lon="0.3979">
        <ele>2293</ele>
        <time>2011-10-01T16:40:17.12</time>
      </trkpt>
      <trkpt lat="42.82214" lon="0.39775">
        <ele>2292.5</ele>
        <time>2011-10-01T16:40:18.13</time>
      </trkpt>
      <trkpt lat="42.82208" lon="0.3976">
        <ele>2291</ele>
        <time>2011-10-01T16:40:19.13</time>
      </trkpt>
      <trkpt lat="42.82203" lon="0.39746">
        <ele>2290.5</ele>
        <time>2011-10-01T16:40:20.13</time>
      </trkpt>
      <trkpt lat="42.82198" lon="0.39732">
        <ele>2289.5</ele>
        <time>2011-10-01T16:40:21.13</time>
      </trkpt>
      <trkpt lat="42.82193" lon="0.3972">
        <ele>2288</ele>
        <time>2011-10-01T16:40:22.13</time>
      </trkpt>
      <trkpt lat="42.82188" lon="0.39707">
        <ele>2287.5</ele>
        <time>2011-10-01T16:40:23.13</time>
      </trkpt>
      <trkpt lat="42.82182" lon="0.39693">
        <ele>2287</ele>
        <time>2011-10-01T16:40:24.13</time>
      </trkpt>
      <trkpt lat="42.82176" lon="0.3968">
        <ele>2285</ele>
        <time>2011-10-01T16:40:25.14</time>
      </trkpt>
      <trkpt lat="42.8217" lon="0.39666">
        <ele>2283.5</ele>
        <time>2011-10-01T16:40:26.13</time>
      </trkpt>
      <trkpt lat="42.82163" lon="0.39653">
        <ele>2281.5</ele>
        <time>2011-10-01T16:40:27.13</time>
      </trkpt>
      <trkpt lat="42.82157" lon="0.3964">
        <ele>2281</ele>
        <time>2011-10-01T16:40:28.14</time>
      </trkpt>
      <trkpt lat="42.8215" lon="0.39626">
        <ele>2281</ele>
        <time>2011-10-01T16:40:29.14</time>
      </trkpt>
      <trkpt lat="42.82143" lon="0.39612">
        <ele>2278.5</ele>
        <time>2011-10-01T16:40:30.14</time>
      </trkpt>
      <trkpt lat="42.82136" lon="0.39598">
        <ele>2277.5</ele>
        <time>2011-10-01T16:40:31.13</time>
      </trkpt>
      <trkpt lat="42.8213" lon="0.39584">
        <ele>2276</ele>
        <time>2011-10-01T16:40:32.13</time>
      </trkpt>
      <trkpt lat="42.82124" lon="0.39571">
        <ele>2274.5</ele>
        <time>2011-10-01T16:40:33.12</time>
      </trkpt>
      <trkpt lat="42.8212" lon="0.39559">
        <ele>2274</ele>
        <time>2011-10-01T16:40:34.14</time>
      </trkpt>
      <trkpt lat="42.82114" lon="0.39545">
        <ele>2274</ele>
        <time>2011-10-01T16:40:35.13</time>
      </trkpt>
      <trkpt lat="42.82108" lon="0.3953">
        <ele>2272</ele>
        <time>2011-10-01T16:40:36.13</time>
      </trkpt>
      <trkpt lat="42.82101" lon="0.39517">
        <ele>2271</ele>
        <time>2011-10-01T16:40:37.13</time>
      </trkpt>
      <trkpt lat="42.82095" lon="0.39504">
        <ele>2269.5</ele>
        <time>2011-10-01T16:40:38.14</time>
      </trkpt>
      <trkpt lat="42.82089" lon="0.39492">
        <ele>2268</ele>
        <time>2011-10-01T16:40:39.13</time>
      </trkpt>
      <trkpt lat="42.82082" lon="0.3948">
        <ele>2267.5</ele>
        <time>2011-10-01T16:40:40.13</time>
      </trkpt>
      <trkpt lat="42.82075" lon="0.39468">
        <ele>2267.5</ele>
        <time>2011-10-01T16:40:41.13</time>
      </trkpt>
      <trkpt lat="42.82068" lon="0.39456">
        <ele>2266</ele>
        <time>2011-10-01T16:40:42.13</time>
      </trkpt>
      <trkpt lat="42.8206" lon="0.39444">
        <ele>2264.5</ele>
        <time>2011-10-01T16:40:43.12</time>
      </trkpt>
      <trkpt lat="42.82053" lon="0.39432">
        <ele>2263</ele>
        <time>2011-10-01T16:40:44.12</time>
      </trkpt>
      <trkpt lat="42.82046" lon="0.3942">
        <ele>2261</ele>
        <time>2011-10-01T16:40:45.13</time>
      </trkpt>
      <trkpt lat="42.82039" lon="0.39408">
        <ele>2260.5</ele>
        <time>2011-10-01T16:40:46.13</time>
      </trkpt>
      <trkpt lat="42.82032" lon="0.39395">
        <ele>2260.5</ele>
        <time>2011-10-01T16:40:47.13</time>
      </trkpt>
      <trkpt lat="42.82026" lon="0.39381">
        <ele>2259</ele>
        <time>2011-10-01T16:40:48.12</time>
      </trkpt>
      <trkpt lat="42.8202" lon="0.39368">
        <ele>2258.5</ele>
        <time>2011-10-01T16:40:49.12</time>
      </trkpt>
      <trkpt lat="42.82014" lon="0.39355">
        <ele>2258</ele>
        <time>2011-10-01T16:40:50.12</time>
      </trkpt>
      <trkpt lat="42.8201" lon="0.39342">
        <ele>2256</ele>
        <time>2011-10-01T16:40:51.13</time>
      </trkpt>
      <trkpt lat="42.82006" lon="0.39327">
        <ele>2253.5</ele>
        <time>2011-10-01T16:40:52.13</time>
      </trkpt>
      <trkpt lat="42.82003" lon="0.39312">
        <ele>2251.5</ele>
        <time>2011-10-01T16:40:53.13</time>
      </trkpt>
      <trkpt lat="42.82" lon="0.39296">
        <ele>2250</ele>
        <time>2011-10-01T16:40:54.13</time>
      </trkpt>
      <trkpt lat="42.81998" lon="0.39281">
        <ele>2249.5</ele>
        <time>2011-10-01T16:40:55.13</time>
      </trkpt>
      <trkpt lat="42.81997" lon="0.39266">
        <ele>2248</ele>
        <time>2011-10-01T16:40:56.13</time>
      </trkpt>
      <trkpt lat="42.81998" lon="0.39252">
        <ele>2247</ele>
        <time>2011-10-01T16:40:57.13</time>
      </trkpt>
      <trkpt lat="42.81998" lon="0.39237">
        <ele>2246.5</ele>
        <time>2011-10-01T16:40:58.14</time>
      </trkpt>
      <trkpt lat="42.81999" lon="0.39221">
        <ele>2246.5</ele>
        <time>2011-10-01T16:40:59.14</time>
      </trkpt>
      <trkpt lat="42.81999" lon="0.39203">
        <ele>2244</ele>
        <time>2011-10-01T16:41:00.13</time>
      </trkpt>
      <trkpt lat="42.81998" lon="0.39187">
        <ele>2242</ele>
        <time>2011-10-01T16:41:01.13</time>
      </trkpt>
      <trkpt lat="42.81997" lon="0.3917">
        <ele>2240.5</ele>
        <time>2011-10-01T16:41:02.13</time>
      </trkpt>
      <trkpt lat="42.81995" lon="0.39155">
        <ele>2238.5</ele>
        <time>2011-10-01T16:41:03.13</time>
      </trkpt>
      <trkpt lat="42.81993" lon="0.39139">
        <ele>2236</ele>
        <time>2011-10-01T16:41:04.14</time>
      </trkpt>
      <trkpt lat="42.81991" lon="0.39123">
        <ele>2234</ele>
        <time>2011-10-01T16:41:05.12</time>
      </trkpt>
      <trkpt lat="42.81989" lon="0.39108">
        <ele>2231</ele>
        <time>2011-10-01T16:41:06.14</time>
      </trkpt>
      <trkpt lat="42.81987" lon="0.39092">
        <ele>2229</ele>
        <time>2011-10-01T16:41:07.13</time>
      </trkpt>
      <trkpt lat="42.81984" lon="0.39077">
        <ele>2227</ele>
        <time>2011-10-01T16:41:08.14</time>
      </trkpt>
      <trkpt lat="42.81981" lon="0.39061">
        <ele>2226</ele>
        <time>2011-10-01T16:41:09.13</time>
      </trkpt>
      <trkpt lat="42.81978" lon="0.39046">
        <ele>2224.5</ele>
        <time>2011-10-01T16:41:10.14</time>
      </trkpt>
      <trkpt lat="42.81974" lon="0.39032">
        <ele>2223.5</ele>
        <time>2011-10-01T16:41:11.13</time>
      </trkpt>
      <trkpt lat="42.81969" lon="0.39018">
        <ele>2222.5</ele>
        <time>2011-10-01T16:41:12.13</time>
      </trkpt>
      <trkpt lat="42.81964" lon="0.39004">
        <ele>2221</ele>
        <time>2011-10-01T16:41:13.13</time>
      </trkpt>
      <trkpt lat="42.81959" lon="0.38991">
        <ele>2219.5</ele>
        <time>2011-10-01T16:41:14.14</time>
      </trkpt>
      <trkpt lat="42.81952" lon="0.38979">
        <ele>2218.5</ele>
        <time>2011-10-01T16:41:15.13</time>
      </trkpt>
      <trkpt lat="42.81945" lon="0.38967">
        <ele>2216.5</ele>
        <time>2011-10-01T16:41:16.13</time>
      </trkpt>
      <trkpt lat="42.81938" lon="0.38956">
        <ele>2214.5</ele>
        <time>2011-10-01T16:41:17.14</time>
      </trkpt>
      <trkpt lat="42.81929" lon="0.38945">
        <ele>2212.5</ele>
        <time>2011-10-01T16:41:18.12</time>
      </trkpt>
      <trkpt lat="42.8192" lon="0.38934">
        <ele>2210.5</ele>
        <time>2011-10-01T16:41:19.13</time>
      </trkpt>
      <trkpt lat="42.81912" lon="0.38924">
        <ele>2208</ele>
        <time>2011-10-01T16:41:20.13</time>
      </trkpt>
      <trkpt lat="42.81903" lon="0.38913">
        <ele>2206</ele>
        <time>2011-10-01T16:41:21.13</time>
      </trkpt>
      <trkpt lat="42.81895" lon="0.38902">
        <ele>2204</ele>
        <time>2011-10-01T16:41:22.13</time>
      </trkpt>
      <trkpt lat="42.81886" lon="0.38891">
        <ele>2202</ele>
        <time>2011-10-01T16:41:23.14</time>
      </trkpt>
      <trkpt lat="42.81879" lon="0.3888">
        <ele>2200.5</ele>
        <time>2011-10-01T16:41:24.12</time>
      </trkpt>
      <trkpt lat="42.81872" lon="0.38868">
        <ele>2198</ele>
        <time>2011-10-01T16:41:25.12</time>
      </trkpt>
      <trkpt lat="42.81866" lon="0.38855">
        <ele>2196</ele>
        <time>2011-10-01T16:41:26.13</time>
      </trkpt>
      <trkpt lat="42.8186" lon="0.38842">
        <ele>2194</ele>
        <time>2011-10-01T16:41:27.13</time>
      </trkpt>
      <trkpt lat="42.81855" lon="0.38829">
        <ele>2192</ele>
        <time>2011-10-01T16:41:28.13</time>
      </trkpt>
      <trkpt lat="42.81851" lon="0.38815">
        <ele>2190.5</ele>
        <time>2011-10-01T16:41:29.13</time>
      </trkpt>
      <trkpt lat="42.81847" lon="0.38801">
        <ele>2189</ele>
        <time>2011-10-01T16:41:30.14</time>
      </trkpt>
      <trkpt lat="42.81844" lon="0.38788">
        <ele>2188.5</ele>
        <time>2011-10-01T16:41:31.13</time>
      </trkpt>
      <trkpt lat="42.81842" lon="0.38773">
        <ele>2188</ele>
        <time>2011-10-01T16:41:32.13</time>
      </trkpt>
      <trkpt lat="42.8184" lon="0.38758">
        <ele>2187.5</ele>
        <time>2011-10-01T16:41:33.13</time>
      </trkpt>
      <trkpt lat="42.81838" lon="0.38742">
        <ele>2187</ele>
        <time>2011-10-01T16:41:34.13</time>
      </trkpt>
      <trkpt lat="42.81835" lon="0.38726">
        <ele>2185.5</ele>
        <time>2011-10-01T16:41:35.13</time>
      </trkpt>
      <trkpt lat="42.81833" lon="0.3871">
        <ele>2184.5</ele>
        <time>2011-10-01T16:41:36.13</time>
      </trkpt>
      <trkpt lat="42.81831" lon="0.38694">
        <ele>2183</ele>
        <time>2011-10-01T16:41:37.12</time>
      </trkpt>
      <trkpt lat="42.8183" lon="0.38678">
        <ele>2181</ele>
        <time>2011-10-01T16:41:38.14</time>
      </trkpt>
      <trkpt lat="42.81828" lon="0.38662">
        <ele>2179</ele>
        <time>2011-10-01T16:41:39.13</time>
      </trkpt>
      <trkpt lat="42.81825" lon="0.38646">
        <ele>2177.5</ele>
        <time>2011-10-01T16:41:40.13</time>
      </trkpt>
      <trkpt lat="42.81822" lon="0.3863">
        <ele>2175.5</ele>
        <time>2011-10-01T16:41:41.13</time>
      </trkpt>
      <trkpt lat="42.81819" lon="0.38614">
        <ele>2173</ele>
        <time>2011-10-01T16:41:42.13</time>
      </trkpt>
      <trkpt lat="42.81815" lon="0.38599">
        <ele>2171</ele>
        <time>2011-10-01T16:41:43.13</time>
      </trkpt>
      <trkpt lat="42.8181" lon="0.38584">
        <ele>2169.5</ele>
        <time>2011-10-01T16:41:44.14</time>
      </trkpt>
      <trkpt lat="42.81805" lon="0.38569">
        <ele>2167.5</ele>
        <time>2011-10-01T16:41:45.13</time>
      </trkpt>
      <trkpt lat="42.818" lon="0.38554">
        <ele>2167.5</ele>
        <time>2011-10-01T16:41:46.14</time>
      </trkpt>
      <trkpt lat="42.81793" lon="0.3854">
        <ele>2167</ele>
        <time>2011-10-01T16:41:47.13</time>
      </trkpt>
      <trkpt lat="42.81786" lon="0.38528">
        <ele>2167</ele>
        <time>2011-10-01T16:41:48.13</time>
      </trkpt>
      <trkpt lat="42.81777" lon="0.38516">
        <ele>2165.5</ele>
        <time>2011-10-01T16:41:49.13</time>
      </trkpt>
      <trkpt lat="42.81769" lon="0.38506">
        <ele>2164</ele>
        <time>2011-10-01T16:41:50.14</time>
      </trkpt>
      <trkpt lat="42.81759" lon="0.38497">
        <ele>2161.5</ele>
        <time>2011-10-01T16:41:51.14</time>
      </trkpt>
      <trkpt lat="42.81749" lon="0.3849">
        <ele>2160</ele>
        <time>2011-10-01T16:41:52.13</time>
      </trkpt>
      <trkpt lat="42.81739" lon="0.38482">
        <ele>2159.5</ele>
        <time>2011-10-01T16:41:53.14</time>
      </trkpt>
      <trkpt lat="42.81728" lon="0.38476">
        <ele>2159.5</ele>
        <time>2011-10-01T16:41:54.13</time>
      </trkpt>
      <trkpt lat="42.81717" lon="0.38469">
        <ele>2159</ele>
        <time>2011-10-01T16:41:55.14</time>
      </trkpt>
      <trkpt lat="42.81704" lon="0.38463">
        <ele>2157</ele>
        <time>2011-10-01T16:41:56.13</time>
      </trkpt>
      <trkpt lat="42.81693" lon="0.38458">
        <ele>2155.5</ele>
        <time>2011-10-01T16:41:57.12</time>
      </trkpt>
      <trkpt lat="42.81682" lon="0.38453">
        <ele>2154</ele>
        <time>2011-10-01T16:41:58.12</time>
      </trkpt>
      <trkpt lat="42.81671" lon="0.38448">
        <ele>2154</ele>
        <time>2011-10-01T16:41:59.13</time>
      </trkpt>
      <trkpt lat="42.81658" lon="0.38445">
        <ele>2152.5</ele>
        <time>2011-10-01T16:42:00.12</time>
      </trkpt>
      <trkpt lat="42.81644" lon="0.38443">
        <ele>2150</ele>
        <time>2011-10-01T16:42:01.13</time>
      </trkpt>
      <trkpt lat="42.81632" lon="0.38442">
        <ele>2148.5</ele>
        <time>2011-10-01T16:42:02.12</time>
      </trkpt>
      <trkpt lat="42.8162" lon="0.38442">
        <ele>2147</ele>
        <time>2011-10-01T16:42:03.13</time>
      </trkpt>
      <trkpt lat="42.81609" lon="0.38443">
        <ele>2146.5</ele>
        <time>2011-10-01T16:42:04.13</time>
      </trkpt>
      <trkpt lat="42.81599" lon="0.38443">
        <ele>2145</ele>
        <time>2011-10-01T16:42:05.13</time>
      </trkpt>
      <trkpt lat="42.81588" lon="0.38444">
        <ele>2142.5</ele>
        <time>2011-10-01T16:42:06.14</time>
      </trkpt>
      <trkpt lat="42.81577" lon="0.38444">
        <ele>2140.5</ele>
        <time>2011-10-01T16:42:07.13</time>
      </trkpt>
      <trkpt lat="42.81565" lon="0.38446">
        <ele>2138</ele>
        <time>2011-10-01T16:42:08.13</time>
      </trkpt>
      <trkpt lat="42.81554" lon="0.38449">
        <ele>2136</ele>
        <time>2011-10-01T16:42:09.12</time>
      </trkpt>
      <trkpt lat="42.81543" lon="0.38453">
        <ele>2134</ele>
        <time>2011-10-01T16:42:10.14</time>
      </trkpt>
      <trkpt lat="42.81532" lon="0.38458">
        <ele>2134</ele>
        <time>2011-10-01T16:42:11.14</time>
      </trkpt>
      <trkpt lat="42.81521" lon="0.38465">
        <ele>2132</ele>
        <time>2011-10-01T16:42:12.14</time>
      </trkpt>
      <trkpt lat="42.81512" lon="0.38475">
        <ele>2130.5</ele>
        <time>2011-10-01T16:42:13.12</time>
      </trkpt>
      <trkpt lat="42.81503" lon="0.38485">
        <ele>2129</ele>
        <time>2011-10-01T16:42:14.13</time>
      </trkpt>
      <trkpt lat="42.81495" lon="0.38496">
        <ele>2126</ele>
        <time>2011-10-01T16:42:15.14</time>
      </trkpt>
      <trkpt lat="42.81489" lon="0.38509">
        <ele>2125</ele>
        <time>2011-10-01T16:42:16.13</time>
      </trkpt>
      <trkpt lat="42.81483" lon="0.38523">
        <ele>2121.5</ele>
        <time>2011-10-01T16:42:17.14</time>
      </trkpt>
      <trkpt lat="42.81479" lon="0.38538">
        <ele>2120.5</ele>
        <time>2011-10-01T16:42:18.13</time>
      </trkpt>
      <trkpt lat="42.81475" lon="0.38554">
        <ele>2116</ele>
        <time>2011-10-01T16:42:19.14</time>
      </trkpt>
      <trkpt lat="42.81474" lon="0.3857">
        <ele>2112</ele>
        <time>2011-10-01T16:42:20.13</time>
      </trkpt>
      <trkpt lat="42.81475" lon="0.38588">
        <ele>2110.5</ele>
        <time>2011-10-01T16:42:21.13</time>
      </trkpt>
      <trkpt lat="42.81477" lon="0.38605">
        <ele>2108.5</ele>
        <time>2011-10-01T16:42:22.13</time>
      </trkpt>
      <trkpt lat="42.81479" lon="0.38622">
        <ele>2106.5</ele>
        <time>2011-10-01T16:42:23.13</time>
      </trkpt>
      <trkpt lat="42.81481" lon="0.3864">
        <ele>2103.5</ele>
        <time>2011-10-01T16:42:24.12</time>
      </trkpt>
      <trkpt lat="42.81481" lon="0.38657">
        <ele>2100</ele>
        <time>2011-10-01T16:42:25.13</time>
      </trkpt>
      <trkpt lat="42.81482" lon="0.38674">
        <ele>2096.5</ele>
        <time>2011-10-01T16:42:26.13</time>
      </trkpt>
      <trkpt lat="42.81482" lon="0.38691">
        <ele>2094</ele>
        <time>2011-10-01T16:42:27.13</time>
      </trkpt>
      <trkpt lat="42.81481" lon="0.38707">
        <ele>2091.5</ele>
        <time>2011-10-01T16:42:28.13</time>
      </trkpt>
      <trkpt lat="42.81479" lon="0.38722">
        <ele>2088.5</ele>
        <time>2011-10-01T16:42:29.13</time>
      </trkpt>
      <trkpt lat="42.81476" lon="0.38738">
        <ele>2088</ele>
        <time>2011-10-01T16:42:30.12</time>
      </trkpt>
      <trkpt lat="42.81471" lon="0.38752">
        <ele>2085.5</ele>
        <time>2011-10-01T16:42:31.13</time>
      </trkpt>
      <trkpt lat="42.81464" lon="0.38766">
        <ele>2083</ele>
        <time>2011-10-01T16:42:32.14</time>
      </trkpt>
      <trkpt lat="42.81456" lon="0.38778">
        <ele>2080.5</ele>
        <time>2011-10-01T16:42:33.14</time>
      </trkpt>
      <trkpt lat="42.81446" lon="0.38787">
        <ele>2078.5</ele>
        <time>2011-10-01T16:42:34.13</time>
      </trkpt>
      <trkpt lat="42.81435" lon="0.38795">
        <ele>2076.5</ele>
        <time>2011-10-01T16:42:35.13</time>
      </trkpt>
      <trkpt lat="42.81425" lon="0.38803">
        <ele>2074</ele>
        <time>2011-10-01T16:42:36.13</time>
      </trkpt>
      <trkpt lat="42.81414" lon="0.3881">
        <ele>2073.5</ele>
        <time>2011-10-01T16:42:37.12</time>
      </trkpt>
      <trkpt lat="42.81403" lon="0.38817">
        <ele>2072.5</ele>
        <time>2011-10-01T16:42:38.14</time>
      </trkpt>
      <trkpt lat="42.8139" lon="0.38824">
        <ele>2071</ele>
        <time>2011-10-01T16:42:39.14</time>
      </trkpt>
      <trkpt lat="42.81377" lon="0.38831">
        <ele>2070</ele>
        <time>2011-10-01T16:42:40.15</time>
      </trkpt>
      <trkpt lat="42.81365" lon="0.38837">
        <ele>2069</ele>
        <time>2011-10-01T16:42:41.12</time>
      </trkpt>
      <trkpt lat="42.81352" lon="0.38845">
        <ele>2067.5</ele>
        <time>2011-10-01T16:42:42.13</time>
      </trkpt>
      <trkpt lat="42.8134" lon="0.38852">
        <ele>2067</ele>
        <time>2011-10-01T16:42:43.13</time>
      </trkpt>
      <trkpt lat="42.81327" lon="0.3886">
        <ele>2066</ele>
        <time>2011-10-01T16:42:44.13</time>
      </trkpt>
      <trkpt lat="42.81315" lon="0.38868">
        <ele>2064.5</ele>
        <time>2011-10-01T16:42:45.14</time>
      </trkpt>
      <trkpt lat="42.81302" lon="0.38875">
        <ele>2063.5</ele>
        <time>2011-10-01T16:42:46.13</time>
      </trkpt>
      <trkpt lat="42.81289" lon="0.38881">
        <ele>2062</ele>
        <time>2011-10-01T16:42:47.13</time>
      </trkpt>
      <trkpt lat="42.81276" lon="0.38887">
        <ele>2061</ele>
        <time>2011-10-01T16:42:48.14</time>
      </trkpt>
      <trkpt lat="42.81263" lon="0.38892">
        <ele>2060</ele>
        <time>2011-10-01T16:42:49.13</time>
      </trkpt>
      <trkpt lat="42.8125" lon="0.38896">
        <ele>2059.5</ele>
        <time>2011-10-01T16:42:50.13</time>
      </trkpt>
      <trkpt lat="42.81237" lon="0.389">
        <ele>2057.5</ele>
        <time>2011-10-01T16:42:51.13</time>
      </trkpt>
      <trkpt lat="42.81224" lon="0.38906">
        <ele>2055.5</ele>
        <time>2011-10-01T16:42:52.14</time>
      </trkpt>
      <trkpt lat="42.81212" lon="0.38915">
        <ele>2054</ele>
        <time>2011-10-01T16:42:53.13</time>
      </trkpt>
      <trkpt lat="42.81201" lon="0.38929">
        <ele>2054</ele>
        <time>2011-10-01T16:42:54.13</time>
      </trkpt>
      <trkpt lat="42.81193" lon="0.38945">
        <ele>2054</ele>
        <time>2011-10-01T16:42:55.13</time>
      </trkpt>
      <trkpt lat="42.8119" lon="0.38963">
        <ele>2053.5</ele>
        <time>2011-10-01T16:42:56.14</time>
      </trkpt>
      <trkpt lat="42.81192" lon="0.38982">
        <ele>2052.5</ele>
        <time>2011-10-01T16:42:57.13</time>
      </trkpt>
      <trkpt lat="42.81199" lon="0.38996">
        <ele>2050.5</ele>
        <time>2011-10-01T16:42:58.13</time>
      </trkpt>
      <trkpt lat="42.81219" lon="0.39008">
        <ele>2049.5</ele>
        <time>2011-10-01T16:43:00.13</time>
      </trkpt>
      <trkpt lat="42.81228" lon="0.39008">
        <ele>2048.5</ele>
        <time>2011-10-01T16:43:01.13</time>
      </trkpt>
      <trkpt lat="42.81238" lon="0.39003">
        <ele>2048</ele>
        <time>2011-10-01T16:43:02.13</time>
      </trkpt>
      <trkpt lat="42.81247" lon="0.38997">
        <ele>2046</ele>
        <time>2011-10-01T16:43:03.13</time>
      </trkpt>
      <trkpt lat="42.81255" lon="0.3899">
        <ele>2044</ele>
        <time>2011-10-01T16:43:04.14</time>
      </trkpt>
      <trkpt lat="42.81265" lon="0.38984">
        <ele>2043</ele>
        <time>2011-10-01T16:43:05.13</time>
      </trkpt>
      <trkpt lat="42.81275" lon="0.38978">
        <ele>2042.5</ele>
        <time>2011-10-01T16:43:06.13</time>
      </trkpt>
      <trkpt lat="42.81287" lon="0.38975">
        <ele>2040.5</ele>
        <time>2011-10-01T16:43:07.14</time>
      </trkpt>
      <trkpt lat="42.81299" lon="0.38972">
        <ele>2039</ele>
        <time>2011-10-01T16:43:08.14</time>
      </trkpt>
      <trkpt lat="42.8132" lon="0.38974">
        <ele>2034.5</ele>
        <time>2011-10-01T16:43:10.14</time>
      </trkpt>
      <trkpt lat="42.81331" lon="0.38977">
        <ele>2032</ele>
        <time>2011-10-01T16:43:11.13</time>
      </trkpt>
      <trkpt lat="42.81342" lon="0.38983">
        <ele>2030.5</ele>
        <time>2011-10-01T16:43:12.13</time>
      </trkpt>
      <trkpt lat="42.81353" lon="0.3899">
        <ele>2029.5</ele>
        <time>2011-10-01T16:43:13.14</time>
      </trkpt>
      <trkpt lat="42.81362" lon="0.38999">
        <ele>2028.5</ele>
        <time>2011-10-01T16:43:14.13</time>
      </trkpt>
      <trkpt lat="42.81369" lon="0.3901">
        <ele>2028</ele>
        <time>2011-10-01T16:43:15.14</time>
      </trkpt>
      <trkpt lat="42.81376" lon="0.39025">
        <ele>2027.5</ele>
        <time>2011-10-01T16:43:16.14</time>
      </trkpt>
      <trkpt lat="42.81381" lon="0.39041">
        <ele>2025.5</ele>
        <time>2011-10-01T16:43:17.13</time>
      </trkpt>
      <trkpt lat="42.81385" lon="0.39059">
        <ele>2023.5</ele>
        <time>2011-10-01T16:43:18.15</time>
      </trkpt>
      <trkpt lat="42.81387" lon="0.39077">
        <ele>2021.5</ele>
        <time>2011-10-01T16:43:19.13</time>
      </trkpt>
      <trkpt lat="42.81389" lon="0.39094">
        <ele>2021.5</ele>
        <time>2011-10-01T16:43:20.14</time>
      </trkpt>
      <trkpt lat="42.8139" lon="0.3911">
        <ele>2020.5</ele>
        <time>2011-10-01T16:43:21.14</time>
      </trkpt>
      <trkpt lat="42.81391" lon="0.39126">
        <ele>2019.5</ele>
        <time>2011-10-01T16:43:22.14</time>
      </trkpt>
      <trkpt lat="42.81391" lon="0.39142">
        <ele>2018.5</ele>
        <time>2011-10-01T16:43:23.14</time>
      </trkpt>
      <trkpt lat="42.81391" lon="0.39158">
        <ele>2017.5</ele>
        <time>2011-10-01T16:43:24.14</time>
      </trkpt>
      <trkpt lat="42.8139" lon="0.39176">
        <ele>2017.5</ele>
        <time>2011-10-01T16:43:25.13</time>
      </trkpt>
      <trkpt lat="42.81386" lon="0.39195">
        <ele>2017</ele>
        <time>2011-10-01T16:43:26.14</time>
      </trkpt>
      <trkpt lat="42.81377" lon="0.3921">
        <ele>2016.5</ele>
        <time>2011-10-01T16:43:27.13</time>
      </trkpt>
      <trkpt lat="42.81368" lon="0.39223">
        <ele>2015</ele>
        <time>2011-10-01T16:43:28.14</time>
      </trkpt>
      <trkpt lat="42.81348" lon="0.39233">
        <ele>2012</ele>
        <time>2011-10-01T16:43:30.14</time>
      </trkpt>
      <trkpt lat="42.81338" lon="0.39228">
        <ele>2011</ele>
        <time>2011-10-01T16:43:31.13</time>
      </trkpt>
      <trkpt lat="42.81321" lon="0.39203">
        <ele>2010.5</ele>
        <time>2011-10-01T16:43:33.13</time>
      </trkpt>
      <trkpt lat="42.81314" lon="0.39191">
        <ele>2011</ele>
        <time>2011-10-01T16:43:34.14</time>
      </trkpt>
      <trkpt lat="42.81308" lon="0.39179">
        <ele>2011.5</ele>
        <time>2011-10-01T16:43:35.14</time>
      </trkpt>
      <trkpt lat="42.81302" lon="0.39168">
        <ele>2011.5</ele>
        <time>2011-10-01T16:43:36.14</time>
      </trkpt>
      <trkpt lat="42.81297" lon="0.39157">
        <ele>2010</ele>
        <time>2011-10-01T16:43:37.13</time>
      </trkpt>
      <trkpt lat="42.81291" lon="0.39146">
        <ele>2007.5</ele>
        <time>2011-10-01T16:43:38.14</time>
      </trkpt>
      <trkpt lat="42.81286" lon="0.39133">
        <ele>2006.5</ele>
        <time>2011-10-01T16:43:39.14</time>
      </trkpt>
      <trkpt lat="42.8128" lon="0.39119">
        <ele>2005</ele>
        <time>2011-10-01T16:43:40.14</time>
      </trkpt>
      <trkpt lat="42.81274" lon="0.39106">
        <ele>2004.5</ele>
        <time>2011-10-01T16:43:41.13</time>
      </trkpt>
      <trkpt lat="42.81269" lon="0.39093">
        <ele>2004.5</ele>
        <time>2011-10-01T16:43:42.14</time>
      </trkpt>
      <trkpt lat="42.81266" lon="0.3908">
        <ele>2003</ele>
        <time>2011-10-01T16:43:43.13</time>
      </trkpt>
      <trkpt lat="42.81262" lon="0.39067">
        <ele>2000.5</ele>
        <time>2011-10-01T16:43:44.13</time>
      </trkpt>
      <trkpt lat="42.8126" lon="0.39054">
        <ele>1998</ele>
        <time>2011-10-01T16:43:45.13</time>
      </trkpt>
      <trkpt lat="42.81258" lon="0.39041">
        <ele>1996</ele>
        <time>2011-10-01T16:43:46.13</time>
      </trkpt>
      <trkpt lat="42.81255" lon="0.39028">
        <ele>1994</ele>
        <time>2011-10-01T16:43:47.14</time>
      </trkpt>
      <trkpt lat="42.81253" lon="0.39015">
        <ele>1991.5</ele>
        <time>2011-10-01T16:43:48.13</time>
      </trkpt>
      <trkpt lat="42.8125" lon="0.39002">
        <ele>1989</ele>
        <time>2011-10-01T16:43:49.14</time>
      </trkpt>
      <trkpt lat="42.81246" lon="0.3899">
        <ele>1989</ele>
        <time>2011-10-01T16:43:50.13</time>
      </trkpt>
      <trkpt lat="42.81239" lon="0.38977">
        <ele>1988</ele>
        <time>2011-10-01T16:43:51.14</time>
      </trkpt>
      <trkpt lat="42.8123" lon="0.38964">
        <ele>1988</ele>
        <time>2011-10-01T16:43:52.13</time>
      </trkpt>
      <trkpt lat="42.81223" lon="0.38954">
        <ele>1988.5</ele>
        <time>2011-10-01T16:43:53.13</time>
      </trkpt>
      <trkpt lat="42.81215" lon="0.38945">
        <ele>1988.5</ele>
        <time>2011-10-01T16:43:54.14</time>
      </trkpt>
      <trkpt lat="42.81208" lon="0.38936">
        <ele>1988.5</ele>
        <time>2011-10-01T16:43:55.13</time>
      </trkpt>
      <trkpt lat="42.812" lon="0.38926">
        <ele>1987</ele>
        <time>2011-10-01T16:43:56.14</time>
      </trkpt>
      <trkpt lat="42.81193" lon="0.38916">
        <ele>1985.5</ele>
        <time>2011-10-01T16:43:57.14</time>
      </trkpt>
      <trkpt lat="42.81185" lon="0.38905">
        <ele>1984</ele>
        <time>2011-10-01T16:43:58.14</time>
      </trkpt>
      <trkpt lat="42.81178" lon="0.38893">
        <ele>1982.5</ele>
        <time>2011-10-01T16:43:59.13</time>
      </trkpt>
      <trkpt lat="42.8117" lon="0.38881">
        <ele>1982.5</ele>
        <time>2011-10-01T16:44:00.13</time>
      </trkpt>
      <trkpt lat="42.81162" lon="0.3887">
        <ele>1983</ele>
        <time>2011-10-01T16:44:01.13</time>
      </trkpt>
      <trkpt lat="42.81156" lon="0.3886">
        <ele>1982.5</ele>
        <time>2011-10-01T16:44:02.13</time>
      </trkpt>
      <trkpt lat="42.81152" lon="0.3885">
        <ele>1980.5</ele>
        <time>2011-10-01T16:44:03.14</time>
      </trkpt>
      <trkpt lat="42.81149" lon="0.38838">
        <ele>1978</ele>
        <time>2011-10-01T16:44:04.13</time>
      </trkpt>
      <trkpt lat="42.81145" lon="0.38825">
        <ele>1975.5</ele>
        <time>2011-10-01T16:44:05.14</time>
      </trkpt>
      <trkpt lat="42.81142" lon="0.38811">
        <ele>1974</ele>
        <time>2011-10-01T16:44:06.13</time>
      </trkpt>
      <trkpt lat="42.81139" lon="0.38798">
        <ele>1973.5</ele>
        <time>2011-10-01T16:44:07.14</time>
      </trkpt>
      <trkpt lat="42.81135" lon="0.38785">
        <ele>1973</ele>
        <time>2011-10-01T16:44:08.13</time>
      </trkpt>
      <trkpt lat="42.81131" lon="0.38772">
        <ele>1972</ele>
        <time>2011-10-01T16:44:09.13</time>
      </trkpt>
      <trkpt lat="42.81126" lon="0.38759">
        <ele>1970.5</ele>
        <time>2011-10-01T16:44:10.14</time>
      </trkpt>
      <trkpt lat="42.8112" lon="0.38747">
        <ele>1969</ele>
        <time>2011-10-01T16:44:11.14</time>
      </trkpt>
      <trkpt lat="42.81114" lon="0.38734">
        <ele>1968</ele>
        <time>2011-10-01T16:44:12.14</time>
      </trkpt>
      <trkpt lat="42.81109" lon="0.38721">
        <ele>1966.5</ele>
        <time>2011-10-01T16:44:13.13</time>
      </trkpt>
      <trkpt lat="42.81103" lon="0.38709">
        <ele>1965</ele>
        <time>2011-10-01T16:44:14.14</time>
      </trkpt>
      <trkpt lat="42.81098" lon="0.38697">
        <ele>1964.5</ele>
        <time>2011-10-01T16:44:15.13</time>
      </trkpt>
      <trkpt lat="42.81091" lon="0.38684">
        <ele>1963</ele>
        <time>2011-10-01T16:44:16.13</time>
      </trkpt>
      <trkpt lat="42.81085" lon="0.3867">
        <ele>1961.5</ele>
        <time>2011-10-01T16:44:17.13</time>
      </trkpt>
      <trkpt lat="42.81079" lon="0.38657">
        <ele>1960.5</ele>
        <time>2011-10-01T16:44:18.14</time>
      </trkpt>
      <trkpt lat="42.81073" lon="0.38644">
        <ele>1959.5</ele>
        <time>2011-10-01T16:44:19.13</time>
      </trkpt>
      <trkpt lat="42.81068" lon="0.3863">
        <ele>1958</ele>
        <time>2011-10-01T16:44:20.14</time>
      </trkpt>
      <trkpt lat="42.81063" lon="0.38617">
        <ele>1955.5</ele>
        <time>2011-10-01T16:44:21.14</time>
      </trkpt>
      <trkpt lat="42.81058" lon="0.38604">
        <ele>1953.5</ele>
        <time>2011-10-01T16:44:22.13</time>
      </trkpt>
      <trkpt lat="42.81052" lon="0.38591">
        <ele>1952.5</ele>
        <time>2011-10-01T16:44:23.14</time>
      </trkpt>
      <trkpt lat="42.81046" lon="0.38578">
        <ele>1951</ele>
        <time>2011-10-01T16:44:24.14</time>
      </trkpt>
      <trkpt lat="42.81039" lon="0.38566">
        <ele>1950</ele>
        <time>2011-10-01T16:44:25.14</time>
      </trkpt>
      <trkpt lat="42.81033" lon="0.38553">
        <ele>1948</ele>
        <time>2011-10-01T16:44:26.14</time>
      </trkpt>
      <trkpt lat="42.81026" lon="0.38539">
        <ele>1945.5</ele>
        <time>2011-10-01T16:44:27.14</time>
      </trkpt>
      <trkpt lat="42.81021" lon="0.38524">
        <ele>1944</ele>
        <time>2011-10-01T16:44:28.14</time>
      </trkpt>
      <trkpt lat="42.81017" lon="0.38509">
        <ele>1943</ele>
        <time>2011-10-01T16:44:29.14</time>
      </trkpt>
      <trkpt lat="42.81014" lon="0.38494">
        <ele>1942.5</ele>
        <time>2011-10-01T16:44:30.14</time>
      </trkpt>
      <trkpt lat="42.81012" lon="0.38481">
        <ele>1941.5</ele>
        <time>2011-10-01T16:44:31.14</time>
      </trkpt>
      <trkpt lat="42.81009" lon="0.38467">
        <ele>1939</ele>
        <time>2011-10-01T16:44:32.14</time>
      </trkpt>
      <trkpt lat="42.81006" lon="0.38453">
        <ele>1936.5</ele>
        <time>2011-10-01T16:44:33.13</time>
      </trkpt>
      <trkpt lat="42.81001" lon="0.38439">
        <ele>1937</ele>
        <time>2011-10-01T16:44:34.13</time>
      </trkpt>
      <trkpt lat="42.80996" lon="0.38426">
        <ele>1937</ele>
        <time>2011-10-01T16:44:35.14</time>
      </trkpt>
      <trkpt lat="42.80991" lon="0.38414">
        <ele>1937.5</ele>
        <time>2011-10-01T16:44:36.14</time>
      </trkpt>
      <trkpt lat="42.80984" lon="0.38403">
        <ele>1936</ele>
        <time>2011-10-01T16:44:37.14</time>
      </trkpt>
      <trkpt lat="42.80977" lon="0.38391">
        <ele>1935.5</ele>
        <time>2011-10-01T16:44:38.15</time>
      </trkpt>
      <trkpt lat="42.80957" lon="0.38368">
        <ele>1934.5</ele>
        <time>2011-10-01T16:44:40.14</time>
      </trkpt>
      <trkpt lat="42.80944" lon="0.38358">
        <ele>1934.5</ele>
        <time>2011-10-01T16:44:41.13</time>
      </trkpt>
      <trkpt lat="42.80933" lon="0.38349">
        <ele>1933.5</ele>
        <time>2011-10-01T16:44:42.13</time>
      </trkpt>
      <trkpt lat="42.80922" lon="0.3834">
        <ele>1932</ele>
        <time>2011-10-01T16:44:43.13</time>
      </trkpt>
      <trkpt lat="42.80911" lon="0.38331">
        <ele>1930</ele>
        <time>2011-10-01T16:44:44.13</time>
      </trkpt>
      <trkpt lat="42.80901" lon="0.38322">
        <ele>1929</ele>
        <time>2011-10-01T16:44:45.18</time>
      </trkpt>
      <trkpt lat="42.80892" lon="0.38311">
        <ele>1927.5</ele>
        <time>2011-10-01T16:44:46.13</time>
      </trkpt>
      <trkpt lat="42.80872" lon="0.38283">
        <ele>1925</ele>
        <time>2011-10-01T16:44:48.12</time>
      </trkpt>
      <trkpt lat="42.80863" lon="0.3827">
        <ele>1924</ele>
        <time>2011-10-01T16:44:49.13</time>
      </trkpt>
      <trkpt lat="42.80854" lon="0.38258">
        <ele>1923.5</ele>
        <time>2011-10-01T16:44:50.12</time>
      </trkpt>
      <trkpt lat="42.80844" lon="0.38246">
        <ele>1922</ele>
        <time>2011-10-01T16:44:51.13</time>
      </trkpt>
      <trkpt lat="42.80834" lon="0.38236">
        <ele>1920.5</ele>
        <time>2011-10-01T16:44:52.12</time>
      </trkpt>
      <trkpt lat="42.80824" lon="0.38225">
        <ele>1918.5</ele>
        <time>2011-10-01T16:44:53.13</time>
      </trkpt>
      <trkpt lat="42.80814" lon="0.38215">
        <ele>1917</ele>
        <time>2011-10-01T16:44:54.12</time>
      </trkpt>
      <trkpt lat="42.80804" lon="0.38205">
        <ele>1915.5</ele>
        <time>2011-10-01T16:44:55.12</time>
      </trkpt>
      <trkpt lat="42.80793" lon="0.38196">
        <ele>1914</ele>
        <time>2011-10-01T16:44:56.13</time>
      </trkpt>
      <trkpt lat="42.80783" lon="0.38188">
        <ele>1912.5</ele>
        <time>2011-10-01T16:44:57.12</time>
      </trkpt>
      <trkpt lat="42.80773" lon="0.3818">
        <ele>1910.5</ele>
        <time>2011-10-01T16:44:58.12</time>
      </trkpt>
      <trkpt lat="42.80763" lon="0.38173">
        <ele>1910</ele>
        <time>2011-10-01T16:44:59.12</time>
      </trkpt>
      <trkpt lat="42.80752" lon="0.38166">
        <ele>1909.5</ele>
        <time>2011-10-01T16:45:00.12</time>
      </trkpt>
      <trkpt lat="42.80741" lon="0.3816">
        <ele>1909</ele>
        <time>2011-10-01T16:45:01.12</time>
      </trkpt>
      <trkpt lat="42.80729" lon="0.38153">
        <ele>1907</ele>
        <time>2011-10-01T16:45:02.13</time>
      </trkpt>
      <trkpt lat="42.80717" lon="0.38147">
        <ele>1904.5</ele>
        <time>2011-10-01T16:45:03.12</time>
      </trkpt>
      <trkpt lat="42.80706" lon="0.38142">
        <ele>1902</ele>
        <time>2011-10-01T16:45:04.13</time>
      </trkpt>
      <trkpt lat="42.80695" lon="0.38136">
        <ele>1902</ele>
        <time>2011-10-01T16:45:05.13</time>
      </trkpt>
      <trkpt lat="42.80685" lon="0.3813">
        <ele>1901.5</ele>
        <time>2011-10-01T16:45:06.14</time>
      </trkpt>
      <trkpt lat="42.80673" lon="0.38124">
        <ele>1899</ele>
        <time>2011-10-01T16:45:07.13</time>
      </trkpt>
      <trkpt lat="42.80662" lon="0.38117">
        <ele>1896.5</ele>
        <time>2011-10-01T16:45:08.13</time>
      </trkpt>
      <trkpt lat="42.80652" lon="0.38112">
        <ele>1894.5</ele>
        <time>2011-10-01T16:45:09.13</time>
      </trkpt>
      <trkpt lat="42.80641" lon="0.38106">
        <ele>1893</ele>
        <time>2011-10-01T16:45:10.13</time>
      </trkpt>
      <trkpt lat="42.80632" lon="0.381">
        <ele>1892.5</ele>
        <time>2011-10-01T16:45:11.12</time>
      </trkpt>
      <trkpt lat="42.80621" lon="0.38095">
        <ele>1892.5</ele>
        <time>2011-10-01T16:45:12.12</time>
      </trkpt>
      <trkpt lat="42.80609" lon="0.3809">
        <ele>1890.5</ele>
        <time>2011-10-01T16:45:13.12</time>
      </trkpt>
      <trkpt lat="42.80596" lon="0.38088">
        <ele>1889</ele>
        <time>2011-10-01T16:45:14.12</time>
      </trkpt>
      <trkpt lat="42.80584" lon="0.38085">
        <ele>1888.5</ele>
        <time>2011-10-01T16:45:15.12</time>
      </trkpt>
      <trkpt lat="42.80572" lon="0.38083">
        <ele>1887</ele>
        <time>2011-10-01T16:45:16.13</time>
      </trkpt>
      <trkpt lat="42.80561" lon="0.38081">
        <ele>1886</ele>
        <time>2011-10-01T16:45:17.12</time>
      </trkpt>
      <trkpt lat="42.8055" lon="0.38077">
        <ele>1885</ele>
        <time>2011-10-01T16:45:18.13</time>
      </trkpt>
      <trkpt lat="42.80539" lon="0.38073">
        <ele>1884</ele>
        <time>2011-10-01T16:45:19.12</time>
      </trkpt>
      <trkpt lat="42.80528" lon="0.38066">
        <ele>1882</ele>
        <time>2011-10-01T16:45:20.12</time>
      </trkpt>
      <trkpt lat="42.80519" lon="0.38058">
        <ele>1880</ele>
        <time>2011-10-01T16:45:21.13</time>
      </trkpt>
      <trkpt lat="42.8051" lon="0.3805">
        <ele>1877</ele>
        <time>2011-10-01T16:45:22.12</time>
      </trkpt>
      <trkpt lat="42.805" lon="0.38042">
        <ele>1875.5</ele>
        <time>2011-10-01T16:45:23.12</time>
      </trkpt>
      <trkpt lat="42.8049" lon="0.38035">
        <ele>1874</ele>
        <time>2011-10-01T16:45:24.13</time>
      </trkpt>
      <trkpt lat="42.80468" lon="0.38028">
        <ele>1872</ele>
        <time>2011-10-01T16:45:26.12</time>
      </trkpt>
      <trkpt lat="42.80456" lon="0.38025">
        <ele>1870.5</ele>
        <time>2011-10-01T16:45:27.13</time>
      </trkpt>
      <trkpt lat="42.80444" lon="0.38022">
        <ele>1870.5</ele>
        <time>2011-10-01T16:45:28.13</time>
      </trkpt>
      <trkpt lat="42.80431" lon="0.3802">
        <ele>1871.5</ele>
        <time>2011-10-01T16:45:29.13</time>
      </trkpt>
      <trkpt lat="42.80421" lon="0.38018">
        <ele>1871</ele>
        <time>2011-10-01T16:45:30.13</time>
      </trkpt>
      <trkpt lat="42.80412" lon="0.38016">
        <ele>1871.5</ele>
        <time>2011-10-01T16:45:31.13</time>
      </trkpt>
      <trkpt lat="42.80403" lon="0.38015">
        <ele>1870.5</ele>
        <time>2011-10-01T16:45:32.13</time>
      </trkpt>
      <trkpt lat="42.80393" lon="0.38016">
        <ele>1870.5</ele>
        <time>2011-10-01T16:45:33.13</time>
      </trkpt>
      <trkpt lat="42.80382" lon="0.38014">
        <ele>1870</ele>
        <time>2011-10-01T16:45:34.13</time>
      </trkpt>
      <trkpt lat="42.80371" lon="0.38011">
        <ele>1868.5</ele>
        <time>2011-10-01T16:45:35.14</time>
      </trkpt>
      <trkpt lat="42.80359" lon="0.38007">
        <ele>1868</ele>
        <time>2011-10-01T16:45:36.13</time>
      </trkpt>
      <trkpt lat="42.80347" lon="0.38003">
        <ele>1867.5</ele>
        <time>2011-10-01T16:45:37.13</time>
      </trkpt>
      <trkpt lat="42.80336" lon="0.37999">
        <ele>1869</ele>
        <time>2011-10-01T16:45:38.15</time>
      </trkpt>
      <trkpt lat="42.80326" lon="0.37997">
        <ele>1870.5</ele>
        <time>2011-10-01T16:45:39.12</time>
      </trkpt>
      <trkpt lat="42.80317" lon="0.37996">
        <ele>1869.5</ele>
        <time>2011-10-01T16:45:40.13</time>
      </trkpt>
      <trkpt lat="42.80307" lon="0.37997">
        <ele>1869.5</ele>
        <time>2011-10-01T16:45:41.13</time>
      </trkpt>
      <trkpt lat="42.80296" lon="0.37999">
        <ele>1867</ele>
        <time>2011-10-01T16:45:42.13</time>
      </trkpt>
      <trkpt lat="42.80283" lon="0.38003">
        <ele>1866.5</ele>
        <time>2011-10-01T16:45:43.13</time>
      </trkpt>
      <trkpt lat="42.80263" lon="0.38014">
        <ele>1868</ele>
        <time>2011-10-01T16:45:45.13</time>
      </trkpt>
      <trkpt lat="42.80253" lon="0.38019">
        <ele>1866.5</ele>
        <time>2011-10-01T16:45:46.13</time>
      </trkpt>
      <trkpt lat="42.80244" lon="0.38027">
        <ele>1866</ele>
        <time>2011-10-01T16:45:47.13</time>
      </trkpt>
      <trkpt lat="42.80235" lon="0.38034">
        <ele>1865.5</ele>
        <time>2011-10-01T16:45:48.13</time>
      </trkpt>
      <trkpt lat="42.80225" lon="0.38043">
        <ele>1865</ele>
        <time>2011-10-01T16:45:49.13</time>
      </trkpt>
      <trkpt lat="42.80215" lon="0.38052">
        <ele>1866.5</ele>
        <time>2011-10-01T16:45:50.13</time>
      </trkpt>
      <trkpt lat="42.80206" lon="0.38062">
        <ele>1866</ele>
        <time>2011-10-01T16:45:51.13</time>
      </trkpt>
      <trkpt lat="42.80197" lon="0.38071">
        <ele>1867.5</ele>
        <time>2011-10-01T16:45:52.14</time>
      </trkpt>
      <trkpt lat="42.80188" lon="0.38081">
        <ele>1866</ele>
        <time>2011-10-01T16:45:53.12</time>
      </trkpt>
      <trkpt lat="42.8018" lon="0.38092">
        <ele>1864</ele>
        <time>2011-10-01T16:45:54.14</time>
      </trkpt>
      <trkpt lat="42.80171" lon="0.38103">
        <ele>1862.5</ele>
        <time>2011-10-01T16:45:55.14</time>
      </trkpt>
      <trkpt lat="42.80161" lon="0.38114">
        <ele>1862.5</ele>
        <time>2011-10-01T16:45:56.14</time>
      </trkpt>
      <trkpt lat="42.8015" lon="0.38123">
        <ele>1862.5</ele>
        <time>2011-10-01T16:45:57.13</time>
      </trkpt>
      <trkpt lat="42.80134" lon="0.38141">
        <ele>1862</ele>
        <time>2011-10-01T16:45:59.14</time>
      </trkpt>
      <trkpt lat="42.80126" lon="0.38151">
        <ele>1862</ele>
        <time>2011-10-01T16:46:00.14</time>
      </trkpt>
      <trkpt lat="42.80118" lon="0.38161">
        <ele>1860.5</ele>
        <time>2011-10-01T16:46:01.14</time>
      </trkpt>
      <trkpt lat="42.80109" lon="0.38171">
        <ele>1860.5</ele>
        <time>2011-10-01T16:46:02.15</time>
      </trkpt>
      <trkpt lat="42.801" lon="0.38181">
        <ele>1860</ele>
        <time>2011-10-01T16:46:03.14</time>
      </trkpt>
      <trkpt lat="42.80092" lon="0.38191">
        <ele>1859.5</ele>
        <time>2011-10-01T16:46:04.15</time>
      </trkpt>
      <trkpt lat="42.80084" lon="0.38204">
        <ele>1859</ele>
        <time>2011-10-01T16:46:05.15</time>
      </trkpt>
      <trkpt lat="42.80071" lon="0.38237">
        <ele>1857.5</ele>
        <time>2011-10-01T16:46:07.14</time>
      </trkpt>
      <trkpt lat="42.80066" lon="0.38252">
        <ele>1857</ele>
        <time>2011-10-01T16:46:08.14</time>
      </trkpt>
      <trkpt lat="42.8006" lon="0.38268">
        <ele>1857</ele>
        <time>2011-10-01T16:46:09.14</time>
      </trkpt>
      <trkpt lat="42.80055" lon="0.38283">
        <ele>1856.5</ele>
        <time>2011-10-01T16:46:10.14</time>
      </trkpt>
      <trkpt lat="42.8005" lon="0.38298">
        <ele>1856.5</ele>
        <time>2011-10-01T16:46:11.14</time>
      </trkpt>
      <trkpt lat="42.80045" lon="0.38314">
        <ele>1856</ele>
        <time>2011-10-01T16:46:12.15</time>
      </trkpt>
      <trkpt lat="42.80041" lon="0.3833">
        <ele>1855.5</ele>
        <time>2011-10-01T16:46:13.15</time>
      </trkpt>
      <trkpt lat="42.80035" lon="0.38348">
        <ele>1854.5</ele>
        <time>2011-10-01T16:46:14.15</time>
      </trkpt>
      <trkpt lat="42.80031" lon="0.38367">
        <ele>1854</ele>
        <time>2011-10-01T16:46:15.16</time>
      </trkpt>
      <trkpt lat="42.80027" lon="0.38387">
        <ele>1853.5</ele>
        <time>2011-10-01T16:46:16.15</time>
      </trkpt>
      <trkpt lat="42.80023" lon="0.38407">
        <ele>1850</ele>
        <time>2011-10-01T16:46:17.15</time>
      </trkpt>
      <trkpt lat="42.80018" lon="0.38425">
        <ele>1847</ele>
        <time>2011-10-01T16:46:18.14</time>
      </trkpt>
      <trkpt lat="42.80014" lon="0.38443">
        <ele>1843.5</ele>
        <time>2011-10-01T16:46:19.14</time>
      </trkpt>
      <trkpt lat="42.8001" lon="0.38461">
        <ele>1840.5</ele>
        <time>2011-10-01T16:46:20.14</time>
      </trkpt>
      <trkpt lat="42.80006" lon="0.38477">
        <ele>1837.5</ele>
        <time>2011-10-01T16:46:21.14</time>
      </trkpt>
      <trkpt lat="42.80001" lon="0.38493">
        <ele>1835.5</ele>
        <time>2011-10-01T16:46:22.14</time>
      </trkpt>
      <trkpt lat="42.79994" lon="0.38507">
        <ele>1834.5</ele>
        <time>2011-10-01T16:46:23.14</time>
      </trkpt>
      <trkpt lat="42.79987" lon="0.38521">
        <ele>1834</ele>
        <time>2011-10-01T16:46:24.14</time>
      </trkpt>
      <trkpt lat="42.79979" lon="0.38535">
        <ele>1833.5</ele>
        <time>2011-10-01T16:46:25.14</time>
      </trkpt>
      <trkpt lat="42.79969" lon="0.38548">
        <ele>1831</ele>
        <time>2011-10-01T16:46:26.15</time>
      </trkpt>
      <trkpt lat="42.7996" lon="0.3856">
        <ele>1830.5</ele>
        <time>2011-10-01T16:46:27.14</time>
      </trkpt>
      <trkpt lat="42.79952" lon="0.38571">
        <ele>1829.5</ele>
        <time>2011-10-01T16:46:28.14</time>
      </trkpt>
      <trkpt lat="42.79943" lon="0.38582">
        <ele>1828</ele>
        <time>2011-10-01T16:46:29.14</time>
      </trkpt>
      <trkpt lat="42.79936" lon="0.38594">
        <ele>1827.5</ele>
        <time>2011-10-01T16:46:30.14</time>
      </trkpt>
      <trkpt lat="42.79927" lon="0.38607">
        <ele>1825.5</ele>
        <time>2011-10-01T16:46:31.14</time>
      </trkpt>
      <trkpt lat="42.79919" lon="0.38621">
        <ele>1825</ele>
        <time>2011-10-01T16:46:32.15</time>
      </trkpt>
      <trkpt lat="42.79912" lon="0.38637">
        <ele>1823.5</ele>
        <time>2011-10-01T16:46:33.14</time>
      </trkpt>
      <trkpt lat="42.79905" lon="0.38653">
        <ele>1822</ele>
        <time>2011-10-01T16:46:34.14</time>
      </trkpt>
      <trkpt lat="42.79899" lon="0.38669">
        <ele>1820</ele>
        <time>2011-10-01T16:46:35.14</time>
      </trkpt>
      <trkpt lat="42.79894" lon="0.38685">
        <ele>1817.5</ele>
        <time>2011-10-01T16:46:36.14</time>
      </trkpt>
      <trkpt lat="42.79889" lon="0.38701">
        <ele>1817</ele>
        <time>2011-10-01T16:46:37.15</time>
      </trkpt>
      <trkpt lat="42.79885" lon="0.38718">
        <ele>1813</ele>
        <time>2011-10-01T16:46:38.15</time>
      </trkpt>
      <trkpt lat="42.79882" lon="0.38736">
        <ele>1811.5</ele>
        <time>2011-10-01T16:46:39.14</time>
      </trkpt>
      <trkpt lat="42.7988" lon="0.38754">
        <ele>1810.5</ele>
        <time>2011-10-01T16:46:40.15</time>
      </trkpt>
      <trkpt lat="42.79879" lon="0.38772">
        <ele>1809</ele>
        <time>2011-10-01T16:46:41.13</time>
      </trkpt>
      <trkpt lat="42.79879" lon="0.38789">
        <ele>1808</ele>
        <time>2011-10-01T16:46:42.14</time>
      </trkpt>
      <trkpt lat="42.79879" lon="0.38807">
        <ele>1808.5</ele>
        <time>2011-10-01T16:46:43.13</time>
      </trkpt>
      <trkpt lat="42.79879" lon="0.38824">
        <ele>1806.5</ele>
        <time>2011-10-01T16:46:44.13</time>
      </trkpt>
      <trkpt lat="42.7988" lon="0.38842">
        <ele>1806.5</ele>
        <time>2011-10-01T16:46:45.12</time>
      </trkpt>
      <trkpt lat="42.79883" lon="0.38859">
        <ele>1806.5</ele>
        <time>2011-10-01T16:46:46.13</time>
      </trkpt>
      <trkpt lat="42.79885" lon="0.38874">
        <ele>1805</ele>
        <time>2011-10-01T16:46:47.13</time>
      </trkpt>
      <trkpt lat="42.7989" lon="0.38889">
        <ele>1803</ele>
        <time>2011-10-01T16:46:48.13</time>
      </trkpt>
      <trkpt lat="42.79896" lon="0.38905">
        <ele>1801</ele>
        <time>2011-10-01T16:46:49.13</time>
      </trkpt>
      <trkpt lat="42.79911" lon="0.38942">
        <ele>1798</ele>
        <time>2011-10-01T16:46:51.12</time>
      </trkpt>
      <trkpt lat="42.7992" lon="0.38979">
        <ele>1796.5</ele>
        <time>2011-10-01T16:46:53.12</time>
      </trkpt>
      <trkpt lat="42.79927" lon="0.39009">
        <ele>1791</ele>
        <time>2011-10-01T16:46:55.13</time>
      </trkpt>
      <trkpt lat="42.79942" lon="0.39065">
        <ele>1785</ele>
        <time>2011-10-01T16:46:58.13</time>
      </trkpt>
      <trkpt lat="42.79946" lon="0.39083">
        <ele>1782</ele>
        <time>2011-10-01T16:46:59.13</time>
      </trkpt>
      <trkpt lat="42.7995" lon="0.391">
        <ele>1779.5</ele>
        <time>2011-10-01T16:47:00.13</time>
      </trkpt>
      <trkpt lat="42.79953" lon="0.39117">
        <ele>1776</ele>
        <time>2011-10-01T16:47:01.13</time>
      </trkpt>
      <trkpt lat="42.79957" lon="0.39135">
        <ele>1773.5</ele>
        <time>2011-10-01T16:47:02.13</time>
      </trkpt>
      <trkpt lat="42.79962" lon="0.39154">
        <ele>1771.5</ele>
        <time>2011-10-01T16:47:03.14</time>
      </trkpt>
      <trkpt lat="42.79964" lon="0.39174">
        <ele>1767.5</ele>
        <time>2011-10-01T16:47:04.13</time>
      </trkpt>
      <trkpt lat="42.79967" lon="0.39194">
        <ele>1767.5</ele>
        <time>2011-10-01T16:47:05.13</time>
      </trkpt>
      <trkpt lat="42.79969" lon="0.39212">
        <ele>1766.5</ele>
        <time>2011-10-01T16:47:06.13</time>
      </trkpt>
      <trkpt lat="42.7997" lon="0.39229">
        <ele>1764.5</ele>
        <time>2011-10-01T16:47:07.14</time>
      </trkpt>
      <trkpt lat="42.79973" lon="0.39245">
        <ele>1763.5</ele>
        <time>2011-10-01T16:47:08.14</time>
      </trkpt>
      <trkpt lat="42.79975" lon="0.39263">
        <ele>1762.5</ele>
        <time>2011-10-01T16:47:09.15</time>
      </trkpt>
      <trkpt lat="42.79979" lon="0.39303">
        <ele>1757.5</ele>
        <time>2011-10-01T16:47:11.15</time>
      </trkpt>
      <trkpt lat="42.79981" lon="0.39323">
        <ele>1755</ele>
        <time>2011-10-01T16:47:12.14</time>
      </trkpt>
      <trkpt lat="42.79983" lon="0.39342">
        <ele>1752</ele>
        <time>2011-10-01T16:47:13.13</time>
      </trkpt>
      <trkpt lat="42.79985" lon="0.39361">
        <ele>1750</ele>
        <time>2011-10-01T16:47:14.14</time>
      </trkpt>
      <trkpt lat="42.79985" lon="0.3938">
        <ele>1748</ele>
        <time>2011-10-01T16:47:15.14</time>
      </trkpt>
      <trkpt lat="42.79983" lon="0.39399">
        <ele>1746.5</ele>
        <time>2011-10-01T16:47:16.14</time>
      </trkpt>
      <trkpt lat="42.79979" lon="0.39418">
        <ele>1745.5</ele>
        <time>2011-10-01T16:47:17.14</time>
      </trkpt>
      <trkpt lat="42.79974" lon="0.39435">
        <ele>1745</ele>
        <time>2011-10-01T16:47:18.14</time>
      </trkpt>
      <trkpt lat="42.79967" lon="0.39449">
        <ele>1743</ele>
        <time>2011-10-01T16:47:19.14</time>
      </trkpt>
      <trkpt lat="42.79958" lon="0.39462">
        <ele>1742</ele>
        <time>2011-10-01T16:47:20.15</time>
      </trkpt>
      <trkpt lat="42.79948" lon="0.39476">
        <ele>1740</ele>
        <time>2011-10-01T16:47:21.14</time>
      </trkpt>
      <trkpt lat="42.7994" lon="0.3949">
        <ele>1739.5</ele>
        <time>2011-10-01T16:47:22.13</time>
      </trkpt>
      <trkpt lat="42.7993" lon="0.39502">
        <ele>1737.5</ele>
        <time>2011-10-01T16:47:23.14</time>
      </trkpt>
      <trkpt lat="42.79919" lon="0.39512">
        <ele>1736.5</ele>
        <time>2011-10-01T16:47:24.14</time>
      </trkpt>
      <trkpt lat="42.79907" lon="0.39521">
        <ele>1734.5</ele>
        <time>2011-10-01T16:47:25.15</time>
      </trkpt>
      <trkpt lat="42.79895" lon="0.39528">
        <ele>1733.5</ele>
        <time>2011-10-01T16:47:26.14</time>
      </trkpt>
      <trkpt lat="42.79883" lon="0.39534">
        <ele>1732</ele>
        <time>2011-10-01T16:47:27.14</time>
      </trkpt>
      <trkpt lat="42.79871" lon="0.39539">
        <ele>1729.5</ele>
        <time>2011-10-01T16:47:28.14</time>
      </trkpt>
      <trkpt lat="42.79859" lon="0.39543">
        <ele>1727.5</ele>
        <time>2011-10-01T16:47:29.13</time>
      </trkpt>
      <trkpt lat="42.79847" lon="0.39546">
        <ele>1725</ele>
        <time>2011-10-01T16:47:30.14</time>
      </trkpt>
      <trkpt lat="42.79836" lon="0.39549">
        <ele>1723</ele>
        <time>2011-10-01T16:47:31.14</time>
      </trkpt>
      <trkpt lat="42.79824" lon="0.39553">
        <ele>1720.5</ele>
        <time>2011-10-01T16:47:32.14</time>
      </trkpt>
      <trkpt lat="42.79813" lon="0.39556">
        <ele>1718</ele>
        <time>2011-10-01T16:47:33.14</time>
      </trkpt>
      <trkpt lat="42.79801" lon="0.3956">
        <ele>1716</ele>
        <time>2011-10-01T16:47:34.14</time>
      </trkpt>
      <trkpt lat="42.7979" lon="0.39564">
        <ele>1714.5</ele>
        <time>2011-10-01T16:47:35.15</time>
      </trkpt>
      <trkpt lat="42.79779" lon="0.3957">
        <ele>1714</ele>
        <time>2011-10-01T16:47:36.14</time>
      </trkpt>
      <trkpt lat="42.79769" lon="0.39577">
        <ele>1712</ele>
        <time>2011-10-01T16:47:37.15</time>
      </trkpt>
      <trkpt lat="42.7976" lon="0.39585">
        <ele>1710</ele>
        <time>2011-10-01T16:47:38.14</time>
      </trkpt>
      <trkpt lat="42.7975" lon="0.39596">
        <ele>1708</ele>
        <time>2011-10-01T16:47:39.14</time>
      </trkpt>
      <trkpt lat="42.79741" lon="0.39609">
        <ele>1706.5</ele>
        <time>2011-10-01T16:47:40.15</time>
      </trkpt>
      <trkpt lat="42.79731" lon="0.39622">
        <ele>1705.5</ele>
        <time>2011-10-01T16:47:41.14</time>
      </trkpt>
      <trkpt lat="42.79723" lon="0.39637">
        <ele>1704</ele>
        <time>2011-10-01T16:47:42.14</time>
      </trkpt>
      <trkpt lat="42.79716" lon="0.39653">
        <ele>1702</ele>
        <time>2011-10-01T16:47:43.14</time>
      </trkpt>
      <trkpt lat="42.7971" lon="0.3967">
        <ele>1700</ele>
        <time>2011-10-01T16:47:44.15</time>
      </trkpt>
      <trkpt lat="42.79708" lon="0.39688">
        <ele>1698.5</ele>
        <time>2011-10-01T16:47:45.13</time>
      </trkpt>
      <trkpt lat="42.79709" lon="0.39707">
        <ele>1697</ele>
        <time>2011-10-01T16:47:46.14</time>
      </trkpt>
      <trkpt lat="42.79715" lon="0.39725">
        <ele>1695</ele>
        <time>2011-10-01T16:47:47.15</time>
      </trkpt>
      <trkpt lat="42.79735" lon="0.39747">
        <ele>1694.5</ele>
        <time>2011-10-01T16:47:49.15</time>
      </trkpt>
      <trkpt lat="42.79778" lon="0.39721">
        <ele>1692</ele>
        <time>2011-10-01T16:47:54.14</time>
      </trkpt>
      <trkpt lat="42.79784" lon="0.3971">
        <ele>1691.5</ele>
        <time>2011-10-01T16:47:55.14</time>
      </trkpt>
      <trkpt lat="42.7979" lon="0.39699">
        <ele>1691.5</ele>
        <time>2011-10-01T16:47:56.14</time>
      </trkpt>
      <trkpt lat="42.79796" lon="0.39689">
        <ele>1690.5</ele>
        <time>2011-10-01T16:47:57.14</time>
      </trkpt>
      <trkpt lat="42.79804" lon="0.39678">
        <ele>1689</ele>
        <time>2011-10-01T16:47:58.14</time>
      </trkpt>
      <trkpt lat="42.79812" lon="0.39669">
        <ele>1687.5</ele>
        <time>2011-10-01T16:47:59.15</time>
      </trkpt>
      <trkpt lat="42.79819" lon="0.39659">
        <ele>1686.5</ele>
        <time>2011-10-01T16:48:00.14</time>
      </trkpt>
      <trkpt lat="42.79826" lon="0.39649">
        <ele>1685.5</ele>
        <time>2011-10-01T16:48:01.14</time>
      </trkpt>
      <trkpt lat="42.79831" lon="0.39638">
        <ele>1685</ele>
        <time>2011-10-01T16:48:02.15</time>
      </trkpt>
      <trkpt lat="42.79833" lon="0.39624">
        <ele>1685</ele>
        <time>2011-10-01T16:48:03.15</time>
      </trkpt>
      <trkpt lat="42.79829" lon="0.3961">
        <ele>1683.5</ele>
        <time>2011-10-01T16:48:04.15</time>
      </trkpt>
      <trkpt lat="42.79823" lon="0.39597">
        <ele>1683</ele>
        <time>2011-10-01T16:48:05.14</time>
      </trkpt>
      <trkpt lat="42.79801" lon="0.39578">
        <ele>1682.5</ele>
        <time>2011-10-01T16:48:07.15</time>
      </trkpt>
      <trkpt lat="42.79782" lon="0.39598">
        <ele>1681</ele>
        <time>2011-10-01T16:48:09.15</time>
      </trkpt>
      <trkpt lat="42.7978" lon="0.39618">
        <ele>1680</ele>
        <time>2011-10-01T16:48:10.14</time>
      </trkpt>
      <trkpt lat="42.79785" lon="0.39639">
        <ele>1681</ele>
        <time>2011-10-01T16:48:11.15</time>
      </trkpt>
      <trkpt lat="42.79792" lon="0.39654">
        <ele>1681</ele>
        <time>2011-10-01T16:48:12.15</time>
      </trkpt>
      <trkpt lat="42.7981" lon="0.39669">
        <ele>1679.5</ele>
        <time>2011-10-01T16:48:14.15</time>
      </trkpt>
      <trkpt lat="42.79832" lon="0.39673">
        <ele>1679.5</ele>
        <time>2011-10-01T16:48:16.14</time>
      </trkpt>
      <trkpt lat="42.79841" lon="0.39672">
        <ele>1678.5</ele>
        <time>2011-10-01T16:48:17.13</time>
      </trkpt>
      <trkpt lat="42.79851" lon="0.39668">
        <ele>1673</ele>
        <time>2011-10-01T16:48:18.14</time>
      </trkpt>
      <trkpt lat="42.7986" lon="0.39664">
        <ele>1671</ele>
        <time>2011-10-01T16:48:19.14</time>
      </trkpt>
      <trkpt lat="42.79868" lon="0.39657">
        <ele>1670</ele>
        <time>2011-10-01T16:48:20.14</time>
      </trkpt>
      <trkpt lat="42.79877" lon="0.39648">
        <ele>1669</ele>
        <time>2011-10-01T16:48:21.14</time>
      </trkpt>
      <trkpt lat="42.79884" lon="0.39636">
        <ele>1667.5</ele>
        <time>2011-10-01T16:48:22.14</time>
      </trkpt>
      <trkpt lat="42.79891" lon="0.39623">
        <ele>1666.5</ele>
        <time>2011-10-01T16:48:23.14</time>
      </trkpt>
      <trkpt lat="42.79897" lon="0.39609">
        <ele>1666</ele>
        <time>2011-10-01T16:48:24.14</time>
      </trkpt>
      <trkpt lat="42.79903" lon="0.39596">
        <ele>1666.5</ele>
        <time>2011-10-01T16:48:25.14</time>
      </trkpt>
      <trkpt lat="42.79911" lon="0.39585">
        <ele>1665.5</ele>
        <time>2011-10-01T16:48:26.14</time>
      </trkpt>
      <trkpt lat="42.7992" lon="0.39577">
        <ele>1665</ele>
        <time>2011-10-01T16:48:27.15</time>
      </trkpt>
      <trkpt lat="42.79926" lon="0.39563">
        <ele>1666.5</ele>
        <time>2011-10-01T16:48:28.17</time>
      </trkpt>
      <trkpt lat="42.79937" lon="0.39558">
        <ele>1665.5</ele>
        <time>2011-10-01T16:48:29.14</time>
      </trkpt>
      <trkpt lat="42.79948" lon="0.39555">
        <ele>1663</ele>
        <time>2011-10-01T16:48:30.14</time>
      </trkpt>
      <trkpt lat="42.79959" lon="0.39557">
        <ele>1661</ele>
        <time>2011-10-01T16:48:31.14</time>
      </trkpt>
      <trkpt lat="42.7997" lon="0.3956">
        <ele>1660.5</ele>
        <time>2011-10-01T16:48:32.14</time>
      </trkpt>
      <trkpt lat="42.79979" lon="0.39565">
        <ele>1657.5</ele>
        <time>2011-10-01T16:48:33.13</time>
      </trkpt>
      <trkpt lat="42.79988" lon="0.39574">
        <ele>1656.5</ele>
        <time>2011-10-01T16:48:34.15</time>
      </trkpt>
      <trkpt lat="42.79996" lon="0.39584">
        <ele>1655.5</ele>
        <time>2011-10-01T16:48:35.14</time>
      </trkpt>
      <trkpt lat="42.80005" lon="0.39594">
        <ele>1654.5</ele>
        <time>2011-10-01T16:48:36.14</time>
      </trkpt>
      <trkpt lat="42.80014" lon="0.39604">
        <ele>1653.5</ele>
        <time>2011-10-01T16:48:37.14</time>
      </trkpt>
      <trkpt lat="42.80024" lon="0.39615">
        <ele>1653</ele>
        <time>2011-10-01T16:48:38.14</time>
      </trkpt>
      <trkpt lat="42.80034" lon="0.39624">
        <ele>1652.5</ele>
        <time>2011-10-01T16:48:39.14</time>
      </trkpt>
      <trkpt lat="42.80044" lon="0.39632">
        <ele>1653</ele>
        <time>2011-10-01T16:48:40.14</time>
      </trkpt>
      <trkpt lat="42.80053" lon="0.39639">
        <ele>1652.5</ele>
        <time>2011-10-01T16:48:41.14</time>
      </trkpt>
      <trkpt lat="42.80061" lon="0.39644">
        <ele>1652</ele>
        <time>2011-10-01T16:48:42.14</time>
      </trkpt>
      <trkpt lat="42.80084" lon="0.39654">
        <ele>1650.5</ele>
        <time>2011-10-01T16:48:44.14</time>
      </trkpt>
      <trkpt lat="42.80097" lon="0.39658">
        <ele>1649.5</ele>
        <time>2011-10-01T16:48:45.15</time>
      </trkpt>
      <trkpt lat="42.80109" lon="0.39661">
        <ele>1647</ele>
        <time>2011-10-01T16:48:46.14</time>
      </trkpt>
      <trkpt lat="42.80129" lon="0.39667">
        <ele>1646</ele>
        <time>2011-10-01T16:48:48.13</time>
      </trkpt>
      <trkpt lat="42.80139" lon="0.3967">
        <ele>1643.5</ele>
        <time>2011-10-01T16:48:49.13</time>
      </trkpt>
      <trkpt lat="42.80162" lon="0.39677">
        <ele>1642</ele>
        <time>2011-10-01T16:48:51.14</time>
      </trkpt>
      <trkpt lat="42.80174" lon="0.39679">
        <ele>1641</ele>
        <time>2011-10-01T16:48:52.14</time>
      </trkpt>
      <trkpt lat="42.80185" lon="0.39679">
        <ele>1640</ele>
        <time>2011-10-01T16:48:53.15</time>
      </trkpt>
      <trkpt lat="42.80195" lon="0.39678">
        <ele>1638.5</ele>
        <time>2011-10-01T16:48:54.14</time>
      </trkpt>
      <trkpt lat="42.80204" lon="0.39675">
        <ele>1637.5</ele>
        <time>2011-10-01T16:48:55.14</time>
      </trkpt>
      <trkpt lat="42.80214" lon="0.3967">
        <ele>1636.5</ele>
        <time>2011-10-01T16:48:56.14</time>
      </trkpt>
      <trkpt lat="42.80224" lon="0.39663">
        <ele>1633</ele>
        <time>2011-10-01T16:48:57.14</time>
      </trkpt>
      <trkpt lat="42.80235" lon="0.39655">
        <ele>1633</ele>
        <time>2011-10-01T16:48:58.13</time>
      </trkpt>
      <trkpt lat="42.80243" lon="0.39645">
        <ele>1632.5</ele>
        <time>2011-10-01T16:48:59.14</time>
      </trkpt>
      <trkpt lat="42.80252" lon="0.39634">
        <ele>1632.5</ele>
        <time>2011-10-01T16:49:00.13</time>
      </trkpt>
      <trkpt lat="42.80259" lon="0.39622">
        <ele>1630</ele>
        <time>2011-10-01T16:49:01.14</time>
      </trkpt>
      <trkpt lat="42.80266" lon="0.39611">
        <ele>1628.5</ele>
        <time>2011-10-01T16:49:02.14</time>
      </trkpt>
      <trkpt lat="42.80274" lon="0.39601">
        <ele>1626.5</ele>
        <time>2011-10-01T16:49:03.14</time>
      </trkpt>
      <trkpt lat="42.80284" lon="0.39593">
        <ele>1623</ele>
        <time>2011-10-01T16:49:04.14</time>
      </trkpt>
      <trkpt lat="42.80296" lon="0.39589">
        <ele>1623</ele>
        <time>2011-10-01T16:49:05.14</time>
      </trkpt>
      <trkpt lat="42.80306" lon="0.39586">
        <ele>1622</ele>
        <time>2011-10-01T16:49:06.14</time>
      </trkpt>
      <trkpt lat="42.80317" lon="0.39585">
        <ele>1619.5</ele>
        <time>2011-10-01T16:49:07.14</time>
      </trkpt>
      <trkpt lat="42.80327" lon="0.39588">
        <ele>1618</ele>
        <time>2011-10-01T16:49:08.14</time>
      </trkpt>
      <trkpt lat="42.80337" lon="0.39596">
        <ele>1615</ele>
        <time>2011-10-01T16:49:09.14</time>
      </trkpt>
      <trkpt lat="42.80345" lon="0.39607">
        <ele>1614</ele>
        <time>2011-10-01T16:49:10.15</time>
      </trkpt>
      <trkpt lat="42.8035" lon="0.39621">
        <ele>1613.5</ele>
        <time>2011-10-01T16:49:11.14</time>
      </trkpt>
      <trkpt lat="42.80353" lon="0.39637">
        <ele>1615</ele>
        <time>2011-10-01T16:49:12.14</time>
      </trkpt>
      <trkpt lat="42.80355" lon="0.39652">
        <ele>1614</ele>
        <time>2011-10-01T16:49:13.14</time>
      </trkpt>
      <trkpt lat="42.80354" lon="0.39668">
        <ele>1612.5</ele>
        <time>2011-10-01T16:49:14.14</time>
      </trkpt>
      <trkpt lat="42.80352" lon="0.39684">
        <ele>1612</ele>
        <time>2011-10-01T16:49:15.15</time>
      </trkpt>
      <trkpt lat="42.80347" lon="0.397">
        <ele>1610</ele>
        <time>2011-10-01T16:49:16.14</time>
      </trkpt>
      <trkpt lat="42.80342" lon="0.39716">
        <ele>1610</ele>
        <time>2011-10-01T16:49:17.14</time>
      </trkpt>
      <trkpt lat="42.80336" lon="0.3973">
        <ele>1610</ele>
        <time>2011-10-01T16:49:18.14</time>
      </trkpt>
      <trkpt lat="42.8033" lon="0.39744">
        <ele>1608.5</ele>
        <time>2011-10-01T16:49:19.14</time>
      </trkpt>
      <trkpt lat="42.80324" lon="0.39759">
        <ele>1606.5</ele>
        <time>2011-10-01T16:49:20.14</time>
      </trkpt>
      <trkpt lat="42.80319" lon="0.39775">
        <ele>1605</ele>
        <time>2011-10-01T16:49:21.14</time>
      </trkpt>
      <trkpt lat="42.80315" lon="0.3979">
        <ele>1602.5</ele>
        <time>2011-10-01T16:49:22.13</time>
      </trkpt>
      <trkpt lat="42.80313" lon="0.39807">
        <ele>1602</ele>
        <time>2011-10-01T16:49:23.15</time>
      </trkpt>
      <trkpt lat="42.80333" lon="0.39901">
        <ele>1601.5</ele>
        <time>2011-10-01T16:49:27.16</time>
      </trkpt>
      <trkpt lat="42.80353" lon="0.39956">
        <ele>1600.5</ele>
        <time>2011-10-01T16:49:30.13</time>
      </trkpt>
      <trkpt lat="42.80381" lon="0.40019">
        <ele>1600</ele>
        <time>2011-10-01T16:49:34.14</time>
      </trkpt>
      <trkpt lat="42.80381" lon="0.40132">
        <ele>1597</ele>
        <time>2011-10-01T16:49:40.9</time>
      </trkpt>
      <trkpt lat="42.80377" lon="0.40163">
        <ele>1591</ele>
        <time>2011-10-01T16:49:43.9</time>
      </trkpt>
      <trkpt lat="42.80389" lon="0.40189">
        <ele>1588</ele>
        <time>2011-10-01T16:49:45.19</time>
      </trkpt>
      <trkpt lat="42.80395" lon="0.40202">
        <ele>1585</ele>
        <time>2011-10-01T16:49:46.9</time>
      </trkpt>
      <trkpt lat="42.804" lon="0.40215">
        <ele>1583</ele>
        <time>2011-10-01T16:49:47.19</time>
      </trkpt>
      <trkpt lat="42.80406" lon="0.40227">
        <ele>1581</ele>
        <time>2011-10-01T16:49:48.19</time>
      </trkpt>
      <trkpt lat="42.8042" lon="0.40255">
        <ele>1577.5</ele>
        <time>2011-10-01T16:49:50.9</time>
      </trkpt>
      <trkpt lat="42.80427" lon="0.40267">
        <ele>1577</ele>
        <time>2011-10-01T16:49:51.19</time>
      </trkpt>
      <trkpt lat="42.80434" lon="0.40279">
        <ele>1576</ele>
        <time>2011-10-01T16:49:52.9</time>
      </trkpt>
      <trkpt lat="42.80441" lon="0.40292">
        <ele>1574</ele>
        <time>2011-10-01T16:49:53.9</time>
      </trkpt>
      <trkpt lat="42.80446" lon="0.40304">
        <ele>1571</ele>
        <time>2011-10-01T16:49:54.19</time>
      </trkpt>
      <trkpt lat="42.80451" lon="0.40315">
        <ele>1569</ele>
        <time>2011-10-01T16:49:55.19</time>
      </trkpt>
      <trkpt lat="42.80455" lon="0.40328">
        <ele>1567.5</ele>
        <time>2011-10-01T16:49:56.19</time>
      </trkpt>
      <trkpt lat="42.80459" lon="0.40342">
        <ele>1565</ele>
        <time>2011-10-01T16:49:57.19</time>
      </trkpt>
      <trkpt lat="42.80464" lon="0.40355">
        <ele>1561</ele>
        <time>2011-10-01T16:49:58.9</time>
      </trkpt>
      <trkpt lat="42.80467" lon="0.40369">
        <ele>1559.5</ele>
        <time>2011-10-01T16:49:59.19</time>
      </trkpt>
      <trkpt lat="42.80469" lon="0.40383">
        <ele>1558.5</ele>
        <time>2011-10-01T16:50:00.19</time>
      </trkpt>
      <trkpt lat="42.80471" lon="0.40398">
        <ele>1554.5</ele>
        <time>2011-10-01T16:50:01.19</time>
      </trkpt>
      <trkpt lat="42.80474" lon="0.40414">
        <ele>1550</ele>
        <time>2011-10-01T16:50:02.9</time>
      </trkpt>
      <trkpt lat="42.80477" lon="0.4043">
        <ele>1545.5</ele>
        <time>2011-10-01T16:50:03.9</time>
      </trkpt>
      <trkpt lat="42.80483" lon="0.40466">
        <ele>1539</ele>
        <time>2011-10-01T16:50:05.9</time>
      </trkpt>
      <trkpt lat="42.80484" lon="0.40484">
        <ele>1536</ele>
        <time>2011-10-01T16:50:06.9</time>
      </trkpt>
      <trkpt lat="42.80484" lon="0.405">
        <ele>1534.5</ele>
        <time>2011-10-01T16:50:07.9</time>
      </trkpt>
      <trkpt lat="42.80482" lon="0.40516">
        <ele>1533.5</ele>
        <time>2011-10-01T16:50:08.9</time>
      </trkpt>
      <trkpt lat="42.8048" lon="0.40532">
        <ele>1531</ele>
        <time>2011-10-01T16:50:09</time>
      </trkpt>
      <trkpt lat="42.80479" lon="0.4055">
        <ele>1528</ele>
        <time>2011-10-01T16:50:10.9</time>
      </trkpt>
      <trkpt lat="42.80478" lon="0.40567">
        <ele>1526.5</ele>
        <time>2011-10-01T16:50:11.9</time>
      </trkpt>
      <trkpt lat="42.80477" lon="0.40584">
        <ele>1523.5</ele>
        <time>2011-10-01T16:50:12.9</time>
      </trkpt>
      <trkpt lat="42.80478" lon="0.40602">
        <ele>1521.5</ele>
        <time>2011-10-01T16:50:13.9</time>
      </trkpt>
      <trkpt lat="42.80479" lon="0.40619">
        <ele>1520</ele>
        <time>2011-10-01T16:50:14.9</time>
      </trkpt>
      <trkpt lat="42.80483" lon="0.40636">
        <ele>1519</ele>
        <time>2011-10-01T16:50:15.9</time>
      </trkpt>
      <trkpt lat="42.80491" lon="0.40651">
        <ele>1519</ele>
        <time>2011-10-01T16:50:16.29</time>
      </trkpt>
      <trkpt lat="42.80523" lon="0.40634">
        <ele>1519</ele>
        <time>2011-10-01T16:50:19</time>
      </trkpt>
      <trkpt lat="42.80519" lon="0.40618">
        <ele>1519</ele>
        <time>2011-10-01T16:50:20.19</time>
      </trkpt>
      <trkpt lat="42.80484" lon="0.40656">
        <ele>1519</ele>
        <time>2011-10-01T16:50:24.19</time>
      </trkpt>
      <trkpt lat="42.80482" lon="0.4059">
        <ele>1514</ele>
        <time>2011-10-01T16:50:28.29</time>
      </trkpt>
      <trkpt lat="42.80476" lon="0.40574">
        <ele>1512.5</ele>
        <time>2011-10-01T16:50:29.54</time>
      </trkpt>
      <trkpt lat="42.80439" lon="0.40575">
        <ele>1511</ele>
        <time>2011-10-01T16:50:31.99</time>
      </trkpt>
      <trkpt lat="42.80418" lon="0.40621">
        <ele>1510</ele>
        <time>2011-10-01T16:50:35.9</time>
      </trkpt>
      <trkpt lat="42.80457" lon="0.40667">
        <ele>1506.5</ele>
        <time>2011-10-01T16:50:38.9</time>
      </trkpt>
      <trkpt lat="42.8055" lon="0.40651">
        <ele>1497.5</ele>
        <time>2011-10-01T16:50:42.98</time>
      </trkpt>
      <trkpt lat="42.80589" lon="0.4066">
        <ele>1492</ele>
        <time>2011-10-01T16:50:46.19</time>
      </trkpt>
      <trkpt lat="42.80596" lon="0.40671">
        <ele>1490.5</ele>
        <time>2011-10-01T16:50:47.9</time>
      </trkpt>
      <trkpt lat="42.8054" lon="0.40727">
        <ele>1484.5</ele>
        <time>2011-10-01T16:50:50.99</time>
      </trkpt>
      <trkpt lat="42.80502" lon="0.40754">
        <ele>1478.5</ele>
        <time>2011-10-01T16:50:56.9</time>
      </trkpt>
      <trkpt lat="42.80471" lon="0.40749">
        <ele>1474</ele>
        <time>2011-10-01T16:50:57.99</time>
      </trkpt>
      <trkpt lat="42.8046" lon="0.40735">
        <ele>1470.5</ele>
        <time>2011-10-01T16:50:58.99</time>
      </trkpt>
      <trkpt lat="42.80444" lon="0.407">
        <ele>1464.5</ele>
        <time>2011-10-01T16:51:01.9</time>
      </trkpt>
      <trkpt lat="42.80438" lon="0.40682">
        <ele>1461</ele>
        <time>2011-10-01T16:51:01.99</time>
      </trkpt>
      <trkpt lat="42.80436" lon="0.40666">
        <ele>1461.5</ele>
        <time>2011-10-01T16:51:02.99</time>
      </trkpt>
      <trkpt lat="42.80431" lon="0.4065">
        <ele>1457.5</ele>
        <time>2011-10-01T16:51:03.99</time>
      </trkpt>
      <trkpt lat="42.80432" lon="0.40634">
        <ele>1455</ele>
        <time>2011-10-01T16:51:04.99</time>
      </trkpt>
      <trkpt lat="42.80436" lon="0.40621">
        <ele>1453</ele>
        <time>2011-10-01T16:51:05.99</time>
      </trkpt>
      <trkpt lat="42.80442" lon="0.40611">
        <ele>1450.5</ele>
        <time>2011-10-01T16:51:06.99</time>
      </trkpt>
      <trkpt lat="42.80448" lon="0.40603">
        <ele>1450</ele>
        <time>2011-10-01T16:51:07.99</time>
      </trkpt>
      <trkpt lat="42.80454" lon="0.40596">
        <ele>1449</ele>
        <time>2011-10-01T16:51:08.99</time>
      </trkpt>
      <trkpt lat="42.80462" lon="0.40588">
        <ele>1448</ele>
        <time>2011-10-01T16:51:09.98</time>
      </trkpt>
      <trkpt lat="42.80481" lon="0.40574">
        <ele>1442.5</ele>
        <time>2011-10-01T16:51:11.99</time>
      </trkpt>
      <trkpt lat="42.80492" lon="0.40569">
        <ele>1442.5</ele>
        <time>2011-10-01T16:51:12.98</time>
      </trkpt>
      <trkpt lat="42.80507" lon="0.40563">
        <ele>1440.5</ele>
        <time>2011-10-01T16:51:14.99</time>
      </trkpt>
      <trkpt lat="42.80515" lon="0.40561">
        <ele>1437.5</ele>
        <time>2011-10-01T16:51:15.98</time>
      </trkpt>
      <trkpt lat="42.80525" lon="0.40559">
        <ele>1434.5</ele>
        <time>2011-10-01T16:51:16.98</time>
      </trkpt>
      <trkpt lat="42.80533" lon="0.40558">
        <ele>1429</ele>
        <time>2011-10-01T16:51:17.99</time>
      </trkpt>
      <trkpt lat="42.80542" lon="0.40557">
        <ele>1424.5</ele>
        <time>2011-10-01T16:51:18.98</time>
      </trkpt>
      <trkpt lat="42.8055" lon="0.40557">
        <ele>1422</ele>
        <time>2011-10-01T16:51:19.98</time>
      </trkpt>
      <trkpt lat="42.80558" lon="0.40558">
        <ele>1418</ele>
        <time>2011-10-01T16:51:20.98</time>
      </trkpt>
      <trkpt lat="42.80567" lon="0.4056">
        <ele>1415</ele>
        <time>2011-10-01T16:51:21.99</time>
      </trkpt>
      <trkpt lat="42.80581" lon="0.40573">
        <ele>1407.5</ele>
        <time>2011-10-01T16:51:24.9</time>
      </trkpt>
      <trkpt lat="42.80587" lon="0.40581">
        <ele>1404</ele>
        <time>2011-10-01T16:51:24.99</time>
      </trkpt>
      <trkpt lat="42.80593" lon="0.4059">
        <ele>1399.5</ele>
        <time>2011-10-01T16:51:25.98</time>
      </trkpt>
      <trkpt lat="42.80598" lon="0.40601">
        <ele>1397.5</ele>
        <time>2011-10-01T16:51:26.99</time>
      </trkpt>
      <trkpt lat="42.80604" lon="0.40613">
        <ele>1395.5</ele>
        <time>2011-10-01T16:51:27.99</time>
      </trkpt>
      <trkpt lat="42.80608" lon="0.40626">
        <ele>1392</ele>
        <time>2011-10-01T16:51:28.99</time>
      </trkpt>
      <trkpt lat="42.80616" lon="0.4066">
        <ele>1389.5</ele>
        <time>2011-10-01T16:51:31.9</time>
      </trkpt>
      <trkpt lat="42.80612" lon="0.40678">
        <ele>1386.5</ele>
        <time>2011-10-01T16:51:32.9</time>
      </trkpt>
      <trkpt lat="42.80603" lon="0.40694">
        <ele>1385.5</ele>
        <time>2011-10-01T16:51:32.99</time>
      </trkpt>
      <trkpt lat="42.8059" lon="0.40707">
        <ele>1385</ele>
        <time>2011-10-01T16:51:34.9</time>
      </trkpt>
      <trkpt lat="42.80575" lon="0.40705">
        <ele>1383.5</ele>
        <time>2011-10-01T16:51:34.99</time>
      </trkpt>
      <trkpt lat="42.80563" lon="0.40692">
        <ele>1383</ele>
        <time>2011-10-01T16:51:35.99</time>
      </trkpt>
      <trkpt lat="42.80564" lon="0.40674">
        <ele>1383</ele>
        <time>2011-10-01T16:51:36.99</time>
      </trkpt>
      <trkpt lat="42.80543" lon="0.40697">
        <ele>1382</ele>
        <time>2011-10-01T16:51:42.9</time>
      </trkpt>
      <trkpt lat="42.80529" lon="0.40709">
        <ele>1381.5</ele>
        <time>2011-10-01T16:51:43.9</time>
      </trkpt>
      <trkpt lat="42.80517" lon="0.4072">
        <ele>1381</ele>
        <time>2011-10-01T16:51:43.99</time>
      </trkpt>
      <trkpt lat="42.80506" lon="0.40734">
        <ele>1380</ele>
        <time>2011-10-01T16:51:45.9</time>
      </trkpt>
      <trkpt lat="42.80498" lon="0.4075">
        <ele>1378.5</ele>
        <time>2011-10-01T16:51:45.99</time>
      </trkpt>
      <trkpt lat="42.8049" lon="0.40767">
        <ele>1377</ele>
        <time>2011-10-01T16:51:47.9</time>
      </trkpt>
      <trkpt lat="42.80485" lon="0.40786">
        <ele>1375</ele>
        <time>2011-10-01T16:51:47.99</time>
      </trkpt>
      <trkpt lat="42.80484" lon="0.40804">
        <ele>1372.5</ele>
        <time>2011-10-01T16:51:49.19</time>
      </trkpt>
      <trkpt lat="42.80487" lon="0.40822">
        <ele>1371.5</ele>
        <time>2011-10-01T16:51:49.99</time>
      </trkpt>
      <trkpt lat="42.80493" lon="0.40837">
        <ele>1370.5</ele>
        <time>2011-10-01T16:51:50.99</time>
      </trkpt>
      <trkpt lat="42.80516" lon="0.40835">
        <ele>1369.5</ele>
        <time>2011-10-01T16:51:53.9</time>
      </trkpt>
      <trkpt lat="42.80524" lon="0.40825">
        <ele>1369.5</ele>
        <time>2011-10-01T16:51:53.99</time>
      </trkpt>
      <trkpt lat="42.80509" lon="0.4074">
        <ele>1365.5</ele>
        <time>2011-10-01T16:52:00.29</time>
      </trkpt>
      <trkpt lat="42.80501" lon="0.4078">
        <ele>1356.5</ele>
        <time>2011-10-01T16:52:17.49</time>
      </trkpt>
      <trkpt lat="42.80525" lon="0.40755">
        <ele>1352.5</ele>
        <time>2011-10-01T16:52:20.19</time>
      </trkpt>
      <trkpt lat="42.80558" lon="0.4075">
        <ele>1344</ele>
        <time>2011-10-01T16:52:22.99</time>
      </trkpt>
      <trkpt lat="42.80574" lon="0.40762">
        <ele>1341.5</ele>
        <time>2011-10-01T16:52:25.19</time>
      </trkpt>
      <trkpt lat="42.80581" lon="0.40771">
        <ele>1339</ele>
        <time>2011-10-01T16:52:26.52</time>
      </trkpt>
      <trkpt lat="42.80588" lon="0.40794">
        <ele>1337</ele>
        <time>2011-10-01T16:52:28.9</time>
      </trkpt>
      <trkpt lat="42.80513" lon="0.40886">
        <ele>1335.5</ele>
        <time>2011-10-01T16:52:36.29</time>
      </trkpt>
      <trkpt lat="42.80477" lon="0.40916">
        <ele>1335</ele>
        <time>2011-10-01T16:52:38.99</time>
      </trkpt>
      <trkpt lat="42.80405" lon="0.40971">
        <ele>1327</ele>
        <time>2011-10-01T16:52:44.9</time>
      </trkpt>
      <trkpt lat="42.80388" lon="0.40976">
        <ele>1326.5</ele>
        <time>2011-10-01T16:52:44.52</time>
      </trkpt>
      <trkpt lat="42.80298" lon="0.40991">
        <ele>1321</ele>
        <time>2011-10-01T16:52:49.9</time>
      </trkpt>
      <trkpt lat="42.80118" lon="0.4096">
        <ele>1315.5</ele>
        <time>2011-10-01T16:53:00.9</time>
      </trkpt>
      <trkpt lat="42.80034" lon="0.40695">
        <ele>1306</ele>
        <time>2011-10-01T16:53:16.29</time>
      </trkpt>
      <trkpt lat="42.80032" lon="0.40679">
        <ele>1305</ele>
        <time>2011-10-01T16:53:17.53</time>
      </trkpt>
      <trkpt lat="42.80035" lon="0.40647">
        <ele>1303.5</ele>
        <time>2011-10-01T16:53:19.9</time>
      </trkpt>
      <trkpt lat="42.80036" lon="0.40629">
        <ele>1303</ele>
        <time>2011-10-01T16:53:20.9</time>
      </trkpt>
      <trkpt lat="42.80043" lon="0.40602">
        <ele>1300.5</ele>
        <time>2011-10-01T16:53:22.9</time>
      </trkpt>
      <trkpt lat="42.80059" lon="0.40587">
        <ele>1300</ele>
        <time>2011-10-01T16:53:23.99</time>
      </trkpt>
      <trkpt lat="42.80096" lon="0.40588">
        <ele>1296.5</ele>
        <time>2011-10-01T16:53:28.19</time>
      </trkpt>
      <trkpt lat="42.80105" lon="0.40593">
        <ele>1296</ele>
        <time>2011-10-01T16:53:29.53</time>
      </trkpt>
      <trkpt lat="42.80127" lon="0.40607">
        <ele>1295</ele>
        <time>2011-10-01T16:53:30.99</time>
      </trkpt>
      <trkpt lat="42.80138" lon="0.40613">
        <ele>1294.5</ele>
        <time>2011-10-01T16:53:32.39</time>
      </trkpt>
      <trkpt lat="42.80157" lon="0.40624">
        <ele>1292.5</ele>
        <time>2011-10-01T16:53:34.19</time>
      </trkpt>
      <trkpt lat="42.80165" lon="0.40629">
        <ele>1292</ele>
        <time>2011-10-01T16:53:35.52</time>
      </trkpt>
      <trkpt lat="42.80182" lon="0.40635">
        <ele>1291.5</ele>
        <time>2011-10-01T16:53:37.9</time>
      </trkpt>
      <trkpt lat="42.80191" lon="0.40637">
        <ele>1291</ele>
        <time>2011-10-01T16:53:37.99</time>
      </trkpt>
      <trkpt lat="42.80202" lon="0.40639">
        <ele>1291</ele>
        <time>2011-10-01T16:53:39.9</time>
      </trkpt>
      <trkpt lat="42.80212" lon="0.40641">
        <ele>1290.5</ele>
        <time>2011-10-01T16:53:39.99</time>
      </trkpt>
      <trkpt lat="42.80223" lon="0.40642">
        <ele>1290</ele>
        <time>2011-10-01T16:53:40.99</time>
      </trkpt>
      <trkpt lat="42.80233" lon="0.40642">
        <ele>1290</ele>
        <time>2011-10-01T16:53:41.99</time>
      </trkpt>
      <trkpt lat="42.80244" lon="0.4064">
        <ele>1289.5</ele>
        <time>2011-10-01T16:53:42.99</time>
      </trkpt>
      <trkpt lat="42.80255" lon="0.40638">
        <ele>1288.5</ele>
        <time>2011-10-01T16:53:43.99</time>
      </trkpt>
      <trkpt lat="42.80265" lon="0.40635">
        <ele>1288</ele>
        <time>2011-10-01T16:53:44.99</time>
      </trkpt>
      <trkpt lat="42.80284" lon="0.40628">
        <ele>1285</ele>
        <time>2011-10-01T16:53:47.19</time>
      </trkpt>
      <trkpt lat="42.80293" lon="0.40624">
        <ele>1283.5</ele>
        <time>2011-10-01T16:53:48.52</time>
      </trkpt>
      <trkpt lat="42.80307" lon="0.40618">
        <ele>1281.5</ele>
        <time>2011-10-01T16:53:49.99</time>
      </trkpt>
      <trkpt lat="42.8032" lon="0.40612">
        <ele>1281</ele>
        <time>2011-10-01T16:53:51.99</time>
      </trkpt>
      <trkpt lat="42.80325" lon="0.40606">
        <ele>1278</ele>
        <time>2011-10-01T16:53:54.98</time>
      </trkpt>
      <trkpt lat="42.80328" lon="0.40604">
        <ele>1277</ele>
        <time>2011-10-01T16:53:56.29</time>
      </trkpt>
      <trkpt lat="42.80329" lon="0.40601">
        <ele>1276.5</ele>
        <time>2011-10-01T16:53:56.99</time>
      </trkpt>
      <trkpt lat="42.8033" lon="0.40597">
        <ele>1275.5</ele>
        <time>2011-10-01T16:53:58.33</time>
      </trkpt>
      <trkpt lat="42.80331" lon="0.40592">
        <ele>1273.5</ele>
        <time>2011-10-01T16:54:00.9</time>
      </trkpt>
      <trkpt lat="42.80332" lon="0.40589">
        <ele>1273.5</ele>
        <time>2011-10-01T16:54:01.15</time>
      </trkpt>
      <trkpt lat="42.80332" lon="0.40586">
        <ele>1272.5</ele>
        <time>2011-10-01T16:54:01.99</time>
      </trkpt>
      <trkpt lat="42.80332" lon="0.40584">
        <ele>1272.5</ele>
        <time>2011-10-01T16:54:03.99</time>
      </trkpt>
      <trkpt lat="42.80332" lon="0.40583">
        <ele>1272</ele>
        <time>2011-10-01T16:54:03.98</time>
      </trkpt>
      <trkpt lat="42.80332" lon="0.40583">
        <ele>1271</ele>
        <time>2011-10-01T16:54:04.99</time>
      </trkpt>
      <trkpt lat="42.80332" lon="0.40583">
        <ele>1270.5</ele>
        <time>2011-10-01T16:54:05.98</time>
      </trkpt>
      <trkpt lat="42.80331" lon="0.40583">
        <ele>1270</ele>
        <time>2011-10-01T16:54:06.98</time>
      </trkpt>
      <trkpt lat="42.80331" lon="0.40582">
        <ele>1269</ele>
        <time>2011-10-01T16:54:10.9</time>
      </trkpt>
      <trkpt lat="42.80331" lon="0.40582">
        <ele>1268</ele>
        <time>2011-10-01T16:54:12.55</time>
      </trkpt>
      <trkpt lat="42.8033" lon="0.40582">
        <ele>1267.5</ele>
        <time>2011-10-01T16:54:14.89</time>
      </trkpt>
      <trkpt lat="42.8033" lon="0.40582">
        <ele>1267.5</ele>
        <time>2011-10-01T16:54:14.61</time>
      </trkpt>
      <trkpt lat="42.8033" lon="0.40582">
        <ele>1267</ele>
        <time>2011-10-01T16:54:17.9</time>
      </trkpt>
      <trkpt lat="42.8033" lon="0.40582">
        <ele>1266.5</ele>
        <time>2011-10-01T16:54:18.52</time>
      </trkpt>
      <trkpt lat="42.8033" lon="0.4058">
        <ele>1266</ele>
        <time>2011-10-01T16:54:20.9</time>
      </trkpt>
      <trkpt lat="42.8033" lon="0.4058">
        <ele>1265.5</ele>
        <time>2011-10-01T16:54:20.99</time>
      </trkpt>
      <trkpt lat="42.8033" lon="0.40579">
        <ele>1265</ele>
        <time>2011-10-01T16:54:26.39</time>
      </trkpt>
      <trkpt lat="42.80329" lon="0.40577">
        <ele>1263</ele>
        <time>2011-10-01T16:54:30.29</time>
      </trkpt>
      <trkpt lat="42.80327" lon="0.40576">
        <ele>1261</ele>
        <time>2011-10-01T16:54:30.53</time>
      </trkpt>
      <trkpt lat="42.80322" lon="0.40571">
        <ele>1257</ele>
        <time>2011-10-01T16:54:33.9</time>
      </trkpt>
      <trkpt lat="42.80321" lon="0.40569">
        <ele>1256.5</ele>
        <time>2011-10-01T16:54:34.9</time>
      </trkpt>
      <trkpt lat="42.8032" lon="0.40567">
        <ele>1256</ele>
        <time>2011-10-01T16:54:35.9</time>
      </trkpt>
      <trkpt lat="42.8032" lon="0.40565">
        <ele>1255.5</ele>
        <time>2011-10-01T16:54:35.99</time>
      </trkpt>
      <trkpt lat="42.80318" lon="0.40563">
        <ele>1255</ele>
        <time>2011-10-01T16:54:37.19</time>
      </trkpt>
      <trkpt lat="42.80316" lon="0.40562">
        <ele>1254</ele>
        <time>2011-10-01T16:54:38.9</time>
      </trkpt>
      <trkpt lat="42.80314" lon="0.40561">
        <ele>1253.5</ele>
        <time>2011-10-01T16:54:39.9</time>
      </trkpt>
      <trkpt lat="42.80312" lon="0.40559">
        <ele>1252.5</ele>
        <time>2011-10-01T16:54:40.9</time>
      </trkpt>
      <trkpt lat="42.8031" lon="0.40557">
        <ele>1252</ele>
        <time>2011-10-01T16:54:41.9</time>
      </trkpt>
      <trkpt lat="42.80309" lon="0.40555">
        <ele>1251</ele>
        <time>2011-10-01T16:54:41.99</time>
      </trkpt>
      <trkpt lat="42.80307" lon="0.40552">
        <ele>1250</ele>
        <time>2011-10-01T16:54:43.9</time>
      </trkpt>
      <trkpt lat="42.80306" lon="0.40551">
        <ele>1249.5</ele>
        <time>2011-10-01T16:54:44.9</time>
      </trkpt>
      <trkpt lat="42.80306" lon="0.4055">
        <ele>1248.5</ele>
        <time>2011-10-01T16:54:45.9</time>
      </trkpt>
      <trkpt lat="42.80306" lon="0.4055">
        <ele>1247.5</ele>
        <time>2011-10-01T16:54:46.9</time>
      </trkpt>
      <trkpt lat="42.80306" lon="0.40549">
        <ele>1247</ele>
        <time>2011-10-01T16:54:47.9</time>
      </trkpt>
      <trkpt lat="42.80306" lon="0.40548">
        <ele>1246</ele>
        <time>2011-10-01T16:54:48.9</time>
      </trkpt>
      <trkpt lat="42.80306" lon="0.40548">
        <ele>1246</ele>
        <time>2011-10-01T16:54:49.19</time>
      </trkpt>
      <trkpt lat="42.80305" lon="0.40548">
        <ele>1245.5</ele>
        <time>2011-10-01T16:54:50.9</time>
      </trkpt>
      <trkpt lat="42.80305" lon="0.40548">
        <ele>1245.5</ele>
        <time>2011-10-01T16:54:51.28</time>
      </trkpt>
      <trkpt lat="42.80305" lon="0.40547">
        <ele>1245</ele>
        <time>2011-10-01T16:54:52.9</time>
      </trkpt>
      <trkpt lat="42.80305" lon="0.40546">
        <ele>1244</ele>
        <time>2011-10-01T16:54:53.9</time>
      </trkpt>
      <trkpt lat="42.80305" lon="0.40546">
        <ele>1243.5</ele>
        <time>2011-10-01T16:54:54.9</time>
      </trkpt>
      <trkpt lat="42.80305" lon="0.40546">
        <ele>1243.5</ele>
        <time>2011-10-01T16:54:54.99</time>
      </trkpt>
      <trkpt lat="42.80305" lon="0.40546">
        <ele>1243</ele>
        <time>2011-10-01T16:54:55.99</time>
      </trkpt>
      <trkpt lat="42.80305" lon="0.40546">
        <ele>1242.5</ele>
        <time>2011-10-01T16:54:57.9</time>
      </trkpt>
      <trkpt lat="42.80305" lon="0.40546">
        <ele>1242.5</ele>
        <time>2011-10-01T16:54:58.9</time>
      </trkpt>
      <trkpt lat="42.80305" lon="0.40546">
        <ele>1242.5</ele>
        <time>2011-10-01T16:54:59.9</time>
      </trkpt>
      <trkpt lat="42.80305" lon="0.40546">
        <ele>1242</ele>
        <time>2011-10-01T16:55:00.9</time>
      </trkpt>
      <trkpt lat="42.80305" lon="0.40546">
        <ele>1242</ele>
        <time>2011-10-01T16:55:00.99</time>
      </trkpt>
      <trkpt lat="42.80305" lon="0.40546">
        <ele>1241.5</ele>
        <time>2011-10-01T16:55:01.99</time>
      </trkpt>
      <trkpt lat="42.80305" lon="0.40546">
        <ele>1241.5</ele>
        <time>2011-10-01T16:55:03.39</time>
      </trkpt>
      <trkpt lat="42.80304" lon="0.40546">
        <ele>1241.5</ele>
        <time>2011-10-01T16:55:04.19</time>
      </trkpt>
      <trkpt lat="42.80304" lon="0.40546">
        <ele>1241.5</ele>
        <time>2011-10-01T16:55:05.19</time>
      </trkpt>
      <trkpt lat="42.80304" lon="0.40546">
        <ele>1241</ele>
        <time>2011-10-01T16:55:06.19</time>
      </trkpt>
      <trkpt lat="42.80304" lon="0.40546">
        <ele>1241</ele>
        <time>2011-10-01T16:55:07.9</time>
      </trkpt>
      <trkpt lat="42.80304" lon="0.40546">
        <ele>1241</ele>
        <time>2011-10-01T16:55:08.19</time>
      </trkpt>
      <trkpt lat="42.80304" lon="0.40546">
        <ele>1241</ele>
        <time>2011-10-01T16:55:09.19</time>
      </trkpt>
      <trkpt lat="42.80304" lon="0.40546">
        <ele>1240.5</ele>
        <time>2011-10-01T16:55:10.9</time>
      </trkpt>
      <trkpt lat="42.80304" lon="0.40546">
        <ele>1240.5</ele>
        <time>2011-10-01T16:55:11.19</time>
      </trkpt>
      <trkpt lat="42.80304" lon="0.40546">
        <ele>1240.5</ele>
        <time>2011-10-01T16:55:12.9</time>
      </trkpt>
      <trkpt lat="42.80304" lon="0.40546">
        <ele>1240.5</ele>
        <time>2011-10-01T16:55:13.19</time>
      </trkpt>
      <trkpt lat="42.80304" lon="0.40546">
        <ele>1240.5</ele>
        <time>2011-10-01T16:55:14.19</time>
      </trkpt>
      <trkpt lat="42.80304" lon="0.40546">
        <ele>1240.5</ele>
        <time>2011-10-01T16:55:15.9</time>
      </trkpt>
      <trkpt lat="42.80304" lon="0.40546">
        <ele>1240.5</ele>
        <time>2011-10-01T16:55:16.9</time>
      </trkpt>
      <trkpt lat="42.80304" lon="0.40546">
        <ele>1240.5</ele>
        <time>2011-10-01T16:55:17.9</time>
      </trkpt>
      <trkpt lat="42.80304" lon="0.40546">
        <ele>1240</ele>
        <time>2011-10-01T16:55:18.9</time>
      </trkpt>
      <trkpt lat="42.80304" lon="0.40546">
        <ele>1240</ele>
        <time>2011-10-01T16:55:19.9</time>
      </trkpt>
      <trkpt lat="42.80304" lon="0.40546">
        <ele>1240</ele>
        <time>2011-10-01T16:55:20.9</time>
      </trkpt>
      <trkpt lat="42.80304" lon="0.40546">
        <ele>1240</ele>
        <time>2011-10-01T16:55:21.9</time>
      </trkpt>
      <trkpt lat="42.80304" lon="0.40546">
        <ele>1240</ele>
        <time>2011-10-01T16:55:22.19</time>
      </trkpt>
      <trkpt lat="42.80304" lon="0.40546">
        <ele>1240</ele>
        <time>2011-10-01T16:55:23.19</time>
      </trkpt>
      <trkpt lat="42.80304" lon="0.40546">
        <ele>1240</ele>
        <time>2011-10-01T16:55:24.19</time>
      </trkpt>
      <trkpt lat="42.80304" lon="0.40546">
        <ele>1240</ele>
        <time>2011-10-01T16:55:25.19</time>
      </trkpt>
      <trkpt lat="42.80304" lon="0.40546">
        <ele>1240</ele>
        <time>2011-10-01T16:55:26.19</time>
      </trkpt>
      <trkpt lat="42.80304" lon="0.40546">
        <ele>1240</ele>
        <time>2011-10-01T16:55:27.9</time>
      </trkpt>
      <trkpt lat="42.80304" lon="0.40546">
        <ele>1239.5</ele>
        <time>2011-10-01T16:55:28.9</time>
      </trkpt>
      <trkpt lat="42.80304" lon="0.40546">
        <ele>1239.5</ele>
        <time>2011-10-01T16:55:29.9</time>
      </trkpt>
      <trkpt lat="42.80304" lon="0.40546">
        <ele>1239.5</ele>
        <time>2011-10-01T16:55:30.9</time>
      </trkpt>
      <trkpt lat="42.80304" lon="0.40546">
        <ele>1239.5</ele>
        <time>2011-10-01T16:55:31.19</time>
      </trkpt>
      <trkpt lat="42.80304" lon="0.40546">
        <ele>1239.5</ele>
        <time>2011-10-01T16:55:32.39</time>
      </trkpt>
      <trkpt lat="42.80304" lon="0.40546">
        <ele>1239.5</ele>
        <time>2011-10-01T16:55:33.9</time>
      </trkpt>
      <trkpt lat="42.80304" lon="0.40546">
        <ele>1239.5</ele>
        <time>2011-10-01T16:55:34.19</time>
      </trkpt>
      <trkpt lat="42.80304" lon="0.40546">
        <ele>1239.5</ele>
        <time>2011-10-01T16:55:35.9</time>
      </trkpt>
      <trkpt lat="42.80304" lon="0.40546">
        <ele>1239</ele>
        <time>2011-10-01T16:55:36.19</time>
      </trkpt>
      <trkpt lat="42.80304" lon="0.40546">
        <ele>1239</ele>
        <time>2011-10-01T16:55:37.19</time>
      </trkpt>
      <trkpt lat="42.80304" lon="0.40546">
        <ele>1239</ele>
        <time>2011-10-01T16:55:38.19</time>
      </trkpt>
      <trkpt lat="42.80304" lon="0.40546">
        <ele>1239</ele>
        <time>2011-10-01T16:55:39.9</time>
      </trkpt>
      <trkpt lat="42.80304" lon="0.40546">
        <ele>1239</ele>
        <time>2011-10-01T16:55:40.9</time>
      </trkpt>
      <trkpt lat="42.80304" lon="0.40546">
        <ele>1239</ele>
        <time>2011-10-01T16:55:41.9</time>
      </trkpt>
      <trkpt lat="42.80304" lon="0.40546">
        <ele>1239</ele>
        <time>2011-10-01T16:55:42.9</time>
      </trkpt>
      <trkpt lat="42.80304" lon="0.40546">
        <ele>1238.5</ele>
        <time>2011-10-01T16:55:43.9</time>
      </trkpt>
      <trkpt lat="42.80304" lon="0.40546">
        <ele>1238.5</ele>
        <time>2011-10-01T16:55:44.19</time>
      </trkpt>
      <trkpt lat="42.80304" lon="0.40546">
        <ele>1238.5</ele>
        <time>2011-10-01T16:55:45.19</time>
      </trkpt>
      <trkpt lat="42.80304" lon="0.40546">
        <ele>1238.5</ele>
        <time>2011-10-01T16:55:46.19</time>
      </trkpt>
      <trkpt lat="42.80304" lon="0.40546">
        <ele>1238.5</ele>
        <time>2011-10-01T16:55:47.9</time>
      </trkpt>
      <trkpt lat="42.80304" lon="0.40546">
        <ele>1238.5</ele>
        <time>2011-10-01T16:55:48.19</time>
      </trkpt>
      <trkpt lat="42.80304" lon="0.40546">
        <ele>1238.5</ele>
        <time>2011-10-01T16:55:49.19</time>
      </trkpt>
      <trkpt lat="42.80304" lon="0.40546">
        <ele>1238.5</ele>
        <time>2011-10-01T16:55:50.19</time>
      </trkpt>
      <trkpt lat="42.80304" lon="0.40546">
        <ele>1238</ele>
        <time>2011-10-01T16:55:51.19</time>
      </trkpt>
      <trkpt lat="42.80304" lon="0.40546">
        <ele>1238</ele>
        <time>2011-10-01T16:55:52.19</time>
      </trkpt>
      <trkpt lat="42.80304" lon="0.40546">
        <ele>1238</ele>
        <time>2011-10-01T16:55:53.19</time>
      </trkpt>
      <trkpt lat="42.80304" lon="0.40546">
        <ele>1238</ele>
        <time>2011-10-01T16:55:54.19</time>
      </trkpt>
      <trkpt lat="42.80304" lon="0.40546">
        <ele>1238</ele>
        <time>2011-10-01T16:55:55.19</time>
      </trkpt>
      <trkpt lat="42.80304" lon="0.40546">
        <ele>1238</ele>
        <time>2011-10-01T16:55:56.19</time>
      </trkpt>
      <trkpt lat="42.80304" lon="0.40546">
        <ele>1237.5</ele>
        <time>2011-10-01T16:55:57.19</time>
      </trkpt>
      <trkpt lat="42.80304" lon="0.40546">
        <ele>1237.5</ele>
        <time>2011-10-01T16:55:58.19</time>
      </trkpt>
      <trkpt lat="42.80304" lon="0.40546">
        <ele>1237.5</ele>
        <time>2011-10-01T16:55:59.19</time>
      </trkpt>
      <trkpt lat="42.80304" lon="0.40546">
        <ele>1237.5</ele>
        <time>2011-10-01T16:56:00.19</time>
      </trkpt>
      <trkpt lat="42.80304" lon="0.40546">
        <ele>1237.5</ele>
        <time>2011-10-01T16:56:01.19</time>
      </trkpt>
      <trkpt lat="42.80304" lon="0.40546">
        <ele>1237.5</ele>
        <time>2011-10-01T16:56:02.19</time>
      </trkpt>
      <trkpt lat="42.80304" lon="0.40546">
        <ele>1237.5</ele>
        <time>2011-10-01T16:56:03.19</time>
      </trkpt>
      <trkpt lat="42.80304" lon="0.40546">
        <ele>1237.5</ele>
        <time>2011-10-01T16:56:04.19</time>
      </trkpt>
      <trkpt lat="42.80304" lon="0.40546">
        <ele>1237</ele>
        <time>2011-10-01T16:56:05.19</time>
      </trkpt>
      <trkpt lat="42.80304" lon="0.40546">
        <ele>1237</ele>
        <time>2011-10-01T16:56:06.19</time>
      </trkpt>
      <trkpt lat="42.80304" lon="0.40546">
        <ele>1237</ele>
        <time>2011-10-01T16:56:07.19</time>
      </trkpt>
      <trkpt lat="42.80304" lon="0.40546">
        <ele>1237</ele>
        <time>2011-10-01T16:56:08.19</time>
      </trkpt>
      <trkpt lat="42.80304" lon="0.40546">
        <ele>1237</ele>
        <time>2011-10-01T16:56:09.19</time>
      </trkpt>
      <trkpt lat="42.80304" lon="0.40546">
        <ele>1237</ele>
        <time>2011-10-01T16:56:10.29</time>
      </trkpt>
      <trkpt lat="42.80304" lon="0.40546">
        <ele>1237</ele>
        <time>2011-10-01T16:56:11.19</time>
      </trkpt>
      <trkpt lat="42.80304" lon="0.40546">
        <ele>1236.5</ele>
        <time>2011-10-01T16:56:12.9</time>
      </trkpt>
      <trkpt lat="42.80304" lon="0.40546">
        <ele>1236.5</ele>
        <time>2011-10-01T16:56:13.9</time>
      </trkpt>
      <trkpt lat="42.80304" lon="0.40546">
        <ele>1236.5</ele>
        <time>2011-10-01T16:56:15.39</time>
      </trkpt>
      <trkpt lat="42.80304" lon="0.40546">
        <ele>1236.5</ele>
        <time>2011-10-01T16:56:16.55</time>
      </trkpt>
      <trkpt lat="42.80304" lon="0.40546">
        <ele>1236.5</ele>
        <time>2011-10-01T16:56:17.99</time>
      </trkpt>
      <trkpt lat="42.80304" lon="0.40546">
        <ele>1236</ele>
        <time>2011-10-01T16:56:18.99</time>
      </trkpt>
      <trkpt lat="42.80304" lon="0.40546">
        <ele>1236</ele>
        <time>2011-10-01T16:56:20.19</time>
      </trkpt>
      <trkpt lat="42.80304" lon="0.40546">
        <ele>1236</ele>
        <time>2011-10-01T16:56:21.9</time>
      </trkpt>
      <trkpt lat="42.80304" lon="0.40546">
        <ele>1236</ele>
        <time>2011-10-01T16:56:21.99</time>
      </trkpt>
      <trkpt lat="42.80304" lon="0.40546">
        <ele>1236</ele>
        <time>2011-10-01T16:56:23.9</time>
      </trkpt>
      <trkpt lat="42.80304" lon="0.40546">
        <ele>1236</ele>
        <time>2011-10-01T16:56:23.99</time>
      </trkpt>
      <trkpt lat="42.80304" lon="0.40546">
        <ele>1236</ele>
        <time>2011-10-01T16:56:24.99</time>
      </trkpt>
      <trkpt lat="42.80304" lon="0.40546">
        <ele>1236</ele>
        <time>2011-10-01T16:56:25.99</time>
      </trkpt>
      <trkpt lat="42.80304" lon="0.40546">
        <ele>1235.5</ele>
        <time>2011-10-01T16:56:26.99</time>
      </trkpt>
      <trkpt lat="42.80304" lon="0.40546">
        <ele>1235.5</ele>
        <time>2011-10-01T16:56:27.99</time>
      </trkpt>
      <trkpt lat="42.80304" lon="0.40546">
        <ele>1235.5</ele>
        <time>2011-10-01T16:56:28.99</time>
      </trkpt>
      <trkpt lat="42.80304" lon="0.40546">
        <ele>1235.5</ele>
        <time>2011-10-01T16:56:30.9</time>
      </trkpt>
      <trkpt lat="42.80304" lon="0.40546">
        <ele>1235.5</ele>
        <time>2011-10-01T16:56:30.99</time>
      </trkpt>
      <trkpt lat="42.80304" lon="0.40546">
        <ele>1235</ele>
        <time>2011-10-01T16:56:31.99</time>
      </trkpt>
      <trkpt lat="42.80304" lon="0.40546">
        <ele>1235</ele>
        <time>2011-10-01T16:56:32.99</time>
      </trkpt>
      <trkpt lat="42.80304" lon="0.40546">
        <ele>1235</ele>
        <time>2011-10-01T16:56:34.9</time>
      </trkpt>
      <trkpt lat="42.80304" lon="0.40546">
        <ele>1235</ele>
        <time>2011-10-01T16:56:34.98</time>
      </trkpt>
      <trkpt lat="42.80304" lon="0.40546">
        <ele>1235</ele>
        <time>2011-10-01T16:56:35.99</time>
      </trkpt>
      <trkpt lat="42.80304" lon="0.40546">
        <ele>1235</ele>
        <time>2011-10-01T16:56:36.99</time>
      </trkpt>
      <trkpt lat="42.80304" lon="0.40546">
        <ele>1235</ele>
        <time>2011-10-01T16:56:37.98</time>
      </trkpt>
      <trkpt lat="42.80304" lon="0.40546">
        <ele>1235</ele>
        <time>2011-10-01T16:56:38.99</time>
      </trkpt>
      <trkpt lat="42.80304" lon="0.40546">
        <ele>1235</ele>
        <time>2011-10-01T16:56:39.98</time>
      </trkpt>
      <trkpt lat="42.80304" lon="0.40546">
        <ele>1234.5</ele>
        <time>2011-10-01T16:56:40.99</time>
      </trkpt>
      <trkpt lat="42.80304" lon="0.40546">
        <ele>1234.5</ele>
        <time>2011-10-01T16:56:41.99</time>
      </trkpt>
      <trkpt lat="42.80304" lon="0.40546">
        <ele>1234.5</ele>
        <time>2011-10-01T16:56:42.99</time>
      </trkpt>
      <trkpt lat="42.80304" lon="0.40546">
        <ele>1234.5</ele>
        <time>2011-10-01T16:56:43.99</time>
      </trkpt>
      <trkpt lat="42.80304" lon="0.40546">
        <ele>1234.5</ele>
        <time>2011-10-01T16:56:45.9</time>
      </trkpt>
      <trkpt lat="42.80304" lon="0.40546">
        <ele>1234.5</ele>
        <time>2011-10-01T16:56:45.99</time>
      </trkpt>
      <trkpt lat="42.80304" lon="0.40546">
        <ele>1234.5</ele>
        <time>2011-10-01T16:56:47.9</time>
      </trkpt>
      <trkpt lat="42.80303" lon="0.40546">
        <ele>1234.5</ele>
        <time>2011-10-01T16:56:47.99</time>
      </trkpt>
      <trkpt lat="42.80303" lon="0.40546">
        <ele>1234.5</ele>
        <time>2011-10-01T16:56:48.98</time>
      </trkpt>
      <trkpt lat="42.80303" lon="0.40546">
        <ele>1234</ele>
        <time>2011-10-01T16:56:49.99</time>
      </trkpt>
      <trkpt lat="42.80303" lon="0.40546">
        <ele>1234</ele>
        <time>2011-10-01T16:56:50.98</time>
      </trkpt>
      <trkpt lat="42.80303" lon="0.40546">
        <ele>1234</ele>
        <time>2011-10-01T16:56:51.99</time>
      </trkpt>
      <trkpt lat="42.80303" lon="0.40546">
        <ele>1234</ele>
        <time>2011-10-01T16:56:53.9</time>
      </trkpt>
      <trkpt lat="42.80303" lon="0.40546">
        <ele>1234</ele>
        <time>2011-10-01T16:56:53.99</time>
      </trkpt>
      <trkpt lat="42.80303" lon="0.40546">
        <ele>1234</ele>
        <time>2011-10-01T16:56:55.9</time>
      </trkpt>
      <trkpt lat="42.80303" lon="0.40546">
        <ele>1234</ele>
        <time>2011-10-01T16:56:55.99</time>
      </trkpt>
      <trkpt lat="42.80303" lon="0.40546">
        <ele>1234</ele>
        <time>2011-10-01T16:56:56.99</time>
      </trkpt>
      <trkpt lat="42.80303" lon="0.40546">
        <ele>1233.5</ele>
        <time>2011-10-01T16:56:58.9</time>
      </trkpt>
      <trkpt lat="42.80303" lon="0.40546">
        <ele>1233.5</ele>
        <time>2011-10-01T16:56:58.98</time>
      </trkpt>
      <trkpt lat="42.80303" lon="0.40546">
        <ele>1233.5</ele>
        <time>2011-10-01T16:57:00.9</time>
      </trkpt>
      <trkpt lat="42.80303" lon="0.40546">
        <ele>1233.5</ele>
        <time>2011-10-01T16:57:00.99</time>
      </trkpt>
      <trkpt lat="42.80303" lon="0.40546">
        <ele>1233.5</ele>
        <time>2011-10-01T16:57:01.99</time>
      </trkpt>
      <trkpt lat="42.80303" lon="0.40546">
        <ele>1233.5</ele>
        <time>2011-10-01T16:57:03.9</time>
      </trkpt>
      <trkpt lat="42.80303" lon="0.40546">
        <ele>1233.5</ele>
        <time>2011-10-01T16:57:03.99</time>
      </trkpt>
      <trkpt lat="42.80303" lon="0.40546">
        <ele>1233.5</ele>
        <time>2011-10-01T16:57:04.99</time>
      </trkpt>
      <trkpt lat="42.80303" lon="0.40546">
        <ele>1233.5</ele>
        <time>2011-10-01T16:57:05.99</time>
      </trkpt>
      <trkpt lat="42.80303" lon="0.40546">
        <ele>1233</ele>
        <time>2011-10-01T16:57:06.98</time>
      </trkpt>
      <trkpt lat="42.80303" lon="0.40546">
        <ele>1233</ele>
        <time>2011-10-01T16:57:07.99</time>
      </trkpt>
      <trkpt lat="42.80303" lon="0.40546">
        <ele>1233</ele>
        <time>2011-10-01T16:57:08.99</time>
      </trkpt>
      <trkpt lat="42.80303" lon="0.40546">
        <ele>1233</ele>
        <time>2011-10-01T16:57:09.98</time>
      </trkpt>
      <trkpt lat="42.80303" lon="0.40546">
        <ele>1233</ele>
        <time>2011-10-01T16:57:10.99</time>
      </trkpt>
      <trkpt lat="42.80303" lon="0.40546">
        <ele>1233</ele>
        <time>2011-10-01T16:57:11.99</time>
      </trkpt>
      <trkpt lat="42.80303" lon="0.40546">
        <ele>1233</ele>
        <time>2011-10-01T16:57:12.98</time>
      </trkpt>
      <trkpt lat="42.80303" lon="0.40546">
        <ele>1233</ele>
        <time>2011-10-01T16:57:13.99</time>
      </trkpt>
      <trkpt lat="42.80303" lon="0.40546">
        <ele>1232.5</ele>
        <time>2011-10-01T16:57:14.98</time>
      </trkpt>
      <trkpt lat="42.80303" lon="0.40546">
        <ele>1232.5</ele>
        <time>2011-10-01T16:57:15.99</time>
      </trkpt>
      <trkpt lat="42.80303" lon="0.40546">
        <ele>1232.5</ele>
        <time>2011-10-01T16:57:16.99</time>
      </trkpt>
      <trkpt lat="42.80303" lon="0.40546">
        <ele>1232.5</ele>
        <time>2011-10-01T16:57:17.99</time>
      </trkpt>
      <trkpt lat="42.80303" lon="0.40546">
        <ele>1232.5</ele>
        <time>2011-10-01T16:57:18.99</time>
      </trkpt>
      <trkpt lat="42.80303" lon="0.40546">
        <ele>1232.5</ele>
        <time>2011-10-01T16:57:20.9</time>
      </trkpt>
      <trkpt lat="42.80303" lon="0.40547">
        <ele>1232.5</ele>
        <time>2011-10-01T16:57:20.99</time>
      </trkpt>
      <trkpt lat="42.80303" lon="0.40547">
        <ele>1232.5</ele>
        <time>2011-10-01T16:57:22.9</time>
      </trkpt>
      <trkpt lat="42.80303" lon="0.40547">
        <ele>1232</ele>
        <time>2011-10-01T16:57:22.99</time>
      </trkpt>
      <trkpt lat="42.80303" lon="0.40547">
        <ele>1232</ele>
        <time>2011-10-01T16:57:23.99</time>
      </trkpt>
      <trkpt lat="42.80303" lon="0.40547">
        <ele>1232</ele>
        <time>2011-10-01T16:57:24.99</time>
      </trkpt>
      <trkpt lat="42.80303" lon="0.40547">
        <ele>1232</ele>
        <time>2011-10-01T16:57:25.98</time>
      </trkpt>
      <trkpt lat="42.80303" lon="0.40547">
        <ele>1232</ele>
        <time>2011-10-01T16:57:27.9</time>
      </trkpt>
      <trkpt lat="42.80303" lon="0.40547">
        <ele>1232</ele>
        <time>2011-10-01T16:57:27.99</time>
      </trkpt>
      <trkpt lat="42.80303" lon="0.40547">
        <ele>1232</ele>
        <time>2011-10-01T16:57:29.19</time>
      </trkpt>
      <trkpt lat="42.80303" lon="0.40547">
        <ele>1231.5</ele>
        <time>2011-10-01T16:57:29.99</time>
      </trkpt>
      <trkpt lat="42.80303" lon="0.40547">
        <ele>1231.5</ele>
        <time>2011-10-01T16:57:30.99</time>
      </trkpt>
      <trkpt lat="42.80303" lon="0.40547">
        <ele>1231.5</ele>
        <time>2011-10-01T16:57:32.9</time>
      </trkpt>
      <trkpt lat="42.80303" lon="0.40547">
        <ele>1231.5</ele>
        <time>2011-10-01T16:57:33.9</time>
      </trkpt>
      <trkpt lat="42.80303" lon="0.40547">
        <ele>1231.5</ele>
        <time>2011-10-01T16:57:33.99</time>
      </trkpt>
      <trkpt lat="42.80303" lon="0.40547">
        <ele>1231.5</ele>
        <time>2011-10-01T16:57:34.99</time>
      </trkpt>
      <trkpt lat="42.80303" lon="0.40547">
        <ele>1231.5</ele>
        <time>2011-10-01T16:57:35.99</time>
      </trkpt>
      <trkpt lat="42.80303" lon="0.40547">
        <ele>1231.5</ele>
        <time>2011-10-01T16:57:36.99</time>
      </trkpt>
      <trkpt lat="42.80303" lon="0.40547">
        <ele>1231</ele>
        <time>2011-10-01T16:57:37.99</time>
      </trkpt>
      <trkpt lat="42.80303" lon="0.40547">
        <ele>1231</ele>
        <time>2011-10-01T16:57:38.99</time>
      </trkpt>
      <trkpt lat="42.80303" lon="0.40547">
        <ele>1231</ele>
        <time>2011-10-01T16:57:39.98</time>
      </trkpt>
      <trkpt lat="42.80303" lon="0.40547">
        <ele>1231</ele>
        <time>2011-10-01T16:57:40.99</time>
      </trkpt>
      <trkpt lat="42.80302" lon="0.40547">
        <ele>1231</ele>
        <time>2011-10-01T16:57:41.99</time>
      </trkpt>
      <trkpt lat="42.80302" lon="0.40547">
        <ele>1231</ele>
        <time>2011-10-01T16:57:42.99</time>
      </trkpt>
      <trkpt lat="42.80302" lon="0.40547">
        <ele>1230.5</ele>
        <time>2011-10-01T16:57:45.19</time>
      </trkpt>
      <trkpt lat="42.80302" lon="0.40547">
        <ele>1230.5</ele>
        <time>2011-10-01T16:57:46.55</time>
      </trkpt>
      <trkpt lat="42.80303" lon="0.40547">
        <ele>1230.5</ele>
        <time>2011-10-01T16:57:47.99</time>
      </trkpt>
      <trkpt lat="42.80303" lon="0.40547">
        <ele>1230.5</ele>
        <time>2011-10-01T16:57:48.99</time>
      </trkpt>
      <trkpt lat="42.80303" lon="0.40547">
        <ele>1230</ele>
        <time>2011-10-01T16:57:49.99</time>
      </trkpt>
      <trkpt lat="42.80303" lon="0.40547">
        <ele>1230</ele>
        <time>2011-10-01T16:57:50.99</time>
      </trkpt>
      <trkpt lat="42.80303" lon="0.40547">
        <ele>1230</ele>
        <time>2011-10-01T16:57:52.9</time>
      </trkpt>
      <trkpt lat="42.80303" lon="0.40547">
        <ele>1230</ele>
        <time>2011-10-01T16:57:53.9</time>
      </trkpt>
      <trkpt lat="42.80303" lon="0.40547">
        <ele>1230</ele>
        <time>2011-10-01T16:57:54.9</time>
      </trkpt>
      <trkpt lat="42.80303" lon="0.40547">
        <ele>1230</ele>
        <time>2011-10-01T16:57:55.9</time>
      </trkpt>
      <trkpt lat="42.80303" lon="0.40547">
        <ele>1230</ele>
        <time>2011-10-01T16:57:55.99</time>
      </trkpt>
      <trkpt lat="42.80303" lon="0.40547">
        <ele>1229.5</ele>
        <time>2011-10-01T16:57:57.9</time>
      </trkpt>
      <trkpt lat="42.80303" lon="0.40547">
        <ele>1229.5</ele>
        <time>2011-10-01T16:57:57.99</time>
      </trkpt>
      <trkpt lat="42.80303" lon="0.40547">
        <ele>1229.5</ele>
        <time>2011-10-01T16:57:58.99</time>
      </trkpt>
      <trkpt lat="42.80303" lon="0.40547">
        <ele>1229.5</ele>
        <time>2011-10-01T16:58:00.9</time>
      </trkpt>
      <trkpt lat="42.80303" lon="0.40547">
        <ele>1229.5</ele>
        <time>2011-10-01T16:58:01.9</time>
      </trkpt>
      <trkpt lat="42.80303" lon="0.40547">
        <ele>1229</ele>
        <time>2011-10-01T16:58:01.99</time>
      </trkpt>
      <trkpt lat="42.80303" lon="0.40547">
        <ele>1229</ele>
        <time>2011-10-01T16:58:02.99</time>
      </trkpt>
      <trkpt lat="42.80303" lon="0.40547">
        <ele>1229</ele>
        <time>2011-10-01T16:58:03.99</time>
      </trkpt>
      <trkpt lat="42.80303" lon="0.40547">
        <ele>1229</ele>
        <time>2011-10-01T16:58:05.9</time>
      </trkpt>
      <trkpt lat="42.80303" lon="0.40547">
        <ele>1229</ele>
        <time>2011-10-01T16:58:06.9</time>
      </trkpt>
      <trkpt lat="42.80303" lon="0.40547">
        <ele>1229</ele>
        <time>2011-10-01T16:58:06.99</time>
      </trkpt>
      <trkpt lat="42.80303" lon="0.40547">
        <ele>1229</ele>
        <time>2011-10-01T16:58:08.9</time>
      </trkpt>
      <trkpt lat="42.80303" lon="0.40547">
        <ele>1228.5</ele>
        <time>2011-10-01T16:58:09</time>
      </trkpt>
      <trkpt lat="42.80303" lon="0.40547">
        <ele>1228.5</ele>
        <time>2011-10-01T16:58:09.99</time>
      </trkpt>
      <trkpt lat="42.80303" lon="0.40547">
        <ele>1228.5</ele>
        <time>2011-10-01T16:58:10.99</time>
      </trkpt>
      <trkpt lat="42.80303" lon="0.40547">
        <ele>1228.5</ele>
        <time>2011-10-01T16:58:11.99</time>
      </trkpt>
      <trkpt lat="42.80303" lon="0.40547">
        <ele>1228.5</ele>
        <time>2011-10-01T16:58:13.9</time>
      </trkpt>
      <trkpt lat="42.80303" lon="0.40547">
        <ele>1228.5</ele>
        <time>2011-10-01T16:58:13.99</time>
      </trkpt>
      <trkpt lat="42.80303" lon="0.40547">
        <ele>1228</ele>
        <time>2011-10-01T16:58:15.9</time>
      </trkpt>
      <trkpt lat="42.80303" lon="0.40547">
        <ele>1228</ele>
        <time>2011-10-01T16:58:16.9</time>
      </trkpt>
      <trkpt lat="42.80303" lon="0.40546">
        <ele>1228</ele>
        <time>2011-10-01T16:58:16.99</time>
      </trkpt>
      <trkpt lat="42.80303" lon="0.40546">
        <ele>1228</ele>
        <time>2011-10-01T16:58:18.9</time>
      </trkpt>
      <trkpt lat="42.80303" lon="0.40546">
        <ele>1228</ele>
        <time>2011-10-01T16:58:19.9</time>
      </trkpt>
      <trkpt lat="42.80303" lon="0.40546">
        <ele>1228</ele>
        <time>2011-10-01T16:58:19.99</time>
      </trkpt>
      <trkpt lat="42.80303" lon="0.40546">
        <ele>1228</ele>
        <time>2011-10-01T16:58:21.9</time>
      </trkpt>
      <trkpt lat="42.80303" lon="0.40546">
        <ele>1227.5</ele>
        <time>2011-10-01T16:58:21.99</time>
      </trkpt>
      <trkpt lat="42.80303" lon="0.40546">
        <ele>1227.5</ele>
        <time>2011-10-01T16:58:22.99</time>
      </trkpt>
      <trkpt lat="42.80303" lon="0.40546">
        <ele>1227.5</ele>
        <time>2011-10-01T16:58:23.99</time>
      </trkpt>
      <trkpt lat="42.80303" lon="0.40546">
        <ele>1227.5</ele>
        <time>2011-10-01T16:58:25.9</time>
      </trkpt>
      <trkpt lat="42.80303" lon="0.40546">
        <ele>1227.5</ele>
        <time>2011-10-01T16:58:26.9</time>
      </trkpt>
      <trkpt lat="42.80303" lon="0.40546">
        <ele>1227.5</ele>
        <time>2011-10-01T16:58:26.99</time>
      </trkpt>
      <trkpt lat="42.80303" lon="0.40546">
        <ele>1227</ele>
        <time>2011-10-01T16:58:27.99</time>
      </trkpt>
      <trkpt lat="42.80303" lon="0.40546">
        <ele>1227</ele>
        <time>2011-10-01T16:58:28.99</time>
      </trkpt>
      <trkpt lat="42.80303" lon="0.40546">
        <ele>1227</ele>
        <time>2011-10-01T16:58:36.85</time>
      </trkpt>
      <trkpt lat="42.80303" lon="0.40546">
        <ele>1227</ele>
        <time>2011-10-01T16:58:38.15</time>
      </trkpt>
      <trkpt lat="42.80303" lon="0.40546">
        <ele>1227</ele>
        <time>2011-10-01T16:58:39.15</time>
      </trkpt>
      <trkpt lat="42.80303" lon="0.40546">
        <ele>1227</ele>
        <time>2011-10-01T16:58:40.15</time>
      </trkpt>
      <trkpt lat="42.80303" lon="0.40546">
        <ele>1227</ele>
        <time>2011-10-01T16:58:41.15</time>
      </trkpt>
      <trkpt lat="42.80303" lon="0.40546">
        <ele>1226.5</ele>
        <time>2011-10-01T16:58:42.15</time>
      </trkpt>
      <trkpt lat="42.80303" lon="0.40546">
        <ele>1226.5</ele>
        <time>2011-10-01T16:58:43.14</time>
      </trkpt>
      <trkpt lat="42.80303" lon="0.40546">
        <ele>1226.5</ele>
        <time>2011-10-01T16:58:44.15</time>
      </trkpt>
      <trkpt lat="42.80303" lon="0.40546">
        <ele>1226.5</ele>
        <time>2011-10-01T16:58:45.14</time>
      </trkpt>
      <trkpt lat="42.80303" lon="0.40546">
        <ele>1226.5</ele>
        <time>2011-10-01T16:58:46.15</time>
      </trkpt>
      <trkpt lat="42.80303" lon="0.40546">
        <ele>1226.5</ele>
        <time>2011-10-01T16:58:47.14</time>
      </trkpt>
      <trkpt lat="42.80303" lon="0.40546">
        <ele>1226.5</ele>
        <time>2011-10-01T16:58:48.15</time>
      </trkpt>
      <trkpt lat="42.80303" lon="0.40546">
        <ele>1226</ele>
        <time>2011-10-01T16:58:49.15</time>
      </trkpt>
      <trkpt lat="42.80303" lon="0.40546">
        <ele>1226</ele>
        <time>2011-10-01T16:58:50.15</time>
      </trkpt>
      <trkpt lat="42.80303" lon="0.40547">
        <ele>1226</ele>
        <time>2011-10-01T16:58:51.15</time>
      </trkpt>
      <trkpt lat="42.80303" lon="0.40547">
        <ele>1226</ele>
        <time>2011-10-01T16:58:52.14</time>
      </trkpt>
      <trkpt lat="42.80303" lon="0.40547">
        <ele>1226</ele>
        <time>2011-10-01T16:58:53.15</time>
      </trkpt>
      <trkpt lat="42.80303" lon="0.40547">
        <ele>1226</ele>
        <time>2011-10-01T16:58:54.15</time>
      </trkpt>
      <trkpt lat="42.80303" lon="0.40547">
        <ele>1225.5</ele>
        <time>2011-10-01T16:58:55.15</time>
      </trkpt>
      <trkpt lat="42.80303" lon="0.40547">
        <ele>1225.5</ele>
        <time>2011-10-01T16:58:56.14</time>
      </trkpt>
      <trkpt lat="42.80303" lon="0.40547">
        <ele>1225.5</ele>
        <time>2011-10-01T16:58:57.14</time>
      </trkpt>
      <trkpt lat="42.80303" lon="0.40547">
        <ele>1225.5</ele>
        <time>2011-10-01T16:58:58.14</time>
      </trkpt>
      <trkpt lat="42.80303" lon="0.40547">
        <ele>1225.5</ele>
        <time>2011-10-01T16:58:59.14</time>
      </trkpt>
      <trkpt lat="42.80303" lon="0.40547">
        <ele>1225.5</ele>
        <time>2011-10-01T16:59:00.15</time>
      </trkpt>
      <trkpt lat="42.80303" lon="0.40547">
        <ele>1225.5</ele>
        <time>2011-10-01T16:59:01.15</time>
      </trkpt>
      <trkpt lat="42.80303" lon="0.40547">
        <ele>1225.5</ele>
        <time>2011-10-01T16:59:04.16</time>
      </trkpt>
      <trkpt lat="42.80303" lon="0.40547">
        <ele>1225</ele>
        <time>2011-10-01T16:59:05.53</time>
      </trkpt>
      <trkpt lat="42.80303" lon="0.40547">
        <ele>1225</ele>
        <time>2011-10-01T16:59:06.99</time>
      </trkpt>
      <trkpt lat="42.80303" lon="0.40547">
        <ele>1225</ele>
        <time>2011-10-01T16:59:07.99</time>
      </trkpt>
      <trkpt lat="42.80303" lon="0.40547">
        <ele>1225</ele>
        <time>2011-10-01T16:59:09</time>
      </trkpt>
      <trkpt lat="42.80303" lon="0.40547">
        <ele>1225</ele>
        <time>2011-10-01T16:59:10.9</time>
      </trkpt>
      <trkpt lat="42.80303" lon="0.40547">
        <ele>1225</ele>
        <time>2011-10-01T16:59:11.9</time>
      </trkpt>
      <trkpt lat="42.80303" lon="0.40547">
        <ele>1224.5</ele>
        <time>2011-10-01T16:59:12.9</time>
      </trkpt>
      <trkpt lat="42.80303" lon="0.40547">
        <ele>1224.5</ele>
        <time>2011-10-01T16:59:13.9</time>
      </trkpt>
      <trkpt lat="42.80303" lon="0.40547">
        <ele>1224.5</ele>
        <time>2011-10-01T16:59:13.99</time>
      </trkpt>
      <trkpt lat="42.80303" lon="0.40547">
        <ele>1224.5</ele>
        <time>2011-10-01T16:59:15.9</time>
      </trkpt>
      <trkpt lat="42.80303" lon="0.40547">
        <ele>1224.5</ele>
        <time>2011-10-01T16:59:15.99</time>
      </trkpt>
      <trkpt lat="42.80303" lon="0.40547">
        <ele>1224.5</ele>
        <time>2011-10-01T16:59:16.98</time>
      </trkpt>
      <trkpt lat="42.80303" lon="0.40547">
        <ele>1224.5</ele>
        <time>2011-10-01T16:59:18.9</time>
      </trkpt>
      <trkpt lat="42.80303" lon="0.40547">
        <ele>1224.5</ele>
        <time>2011-10-01T16:59:19.9</time>
      </trkpt>
      <trkpt lat="42.80302" lon="0.40547">
        <ele>1224.5</ele>
        <time>2011-10-01T16:59:20.9</time>
      </trkpt>
      <trkpt lat="42.80302" lon="0.40547">
        <ele>1224.5</ele>
        <time>2011-10-01T16:59:21.9</time>
      </trkpt>
      <trkpt lat="42.80303" lon="0.40547">
        <ele>1225</ele>
        <time>2011-10-01T16:59:23.29</time>
      </trkpt>
      <trkpt lat="42.80303" lon="0.40547">
        <ele>1224.5</ele>
        <time>2011-10-01T16:59:25.54</time>
      </trkpt>
      <trkpt lat="42.80304" lon="0.40547">
        <ele>1224</ele>
        <time>2011-10-01T16:59:27.9</time>
      </trkpt>
      <trkpt lat="42.80305" lon="0.40547">
        <ele>1224</ele>
        <time>2011-10-01T16:59:27.99</time>
      </trkpt>
      <trkpt lat="42.80306" lon="0.40547">
        <ele>1224</ele>
        <time>2011-10-01T16:59:30.89</time>
      </trkpt>
      <trkpt lat="42.80306" lon="0.40547">
        <ele>1223.5</ele>
        <time>2011-10-01T16:59:32.29</time>
      </trkpt>
      <trkpt lat="42.80306" lon="0.40546">
        <ele>1223</ele>
        <time>2011-10-01T16:59:34.19</time>
      </trkpt>
      <trkpt lat="42.80307" lon="0.40545">
        <ele>1222.5</ele>
        <time>2011-10-01T16:59:36.99</time>
      </trkpt>
      <trkpt lat="42.80307" lon="0.40545">
        <ele>1222.5</ele>
        <time>2011-10-01T16:59:39.59</time>
      </trkpt>
      <trkpt lat="42.80309" lon="0.40544">
        <ele>1219.5</ele>
        <time>2011-10-01T16:59:42.98</time>
      </trkpt>
      <trkpt lat="42.80311" lon="0.40544">
        <ele>1219</ele>
        <time>2011-10-01T16:59:47.59</time>
      </trkpt>
      <trkpt lat="42.80307" lon="0.40545">
        <ele>1215</ele>
        <time>2011-10-01T16:59:50.19</time>
      </trkpt>
      <trkpt lat="42.80308" lon="0.40545">
        <ele>1214</ele>
        <time>2011-10-01T16:59:50.99</time>
      </trkpt>
      <trkpt lat="42.80307" lon="0.40545">
        <ele>1213.5</ele>
        <time>2011-10-01T16:59:52.12</time>
      </trkpt>
      <trkpt lat="42.80307" lon="0.40545">
        <ele>1213</ele>
        <time>2011-10-01T16:59:52.99</time>
      </trkpt>
      <trkpt lat="42.80306" lon="0.40545">
        <ele>1213</ele>
        <time>2011-10-01T16:59:54.19</time>
      </trkpt>
      <trkpt lat="42.80306" lon="0.40545">
        <ele>1213</ele>
        <time>2011-10-01T16:59:54.73</time>
      </trkpt>
    </trkseg>
  </trk>
</gpx>